<?xml version="1.0" encoding="UTF-8" standalone="no" ?>
<gpx xmlns="http://www.topografix.com/GPX/1/1" xmlns:xsi="http://www.w3.org/2001/XMLSchema-instance" xsi:schemaLocation="http://www.topografix.com/GPX/1/1 http://www.topografix.com/GPX/1/1/gpx.xsd" version="1.1" creator="VisuGPX - https://www.visugpx.com">
  <metadata>
    <name>l'Oppidum - Col du CouCou</name>
  </metadata>
  <trk>
    <name><![CDATA[JP_la_Gardiette_Col_du_CouCou_l oppidum]]></name>
    <extensions>
      <line xmlns="http://www.topografix.com/GPX/gpx_style/0/2">
        <width>6</width>
      </line>
    </extensions>
    <trkseg>
      <trkpt lat="43.5007" lon="6.64421">
        <ele>73.3</ele>
        <time>2023-03-04T07:03:11.000Z</time>
      </trkpt>
      <trkpt lat="43.50072" lon="6.64427">
        <ele>73.5</ele>
        <time>2023-03-04T07:03:12.000Z</time>
      </trkpt>
      <trkpt lat="43.50073" lon="6.64432">
        <ele>73.7</ele>
        <time>2023-03-04T07:03:13.000Z</time>
      </trkpt>
      <trkpt lat="43.50074" lon="6.64437">
        <ele>73.8</ele>
        <time>2023-03-04T07:03:15.000Z</time>
      </trkpt>
      <trkpt lat="43.50076" lon="6.64442">
        <ele>73.9</ele>
        <time>2023-03-04T07:03:16.000Z</time>
      </trkpt>
      <trkpt lat="43.50079" lon="6.64447">
        <ele>73.9</ele>
        <time>2023-03-04T07:03:17.000Z</time>
      </trkpt>
      <trkpt lat="43.50082" lon="6.64451">
        <ele>74</ele>
        <time>2023-03-04T07:03:18.000Z</time>
      </trkpt>
      <trkpt lat="43.50087" lon="6.64453">
        <ele>74</ele>
        <time>2023-03-04T07:03:19.000Z</time>
      </trkpt>
      <trkpt lat="43.50093" lon="6.64449">
        <ele>74</ele>
        <time>2023-03-04T07:03:20.000Z</time>
      </trkpt>
      <trkpt lat="43.50099" lon="6.64447">
        <ele>73.6</ele>
        <time>2023-03-04T07:03:21.000Z</time>
      </trkpt>
      <trkpt lat="43.50104" lon="6.64445">
        <ele>73.1</ele>
        <time>2023-03-04T07:03:23.000Z</time>
      </trkpt>
      <trkpt lat="43.50111" lon="6.64443">
        <ele>72.3</ele>
        <time>2023-03-04T07:03:24.000Z</time>
      </trkpt>
      <trkpt lat="43.50115" lon="6.6444">
        <ele>71.7</ele>
        <time>2023-03-04T07:03:25.000Z</time>
      </trkpt>
      <trkpt lat="43.50118" lon="6.64431">
        <ele>71</ele>
        <time>2023-03-04T07:03:27.000Z</time>
      </trkpt>
      <trkpt lat="43.50117" lon="6.64424">
        <ele>70.7</ele>
        <time>2023-03-04T07:03:28.000Z</time>
      </trkpt>
      <trkpt lat="43.50118" lon="6.64416">
        <ele>70.6</ele>
        <time>2023-03-04T07:03:30.000Z</time>
      </trkpt>
      <trkpt lat="43.5012" lon="6.64412">
        <ele>70.6</ele>
        <time>2023-03-04T07:03:31.000Z</time>
      </trkpt>
      <trkpt lat="43.50122" lon="6.64407">
        <ele>70.5</ele>
        <time>2023-03-04T07:03:33.000Z</time>
      </trkpt>
      <trkpt lat="43.50124" lon="6.64401">
        <ele>70.4</ele>
        <time>2023-03-04T07:03:34.000Z</time>
      </trkpt>
      <trkpt lat="43.50126" lon="6.64395">
        <ele>70.4</ele>
        <time>2023-03-04T07:03:35.000Z</time>
      </trkpt>
      <trkpt lat="43.50126" lon="6.64391">
        <ele>70.3</ele>
        <time>2023-03-04T07:03:36.000Z</time>
      </trkpt>
      <trkpt lat="43.50127" lon="6.64391">
        <ele>70.3</ele>
        <time>2023-03-04T07:03:37.000Z</time>
      </trkpt>
      <trkpt lat="43.50127" lon="6.64391">
        <ele>70.3</ele>
        <time>2023-03-04T07:03:38.000Z</time>
      </trkpt>
      <trkpt lat="43.50126" lon="6.64392">
        <ele>70.3</ele>
        <time>2023-03-04T07:03:39.000Z</time>
      </trkpt>
      <trkpt lat="43.50126" lon="6.64392">
        <ele>70.3</ele>
        <time>2023-03-04T07:03:41.000Z</time>
      </trkpt>
      <trkpt lat="43.50126" lon="6.64392">
        <ele>70.3</ele>
        <time>2023-03-04T07:03:42.000Z</time>
      </trkpt>
      <trkpt lat="43.50126" lon="6.64393">
        <ele>70.3</ele>
        <time>2023-03-04T07:03:43.000Z</time>
      </trkpt>
      <trkpt lat="43.50126" lon="6.64394">
        <ele>70.3</ele>
        <time>2023-03-04T07:03:45.000Z</time>
      </trkpt>
      <trkpt lat="43.50126" lon="6.64394">
        <ele>70.3</ele>
        <time>2023-03-04T07:03:46.000Z</time>
      </trkpt>
      <trkpt lat="43.50126" lon="6.64394">
        <ele>70.3</ele>
        <time>2023-03-04T07:03:48.000Z</time>
      </trkpt>
      <trkpt lat="43.5013" lon="6.64399">
        <ele>70.2</ele>
        <time>2023-03-04T07:04:36.000Z</time>
      </trkpt>
      <trkpt lat="43.50131" lon="6.644">
        <ele>70.2</ele>
        <time>2023-03-04T07:04:38.000Z</time>
      </trkpt>
      <trkpt lat="43.50131" lon="6.64401">
        <ele>70.2</ele>
        <time>2023-03-04T07:04:39.000Z</time>
      </trkpt>
      <trkpt lat="43.50131" lon="6.64402">
        <ele>70.2</ele>
        <time>2023-03-04T07:04:41.000Z</time>
      </trkpt>
      <trkpt lat="43.50132" lon="6.64402">
        <ele>70.2</ele>
        <time>2023-03-04T07:04:42.000Z</time>
      </trkpt>
      <trkpt lat="43.50132" lon="6.64403">
        <ele>70.2</ele>
        <time>2023-03-04T07:04:43.000Z</time>
      </trkpt>
      <trkpt lat="43.50132" lon="6.64403">
        <ele>70.2</ele>
        <time>2023-03-04T07:04:45.000Z</time>
      </trkpt>
      <trkpt lat="43.50132" lon="6.64403">
        <ele>70.2</ele>
        <time>2023-03-04T07:04:46.000Z</time>
      </trkpt>
      <trkpt lat="43.50132" lon="6.64403">
        <ele>70.2</ele>
        <time>2023-03-04T07:04:48.000Z</time>
      </trkpt>
      <trkpt lat="43.50132" lon="6.64403">
        <ele>70.2</ele>
        <time>2023-03-04T07:04:49.000Z</time>
      </trkpt>
      <trkpt lat="43.50132" lon="6.64403">
        <ele>70.2</ele>
        <time>2023-03-04T07:04:50.000Z</time>
      </trkpt>
      <trkpt lat="43.50132" lon="6.64403">
        <ele>70.2</ele>
        <time>2023-03-04T07:04:52.000Z</time>
      </trkpt>
      <trkpt lat="43.50132" lon="6.64403">
        <ele>70.2</ele>
        <time>2023-03-04T07:04:53.000Z</time>
      </trkpt>
      <trkpt lat="43.50132" lon="6.64403">
        <ele>70.2</ele>
        <time>2023-03-04T07:04:55.000Z</time>
      </trkpt>
      <trkpt lat="43.50132" lon="6.64403">
        <ele>70.2</ele>
        <time>2023-03-04T07:04:56.000Z</time>
      </trkpt>
      <trkpt lat="43.50132" lon="6.64403">
        <ele>70.2</ele>
        <time>2023-03-04T07:04:58.000Z</time>
      </trkpt>
      <trkpt lat="43.50132" lon="6.64403">
        <ele>70.2</ele>
        <time>2023-03-04T07:04:59.000Z</time>
      </trkpt>
      <trkpt lat="43.50132" lon="6.64403">
        <ele>70.2</ele>
        <time>2023-03-04T07:05:00.000Z</time>
      </trkpt>
      <trkpt lat="43.50132" lon="6.64403">
        <ele>70.2</ele>
        <time>2023-03-04T07:05:01.000Z</time>
      </trkpt>
      <trkpt lat="43.50132" lon="6.64403">
        <ele>70.2</ele>
        <time>2023-03-04T07:05:02.000Z</time>
      </trkpt>
      <trkpt lat="43.50132" lon="6.64403">
        <ele>70.2</ele>
        <time>2023-03-04T07:05:03.000Z</time>
      </trkpt>
      <trkpt lat="43.50132" lon="6.64403">
        <ele>70.2</ele>
        <time>2023-03-04T07:05:04.000Z</time>
      </trkpt>
      <trkpt lat="43.50132" lon="6.64403">
        <ele>70.2</ele>
        <time>2023-03-04T07:05:05.000Z</time>
      </trkpt>
      <trkpt lat="43.50132" lon="6.64403">
        <ele>70.2</ele>
        <time>2023-03-04T07:05:06.000Z</time>
      </trkpt>
      <trkpt lat="43.50132" lon="6.64403">
        <ele>70.2</ele>
        <time>2023-03-04T07:05:07.000Z</time>
      </trkpt>
      <trkpt lat="43.50132" lon="6.64403">
        <ele>70.2</ele>
        <time>2023-03-04T07:05:08.000Z</time>
      </trkpt>
      <trkpt lat="43.50132" lon="6.64403">
        <ele>70.2</ele>
        <time>2023-03-04T07:05:09.000Z</time>
      </trkpt>
      <trkpt lat="43.50132" lon="6.64403">
        <ele>70.2</ele>
        <time>2023-03-04T07:05:10.000Z</time>
      </trkpt>
      <trkpt lat="43.50132" lon="6.64403">
        <ele>70.2</ele>
        <time>2023-03-04T07:05:11.000Z</time>
      </trkpt>
      <trkpt lat="43.50132" lon="6.64403">
        <ele>70.2</ele>
        <time>2023-03-04T07:05:12.000Z</time>
      </trkpt>
      <trkpt lat="43.50132" lon="6.64403">
        <ele>70.2</ele>
        <time>2023-03-04T07:05:13.000Z</time>
      </trkpt>
      <trkpt lat="43.50132" lon="6.64403">
        <ele>70.2</ele>
        <time>2023-03-04T07:05:14.000Z</time>
      </trkpt>
      <trkpt lat="43.50132" lon="6.64403">
        <ele>70.2</ele>
        <time>2023-03-04T07:05:15.000Z</time>
      </trkpt>
      <trkpt lat="43.50132" lon="6.64404">
        <ele>70.1</ele>
        <time>2023-03-04T07:05:16.000Z</time>
      </trkpt>
      <trkpt lat="43.50132" lon="6.64404">
        <ele>70.1</ele>
        <time>2023-03-04T07:05:17.000Z</time>
      </trkpt>
      <trkpt lat="43.50132" lon="6.64404">
        <ele>70.1</ele>
        <time>2023-03-04T07:05:18.000Z</time>
      </trkpt>
      <trkpt lat="43.50132" lon="6.64404">
        <ele>70.1</ele>
        <time>2023-03-04T07:05:19.000Z</time>
      </trkpt>
      <trkpt lat="43.50132" lon="6.64404">
        <ele>70.1</ele>
        <time>2023-03-04T07:05:20.000Z</time>
      </trkpt>
      <trkpt lat="43.50132" lon="6.64404">
        <ele>70.1</ele>
        <time>2023-03-04T07:05:21.000Z</time>
      </trkpt>
      <trkpt lat="43.50132" lon="6.64404">
        <ele>70.1</ele>
        <time>2023-03-04T07:05:22.000Z</time>
      </trkpt>
      <trkpt lat="43.50132" lon="6.64404">
        <ele>70.1</ele>
        <time>2023-03-04T07:05:23.000Z</time>
      </trkpt>
      <trkpt lat="43.50132" lon="6.64404">
        <ele>70.1</ele>
        <time>2023-03-04T07:05:24.000Z</time>
      </trkpt>
      <trkpt lat="43.50132" lon="6.64404">
        <ele>70.1</ele>
        <time>2023-03-04T07:05:25.000Z</time>
      </trkpt>
      <trkpt lat="43.50132" lon="6.64404">
        <ele>70.1</ele>
        <time>2023-03-04T07:05:26.000Z</time>
      </trkpt>
      <trkpt lat="43.50132" lon="6.64404">
        <ele>70.1</ele>
        <time>2023-03-04T07:05:27.000Z</time>
      </trkpt>
      <trkpt lat="43.50132" lon="6.64404">
        <ele>70.1</ele>
        <time>2023-03-04T07:05:28.000Z</time>
      </trkpt>
      <trkpt lat="43.50132" lon="6.64404">
        <ele>70.1</ele>
        <time>2023-03-04T07:05:29.000Z</time>
      </trkpt>
      <trkpt lat="43.50132" lon="6.64404">
        <ele>70.1</ele>
        <time>2023-03-04T07:05:30.000Z</time>
      </trkpt>
      <trkpt lat="43.50132" lon="6.64404">
        <ele>70.1</ele>
        <time>2023-03-04T07:05:31.000Z</time>
      </trkpt>
      <trkpt lat="43.50132" lon="6.64404">
        <ele>70.1</ele>
        <time>2023-03-04T07:05:32.000Z</time>
      </trkpt>
      <trkpt lat="43.50132" lon="6.64404">
        <ele>70.1</ele>
        <time>2023-03-04T07:05:33.000Z</time>
      </trkpt>
      <trkpt lat="43.50132" lon="6.64404">
        <ele>70.1</ele>
        <time>2023-03-04T07:05:34.000Z</time>
      </trkpt>
      <trkpt lat="43.50132" lon="6.64404">
        <ele>70.1</ele>
        <time>2023-03-04T07:05:35.000Z</time>
      </trkpt>
      <trkpt lat="43.50132" lon="6.64404">
        <ele>70.1</ele>
        <time>2023-03-04T07:05:36.000Z</time>
      </trkpt>
      <trkpt lat="43.50132" lon="6.64404">
        <ele>70.1</ele>
        <time>2023-03-04T07:05:37.000Z</time>
      </trkpt>
      <trkpt lat="43.50132" lon="6.64404">
        <ele>70.1</ele>
        <time>2023-03-04T07:05:38.000Z</time>
      </trkpt>
      <trkpt lat="43.50132" lon="6.64404">
        <ele>70.1</ele>
        <time>2023-03-04T07:05:39.000Z</time>
      </trkpt>
      <trkpt lat="43.50132" lon="6.64404">
        <ele>70.1</ele>
        <time>2023-03-04T07:05:40.000Z</time>
      </trkpt>
      <trkpt lat="43.50132" lon="6.64404">
        <ele>70.1</ele>
        <time>2023-03-04T07:05:41.000Z</time>
      </trkpt>
      <trkpt lat="43.50132" lon="6.64404">
        <ele>70.1</ele>
        <time>2023-03-04T07:05:42.000Z</time>
      </trkpt>
      <trkpt lat="43.50132" lon="6.64404">
        <ele>70.1</ele>
        <time>2023-03-04T07:05:43.000Z</time>
      </trkpt>
      <trkpt lat="43.50132" lon="6.64404">
        <ele>70.1</ele>
        <time>2023-03-04T07:05:44.000Z</time>
      </trkpt>
      <trkpt lat="43.50132" lon="6.64404">
        <ele>70.1</ele>
        <time>2023-03-04T07:05:45.000Z</time>
      </trkpt>
      <trkpt lat="43.50132" lon="6.64404">
        <ele>70.1</ele>
        <time>2023-03-04T07:05:46.000Z</time>
      </trkpt>
      <trkpt lat="43.50132" lon="6.64404">
        <ele>70.1</ele>
        <time>2023-03-04T07:05:47.000Z</time>
      </trkpt>
      <trkpt lat="43.50132" lon="6.64404">
        <ele>70.1</ele>
        <time>2023-03-04T07:05:48.000Z</time>
      </trkpt>
      <trkpt lat="43.50132" lon="6.64404">
        <ele>70.1</ele>
        <time>2023-03-04T07:05:49.000Z</time>
      </trkpt>
      <trkpt lat="43.50132" lon="6.64404">
        <ele>70.1</ele>
        <time>2023-03-04T07:05:50.000Z</time>
      </trkpt>
      <trkpt lat="43.50132" lon="6.64404">
        <ele>70.1</ele>
        <time>2023-03-04T07:05:51.000Z</time>
      </trkpt>
      <trkpt lat="43.50132" lon="6.64404">
        <ele>70.1</ele>
        <time>2023-03-04T07:05:52.000Z</time>
      </trkpt>
      <trkpt lat="43.50132" lon="6.64404">
        <ele>70.1</ele>
        <time>2023-03-04T07:05:53.000Z</time>
      </trkpt>
      <trkpt lat="43.50132" lon="6.64404">
        <ele>70.1</ele>
        <time>2023-03-04T07:05:54.000Z</time>
      </trkpt>
      <trkpt lat="43.50132" lon="6.64404">
        <ele>70.1</ele>
        <time>2023-03-04T07:05:55.000Z</time>
      </trkpt>
      <trkpt lat="43.50132" lon="6.64404">
        <ele>70.1</ele>
        <time>2023-03-04T07:05:56.000Z</time>
      </trkpt>
      <trkpt lat="43.50132" lon="6.64404">
        <ele>70.1</ele>
        <time>2023-03-04T07:05:57.000Z</time>
      </trkpt>
      <trkpt lat="43.50132" lon="6.64404">
        <ele>70.1</ele>
        <time>2023-03-04T07:05:58.000Z</time>
      </trkpt>
      <trkpt lat="43.50132" lon="6.64404">
        <ele>70.1</ele>
        <time>2023-03-04T07:05:59.000Z</time>
      </trkpt>
      <trkpt lat="43.50132" lon="6.64404">
        <ele>70.1</ele>
        <time>2023-03-04T07:06:00.000Z</time>
      </trkpt>
      <trkpt lat="43.50132" lon="6.64404">
        <ele>70.1</ele>
        <time>2023-03-04T07:06:01.000Z</time>
      </trkpt>
      <trkpt lat="43.50132" lon="6.64404">
        <ele>70.1</ele>
        <time>2023-03-04T07:06:02.000Z</time>
      </trkpt>
      <trkpt lat="43.50132" lon="6.64404">
        <ele>70.1</ele>
        <time>2023-03-04T07:06:03.000Z</time>
      </trkpt>
      <trkpt lat="43.50132" lon="6.64404">
        <ele>70.1</ele>
        <time>2023-03-04T07:06:04.000Z</time>
      </trkpt>
      <trkpt lat="43.50132" lon="6.64404">
        <ele>70.1</ele>
        <time>2023-03-04T07:06:05.000Z</time>
      </trkpt>
      <trkpt lat="43.50132" lon="6.64404">
        <ele>70.1</ele>
        <time>2023-03-04T07:06:06.000Z</time>
      </trkpt>
      <trkpt lat="43.50132" lon="6.64404">
        <ele>70.1</ele>
        <time>2023-03-04T07:06:07.000Z</time>
      </trkpt>
      <trkpt lat="43.50132" lon="6.64404">
        <ele>70.1</ele>
        <time>2023-03-04T07:06:08.000Z</time>
      </trkpt>
      <trkpt lat="43.50132" lon="6.64404">
        <ele>70.1</ele>
        <time>2023-03-04T07:06:09.000Z</time>
      </trkpt>
      <trkpt lat="43.50132" lon="6.64404">
        <ele>70.1</ele>
        <time>2023-03-04T07:06:10.000Z</time>
      </trkpt>
      <trkpt lat="43.50132" lon="6.64404">
        <ele>70.1</ele>
        <time>2023-03-04T07:06:11.000Z</time>
      </trkpt>
      <trkpt lat="43.50132" lon="6.64404">
        <ele>70.1</ele>
        <time>2023-03-04T07:06:12.000Z</time>
      </trkpt>
      <trkpt lat="43.50132" lon="6.64404">
        <ele>70.1</ele>
        <time>2023-03-04T07:06:13.000Z</time>
      </trkpt>
      <trkpt lat="43.50132" lon="6.64404">
        <ele>70.1</ele>
        <time>2023-03-04T07:06:14.000Z</time>
      </trkpt>
      <trkpt lat="43.50132" lon="6.64404">
        <ele>70.1</ele>
        <time>2023-03-04T07:06:15.000Z</time>
      </trkpt>
      <trkpt lat="43.50132" lon="6.64404">
        <ele>70.1</ele>
        <time>2023-03-04T07:06:16.000Z</time>
      </trkpt>
      <trkpt lat="43.50132" lon="6.64404">
        <ele>70.1</ele>
        <time>2023-03-04T07:06:17.000Z</time>
      </trkpt>
      <trkpt lat="43.50132" lon="6.64404">
        <ele>70.1</ele>
        <time>2023-03-04T07:06:18.000Z</time>
      </trkpt>
      <trkpt lat="43.50132" lon="6.64404">
        <ele>70.1</ele>
        <time>2023-03-04T07:06:19.000Z</time>
      </trkpt>
      <trkpt lat="43.50132" lon="6.64404">
        <ele>70.1</ele>
        <time>2023-03-04T07:06:20.000Z</time>
      </trkpt>
      <trkpt lat="43.50132" lon="6.64405">
        <ele>70.1</ele>
        <time>2023-03-04T07:06:21.000Z</time>
      </trkpt>
      <trkpt lat="43.50132" lon="6.64405">
        <ele>70.1</ele>
        <time>2023-03-04T07:06:22.000Z</time>
      </trkpt>
      <trkpt lat="43.50132" lon="6.64405">
        <ele>70.1</ele>
        <time>2023-03-04T07:06:23.000Z</time>
      </trkpt>
      <trkpt lat="43.50132" lon="6.64405">
        <ele>70.1</ele>
        <time>2023-03-04T07:06:24.000Z</time>
      </trkpt>
      <trkpt lat="43.50132" lon="6.64405">
        <ele>70.1</ele>
        <time>2023-03-04T07:06:25.000Z</time>
      </trkpt>
      <trkpt lat="43.50132" lon="6.64405">
        <ele>70.1</ele>
        <time>2023-03-04T07:06:26.000Z</time>
      </trkpt>
      <trkpt lat="43.50132" lon="6.64405">
        <ele>70.1</ele>
        <time>2023-03-04T07:06:27.000Z</time>
      </trkpt>
      <trkpt lat="43.50132" lon="6.64405">
        <ele>70.1</ele>
        <time>2023-03-04T07:06:28.000Z</time>
      </trkpt>
      <trkpt lat="43.50132" lon="6.64405">
        <ele>70.1</ele>
        <time>2023-03-04T07:06:29.000Z</time>
      </trkpt>
      <trkpt lat="43.50132" lon="6.64405">
        <ele>70.1</ele>
        <time>2023-03-04T07:06:30.000Z</time>
      </trkpt>
      <trkpt lat="43.50132" lon="6.64405">
        <ele>70.1</ele>
        <time>2023-03-04T07:06:31.000Z</time>
      </trkpt>
      <trkpt lat="43.50132" lon="6.64405">
        <ele>70.1</ele>
        <time>2023-03-04T07:06:32.000Z</time>
      </trkpt>
      <trkpt lat="43.50132" lon="6.64405">
        <ele>70.1</ele>
        <time>2023-03-04T07:06:33.000Z</time>
      </trkpt>
      <trkpt lat="43.50132" lon="6.64405">
        <ele>70.1</ele>
        <time>2023-03-04T07:06:34.000Z</time>
      </trkpt>
      <trkpt lat="43.50132" lon="6.64405">
        <ele>70.1</ele>
        <time>2023-03-04T07:06:35.000Z</time>
      </trkpt>
      <trkpt lat="43.50132" lon="6.64405">
        <ele>70.1</ele>
        <time>2023-03-04T07:06:36.000Z</time>
      </trkpt>
      <trkpt lat="43.50132" lon="6.64405">
        <ele>70.1</ele>
        <time>2023-03-04T07:06:37.000Z</time>
      </trkpt>
      <trkpt lat="43.50132" lon="6.64405">
        <ele>70.1</ele>
        <time>2023-03-04T07:06:38.000Z</time>
      </trkpt>
      <trkpt lat="43.50132" lon="6.64405">
        <ele>70.1</ele>
        <time>2023-03-04T07:06:39.000Z</time>
      </trkpt>
      <trkpt lat="43.50132" lon="6.64405">
        <ele>70.1</ele>
        <time>2023-03-04T07:06:40.000Z</time>
      </trkpt>
      <trkpt lat="43.50132" lon="6.64405">
        <ele>70.1</ele>
        <time>2023-03-04T07:06:41.000Z</time>
      </trkpt>
      <trkpt lat="43.50132" lon="6.64405">
        <ele>70.1</ele>
        <time>2023-03-04T07:06:42.000Z</time>
      </trkpt>
      <trkpt lat="43.50132" lon="6.64405">
        <ele>70.1</ele>
        <time>2023-03-04T07:06:43.000Z</time>
      </trkpt>
      <trkpt lat="43.50132" lon="6.64405">
        <ele>70.1</ele>
        <time>2023-03-04T07:06:44.000Z</time>
      </trkpt>
      <trkpt lat="43.50132" lon="6.64405">
        <ele>70.1</ele>
        <time>2023-03-04T07:06:45.000Z</time>
      </trkpt>
      <trkpt lat="43.50132" lon="6.64405">
        <ele>70.1</ele>
        <time>2023-03-04T07:06:46.000Z</time>
      </trkpt>
      <trkpt lat="43.50132" lon="6.64405">
        <ele>70.1</ele>
        <time>2023-03-04T07:06:47.000Z</time>
      </trkpt>
      <trkpt lat="43.50132" lon="6.64405">
        <ele>70.1</ele>
        <time>2023-03-04T07:06:48.000Z</time>
      </trkpt>
      <trkpt lat="43.50132" lon="6.64405">
        <ele>70.1</ele>
        <time>2023-03-04T07:06:49.000Z</time>
      </trkpt>
      <trkpt lat="43.50132" lon="6.64405">
        <ele>70.1</ele>
        <time>2023-03-04T07:06:50.000Z</time>
      </trkpt>
      <trkpt lat="43.50132" lon="6.64405">
        <ele>70.1</ele>
        <time>2023-03-04T07:06:51.000Z</time>
      </trkpt>
      <trkpt lat="43.50132" lon="6.64405">
        <ele>70.1</ele>
        <time>2023-03-04T07:06:52.000Z</time>
      </trkpt>
      <trkpt lat="43.50132" lon="6.64405">
        <ele>70.1</ele>
        <time>2023-03-04T07:06:53.000Z</time>
      </trkpt>
      <trkpt lat="43.50132" lon="6.64405">
        <ele>70.1</ele>
        <time>2023-03-04T07:06:54.000Z</time>
      </trkpt>
      <trkpt lat="43.50132" lon="6.64405">
        <ele>70.1</ele>
        <time>2023-03-04T07:06:55.000Z</time>
      </trkpt>
      <trkpt lat="43.50132" lon="6.64405">
        <ele>70.1</ele>
        <time>2023-03-04T07:06:56.000Z</time>
      </trkpt>
      <trkpt lat="43.50132" lon="6.64405">
        <ele>70.1</ele>
        <time>2023-03-04T07:06:57.000Z</time>
      </trkpt>
      <trkpt lat="43.50132" lon="6.64405">
        <ele>70.1</ele>
        <time>2023-03-04T07:06:58.000Z</time>
      </trkpt>
      <trkpt lat="43.50132" lon="6.64405">
        <ele>70.1</ele>
        <time>2023-03-04T07:06:59.000Z</time>
      </trkpt>
      <trkpt lat="43.50132" lon="6.64405">
        <ele>70.1</ele>
        <time>2023-03-04T07:07:00.000Z</time>
      </trkpt>
      <trkpt lat="43.50132" lon="6.64405">
        <ele>70.1</ele>
        <time>2023-03-04T07:07:01.000Z</time>
      </trkpt>
      <trkpt lat="43.50132" lon="6.64405">
        <ele>70.1</ele>
        <time>2023-03-04T07:07:02.000Z</time>
      </trkpt>
      <trkpt lat="43.50132" lon="6.64405">
        <ele>70.1</ele>
        <time>2023-03-04T07:07:03.000Z</time>
      </trkpt>
      <trkpt lat="43.50132" lon="6.64405">
        <ele>70.1</ele>
        <time>2023-03-04T07:07:04.000Z</time>
      </trkpt>
      <trkpt lat="43.50132" lon="6.64405">
        <ele>70.1</ele>
        <time>2023-03-04T07:07:05.000Z</time>
      </trkpt>
      <trkpt lat="43.50132" lon="6.64405">
        <ele>70.1</ele>
        <time>2023-03-04T07:07:06.000Z</time>
      </trkpt>
      <trkpt lat="43.50132" lon="6.64405">
        <ele>70.1</ele>
        <time>2023-03-04T07:07:07.000Z</time>
      </trkpt>
      <trkpt lat="43.50132" lon="6.64405">
        <ele>70.1</ele>
        <time>2023-03-04T07:07:08.000Z</time>
      </trkpt>
      <trkpt lat="43.50132" lon="6.64405">
        <ele>70.1</ele>
        <time>2023-03-04T07:07:09.000Z</time>
      </trkpt>
      <trkpt lat="43.50132" lon="6.64405">
        <ele>70.1</ele>
        <time>2023-03-04T07:07:10.000Z</time>
      </trkpt>
      <trkpt lat="43.50132" lon="6.64405">
        <ele>70.1</ele>
        <time>2023-03-04T07:07:11.000Z</time>
      </trkpt>
      <trkpt lat="43.50132" lon="6.64405">
        <ele>70.1</ele>
        <time>2023-03-04T07:07:12.000Z</time>
      </trkpt>
      <trkpt lat="43.50132" lon="6.64405">
        <ele>70.1</ele>
        <time>2023-03-04T07:07:13.000Z</time>
      </trkpt>
      <trkpt lat="43.50132" lon="6.64405">
        <ele>70.1</ele>
        <time>2023-03-04T07:07:14.000Z</time>
      </trkpt>
      <trkpt lat="43.50132" lon="6.64405">
        <ele>70.1</ele>
        <time>2023-03-04T07:07:15.000Z</time>
      </trkpt>
      <trkpt lat="43.50132" lon="6.64405">
        <ele>70.1</ele>
        <time>2023-03-04T07:07:16.000Z</time>
      </trkpt>
      <trkpt lat="43.50132" lon="6.64405">
        <ele>70.1</ele>
        <time>2023-03-04T07:07:17.000Z</time>
      </trkpt>
      <trkpt lat="43.50132" lon="6.64405">
        <ele>70.1</ele>
        <time>2023-03-04T07:07:18.000Z</time>
      </trkpt>
      <trkpt lat="43.50132" lon="6.64405">
        <ele>70.1</ele>
        <time>2023-03-04T07:07:19.000Z</time>
      </trkpt>
      <trkpt lat="43.50132" lon="6.64405">
        <ele>70.1</ele>
        <time>2023-03-04T07:07:20.000Z</time>
      </trkpt>
      <trkpt lat="43.50132" lon="6.64405">
        <ele>70.1</ele>
        <time>2023-03-04T07:07:21.000Z</time>
      </trkpt>
      <trkpt lat="43.50132" lon="6.64405">
        <ele>70.1</ele>
        <time>2023-03-04T07:07:22.000Z</time>
      </trkpt>
      <trkpt lat="43.50132" lon="6.64405">
        <ele>70.1</ele>
        <time>2023-03-04T07:07:23.000Z</time>
      </trkpt>
      <trkpt lat="43.50132" lon="6.64405">
        <ele>70.1</ele>
        <time>2023-03-04T07:07:24.000Z</time>
      </trkpt>
      <trkpt lat="43.50132" lon="6.64405">
        <ele>70.1</ele>
        <time>2023-03-04T07:07:25.000Z</time>
      </trkpt>
      <trkpt lat="43.50132" lon="6.64405">
        <ele>70.1</ele>
        <time>2023-03-04T07:07:26.000Z</time>
      </trkpt>
      <trkpt lat="43.50132" lon="6.64406">
        <ele>70.1</ele>
        <time>2023-03-04T07:07:27.000Z</time>
      </trkpt>
      <trkpt lat="43.50132" lon="6.64406">
        <ele>70.1</ele>
        <time>2023-03-04T07:07:28.000Z</time>
      </trkpt>
      <trkpt lat="43.50132" lon="6.64406">
        <ele>70.1</ele>
        <time>2023-03-04T07:07:29.000Z</time>
      </trkpt>
      <trkpt lat="43.50132" lon="6.64406">
        <ele>70.1</ele>
        <time>2023-03-04T07:07:30.000Z</time>
      </trkpt>
      <trkpt lat="43.50132" lon="6.64406">
        <ele>70.1</ele>
        <time>2023-03-04T07:07:31.000Z</time>
      </trkpt>
      <trkpt lat="43.50132" lon="6.64406">
        <ele>70.1</ele>
        <time>2023-03-04T07:07:32.000Z</time>
      </trkpt>
      <trkpt lat="43.50132" lon="6.64406">
        <ele>70.1</ele>
        <time>2023-03-04T07:07:33.000Z</time>
      </trkpt>
      <trkpt lat="43.50132" lon="6.64406">
        <ele>70.1</ele>
        <time>2023-03-04T07:07:34.000Z</time>
      </trkpt>
      <trkpt lat="43.50132" lon="6.64406">
        <ele>70.1</ele>
        <time>2023-03-04T07:07:35.000Z</time>
      </trkpt>
      <trkpt lat="43.50132" lon="6.64406">
        <ele>70.1</ele>
        <time>2023-03-04T07:07:36.000Z</time>
      </trkpt>
      <trkpt lat="43.50132" lon="6.64406">
        <ele>70.1</ele>
        <time>2023-03-04T07:07:37.000Z</time>
      </trkpt>
      <trkpt lat="43.50132" lon="6.64406">
        <ele>70.1</ele>
        <time>2023-03-04T07:07:38.000Z</time>
      </trkpt>
      <trkpt lat="43.50132" lon="6.64406">
        <ele>70.1</ele>
        <time>2023-03-04T07:07:39.000Z</time>
      </trkpt>
      <trkpt lat="43.50132" lon="6.64406">
        <ele>70.1</ele>
        <time>2023-03-04T07:07:40.000Z</time>
      </trkpt>
      <trkpt lat="43.50132" lon="6.64406">
        <ele>70.1</ele>
        <time>2023-03-04T07:07:41.000Z</time>
      </trkpt>
      <trkpt lat="43.50132" lon="6.64406">
        <ele>70.1</ele>
        <time>2023-03-04T07:07:42.000Z</time>
      </trkpt>
      <trkpt lat="43.50132" lon="6.64406">
        <ele>70.1</ele>
        <time>2023-03-04T07:07:43.000Z</time>
      </trkpt>
      <trkpt lat="43.50132" lon="6.64406">
        <ele>70.1</ele>
        <time>2023-03-04T07:07:44.000Z</time>
      </trkpt>
      <trkpt lat="43.50132" lon="6.64406">
        <ele>70.1</ele>
        <time>2023-03-04T07:07:45.000Z</time>
      </trkpt>
      <trkpt lat="43.50132" lon="6.64406">
        <ele>70.1</ele>
        <time>2023-03-04T07:07:46.000Z</time>
      </trkpt>
      <trkpt lat="43.50132" lon="6.64406">
        <ele>70.1</ele>
        <time>2023-03-04T07:07:47.000Z</time>
      </trkpt>
      <trkpt lat="43.50132" lon="6.64406">
        <ele>70.1</ele>
        <time>2023-03-04T07:07:48.000Z</time>
      </trkpt>
      <trkpt lat="43.50132" lon="6.64406">
        <ele>70.1</ele>
        <time>2023-03-04T07:07:49.000Z</time>
      </trkpt>
      <trkpt lat="43.50132" lon="6.64406">
        <ele>70.1</ele>
        <time>2023-03-04T07:07:50.000Z</time>
      </trkpt>
      <trkpt lat="43.50132" lon="6.64406">
        <ele>70.1</ele>
        <time>2023-03-04T07:07:51.000Z</time>
      </trkpt>
      <trkpt lat="43.50132" lon="6.64406">
        <ele>70.1</ele>
        <time>2023-03-04T07:07:52.000Z</time>
      </trkpt>
      <trkpt lat="43.50132" lon="6.64406">
        <ele>70.1</ele>
        <time>2023-03-04T07:07:53.000Z</time>
      </trkpt>
      <trkpt lat="43.50132" lon="6.64406">
        <ele>70.1</ele>
        <time>2023-03-04T07:07:54.000Z</time>
      </trkpt>
      <trkpt lat="43.50132" lon="6.64406">
        <ele>70.1</ele>
        <time>2023-03-04T07:07:55.000Z</time>
      </trkpt>
      <trkpt lat="43.50132" lon="6.64406">
        <ele>70.1</ele>
        <time>2023-03-04T07:07:56.000Z</time>
      </trkpt>
      <trkpt lat="43.50132" lon="6.64406">
        <ele>70.1</ele>
        <time>2023-03-04T07:07:57.000Z</time>
      </trkpt>
      <trkpt lat="43.50132" lon="6.64406">
        <ele>70.1</ele>
        <time>2023-03-04T07:07:58.000Z</time>
      </trkpt>
      <trkpt lat="43.50132" lon="6.64406">
        <ele>70.1</ele>
        <time>2023-03-04T07:07:59.000Z</time>
      </trkpt>
      <trkpt lat="43.50132" lon="6.64406">
        <ele>70.1</ele>
        <time>2023-03-04T07:08:00.000Z</time>
      </trkpt>
      <trkpt lat="43.50132" lon="6.64406">
        <ele>70.1</ele>
        <time>2023-03-04T07:08:01.000Z</time>
      </trkpt>
      <trkpt lat="43.50132" lon="6.64406">
        <ele>70.1</ele>
        <time>2023-03-04T07:08:02.000Z</time>
      </trkpt>
      <trkpt lat="43.50132" lon="6.64406">
        <ele>70.1</ele>
        <time>2023-03-04T07:08:03.000Z</time>
      </trkpt>
      <trkpt lat="43.50132" lon="6.64406">
        <ele>70.1</ele>
        <time>2023-03-04T07:08:04.000Z</time>
      </trkpt>
      <trkpt lat="43.50132" lon="6.64406">
        <ele>70.1</ele>
        <time>2023-03-04T07:08:05.000Z</time>
      </trkpt>
      <trkpt lat="43.50132" lon="6.64406">
        <ele>70.1</ele>
        <time>2023-03-04T07:08:06.000Z</time>
      </trkpt>
      <trkpt lat="43.50132" lon="6.64406">
        <ele>70.1</ele>
        <time>2023-03-04T07:08:07.000Z</time>
      </trkpt>
      <trkpt lat="43.50132" lon="6.64406">
        <ele>70.1</ele>
        <time>2023-03-04T07:08:08.000Z</time>
      </trkpt>
      <trkpt lat="43.50132" lon="6.64406">
        <ele>70.1</ele>
        <time>2023-03-04T07:08:09.000Z</time>
      </trkpt>
      <trkpt lat="43.50132" lon="6.64406">
        <ele>70.1</ele>
        <time>2023-03-04T07:08:10.000Z</time>
      </trkpt>
      <trkpt lat="43.50132" lon="6.64406">
        <ele>70.1</ele>
        <time>2023-03-04T07:08:11.000Z</time>
      </trkpt>
      <trkpt lat="43.50132" lon="6.64406">
        <ele>70.1</ele>
        <time>2023-03-04T07:08:12.000Z</time>
      </trkpt>
      <trkpt lat="43.50132" lon="6.64406">
        <ele>70.1</ele>
        <time>2023-03-04T07:08:13.000Z</time>
      </trkpt>
      <trkpt lat="43.50132" lon="6.64406">
        <ele>70.1</ele>
        <time>2023-03-04T07:08:14.000Z</time>
      </trkpt>
      <trkpt lat="43.50132" lon="6.64406">
        <ele>70.1</ele>
        <time>2023-03-04T07:08:15.000Z</time>
      </trkpt>
      <trkpt lat="43.50132" lon="6.64406">
        <ele>70.1</ele>
        <time>2023-03-04T07:08:16.000Z</time>
      </trkpt>
      <trkpt lat="43.50132" lon="6.64406">
        <ele>70.1</ele>
        <time>2023-03-04T07:08:17.000Z</time>
      </trkpt>
      <trkpt lat="43.50132" lon="6.64406">
        <ele>70.1</ele>
        <time>2023-03-04T07:08:18.000Z</time>
      </trkpt>
      <trkpt lat="43.50132" lon="6.64406">
        <ele>70.1</ele>
        <time>2023-03-04T07:08:19.000Z</time>
      </trkpt>
      <trkpt lat="43.50132" lon="6.64406">
        <ele>70.1</ele>
        <time>2023-03-04T07:08:20.000Z</time>
      </trkpt>
      <trkpt lat="43.50132" lon="6.64406">
        <ele>70.1</ele>
        <time>2023-03-04T07:08:21.000Z</time>
      </trkpt>
      <trkpt lat="43.50132" lon="6.64406">
        <ele>70.1</ele>
        <time>2023-03-04T07:08:22.000Z</time>
      </trkpt>
      <trkpt lat="43.50132" lon="6.64406">
        <ele>70.1</ele>
        <time>2023-03-04T07:08:23.000Z</time>
      </trkpt>
      <trkpt lat="43.50132" lon="6.64406">
        <ele>70.1</ele>
        <time>2023-03-04T07:08:24.000Z</time>
      </trkpt>
      <trkpt lat="43.50132" lon="6.64406">
        <ele>70.1</ele>
        <time>2023-03-04T07:08:25.000Z</time>
      </trkpt>
      <trkpt lat="43.50132" lon="6.64406">
        <ele>70.1</ele>
        <time>2023-03-04T07:08:26.000Z</time>
      </trkpt>
      <trkpt lat="43.50132" lon="6.64406">
        <ele>70.1</ele>
        <time>2023-03-04T07:08:27.000Z</time>
      </trkpt>
      <trkpt lat="43.50132" lon="6.64406">
        <ele>70.1</ele>
        <time>2023-03-04T07:08:28.000Z</time>
      </trkpt>
      <trkpt lat="43.50132" lon="6.64406">
        <ele>70.1</ele>
        <time>2023-03-04T07:08:29.000Z</time>
      </trkpt>
      <trkpt lat="43.50132" lon="6.64406">
        <ele>70.1</ele>
        <time>2023-03-04T07:08:30.000Z</time>
      </trkpt>
      <trkpt lat="43.50132" lon="6.64406">
        <ele>70.1</ele>
        <time>2023-03-04T07:08:31.000Z</time>
      </trkpt>
      <trkpt lat="43.50132" lon="6.64407">
        <ele>70.1</ele>
        <time>2023-03-04T07:08:32.000Z</time>
      </trkpt>
      <trkpt lat="43.50132" lon="6.64407">
        <ele>70.1</ele>
        <time>2023-03-04T07:08:33.000Z</time>
      </trkpt>
      <trkpt lat="43.50132" lon="6.64407">
        <ele>70.1</ele>
        <time>2023-03-04T07:08:34.000Z</time>
      </trkpt>
      <trkpt lat="43.50132" lon="6.64407">
        <ele>70.1</ele>
        <time>2023-03-04T07:08:35.000Z</time>
      </trkpt>
      <trkpt lat="43.50132" lon="6.64407">
        <ele>70.1</ele>
        <time>2023-03-04T07:08:36.000Z</time>
      </trkpt>
      <trkpt lat="43.50132" lon="6.64407">
        <ele>70.1</ele>
        <time>2023-03-04T07:08:37.000Z</time>
      </trkpt>
      <trkpt lat="43.50132" lon="6.64407">
        <ele>70.1</ele>
        <time>2023-03-04T07:08:38.000Z</time>
      </trkpt>
      <trkpt lat="43.50132" lon="6.64407">
        <ele>70.1</ele>
        <time>2023-03-04T07:08:39.000Z</time>
      </trkpt>
      <trkpt lat="43.50132" lon="6.64407">
        <ele>70.1</ele>
        <time>2023-03-04T07:08:40.000Z</time>
      </trkpt>
      <trkpt lat="43.50132" lon="6.64407">
        <ele>70.1</ele>
        <time>2023-03-04T07:08:41.000Z</time>
      </trkpt>
      <trkpt lat="43.50132" lon="6.64407">
        <ele>70.1</ele>
        <time>2023-03-04T07:08:42.000Z</time>
      </trkpt>
      <trkpt lat="43.50132" lon="6.64407">
        <ele>70.1</ele>
        <time>2023-03-04T07:08:43.000Z</time>
      </trkpt>
      <trkpt lat="43.50132" lon="6.64407">
        <ele>70.1</ele>
        <time>2023-03-04T07:08:44.000Z</time>
      </trkpt>
      <trkpt lat="43.50132" lon="6.64407">
        <ele>70.1</ele>
        <time>2023-03-04T07:08:45.000Z</time>
      </trkpt>
      <trkpt lat="43.50132" lon="6.64407">
        <ele>70.1</ele>
        <time>2023-03-04T07:08:46.000Z</time>
      </trkpt>
      <trkpt lat="43.50132" lon="6.64407">
        <ele>70.1</ele>
        <time>2023-03-04T07:08:47.000Z</time>
      </trkpt>
      <trkpt lat="43.50132" lon="6.64407">
        <ele>70.1</ele>
        <time>2023-03-04T07:08:48.000Z</time>
      </trkpt>
      <trkpt lat="43.50132" lon="6.64407">
        <ele>70.1</ele>
        <time>2023-03-04T07:08:49.000Z</time>
      </trkpt>
      <trkpt lat="43.50132" lon="6.64407">
        <ele>70.1</ele>
        <time>2023-03-04T07:08:50.000Z</time>
      </trkpt>
      <trkpt lat="43.50132" lon="6.64407">
        <ele>70.1</ele>
        <time>2023-03-04T07:08:51.000Z</time>
      </trkpt>
      <trkpt lat="43.50132" lon="6.64407">
        <ele>70.1</ele>
        <time>2023-03-04T07:08:52.000Z</time>
      </trkpt>
      <trkpt lat="43.50132" lon="6.64407">
        <ele>70.1</ele>
        <time>2023-03-04T07:08:53.000Z</time>
      </trkpt>
      <trkpt lat="43.50132" lon="6.64407">
        <ele>70.1</ele>
        <time>2023-03-04T07:08:54.000Z</time>
      </trkpt>
      <trkpt lat="43.50132" lon="6.64407">
        <ele>70.1</ele>
        <time>2023-03-04T07:08:55.000Z</time>
      </trkpt>
      <trkpt lat="43.50132" lon="6.64407">
        <ele>70.1</ele>
        <time>2023-03-04T07:08:56.000Z</time>
      </trkpt>
      <trkpt lat="43.50132" lon="6.64407">
        <ele>70.1</ele>
        <time>2023-03-04T07:08:57.000Z</time>
      </trkpt>
      <trkpt lat="43.50132" lon="6.64407">
        <ele>70.1</ele>
        <time>2023-03-04T07:08:58.000Z</time>
      </trkpt>
      <trkpt lat="43.50132" lon="6.64407">
        <ele>70.1</ele>
        <time>2023-03-04T07:08:59.000Z</time>
      </trkpt>
      <trkpt lat="43.50132" lon="6.64407">
        <ele>70.1</ele>
        <time>2023-03-04T07:09:00.000Z</time>
      </trkpt>
      <trkpt lat="43.50132" lon="6.64407">
        <ele>70.1</ele>
        <time>2023-03-04T07:09:01.000Z</time>
      </trkpt>
      <trkpt lat="43.50132" lon="6.64407">
        <ele>70.1</ele>
        <time>2023-03-04T07:09:02.000Z</time>
      </trkpt>
      <trkpt lat="43.50132" lon="6.64407">
        <ele>70.1</ele>
        <time>2023-03-04T07:09:03.000Z</time>
      </trkpt>
      <trkpt lat="43.50132" lon="6.64407">
        <ele>70.1</ele>
        <time>2023-03-04T07:09:04.000Z</time>
      </trkpt>
      <trkpt lat="43.50132" lon="6.64407">
        <ele>70.1</ele>
        <time>2023-03-04T07:09:05.000Z</time>
      </trkpt>
      <trkpt lat="43.50132" lon="6.64407">
        <ele>70.1</ele>
        <time>2023-03-04T07:09:06.000Z</time>
      </trkpt>
      <trkpt lat="43.50132" lon="6.64407">
        <ele>70.1</ele>
        <time>2023-03-04T07:09:07.000Z</time>
      </trkpt>
      <trkpt lat="43.50132" lon="6.64407">
        <ele>70.1</ele>
        <time>2023-03-04T07:09:08.000Z</time>
      </trkpt>
      <trkpt lat="43.50132" lon="6.64407">
        <ele>70.1</ele>
        <time>2023-03-04T07:09:09.000Z</time>
      </trkpt>
      <trkpt lat="43.50132" lon="6.64407">
        <ele>70.1</ele>
        <time>2023-03-04T07:09:10.000Z</time>
      </trkpt>
      <trkpt lat="43.50132" lon="6.64407">
        <ele>70.1</ele>
        <time>2023-03-04T07:09:11.000Z</time>
      </trkpt>
      <trkpt lat="43.50132" lon="6.64407">
        <ele>70.1</ele>
        <time>2023-03-04T07:09:12.000Z</time>
      </trkpt>
      <trkpt lat="43.50132" lon="6.64407">
        <ele>70.1</ele>
        <time>2023-03-04T07:09:13.000Z</time>
      </trkpt>
      <trkpt lat="43.50132" lon="6.64407">
        <ele>70.1</ele>
        <time>2023-03-04T07:09:14.000Z</time>
      </trkpt>
      <trkpt lat="43.50132" lon="6.64407">
        <ele>70.1</ele>
        <time>2023-03-04T07:09:15.000Z</time>
      </trkpt>
      <trkpt lat="43.50132" lon="6.64407">
        <ele>70.1</ele>
        <time>2023-03-04T07:09:16.000Z</time>
      </trkpt>
      <trkpt lat="43.50132" lon="6.64407">
        <ele>70.1</ele>
        <time>2023-03-04T07:09:17.000Z</time>
      </trkpt>
      <trkpt lat="43.50132" lon="6.64407">
        <ele>70.1</ele>
        <time>2023-03-04T07:09:18.000Z</time>
      </trkpt>
      <trkpt lat="43.50132" lon="6.64407">
        <ele>70.1</ele>
        <time>2023-03-04T07:09:19.000Z</time>
      </trkpt>
      <trkpt lat="43.50132" lon="6.64407">
        <ele>70.1</ele>
        <time>2023-03-04T07:09:20.000Z</time>
      </trkpt>
      <trkpt lat="43.50132" lon="6.64407">
        <ele>70.1</ele>
        <time>2023-03-04T07:09:21.000Z</time>
      </trkpt>
      <trkpt lat="43.50132" lon="6.64407">
        <ele>70.1</ele>
        <time>2023-03-04T07:09:22.000Z</time>
      </trkpt>
      <trkpt lat="43.50132" lon="6.64407">
        <ele>70.1</ele>
        <time>2023-03-04T07:09:23.000Z</time>
      </trkpt>
      <trkpt lat="43.50132" lon="6.64407">
        <ele>70.1</ele>
        <time>2023-03-04T07:09:24.000Z</time>
      </trkpt>
      <trkpt lat="43.50132" lon="6.64407">
        <ele>70.1</ele>
        <time>2023-03-04T07:09:25.000Z</time>
      </trkpt>
      <trkpt lat="43.50132" lon="6.64407">
        <ele>70.1</ele>
        <time>2023-03-04T07:09:26.000Z</time>
      </trkpt>
      <trkpt lat="43.50132" lon="6.64407">
        <ele>70.1</ele>
        <time>2023-03-04T07:09:27.000Z</time>
      </trkpt>
      <trkpt lat="43.50132" lon="6.64407">
        <ele>70.1</ele>
        <time>2023-03-04T07:09:28.000Z</time>
      </trkpt>
      <trkpt lat="43.50132" lon="6.64407">
        <ele>70.1</ele>
        <time>2023-03-04T07:09:29.000Z</time>
      </trkpt>
      <trkpt lat="43.50132" lon="6.64407">
        <ele>70.1</ele>
        <time>2023-03-04T07:09:30.000Z</time>
      </trkpt>
      <trkpt lat="43.50132" lon="6.64407">
        <ele>70.1</ele>
        <time>2023-03-04T07:09:31.000Z</time>
      </trkpt>
      <trkpt lat="43.50132" lon="6.64407">
        <ele>70.1</ele>
        <time>2023-03-04T07:09:32.000Z</time>
      </trkpt>
      <trkpt lat="43.50132" lon="6.64407">
        <ele>70.1</ele>
        <time>2023-03-04T07:09:33.000Z</time>
      </trkpt>
      <trkpt lat="43.50132" lon="6.64407">
        <ele>70.1</ele>
        <time>2023-03-04T07:09:34.000Z</time>
      </trkpt>
      <trkpt lat="43.50132" lon="6.64407">
        <ele>70.1</ele>
        <time>2023-03-04T07:09:35.000Z</time>
      </trkpt>
      <trkpt lat="43.50132" lon="6.64407">
        <ele>70.1</ele>
        <time>2023-03-04T07:09:36.000Z</time>
      </trkpt>
      <trkpt lat="43.50132" lon="6.64408">
        <ele>70.1</ele>
        <time>2023-03-04T07:09:37.000Z</time>
      </trkpt>
      <trkpt lat="43.50132" lon="6.64408">
        <ele>70.1</ele>
        <time>2023-03-04T07:09:38.000Z</time>
      </trkpt>
      <trkpt lat="43.50132" lon="6.64408">
        <ele>70.1</ele>
        <time>2023-03-04T07:09:39.000Z</time>
      </trkpt>
      <trkpt lat="43.50132" lon="6.64408">
        <ele>70.1</ele>
        <time>2023-03-04T07:09:40.000Z</time>
      </trkpt>
      <trkpt lat="43.50132" lon="6.64408">
        <ele>70.1</ele>
        <time>2023-03-04T07:09:41.000Z</time>
      </trkpt>
      <trkpt lat="43.50132" lon="6.64408">
        <ele>70.1</ele>
        <time>2023-03-04T07:09:42.000Z</time>
      </trkpt>
      <trkpt lat="43.50132" lon="6.64408">
        <ele>70.1</ele>
        <time>2023-03-04T07:09:43.000Z</time>
      </trkpt>
      <trkpt lat="43.50132" lon="6.64408">
        <ele>70.1</ele>
        <time>2023-03-04T07:09:44.000Z</time>
      </trkpt>
      <trkpt lat="43.50132" lon="6.64408">
        <ele>70.1</ele>
        <time>2023-03-04T07:09:45.000Z</time>
      </trkpt>
      <trkpt lat="43.50132" lon="6.64408">
        <ele>70.1</ele>
        <time>2023-03-04T07:09:46.000Z</time>
      </trkpt>
      <trkpt lat="43.50132" lon="6.64408">
        <ele>70.1</ele>
        <time>2023-03-04T07:09:47.000Z</time>
      </trkpt>
      <trkpt lat="43.50132" lon="6.64408">
        <ele>70.1</ele>
        <time>2023-03-04T07:09:48.000Z</time>
      </trkpt>
      <trkpt lat="43.50132" lon="6.64408">
        <ele>70.1</ele>
        <time>2023-03-04T07:09:49.000Z</time>
      </trkpt>
      <trkpt lat="43.50132" lon="6.64408">
        <ele>70.1</ele>
        <time>2023-03-04T07:09:50.000Z</time>
      </trkpt>
      <trkpt lat="43.50132" lon="6.64408">
        <ele>70.1</ele>
        <time>2023-03-04T07:09:51.000Z</time>
      </trkpt>
      <trkpt lat="43.50132" lon="6.64408">
        <ele>70.1</ele>
        <time>2023-03-04T07:09:52.000Z</time>
      </trkpt>
      <trkpt lat="43.50132" lon="6.64408">
        <ele>70.1</ele>
        <time>2023-03-04T07:09:53.000Z</time>
      </trkpt>
      <trkpt lat="43.50132" lon="6.64408">
        <ele>70.1</ele>
        <time>2023-03-04T07:09:54.000Z</time>
      </trkpt>
      <trkpt lat="43.50132" lon="6.64408">
        <ele>70.1</ele>
        <time>2023-03-04T07:09:55.000Z</time>
      </trkpt>
      <trkpt lat="43.50132" lon="6.64408">
        <ele>70.1</ele>
        <time>2023-03-04T07:09:56.000Z</time>
      </trkpt>
      <trkpt lat="43.50132" lon="6.64408">
        <ele>70.1</ele>
        <time>2023-03-04T07:09:57.000Z</time>
      </trkpt>
      <trkpt lat="43.50132" lon="6.64408">
        <ele>70.1</ele>
        <time>2023-03-04T07:09:58.000Z</time>
      </trkpt>
      <trkpt lat="43.50132" lon="6.64408">
        <ele>70.1</ele>
        <time>2023-03-04T07:09:59.000Z</time>
      </trkpt>
      <trkpt lat="43.50132" lon="6.64408">
        <ele>70.1</ele>
        <time>2023-03-04T07:10:00.000Z</time>
      </trkpt>
      <trkpt lat="43.50132" lon="6.64408">
        <ele>70.1</ele>
        <time>2023-03-04T07:10:01.000Z</time>
      </trkpt>
      <trkpt lat="43.50132" lon="6.64408">
        <ele>70.1</ele>
        <time>2023-03-04T07:10:02.000Z</time>
      </trkpt>
      <trkpt lat="43.50132" lon="6.64408">
        <ele>70.1</ele>
        <time>2023-03-04T07:10:03.000Z</time>
      </trkpt>
      <trkpt lat="43.50132" lon="6.64408">
        <ele>70.1</ele>
        <time>2023-03-04T07:10:04.000Z</time>
      </trkpt>
      <trkpt lat="43.50132" lon="6.64408">
        <ele>70.1</ele>
        <time>2023-03-04T07:10:05.000Z</time>
      </trkpt>
      <trkpt lat="43.50132" lon="6.64408">
        <ele>70.1</ele>
        <time>2023-03-04T07:10:06.000Z</time>
      </trkpt>
      <trkpt lat="43.50132" lon="6.64408">
        <ele>70.1</ele>
        <time>2023-03-04T07:10:07.000Z</time>
      </trkpt>
      <trkpt lat="43.50132" lon="6.64408">
        <ele>70.1</ele>
        <time>2023-03-04T07:10:08.000Z</time>
      </trkpt>
      <trkpt lat="43.50132" lon="6.64408">
        <ele>70.1</ele>
        <time>2023-03-04T07:10:09.000Z</time>
      </trkpt>
      <trkpt lat="43.50132" lon="6.64408">
        <ele>70.1</ele>
        <time>2023-03-04T07:10:10.000Z</time>
      </trkpt>
      <trkpt lat="43.50132" lon="6.64408">
        <ele>70.1</ele>
        <time>2023-03-04T07:10:11.000Z</time>
      </trkpt>
      <trkpt lat="43.50132" lon="6.64408">
        <ele>70.1</ele>
        <time>2023-03-04T07:10:12.000Z</time>
      </trkpt>
      <trkpt lat="43.50132" lon="6.64408">
        <ele>70.1</ele>
        <time>2023-03-04T07:10:13.000Z</time>
      </trkpt>
      <trkpt lat="43.50132" lon="6.64408">
        <ele>70.1</ele>
        <time>2023-03-04T07:10:14.000Z</time>
      </trkpt>
      <trkpt lat="43.50132" lon="6.64408">
        <ele>70.1</ele>
        <time>2023-03-04T07:10:15.000Z</time>
      </trkpt>
      <trkpt lat="43.50132" lon="6.64408">
        <ele>70.1</ele>
        <time>2023-03-04T07:10:16.000Z</time>
      </trkpt>
      <trkpt lat="43.50132" lon="6.64408">
        <ele>70.1</ele>
        <time>2023-03-04T07:10:17.000Z</time>
      </trkpt>
      <trkpt lat="43.50132" lon="6.64408">
        <ele>70.1</ele>
        <time>2023-03-04T07:10:18.000Z</time>
      </trkpt>
      <trkpt lat="43.50132" lon="6.64408">
        <ele>70.1</ele>
        <time>2023-03-04T07:10:19.000Z</time>
      </trkpt>
      <trkpt lat="43.50132" lon="6.64408">
        <ele>70.1</ele>
        <time>2023-03-04T07:10:20.000Z</time>
      </trkpt>
      <trkpt lat="43.50132" lon="6.64408">
        <ele>70.1</ele>
        <time>2023-03-04T07:10:21.000Z</time>
      </trkpt>
      <trkpt lat="43.50132" lon="6.64408">
        <ele>70.1</ele>
        <time>2023-03-04T07:10:22.000Z</time>
      </trkpt>
      <trkpt lat="43.50132" lon="6.64408">
        <ele>70.1</ele>
        <time>2023-03-04T07:10:23.000Z</time>
      </trkpt>
      <trkpt lat="43.50132" lon="6.64408">
        <ele>70.1</ele>
        <time>2023-03-04T07:10:24.000Z</time>
      </trkpt>
      <trkpt lat="43.50132" lon="6.64408">
        <ele>70.1</ele>
        <time>2023-03-04T07:10:25.000Z</time>
      </trkpt>
      <trkpt lat="43.50132" lon="6.64408">
        <ele>70.1</ele>
        <time>2023-03-04T07:10:26.000Z</time>
      </trkpt>
      <trkpt lat="43.50132" lon="6.64408">
        <ele>70.1</ele>
        <time>2023-03-04T07:10:27.000Z</time>
      </trkpt>
      <trkpt lat="43.50132" lon="6.64408">
        <ele>70.1</ele>
        <time>2023-03-04T07:10:28.000Z</time>
      </trkpt>
      <trkpt lat="43.50132" lon="6.64408">
        <ele>70.1</ele>
        <time>2023-03-04T07:10:29.000Z</time>
      </trkpt>
      <trkpt lat="43.50132" lon="6.64408">
        <ele>70.1</ele>
        <time>2023-03-04T07:10:30.000Z</time>
      </trkpt>
      <trkpt lat="43.50132" lon="6.64408">
        <ele>70.1</ele>
        <time>2023-03-04T07:10:31.000Z</time>
      </trkpt>
      <trkpt lat="43.50132" lon="6.64408">
        <ele>70.1</ele>
        <time>2023-03-04T07:10:32.000Z</time>
      </trkpt>
      <trkpt lat="43.50132" lon="6.64408">
        <ele>70.1</ele>
        <time>2023-03-04T07:10:33.000Z</time>
      </trkpt>
      <trkpt lat="43.50132" lon="6.64408">
        <ele>70.1</ele>
        <time>2023-03-04T07:10:34.000Z</time>
      </trkpt>
      <trkpt lat="43.50132" lon="6.64408">
        <ele>70.1</ele>
        <time>2023-03-04T07:10:35.000Z</time>
      </trkpt>
      <trkpt lat="43.50132" lon="6.64408">
        <ele>70.1</ele>
        <time>2023-03-04T07:10:36.000Z</time>
      </trkpt>
      <trkpt lat="43.50132" lon="6.64408">
        <ele>70.1</ele>
        <time>2023-03-04T07:10:37.000Z</time>
      </trkpt>
      <trkpt lat="43.50132" lon="6.64408">
        <ele>70.1</ele>
        <time>2023-03-04T07:10:38.000Z</time>
      </trkpt>
      <trkpt lat="43.50132" lon="6.64408">
        <ele>70.1</ele>
        <time>2023-03-04T07:10:39.000Z</time>
      </trkpt>
      <trkpt lat="43.50132" lon="6.64408">
        <ele>70.1</ele>
        <time>2023-03-04T07:10:40.000Z</time>
      </trkpt>
      <trkpt lat="43.50132" lon="6.64408">
        <ele>70.1</ele>
        <time>2023-03-04T07:10:41.000Z</time>
      </trkpt>
      <trkpt lat="43.50132" lon="6.64408">
        <ele>70.1</ele>
        <time>2023-03-04T07:10:42.000Z</time>
      </trkpt>
      <trkpt lat="43.50132" lon="6.64409">
        <ele>70.1</ele>
        <time>2023-03-04T07:10:43.000Z</time>
      </trkpt>
      <trkpt lat="43.50132" lon="6.64409">
        <ele>70.1</ele>
        <time>2023-03-04T07:10:44.000Z</time>
      </trkpt>
      <trkpt lat="43.50132" lon="6.64409">
        <ele>70.1</ele>
        <time>2023-03-04T07:10:45.000Z</time>
      </trkpt>
      <trkpt lat="43.50132" lon="6.64409">
        <ele>70.1</ele>
        <time>2023-03-04T07:10:46.000Z</time>
      </trkpt>
      <trkpt lat="43.50132" lon="6.64409">
        <ele>70.1</ele>
        <time>2023-03-04T07:10:47.000Z</time>
      </trkpt>
      <trkpt lat="43.50132" lon="6.64409">
        <ele>70.1</ele>
        <time>2023-03-04T07:10:48.000Z</time>
      </trkpt>
      <trkpt lat="43.50132" lon="6.64409">
        <ele>70.1</ele>
        <time>2023-03-04T07:10:49.000Z</time>
      </trkpt>
      <trkpt lat="43.50132" lon="6.64409">
        <ele>70.1</ele>
        <time>2023-03-04T07:10:50.000Z</time>
      </trkpt>
      <trkpt lat="43.50132" lon="6.64409">
        <ele>70.1</ele>
        <time>2023-03-04T07:10:51.000Z</time>
      </trkpt>
      <trkpt lat="43.50132" lon="6.64409">
        <ele>70.1</ele>
        <time>2023-03-04T07:10:52.000Z</time>
      </trkpt>
      <trkpt lat="43.50132" lon="6.64409">
        <ele>70.1</ele>
        <time>2023-03-04T07:10:53.000Z</time>
      </trkpt>
      <trkpt lat="43.50132" lon="6.64409">
        <ele>70.1</ele>
        <time>2023-03-04T07:10:54.000Z</time>
      </trkpt>
      <trkpt lat="43.50132" lon="6.64409">
        <ele>70.1</ele>
        <time>2023-03-04T07:10:55.000Z</time>
      </trkpt>
      <trkpt lat="43.50132" lon="6.64409">
        <ele>70.1</ele>
        <time>2023-03-04T07:10:56.000Z</time>
      </trkpt>
      <trkpt lat="43.50132" lon="6.64409">
        <ele>70.1</ele>
        <time>2023-03-04T07:10:57.000Z</time>
      </trkpt>
      <trkpt lat="43.50132" lon="6.64409">
        <ele>70.1</ele>
        <time>2023-03-04T07:10:58.000Z</time>
      </trkpt>
      <trkpt lat="43.50132" lon="6.64409">
        <ele>70.1</ele>
        <time>2023-03-04T07:10:59.000Z</time>
      </trkpt>
      <trkpt lat="43.50132" lon="6.64409">
        <ele>70.1</ele>
        <time>2023-03-04T07:11:00.000Z</time>
      </trkpt>
      <trkpt lat="43.50132" lon="6.64409">
        <ele>70.1</ele>
        <time>2023-03-04T07:11:01.000Z</time>
      </trkpt>
      <trkpt lat="43.50132" lon="6.64409">
        <ele>70.1</ele>
        <time>2023-03-04T07:11:02.000Z</time>
      </trkpt>
      <trkpt lat="43.50132" lon="6.64409">
        <ele>70.1</ele>
        <time>2023-03-04T07:11:03.000Z</time>
      </trkpt>
      <trkpt lat="43.50132" lon="6.64409">
        <ele>70.1</ele>
        <time>2023-03-04T07:11:04.000Z</time>
      </trkpt>
      <trkpt lat="43.50132" lon="6.64409">
        <ele>70.1</ele>
        <time>2023-03-04T07:11:05.000Z</time>
      </trkpt>
      <trkpt lat="43.50132" lon="6.64409">
        <ele>70.1</ele>
        <time>2023-03-04T07:11:06.000Z</time>
      </trkpt>
      <trkpt lat="43.50132" lon="6.64409">
        <ele>70.1</ele>
        <time>2023-03-04T07:11:07.000Z</time>
      </trkpt>
      <trkpt lat="43.50132" lon="6.64409">
        <ele>70.1</ele>
        <time>2023-03-04T07:11:08.000Z</time>
      </trkpt>
      <trkpt lat="43.50131" lon="6.64409">
        <ele>70.1</ele>
        <time>2023-03-04T07:11:09.000Z</time>
      </trkpt>
      <trkpt lat="43.50131" lon="6.64409">
        <ele>70.1</ele>
        <time>2023-03-04T07:11:10.000Z</time>
      </trkpt>
      <trkpt lat="43.50131" lon="6.64409">
        <ele>70.1</ele>
        <time>2023-03-04T07:11:11.000Z</time>
      </trkpt>
      <trkpt lat="43.50131" lon="6.64409">
        <ele>70.1</ele>
        <time>2023-03-04T07:11:12.000Z</time>
      </trkpt>
      <trkpt lat="43.50131" lon="6.64409">
        <ele>70.1</ele>
        <time>2023-03-04T07:11:13.000Z</time>
      </trkpt>
      <trkpt lat="43.50131" lon="6.64409">
        <ele>70.1</ele>
        <time>2023-03-04T07:11:14.000Z</time>
      </trkpt>
      <trkpt lat="43.50131" lon="6.64409">
        <ele>70.1</ele>
        <time>2023-03-04T07:11:15.000Z</time>
      </trkpt>
      <trkpt lat="43.50131" lon="6.64409">
        <ele>70.1</ele>
        <time>2023-03-04T07:11:16.000Z</time>
      </trkpt>
      <trkpt lat="43.50131" lon="6.64409">
        <ele>70.1</ele>
        <time>2023-03-04T07:11:17.000Z</time>
      </trkpt>
      <trkpt lat="43.50131" lon="6.64409">
        <ele>70.1</ele>
        <time>2023-03-04T07:11:18.000Z</time>
      </trkpt>
      <trkpt lat="43.50131" lon="6.64409">
        <ele>70.1</ele>
        <time>2023-03-04T07:11:19.000Z</time>
      </trkpt>
      <trkpt lat="43.50131" lon="6.64409">
        <ele>70.1</ele>
        <time>2023-03-04T07:11:20.000Z</time>
      </trkpt>
      <trkpt lat="43.50131" lon="6.64409">
        <ele>70.1</ele>
        <time>2023-03-04T07:11:21.000Z</time>
      </trkpt>
      <trkpt lat="43.50131" lon="6.64409">
        <ele>70.1</ele>
        <time>2023-03-04T07:11:22.000Z</time>
      </trkpt>
      <trkpt lat="43.50131" lon="6.64409">
        <ele>70.1</ele>
        <time>2023-03-04T07:11:23.000Z</time>
      </trkpt>
      <trkpt lat="43.50131" lon="6.64409">
        <ele>70.1</ele>
        <time>2023-03-04T07:11:24.000Z</time>
      </trkpt>
      <trkpt lat="43.50131" lon="6.64409">
        <ele>70.1</ele>
        <time>2023-03-04T07:11:25.000Z</time>
      </trkpt>
      <trkpt lat="43.50131" lon="6.64409">
        <ele>70.1</ele>
        <time>2023-03-04T07:11:26.000Z</time>
      </trkpt>
      <trkpt lat="43.50131" lon="6.64409">
        <ele>70.1</ele>
        <time>2023-03-04T07:11:27.000Z</time>
      </trkpt>
      <trkpt lat="43.50131" lon="6.64409">
        <ele>70.1</ele>
        <time>2023-03-04T07:11:28.000Z</time>
      </trkpt>
      <trkpt lat="43.50131" lon="6.64409">
        <ele>70.1</ele>
        <time>2023-03-04T07:11:29.000Z</time>
      </trkpt>
      <trkpt lat="43.50131" lon="6.64409">
        <ele>70.1</ele>
        <time>2023-03-04T07:11:30.000Z</time>
      </trkpt>
      <trkpt lat="43.50131" lon="6.64409">
        <ele>70.1</ele>
        <time>2023-03-04T07:11:31.000Z</time>
      </trkpt>
      <trkpt lat="43.50131" lon="6.64409">
        <ele>70.1</ele>
        <time>2023-03-04T07:11:32.000Z</time>
      </trkpt>
      <trkpt lat="43.50131" lon="6.64409">
        <ele>70.1</ele>
        <time>2023-03-04T07:11:33.000Z</time>
      </trkpt>
      <trkpt lat="43.50131" lon="6.64409">
        <ele>70.1</ele>
        <time>2023-03-04T07:11:34.000Z</time>
      </trkpt>
      <trkpt lat="43.50131" lon="6.64409">
        <ele>70.1</ele>
        <time>2023-03-04T07:11:35.000Z</time>
      </trkpt>
      <trkpt lat="43.50131" lon="6.64409">
        <ele>70.1</ele>
        <time>2023-03-04T07:11:36.000Z</time>
      </trkpt>
      <trkpt lat="43.50131" lon="6.64409">
        <ele>70.1</ele>
        <time>2023-03-04T07:11:37.000Z</time>
      </trkpt>
      <trkpt lat="43.50131" lon="6.64409">
        <ele>70.1</ele>
        <time>2023-03-04T07:11:38.000Z</time>
      </trkpt>
      <trkpt lat="43.50131" lon="6.64409">
        <ele>70.1</ele>
        <time>2023-03-04T07:11:39.000Z</time>
      </trkpt>
      <trkpt lat="43.50131" lon="6.64409">
        <ele>70.1</ele>
        <time>2023-03-04T07:11:40.000Z</time>
      </trkpt>
      <trkpt lat="43.50131" lon="6.64409">
        <ele>70.1</ele>
        <time>2023-03-04T07:11:41.000Z</time>
      </trkpt>
      <trkpt lat="43.50131" lon="6.64409">
        <ele>70.1</ele>
        <time>2023-03-04T07:11:42.000Z</time>
      </trkpt>
      <trkpt lat="43.50131" lon="6.64409">
        <ele>70.1</ele>
        <time>2023-03-04T07:11:43.000Z</time>
      </trkpt>
      <trkpt lat="43.50131" lon="6.64409">
        <ele>70.1</ele>
        <time>2023-03-04T07:11:44.000Z</time>
      </trkpt>
      <trkpt lat="43.50131" lon="6.64409">
        <ele>70.1</ele>
        <time>2023-03-04T07:11:45.000Z</time>
      </trkpt>
      <trkpt lat="43.50131" lon="6.64409">
        <ele>70.1</ele>
        <time>2023-03-04T07:11:46.000Z</time>
      </trkpt>
      <trkpt lat="43.50131" lon="6.64409">
        <ele>70.1</ele>
        <time>2023-03-04T07:11:47.000Z</time>
      </trkpt>
      <trkpt lat="43.50131" lon="6.6441">
        <ele>70.1</ele>
        <time>2023-03-04T07:11:48.000Z</time>
      </trkpt>
      <trkpt lat="43.50131" lon="6.6441">
        <ele>70.1</ele>
        <time>2023-03-04T07:11:49.000Z</time>
      </trkpt>
      <trkpt lat="43.50131" lon="6.6441">
        <ele>70.1</ele>
        <time>2023-03-04T07:11:50.000Z</time>
      </trkpt>
      <trkpt lat="43.50131" lon="6.6441">
        <ele>70.1</ele>
        <time>2023-03-04T07:11:51.000Z</time>
      </trkpt>
      <trkpt lat="43.50131" lon="6.6441">
        <ele>70.1</ele>
        <time>2023-03-04T07:11:52.000Z</time>
      </trkpt>
      <trkpt lat="43.50131" lon="6.6441">
        <ele>70.1</ele>
        <time>2023-03-04T07:11:53.000Z</time>
      </trkpt>
      <trkpt lat="43.50131" lon="6.6441">
        <ele>70.1</ele>
        <time>2023-03-04T07:11:54.000Z</time>
      </trkpt>
      <trkpt lat="43.50131" lon="6.6441">
        <ele>70.1</ele>
        <time>2023-03-04T07:11:55.000Z</time>
      </trkpt>
      <trkpt lat="43.50131" lon="6.6441">
        <ele>70.1</ele>
        <time>2023-03-04T07:11:56.000Z</time>
      </trkpt>
      <trkpt lat="43.50131" lon="6.6441">
        <ele>70.1</ele>
        <time>2023-03-04T07:11:57.000Z</time>
      </trkpt>
      <trkpt lat="43.50131" lon="6.6441">
        <ele>70.1</ele>
        <time>2023-03-04T07:11:58.000Z</time>
      </trkpt>
      <trkpt lat="43.50131" lon="6.6441">
        <ele>70.1</ele>
        <time>2023-03-04T07:11:59.000Z</time>
      </trkpt>
      <trkpt lat="43.50131" lon="6.6441">
        <ele>70.1</ele>
        <time>2023-03-04T07:12:00.000Z</time>
      </trkpt>
      <trkpt lat="43.50131" lon="6.6441">
        <ele>70.1</ele>
        <time>2023-03-04T07:12:01.000Z</time>
      </trkpt>
      <trkpt lat="43.50131" lon="6.6441">
        <ele>70.1</ele>
        <time>2023-03-04T07:12:02.000Z</time>
      </trkpt>
      <trkpt lat="43.50131" lon="6.6441">
        <ele>70.1</ele>
        <time>2023-03-04T07:12:03.000Z</time>
      </trkpt>
      <trkpt lat="43.50131" lon="6.6441">
        <ele>70.1</ele>
        <time>2023-03-04T07:12:04.000Z</time>
      </trkpt>
      <trkpt lat="43.50131" lon="6.6441">
        <ele>70.1</ele>
        <time>2023-03-04T07:12:05.000Z</time>
      </trkpt>
      <trkpt lat="43.50131" lon="6.6441">
        <ele>70.1</ele>
        <time>2023-03-04T07:12:06.000Z</time>
      </trkpt>
      <trkpt lat="43.50131" lon="6.6441">
        <ele>70.1</ele>
        <time>2023-03-04T07:12:07.000Z</time>
      </trkpt>
      <trkpt lat="43.50131" lon="6.6441">
        <ele>70.1</ele>
        <time>2023-03-04T07:12:08.000Z</time>
      </trkpt>
      <trkpt lat="43.50131" lon="6.6441">
        <ele>70.1</ele>
        <time>2023-03-04T07:12:09.000Z</time>
      </trkpt>
      <trkpt lat="43.50131" lon="6.6441">
        <ele>70.1</ele>
        <time>2023-03-04T07:12:10.000Z</time>
      </trkpt>
      <trkpt lat="43.50131" lon="6.6441">
        <ele>70.1</ele>
        <time>2023-03-04T07:12:11.000Z</time>
      </trkpt>
      <trkpt lat="43.50131" lon="6.6441">
        <ele>70.1</ele>
        <time>2023-03-04T07:12:12.000Z</time>
      </trkpt>
      <trkpt lat="43.50131" lon="6.6441">
        <ele>70.1</ele>
        <time>2023-03-04T07:12:13.000Z</time>
      </trkpt>
      <trkpt lat="43.50131" lon="6.6441">
        <ele>70.1</ele>
        <time>2023-03-04T07:12:14.000Z</time>
      </trkpt>
      <trkpt lat="43.50131" lon="6.6441">
        <ele>70.1</ele>
        <time>2023-03-04T07:12:15.000Z</time>
      </trkpt>
      <trkpt lat="43.50131" lon="6.6441">
        <ele>70.1</ele>
        <time>2023-03-04T07:12:16.000Z</time>
      </trkpt>
      <trkpt lat="43.50131" lon="6.6441">
        <ele>70.1</ele>
        <time>2023-03-04T07:12:17.000Z</time>
      </trkpt>
      <trkpt lat="43.50131" lon="6.6441">
        <ele>70.1</ele>
        <time>2023-03-04T07:12:18.000Z</time>
      </trkpt>
      <trkpt lat="43.50131" lon="6.6441">
        <ele>70.1</ele>
        <time>2023-03-04T07:12:19.000Z</time>
      </trkpt>
      <trkpt lat="43.50131" lon="6.6441">
        <ele>70.1</ele>
        <time>2023-03-04T07:12:20.000Z</time>
      </trkpt>
      <trkpt lat="43.50131" lon="6.6441">
        <ele>70.1</ele>
        <time>2023-03-04T07:12:21.000Z</time>
      </trkpt>
      <trkpt lat="43.50131" lon="6.6441">
        <ele>70.1</ele>
        <time>2023-03-04T07:12:22.000Z</time>
      </trkpt>
      <trkpt lat="43.50131" lon="6.6441">
        <ele>70.1</ele>
        <time>2023-03-04T07:12:23.000Z</time>
      </trkpt>
      <trkpt lat="43.50131" lon="6.6441">
        <ele>70.1</ele>
        <time>2023-03-04T07:12:24.000Z</time>
      </trkpt>
      <trkpt lat="43.50131" lon="6.6441">
        <ele>70.1</ele>
        <time>2023-03-04T07:12:25.000Z</time>
      </trkpt>
      <trkpt lat="43.50131" lon="6.6441">
        <ele>70.1</ele>
        <time>2023-03-04T07:12:26.000Z</time>
      </trkpt>
      <trkpt lat="43.50131" lon="6.6441">
        <ele>70.1</ele>
        <time>2023-03-04T07:12:27.000Z</time>
      </trkpt>
      <trkpt lat="43.50131" lon="6.6441">
        <ele>70.1</ele>
        <time>2023-03-04T07:12:28.000Z</time>
      </trkpt>
      <trkpt lat="43.50131" lon="6.6441">
        <ele>70.1</ele>
        <time>2023-03-04T07:12:29.000Z</time>
      </trkpt>
      <trkpt lat="43.50131" lon="6.6441">
        <ele>70.1</ele>
        <time>2023-03-04T07:12:30.000Z</time>
      </trkpt>
      <trkpt lat="43.50131" lon="6.6441">
        <ele>70.1</ele>
        <time>2023-03-04T07:12:31.000Z</time>
      </trkpt>
      <trkpt lat="43.50131" lon="6.6441">
        <ele>70.1</ele>
        <time>2023-03-04T07:12:32.000Z</time>
      </trkpt>
      <trkpt lat="43.50131" lon="6.6441">
        <ele>70.1</ele>
        <time>2023-03-04T07:12:33.000Z</time>
      </trkpt>
      <trkpt lat="43.50131" lon="6.6441">
        <ele>70.1</ele>
        <time>2023-03-04T07:12:34.000Z</time>
      </trkpt>
      <trkpt lat="43.50131" lon="6.6441">
        <ele>70.1</ele>
        <time>2023-03-04T07:12:35.000Z</time>
      </trkpt>
      <trkpt lat="43.50131" lon="6.6441">
        <ele>70.1</ele>
        <time>2023-03-04T07:12:36.000Z</time>
      </trkpt>
      <trkpt lat="43.50131" lon="6.6441">
        <ele>70.1</ele>
        <time>2023-03-04T07:12:37.000Z</time>
      </trkpt>
      <trkpt lat="43.50131" lon="6.6441">
        <ele>70.1</ele>
        <time>2023-03-04T07:12:38.000Z</time>
      </trkpt>
      <trkpt lat="43.50131" lon="6.6441">
        <ele>70.1</ele>
        <time>2023-03-04T07:12:39.000Z</time>
      </trkpt>
      <trkpt lat="43.50131" lon="6.6441">
        <ele>70.1</ele>
        <time>2023-03-04T07:12:40.000Z</time>
      </trkpt>
      <trkpt lat="43.50131" lon="6.6441">
        <ele>70.1</ele>
        <time>2023-03-04T07:12:41.000Z</time>
      </trkpt>
      <trkpt lat="43.50131" lon="6.6441">
        <ele>70.1</ele>
        <time>2023-03-04T07:12:42.000Z</time>
      </trkpt>
      <trkpt lat="43.50131" lon="6.6441">
        <ele>70.1</ele>
        <time>2023-03-04T07:12:43.000Z</time>
      </trkpt>
      <trkpt lat="43.50131" lon="6.6441">
        <ele>70.1</ele>
        <time>2023-03-04T07:12:44.000Z</time>
      </trkpt>
      <trkpt lat="43.50131" lon="6.6441">
        <ele>70.1</ele>
        <time>2023-03-04T07:12:45.000Z</time>
      </trkpt>
      <trkpt lat="43.50131" lon="6.6441">
        <ele>70.1</ele>
        <time>2023-03-04T07:12:46.000Z</time>
      </trkpt>
      <trkpt lat="43.50131" lon="6.6441">
        <ele>70.1</ele>
        <time>2023-03-04T07:12:47.000Z</time>
      </trkpt>
      <trkpt lat="43.50131" lon="6.6441">
        <ele>70.1</ele>
        <time>2023-03-04T07:12:48.000Z</time>
      </trkpt>
      <trkpt lat="43.50131" lon="6.6441">
        <ele>70.1</ele>
        <time>2023-03-04T07:12:49.000Z</time>
      </trkpt>
      <trkpt lat="43.50131" lon="6.6441">
        <ele>70.1</ele>
        <time>2023-03-04T07:12:50.000Z</time>
      </trkpt>
      <trkpt lat="43.50131" lon="6.6441">
        <ele>70.1</ele>
        <time>2023-03-04T07:12:51.000Z</time>
      </trkpt>
      <trkpt lat="43.50131" lon="6.6441">
        <ele>70.1</ele>
        <time>2023-03-04T07:12:52.000Z</time>
      </trkpt>
      <trkpt lat="43.50131" lon="6.64411">
        <ele>70.1</ele>
        <time>2023-03-04T07:12:53.000Z</time>
      </trkpt>
      <trkpt lat="43.50131" lon="6.64411">
        <ele>70.1</ele>
        <time>2023-03-04T07:12:54.000Z</time>
      </trkpt>
      <trkpt lat="43.50131" lon="6.64411">
        <ele>70.1</ele>
        <time>2023-03-04T07:12:55.000Z</time>
      </trkpt>
      <trkpt lat="43.50131" lon="6.64411">
        <ele>70.1</ele>
        <time>2023-03-04T07:12:56.000Z</time>
      </trkpt>
      <trkpt lat="43.50131" lon="6.64411">
        <ele>70.1</ele>
        <time>2023-03-04T07:12:57.000Z</time>
      </trkpt>
      <trkpt lat="43.50131" lon="6.64411">
        <ele>70.1</ele>
        <time>2023-03-04T07:12:58.000Z</time>
      </trkpt>
      <trkpt lat="43.50131" lon="6.64411">
        <ele>70.1</ele>
        <time>2023-03-04T07:12:59.000Z</time>
      </trkpt>
      <trkpt lat="43.50131" lon="6.64411">
        <ele>70.1</ele>
        <time>2023-03-04T07:13:00.000Z</time>
      </trkpt>
      <trkpt lat="43.50131" lon="6.64411">
        <ele>70.1</ele>
        <time>2023-03-04T07:13:01.000Z</time>
      </trkpt>
      <trkpt lat="43.50131" lon="6.64411">
        <ele>70.1</ele>
        <time>2023-03-04T07:13:02.000Z</time>
      </trkpt>
      <trkpt lat="43.50131" lon="6.64411">
        <ele>70.1</ele>
        <time>2023-03-04T07:13:03.000Z</time>
      </trkpt>
      <trkpt lat="43.50131" lon="6.64411">
        <ele>70.1</ele>
        <time>2023-03-04T07:13:04.000Z</time>
      </trkpt>
      <trkpt lat="43.50131" lon="6.64411">
        <ele>70.1</ele>
        <time>2023-03-04T07:13:05.000Z</time>
      </trkpt>
      <trkpt lat="43.50131" lon="6.64411">
        <ele>70.1</ele>
        <time>2023-03-04T07:13:06.000Z</time>
      </trkpt>
      <trkpt lat="43.50131" lon="6.64411">
        <ele>70.1</ele>
        <time>2023-03-04T07:13:07.000Z</time>
      </trkpt>
      <trkpt lat="43.50131" lon="6.64411">
        <ele>70.1</ele>
        <time>2023-03-04T07:13:08.000Z</time>
      </trkpt>
      <trkpt lat="43.50131" lon="6.64411">
        <ele>70.1</ele>
        <time>2023-03-04T07:13:09.000Z</time>
      </trkpt>
      <trkpt lat="43.50131" lon="6.64411">
        <ele>70.1</ele>
        <time>2023-03-04T07:13:10.000Z</time>
      </trkpt>
      <trkpt lat="43.50131" lon="6.64411">
        <ele>70.1</ele>
        <time>2023-03-04T07:13:11.000Z</time>
      </trkpt>
      <trkpt lat="43.50131" lon="6.64411">
        <ele>70.1</ele>
        <time>2023-03-04T07:13:12.000Z</time>
      </trkpt>
      <trkpt lat="43.50131" lon="6.64411">
        <ele>70.1</ele>
        <time>2023-03-04T07:13:13.000Z</time>
      </trkpt>
      <trkpt lat="43.50131" lon="6.64411">
        <ele>70.1</ele>
        <time>2023-03-04T07:13:14.000Z</time>
      </trkpt>
      <trkpt lat="43.50131" lon="6.64411">
        <ele>70.1</ele>
        <time>2023-03-04T07:13:15.000Z</time>
      </trkpt>
      <trkpt lat="43.50131" lon="6.64411">
        <ele>70.1</ele>
        <time>2023-03-04T07:13:16.000Z</time>
      </trkpt>
      <trkpt lat="43.50131" lon="6.64411">
        <ele>70.1</ele>
        <time>2023-03-04T07:13:17.000Z</time>
      </trkpt>
      <trkpt lat="43.50131" lon="6.64411">
        <ele>70.1</ele>
        <time>2023-03-04T07:13:18.000Z</time>
      </trkpt>
      <trkpt lat="43.50131" lon="6.64411">
        <ele>70.1</ele>
        <time>2023-03-04T07:13:19.000Z</time>
      </trkpt>
      <trkpt lat="43.50131" lon="6.64411">
        <ele>70.1</ele>
        <time>2023-03-04T07:13:20.000Z</time>
      </trkpt>
      <trkpt lat="43.50131" lon="6.64411">
        <ele>70.1</ele>
        <time>2023-03-04T07:13:21.000Z</time>
      </trkpt>
      <trkpt lat="43.50131" lon="6.64411">
        <ele>70.1</ele>
        <time>2023-03-04T07:13:22.000Z</time>
      </trkpt>
      <trkpt lat="43.50131" lon="6.64411">
        <ele>70.1</ele>
        <time>2023-03-04T07:13:23.000Z</time>
      </trkpt>
      <trkpt lat="43.50131" lon="6.64411">
        <ele>70.1</ele>
        <time>2023-03-04T07:13:24.000Z</time>
      </trkpt>
      <trkpt lat="43.50131" lon="6.64411">
        <ele>70.1</ele>
        <time>2023-03-04T07:13:25.000Z</time>
      </trkpt>
      <trkpt lat="43.50131" lon="6.64411">
        <ele>70.1</ele>
        <time>2023-03-04T07:13:26.000Z</time>
      </trkpt>
      <trkpt lat="43.50131" lon="6.64411">
        <ele>70.1</ele>
        <time>2023-03-04T07:13:27.000Z</time>
      </trkpt>
      <trkpt lat="43.50131" lon="6.64411">
        <ele>70.1</ele>
        <time>2023-03-04T07:13:28.000Z</time>
      </trkpt>
      <trkpt lat="43.50131" lon="6.64411">
        <ele>70.1</ele>
        <time>2023-03-04T07:13:29.000Z</time>
      </trkpt>
      <trkpt lat="43.50131" lon="6.64411">
        <ele>70.1</ele>
        <time>2023-03-04T07:13:30.000Z</time>
      </trkpt>
      <trkpt lat="43.50131" lon="6.64411">
        <ele>70.1</ele>
        <time>2023-03-04T07:13:31.000Z</time>
      </trkpt>
      <trkpt lat="43.50131" lon="6.64411">
        <ele>70.1</ele>
        <time>2023-03-04T07:13:32.000Z</time>
      </trkpt>
      <trkpt lat="43.50131" lon="6.64411">
        <ele>70.1</ele>
        <time>2023-03-04T07:13:33.000Z</time>
      </trkpt>
      <trkpt lat="43.50131" lon="6.64411">
        <ele>70.1</ele>
        <time>2023-03-04T07:13:34.000Z</time>
      </trkpt>
      <trkpt lat="43.50131" lon="6.64411">
        <ele>70.1</ele>
        <time>2023-03-04T07:13:35.000Z</time>
      </trkpt>
      <trkpt lat="43.50131" lon="6.64411">
        <ele>70.1</ele>
        <time>2023-03-04T07:13:36.000Z</time>
      </trkpt>
      <trkpt lat="43.50131" lon="6.64411">
        <ele>70.1</ele>
        <time>2023-03-04T07:13:37.000Z</time>
      </trkpt>
      <trkpt lat="43.50131" lon="6.64411">
        <ele>70.1</ele>
        <time>2023-03-04T07:13:38.000Z</time>
      </trkpt>
      <trkpt lat="43.50131" lon="6.64411">
        <ele>70.1</ele>
        <time>2023-03-04T07:13:39.000Z</time>
      </trkpt>
      <trkpt lat="43.50131" lon="6.64411">
        <ele>70.1</ele>
        <time>2023-03-04T07:13:40.000Z</time>
      </trkpt>
      <trkpt lat="43.50131" lon="6.64411">
        <ele>70.1</ele>
        <time>2023-03-04T07:13:41.000Z</time>
      </trkpt>
      <trkpt lat="43.50131" lon="6.64411">
        <ele>70.1</ele>
        <time>2023-03-04T07:13:42.000Z</time>
      </trkpt>
      <trkpt lat="43.50131" lon="6.64411">
        <ele>70.1</ele>
        <time>2023-03-04T07:13:43.000Z</time>
      </trkpt>
      <trkpt lat="43.50131" lon="6.64411">
        <ele>70.1</ele>
        <time>2023-03-04T07:13:44.000Z</time>
      </trkpt>
      <trkpt lat="43.50131" lon="6.64411">
        <ele>70.1</ele>
        <time>2023-03-04T07:13:45.000Z</time>
      </trkpt>
      <trkpt lat="43.50131" lon="6.64411">
        <ele>70.1</ele>
        <time>2023-03-04T07:13:46.000Z</time>
      </trkpt>
      <trkpt lat="43.50131" lon="6.64411">
        <ele>70.1</ele>
        <time>2023-03-04T07:13:47.000Z</time>
      </trkpt>
      <trkpt lat="43.50131" lon="6.64411">
        <ele>70.1</ele>
        <time>2023-03-04T07:13:48.000Z</time>
      </trkpt>
      <trkpt lat="43.50131" lon="6.64411">
        <ele>70.1</ele>
        <time>2023-03-04T07:13:49.000Z</time>
      </trkpt>
      <trkpt lat="43.50131" lon="6.64411">
        <ele>70.1</ele>
        <time>2023-03-04T07:13:50.000Z</time>
      </trkpt>
      <trkpt lat="43.50131" lon="6.64411">
        <ele>70.1</ele>
        <time>2023-03-04T07:13:51.000Z</time>
      </trkpt>
      <trkpt lat="43.50131" lon="6.64411">
        <ele>70.1</ele>
        <time>2023-03-04T07:13:52.000Z</time>
      </trkpt>
      <trkpt lat="43.50131" lon="6.64411">
        <ele>70.1</ele>
        <time>2023-03-04T07:13:53.000Z</time>
      </trkpt>
      <trkpt lat="43.50131" lon="6.64411">
        <ele>70.1</ele>
        <time>2023-03-04T07:13:54.000Z</time>
      </trkpt>
      <trkpt lat="43.50131" lon="6.64411">
        <ele>70.1</ele>
        <time>2023-03-04T07:13:55.000Z</time>
      </trkpt>
      <trkpt lat="43.50131" lon="6.64411">
        <ele>70.1</ele>
        <time>2023-03-04T07:13:56.000Z</time>
      </trkpt>
      <trkpt lat="43.50131" lon="6.64411">
        <ele>70.1</ele>
        <time>2023-03-04T07:13:57.000Z</time>
      </trkpt>
      <trkpt lat="43.50131" lon="6.64411">
        <ele>70.1</ele>
        <time>2023-03-04T07:13:58.000Z</time>
      </trkpt>
      <trkpt lat="43.50131" lon="6.64412">
        <ele>70.1</ele>
        <time>2023-03-04T07:13:59.000Z</time>
      </trkpt>
      <trkpt lat="43.50131" lon="6.64412">
        <ele>70.1</ele>
        <time>2023-03-04T07:14:00.000Z</time>
      </trkpt>
      <trkpt lat="43.50131" lon="6.64412">
        <ele>70.1</ele>
        <time>2023-03-04T07:14:01.000Z</time>
      </trkpt>
      <trkpt lat="43.50131" lon="6.64412">
        <ele>70.1</ele>
        <time>2023-03-04T07:14:02.000Z</time>
      </trkpt>
      <trkpt lat="43.50131" lon="6.64412">
        <ele>70.1</ele>
        <time>2023-03-04T07:14:03.000Z</time>
      </trkpt>
      <trkpt lat="43.50131" lon="6.64412">
        <ele>70.1</ele>
        <time>2023-03-04T07:14:04.000Z</time>
      </trkpt>
      <trkpt lat="43.50131" lon="6.64412">
        <ele>70.1</ele>
        <time>2023-03-04T07:14:05.000Z</time>
      </trkpt>
      <trkpt lat="43.50131" lon="6.64412">
        <ele>70.1</ele>
        <time>2023-03-04T07:14:06.000Z</time>
      </trkpt>
      <trkpt lat="43.50131" lon="6.64412">
        <ele>70.1</ele>
        <time>2023-03-04T07:14:07.000Z</time>
      </trkpt>
      <trkpt lat="43.50131" lon="6.64412">
        <ele>70.1</ele>
        <time>2023-03-04T07:14:08.000Z</time>
      </trkpt>
      <trkpt lat="43.50131" lon="6.64412">
        <ele>70.1</ele>
        <time>2023-03-04T07:14:09.000Z</time>
      </trkpt>
      <trkpt lat="43.50131" lon="6.64412">
        <ele>70.1</ele>
        <time>2023-03-04T07:14:10.000Z</time>
      </trkpt>
      <trkpt lat="43.50131" lon="6.64412">
        <ele>70.1</ele>
        <time>2023-03-04T07:14:11.000Z</time>
      </trkpt>
      <trkpt lat="43.50131" lon="6.64412">
        <ele>70.1</ele>
        <time>2023-03-04T07:14:12.000Z</time>
      </trkpt>
      <trkpt lat="43.50131" lon="6.64412">
        <ele>70.1</ele>
        <time>2023-03-04T07:14:13.000Z</time>
      </trkpt>
      <trkpt lat="43.50131" lon="6.64412">
        <ele>70.1</ele>
        <time>2023-03-04T07:14:14.000Z</time>
      </trkpt>
      <trkpt lat="43.50131" lon="6.64412">
        <ele>70.1</ele>
        <time>2023-03-04T07:14:15.000Z</time>
      </trkpt>
      <trkpt lat="43.50131" lon="6.64412">
        <ele>70.1</ele>
        <time>2023-03-04T07:14:16.000Z</time>
      </trkpt>
      <trkpt lat="43.50131" lon="6.64412">
        <ele>70.1</ele>
        <time>2023-03-04T07:14:17.000Z</time>
      </trkpt>
      <trkpt lat="43.50131" lon="6.64412">
        <ele>70.1</ele>
        <time>2023-03-04T07:14:18.000Z</time>
      </trkpt>
      <trkpt lat="43.50131" lon="6.64412">
        <ele>70.1</ele>
        <time>2023-03-04T07:14:19.000Z</time>
      </trkpt>
      <trkpt lat="43.50131" lon="6.64412">
        <ele>70.1</ele>
        <time>2023-03-04T07:14:20.000Z</time>
      </trkpt>
      <trkpt lat="43.50131" lon="6.64412">
        <ele>70.1</ele>
        <time>2023-03-04T07:14:21.000Z</time>
      </trkpt>
      <trkpt lat="43.50131" lon="6.64412">
        <ele>70.1</ele>
        <time>2023-03-04T07:14:22.000Z</time>
      </trkpt>
      <trkpt lat="43.50131" lon="6.64412">
        <ele>70.1</ele>
        <time>2023-03-04T07:14:23.000Z</time>
      </trkpt>
      <trkpt lat="43.50131" lon="6.64412">
        <ele>70.1</ele>
        <time>2023-03-04T07:14:24.000Z</time>
      </trkpt>
      <trkpt lat="43.50131" lon="6.64412">
        <ele>70.1</ele>
        <time>2023-03-04T07:14:25.000Z</time>
      </trkpt>
      <trkpt lat="43.50131" lon="6.64412">
        <ele>70.1</ele>
        <time>2023-03-04T07:14:26.000Z</time>
      </trkpt>
      <trkpt lat="43.50131" lon="6.64412">
        <ele>70.1</ele>
        <time>2023-03-04T07:14:27.000Z</time>
      </trkpt>
      <trkpt lat="43.50131" lon="6.64412">
        <ele>70.1</ele>
        <time>2023-03-04T07:14:28.000Z</time>
      </trkpt>
      <trkpt lat="43.50131" lon="6.64412">
        <ele>70.1</ele>
        <time>2023-03-04T07:14:29.000Z</time>
      </trkpt>
      <trkpt lat="43.50131" lon="6.64412">
        <ele>70.1</ele>
        <time>2023-03-04T07:14:30.000Z</time>
      </trkpt>
      <trkpt lat="43.50131" lon="6.64412">
        <ele>70</ele>
        <time>2023-03-04T07:14:31.000Z</time>
      </trkpt>
      <trkpt lat="43.50131" lon="6.64412">
        <ele>70</ele>
        <time>2023-03-04T07:14:32.000Z</time>
      </trkpt>
      <trkpt lat="43.50131" lon="6.64412">
        <ele>70</ele>
        <time>2023-03-04T07:14:33.000Z</time>
      </trkpt>
      <trkpt lat="43.50131" lon="6.64412">
        <ele>70</ele>
        <time>2023-03-04T07:14:34.000Z</time>
      </trkpt>
      <trkpt lat="43.50131" lon="6.64412">
        <ele>70</ele>
        <time>2023-03-04T07:14:35.000Z</time>
      </trkpt>
      <trkpt lat="43.50131" lon="6.64412">
        <ele>70</ele>
        <time>2023-03-04T07:14:36.000Z</time>
      </trkpt>
      <trkpt lat="43.50131" lon="6.64412">
        <ele>70</ele>
        <time>2023-03-04T07:14:37.000Z</time>
      </trkpt>
      <trkpt lat="43.50131" lon="6.64412">
        <ele>70</ele>
        <time>2023-03-04T07:14:38.000Z</time>
      </trkpt>
      <trkpt lat="43.50131" lon="6.64412">
        <ele>70</ele>
        <time>2023-03-04T07:14:39.000Z</time>
      </trkpt>
      <trkpt lat="43.50131" lon="6.64412">
        <ele>70</ele>
        <time>2023-03-04T07:14:40.000Z</time>
      </trkpt>
      <trkpt lat="43.50131" lon="6.64412">
        <ele>70</ele>
        <time>2023-03-04T07:14:41.000Z</time>
      </trkpt>
      <trkpt lat="43.50131" lon="6.64412">
        <ele>70</ele>
        <time>2023-03-04T07:14:42.000Z</time>
      </trkpt>
      <trkpt lat="43.50131" lon="6.64412">
        <ele>70</ele>
        <time>2023-03-04T07:14:43.000Z</time>
      </trkpt>
      <trkpt lat="43.50131" lon="6.64412">
        <ele>70</ele>
        <time>2023-03-04T07:14:44.000Z</time>
      </trkpt>
      <trkpt lat="43.50131" lon="6.64412">
        <ele>70</ele>
        <time>2023-03-04T07:14:45.000Z</time>
      </trkpt>
      <trkpt lat="43.50131" lon="6.64412">
        <ele>70</ele>
        <time>2023-03-04T07:14:46.000Z</time>
      </trkpt>
      <trkpt lat="43.50131" lon="6.64412">
        <ele>70</ele>
        <time>2023-03-04T07:14:47.000Z</time>
      </trkpt>
      <trkpt lat="43.50131" lon="6.64412">
        <ele>70</ele>
        <time>2023-03-04T07:14:48.000Z</time>
      </trkpt>
      <trkpt lat="43.50131" lon="6.64412">
        <ele>70</ele>
        <time>2023-03-04T07:14:49.000Z</time>
      </trkpt>
      <trkpt lat="43.50131" lon="6.64412">
        <ele>70</ele>
        <time>2023-03-04T07:14:50.000Z</time>
      </trkpt>
      <trkpt lat="43.50131" lon="6.64412">
        <ele>70</ele>
        <time>2023-03-04T07:14:51.000Z</time>
      </trkpt>
      <trkpt lat="43.50131" lon="6.64412">
        <ele>70</ele>
        <time>2023-03-04T07:14:52.000Z</time>
      </trkpt>
      <trkpt lat="43.50131" lon="6.64412">
        <ele>70</ele>
        <time>2023-03-04T07:14:53.000Z</time>
      </trkpt>
      <trkpt lat="43.50131" lon="6.64412">
        <ele>70</ele>
        <time>2023-03-04T07:14:54.000Z</time>
      </trkpt>
      <trkpt lat="43.50131" lon="6.64412">
        <ele>70</ele>
        <time>2023-03-04T07:14:55.000Z</time>
      </trkpt>
      <trkpt lat="43.50131" lon="6.64412">
        <ele>70</ele>
        <time>2023-03-04T07:14:56.000Z</time>
      </trkpt>
      <trkpt lat="43.50131" lon="6.64412">
        <ele>70</ele>
        <time>2023-03-04T07:14:57.000Z</time>
      </trkpt>
      <trkpt lat="43.50131" lon="6.64412">
        <ele>70</ele>
        <time>2023-03-04T07:14:58.000Z</time>
      </trkpt>
      <trkpt lat="43.50131" lon="6.64412">
        <ele>70</ele>
        <time>2023-03-04T07:14:59.000Z</time>
      </trkpt>
      <trkpt lat="43.50131" lon="6.64412">
        <ele>70</ele>
        <time>2023-03-04T07:15:00.000Z</time>
      </trkpt>
      <trkpt lat="43.50131" lon="6.64412">
        <ele>70</ele>
        <time>2023-03-04T07:15:01.000Z</time>
      </trkpt>
      <trkpt lat="43.50131" lon="6.64412">
        <ele>70</ele>
        <time>2023-03-04T07:15:02.000Z</time>
      </trkpt>
      <trkpt lat="43.50131" lon="6.64412">
        <ele>70</ele>
        <time>2023-03-04T07:15:03.000Z</time>
      </trkpt>
      <trkpt lat="43.50131" lon="6.64413">
        <ele>70</ele>
        <time>2023-03-04T07:15:04.000Z</time>
      </trkpt>
      <trkpt lat="43.50131" lon="6.64413">
        <ele>70</ele>
        <time>2023-03-04T07:15:05.000Z</time>
      </trkpt>
      <trkpt lat="43.50131" lon="6.64413">
        <ele>70</ele>
        <time>2023-03-04T07:15:06.000Z</time>
      </trkpt>
      <trkpt lat="43.50131" lon="6.64413">
        <ele>70</ele>
        <time>2023-03-04T07:15:07.000Z</time>
      </trkpt>
      <trkpt lat="43.50131" lon="6.64413">
        <ele>70</ele>
        <time>2023-03-04T07:15:08.000Z</time>
      </trkpt>
      <trkpt lat="43.50131" lon="6.64413">
        <ele>70</ele>
        <time>2023-03-04T07:15:09.000Z</time>
      </trkpt>
      <trkpt lat="43.50131" lon="6.64413">
        <ele>70</ele>
        <time>2023-03-04T07:15:10.000Z</time>
      </trkpt>
      <trkpt lat="43.50131" lon="6.64413">
        <ele>70</ele>
        <time>2023-03-04T07:15:11.000Z</time>
      </trkpt>
      <trkpt lat="43.50131" lon="6.64413">
        <ele>70</ele>
        <time>2023-03-04T07:15:12.000Z</time>
      </trkpt>
      <trkpt lat="43.50131" lon="6.64413">
        <ele>70</ele>
        <time>2023-03-04T07:15:13.000Z</time>
      </trkpt>
      <trkpt lat="43.50131" lon="6.64413">
        <ele>70</ele>
        <time>2023-03-04T07:15:14.000Z</time>
      </trkpt>
      <trkpt lat="43.50131" lon="6.64413">
        <ele>70</ele>
        <time>2023-03-04T07:15:15.000Z</time>
      </trkpt>
      <trkpt lat="43.50131" lon="6.64413">
        <ele>70</ele>
        <time>2023-03-04T07:15:16.000Z</time>
      </trkpt>
      <trkpt lat="43.50131" lon="6.64413">
        <ele>70</ele>
        <time>2023-03-04T07:15:17.000Z</time>
      </trkpt>
      <trkpt lat="43.50131" lon="6.64413">
        <ele>70</ele>
        <time>2023-03-04T07:15:18.000Z</time>
      </trkpt>
      <trkpt lat="43.50131" lon="6.64413">
        <ele>70</ele>
        <time>2023-03-04T07:15:19.000Z</time>
      </trkpt>
      <trkpt lat="43.50131" lon="6.64413">
        <ele>70</ele>
        <time>2023-03-04T07:15:20.000Z</time>
      </trkpt>
      <trkpt lat="43.50131" lon="6.64413">
        <ele>70</ele>
        <time>2023-03-04T07:15:21.000Z</time>
      </trkpt>
      <trkpt lat="43.50131" lon="6.64413">
        <ele>70</ele>
        <time>2023-03-04T07:15:22.000Z</time>
      </trkpt>
      <trkpt lat="43.50131" lon="6.64413">
        <ele>70</ele>
        <time>2023-03-04T07:15:23.000Z</time>
      </trkpt>
      <trkpt lat="43.50131" lon="6.64413">
        <ele>70</ele>
        <time>2023-03-04T07:15:24.000Z</time>
      </trkpt>
      <trkpt lat="43.50131" lon="6.64413">
        <ele>70</ele>
        <time>2023-03-04T07:15:25.000Z</time>
      </trkpt>
      <trkpt lat="43.50131" lon="6.64413">
        <ele>70</ele>
        <time>2023-03-04T07:15:26.000Z</time>
      </trkpt>
      <trkpt lat="43.50131" lon="6.64413">
        <ele>70</ele>
        <time>2023-03-04T07:15:27.000Z</time>
      </trkpt>
      <trkpt lat="43.50131" lon="6.64413">
        <ele>70</ele>
        <time>2023-03-04T07:15:28.000Z</time>
      </trkpt>
      <trkpt lat="43.50131" lon="6.64413">
        <ele>70</ele>
        <time>2023-03-04T07:15:29.000Z</time>
      </trkpt>
      <trkpt lat="43.50131" lon="6.64413">
        <ele>70</ele>
        <time>2023-03-04T07:15:31.000Z</time>
      </trkpt>
      <trkpt lat="43.50131" lon="6.64413">
        <ele>70</ele>
        <time>2023-03-04T07:15:32.000Z</time>
      </trkpt>
      <trkpt lat="43.50131" lon="6.64413">
        <ele>70</ele>
        <time>2023-03-04T07:15:33.000Z</time>
      </trkpt>
      <trkpt lat="43.50131" lon="6.64413">
        <ele>70</ele>
        <time>2023-03-04T07:15:35.000Z</time>
      </trkpt>
      <trkpt lat="43.50131" lon="6.64413">
        <ele>70</ele>
        <time>2023-03-04T07:15:48.000Z</time>
      </trkpt>
      <trkpt lat="43.50131" lon="6.64413">
        <ele>70</ele>
        <time>2023-03-04T07:15:50.000Z</time>
      </trkpt>
      <trkpt lat="43.50131" lon="6.64413">
        <ele>70</ele>
        <time>2023-03-04T07:15:51.000Z</time>
      </trkpt>
      <trkpt lat="43.50134" lon="6.64417">
        <ele>70</ele>
        <time>2023-03-04T07:15:52.000Z</time>
      </trkpt>
      <trkpt lat="43.50135" lon="6.64418">
        <ele>70</ele>
        <time>2023-03-04T07:15:53.000Z</time>
      </trkpt>
      <trkpt lat="43.50137" lon="6.64421">
        <ele>69.9</ele>
        <time>2023-03-04T07:15:54.000Z</time>
      </trkpt>
      <trkpt lat="43.50139" lon="6.64424">
        <ele>69.7</ele>
        <time>2023-03-04T07:15:55.000Z</time>
      </trkpt>
      <trkpt lat="43.50142" lon="6.64428">
        <ele>69.5</ele>
        <time>2023-03-04T07:15:57.000Z</time>
      </trkpt>
      <trkpt lat="43.50144" lon="6.64431">
        <ele>69.3</ele>
        <time>2023-03-04T07:15:58.000Z</time>
      </trkpt>
      <trkpt lat="43.50148" lon="6.64433">
        <ele>69.1</ele>
        <time>2023-03-04T07:15:59.000Z</time>
      </trkpt>
      <trkpt lat="43.50152" lon="6.64436">
        <ele>68.9</ele>
        <time>2023-03-04T07:16:00.000Z</time>
      </trkpt>
      <trkpt lat="43.50157" lon="6.64437">
        <ele>68.6</ele>
        <time>2023-03-04T07:16:01.000Z</time>
      </trkpt>
      <trkpt lat="43.50163" lon="6.64438">
        <ele>68.3</ele>
        <time>2023-03-04T07:16:02.000Z</time>
      </trkpt>
      <trkpt lat="43.50168" lon="6.64441">
        <ele>68.1</ele>
        <time>2023-03-04T07:16:03.000Z</time>
      </trkpt>
      <trkpt lat="43.50173" lon="6.64443">
        <ele>67.8</ele>
        <time>2023-03-04T07:16:04.000Z</time>
      </trkpt>
      <trkpt lat="43.50177" lon="6.64446">
        <ele>67.6</ele>
        <time>2023-03-04T07:16:05.000Z</time>
      </trkpt>
      <trkpt lat="43.50182" lon="6.64448">
        <ele>67.4</ele>
        <time>2023-03-04T07:16:06.000Z</time>
      </trkpt>
      <trkpt lat="43.50187" lon="6.64451">
        <ele>67.2</ele>
        <time>2023-03-04T07:16:07.000Z</time>
      </trkpt>
      <trkpt lat="43.50192" lon="6.64454">
        <ele>67.1</ele>
        <time>2023-03-04T07:16:08.000Z</time>
      </trkpt>
      <trkpt lat="43.50197" lon="6.64456">
        <ele>66.9</ele>
        <time>2023-03-04T07:16:09.000Z</time>
      </trkpt>
      <trkpt lat="43.50202" lon="6.64459">
        <ele>66.8</ele>
        <time>2023-03-04T07:16:10.000Z</time>
      </trkpt>
      <trkpt lat="43.50207" lon="6.64462">
        <ele>66.6</ele>
        <time>2023-03-04T07:16:11.000Z</time>
      </trkpt>
      <trkpt lat="43.50212" lon="6.64465">
        <ele>66.5</ele>
        <time>2023-03-04T07:16:12.000Z</time>
      </trkpt>
      <trkpt lat="43.50217" lon="6.64468">
        <ele>66.4</ele>
        <time>2023-03-04T07:16:13.000Z</time>
      </trkpt>
      <trkpt lat="43.50222" lon="6.64471">
        <ele>66.4</ele>
        <time>2023-03-04T07:16:14.000Z</time>
      </trkpt>
      <trkpt lat="43.50227" lon="6.64473">
        <ele>66.3</ele>
        <time>2023-03-04T07:16:15.000Z</time>
      </trkpt>
      <trkpt lat="43.50232" lon="6.64476">
        <ele>66.3</ele>
        <time>2023-03-04T07:16:16.000Z</time>
      </trkpt>
      <trkpt lat="43.50236" lon="6.64478">
        <ele>66.3</ele>
        <time>2023-03-04T07:16:17.000Z</time>
      </trkpt>
      <trkpt lat="43.5024" lon="6.6448">
        <ele>66.3</ele>
        <time>2023-03-04T07:16:18.000Z</time>
      </trkpt>
      <trkpt lat="43.50245" lon="6.64483">
        <ele>66.3</ele>
        <time>2023-03-04T07:16:19.000Z</time>
      </trkpt>
      <trkpt lat="43.50249" lon="6.64485">
        <ele>66.3</ele>
        <time>2023-03-04T07:16:20.000Z</time>
      </trkpt>
      <trkpt lat="43.50252" lon="6.64486">
        <ele>66.4</ele>
        <time>2023-03-04T07:16:21.000Z</time>
      </trkpt>
      <trkpt lat="43.50255" lon="6.64488">
        <ele>66.4</ele>
        <time>2023-03-04T07:16:22.000Z</time>
      </trkpt>
      <trkpt lat="43.50259" lon="6.6449">
        <ele>66.5</ele>
        <time>2023-03-04T07:16:23.000Z</time>
      </trkpt>
      <trkpt lat="43.50263" lon="6.64492">
        <ele>66.6</ele>
        <time>2023-03-04T07:16:24.000Z</time>
      </trkpt>
      <trkpt lat="43.50268" lon="6.64494">
        <ele>66.8</ele>
        <time>2023-03-04T07:16:25.000Z</time>
      </trkpt>
      <trkpt lat="43.50272" lon="6.64496">
        <ele>66.9</ele>
        <time>2023-03-04T07:16:26.000Z</time>
      </trkpt>
      <trkpt lat="43.50279" lon="6.64497">
        <ele>67.2</ele>
        <time>2023-03-04T07:16:28.000Z</time>
      </trkpt>
      <trkpt lat="43.50283" lon="6.64499">
        <ele>67.3</ele>
        <time>2023-03-04T07:16:29.000Z</time>
      </trkpt>
      <trkpt lat="43.50287" lon="6.64502">
        <ele>67.5</ele>
        <time>2023-03-04T07:16:30.000Z</time>
      </trkpt>
      <trkpt lat="43.50291" lon="6.64505">
        <ele>67.6</ele>
        <time>2023-03-04T07:16:31.000Z</time>
      </trkpt>
      <trkpt lat="43.50294" lon="6.64507">
        <ele>67.8</ele>
        <time>2023-03-04T07:16:32.000Z</time>
      </trkpt>
      <trkpt lat="43.50299" lon="6.64509">
        <ele>68</ele>
        <time>2023-03-04T07:16:34.000Z</time>
      </trkpt>
      <trkpt lat="43.50303" lon="6.64512">
        <ele>68.1</ele>
        <time>2023-03-04T07:16:35.000Z</time>
      </trkpt>
      <trkpt lat="43.50308" lon="6.64515">
        <ele>68.3</ele>
        <time>2023-03-04T07:16:36.000Z</time>
      </trkpt>
      <trkpt lat="43.50313" lon="6.64518">
        <ele>68.5</ele>
        <time>2023-03-04T07:16:38.000Z</time>
      </trkpt>
      <trkpt lat="43.50317" lon="6.6452">
        <ele>68.7</ele>
        <time>2023-03-04T07:16:39.000Z</time>
      </trkpt>
      <trkpt lat="43.50322" lon="6.64523">
        <ele>68.9</ele>
        <time>2023-03-04T07:16:40.000Z</time>
      </trkpt>
      <trkpt lat="43.50326" lon="6.64525">
        <ele>69</ele>
        <time>2023-03-04T07:16:41.000Z</time>
      </trkpt>
      <trkpt lat="43.50329" lon="6.64527">
        <ele>69.1</ele>
        <time>2023-03-04T07:16:42.000Z</time>
      </trkpt>
      <trkpt lat="43.50333" lon="6.64529">
        <ele>69.2</ele>
        <time>2023-03-04T07:16:43.000Z</time>
      </trkpt>
      <trkpt lat="43.50336" lon="6.64531">
        <ele>69.3</ele>
        <time>2023-03-04T07:16:44.000Z</time>
      </trkpt>
      <trkpt lat="43.50342" lon="6.64535">
        <ele>69.5</ele>
        <time>2023-03-04T07:16:46.000Z</time>
      </trkpt>
      <trkpt lat="43.50347" lon="6.64537">
        <ele>69.7</ele>
        <time>2023-03-04T07:16:47.000Z</time>
      </trkpt>
      <trkpt lat="43.50351" lon="6.6454">
        <ele>69.8</ele>
        <time>2023-03-04T07:16:48.000Z</time>
      </trkpt>
      <trkpt lat="43.50354" lon="6.64542">
        <ele>70</ele>
        <time>2023-03-04T07:16:49.000Z</time>
      </trkpt>
      <trkpt lat="43.50358" lon="6.64544">
        <ele>70.1</ele>
        <time>2023-03-04T07:16:51.000Z</time>
      </trkpt>
      <trkpt lat="43.50364" lon="6.64548">
        <ele>70.3</ele>
        <time>2023-03-04T07:16:52.000Z</time>
      </trkpt>
      <trkpt lat="43.50368" lon="6.6455">
        <ele>70.4</ele>
        <time>2023-03-04T07:16:53.000Z</time>
      </trkpt>
      <trkpt lat="43.50374" lon="6.64554">
        <ele>70.6</ele>
        <time>2023-03-04T07:16:55.000Z</time>
      </trkpt>
      <trkpt lat="43.50381" lon="6.64558">
        <ele>70.8</ele>
        <time>2023-03-04T07:16:57.000Z</time>
      </trkpt>
      <trkpt lat="43.50385" lon="6.64561">
        <ele>70.9</ele>
        <time>2023-03-04T07:16:58.000Z</time>
      </trkpt>
      <trkpt lat="43.50388" lon="6.64563">
        <ele>71</ele>
        <time>2023-03-04T07:16:59.000Z</time>
      </trkpt>
      <trkpt lat="43.50392" lon="6.64565">
        <ele>71.2</ele>
        <time>2023-03-04T07:17:00.000Z</time>
      </trkpt>
      <trkpt lat="43.50398" lon="6.64569">
        <ele>71.4</ele>
        <time>2023-03-04T07:17:02.000Z</time>
      </trkpt>
      <trkpt lat="43.50404" lon="6.64573">
        <ele>71.6</ele>
        <time>2023-03-04T07:17:04.000Z</time>
      </trkpt>
      <trkpt lat="43.50408" lon="6.64576">
        <ele>71.8</ele>
        <time>2023-03-04T07:17:05.000Z</time>
      </trkpt>
      <trkpt lat="43.50411" lon="6.64578">
        <ele>71.9</ele>
        <time>2023-03-04T07:17:06.000Z</time>
      </trkpt>
      <trkpt lat="43.50415" lon="6.64581">
        <ele>72.1</ele>
        <time>2023-03-04T07:17:08.000Z</time>
      </trkpt>
      <trkpt lat="43.5042" lon="6.64585">
        <ele>72.4</ele>
        <time>2023-03-04T07:17:09.000Z</time>
      </trkpt>
      <trkpt lat="43.50425" lon="6.64589">
        <ele>72.6</ele>
        <time>2023-03-04T07:17:10.000Z</time>
      </trkpt>
      <trkpt lat="43.50428" lon="6.64592">
        <ele>72.7</ele>
        <time>2023-03-04T07:17:11.000Z</time>
      </trkpt>
      <trkpt lat="43.50433" lon="6.64596">
        <ele>72.9</ele>
        <time>2023-03-04T07:17:13.000Z</time>
      </trkpt>
      <trkpt lat="43.50438" lon="6.64599">
        <ele>73.2</ele>
        <time>2023-03-04T07:17:14.000Z</time>
      </trkpt>
      <trkpt lat="43.50442" lon="6.64602">
        <ele>73.3</ele>
        <time>2023-03-04T07:17:15.000Z</time>
      </trkpt>
      <trkpt lat="43.50446" lon="6.64606">
        <ele>73.6</ele>
        <time>2023-03-04T07:17:16.000Z</time>
      </trkpt>
      <trkpt lat="43.5045" lon="6.64608">
        <ele>73.8</ele>
        <time>2023-03-04T07:17:17.000Z</time>
      </trkpt>
      <trkpt lat="43.50454" lon="6.64611">
        <ele>74.1</ele>
        <time>2023-03-04T07:17:18.000Z</time>
      </trkpt>
      <trkpt lat="43.50457" lon="6.64614">
        <ele>74.3</ele>
        <time>2023-03-04T07:17:19.000Z</time>
      </trkpt>
      <trkpt lat="43.50462" lon="6.64619">
        <ele>74.6</ele>
        <time>2023-03-04T07:17:21.000Z</time>
      </trkpt>
      <trkpt lat="43.50465" lon="6.64621">
        <ele>74.8</ele>
        <time>2023-03-04T07:17:22.000Z</time>
      </trkpt>
      <trkpt lat="43.50469" lon="6.64625">
        <ele>75.1</ele>
        <time>2023-03-04T07:17:23.000Z</time>
      </trkpt>
      <trkpt lat="43.50473" lon="6.64628">
        <ele>75.3</ele>
        <time>2023-03-04T07:17:24.000Z</time>
      </trkpt>
      <trkpt lat="43.50476" lon="6.64631">
        <ele>75.6</ele>
        <time>2023-03-04T07:17:25.000Z</time>
      </trkpt>
      <trkpt lat="43.5048" lon="6.64634">
        <ele>75.8</ele>
        <time>2023-03-04T07:17:26.000Z</time>
      </trkpt>
      <trkpt lat="43.50483" lon="6.64637">
        <ele>76</ele>
        <time>2023-03-04T07:17:27.000Z</time>
      </trkpt>
      <trkpt lat="43.50487" lon="6.64641">
        <ele>76.3</ele>
        <time>2023-03-04T07:17:29.000Z</time>
      </trkpt>
      <trkpt lat="43.5049" lon="6.64643">
        <ele>76.6</ele>
        <time>2023-03-04T07:17:30.000Z</time>
      </trkpt>
      <trkpt lat="43.50495" lon="6.64647">
        <ele>76.9</ele>
        <time>2023-03-04T07:17:31.000Z</time>
      </trkpt>
      <trkpt lat="43.50499" lon="6.6465">
        <ele>77.2</ele>
        <time>2023-03-04T07:17:32.000Z</time>
      </trkpt>
      <trkpt lat="43.50503" lon="6.64651">
        <ele>77.4</ele>
        <time>2023-03-04T07:17:33.000Z</time>
      </trkpt>
      <trkpt lat="43.50507" lon="6.64653">
        <ele>77.7</ele>
        <time>2023-03-04T07:17:34.000Z</time>
      </trkpt>
      <trkpt lat="43.50511" lon="6.64653">
        <ele>77.9</ele>
        <time>2023-03-04T07:17:35.000Z</time>
      </trkpt>
      <trkpt lat="43.50515" lon="6.64654">
        <ele>78.2</ele>
        <time>2023-03-04T07:17:37.000Z</time>
      </trkpt>
      <trkpt lat="43.50519" lon="6.64655">
        <ele>78.5</ele>
        <time>2023-03-04T07:17:38.000Z</time>
      </trkpt>
      <trkpt lat="43.50523" lon="6.64656">
        <ele>78.8</ele>
        <time>2023-03-04T07:17:39.000Z</time>
      </trkpt>
      <trkpt lat="43.50527" lon="6.64657">
        <ele>79</ele>
        <time>2023-03-04T07:17:40.000Z</time>
      </trkpt>
      <trkpt lat="43.50531" lon="6.64657">
        <ele>79.2</ele>
        <time>2023-03-04T07:17:41.000Z</time>
      </trkpt>
      <trkpt lat="43.50535" lon="6.64658">
        <ele>79.4</ele>
        <time>2023-03-04T07:17:43.000Z</time>
      </trkpt>
      <trkpt lat="43.50539" lon="6.64659">
        <ele>79.6</ele>
        <time>2023-03-04T07:17:44.000Z</time>
      </trkpt>
      <trkpt lat="43.50545" lon="6.64661">
        <ele>79.9</ele>
        <time>2023-03-04T07:17:45.000Z</time>
      </trkpt>
      <trkpt lat="43.50548" lon="6.64662">
        <ele>80</ele>
        <time>2023-03-04T07:17:46.000Z</time>
      </trkpt>
      <trkpt lat="43.50552" lon="6.64665">
        <ele>80.2</ele>
        <time>2023-03-04T07:17:47.000Z</time>
      </trkpt>
      <trkpt lat="43.50556" lon="6.64667">
        <ele>80.3</ele>
        <time>2023-03-04T07:17:48.000Z</time>
      </trkpt>
      <trkpt lat="43.50559" lon="6.6467">
        <ele>80.4</ele>
        <time>2023-03-04T07:17:49.000Z</time>
      </trkpt>
      <trkpt lat="43.50564" lon="6.64674">
        <ele>80.5</ele>
        <time>2023-03-04T07:17:51.000Z</time>
      </trkpt>
      <trkpt lat="43.50567" lon="6.64677">
        <ele>80.6</ele>
        <time>2023-03-04T07:17:52.000Z</time>
      </trkpt>
      <trkpt lat="43.50571" lon="6.64682">
        <ele>80.8</ele>
        <time>2023-03-04T07:17:53.000Z</time>
      </trkpt>
      <trkpt lat="43.50574" lon="6.64687">
        <ele>80.9</ele>
        <time>2023-03-04T07:17:54.000Z</time>
      </trkpt>
      <trkpt lat="43.50577" lon="6.64691">
        <ele>81</ele>
        <time>2023-03-04T07:17:55.000Z</time>
      </trkpt>
      <trkpt lat="43.50581" lon="6.64699">
        <ele>81.1</ele>
        <time>2023-03-04T07:17:57.000Z</time>
      </trkpt>
      <trkpt lat="43.50583" lon="6.64704">
        <ele>81.3</ele>
        <time>2023-03-04T07:17:58.000Z</time>
      </trkpt>
      <trkpt lat="43.50585" lon="6.64708">
        <ele>81.4</ele>
        <time>2023-03-04T07:17:59.000Z</time>
      </trkpt>
      <trkpt lat="43.50587" lon="6.64715">
        <ele>81.4</ele>
        <time>2023-03-04T07:18:01.000Z</time>
      </trkpt>
      <trkpt lat="43.50589" lon="6.64721">
        <ele>81.5</ele>
        <time>2023-03-04T07:18:02.000Z</time>
      </trkpt>
      <trkpt lat="43.50591" lon="6.64727">
        <ele>81.6</ele>
        <time>2023-03-04T07:18:03.000Z</time>
      </trkpt>
      <trkpt lat="43.50592" lon="6.64733">
        <ele>81.6</ele>
        <time>2023-03-04T07:18:04.000Z</time>
      </trkpt>
      <trkpt lat="43.50593" lon="6.6474">
        <ele>81.7</ele>
        <time>2023-03-04T07:18:05.000Z</time>
      </trkpt>
      <trkpt lat="43.50593" lon="6.64746">
        <ele>81.7</ele>
        <time>2023-03-04T07:18:06.000Z</time>
      </trkpt>
      <trkpt lat="43.50594" lon="6.64753">
        <ele>81.7</ele>
        <time>2023-03-04T07:18:08.000Z</time>
      </trkpt>
      <trkpt lat="43.50594" lon="6.64761">
        <ele>81.7</ele>
        <time>2023-03-04T07:18:09.000Z</time>
      </trkpt>
      <trkpt lat="43.50594" lon="6.64768">
        <ele>81.7</ele>
        <time>2023-03-04T07:18:10.000Z</time>
      </trkpt>
      <trkpt lat="43.50594" lon="6.64776">
        <ele>81.7</ele>
        <time>2023-03-04T07:18:11.000Z</time>
      </trkpt>
      <trkpt lat="43.50593" lon="6.64782">
        <ele>81.7</ele>
        <time>2023-03-04T07:18:12.000Z</time>
      </trkpt>
      <trkpt lat="43.50592" lon="6.64789">
        <ele>81.7</ele>
        <time>2023-03-04T07:18:13.000Z</time>
      </trkpt>
      <trkpt lat="43.50592" lon="6.64797">
        <ele>81.8</ele>
        <time>2023-03-04T07:18:15.000Z</time>
      </trkpt>
      <trkpt lat="43.50591" lon="6.64804">
        <ele>81.8</ele>
        <time>2023-03-04T07:18:16.000Z</time>
      </trkpt>
      <trkpt lat="43.50591" lon="6.64812">
        <ele>81.9</ele>
        <time>2023-03-04T07:18:17.000Z</time>
      </trkpt>
      <trkpt lat="43.5059" lon="6.64818">
        <ele>81.9</ele>
        <time>2023-03-04T07:18:18.000Z</time>
      </trkpt>
      <trkpt lat="43.5059" lon="6.64824">
        <ele>82</ele>
        <time>2023-03-04T07:18:19.000Z</time>
      </trkpt>
      <trkpt lat="43.50589" lon="6.64831">
        <ele>82.1</ele>
        <time>2023-03-04T07:18:20.000Z</time>
      </trkpt>
      <trkpt lat="43.50589" lon="6.64838">
        <ele>82.2</ele>
        <time>2023-03-04T07:18:21.000Z</time>
      </trkpt>
      <trkpt lat="43.50588" lon="6.64845">
        <ele>82.4</ele>
        <time>2023-03-04T07:18:23.000Z</time>
      </trkpt>
      <trkpt lat="43.50588" lon="6.64852">
        <ele>82.5</ele>
        <time>2023-03-04T07:18:24.000Z</time>
      </trkpt>
      <trkpt lat="43.50587" lon="6.64858">
        <ele>82.7</ele>
        <time>2023-03-04T07:18:25.000Z</time>
      </trkpt>
      <trkpt lat="43.50587" lon="6.64863">
        <ele>82.9</ele>
        <time>2023-03-04T07:18:26.000Z</time>
      </trkpt>
      <trkpt lat="43.50586" lon="6.64868">
        <ele>83</ele>
        <time>2023-03-04T07:18:27.000Z</time>
      </trkpt>
      <trkpt lat="43.50586" lon="6.64874">
        <ele>83.2</ele>
        <time>2023-03-04T07:18:28.000Z</time>
      </trkpt>
      <trkpt lat="43.50585" lon="6.6488">
        <ele>83.4</ele>
        <time>2023-03-04T07:18:30.000Z</time>
      </trkpt>
      <trkpt lat="43.50585" lon="6.64887">
        <ele>83.7</ele>
        <time>2023-03-04T07:18:31.000Z</time>
      </trkpt>
      <trkpt lat="43.50585" lon="6.64892">
        <ele>83.9</ele>
        <time>2023-03-04T07:18:32.000Z</time>
      </trkpt>
      <trkpt lat="43.50585" lon="6.64897">
        <ele>84.1</ele>
        <time>2023-03-04T07:18:33.000Z</time>
      </trkpt>
      <trkpt lat="43.50584" lon="6.64902">
        <ele>84.3</ele>
        <time>2023-03-04T07:18:34.000Z</time>
      </trkpt>
      <trkpt lat="43.50584" lon="6.64907">
        <ele>84.5</ele>
        <time>2023-03-04T07:18:36.000Z</time>
      </trkpt>
      <trkpt lat="43.50584" lon="6.64914">
        <ele>84.8</ele>
        <time>2023-03-04T07:18:37.000Z</time>
      </trkpt>
      <trkpt lat="43.50585" lon="6.6492">
        <ele>85.1</ele>
        <time>2023-03-04T07:18:38.000Z</time>
      </trkpt>
      <trkpt lat="43.50585" lon="6.64924">
        <ele>85.3</ele>
        <time>2023-03-04T07:18:39.000Z</time>
      </trkpt>
      <trkpt lat="43.50586" lon="6.64929">
        <ele>85.5</ele>
        <time>2023-03-04T07:18:40.000Z</time>
      </trkpt>
      <trkpt lat="43.50587" lon="6.64934">
        <ele>85.7</ele>
        <time>2023-03-04T07:18:41.000Z</time>
      </trkpt>
      <trkpt lat="43.50588" lon="6.6494">
        <ele>85.9</ele>
        <time>2023-03-04T07:18:43.000Z</time>
      </trkpt>
      <trkpt lat="43.50589" lon="6.64945">
        <ele>86.1</ele>
        <time>2023-03-04T07:18:44.000Z</time>
      </trkpt>
      <trkpt lat="43.50589" lon="6.64951">
        <ele>86.3</ele>
        <time>2023-03-04T07:18:45.000Z</time>
      </trkpt>
      <trkpt lat="43.50589" lon="6.64955">
        <ele>86.5</ele>
        <time>2023-03-04T07:18:46.000Z</time>
      </trkpt>
      <trkpt lat="43.5059" lon="6.64961">
        <ele>86.8</ele>
        <time>2023-03-04T07:18:47.000Z</time>
      </trkpt>
      <trkpt lat="43.50591" lon="6.64966">
        <ele>86.9</ele>
        <time>2023-03-04T07:18:48.000Z</time>
      </trkpt>
      <trkpt lat="43.50592" lon="6.64973">
        <ele>87.2</ele>
        <time>2023-03-04T07:18:50.000Z</time>
      </trkpt>
      <trkpt lat="43.50593" lon="6.64977">
        <ele>87.3</ele>
        <time>2023-03-04T07:18:51.000Z</time>
      </trkpt>
      <trkpt lat="43.50594" lon="6.64983">
        <ele>87.5</ele>
        <time>2023-03-04T07:18:52.000Z</time>
      </trkpt>
      <trkpt lat="43.50596" lon="6.64989">
        <ele>87.7</ele>
        <time>2023-03-04T07:18:53.000Z</time>
      </trkpt>
      <trkpt lat="43.50597" lon="6.64994">
        <ele>87.9</ele>
        <time>2023-03-04T07:18:54.000Z</time>
      </trkpt>
      <trkpt lat="43.50598" lon="6.64999">
        <ele>88.1</ele>
        <time>2023-03-04T07:18:55.000Z</time>
      </trkpt>
      <trkpt lat="43.506" lon="6.65004">
        <ele>88.3</ele>
        <time>2023-03-04T07:18:56.000Z</time>
      </trkpt>
      <trkpt lat="43.50601" lon="6.6501">
        <ele>88.5</ele>
        <time>2023-03-04T07:18:58.000Z</time>
      </trkpt>
      <trkpt lat="43.50603" lon="6.65016">
        <ele>88.6</ele>
        <time>2023-03-04T07:18:59.000Z</time>
      </trkpt>
      <trkpt lat="43.50604" lon="6.65021">
        <ele>88.8</ele>
        <time>2023-03-04T07:19:00.000Z</time>
      </trkpt>
      <trkpt lat="43.50606" lon="6.65026">
        <ele>89</ele>
        <time>2023-03-04T07:19:01.000Z</time>
      </trkpt>
      <trkpt lat="43.50608" lon="6.65031">
        <ele>89.1</ele>
        <time>2023-03-04T07:19:02.000Z</time>
      </trkpt>
      <trkpt lat="43.5061" lon="6.65036">
        <ele>89.3</ele>
        <time>2023-03-04T07:19:03.000Z</time>
      </trkpt>
      <trkpt lat="43.50612" lon="6.65041">
        <ele>89.4</ele>
        <time>2023-03-04T07:19:04.000Z</time>
      </trkpt>
      <trkpt lat="43.50614" lon="6.65046">
        <ele>89.5</ele>
        <time>2023-03-04T07:19:05.000Z</time>
      </trkpt>
      <trkpt lat="43.50617" lon="6.65051">
        <ele>89.7</ele>
        <time>2023-03-04T07:19:07.000Z</time>
      </trkpt>
      <trkpt lat="43.5062" lon="6.65057">
        <ele>89.8</ele>
        <time>2023-03-04T07:19:08.000Z</time>
      </trkpt>
      <trkpt lat="43.50623" lon="6.65061">
        <ele>89.9</ele>
        <time>2023-03-04T07:19:09.000Z</time>
      </trkpt>
      <trkpt lat="43.50626" lon="6.65067">
        <ele>90.1</ele>
        <time>2023-03-04T07:19:10.000Z</time>
      </trkpt>
      <trkpt lat="43.50628" lon="6.65071">
        <ele>90.2</ele>
        <time>2023-03-04T07:19:11.000Z</time>
      </trkpt>
      <trkpt lat="43.50631" lon="6.65075">
        <ele>90.3</ele>
        <time>2023-03-04T07:19:12.000Z</time>
      </trkpt>
      <trkpt lat="43.50633" lon="6.65079">
        <ele>90.5</ele>
        <time>2023-03-04T07:19:14.000Z</time>
      </trkpt>
      <trkpt lat="43.50636" lon="6.65083">
        <ele>90.7</ele>
        <time>2023-03-04T07:19:15.000Z</time>
      </trkpt>
      <trkpt lat="43.50639" lon="6.65088">
        <ele>90.8</ele>
        <time>2023-03-04T07:19:16.000Z</time>
      </trkpt>
      <trkpt lat="43.50642" lon="6.65092">
        <ele>91</ele>
        <time>2023-03-04T07:19:17.000Z</time>
      </trkpt>
      <trkpt lat="43.50645" lon="6.65096">
        <ele>91.2</ele>
        <time>2023-03-04T07:19:18.000Z</time>
      </trkpt>
      <trkpt lat="43.50648" lon="6.651">
        <ele>91.3</ele>
        <time>2023-03-04T07:19:19.000Z</time>
      </trkpt>
      <trkpt lat="43.5065" lon="6.65104">
        <ele>91.4</ele>
        <time>2023-03-04T07:19:20.000Z</time>
      </trkpt>
      <trkpt lat="43.50654" lon="6.65111">
        <ele>91.6</ele>
        <time>2023-03-04T07:19:22.000Z</time>
      </trkpt>
      <trkpt lat="43.50657" lon="6.65115">
        <ele>91.8</ele>
        <time>2023-03-04T07:19:23.000Z</time>
      </trkpt>
      <trkpt lat="43.5066" lon="6.6512">
        <ele>91.9</ele>
        <time>2023-03-04T07:19:24.000Z</time>
      </trkpt>
      <trkpt lat="43.50662" lon="6.65124">
        <ele>92</ele>
        <time>2023-03-04T07:19:26.000Z</time>
      </trkpt>
      <trkpt lat="43.50665" lon="6.65129">
        <ele>92.1</ele>
        <time>2023-03-04T07:19:27.000Z</time>
      </trkpt>
      <trkpt lat="43.50668" lon="6.65134">
        <ele>92.3</ele>
        <time>2023-03-04T07:19:28.000Z</time>
      </trkpt>
      <trkpt lat="43.50671" lon="6.65138">
        <ele>92.4</ele>
        <time>2023-03-04T07:19:29.000Z</time>
      </trkpt>
      <trkpt lat="43.50674" lon="6.65142">
        <ele>92.5</ele>
        <time>2023-03-04T07:19:30.000Z</time>
      </trkpt>
      <trkpt lat="43.50677" lon="6.65146">
        <ele>92.6</ele>
        <time>2023-03-04T07:19:32.000Z</time>
      </trkpt>
      <trkpt lat="43.5068" lon="6.65151">
        <ele>92.8</ele>
        <time>2023-03-04T07:19:33.000Z</time>
      </trkpt>
      <trkpt lat="43.50683" lon="6.65155">
        <ele>92.9</ele>
        <time>2023-03-04T07:19:34.000Z</time>
      </trkpt>
      <trkpt lat="43.50685" lon="6.65158">
        <ele>93</ele>
        <time>2023-03-04T07:19:35.000Z</time>
      </trkpt>
      <trkpt lat="43.50688" lon="6.65161">
        <ele>93.1</ele>
        <time>2023-03-04T07:19:36.000Z</time>
      </trkpt>
      <trkpt lat="43.50691" lon="6.65164">
        <ele>93.1</ele>
        <time>2023-03-04T07:19:37.000Z</time>
      </trkpt>
      <trkpt lat="43.50694" lon="6.65167">
        <ele>93.2</ele>
        <time>2023-03-04T07:19:38.000Z</time>
      </trkpt>
      <trkpt lat="43.50697" lon="6.6517">
        <ele>93.3</ele>
        <time>2023-03-04T07:19:39.000Z</time>
      </trkpt>
      <trkpt lat="43.507" lon="6.65174">
        <ele>93.4</ele>
        <time>2023-03-04T07:19:41.000Z</time>
      </trkpt>
      <trkpt lat="43.50703" lon="6.65177">
        <ele>93.4</ele>
        <time>2023-03-04T07:19:42.000Z</time>
      </trkpt>
      <trkpt lat="43.50707" lon="6.65181">
        <ele>93.5</ele>
        <time>2023-03-04T07:19:43.000Z</time>
      </trkpt>
      <trkpt lat="43.5071" lon="6.65183">
        <ele>93.5</ele>
        <time>2023-03-04T07:19:44.000Z</time>
      </trkpt>
      <trkpt lat="43.50712" lon="6.65186">
        <ele>93.5</ele>
        <time>2023-03-04T07:19:45.000Z</time>
      </trkpt>
      <trkpt lat="43.50715" lon="6.65189">
        <ele>93.6</ele>
        <time>2023-03-04T07:19:46.000Z</time>
      </trkpt>
      <trkpt lat="43.50719" lon="6.65192">
        <ele>93.6</ele>
        <time>2023-03-04T07:19:47.000Z</time>
      </trkpt>
      <trkpt lat="43.50722" lon="6.65194">
        <ele>93.7</ele>
        <time>2023-03-04T07:19:48.000Z</time>
      </trkpt>
      <trkpt lat="43.50725" lon="6.65197">
        <ele>93.7</ele>
        <time>2023-03-04T07:19:49.000Z</time>
      </trkpt>
      <trkpt lat="43.50729" lon="6.652">
        <ele>93.7</ele>
        <time>2023-03-04T07:19:51.000Z</time>
      </trkpt>
      <trkpt lat="43.50732" lon="6.65203">
        <ele>93.7</ele>
        <time>2023-03-04T07:19:52.000Z</time>
      </trkpt>
      <trkpt lat="43.50736" lon="6.65205">
        <ele>93.7</ele>
        <time>2023-03-04T07:19:53.000Z</time>
      </trkpt>
      <trkpt lat="43.5074" lon="6.65208">
        <ele>93.7</ele>
        <time>2023-03-04T07:19:54.000Z</time>
      </trkpt>
      <trkpt lat="43.50743" lon="6.6521">
        <ele>93.6</ele>
        <time>2023-03-04T07:19:55.000Z</time>
      </trkpt>
      <trkpt lat="43.50746" lon="6.65212">
        <ele>93.6</ele>
        <time>2023-03-04T07:19:56.000Z</time>
      </trkpt>
      <trkpt lat="43.5075" lon="6.65215">
        <ele>93.6</ele>
        <time>2023-03-04T07:19:58.000Z</time>
      </trkpt>
      <trkpt lat="43.50752" lon="6.65217">
        <ele>93.5</ele>
        <time>2023-03-04T07:19:59.000Z</time>
      </trkpt>
      <trkpt lat="43.50755" lon="6.65221">
        <ele>93.5</ele>
        <time>2023-03-04T07:20:00.000Z</time>
      </trkpt>
      <trkpt lat="43.50758" lon="6.65224">
        <ele>93.4</ele>
        <time>2023-03-04T07:20:02.000Z</time>
      </trkpt>
      <trkpt lat="43.50759" lon="6.65225">
        <ele>93.4</ele>
        <time>2023-03-04T07:20:03.000Z</time>
      </trkpt>
      <trkpt lat="43.50762" lon="6.65226">
        <ele>93.3</ele>
        <time>2023-03-04T07:20:04.000Z</time>
      </trkpt>
      <trkpt lat="43.50765" lon="6.65227">
        <ele>93.2</ele>
        <time>2023-03-04T07:20:05.000Z</time>
      </trkpt>
      <trkpt lat="43.50768" lon="6.65228">
        <ele>93.1</ele>
        <time>2023-03-04T07:20:06.000Z</time>
      </trkpt>
      <trkpt lat="43.50772" lon="6.65228">
        <ele>93</ele>
        <time>2023-03-04T07:20:07.000Z</time>
      </trkpt>
      <trkpt lat="43.50777" lon="6.65228">
        <ele>92.9</ele>
        <time>2023-03-04T07:20:09.000Z</time>
      </trkpt>
      <trkpt lat="43.50782" lon="6.65229">
        <ele>92.7</ele>
        <time>2023-03-04T07:20:10.000Z</time>
      </trkpt>
      <trkpt lat="43.50786" lon="6.6523">
        <ele>92.6</ele>
        <time>2023-03-04T07:20:11.000Z</time>
      </trkpt>
      <trkpt lat="43.50791" lon="6.65232">
        <ele>92.4</ele>
        <time>2023-03-04T07:20:12.000Z</time>
      </trkpt>
      <trkpt lat="43.50795" lon="6.65234">
        <ele>92.3</ele>
        <time>2023-03-04T07:20:13.000Z</time>
      </trkpt>
      <trkpt lat="43.50801" lon="6.65236">
        <ele>92.2</ele>
        <time>2023-03-04T07:20:14.000Z</time>
      </trkpt>
      <trkpt lat="43.50805" lon="6.65239">
        <ele>92.1</ele>
        <time>2023-03-04T07:20:15.000Z</time>
      </trkpt>
      <trkpt lat="43.50811" lon="6.65241">
        <ele>92</ele>
        <time>2023-03-04T07:20:17.000Z</time>
      </trkpt>
      <trkpt lat="43.50819" lon="6.65244">
        <ele>92</ele>
        <time>2023-03-04T07:20:18.000Z</time>
      </trkpt>
      <trkpt lat="43.50823" lon="6.65246">
        <ele>92</ele>
        <time>2023-03-04T07:20:19.000Z</time>
      </trkpt>
      <trkpt lat="43.50827" lon="6.65248">
        <ele>92.1</ele>
        <time>2023-03-04T07:20:20.000Z</time>
      </trkpt>
      <trkpt lat="43.5083" lon="6.6525">
        <ele>92.1</ele>
        <time>2023-03-04T07:20:21.000Z</time>
      </trkpt>
      <trkpt lat="43.50835" lon="6.65252">
        <ele>92.3</ele>
        <time>2023-03-04T07:20:23.000Z</time>
      </trkpt>
      <trkpt lat="43.50842" lon="6.65255">
        <ele>92.5</ele>
        <time>2023-03-04T07:20:24.000Z</time>
      </trkpt>
      <trkpt lat="43.50846" lon="6.65258">
        <ele>92.7</ele>
        <time>2023-03-04T07:20:25.000Z</time>
      </trkpt>
      <trkpt lat="43.5085" lon="6.65261">
        <ele>93</ele>
        <time>2023-03-04T07:20:27.000Z</time>
      </trkpt>
      <trkpt lat="43.50855" lon="6.65266">
        <ele>93.4</ele>
        <time>2023-03-04T07:20:28.000Z</time>
      </trkpt>
      <trkpt lat="43.50859" lon="6.6527">
        <ele>93.6</ele>
        <time>2023-03-04T07:20:29.000Z</time>
      </trkpt>
      <trkpt lat="43.50861" lon="6.65275">
        <ele>93.9</ele>
        <time>2023-03-04T07:20:30.000Z</time>
      </trkpt>
      <trkpt lat="43.50864" lon="6.6528">
        <ele>94.2</ele>
        <time>2023-03-04T07:20:32.000Z</time>
      </trkpt>
      <trkpt lat="43.50867" lon="6.65285">
        <ele>94.5</ele>
        <time>2023-03-04T07:20:33.000Z</time>
      </trkpt>
      <trkpt lat="43.5087" lon="6.65289">
        <ele>94.8</ele>
        <time>2023-03-04T07:20:34.000Z</time>
      </trkpt>
      <trkpt lat="43.50872" lon="6.65293">
        <ele>95</ele>
        <time>2023-03-04T07:20:35.000Z</time>
      </trkpt>
      <trkpt lat="43.50875" lon="6.65297">
        <ele>95.3</ele>
        <time>2023-03-04T07:20:36.000Z</time>
      </trkpt>
      <trkpt lat="43.50877" lon="6.65301">
        <ele>95.6</ele>
        <time>2023-03-04T07:20:37.000Z</time>
      </trkpt>
      <trkpt lat="43.5088" lon="6.65306">
        <ele>95.9</ele>
        <time>2023-03-04T07:20:38.000Z</time>
      </trkpt>
      <trkpt lat="43.50883" lon="6.65311">
        <ele>96.2</ele>
        <time>2023-03-04T07:20:40.000Z</time>
      </trkpt>
      <trkpt lat="43.50886" lon="6.65315">
        <ele>96.5</ele>
        <time>2023-03-04T07:20:41.000Z</time>
      </trkpt>
      <trkpt lat="43.50889" lon="6.6532">
        <ele>96.9</ele>
        <time>2023-03-04T07:20:42.000Z</time>
      </trkpt>
      <trkpt lat="43.50891" lon="6.65324">
        <ele>97.2</ele>
        <time>2023-03-04T07:20:43.000Z</time>
      </trkpt>
      <trkpt lat="43.50894" lon="6.65328">
        <ele>97.5</ele>
        <time>2023-03-04T07:20:44.000Z</time>
      </trkpt>
      <trkpt lat="43.50897" lon="6.65333">
        <ele>97.8</ele>
        <time>2023-03-04T07:20:45.000Z</time>
      </trkpt>
      <trkpt lat="43.509" lon="6.65337">
        <ele>98.1</ele>
        <time>2023-03-04T07:20:47.000Z</time>
      </trkpt>
      <trkpt lat="43.50902" lon="6.65341">
        <ele>98.4</ele>
        <time>2023-03-04T07:20:48.000Z</time>
      </trkpt>
      <trkpt lat="43.50905" lon="6.65345">
        <ele>98.7</ele>
        <time>2023-03-04T07:20:49.000Z</time>
      </trkpt>
      <trkpt lat="43.50908" lon="6.65349">
        <ele>99</ele>
        <time>2023-03-04T07:20:50.000Z</time>
      </trkpt>
      <trkpt lat="43.50912" lon="6.65353">
        <ele>99.3</ele>
        <time>2023-03-04T07:20:51.000Z</time>
      </trkpt>
      <trkpt lat="43.50915" lon="6.65357">
        <ele>99.5</ele>
        <time>2023-03-04T07:20:52.000Z</time>
      </trkpt>
      <trkpt lat="43.50918" lon="6.65361">
        <ele>99.8</ele>
        <time>2023-03-04T07:20:54.000Z</time>
      </trkpt>
      <trkpt lat="43.50922" lon="6.65365">
        <ele>100</ele>
        <time>2023-03-04T07:20:55.000Z</time>
      </trkpt>
      <trkpt lat="43.50926" lon="6.65369">
        <ele>100.3</ele>
        <time>2023-03-04T07:20:56.000Z</time>
      </trkpt>
      <trkpt lat="43.50929" lon="6.65371">
        <ele>100.5</ele>
        <time>2023-03-04T07:20:57.000Z</time>
      </trkpt>
      <trkpt lat="43.50933" lon="6.65374">
        <ele>100.7</ele>
        <time>2023-03-04T07:20:58.000Z</time>
      </trkpt>
      <trkpt lat="43.50937" lon="6.65377">
        <ele>100.9</ele>
        <time>2023-03-04T07:20:59.000Z</time>
      </trkpt>
      <trkpt lat="43.50941" lon="6.65378">
        <ele>101</ele>
        <time>2023-03-04T07:21:00.000Z</time>
      </trkpt>
      <trkpt lat="43.50945" lon="6.6538">
        <ele>101.1</ele>
        <time>2023-03-04T07:21:01.000Z</time>
      </trkpt>
      <trkpt lat="43.5095" lon="6.65382">
        <ele>101.2</ele>
        <time>2023-03-04T07:21:03.000Z</time>
      </trkpt>
      <trkpt lat="43.50955" lon="6.65383">
        <ele>101.3</ele>
        <time>2023-03-04T07:21:04.000Z</time>
      </trkpt>
      <trkpt lat="43.5096" lon="6.65385">
        <ele>101.3</ele>
        <time>2023-03-04T07:21:05.000Z</time>
      </trkpt>
      <trkpt lat="43.50965" lon="6.65387">
        <ele>101.2</ele>
        <time>2023-03-04T07:21:06.000Z</time>
      </trkpt>
      <trkpt lat="43.5097" lon="6.65389">
        <ele>101.2</ele>
        <time>2023-03-04T07:21:07.000Z</time>
      </trkpt>
      <trkpt lat="43.50975" lon="6.65391">
        <ele>101.1</ele>
        <time>2023-03-04T07:21:08.000Z</time>
      </trkpt>
      <trkpt lat="43.50979" lon="6.65393">
        <ele>101.1</ele>
        <time>2023-03-04T07:21:09.000Z</time>
      </trkpt>
      <trkpt lat="43.50983" lon="6.65395">
        <ele>101</ele>
        <time>2023-03-04T07:21:10.000Z</time>
      </trkpt>
      <trkpt lat="43.50987" lon="6.65398">
        <ele>100.9</ele>
        <time>2023-03-04T07:21:11.000Z</time>
      </trkpt>
      <trkpt lat="43.50991" lon="6.65397">
        <ele>100.9</ele>
        <time>2023-03-04T07:21:13.000Z</time>
      </trkpt>
      <trkpt lat="43.50999" lon="6.65403">
        <ele>100.7</ele>
        <time>2023-03-04T07:21:14.000Z</time>
      </trkpt>
      <trkpt lat="43.51004" lon="6.65406">
        <ele>100.6</ele>
        <time>2023-03-04T07:21:15.000Z</time>
      </trkpt>
      <trkpt lat="43.51009" lon="6.65408">
        <ele>100.5</ele>
        <time>2023-03-04T07:21:16.000Z</time>
      </trkpt>
      <trkpt lat="43.51013" lon="6.6541">
        <ele>100.4</ele>
        <time>2023-03-04T07:21:17.000Z</time>
      </trkpt>
      <trkpt lat="43.51018" lon="6.65412">
        <ele>100.3</ele>
        <time>2023-03-04T07:21:18.000Z</time>
      </trkpt>
      <trkpt lat="43.51023" lon="6.65415">
        <ele>100.2</ele>
        <time>2023-03-04T07:21:19.000Z</time>
      </trkpt>
      <trkpt lat="43.51028" lon="6.65417">
        <ele>100.2</ele>
        <time>2023-03-04T07:21:20.000Z</time>
      </trkpt>
      <trkpt lat="43.51032" lon="6.65418">
        <ele>100.2</ele>
        <time>2023-03-04T07:21:21.000Z</time>
      </trkpt>
      <trkpt lat="43.51037" lon="6.6542">
        <ele>100.2</ele>
        <time>2023-03-04T07:21:22.000Z</time>
      </trkpt>
      <trkpt lat="43.51041" lon="6.65422">
        <ele>100.1</ele>
        <time>2023-03-04T07:21:23.000Z</time>
      </trkpt>
      <trkpt lat="43.51046" lon="6.65424">
        <ele>100.1</ele>
        <time>2023-03-04T07:21:24.000Z</time>
      </trkpt>
      <trkpt lat="43.5105" lon="6.65426">
        <ele>100.1</ele>
        <time>2023-03-04T07:21:25.000Z</time>
      </trkpt>
      <trkpt lat="43.51055" lon="6.65428">
        <ele>100.1</ele>
        <time>2023-03-04T07:21:26.000Z</time>
      </trkpt>
      <trkpt lat="43.51059" lon="6.6543">
        <ele>100.1</ele>
        <time>2023-03-04T07:21:27.000Z</time>
      </trkpt>
      <trkpt lat="43.51064" lon="6.65431">
        <ele>100.1</ele>
        <time>2023-03-04T07:21:28.000Z</time>
      </trkpt>
      <trkpt lat="43.51069" lon="6.65433">
        <ele>100.1</ele>
        <time>2023-03-04T07:21:29.000Z</time>
      </trkpt>
      <trkpt lat="43.51073" lon="6.65434">
        <ele>100.1</ele>
        <time>2023-03-04T07:21:30.000Z</time>
      </trkpt>
      <trkpt lat="43.51078" lon="6.65436">
        <ele>100.1</ele>
        <time>2023-03-04T07:21:31.000Z</time>
      </trkpt>
      <trkpt lat="43.51082" lon="6.65437">
        <ele>100.1</ele>
        <time>2023-03-04T07:21:32.000Z</time>
      </trkpt>
      <trkpt lat="43.51087" lon="6.65439">
        <ele>100.2</ele>
        <time>2023-03-04T07:21:33.000Z</time>
      </trkpt>
      <trkpt lat="43.51091" lon="6.6544">
        <ele>100.2</ele>
        <time>2023-03-04T07:21:34.000Z</time>
      </trkpt>
      <trkpt lat="43.51096" lon="6.65441">
        <ele>100.3</ele>
        <time>2023-03-04T07:21:35.000Z</time>
      </trkpt>
      <trkpt lat="43.511" lon="6.65441">
        <ele>100.3</ele>
        <time>2023-03-04T07:21:36.000Z</time>
      </trkpt>
      <trkpt lat="43.51105" lon="6.65442">
        <ele>100.4</ele>
        <time>2023-03-04T07:21:37.000Z</time>
      </trkpt>
      <trkpt lat="43.51108" lon="6.65442">
        <ele>100.4</ele>
        <time>2023-03-04T07:21:38.000Z</time>
      </trkpt>
      <trkpt lat="43.51112" lon="6.65441">
        <ele>100.5</ele>
        <time>2023-03-04T07:21:39.000Z</time>
      </trkpt>
      <trkpt lat="43.51116" lon="6.65441">
        <ele>100.5</ele>
        <time>2023-03-04T07:21:40.000Z</time>
      </trkpt>
      <trkpt lat="43.51121" lon="6.6544">
        <ele>100.5</ele>
        <time>2023-03-04T07:21:41.000Z</time>
      </trkpt>
      <trkpt lat="43.51125" lon="6.65439">
        <ele>100.6</ele>
        <time>2023-03-04T07:21:42.000Z</time>
      </trkpt>
      <trkpt lat="43.51129" lon="6.65438">
        <ele>100.6</ele>
        <time>2023-03-04T07:21:43.000Z</time>
      </trkpt>
      <trkpt lat="43.51139" lon="6.65436">
        <ele>100.7</ele>
        <time>2023-03-04T07:21:45.000Z</time>
      </trkpt>
      <trkpt lat="43.51144" lon="6.65435">
        <ele>100.8</ele>
        <time>2023-03-04T07:21:46.000Z</time>
      </trkpt>
      <trkpt lat="43.51148" lon="6.65435">
        <ele>100.8</ele>
        <time>2023-03-04T07:21:47.000Z</time>
      </trkpt>
      <trkpt lat="43.51153" lon="6.65434">
        <ele>100.9</ele>
        <time>2023-03-04T07:21:48.000Z</time>
      </trkpt>
      <trkpt lat="43.51157" lon="6.65434">
        <ele>100.9</ele>
        <time>2023-03-04T07:21:49.000Z</time>
      </trkpt>
      <trkpt lat="43.51161" lon="6.65435">
        <ele>101</ele>
        <time>2023-03-04T07:21:50.000Z</time>
      </trkpt>
      <trkpt lat="43.51166" lon="6.65437">
        <ele>101.2</ele>
        <time>2023-03-04T07:21:52.000Z</time>
      </trkpt>
      <trkpt lat="43.51175" lon="6.65441">
        <ele>101.4</ele>
        <time>2023-03-04T07:21:53.000Z</time>
      </trkpt>
      <trkpt lat="43.51179" lon="6.65444">
        <ele>101.5</ele>
        <time>2023-03-04T07:21:54.000Z</time>
      </trkpt>
      <trkpt lat="43.51183" lon="6.65448">
        <ele>101.6</ele>
        <time>2023-03-04T07:21:55.000Z</time>
      </trkpt>
      <trkpt lat="43.51187" lon="6.65451">
        <ele>101.7</ele>
        <time>2023-03-04T07:21:56.000Z</time>
      </trkpt>
      <trkpt lat="43.5119" lon="6.65455">
        <ele>101.8</ele>
        <time>2023-03-04T07:21:57.000Z</time>
      </trkpt>
      <trkpt lat="43.51194" lon="6.65459">
        <ele>101.9</ele>
        <time>2023-03-04T07:21:58.000Z</time>
      </trkpt>
      <trkpt lat="43.51197" lon="6.65464">
        <ele>101.9</ele>
        <time>2023-03-04T07:21:59.000Z</time>
      </trkpt>
      <trkpt lat="43.51201" lon="6.65469">
        <ele>101.9</ele>
        <time>2023-03-04T07:22:00.000Z</time>
      </trkpt>
      <trkpt lat="43.51204" lon="6.65473">
        <ele>101.8</ele>
        <time>2023-03-04T07:22:01.000Z</time>
      </trkpt>
      <trkpt lat="43.51207" lon="6.65478">
        <ele>101.8</ele>
        <time>2023-03-04T07:22:02.000Z</time>
      </trkpt>
      <trkpt lat="43.51209" lon="6.65482">
        <ele>101.7</ele>
        <time>2023-03-04T07:22:03.000Z</time>
      </trkpt>
      <trkpt lat="43.51213" lon="6.65488">
        <ele>101.6</ele>
        <time>2023-03-04T07:22:04.000Z</time>
      </trkpt>
      <trkpt lat="43.51216" lon="6.65493">
        <ele>101.4</ele>
        <time>2023-03-04T07:22:05.000Z</time>
      </trkpt>
      <trkpt lat="43.51219" lon="6.65499">
        <ele>101.1</ele>
        <time>2023-03-04T07:22:06.000Z</time>
      </trkpt>
      <trkpt lat="43.51223" lon="6.65505">
        <ele>100.8</ele>
        <time>2023-03-04T07:22:07.000Z</time>
      </trkpt>
      <trkpt lat="43.51226" lon="6.65511">
        <ele>100.5</ele>
        <time>2023-03-04T07:22:08.000Z</time>
      </trkpt>
      <trkpt lat="43.51229" lon="6.65517">
        <ele>100</ele>
        <time>2023-03-04T07:22:09.000Z</time>
      </trkpt>
      <trkpt lat="43.51232" lon="6.65524">
        <ele>99.6</ele>
        <time>2023-03-04T07:22:10.000Z</time>
      </trkpt>
      <trkpt lat="43.51234" lon="6.65531">
        <ele>99.1</ele>
        <time>2023-03-04T07:22:11.000Z</time>
      </trkpt>
      <trkpt lat="43.51236" lon="6.65538">
        <ele>98.6</ele>
        <time>2023-03-04T07:22:12.000Z</time>
      </trkpt>
      <trkpt lat="43.51238" lon="6.65546">
        <ele>98.1</ele>
        <time>2023-03-04T07:22:13.000Z</time>
      </trkpt>
      <trkpt lat="43.51239" lon="6.65554">
        <ele>97.6</ele>
        <time>2023-03-04T07:22:14.000Z</time>
      </trkpt>
      <trkpt lat="43.51241" lon="6.65563">
        <ele>97</ele>
        <time>2023-03-04T07:22:15.000Z</time>
      </trkpt>
      <trkpt lat="43.51241" lon="6.65573">
        <ele>96.6</ele>
        <time>2023-03-04T07:22:16.000Z</time>
      </trkpt>
      <trkpt lat="43.51241" lon="6.65583">
        <ele>96.2</ele>
        <time>2023-03-04T07:22:17.000Z</time>
      </trkpt>
      <trkpt lat="43.51241" lon="6.65594">
        <ele>95.9</ele>
        <time>2023-03-04T07:22:18.000Z</time>
      </trkpt>
      <trkpt lat="43.5124" lon="6.65603">
        <ele>95.7</ele>
        <time>2023-03-04T07:22:19.000Z</time>
      </trkpt>
      <trkpt lat="43.51239" lon="6.65613">
        <ele>95.6</ele>
        <time>2023-03-04T07:22:20.000Z</time>
      </trkpt>
      <trkpt lat="43.51238" lon="6.65622">
        <ele>95.5</ele>
        <time>2023-03-04T07:22:21.000Z</time>
      </trkpt>
      <trkpt lat="43.51236" lon="6.6563">
        <ele>95.4</ele>
        <time>2023-03-04T07:22:22.000Z</time>
      </trkpt>
      <trkpt lat="43.51235" lon="6.65638">
        <ele>95.4</ele>
        <time>2023-03-04T07:22:23.000Z</time>
      </trkpt>
      <trkpt lat="43.51234" lon="6.65646">
        <ele>95.4</ele>
        <time>2023-03-04T07:22:24.000Z</time>
      </trkpt>
      <trkpt lat="43.51232" lon="6.65653">
        <ele>95.4</ele>
        <time>2023-03-04T07:22:25.000Z</time>
      </trkpt>
      <trkpt lat="43.51231" lon="6.65661">
        <ele>95.5</ele>
        <time>2023-03-04T07:22:26.000Z</time>
      </trkpt>
      <trkpt lat="43.51229" lon="6.65668">
        <ele>95.7</ele>
        <time>2023-03-04T07:22:27.000Z</time>
      </trkpt>
      <trkpt lat="43.51228" lon="6.65676">
        <ele>95.9</ele>
        <time>2023-03-04T07:22:28.000Z</time>
      </trkpt>
      <trkpt lat="43.51227" lon="6.65684">
        <ele>96.2</ele>
        <time>2023-03-04T07:22:29.000Z</time>
      </trkpt>
      <trkpt lat="43.51226" lon="6.65691">
        <ele>96.5</ele>
        <time>2023-03-04T07:22:30.000Z</time>
      </trkpt>
      <trkpt lat="43.51225" lon="6.65698">
        <ele>96.9</ele>
        <time>2023-03-04T07:22:31.000Z</time>
      </trkpt>
      <trkpt lat="43.51225" lon="6.65704">
        <ele>97.2</ele>
        <time>2023-03-04T07:22:32.000Z</time>
      </trkpt>
      <trkpt lat="43.51224" lon="6.6571">
        <ele>97.6</ele>
        <time>2023-03-04T07:22:33.000Z</time>
      </trkpt>
      <trkpt lat="43.51224" lon="6.65716">
        <ele>98</ele>
        <time>2023-03-04T07:22:34.000Z</time>
      </trkpt>
      <trkpt lat="43.51223" lon="6.65721">
        <ele>98.4</ele>
        <time>2023-03-04T07:22:35.000Z</time>
      </trkpt>
      <trkpt lat="43.51223" lon="6.65724">
        <ele>98.6</ele>
        <time>2023-03-04T07:22:36.000Z</time>
      </trkpt>
      <trkpt lat="43.51222" lon="6.65731">
        <ele>99</ele>
        <time>2023-03-04T07:22:37.000Z</time>
      </trkpt>
      <trkpt lat="43.51221" lon="6.65735">
        <ele>99.3</ele>
        <time>2023-03-04T07:22:38.000Z</time>
      </trkpt>
      <trkpt lat="43.5122" lon="6.6574">
        <ele>99.6</ele>
        <time>2023-03-04T07:22:39.000Z</time>
      </trkpt>
      <trkpt lat="43.51219" lon="6.65744">
        <ele>99.9</ele>
        <time>2023-03-04T07:22:40.000Z</time>
      </trkpt>
      <trkpt lat="43.51217" lon="6.6575">
        <ele>100.3</ele>
        <time>2023-03-04T07:22:41.000Z</time>
      </trkpt>
      <trkpt lat="43.51215" lon="6.65754">
        <ele>100.7</ele>
        <time>2023-03-04T07:22:43.000Z</time>
      </trkpt>
      <trkpt lat="43.51213" lon="6.6576">
        <ele>101.1</ele>
        <time>2023-03-04T07:22:44.000Z</time>
      </trkpt>
      <trkpt lat="43.51211" lon="6.65764">
        <ele>101.4</ele>
        <time>2023-03-04T07:22:45.000Z</time>
      </trkpt>
      <trkpt lat="43.51209" lon="6.65766">
        <ele>101.6</ele>
        <time>2023-03-04T07:22:46.000Z</time>
      </trkpt>
      <trkpt lat="43.51208" lon="6.65768">
        <ele>101.7</ele>
        <time>2023-03-04T07:22:47.000Z</time>
      </trkpt>
      <trkpt lat="43.51207" lon="6.6577">
        <ele>101.9</ele>
        <time>2023-03-04T07:22:48.000Z</time>
      </trkpt>
      <trkpt lat="43.51207" lon="6.6577">
        <ele>101.9</ele>
        <time>2023-03-04T07:22:49.000Z</time>
      </trkpt>
      <trkpt lat="43.51206" lon="6.65771">
        <ele>102</ele>
        <time>2023-03-04T07:22:51.000Z</time>
      </trkpt>
      <trkpt lat="43.51206" lon="6.65772">
        <ele>102.1</ele>
        <time>2023-03-04T07:22:52.000Z</time>
      </trkpt>
      <trkpt lat="43.51205" lon="6.65773">
        <ele>102.1</ele>
        <time>2023-03-04T07:22:54.000Z</time>
      </trkpt>
      <trkpt lat="43.51204" lon="6.65773">
        <ele>102.3</ele>
        <time>2023-03-04T07:22:55.000Z</time>
      </trkpt>
      <trkpt lat="43.51203" lon="6.65774">
        <ele>102.4</ele>
        <time>2023-03-04T07:22:57.000Z</time>
      </trkpt>
      <trkpt lat="43.51203" lon="6.65775">
        <ele>102.4</ele>
        <time>2023-03-04T07:22:58.000Z</time>
      </trkpt>
      <trkpt lat="43.51202" lon="6.65775">
        <ele>102.4</ele>
        <time>2023-03-04T07:23:01.000Z</time>
      </trkpt>
      <trkpt lat="43.51201" lon="6.65776">
        <ele>102.4</ele>
        <time>2023-03-04T07:23:03.000Z</time>
      </trkpt>
      <trkpt lat="43.51201" lon="6.65777">
        <ele>102.4</ele>
        <time>2023-03-04T07:23:04.000Z</time>
      </trkpt>
      <trkpt lat="43.512" lon="6.65777">
        <ele>102.4</ele>
        <time>2023-03-04T07:23:06.000Z</time>
      </trkpt>
      <trkpt lat="43.51199" lon="6.65778">
        <ele>102.4</ele>
        <time>2023-03-04T07:23:07.000Z</time>
      </trkpt>
      <trkpt lat="43.51199" lon="6.65779">
        <ele>102.4</ele>
        <time>2023-03-04T07:23:09.000Z</time>
      </trkpt>
      <trkpt lat="43.51198" lon="6.65779">
        <ele>102.5</ele>
        <time>2023-03-04T07:23:10.000Z</time>
      </trkpt>
      <trkpt lat="43.51197" lon="6.6578">
        <ele>102.5</ele>
        <time>2023-03-04T07:23:11.000Z</time>
      </trkpt>
      <trkpt lat="43.51196" lon="6.65781">
        <ele>102.5</ele>
        <time>2023-03-04T07:23:13.000Z</time>
      </trkpt>
      <trkpt lat="43.51196" lon="6.65782">
        <ele>102.5</ele>
        <time>2023-03-04T07:23:14.000Z</time>
      </trkpt>
      <trkpt lat="43.51195" lon="6.65782">
        <ele>102.5</ele>
        <time>2023-03-04T07:23:16.000Z</time>
      </trkpt>
      <trkpt lat="43.51194" lon="6.65783">
        <ele>102.5</ele>
        <time>2023-03-04T07:24:18.000Z</time>
      </trkpt>
      <trkpt lat="43.51194" lon="6.65784">
        <ele>102.5</ele>
        <time>2023-03-04T07:24:19.000Z</time>
      </trkpt>
      <trkpt lat="43.51191" lon="6.65788">
        <ele>102.5</ele>
        <time>2023-03-04T07:24:21.000Z</time>
      </trkpt>
      <trkpt lat="43.51189" lon="6.65791">
        <ele>102.4</ele>
        <time>2023-03-04T07:24:22.000Z</time>
      </trkpt>
      <trkpt lat="43.51187" lon="6.65795">
        <ele>102.3</ele>
        <time>2023-03-04T07:24:23.000Z</time>
      </trkpt>
      <trkpt lat="43.51184" lon="6.65798">
        <ele>102.2</ele>
        <time>2023-03-04T07:24:24.000Z</time>
      </trkpt>
      <trkpt lat="43.51182" lon="6.65802">
        <ele>102</ele>
        <time>2023-03-04T07:24:25.000Z</time>
      </trkpt>
      <trkpt lat="43.5118" lon="6.65806">
        <ele>101.8</ele>
        <time>2023-03-04T07:24:26.000Z</time>
      </trkpt>
      <trkpt lat="43.51178" lon="6.65811">
        <ele>101.5</ele>
        <time>2023-03-04T07:24:28.000Z</time>
      </trkpt>
      <trkpt lat="43.51175" lon="6.65815">
        <ele>101.2</ele>
        <time>2023-03-04T07:24:29.000Z</time>
      </trkpt>
      <trkpt lat="43.51172" lon="6.6582">
        <ele>100.8</ele>
        <time>2023-03-04T07:24:30.000Z</time>
      </trkpt>
      <trkpt lat="43.5117" lon="6.65825">
        <ele>100.4</ele>
        <time>2023-03-04T07:24:31.000Z</time>
      </trkpt>
      <trkpt lat="43.51167" lon="6.65829">
        <ele>100.1</ele>
        <time>2023-03-04T07:24:32.000Z</time>
      </trkpt>
      <trkpt lat="43.51165" lon="6.65834">
        <ele>99.7</ele>
        <time>2023-03-04T07:24:33.000Z</time>
      </trkpt>
      <trkpt lat="43.51162" lon="6.65839">
        <ele>99.4</ele>
        <time>2023-03-04T07:24:34.000Z</time>
      </trkpt>
      <trkpt lat="43.51159" lon="6.65845">
        <ele>99</ele>
        <time>2023-03-04T07:24:36.000Z</time>
      </trkpt>
      <trkpt lat="43.51155" lon="6.65851">
        <ele>98.5</ele>
        <time>2023-03-04T07:24:37.000Z</time>
      </trkpt>
      <trkpt lat="43.5115" lon="6.6586">
        <ele>98</ele>
        <time>2023-03-04T07:24:38.000Z</time>
      </trkpt>
      <trkpt lat="43.51147" lon="6.65866">
        <ele>97.7</ele>
        <time>2023-03-04T07:24:39.000Z</time>
      </trkpt>
      <trkpt lat="43.51143" lon="6.65872">
        <ele>97.4</ele>
        <time>2023-03-04T07:24:40.000Z</time>
      </trkpt>
      <trkpt lat="43.5114" lon="6.65879">
        <ele>97.1</ele>
        <time>2023-03-04T07:24:41.000Z</time>
      </trkpt>
      <trkpt lat="43.51136" lon="6.65885">
        <ele>96.8</ele>
        <time>2023-03-04T07:24:42.000Z</time>
      </trkpt>
      <trkpt lat="43.51133" lon="6.65892">
        <ele>96.6</ele>
        <time>2023-03-04T07:24:43.000Z</time>
      </trkpt>
      <trkpt lat="43.5113" lon="6.65898">
        <ele>96.3</ele>
        <time>2023-03-04T07:24:44.000Z</time>
      </trkpt>
      <trkpt lat="43.51126" lon="6.65905">
        <ele>96</ele>
        <time>2023-03-04T07:24:45.000Z</time>
      </trkpt>
      <trkpt lat="43.51123" lon="6.65912">
        <ele>95.7</ele>
        <time>2023-03-04T07:24:46.000Z</time>
      </trkpt>
      <trkpt lat="43.51119" lon="6.65918">
        <ele>95.4</ele>
        <time>2023-03-04T07:24:47.000Z</time>
      </trkpt>
      <trkpt lat="43.51116" lon="6.65926">
        <ele>95.1</ele>
        <time>2023-03-04T07:24:48.000Z</time>
      </trkpt>
      <trkpt lat="43.51112" lon="6.65933">
        <ele>94.8</ele>
        <time>2023-03-04T07:24:49.000Z</time>
      </trkpt>
      <trkpt lat="43.51109" lon="6.65941">
        <ele>94.4</ele>
        <time>2023-03-04T07:24:50.000Z</time>
      </trkpt>
      <trkpt lat="43.51105" lon="6.65949">
        <ele>94.1</ele>
        <time>2023-03-04T07:24:51.000Z</time>
      </trkpt>
      <trkpt lat="43.51102" lon="6.65957">
        <ele>93.8</ele>
        <time>2023-03-04T07:24:52.000Z</time>
      </trkpt>
      <trkpt lat="43.51098" lon="6.65965">
        <ele>93.6</ele>
        <time>2023-03-04T07:24:53.000Z</time>
      </trkpt>
      <trkpt lat="43.51094" lon="6.65972">
        <ele>93.3</ele>
        <time>2023-03-04T07:24:54.000Z</time>
      </trkpt>
      <trkpt lat="43.5109" lon="6.65981">
        <ele>93</ele>
        <time>2023-03-04T07:24:55.000Z</time>
      </trkpt>
      <trkpt lat="43.51087" lon="6.65989">
        <ele>92.8</ele>
        <time>2023-03-04T07:24:56.000Z</time>
      </trkpt>
      <trkpt lat="43.51083" lon="6.65997">
        <ele>92.6</ele>
        <time>2023-03-04T07:24:57.000Z</time>
      </trkpt>
      <trkpt lat="43.51079" lon="6.66006">
        <ele>92.4</ele>
        <time>2023-03-04T07:24:58.000Z</time>
      </trkpt>
      <trkpt lat="43.51075" lon="6.66014">
        <ele>92.3</ele>
        <time>2023-03-04T07:24:59.000Z</time>
      </trkpt>
      <trkpt lat="43.51071" lon="6.66022">
        <ele>92.1</ele>
        <time>2023-03-04T07:25:00.000Z</time>
      </trkpt>
      <trkpt lat="43.51067" lon="6.6603">
        <ele>91.9</ele>
        <time>2023-03-04T07:25:01.000Z</time>
      </trkpt>
      <trkpt lat="43.51064" lon="6.66038">
        <ele>91.8</ele>
        <time>2023-03-04T07:25:02.000Z</time>
      </trkpt>
      <trkpt lat="43.5106" lon="6.66047">
        <ele>91.6</ele>
        <time>2023-03-04T07:25:03.000Z</time>
      </trkpt>
      <trkpt lat="43.51057" lon="6.66055">
        <ele>91.5</ele>
        <time>2023-03-04T07:25:04.000Z</time>
      </trkpt>
      <trkpt lat="43.51055" lon="6.66062">
        <ele>91.4</ele>
        <time>2023-03-04T07:25:05.000Z</time>
      </trkpt>
      <trkpt lat="43.51052" lon="6.66069">
        <ele>91.3</ele>
        <time>2023-03-04T07:25:06.000Z</time>
      </trkpt>
      <trkpt lat="43.51049" lon="6.66076">
        <ele>91.2</ele>
        <time>2023-03-04T07:25:07.000Z</time>
      </trkpt>
      <trkpt lat="43.51046" lon="6.66083">
        <ele>91.2</ele>
        <time>2023-03-04T07:25:08.000Z</time>
      </trkpt>
      <trkpt lat="43.51043" lon="6.6609">
        <ele>91.2</ele>
        <time>2023-03-04T07:25:09.000Z</time>
      </trkpt>
      <trkpt lat="43.5104" lon="6.66096">
        <ele>91.2</ele>
        <time>2023-03-04T07:25:10.000Z</time>
      </trkpt>
      <trkpt lat="43.51037" lon="6.66103">
        <ele>91.1</ele>
        <time>2023-03-04T07:25:11.000Z</time>
      </trkpt>
      <trkpt lat="43.51034" lon="6.66109">
        <ele>91.1</ele>
        <time>2023-03-04T07:25:12.000Z</time>
      </trkpt>
      <trkpt lat="43.51031" lon="6.66115">
        <ele>91.1</ele>
        <time>2023-03-04T07:25:13.000Z</time>
      </trkpt>
      <trkpt lat="43.51028" lon="6.66121">
        <ele>91</ele>
        <time>2023-03-04T07:25:14.000Z</time>
      </trkpt>
      <trkpt lat="43.51025" lon="6.66127">
        <ele>91</ele>
        <time>2023-03-04T07:25:15.000Z</time>
      </trkpt>
      <trkpt lat="43.51022" lon="6.66133">
        <ele>90.9</ele>
        <time>2023-03-04T07:25:16.000Z</time>
      </trkpt>
      <trkpt lat="43.51019" lon="6.6614">
        <ele>90.9</ele>
        <time>2023-03-04T07:25:17.000Z</time>
      </trkpt>
      <trkpt lat="43.51017" lon="6.66145">
        <ele>90.8</ele>
        <time>2023-03-04T07:25:18.000Z</time>
      </trkpt>
      <trkpt lat="43.51014" lon="6.66151">
        <ele>90.8</ele>
        <time>2023-03-04T07:25:19.000Z</time>
      </trkpt>
      <trkpt lat="43.51012" lon="6.66156">
        <ele>90.7</ele>
        <time>2023-03-04T07:25:20.000Z</time>
      </trkpt>
      <trkpt lat="43.5101" lon="6.66162">
        <ele>90.7</ele>
        <time>2023-03-04T07:25:21.000Z</time>
      </trkpt>
      <trkpt lat="43.51007" lon="6.66167">
        <ele>90.6</ele>
        <time>2023-03-04T07:25:22.000Z</time>
      </trkpt>
      <trkpt lat="43.51006" lon="6.66171">
        <ele>90.6</ele>
        <time>2023-03-04T07:25:23.000Z</time>
      </trkpt>
      <trkpt lat="43.51003" lon="6.66176">
        <ele>90.5</ele>
        <time>2023-03-04T07:25:24.000Z</time>
      </trkpt>
      <trkpt lat="43.51002" lon="6.6618">
        <ele>90.5</ele>
        <time>2023-03-04T07:25:25.000Z</time>
      </trkpt>
      <trkpt lat="43.51" lon="6.66186">
        <ele>90.4</ele>
        <time>2023-03-04T07:25:26.000Z</time>
      </trkpt>
      <trkpt lat="43.50997" lon="6.66192">
        <ele>90.3</ele>
        <time>2023-03-04T07:25:27.000Z</time>
      </trkpt>
      <trkpt lat="43.50995" lon="6.66197">
        <ele>90.2</ele>
        <time>2023-03-04T07:25:28.000Z</time>
      </trkpt>
      <trkpt lat="43.50993" lon="6.66201">
        <ele>90.1</ele>
        <time>2023-03-04T07:25:29.000Z</time>
      </trkpt>
      <trkpt lat="43.50989" lon="6.66208">
        <ele>89.9</ele>
        <time>2023-03-04T07:25:31.000Z</time>
      </trkpt>
      <trkpt lat="43.50987" lon="6.66216">
        <ele>89.8</ele>
        <time>2023-03-04T07:25:32.000Z</time>
      </trkpt>
      <trkpt lat="43.50984" lon="6.66222">
        <ele>89.7</ele>
        <time>2023-03-04T07:25:33.000Z</time>
      </trkpt>
      <trkpt lat="43.50982" lon="6.66228">
        <ele>89.5</ele>
        <time>2023-03-04T07:25:34.000Z</time>
      </trkpt>
      <trkpt lat="43.50979" lon="6.66235">
        <ele>89.4</ele>
        <time>2023-03-04T07:25:35.000Z</time>
      </trkpt>
      <trkpt lat="43.50977" lon="6.6624">
        <ele>89.2</ele>
        <time>2023-03-04T07:25:36.000Z</time>
      </trkpt>
      <trkpt lat="43.50974" lon="6.66246">
        <ele>89.1</ele>
        <time>2023-03-04T07:25:37.000Z</time>
      </trkpt>
      <trkpt lat="43.50972" lon="6.66252">
        <ele>88.9</ele>
        <time>2023-03-04T07:25:38.000Z</time>
      </trkpt>
      <trkpt lat="43.50969" lon="6.66258">
        <ele>88.8</ele>
        <time>2023-03-04T07:25:39.000Z</time>
      </trkpt>
      <trkpt lat="43.50967" lon="6.66264">
        <ele>88.6</ele>
        <time>2023-03-04T07:25:40.000Z</time>
      </trkpt>
      <trkpt lat="43.50965" lon="6.6627">
        <ele>88.4</ele>
        <time>2023-03-04T07:25:41.000Z</time>
      </trkpt>
      <trkpt lat="43.50962" lon="6.66276">
        <ele>88.3</ele>
        <time>2023-03-04T07:25:42.000Z</time>
      </trkpt>
      <trkpt lat="43.50959" lon="6.66283">
        <ele>88.1</ele>
        <time>2023-03-04T07:25:43.000Z</time>
      </trkpt>
      <trkpt lat="43.50957" lon="6.66289">
        <ele>88</ele>
        <time>2023-03-04T07:25:44.000Z</time>
      </trkpt>
      <trkpt lat="43.50954" lon="6.66295">
        <ele>87.8</ele>
        <time>2023-03-04T07:25:45.000Z</time>
      </trkpt>
      <trkpt lat="43.50951" lon="6.66302">
        <ele>87.6</ele>
        <time>2023-03-04T07:25:46.000Z</time>
      </trkpt>
      <trkpt lat="43.50948" lon="6.66308">
        <ele>87.5</ele>
        <time>2023-03-04T07:25:47.000Z</time>
      </trkpt>
      <trkpt lat="43.50945" lon="6.66315">
        <ele>87.3</ele>
        <time>2023-03-04T07:25:48.000Z</time>
      </trkpt>
      <trkpt lat="43.50943" lon="6.66321">
        <ele>87.1</ele>
        <time>2023-03-04T07:25:49.000Z</time>
      </trkpt>
      <trkpt lat="43.5094" lon="6.66328">
        <ele>87</ele>
        <time>2023-03-04T07:25:50.000Z</time>
      </trkpt>
      <trkpt lat="43.50937" lon="6.66334">
        <ele>86.8</ele>
        <time>2023-03-04T07:25:51.000Z</time>
      </trkpt>
      <trkpt lat="43.50934" lon="6.66341">
        <ele>86.6</ele>
        <time>2023-03-04T07:25:52.000Z</time>
      </trkpt>
      <trkpt lat="43.50932" lon="6.66347">
        <ele>86.5</ele>
        <time>2023-03-04T07:25:53.000Z</time>
      </trkpt>
      <trkpt lat="43.50929" lon="6.66353">
        <ele>86.3</ele>
        <time>2023-03-04T07:25:54.000Z</time>
      </trkpt>
      <trkpt lat="43.50927" lon="6.6636">
        <ele>86.1</ele>
        <time>2023-03-04T07:25:55.000Z</time>
      </trkpt>
      <trkpt lat="43.50924" lon="6.66366">
        <ele>85.9</ele>
        <time>2023-03-04T07:25:56.000Z</time>
      </trkpt>
      <trkpt lat="43.50921" lon="6.66373">
        <ele>85.7</ele>
        <time>2023-03-04T07:25:57.000Z</time>
      </trkpt>
      <trkpt lat="43.50918" lon="6.66379">
        <ele>85.5</ele>
        <time>2023-03-04T07:25:58.000Z</time>
      </trkpt>
      <trkpt lat="43.50915" lon="6.66386">
        <ele>85.4</ele>
        <time>2023-03-04T07:25:59.000Z</time>
      </trkpt>
      <trkpt lat="43.50913" lon="6.66393">
        <ele>85.1</ele>
        <time>2023-03-04T07:26:00.000Z</time>
      </trkpt>
      <trkpt lat="43.5091" lon="6.66399">
        <ele>84.9</ele>
        <time>2023-03-04T07:26:01.000Z</time>
      </trkpt>
      <trkpt lat="43.50907" lon="6.66404">
        <ele>84.7</ele>
        <time>2023-03-04T07:26:02.000Z</time>
      </trkpt>
      <trkpt lat="43.50905" lon="6.6641">
        <ele>84.5</ele>
        <time>2023-03-04T07:26:03.000Z</time>
      </trkpt>
      <trkpt lat="43.50902" lon="6.66416">
        <ele>84.2</ele>
        <time>2023-03-04T07:26:04.000Z</time>
      </trkpt>
      <trkpt lat="43.50899" lon="6.66422">
        <ele>84</ele>
        <time>2023-03-04T07:26:05.000Z</time>
      </trkpt>
      <trkpt lat="43.50895" lon="6.66428">
        <ele>83.7</ele>
        <time>2023-03-04T07:26:06.000Z</time>
      </trkpt>
      <trkpt lat="43.50891" lon="6.66434">
        <ele>83.4</ele>
        <time>2023-03-04T07:26:07.000Z</time>
      </trkpt>
      <trkpt lat="43.50887" lon="6.6644">
        <ele>83.2</ele>
        <time>2023-03-04T07:26:08.000Z</time>
      </trkpt>
      <trkpt lat="43.50883" lon="6.66445">
        <ele>82.9</ele>
        <time>2023-03-04T07:26:09.000Z</time>
      </trkpt>
      <trkpt lat="43.50878" lon="6.6645">
        <ele>82.7</ele>
        <time>2023-03-04T07:26:10.000Z</time>
      </trkpt>
      <trkpt lat="43.50873" lon="6.66455">
        <ele>82.5</ele>
        <time>2023-03-04T07:26:11.000Z</time>
      </trkpt>
      <trkpt lat="43.50868" lon="6.66459">
        <ele>82.3</ele>
        <time>2023-03-04T07:26:12.000Z</time>
      </trkpt>
      <trkpt lat="43.50863" lon="6.66463">
        <ele>82.1</ele>
        <time>2023-03-04T07:26:13.000Z</time>
      </trkpt>
      <trkpt lat="43.50858" lon="6.66467">
        <ele>81.8</ele>
        <time>2023-03-04T07:26:14.000Z</time>
      </trkpt>
      <trkpt lat="43.50852" lon="6.6647">
        <ele>81.6</ele>
        <time>2023-03-04T07:26:15.000Z</time>
      </trkpt>
      <trkpt lat="43.50847" lon="6.66473">
        <ele>81.4</ele>
        <time>2023-03-04T07:26:16.000Z</time>
      </trkpt>
      <trkpt lat="43.50841" lon="6.66476">
        <ele>81.2</ele>
        <time>2023-03-04T07:26:17.000Z</time>
      </trkpt>
      <trkpt lat="43.50836" lon="6.66479">
        <ele>80.9</ele>
        <time>2023-03-04T07:26:18.000Z</time>
      </trkpt>
      <trkpt lat="43.5083" lon="6.66483">
        <ele>80.7</ele>
        <time>2023-03-04T07:26:19.000Z</time>
      </trkpt>
      <trkpt lat="43.50824" lon="6.66486">
        <ele>80.5</ele>
        <time>2023-03-04T07:26:20.000Z</time>
      </trkpt>
      <trkpt lat="43.50818" lon="6.66489">
        <ele>80.3</ele>
        <time>2023-03-04T07:26:21.000Z</time>
      </trkpt>
      <trkpt lat="43.50812" lon="6.66493">
        <ele>80</ele>
        <time>2023-03-04T07:26:22.000Z</time>
      </trkpt>
      <trkpt lat="43.50806" lon="6.66497">
        <ele>79.7</ele>
        <time>2023-03-04T07:26:23.000Z</time>
      </trkpt>
      <trkpt lat="43.508" lon="6.66501">
        <ele>79.4</ele>
        <time>2023-03-04T07:26:24.000Z</time>
      </trkpt>
      <trkpt lat="43.50794" lon="6.66505">
        <ele>79.1</ele>
        <time>2023-03-04T07:26:25.000Z</time>
      </trkpt>
      <trkpt lat="43.50788" lon="6.66508">
        <ele>78.9</ele>
        <time>2023-03-04T07:26:26.000Z</time>
      </trkpt>
      <trkpt lat="43.50781" lon="6.66513">
        <ele>78.6</ele>
        <time>2023-03-04T07:26:27.000Z</time>
      </trkpt>
      <trkpt lat="43.50775" lon="6.66517">
        <ele>78.4</ele>
        <time>2023-03-04T07:26:28.000Z</time>
      </trkpt>
      <trkpt lat="43.50769" lon="6.66521">
        <ele>78.1</ele>
        <time>2023-03-04T07:26:29.000Z</time>
      </trkpt>
      <trkpt lat="43.50762" lon="6.66525">
        <ele>77.9</ele>
        <time>2023-03-04T07:26:30.000Z</time>
      </trkpt>
      <trkpt lat="43.50756" lon="6.66529">
        <ele>77.8</ele>
        <time>2023-03-04T07:26:31.000Z</time>
      </trkpt>
      <trkpt lat="43.5075" lon="6.66533">
        <ele>77.6</ele>
        <time>2023-03-04T07:26:32.000Z</time>
      </trkpt>
      <trkpt lat="43.50744" lon="6.66538">
        <ele>77.4</ele>
        <time>2023-03-04T07:26:33.000Z</time>
      </trkpt>
      <trkpt lat="43.50738" lon="6.66543">
        <ele>77.3</ele>
        <time>2023-03-04T07:26:34.000Z</time>
      </trkpt>
      <trkpt lat="43.50733" lon="6.66548">
        <ele>77.1</ele>
        <time>2023-03-04T07:26:35.000Z</time>
      </trkpt>
      <trkpt lat="43.50728" lon="6.66553">
        <ele>77</ele>
        <time>2023-03-04T07:26:36.000Z</time>
      </trkpt>
      <trkpt lat="43.50723" lon="6.66559">
        <ele>76.9</ele>
        <time>2023-03-04T07:26:37.000Z</time>
      </trkpt>
      <trkpt lat="43.50719" lon="6.66565">
        <ele>76.7</ele>
        <time>2023-03-04T07:26:38.000Z</time>
      </trkpt>
      <trkpt lat="43.50715" lon="6.66571">
        <ele>76.6</ele>
        <time>2023-03-04T07:26:39.000Z</time>
      </trkpt>
      <trkpt lat="43.50711" lon="6.66577">
        <ele>76.4</ele>
        <time>2023-03-04T07:26:40.000Z</time>
      </trkpt>
      <trkpt lat="43.50708" lon="6.66583">
        <ele>76.3</ele>
        <time>2023-03-04T07:26:41.000Z</time>
      </trkpt>
      <trkpt lat="43.50705" lon="6.6659">
        <ele>76.1</ele>
        <time>2023-03-04T07:26:42.000Z</time>
      </trkpt>
      <trkpt lat="43.50702" lon="6.66596">
        <ele>76</ele>
        <time>2023-03-04T07:26:43.000Z</time>
      </trkpt>
      <trkpt lat="43.50699" lon="6.66603">
        <ele>75.9</ele>
        <time>2023-03-04T07:26:44.000Z</time>
      </trkpt>
      <trkpt lat="43.50697" lon="6.6661">
        <ele>75.8</ele>
        <time>2023-03-04T07:26:45.000Z</time>
      </trkpt>
      <trkpt lat="43.50695" lon="6.66617">
        <ele>75.7</ele>
        <time>2023-03-04T07:26:46.000Z</time>
      </trkpt>
      <trkpt lat="43.50692" lon="6.66624">
        <ele>75.5</ele>
        <time>2023-03-04T07:26:47.000Z</time>
      </trkpt>
      <trkpt lat="43.5069" lon="6.6663">
        <ele>75.4</ele>
        <time>2023-03-04T07:26:48.000Z</time>
      </trkpt>
      <trkpt lat="43.50688" lon="6.66638">
        <ele>75.3</ele>
        <time>2023-03-04T07:26:49.000Z</time>
      </trkpt>
      <trkpt lat="43.50686" lon="6.66645">
        <ele>75.2</ele>
        <time>2023-03-04T07:26:50.000Z</time>
      </trkpt>
      <trkpt lat="43.50683" lon="6.66652">
        <ele>75.1</ele>
        <time>2023-03-04T07:26:51.000Z</time>
      </trkpt>
      <trkpt lat="43.50681" lon="6.66659">
        <ele>75</ele>
        <time>2023-03-04T07:26:52.000Z</time>
      </trkpt>
      <trkpt lat="43.50679" lon="6.66666">
        <ele>74.8</ele>
        <time>2023-03-04T07:26:53.000Z</time>
      </trkpt>
      <trkpt lat="43.50677" lon="6.66673">
        <ele>74.7</ele>
        <time>2023-03-04T07:26:54.000Z</time>
      </trkpt>
      <trkpt lat="43.50675" lon="6.66679">
        <ele>74.6</ele>
        <time>2023-03-04T07:26:55.000Z</time>
      </trkpt>
      <trkpt lat="43.50672" lon="6.66686">
        <ele>74.5</ele>
        <time>2023-03-04T07:26:56.000Z</time>
      </trkpt>
      <trkpt lat="43.5067" lon="6.66691">
        <ele>74.3</ele>
        <time>2023-03-04T07:26:57.000Z</time>
      </trkpt>
      <trkpt lat="43.50667" lon="6.66697">
        <ele>74.3</ele>
        <time>2023-03-04T07:26:58.000Z</time>
      </trkpt>
      <trkpt lat="43.50664" lon="6.667">
        <ele>74.3</ele>
        <time>2023-03-04T07:26:59.000Z</time>
      </trkpt>
      <trkpt lat="43.50661" lon="6.66704">
        <ele>74.2</ele>
        <time>2023-03-04T07:27:00.000Z</time>
      </trkpt>
      <trkpt lat="43.5066" lon="6.66706">
        <ele>74.2</ele>
        <time>2023-03-04T07:27:01.000Z</time>
      </trkpt>
      <trkpt lat="43.50658" lon="6.66709">
        <ele>74.1</ele>
        <time>2023-03-04T07:27:02.000Z</time>
      </trkpt>
      <trkpt lat="43.50654" lon="6.66712">
        <ele>74.1</ele>
        <time>2023-03-04T07:27:03.000Z</time>
      </trkpt>
      <trkpt lat="43.50651" lon="6.66713">
        <ele>74</ele>
        <time>2023-03-04T07:27:04.000Z</time>
      </trkpt>
      <trkpt lat="43.50647" lon="6.66714">
        <ele>73.9</ele>
        <time>2023-03-04T07:27:05.000Z</time>
      </trkpt>
      <trkpt lat="43.50643" lon="6.66715">
        <ele>73.9</ele>
        <time>2023-03-04T07:27:06.000Z</time>
      </trkpt>
      <trkpt lat="43.50636" lon="6.66717">
        <ele>73.8</ele>
        <time>2023-03-04T07:27:08.000Z</time>
      </trkpt>
      <trkpt lat="43.50632" lon="6.66719">
        <ele>73.7</ele>
        <time>2023-03-04T07:27:09.000Z</time>
      </trkpt>
      <trkpt lat="43.50625" lon="6.66722">
        <ele>73.6</ele>
        <time>2023-03-04T07:27:10.000Z</time>
      </trkpt>
      <trkpt lat="43.5062" lon="6.66725">
        <ele>73.6</ele>
        <time>2023-03-04T07:27:12.000Z</time>
      </trkpt>
      <trkpt lat="43.50616" lon="6.66727">
        <ele>73.6</ele>
        <time>2023-03-04T07:27:13.000Z</time>
      </trkpt>
      <trkpt lat="43.50609" lon="6.66731">
        <ele>73.5</ele>
        <time>2023-03-04T07:27:14.000Z</time>
      </trkpt>
      <trkpt lat="43.50604" lon="6.66735">
        <ele>73.5</ele>
        <time>2023-03-04T07:27:15.000Z</time>
      </trkpt>
      <trkpt lat="43.506" lon="6.66738">
        <ele>73.4</ele>
        <time>2023-03-04T07:27:16.000Z</time>
      </trkpt>
      <trkpt lat="43.50596" lon="6.66742">
        <ele>73.4</ele>
        <time>2023-03-04T07:27:17.000Z</time>
      </trkpt>
      <trkpt lat="43.50593" lon="6.66746">
        <ele>73.4</ele>
        <time>2023-03-04T07:27:18.000Z</time>
      </trkpt>
      <trkpt lat="43.5059" lon="6.6675">
        <ele>73.3</ele>
        <time>2023-03-04T07:27:19.000Z</time>
      </trkpt>
      <trkpt lat="43.50586" lon="6.66754">
        <ele>73.3</ele>
        <time>2023-03-04T07:27:20.000Z</time>
      </trkpt>
      <trkpt lat="43.50583" lon="6.6676">
        <ele>73.3</ele>
        <time>2023-03-04T07:27:21.000Z</time>
      </trkpt>
      <trkpt lat="43.50581" lon="6.66765">
        <ele>73.2</ele>
        <time>2023-03-04T07:27:22.000Z</time>
      </trkpt>
      <trkpt lat="43.50579" lon="6.66771">
        <ele>73.2</ele>
        <time>2023-03-04T07:27:23.000Z</time>
      </trkpt>
      <trkpt lat="43.50577" lon="6.66776">
        <ele>73.1</ele>
        <time>2023-03-04T07:27:24.000Z</time>
      </trkpt>
      <trkpt lat="43.50575" lon="6.66782">
        <ele>73.1</ele>
        <time>2023-03-04T07:27:25.000Z</time>
      </trkpt>
      <trkpt lat="43.50573" lon="6.66788">
        <ele>73.1</ele>
        <time>2023-03-04T07:27:26.000Z</time>
      </trkpt>
      <trkpt lat="43.50571" lon="6.66794">
        <ele>73</ele>
        <time>2023-03-04T07:27:27.000Z</time>
      </trkpt>
      <trkpt lat="43.50569" lon="6.668">
        <ele>73</ele>
        <time>2023-03-04T07:27:28.000Z</time>
      </trkpt>
      <trkpt lat="43.50568" lon="6.66807">
        <ele>72.9</ele>
        <time>2023-03-04T07:27:29.000Z</time>
      </trkpt>
      <trkpt lat="43.50567" lon="6.66814">
        <ele>72.7</ele>
        <time>2023-03-04T07:27:30.000Z</time>
      </trkpt>
      <trkpt lat="43.50566" lon="6.66821">
        <ele>72.6</ele>
        <time>2023-03-04T07:27:31.000Z</time>
      </trkpt>
      <trkpt lat="43.50566" lon="6.66828">
        <ele>72.5</ele>
        <time>2023-03-04T07:27:32.000Z</time>
      </trkpt>
      <trkpt lat="43.50566" lon="6.66836">
        <ele>72.4</ele>
        <time>2023-03-04T07:27:33.000Z</time>
      </trkpt>
      <trkpt lat="43.50567" lon="6.66843">
        <ele>72.2</ele>
        <time>2023-03-04T07:27:34.000Z</time>
      </trkpt>
      <trkpt lat="43.50568" lon="6.6685">
        <ele>72.1</ele>
        <time>2023-03-04T07:27:35.000Z</time>
      </trkpt>
      <trkpt lat="43.5057" lon="6.66857">
        <ele>71.9</ele>
        <time>2023-03-04T07:27:36.000Z</time>
      </trkpt>
      <trkpt lat="43.50571" lon="6.66864">
        <ele>71.8</ele>
        <time>2023-03-04T07:27:37.000Z</time>
      </trkpt>
      <trkpt lat="43.50572" lon="6.66871">
        <ele>71.7</ele>
        <time>2023-03-04T07:27:38.000Z</time>
      </trkpt>
      <trkpt lat="43.50574" lon="6.66878">
        <ele>71.6</ele>
        <time>2023-03-04T07:27:39.000Z</time>
      </trkpt>
      <trkpt lat="43.50575" lon="6.66885">
        <ele>71.4</ele>
        <time>2023-03-04T07:27:40.000Z</time>
      </trkpt>
      <trkpt lat="43.50577" lon="6.66893">
        <ele>71.3</ele>
        <time>2023-03-04T07:27:41.000Z</time>
      </trkpt>
      <trkpt lat="43.50578" lon="6.66901">
        <ele>71.1</ele>
        <time>2023-03-04T07:27:42.000Z</time>
      </trkpt>
      <trkpt lat="43.50579" lon="6.66909">
        <ele>71</ele>
        <time>2023-03-04T07:27:43.000Z</time>
      </trkpt>
      <trkpt lat="43.5058" lon="6.66916">
        <ele>70.9</ele>
        <time>2023-03-04T07:27:44.000Z</time>
      </trkpt>
      <trkpt lat="43.50581" lon="6.66923">
        <ele>70.8</ele>
        <time>2023-03-04T07:27:45.000Z</time>
      </trkpt>
      <trkpt lat="43.5058" lon="6.66931">
        <ele>70.7</ele>
        <time>2023-03-04T07:27:46.000Z</time>
      </trkpt>
      <trkpt lat="43.50579" lon="6.66938">
        <ele>70.7</ele>
        <time>2023-03-04T07:27:47.000Z</time>
      </trkpt>
      <trkpt lat="43.50577" lon="6.66945">
        <ele>70.6</ele>
        <time>2023-03-04T07:27:48.000Z</time>
      </trkpt>
      <trkpt lat="43.50574" lon="6.6695">
        <ele>70.6</ele>
        <time>2023-03-04T07:27:49.000Z</time>
      </trkpt>
      <trkpt lat="43.50571" lon="6.66956">
        <ele>70.6</ele>
        <time>2023-03-04T07:27:50.000Z</time>
      </trkpt>
      <trkpt lat="43.50567" lon="6.6696">
        <ele>70.6</ele>
        <time>2023-03-04T07:27:51.000Z</time>
      </trkpt>
      <trkpt lat="43.50563" lon="6.66963">
        <ele>70.6</ele>
        <time>2023-03-04T07:27:52.000Z</time>
      </trkpt>
      <trkpt lat="43.50559" lon="6.66966">
        <ele>70.6</ele>
        <time>2023-03-04T07:27:53.000Z</time>
      </trkpt>
      <trkpt lat="43.50555" lon="6.66969">
        <ele>70.6</ele>
        <time>2023-03-04T07:27:54.000Z</time>
      </trkpt>
      <trkpt lat="43.5055" lon="6.66973">
        <ele>70.7</ele>
        <time>2023-03-04T07:27:55.000Z</time>
      </trkpt>
      <trkpt lat="43.50547" lon="6.66977">
        <ele>70.7</ele>
        <time>2023-03-04T07:27:56.000Z</time>
      </trkpt>
      <trkpt lat="43.50543" lon="6.66981">
        <ele>70.8</ele>
        <time>2023-03-04T07:27:57.000Z</time>
      </trkpt>
      <trkpt lat="43.50539" lon="6.66985">
        <ele>70.8</ele>
        <time>2023-03-04T07:27:58.000Z</time>
      </trkpt>
      <trkpt lat="43.50535" lon="6.66989">
        <ele>70.9</ele>
        <time>2023-03-04T07:27:59.000Z</time>
      </trkpt>
      <trkpt lat="43.5053" lon="6.66993">
        <ele>71</ele>
        <time>2023-03-04T07:28:00.000Z</time>
      </trkpt>
      <trkpt lat="43.50526" lon="6.66996">
        <ele>71.1</ele>
        <time>2023-03-04T07:28:01.000Z</time>
      </trkpt>
      <trkpt lat="43.50522" lon="6.67">
        <ele>71.1</ele>
        <time>2023-03-04T07:28:02.000Z</time>
      </trkpt>
      <trkpt lat="43.50517" lon="6.67005">
        <ele>71.2</ele>
        <time>2023-03-04T07:28:03.000Z</time>
      </trkpt>
      <trkpt lat="43.50513" lon="6.67009">
        <ele>71.3</ele>
        <time>2023-03-04T07:28:04.000Z</time>
      </trkpt>
      <trkpt lat="43.50508" lon="6.67013">
        <ele>71.4</ele>
        <time>2023-03-04T07:28:05.000Z</time>
      </trkpt>
      <trkpt lat="43.50504" lon="6.67018">
        <ele>71.4</ele>
        <time>2023-03-04T07:28:06.000Z</time>
      </trkpt>
      <trkpt lat="43.505" lon="6.67023">
        <ele>71.5</ele>
        <time>2023-03-04T07:28:07.000Z</time>
      </trkpt>
      <trkpt lat="43.50495" lon="6.67028">
        <ele>71.5</ele>
        <time>2023-03-04T07:28:08.000Z</time>
      </trkpt>
      <trkpt lat="43.50491" lon="6.67033">
        <ele>71.5</ele>
        <time>2023-03-04T07:28:09.000Z</time>
      </trkpt>
      <trkpt lat="43.50487" lon="6.67038">
        <ele>71.5</ele>
        <time>2023-03-04T07:28:10.000Z</time>
      </trkpt>
      <trkpt lat="43.50484" lon="6.67043">
        <ele>71.4</ele>
        <time>2023-03-04T07:28:11.000Z</time>
      </trkpt>
      <trkpt lat="43.5048" lon="6.67049">
        <ele>71.4</ele>
        <time>2023-03-04T07:28:12.000Z</time>
      </trkpt>
      <trkpt lat="43.50476" lon="6.67054">
        <ele>71.3</ele>
        <time>2023-03-04T07:28:13.000Z</time>
      </trkpt>
      <trkpt lat="43.50471" lon="6.67059">
        <ele>71</ele>
        <time>2023-03-04T07:28:14.000Z</time>
      </trkpt>
      <trkpt lat="43.50467" lon="6.67064">
        <ele>70.8</ele>
        <time>2023-03-04T07:28:15.000Z</time>
      </trkpt>
      <trkpt lat="43.50461" lon="6.67069">
        <ele>70.5</ele>
        <time>2023-03-04T07:28:16.000Z</time>
      </trkpt>
      <trkpt lat="43.50456" lon="6.67074">
        <ele>70.3</ele>
        <time>2023-03-04T07:28:17.000Z</time>
      </trkpt>
      <trkpt lat="43.50451" lon="6.6708">
        <ele>70.1</ele>
        <time>2023-03-04T07:28:18.000Z</time>
      </trkpt>
      <trkpt lat="43.50446" lon="6.67085">
        <ele>69.9</ele>
        <time>2023-03-04T07:28:19.000Z</time>
      </trkpt>
      <trkpt lat="43.5044" lon="6.67089">
        <ele>69.8</ele>
        <time>2023-03-04T07:28:20.000Z</time>
      </trkpt>
      <trkpt lat="43.50435" lon="6.67093">
        <ele>69.8</ele>
        <time>2023-03-04T07:28:21.000Z</time>
      </trkpt>
      <trkpt lat="43.50429" lon="6.67097">
        <ele>69.8</ele>
        <time>2023-03-04T07:28:22.000Z</time>
      </trkpt>
      <trkpt lat="43.50424" lon="6.671">
        <ele>69.8</ele>
        <time>2023-03-04T07:28:23.000Z</time>
      </trkpt>
      <trkpt lat="43.5042" lon="6.67102">
        <ele>69.8</ele>
        <time>2023-03-04T07:28:24.000Z</time>
      </trkpt>
      <trkpt lat="43.50416" lon="6.67103">
        <ele>69.8</ele>
        <time>2023-03-04T07:28:25.000Z</time>
      </trkpt>
      <trkpt lat="43.50414" lon="6.67106">
        <ele>69.7</ele>
        <time>2023-03-04T07:28:26.000Z</time>
      </trkpt>
      <trkpt lat="43.50411" lon="6.67108">
        <ele>69.7</ele>
        <time>2023-03-04T07:28:27.000Z</time>
      </trkpt>
      <trkpt lat="43.5041" lon="6.67108">
        <ele>69.7</ele>
        <time>2023-03-04T07:28:28.000Z</time>
      </trkpt>
      <trkpt lat="43.50407" lon="6.67108">
        <ele>69.8</ele>
        <time>2023-03-04T07:28:29.000Z</time>
      </trkpt>
      <trkpt lat="43.50406" lon="6.67108">
        <ele>69.8</ele>
        <time>2023-03-04T07:28:30.000Z</time>
      </trkpt>
      <trkpt lat="43.50404" lon="6.67108">
        <ele>69.8</ele>
        <time>2023-03-04T07:28:31.000Z</time>
      </trkpt>
      <trkpt lat="43.50403" lon="6.67107">
        <ele>69.8</ele>
        <time>2023-03-04T07:28:32.000Z</time>
      </trkpt>
      <trkpt lat="43.50401" lon="6.67107">
        <ele>69.9</ele>
        <time>2023-03-04T07:28:33.000Z</time>
      </trkpt>
      <trkpt lat="43.50396" lon="6.67108">
        <ele>70</ele>
        <time>2023-03-04T07:28:35.000Z</time>
      </trkpt>
      <trkpt lat="43.50393" lon="6.6711">
        <ele>70</ele>
        <time>2023-03-04T07:28:36.000Z</time>
      </trkpt>
      <trkpt lat="43.5039" lon="6.67113">
        <ele>70.1</ele>
        <time>2023-03-04T07:28:37.000Z</time>
      </trkpt>
      <trkpt lat="43.50386" lon="6.67119">
        <ele>70.2</ele>
        <time>2023-03-04T07:28:39.000Z</time>
      </trkpt>
      <trkpt lat="43.50385" lon="6.67126">
        <ele>70.3</ele>
        <time>2023-03-04T07:28:40.000Z</time>
      </trkpt>
      <trkpt lat="43.50384" lon="6.67132">
        <ele>70.4</ele>
        <time>2023-03-04T07:28:42.000Z</time>
      </trkpt>
      <trkpt lat="43.50383" lon="6.67139">
        <ele>70.5</ele>
        <time>2023-03-04T07:28:43.000Z</time>
      </trkpt>
      <trkpt lat="43.50383" lon="6.67145">
        <ele>70.5</ele>
        <time>2023-03-04T07:28:44.000Z</time>
      </trkpt>
      <trkpt lat="43.50382" lon="6.67152">
        <ele>70.6</ele>
        <time>2023-03-04T07:28:45.000Z</time>
      </trkpt>
      <trkpt lat="43.50381" lon="6.67158">
        <ele>70.7</ele>
        <time>2023-03-04T07:28:46.000Z</time>
      </trkpt>
      <trkpt lat="43.5038" lon="6.67164">
        <ele>70.8</ele>
        <time>2023-03-04T07:28:47.000Z</time>
      </trkpt>
      <trkpt lat="43.50377" lon="6.6717">
        <ele>70.9</ele>
        <time>2023-03-04T07:28:49.000Z</time>
      </trkpt>
      <trkpt lat="43.50375" lon="6.67175">
        <ele>71</ele>
        <time>2023-03-04T07:28:50.000Z</time>
      </trkpt>
      <trkpt lat="43.50372" lon="6.67183">
        <ele>71.1</ele>
        <time>2023-03-04T07:28:51.000Z</time>
      </trkpt>
      <trkpt lat="43.5037" lon="6.67188">
        <ele>71.2</ele>
        <time>2023-03-04T07:28:52.000Z</time>
      </trkpt>
      <trkpt lat="43.50368" lon="6.67193">
        <ele>71.3</ele>
        <time>2023-03-04T07:28:54.000Z</time>
      </trkpt>
      <trkpt lat="43.50366" lon="6.67199">
        <ele>71.4</ele>
        <time>2023-03-04T07:28:55.000Z</time>
      </trkpt>
      <trkpt lat="43.50364" lon="6.67205">
        <ele>71.4</ele>
        <time>2023-03-04T07:28:56.000Z</time>
      </trkpt>
      <trkpt lat="43.50362" lon="6.67212">
        <ele>71.4</ele>
        <time>2023-03-04T07:28:57.000Z</time>
      </trkpt>
      <trkpt lat="43.5036" lon="6.67218">
        <ele>71.3</ele>
        <time>2023-03-04T07:28:58.000Z</time>
      </trkpt>
      <trkpt lat="43.50359" lon="6.67224">
        <ele>71.2</ele>
        <time>2023-03-04T07:28:59.000Z</time>
      </trkpt>
      <trkpt lat="43.50357" lon="6.6723">
        <ele>71.2</ele>
        <time>2023-03-04T07:29:01.000Z</time>
      </trkpt>
      <trkpt lat="43.50356" lon="6.67236">
        <ele>71.1</ele>
        <time>2023-03-04T07:29:02.000Z</time>
      </trkpt>
      <trkpt lat="43.50354" lon="6.67242">
        <ele>71.1</ele>
        <time>2023-03-04T07:29:03.000Z</time>
      </trkpt>
      <trkpt lat="43.50352" lon="6.67246">
        <ele>71.1</ele>
        <time>2023-03-04T07:29:04.000Z</time>
      </trkpt>
      <trkpt lat="43.5035" lon="6.67253">
        <ele>71.1</ele>
        <time>2023-03-04T07:29:05.000Z</time>
      </trkpt>
      <trkpt lat="43.50348" lon="6.67258">
        <ele>71.2</ele>
        <time>2023-03-04T07:29:06.000Z</time>
      </trkpt>
      <trkpt lat="43.50347" lon="6.67263">
        <ele>71.2</ele>
        <time>2023-03-04T07:29:07.000Z</time>
      </trkpt>
      <trkpt lat="43.50344" lon="6.6727">
        <ele>71.3</ele>
        <time>2023-03-04T07:29:09.000Z</time>
      </trkpt>
      <trkpt lat="43.50342" lon="6.67276">
        <ele>71.3</ele>
        <time>2023-03-04T07:29:10.000Z</time>
      </trkpt>
      <trkpt lat="43.5034" lon="6.67283">
        <ele>71.4</ele>
        <time>2023-03-04T07:29:11.000Z</time>
      </trkpt>
      <trkpt lat="43.50339" lon="6.67289">
        <ele>71.5</ele>
        <time>2023-03-04T07:29:12.000Z</time>
      </trkpt>
      <trkpt lat="43.50337" lon="6.67295">
        <ele>71.5</ele>
        <time>2023-03-04T07:29:13.000Z</time>
      </trkpt>
      <trkpt lat="43.50335" lon="6.67302">
        <ele>71.6</ele>
        <time>2023-03-04T07:29:15.000Z</time>
      </trkpt>
      <trkpt lat="43.50332" lon="6.67309">
        <ele>71.7</ele>
        <time>2023-03-04T07:29:16.000Z</time>
      </trkpt>
      <trkpt lat="43.50329" lon="6.67316">
        <ele>71.8</ele>
        <time>2023-03-04T07:29:17.000Z</time>
      </trkpt>
      <trkpt lat="43.50327" lon="6.67323">
        <ele>72.1</ele>
        <time>2023-03-04T07:29:18.000Z</time>
      </trkpt>
      <trkpt lat="43.50325" lon="6.67329">
        <ele>72.3</ele>
        <time>2023-03-04T07:29:19.000Z</time>
      </trkpt>
      <trkpt lat="43.50323" lon="6.67336">
        <ele>72.6</ele>
        <time>2023-03-04T07:29:21.000Z</time>
      </trkpt>
      <trkpt lat="43.50321" lon="6.6734">
        <ele>72.8</ele>
        <time>2023-03-04T07:29:22.000Z</time>
      </trkpt>
      <trkpt lat="43.50317" lon="6.67347">
        <ele>73.3</ele>
        <time>2023-03-04T07:29:23.000Z</time>
      </trkpt>
      <trkpt lat="43.50315" lon="6.67352">
        <ele>73.6</ele>
        <time>2023-03-04T07:29:24.000Z</time>
      </trkpt>
      <trkpt lat="43.50312" lon="6.67357">
        <ele>73.9</ele>
        <time>2023-03-04T07:29:25.000Z</time>
      </trkpt>
      <trkpt lat="43.50309" lon="6.67362">
        <ele>74.2</ele>
        <time>2023-03-04T07:29:26.000Z</time>
      </trkpt>
      <trkpt lat="43.50307" lon="6.67366">
        <ele>74.5</ele>
        <time>2023-03-04T07:29:27.000Z</time>
      </trkpt>
      <trkpt lat="43.50302" lon="6.67374">
        <ele>74.9</ele>
        <time>2023-03-04T07:29:29.000Z</time>
      </trkpt>
      <trkpt lat="43.50298" lon="6.67379">
        <ele>75.2</ele>
        <time>2023-03-04T07:29:30.000Z</time>
      </trkpt>
      <trkpt lat="43.50295" lon="6.67384">
        <ele>75.5</ele>
        <time>2023-03-04T07:29:31.000Z</time>
      </trkpt>
      <trkpt lat="43.50292" lon="6.67388">
        <ele>75.8</ele>
        <time>2023-03-04T07:29:33.000Z</time>
      </trkpt>
      <trkpt lat="43.50288" lon="6.67392">
        <ele>76.1</ele>
        <time>2023-03-04T07:29:34.000Z</time>
      </trkpt>
      <trkpt lat="43.50285" lon="6.67396">
        <ele>76.3</ele>
        <time>2023-03-04T07:29:35.000Z</time>
      </trkpt>
      <trkpt lat="43.5028" lon="6.67401">
        <ele>76.7</ele>
        <time>2023-03-04T07:29:36.000Z</time>
      </trkpt>
      <trkpt lat="43.50277" lon="6.67403">
        <ele>77</ele>
        <time>2023-03-04T07:29:37.000Z</time>
      </trkpt>
      <trkpt lat="43.50273" lon="6.67406">
        <ele>77.4</ele>
        <time>2023-03-04T07:29:38.000Z</time>
      </trkpt>
      <trkpt lat="43.50269" lon="6.67409">
        <ele>77.8</ele>
        <time>2023-03-04T07:29:39.000Z</time>
      </trkpt>
      <trkpt lat="43.50265" lon="6.67411">
        <ele>78.1</ele>
        <time>2023-03-04T07:29:41.000Z</time>
      </trkpt>
      <trkpt lat="43.50262" lon="6.67413">
        <ele>78.5</ele>
        <time>2023-03-04T07:29:42.000Z</time>
      </trkpt>
      <trkpt lat="43.50258" lon="6.67415">
        <ele>78.9</ele>
        <time>2023-03-04T07:29:43.000Z</time>
      </trkpt>
      <trkpt lat="43.50254" lon="6.67418">
        <ele>79.3</ele>
        <time>2023-03-04T07:29:44.000Z</time>
      </trkpt>
      <trkpt lat="43.5025" lon="6.67421">
        <ele>79.8</ele>
        <time>2023-03-04T07:29:45.000Z</time>
      </trkpt>
      <trkpt lat="43.50245" lon="6.67424">
        <ele>80.3</ele>
        <time>2023-03-04T07:29:46.000Z</time>
      </trkpt>
      <trkpt lat="43.50242" lon="6.67426">
        <ele>80.6</ele>
        <time>2023-03-04T07:29:47.000Z</time>
      </trkpt>
      <trkpt lat="43.50238" lon="6.6743">
        <ele>81.2</ele>
        <time>2023-03-04T07:29:49.000Z</time>
      </trkpt>
      <trkpt lat="43.50236" lon="6.67434">
        <ele>81.6</ele>
        <time>2023-03-04T07:29:50.000Z</time>
      </trkpt>
      <trkpt lat="43.50234" lon="6.67438">
        <ele>82.1</ele>
        <time>2023-03-04T07:29:51.000Z</time>
      </trkpt>
      <trkpt lat="43.50232" lon="6.67442">
        <ele>82.6</ele>
        <time>2023-03-04T07:29:52.000Z</time>
      </trkpt>
      <trkpt lat="43.5023" lon="6.67447">
        <ele>83.2</ele>
        <time>2023-03-04T07:29:53.000Z</time>
      </trkpt>
      <trkpt lat="43.50228" lon="6.67451">
        <ele>83.7</ele>
        <time>2023-03-04T07:29:54.000Z</time>
      </trkpt>
      <trkpt lat="43.50227" lon="6.67456">
        <ele>84.2</ele>
        <time>2023-03-04T07:29:55.000Z</time>
      </trkpt>
      <trkpt lat="43.50226" lon="6.6746">
        <ele>84.6</ele>
        <time>2023-03-04T07:29:57.000Z</time>
      </trkpt>
      <trkpt lat="43.50224" lon="6.67463">
        <ele>85</ele>
        <time>2023-03-04T07:29:58.000Z</time>
      </trkpt>
      <trkpt lat="43.50222" lon="6.67467">
        <ele>85.5</ele>
        <time>2023-03-04T07:29:59.000Z</time>
      </trkpt>
      <trkpt lat="43.50219" lon="6.67468">
        <ele>85.8</ele>
        <time>2023-03-04T07:30:00.000Z</time>
      </trkpt>
      <trkpt lat="43.50215" lon="6.67469">
        <ele>86.2</ele>
        <time>2023-03-04T07:30:01.000Z</time>
      </trkpt>
      <trkpt lat="43.5021" lon="6.67469">
        <ele>86.6</ele>
        <time>2023-03-04T07:30:02.000Z</time>
      </trkpt>
      <trkpt lat="43.50206" lon="6.67469">
        <ele>87</ele>
        <time>2023-03-04T07:30:03.000Z</time>
      </trkpt>
      <trkpt lat="43.50201" lon="6.67468">
        <ele>87.3</ele>
        <time>2023-03-04T07:30:05.000Z</time>
      </trkpt>
      <trkpt lat="43.50197" lon="6.67467">
        <ele>87.6</ele>
        <time>2023-03-04T07:30:06.000Z</time>
      </trkpt>
      <trkpt lat="43.50193" lon="6.67465">
        <ele>87.9</ele>
        <time>2023-03-04T07:30:07.000Z</time>
      </trkpt>
      <trkpt lat="43.50189" lon="6.67464">
        <ele>88.2</ele>
        <time>2023-03-04T07:30:08.000Z</time>
      </trkpt>
      <trkpt lat="43.50186" lon="6.67462">
        <ele>88.5</ele>
        <time>2023-03-04T07:30:09.000Z</time>
      </trkpt>
      <trkpt lat="43.50181" lon="6.6746">
        <ele>88.9</ele>
        <time>2023-03-04T07:30:10.000Z</time>
      </trkpt>
      <trkpt lat="43.50178" lon="6.67458">
        <ele>89.2</ele>
        <time>2023-03-04T07:30:11.000Z</time>
      </trkpt>
      <trkpt lat="43.50173" lon="6.67455">
        <ele>89.6</ele>
        <time>2023-03-04T07:30:13.000Z</time>
      </trkpt>
      <trkpt lat="43.50167" lon="6.67453">
        <ele>90.2</ele>
        <time>2023-03-04T07:30:14.000Z</time>
      </trkpt>
      <trkpt lat="43.50164" lon="6.67452">
        <ele>90.6</ele>
        <time>2023-03-04T07:30:15.000Z</time>
      </trkpt>
      <trkpt lat="43.5016" lon="6.67452">
        <ele>91</ele>
        <time>2023-03-04T07:30:17.000Z</time>
      </trkpt>
      <trkpt lat="43.50157" lon="6.67452">
        <ele>91.3</ele>
        <time>2023-03-04T07:30:18.000Z</time>
      </trkpt>
      <trkpt lat="43.50152" lon="6.67453">
        <ele>91.7</ele>
        <time>2023-03-04T07:30:19.000Z</time>
      </trkpt>
      <trkpt lat="43.50148" lon="6.67454">
        <ele>92.1</ele>
        <time>2023-03-04T07:30:20.000Z</time>
      </trkpt>
      <trkpt lat="43.50144" lon="6.67455">
        <ele>92.4</ele>
        <time>2023-03-04T07:30:21.000Z</time>
      </trkpt>
      <trkpt lat="43.5014" lon="6.67456">
        <ele>92.7</ele>
        <time>2023-03-04T07:30:22.000Z</time>
      </trkpt>
      <trkpt lat="43.50136" lon="6.67458">
        <ele>92.9</ele>
        <time>2023-03-04T07:30:23.000Z</time>
      </trkpt>
      <trkpt lat="43.50132" lon="6.67463">
        <ele>93</ele>
        <time>2023-03-04T07:30:25.000Z</time>
      </trkpt>
      <trkpt lat="43.50129" lon="6.67468">
        <ele>93.1</ele>
        <time>2023-03-04T07:30:26.000Z</time>
      </trkpt>
      <trkpt lat="43.50126" lon="6.67475">
        <ele>93.2</ele>
        <time>2023-03-04T07:30:27.000Z</time>
      </trkpt>
      <trkpt lat="43.50125" lon="6.6748">
        <ele>93.2</ele>
        <time>2023-03-04T07:30:28.000Z</time>
      </trkpt>
      <trkpt lat="43.50125" lon="6.67486">
        <ele>93.3</ele>
        <time>2023-03-04T07:30:29.000Z</time>
      </trkpt>
      <trkpt lat="43.50125" lon="6.67492">
        <ele>93.3</ele>
        <time>2023-03-04T07:30:31.000Z</time>
      </trkpt>
      <trkpt lat="43.50123" lon="6.675">
        <ele>93.4</ele>
        <time>2023-03-04T07:30:32.000Z</time>
      </trkpt>
      <trkpt lat="43.50122" lon="6.67506">
        <ele>93.4</ele>
        <time>2023-03-04T07:30:33.000Z</time>
      </trkpt>
      <trkpt lat="43.50119" lon="6.67514">
        <ele>93.4</ele>
        <time>2023-03-04T07:30:35.000Z</time>
      </trkpt>
      <trkpt lat="43.50118" lon="6.67518">
        <ele>93.5</ele>
        <time>2023-03-04T07:30:36.000Z</time>
      </trkpt>
      <trkpt lat="43.50118" lon="6.67522">
        <ele>93.5</ele>
        <time>2023-03-04T07:30:37.000Z</time>
      </trkpt>
      <trkpt lat="43.50118" lon="6.67529">
        <ele>93.5</ele>
        <time>2023-03-04T07:30:39.000Z</time>
      </trkpt>
      <trkpt lat="43.50117" lon="6.67536">
        <ele>93.6</ele>
        <time>2023-03-04T07:30:40.000Z</time>
      </trkpt>
      <trkpt lat="43.50115" lon="6.67543">
        <ele>93.6</ele>
        <time>2023-03-04T07:30:42.000Z</time>
      </trkpt>
      <trkpt lat="43.50114" lon="6.67549">
        <ele>93.7</ele>
        <time>2023-03-04T07:30:43.000Z</time>
      </trkpt>
      <trkpt lat="43.50112" lon="6.67557">
        <ele>93.8</ele>
        <time>2023-03-04T07:30:44.000Z</time>
      </trkpt>
      <trkpt lat="43.5011" lon="6.67563">
        <ele>93.8</ele>
        <time>2023-03-04T07:30:45.000Z</time>
      </trkpt>
      <trkpt lat="43.50109" lon="6.67568">
        <ele>93.8</ele>
        <time>2023-03-04T07:30:46.000Z</time>
      </trkpt>
      <trkpt lat="43.50106" lon="6.67577">
        <ele>93.9</ele>
        <time>2023-03-04T07:30:48.000Z</time>
      </trkpt>
      <trkpt lat="43.50103" lon="6.67581">
        <ele>93.9</ele>
        <time>2023-03-04T07:30:49.000Z</time>
      </trkpt>
      <trkpt lat="43.501" lon="6.67586">
        <ele>93.9</ele>
        <time>2023-03-04T07:30:50.000Z</time>
      </trkpt>
      <trkpt lat="43.50097" lon="6.67591">
        <ele>93.9</ele>
        <time>2023-03-04T07:30:52.000Z</time>
      </trkpt>
      <trkpt lat="43.50093" lon="6.67596">
        <ele>93.9</ele>
        <time>2023-03-04T07:30:53.000Z</time>
      </trkpt>
      <trkpt lat="43.50089" lon="6.67602">
        <ele>93.9</ele>
        <time>2023-03-04T07:30:54.000Z</time>
      </trkpt>
      <trkpt lat="43.50086" lon="6.67605">
        <ele>93.9</ele>
        <time>2023-03-04T07:30:55.000Z</time>
      </trkpt>
      <trkpt lat="43.50082" lon="6.67609">
        <ele>93.8</ele>
        <time>2023-03-04T07:30:56.000Z</time>
      </trkpt>
      <trkpt lat="43.50079" lon="6.67615">
        <ele>93.8</ele>
        <time>2023-03-04T07:30:58.000Z</time>
      </trkpt>
      <trkpt lat="43.50077" lon="6.67619">
        <ele>93.7</ele>
        <time>2023-03-04T07:30:59.000Z</time>
      </trkpt>
      <trkpt lat="43.50077" lon="6.67625">
        <ele>93.7</ele>
        <time>2023-03-04T07:31:00.000Z</time>
      </trkpt>
      <trkpt lat="43.50079" lon="6.67632">
        <ele>93.6</ele>
        <time>2023-03-04T07:31:01.000Z</time>
      </trkpt>
      <trkpt lat="43.5008" lon="6.67639">
        <ele>93.5</ele>
        <time>2023-03-04T07:31:02.000Z</time>
      </trkpt>
      <trkpt lat="43.5008" lon="6.67648">
        <ele>93.4</ele>
        <time>2023-03-04T07:31:03.000Z</time>
      </trkpt>
      <trkpt lat="43.50077" lon="6.67655">
        <ele>93.3</ele>
        <time>2023-03-04T07:31:04.000Z</time>
      </trkpt>
      <trkpt lat="43.50071" lon="6.67667">
        <ele>93.2</ele>
        <time>2023-03-04T07:31:06.000Z</time>
      </trkpt>
      <trkpt lat="43.50068" lon="6.67673">
        <ele>92.6</ele>
        <time>2023-03-04T07:31:07.000Z</time>
      </trkpt>
      <trkpt lat="43.50068" lon="6.6768">
        <ele>92.6</ele>
        <time>2023-03-04T07:31:08.000Z</time>
      </trkpt>
      <trkpt lat="43.50069" lon="6.67687">
        <ele>92.7</ele>
        <time>2023-03-04T07:31:09.000Z</time>
      </trkpt>
      <trkpt lat="43.5007" lon="6.67694">
        <ele>92.7</ele>
        <time>2023-03-04T07:31:10.000Z</time>
      </trkpt>
      <trkpt lat="43.50072" lon="6.67701">
        <ele>92.8</ele>
        <time>2023-03-04T07:31:11.000Z</time>
      </trkpt>
      <trkpt lat="43.50073" lon="6.67708">
        <ele>92.9</ele>
        <time>2023-03-04T07:31:12.000Z</time>
      </trkpt>
      <trkpt lat="43.50074" lon="6.67714">
        <ele>92.9</ele>
        <time>2023-03-04T07:31:13.000Z</time>
      </trkpt>
      <trkpt lat="43.50075" lon="6.67721">
        <ele>92.9</ele>
        <time>2023-03-04T07:31:14.000Z</time>
      </trkpt>
      <trkpt lat="43.50074" lon="6.67727">
        <ele>92.9</ele>
        <time>2023-03-04T07:31:15.000Z</time>
      </trkpt>
      <trkpt lat="43.50072" lon="6.67733">
        <ele>92.8</ele>
        <time>2023-03-04T07:31:17.000Z</time>
      </trkpt>
      <trkpt lat="43.50071" lon="6.67737">
        <ele>92.8</ele>
        <time>2023-03-04T07:31:18.000Z</time>
      </trkpt>
      <trkpt lat="43.50069" lon="6.67743">
        <ele>92.6</ele>
        <time>2023-03-04T07:31:19.000Z</time>
      </trkpt>
      <trkpt lat="43.50068" lon="6.67748">
        <ele>92.5</ele>
        <time>2023-03-04T07:31:20.000Z</time>
      </trkpt>
      <trkpt lat="43.50066" lon="6.67754">
        <ele>92.3</ele>
        <time>2023-03-04T07:31:21.000Z</time>
      </trkpt>
      <trkpt lat="43.50064" lon="6.6776">
        <ele>92</ele>
        <time>2023-03-04T07:31:22.000Z</time>
      </trkpt>
      <trkpt lat="43.50063" lon="6.67765">
        <ele>91.9</ele>
        <time>2023-03-04T07:31:23.000Z</time>
      </trkpt>
      <trkpt lat="43.50061" lon="6.67775">
        <ele>91.4</ele>
        <time>2023-03-04T07:31:25.000Z</time>
      </trkpt>
      <trkpt lat="43.5006" lon="6.67782">
        <ele>91.1</ele>
        <time>2023-03-04T07:31:26.000Z</time>
      </trkpt>
      <trkpt lat="43.5006" lon="6.67789">
        <ele>90.8</ele>
        <time>2023-03-04T07:31:27.000Z</time>
      </trkpt>
      <trkpt lat="43.50059" lon="6.67795">
        <ele>90.5</ele>
        <time>2023-03-04T07:31:28.000Z</time>
      </trkpt>
      <trkpt lat="43.50057" lon="6.67801">
        <ele>90.2</ele>
        <time>2023-03-04T07:31:29.000Z</time>
      </trkpt>
      <trkpt lat="43.50056" lon="6.67808">
        <ele>89.9</ele>
        <time>2023-03-04T07:31:30.000Z</time>
      </trkpt>
      <trkpt lat="43.50055" lon="6.67815">
        <ele>89.6</ele>
        <time>2023-03-04T07:31:31.000Z</time>
      </trkpt>
      <trkpt lat="43.50053" lon="6.67822">
        <ele>89.3</ele>
        <time>2023-03-04T07:31:32.000Z</time>
      </trkpt>
      <trkpt lat="43.50051" lon="6.6783">
        <ele>89.1</ele>
        <time>2023-03-04T07:31:33.000Z</time>
      </trkpt>
      <trkpt lat="43.50049" lon="6.67838">
        <ele>88.9</ele>
        <time>2023-03-04T07:31:34.000Z</time>
      </trkpt>
      <trkpt lat="43.50048" lon="6.67845">
        <ele>88.7</ele>
        <time>2023-03-04T07:31:35.000Z</time>
      </trkpt>
      <trkpt lat="43.50046" lon="6.67853">
        <ele>88.5</ele>
        <time>2023-03-04T07:31:36.000Z</time>
      </trkpt>
      <trkpt lat="43.50045" lon="6.67861">
        <ele>88.4</ele>
        <time>2023-03-04T07:31:37.000Z</time>
      </trkpt>
      <trkpt lat="43.50043" lon="6.67868">
        <ele>88.4</ele>
        <time>2023-03-04T07:31:38.000Z</time>
      </trkpt>
      <trkpt lat="43.50041" lon="6.67874">
        <ele>88.4</ele>
        <time>2023-03-04T07:31:39.000Z</time>
      </trkpt>
      <trkpt lat="43.50039" lon="6.6788">
        <ele>88.4</ele>
        <time>2023-03-04T07:31:40.000Z</time>
      </trkpt>
      <trkpt lat="43.50038" lon="6.67887">
        <ele>88.5</ele>
        <time>2023-03-04T07:31:41.000Z</time>
      </trkpt>
      <trkpt lat="43.50036" lon="6.67892">
        <ele>88.6</ele>
        <time>2023-03-04T07:31:42.000Z</time>
      </trkpt>
      <trkpt lat="43.50035" lon="6.67899">
        <ele>88.7</ele>
        <time>2023-03-04T07:31:43.000Z</time>
      </trkpt>
      <trkpt lat="43.50033" lon="6.67905">
        <ele>88.8</ele>
        <time>2023-03-04T07:31:44.000Z</time>
      </trkpt>
      <trkpt lat="43.50032" lon="6.67911">
        <ele>88.9</ele>
        <time>2023-03-04T07:31:45.000Z</time>
      </trkpt>
      <trkpt lat="43.5003" lon="6.67916">
        <ele>89.1</ele>
        <time>2023-03-04T07:31:46.000Z</time>
      </trkpt>
      <trkpt lat="43.50029" lon="6.67922">
        <ele>89.2</ele>
        <time>2023-03-04T07:31:47.000Z</time>
      </trkpt>
      <trkpt lat="43.50027" lon="6.67929">
        <ele>89.3</ele>
        <time>2023-03-04T07:31:48.000Z</time>
      </trkpt>
      <trkpt lat="43.50025" lon="6.67935">
        <ele>89.5</ele>
        <time>2023-03-04T07:31:49.000Z</time>
      </trkpt>
      <trkpt lat="43.50024" lon="6.6794">
        <ele>89.6</ele>
        <time>2023-03-04T07:31:50.000Z</time>
      </trkpt>
      <trkpt lat="43.50023" lon="6.67944">
        <ele>89.6</ele>
        <time>2023-03-04T07:31:51.000Z</time>
      </trkpt>
      <trkpt lat="43.5002" lon="6.6795">
        <ele>89.7</ele>
        <time>2023-03-04T07:31:53.000Z</time>
      </trkpt>
      <trkpt lat="43.50017" lon="6.67956">
        <ele>89.8</ele>
        <time>2023-03-04T07:31:54.000Z</time>
      </trkpt>
      <trkpt lat="43.50013" lon="6.67963">
        <ele>89.9</ele>
        <time>2023-03-04T07:31:55.000Z</time>
      </trkpt>
      <trkpt lat="43.5001" lon="6.67967">
        <ele>89.9</ele>
        <time>2023-03-04T07:31:56.000Z</time>
      </trkpt>
      <trkpt lat="43.50006" lon="6.67972">
        <ele>89.9</ele>
        <time>2023-03-04T07:31:57.000Z</time>
      </trkpt>
      <trkpt lat="43.5" lon="6.67977">
        <ele>89.9</ele>
        <time>2023-03-04T07:31:58.000Z</time>
      </trkpt>
      <trkpt lat="43.49996" lon="6.67982">
        <ele>89.9</ele>
        <time>2023-03-04T07:31:59.000Z</time>
      </trkpt>
      <trkpt lat="43.49992" lon="6.67987">
        <ele>89.9</ele>
        <time>2023-03-04T07:32:00.000Z</time>
      </trkpt>
      <trkpt lat="43.49989" lon="6.67991">
        <ele>89.9</ele>
        <time>2023-03-04T07:32:01.000Z</time>
      </trkpt>
      <trkpt lat="43.49985" lon="6.67994">
        <ele>89.9</ele>
        <time>2023-03-04T07:32:02.000Z</time>
      </trkpt>
      <trkpt lat="43.4998" lon="6.67997">
        <ele>89.8</ele>
        <time>2023-03-04T07:32:03.000Z</time>
      </trkpt>
      <trkpt lat="43.49976" lon="6.68">
        <ele>89.8</ele>
        <time>2023-03-04T07:32:04.000Z</time>
      </trkpt>
      <trkpt lat="43.49972" lon="6.68004">
        <ele>89.7</ele>
        <time>2023-03-04T07:32:05.000Z</time>
      </trkpt>
      <trkpt lat="43.49969" lon="6.68006">
        <ele>89.7</ele>
        <time>2023-03-04T07:32:06.000Z</time>
      </trkpt>
      <trkpt lat="43.49964" lon="6.68009">
        <ele>89.6</ele>
        <time>2023-03-04T07:32:07.000Z</time>
      </trkpt>
      <trkpt lat="43.4996" lon="6.68012">
        <ele>89.4</ele>
        <time>2023-03-04T07:32:08.000Z</time>
      </trkpt>
      <trkpt lat="43.49956" lon="6.68014">
        <ele>89.2</ele>
        <time>2023-03-04T07:32:09.000Z</time>
      </trkpt>
      <trkpt lat="43.4995" lon="6.68017">
        <ele>89</ele>
        <time>2023-03-04T07:32:10.000Z</time>
      </trkpt>
      <trkpt lat="43.49944" lon="6.6802">
        <ele>88.8</ele>
        <time>2023-03-04T07:32:11.000Z</time>
      </trkpt>
      <trkpt lat="43.49939" lon="6.68023">
        <ele>88.6</ele>
        <time>2023-03-04T07:32:12.000Z</time>
      </trkpt>
      <trkpt lat="43.49933" lon="6.68027">
        <ele>88.4</ele>
        <time>2023-03-04T07:32:13.000Z</time>
      </trkpt>
      <trkpt lat="43.49929" lon="6.68032">
        <ele>88.3</ele>
        <time>2023-03-04T07:32:14.000Z</time>
      </trkpt>
      <trkpt lat="43.49924" lon="6.68037">
        <ele>88.2</ele>
        <time>2023-03-04T07:32:15.000Z</time>
      </trkpt>
      <trkpt lat="43.49919" lon="6.68041">
        <ele>88.3</ele>
        <time>2023-03-04T07:32:16.000Z</time>
      </trkpt>
      <trkpt lat="43.49915" lon="6.68045">
        <ele>88.4</ele>
        <time>2023-03-04T07:32:17.000Z</time>
      </trkpt>
      <trkpt lat="43.49911" lon="6.68049">
        <ele>88.4</ele>
        <time>2023-03-04T07:32:18.000Z</time>
      </trkpt>
      <trkpt lat="43.49907" lon="6.68052">
        <ele>88.3</ele>
        <time>2023-03-04T07:32:19.000Z</time>
      </trkpt>
      <trkpt lat="43.49902" lon="6.68054">
        <ele>88.2</ele>
        <time>2023-03-04T07:32:20.000Z</time>
      </trkpt>
      <trkpt lat="43.49897" lon="6.68057">
        <ele>88.1</ele>
        <time>2023-03-04T07:32:21.000Z</time>
      </trkpt>
      <trkpt lat="43.49892" lon="6.68059">
        <ele>87.9</ele>
        <time>2023-03-04T07:32:22.000Z</time>
      </trkpt>
      <trkpt lat="43.49887" lon="6.68061">
        <ele>87.8</ele>
        <time>2023-03-04T07:32:23.000Z</time>
      </trkpt>
      <trkpt lat="43.49882" lon="6.68062">
        <ele>87.6</ele>
        <time>2023-03-04T07:32:24.000Z</time>
      </trkpt>
      <trkpt lat="43.49876" lon="6.68062">
        <ele>87.4</ele>
        <time>2023-03-04T07:32:25.000Z</time>
      </trkpt>
      <trkpt lat="43.49871" lon="6.68061">
        <ele>87.3</ele>
        <time>2023-03-04T07:32:26.000Z</time>
      </trkpt>
      <trkpt lat="43.49866" lon="6.68061">
        <ele>87.2</ele>
        <time>2023-03-04T07:32:27.000Z</time>
      </trkpt>
      <trkpt lat="43.4986" lon="6.68062">
        <ele>87</ele>
        <time>2023-03-04T07:32:28.000Z</time>
      </trkpt>
      <trkpt lat="43.49854" lon="6.68063">
        <ele>86.9</ele>
        <time>2023-03-04T07:32:29.000Z</time>
      </trkpt>
      <trkpt lat="43.49848" lon="6.68067">
        <ele>86.7</ele>
        <time>2023-03-04T07:32:30.000Z</time>
      </trkpt>
      <trkpt lat="43.49844" lon="6.68071">
        <ele>86.5</ele>
        <time>2023-03-04T07:32:31.000Z</time>
      </trkpt>
      <trkpt lat="43.49839" lon="6.68075">
        <ele>86.4</ele>
        <time>2023-03-04T07:32:32.000Z</time>
      </trkpt>
      <trkpt lat="43.49835" lon="6.6808">
        <ele>86.2</ele>
        <time>2023-03-04T07:32:33.000Z</time>
      </trkpt>
      <trkpt lat="43.4983" lon="6.68084">
        <ele>86</ele>
        <time>2023-03-04T07:32:34.000Z</time>
      </trkpt>
      <trkpt lat="43.49826" lon="6.68088">
        <ele>85.7</ele>
        <time>2023-03-04T07:32:35.000Z</time>
      </trkpt>
      <trkpt lat="43.49821" lon="6.68093">
        <ele>85.4</ele>
        <time>2023-03-04T07:32:36.000Z</time>
      </trkpt>
      <trkpt lat="43.49817" lon="6.68098">
        <ele>85.1</ele>
        <time>2023-03-04T07:32:37.000Z</time>
      </trkpt>
      <trkpt lat="43.49812" lon="6.68102">
        <ele>84.8</ele>
        <time>2023-03-04T07:32:38.000Z</time>
      </trkpt>
      <trkpt lat="43.49808" lon="6.68106">
        <ele>84.4</ele>
        <time>2023-03-04T07:32:39.000Z</time>
      </trkpt>
      <trkpt lat="43.49803" lon="6.68111">
        <ele>84.1</ele>
        <time>2023-03-04T07:32:40.000Z</time>
      </trkpt>
      <trkpt lat="43.49797" lon="6.68115">
        <ele>83.7</ele>
        <time>2023-03-04T07:32:41.000Z</time>
      </trkpt>
      <trkpt lat="43.49791" lon="6.68119">
        <ele>83.3</ele>
        <time>2023-03-04T07:32:42.000Z</time>
      </trkpt>
      <trkpt lat="43.49785" lon="6.68124">
        <ele>83.1</ele>
        <time>2023-03-04T07:32:43.000Z</time>
      </trkpt>
      <trkpt lat="43.4978" lon="6.68129">
        <ele>82.8</ele>
        <time>2023-03-04T07:32:44.000Z</time>
      </trkpt>
      <trkpt lat="43.49775" lon="6.68133">
        <ele>82.7</ele>
        <time>2023-03-04T07:32:45.000Z</time>
      </trkpt>
      <trkpt lat="43.4977" lon="6.68139">
        <ele>82.6</ele>
        <time>2023-03-04T07:32:46.000Z</time>
      </trkpt>
      <trkpt lat="43.49765" lon="6.68143">
        <ele>82.5</ele>
        <time>2023-03-04T07:32:47.000Z</time>
      </trkpt>
      <trkpt lat="43.4976" lon="6.68148">
        <ele>82.4</ele>
        <time>2023-03-04T07:32:48.000Z</time>
      </trkpt>
      <trkpt lat="43.49756" lon="6.68153">
        <ele>82.4</ele>
        <time>2023-03-04T07:32:49.000Z</time>
      </trkpt>
      <trkpt lat="43.49753" lon="6.68158">
        <ele>82.4</ele>
        <time>2023-03-04T07:32:50.000Z</time>
      </trkpt>
      <trkpt lat="43.4975" lon="6.68161">
        <ele>82.5</ele>
        <time>2023-03-04T07:32:51.000Z</time>
      </trkpt>
      <trkpt lat="43.49747" lon="6.68164">
        <ele>82.6</ele>
        <time>2023-03-04T07:32:52.000Z</time>
      </trkpt>
      <trkpt lat="43.49745" lon="6.68166">
        <ele>82.6</ele>
        <time>2023-03-04T07:32:53.000Z</time>
      </trkpt>
      <trkpt lat="43.4974" lon="6.68172">
        <ele>82.8</ele>
        <time>2023-03-04T07:32:54.000Z</time>
      </trkpt>
      <trkpt lat="43.49737" lon="6.68177">
        <ele>83</ele>
        <time>2023-03-04T07:32:55.000Z</time>
      </trkpt>
      <trkpt lat="43.49734" lon="6.68183">
        <ele>83.2</ele>
        <time>2023-03-04T07:32:56.000Z</time>
      </trkpt>
      <trkpt lat="43.49731" lon="6.68189">
        <ele>83.4</ele>
        <time>2023-03-04T07:32:57.000Z</time>
      </trkpt>
      <trkpt lat="43.49728" lon="6.68194">
        <ele>83.6</ele>
        <time>2023-03-04T07:32:58.000Z</time>
      </trkpt>
      <trkpt lat="43.49726" lon="6.68199">
        <ele>83.7</ele>
        <time>2023-03-04T07:33:00.000Z</time>
      </trkpt>
      <trkpt lat="43.49724" lon="6.68202">
        <ele>83.9</ele>
        <time>2023-03-04T07:33:01.000Z</time>
      </trkpt>
      <trkpt lat="43.49721" lon="6.68209">
        <ele>84</ele>
        <time>2023-03-04T07:33:02.000Z</time>
      </trkpt>
      <trkpt lat="43.49718" lon="6.68215">
        <ele>84.1</ele>
        <time>2023-03-04T07:33:03.000Z</time>
      </trkpt>
      <trkpt lat="43.49715" lon="6.6822">
        <ele>84.2</ele>
        <time>2023-03-04T07:33:04.000Z</time>
      </trkpt>
      <trkpt lat="43.49713" lon="6.68225">
        <ele>84.2</ele>
        <time>2023-03-04T07:33:05.000Z</time>
      </trkpt>
      <trkpt lat="43.4971" lon="6.68229">
        <ele>84.3</ele>
        <time>2023-03-04T07:33:06.000Z</time>
      </trkpt>
      <trkpt lat="43.49708" lon="6.68234">
        <ele>84.3</ele>
        <time>2023-03-04T07:33:07.000Z</time>
      </trkpt>
      <trkpt lat="43.49705" lon="6.6824">
        <ele>84.2</ele>
        <time>2023-03-04T07:33:09.000Z</time>
      </trkpt>
      <trkpt lat="43.49702" lon="6.68246">
        <ele>84.1</ele>
        <time>2023-03-04T07:33:10.000Z</time>
      </trkpt>
      <trkpt lat="43.49699" lon="6.68251">
        <ele>84.1</ele>
        <time>2023-03-04T07:33:11.000Z</time>
      </trkpt>
      <trkpt lat="43.49696" lon="6.68256">
        <ele>84</ele>
        <time>2023-03-04T07:33:12.000Z</time>
      </trkpt>
      <trkpt lat="43.49694" lon="6.68261">
        <ele>83.9</ele>
        <time>2023-03-04T07:33:13.000Z</time>
      </trkpt>
      <trkpt lat="43.4969" lon="6.68267">
        <ele>83.7</ele>
        <time>2023-03-04T07:33:14.000Z</time>
      </trkpt>
      <trkpt lat="43.49688" lon="6.68272">
        <ele>83.6</ele>
        <time>2023-03-04T07:33:15.000Z</time>
      </trkpt>
      <trkpt lat="43.49685" lon="6.68277">
        <ele>83.4</ele>
        <time>2023-03-04T07:33:17.000Z</time>
      </trkpt>
      <trkpt lat="43.49681" lon="6.68284">
        <ele>83.1</ele>
        <time>2023-03-04T07:33:18.000Z</time>
      </trkpt>
      <trkpt lat="43.49679" lon="6.6829">
        <ele>82.9</ele>
        <time>2023-03-04T07:33:19.000Z</time>
      </trkpt>
      <trkpt lat="43.49676" lon="6.68296">
        <ele>82.6</ele>
        <time>2023-03-04T07:33:20.000Z</time>
      </trkpt>
      <trkpt lat="43.49673" lon="6.68302">
        <ele>82.3</ele>
        <time>2023-03-04T07:33:21.000Z</time>
      </trkpt>
      <trkpt lat="43.4967" lon="6.68307">
        <ele>82</ele>
        <time>2023-03-04T07:33:22.000Z</time>
      </trkpt>
      <trkpt lat="43.49667" lon="6.68312">
        <ele>81.7</ele>
        <time>2023-03-04T07:33:23.000Z</time>
      </trkpt>
      <trkpt lat="43.49664" lon="6.68318">
        <ele>81.4</ele>
        <time>2023-03-04T07:33:24.000Z</time>
      </trkpt>
      <trkpt lat="43.49661" lon="6.68323">
        <ele>81.1</ele>
        <time>2023-03-04T07:33:25.000Z</time>
      </trkpt>
      <trkpt lat="43.49658" lon="6.68329">
        <ele>80.8</ele>
        <time>2023-03-04T07:33:26.000Z</time>
      </trkpt>
      <trkpt lat="43.49656" lon="6.68334">
        <ele>80.6</ele>
        <time>2023-03-04T07:33:27.000Z</time>
      </trkpt>
      <trkpt lat="43.49653" lon="6.6834">
        <ele>80.2</ele>
        <time>2023-03-04T07:33:28.000Z</time>
      </trkpt>
      <trkpt lat="43.4965" lon="6.68346">
        <ele>79.9</ele>
        <time>2023-03-04T07:33:29.000Z</time>
      </trkpt>
      <trkpt lat="43.49647" lon="6.68352">
        <ele>79.6</ele>
        <time>2023-03-04T07:33:30.000Z</time>
      </trkpt>
      <trkpt lat="43.49644" lon="6.68358">
        <ele>79.3</ele>
        <time>2023-03-04T07:33:31.000Z</time>
      </trkpt>
      <trkpt lat="43.49641" lon="6.68364">
        <ele>79.1</ele>
        <time>2023-03-04T07:33:32.000Z</time>
      </trkpt>
      <trkpt lat="43.49638" lon="6.68369">
        <ele>78.9</ele>
        <time>2023-03-04T07:33:33.000Z</time>
      </trkpt>
      <trkpt lat="43.49635" lon="6.68375">
        <ele>78.6</ele>
        <time>2023-03-04T07:33:34.000Z</time>
      </trkpt>
      <trkpt lat="43.49631" lon="6.68382">
        <ele>78.4</ele>
        <time>2023-03-04T07:33:35.000Z</time>
      </trkpt>
      <trkpt lat="43.49628" lon="6.68388">
        <ele>78.2</ele>
        <time>2023-03-04T07:33:36.000Z</time>
      </trkpt>
      <trkpt lat="43.49625" lon="6.68394">
        <ele>78</ele>
        <time>2023-03-04T07:33:37.000Z</time>
      </trkpt>
      <trkpt lat="43.49621" lon="6.68401">
        <ele>77.8</ele>
        <time>2023-03-04T07:33:38.000Z</time>
      </trkpt>
      <trkpt lat="43.49617" lon="6.68407">
        <ele>77.6</ele>
        <time>2023-03-04T07:33:39.000Z</time>
      </trkpt>
      <trkpt lat="43.49614" lon="6.68414">
        <ele>77.5</ele>
        <time>2023-03-04T07:33:40.000Z</time>
      </trkpt>
      <trkpt lat="43.49611" lon="6.68421">
        <ele>77.3</ele>
        <time>2023-03-04T07:33:41.000Z</time>
      </trkpt>
      <trkpt lat="43.49608" lon="6.68427">
        <ele>77.1</ele>
        <time>2023-03-04T07:33:42.000Z</time>
      </trkpt>
      <trkpt lat="43.49605" lon="6.68433">
        <ele>76.9</ele>
        <time>2023-03-04T07:33:43.000Z</time>
      </trkpt>
      <trkpt lat="43.49602" lon="6.68438">
        <ele>76.7</ele>
        <time>2023-03-04T07:33:44.000Z</time>
      </trkpt>
      <trkpt lat="43.49598" lon="6.68444">
        <ele>76.5</ele>
        <time>2023-03-04T07:33:45.000Z</time>
      </trkpt>
      <trkpt lat="43.49595" lon="6.6845">
        <ele>76.2</ele>
        <time>2023-03-04T07:33:46.000Z</time>
      </trkpt>
      <trkpt lat="43.49591" lon="6.68456">
        <ele>75.9</ele>
        <time>2023-03-04T07:33:47.000Z</time>
      </trkpt>
      <trkpt lat="43.49587" lon="6.68462">
        <ele>75.6</ele>
        <time>2023-03-04T07:33:48.000Z</time>
      </trkpt>
      <trkpt lat="43.49584" lon="6.68469">
        <ele>75.3</ele>
        <time>2023-03-04T07:33:49.000Z</time>
      </trkpt>
      <trkpt lat="43.4958" lon="6.68475">
        <ele>75</ele>
        <time>2023-03-04T07:33:50.000Z</time>
      </trkpt>
      <trkpt lat="43.49577" lon="6.68481">
        <ele>74.7</ele>
        <time>2023-03-04T07:33:51.000Z</time>
      </trkpt>
      <trkpt lat="43.49576" lon="6.68487">
        <ele>74.5</ele>
        <time>2023-03-04T07:33:52.000Z</time>
      </trkpt>
      <trkpt lat="43.49575" lon="6.68494">
        <ele>74.1</ele>
        <time>2023-03-04T07:33:53.000Z</time>
      </trkpt>
      <trkpt lat="43.49575" lon="6.68501">
        <ele>73.7</ele>
        <time>2023-03-04T07:33:54.000Z</time>
      </trkpt>
      <trkpt lat="43.49575" lon="6.68508">
        <ele>73.3</ele>
        <time>2023-03-04T07:33:55.000Z</time>
      </trkpt>
      <trkpt lat="43.49576" lon="6.68516">
        <ele>72.8</ele>
        <time>2023-03-04T07:33:56.000Z</time>
      </trkpt>
      <trkpt lat="43.49576" lon="6.68524">
        <ele>72.5</ele>
        <time>2023-03-04T07:33:57.000Z</time>
      </trkpt>
      <trkpt lat="43.49577" lon="6.68532">
        <ele>72.2</ele>
        <time>2023-03-04T07:33:58.000Z</time>
      </trkpt>
      <trkpt lat="43.49577" lon="6.68539">
        <ele>72.1</ele>
        <time>2023-03-04T07:33:59.000Z</time>
      </trkpt>
      <trkpt lat="43.49576" lon="6.68546">
        <ele>72.1</ele>
        <time>2023-03-04T07:34:00.000Z</time>
      </trkpt>
      <trkpt lat="43.49576" lon="6.68553">
        <ele>72.3</ele>
        <time>2023-03-04T07:34:01.000Z</time>
      </trkpt>
      <trkpt lat="43.49576" lon="6.6856">
        <ele>72.5</ele>
        <time>2023-03-04T07:34:02.000Z</time>
      </trkpt>
      <trkpt lat="43.49575" lon="6.68567">
        <ele>72.8</ele>
        <time>2023-03-04T07:34:03.000Z</time>
      </trkpt>
      <trkpt lat="43.49574" lon="6.68573">
        <ele>73.2</ele>
        <time>2023-03-04T07:34:04.000Z</time>
      </trkpt>
      <trkpt lat="43.49574" lon="6.68578">
        <ele>73.5</ele>
        <time>2023-03-04T07:34:05.000Z</time>
      </trkpt>
      <trkpt lat="43.49574" lon="6.68582">
        <ele>73.8</ele>
        <time>2023-03-04T07:34:06.000Z</time>
      </trkpt>
      <trkpt lat="43.49574" lon="6.68588">
        <ele>74.2</ele>
        <time>2023-03-04T07:34:07.000Z</time>
      </trkpt>
      <trkpt lat="43.49573" lon="6.68594">
        <ele>74.7</ele>
        <time>2023-03-04T07:34:08.000Z</time>
      </trkpt>
      <trkpt lat="43.49573" lon="6.68598">
        <ele>75</ele>
        <time>2023-03-04T07:34:09.000Z</time>
      </trkpt>
      <trkpt lat="43.49572" lon="6.68603">
        <ele>75.3</ele>
        <time>2023-03-04T07:34:10.000Z</time>
      </trkpt>
      <trkpt lat="43.49572" lon="6.68608">
        <ele>75.6</ele>
        <time>2023-03-04T07:34:11.000Z</time>
      </trkpt>
      <trkpt lat="43.49572" lon="6.68613">
        <ele>75.9</ele>
        <time>2023-03-04T07:34:12.000Z</time>
      </trkpt>
      <trkpt lat="43.49572" lon="6.68623">
        <ele>76.4</ele>
        <time>2023-03-04T07:34:14.000Z</time>
      </trkpt>
      <trkpt lat="43.49571" lon="6.68628">
        <ele>76.5</ele>
        <time>2023-03-04T07:34:15.000Z</time>
      </trkpt>
      <trkpt lat="43.49571" lon="6.68633">
        <ele>76.6</ele>
        <time>2023-03-04T07:34:16.000Z</time>
      </trkpt>
      <trkpt lat="43.4957" lon="6.68641">
        <ele>76.7</ele>
        <time>2023-03-04T07:34:17.000Z</time>
      </trkpt>
      <trkpt lat="43.4957" lon="6.68647">
        <ele>76.8</ele>
        <time>2023-03-04T07:34:18.000Z</time>
      </trkpt>
      <trkpt lat="43.49569" lon="6.68653">
        <ele>76.8</ele>
        <time>2023-03-04T07:34:19.000Z</time>
      </trkpt>
      <trkpt lat="43.49568" lon="6.6866">
        <ele>76.7</ele>
        <time>2023-03-04T07:34:20.000Z</time>
      </trkpt>
      <trkpt lat="43.49567" lon="6.68668">
        <ele>76.6</ele>
        <time>2023-03-04T07:34:22.000Z</time>
      </trkpt>
      <trkpt lat="43.49566" lon="6.68677">
        <ele>76.4</ele>
        <time>2023-03-04T07:34:23.000Z</time>
      </trkpt>
      <trkpt lat="43.49566" lon="6.68685">
        <ele>76.2</ele>
        <time>2023-03-04T07:34:24.000Z</time>
      </trkpt>
      <trkpt lat="43.49566" lon="6.68692">
        <ele>75.9</ele>
        <time>2023-03-04T07:34:25.000Z</time>
      </trkpt>
      <trkpt lat="43.49566" lon="6.68699">
        <ele>75.5</ele>
        <time>2023-03-04T07:34:26.000Z</time>
      </trkpt>
      <trkpt lat="43.49565" lon="6.68707">
        <ele>75</ele>
        <time>2023-03-04T07:34:27.000Z</time>
      </trkpt>
      <trkpt lat="43.49565" lon="6.68715">
        <ele>74.5</ele>
        <time>2023-03-04T07:34:28.000Z</time>
      </trkpt>
      <trkpt lat="43.49564" lon="6.68724">
        <ele>73.8</ele>
        <time>2023-03-04T07:34:29.000Z</time>
      </trkpt>
      <trkpt lat="43.49563" lon="6.68734">
        <ele>72.9</ele>
        <time>2023-03-04T07:34:30.000Z</time>
      </trkpt>
      <trkpt lat="43.49562" lon="6.68744">
        <ele>72.1</ele>
        <time>2023-03-04T07:34:31.000Z</time>
      </trkpt>
      <trkpt lat="43.4956" lon="6.68754">
        <ele>71.2</ele>
        <time>2023-03-04T07:34:32.000Z</time>
      </trkpt>
      <trkpt lat="43.49557" lon="6.68764">
        <ele>70.4</ele>
        <time>2023-03-04T07:34:33.000Z</time>
      </trkpt>
      <trkpt lat="43.49555" lon="6.68771">
        <ele>69.9</ele>
        <time>2023-03-04T07:34:34.000Z</time>
      </trkpt>
      <trkpt lat="43.49552" lon="6.68778">
        <ele>69.4</ele>
        <time>2023-03-04T07:34:35.000Z</time>
      </trkpt>
      <trkpt lat="43.49548" lon="6.68784">
        <ele>68.9</ele>
        <time>2023-03-04T07:34:36.000Z</time>
      </trkpt>
      <trkpt lat="43.49546" lon="6.6879">
        <ele>68.6</ele>
        <time>2023-03-04T07:34:37.000Z</time>
      </trkpt>
      <trkpt lat="43.49543" lon="6.68795">
        <ele>68.5</ele>
        <time>2023-03-04T07:34:38.000Z</time>
      </trkpt>
      <trkpt lat="43.49542" lon="6.68801">
        <ele>68.4</ele>
        <time>2023-03-04T07:34:39.000Z</time>
      </trkpt>
      <trkpt lat="43.49542" lon="6.68804">
        <ele>68.3</ele>
        <time>2023-03-04T07:34:40.000Z</time>
      </trkpt>
      <trkpt lat="43.49541" lon="6.68812">
        <ele>68.3</ele>
        <time>2023-03-04T07:34:41.000Z</time>
      </trkpt>
      <trkpt lat="43.4954" lon="6.68815">
        <ele>68.3</ele>
        <time>2023-03-04T07:34:42.000Z</time>
      </trkpt>
      <trkpt lat="43.49538" lon="6.68822">
        <ele>68.3</ele>
        <time>2023-03-04T07:34:43.000Z</time>
      </trkpt>
      <trkpt lat="43.49537" lon="6.68831">
        <ele>68.3</ele>
        <time>2023-03-04T07:34:44.000Z</time>
      </trkpt>
      <trkpt lat="43.49536" lon="6.68838">
        <ele>68.3</ele>
        <time>2023-03-04T07:34:45.000Z</time>
      </trkpt>
      <trkpt lat="43.49536" lon="6.68845">
        <ele>68.4</ele>
        <time>2023-03-04T07:34:46.000Z</time>
      </trkpt>
      <trkpt lat="43.49535" lon="6.68852">
        <ele>68.6</ele>
        <time>2023-03-04T07:34:47.000Z</time>
      </trkpt>
      <trkpt lat="43.49536" lon="6.68858">
        <ele>68.8</ele>
        <time>2023-03-04T07:34:48.000Z</time>
      </trkpt>
      <trkpt lat="43.49536" lon="6.68862">
        <ele>68.9</ele>
        <time>2023-03-04T07:34:49.000Z</time>
      </trkpt>
      <trkpt lat="43.49537" lon="6.68869">
        <ele>69.3</ele>
        <time>2023-03-04T07:34:51.000Z</time>
      </trkpt>
      <trkpt lat="43.49539" lon="6.68877">
        <ele>69.8</ele>
        <time>2023-03-04T07:34:52.000Z</time>
      </trkpt>
      <trkpt lat="43.49542" lon="6.68882">
        <ele>70.2</ele>
        <time>2023-03-04T07:34:53.000Z</time>
      </trkpt>
      <trkpt lat="43.49543" lon="6.68886">
        <ele>70.5</ele>
        <time>2023-03-04T07:34:54.000Z</time>
      </trkpt>
      <trkpt lat="43.49545" lon="6.6889">
        <ele>70.9</ele>
        <time>2023-03-04T07:34:55.000Z</time>
      </trkpt>
      <trkpt lat="43.49547" lon="6.68895">
        <ele>71.3</ele>
        <time>2023-03-04T07:34:56.000Z</time>
      </trkpt>
      <trkpt lat="43.49549" lon="6.689">
        <ele>71.7</ele>
        <time>2023-03-04T07:34:58.000Z</time>
      </trkpt>
      <trkpt lat="43.49551" lon="6.68906">
        <ele>72.2</ele>
        <time>2023-03-04T07:34:59.000Z</time>
      </trkpt>
      <trkpt lat="43.49553" lon="6.68912">
        <ele>72.6</ele>
        <time>2023-03-04T07:35:00.000Z</time>
      </trkpt>
      <trkpt lat="43.49555" lon="6.68919">
        <ele>73</ele>
        <time>2023-03-04T07:35:01.000Z</time>
      </trkpt>
      <trkpt lat="43.49557" lon="6.68925">
        <ele>73.3</ele>
        <time>2023-03-04T07:35:02.000Z</time>
      </trkpt>
      <trkpt lat="43.49558" lon="6.68931">
        <ele>73.5</ele>
        <time>2023-03-04T07:35:03.000Z</time>
      </trkpt>
      <trkpt lat="43.49558" lon="6.68938">
        <ele>73.8</ele>
        <time>2023-03-04T07:35:05.000Z</time>
      </trkpt>
      <trkpt lat="43.49558" lon="6.68944">
        <ele>73.9</ele>
        <time>2023-03-04T07:35:06.000Z</time>
      </trkpt>
      <trkpt lat="43.49559" lon="6.68952">
        <ele>74.1</ele>
        <time>2023-03-04T07:35:07.000Z</time>
      </trkpt>
      <trkpt lat="43.49557" lon="6.6896">
        <ele>74.2</ele>
        <time>2023-03-04T07:35:08.000Z</time>
      </trkpt>
      <trkpt lat="43.49555" lon="6.68969">
        <ele>74.4</ele>
        <time>2023-03-04T07:35:09.000Z</time>
      </trkpt>
      <trkpt lat="43.49554" lon="6.68974">
        <ele>74.5</ele>
        <time>2023-03-04T07:35:10.000Z</time>
      </trkpt>
      <trkpt lat="43.49553" lon="6.6898">
        <ele>74.5</ele>
        <time>2023-03-04T07:35:11.000Z</time>
      </trkpt>
      <trkpt lat="43.49551" lon="6.68987">
        <ele>74.6</ele>
        <time>2023-03-04T07:35:12.000Z</time>
      </trkpt>
      <trkpt lat="43.49549" lon="6.68993">
        <ele>74.7</ele>
        <time>2023-03-04T07:35:13.000Z</time>
      </trkpt>
      <trkpt lat="43.49547" lon="6.69">
        <ele>74.8</ele>
        <time>2023-03-04T07:35:14.000Z</time>
      </trkpt>
      <trkpt lat="43.49544" lon="6.69006">
        <ele>74.8</ele>
        <time>2023-03-04T07:35:15.000Z</time>
      </trkpt>
      <trkpt lat="43.49541" lon="6.69012">
        <ele>74.9</ele>
        <time>2023-03-04T07:35:16.000Z</time>
      </trkpt>
      <trkpt lat="43.49539" lon="6.69018">
        <ele>74.9</ele>
        <time>2023-03-04T07:35:17.000Z</time>
      </trkpt>
      <trkpt lat="43.49536" lon="6.69024">
        <ele>74.9</ele>
        <time>2023-03-04T07:35:18.000Z</time>
      </trkpt>
      <trkpt lat="43.49534" lon="6.6903">
        <ele>74.9</ele>
        <time>2023-03-04T07:35:19.000Z</time>
      </trkpt>
      <trkpt lat="43.49531" lon="6.69035">
        <ele>74.9</ele>
        <time>2023-03-04T07:35:20.000Z</time>
      </trkpt>
      <trkpt lat="43.49528" lon="6.69041">
        <ele>74.9</ele>
        <time>2023-03-04T07:35:21.000Z</time>
      </trkpt>
      <trkpt lat="43.49525" lon="6.69047">
        <ele>74.8</ele>
        <time>2023-03-04T07:35:22.000Z</time>
      </trkpt>
      <trkpt lat="43.49523" lon="6.69053">
        <ele>74.7</ele>
        <time>2023-03-04T07:35:23.000Z</time>
      </trkpt>
      <trkpt lat="43.4952" lon="6.6906">
        <ele>74.6</ele>
        <time>2023-03-04T07:35:24.000Z</time>
      </trkpt>
      <trkpt lat="43.49517" lon="6.69066">
        <ele>74.5</ele>
        <time>2023-03-04T07:35:25.000Z</time>
      </trkpt>
      <trkpt lat="43.49514" lon="6.69073">
        <ele>74.4</ele>
        <time>2023-03-04T07:35:26.000Z</time>
      </trkpt>
      <trkpt lat="43.49511" lon="6.69079">
        <ele>74.3</ele>
        <time>2023-03-04T07:35:27.000Z</time>
      </trkpt>
      <trkpt lat="43.49508" lon="6.69086">
        <ele>74.2</ele>
        <time>2023-03-04T07:35:28.000Z</time>
      </trkpt>
      <trkpt lat="43.49505" lon="6.69092">
        <ele>74.1</ele>
        <time>2023-03-04T07:35:29.000Z</time>
      </trkpt>
      <trkpt lat="43.49502" lon="6.69099">
        <ele>74.1</ele>
        <time>2023-03-04T07:35:30.000Z</time>
      </trkpt>
      <trkpt lat="43.49499" lon="6.69105">
        <ele>74</ele>
        <time>2023-03-04T07:35:31.000Z</time>
      </trkpt>
      <trkpt lat="43.49497" lon="6.6911">
        <ele>74</ele>
        <time>2023-03-04T07:35:32.000Z</time>
      </trkpt>
      <trkpt lat="43.49494" lon="6.69116">
        <ele>74</ele>
        <time>2023-03-04T07:35:33.000Z</time>
      </trkpt>
      <trkpt lat="43.49491" lon="6.69122">
        <ele>74</ele>
        <time>2023-03-04T07:35:34.000Z</time>
      </trkpt>
      <trkpt lat="43.49489" lon="6.69129">
        <ele>74</ele>
        <time>2023-03-04T07:35:35.000Z</time>
      </trkpt>
      <trkpt lat="43.49486" lon="6.69135">
        <ele>74</ele>
        <time>2023-03-04T07:35:36.000Z</time>
      </trkpt>
      <trkpt lat="43.49484" lon="6.69141">
        <ele>74.1</ele>
        <time>2023-03-04T07:35:37.000Z</time>
      </trkpt>
      <trkpt lat="43.49481" lon="6.69147">
        <ele>74.1</ele>
        <time>2023-03-04T07:35:38.000Z</time>
      </trkpt>
      <trkpt lat="43.49479" lon="6.69153">
        <ele>74.1</ele>
        <time>2023-03-04T07:35:39.000Z</time>
      </trkpt>
      <trkpt lat="43.49476" lon="6.69158">
        <ele>74.1</ele>
        <time>2023-03-04T07:35:40.000Z</time>
      </trkpt>
      <trkpt lat="43.49473" lon="6.69163">
        <ele>74.1</ele>
        <time>2023-03-04T07:35:41.000Z</time>
      </trkpt>
      <trkpt lat="43.4947" lon="6.69168">
        <ele>74.1</ele>
        <time>2023-03-04T07:35:42.000Z</time>
      </trkpt>
      <trkpt lat="43.49467" lon="6.69173">
        <ele>74.1</ele>
        <time>2023-03-04T07:35:43.000Z</time>
      </trkpt>
      <trkpt lat="43.49464" lon="6.69179">
        <ele>74</ele>
        <time>2023-03-04T07:35:44.000Z</time>
      </trkpt>
      <trkpt lat="43.4946" lon="6.69185">
        <ele>73.9</ele>
        <time>2023-03-04T07:35:45.000Z</time>
      </trkpt>
      <trkpt lat="43.49458" lon="6.69192">
        <ele>73.9</ele>
        <time>2023-03-04T07:35:46.000Z</time>
      </trkpt>
      <trkpt lat="43.49455" lon="6.69198">
        <ele>73.8</ele>
        <time>2023-03-04T07:35:47.000Z</time>
      </trkpt>
      <trkpt lat="43.49453" lon="6.69205">
        <ele>73.7</ele>
        <time>2023-03-04T07:35:48.000Z</time>
      </trkpt>
      <trkpt lat="43.49451" lon="6.69212">
        <ele>73.6</ele>
        <time>2023-03-04T07:35:49.000Z</time>
      </trkpt>
      <trkpt lat="43.4945" lon="6.69219">
        <ele>73.5</ele>
        <time>2023-03-04T07:35:50.000Z</time>
      </trkpt>
      <trkpt lat="43.49448" lon="6.69226">
        <ele>73.4</ele>
        <time>2023-03-04T07:35:51.000Z</time>
      </trkpt>
      <trkpt lat="43.49447" lon="6.69232">
        <ele>73.3</ele>
        <time>2023-03-04T07:35:52.000Z</time>
      </trkpt>
      <trkpt lat="43.49446" lon="6.69238">
        <ele>73.2</ele>
        <time>2023-03-04T07:35:53.000Z</time>
      </trkpt>
      <trkpt lat="43.49445" lon="6.69243">
        <ele>73</ele>
        <time>2023-03-04T07:35:54.000Z</time>
      </trkpt>
      <trkpt lat="43.49443" lon="6.69248">
        <ele>72.9</ele>
        <time>2023-03-04T07:35:55.000Z</time>
      </trkpt>
      <trkpt lat="43.49442" lon="6.69253">
        <ele>72.8</ele>
        <time>2023-03-04T07:35:56.000Z</time>
      </trkpt>
      <trkpt lat="43.49441" lon="6.6926">
        <ele>72.5</ele>
        <time>2023-03-04T07:35:57.000Z</time>
      </trkpt>
      <trkpt lat="43.4944" lon="6.69268">
        <ele>72.3</ele>
        <time>2023-03-04T07:35:58.000Z</time>
      </trkpt>
      <trkpt lat="43.49439" lon="6.69275">
        <ele>72.1</ele>
        <time>2023-03-04T07:35:59.000Z</time>
      </trkpt>
      <trkpt lat="43.49439" lon="6.69284">
        <ele>71.9</ele>
        <time>2023-03-04T07:36:00.000Z</time>
      </trkpt>
      <trkpt lat="43.49438" lon="6.69292">
        <ele>71.7</ele>
        <time>2023-03-04T07:36:01.000Z</time>
      </trkpt>
      <trkpt lat="43.49437" lon="6.693">
        <ele>71.6</ele>
        <time>2023-03-04T07:36:02.000Z</time>
      </trkpt>
      <trkpt lat="43.49435" lon="6.69307">
        <ele>71.6</ele>
        <time>2023-03-04T07:36:03.000Z</time>
      </trkpt>
      <trkpt lat="43.49433" lon="6.69313">
        <ele>71.5</ele>
        <time>2023-03-04T07:36:04.000Z</time>
      </trkpt>
      <trkpt lat="43.49431" lon="6.69318">
        <ele>71.5</ele>
        <time>2023-03-04T07:36:05.000Z</time>
      </trkpt>
      <trkpt lat="43.49429" lon="6.69322">
        <ele>71.4</ele>
        <time>2023-03-04T07:36:06.000Z</time>
      </trkpt>
      <trkpt lat="43.49427" lon="6.69327">
        <ele>71.4</ele>
        <time>2023-03-04T07:36:08.000Z</time>
      </trkpt>
      <trkpt lat="43.49424" lon="6.69335">
        <ele>71.3</ele>
        <time>2023-03-04T07:36:09.000Z</time>
      </trkpt>
      <trkpt lat="43.4942" lon="6.69341">
        <ele>71.3</ele>
        <time>2023-03-04T07:36:11.000Z</time>
      </trkpt>
      <trkpt lat="43.49417" lon="6.69346">
        <ele>71.3</ele>
        <time>2023-03-04T07:36:12.000Z</time>
      </trkpt>
      <trkpt lat="43.49412" lon="6.69357">
        <ele>71.3</ele>
        <time>2023-03-04T07:36:13.000Z</time>
      </trkpt>
      <trkpt lat="43.4941" lon="6.69362">
        <ele>71.3</ele>
        <time>2023-03-04T07:36:14.000Z</time>
      </trkpt>
      <trkpt lat="43.49407" lon="6.69367">
        <ele>71.3</ele>
        <time>2023-03-04T07:36:15.000Z</time>
      </trkpt>
      <trkpt lat="43.49406" lon="6.69372">
        <ele>71.3</ele>
        <time>2023-03-04T07:36:17.000Z</time>
      </trkpt>
      <trkpt lat="43.49403" lon="6.69379">
        <ele>71.2</ele>
        <time>2023-03-04T07:36:18.000Z</time>
      </trkpt>
      <trkpt lat="43.494" lon="6.69386">
        <ele>70.9</ele>
        <time>2023-03-04T07:36:19.000Z</time>
      </trkpt>
      <trkpt lat="43.494" lon="6.69392">
        <ele>70.9</ele>
        <time>2023-03-04T07:36:20.000Z</time>
      </trkpt>
      <trkpt lat="43.49402" lon="6.69397">
        <ele>70.9</ele>
        <time>2023-03-04T07:36:21.000Z</time>
      </trkpt>
      <trkpt lat="43.49405" lon="6.694">
        <ele>70.4</ele>
        <time>2023-03-04T07:36:22.000Z</time>
      </trkpt>
      <trkpt lat="43.49407" lon="6.69403">
        <ele>70.3</ele>
        <time>2023-03-04T07:36:23.000Z</time>
      </trkpt>
      <trkpt lat="43.49409" lon="6.69409">
        <ele>70.1</ele>
        <time>2023-03-04T07:36:25.000Z</time>
      </trkpt>
      <trkpt lat="43.49415" lon="6.6942">
        <ele>69.8</ele>
        <time>2023-03-04T07:36:26.000Z</time>
      </trkpt>
      <trkpt lat="43.49418" lon="6.69426">
        <ele>69.7</ele>
        <time>2023-03-04T07:36:27.000Z</time>
      </trkpt>
      <trkpt lat="43.49422" lon="6.6943">
        <ele>69.5</ele>
        <time>2023-03-04T07:36:28.000Z</time>
      </trkpt>
      <trkpt lat="43.49427" lon="6.69433">
        <ele>69.4</ele>
        <time>2023-03-04T07:36:29.000Z</time>
      </trkpt>
      <trkpt lat="43.49433" lon="6.69436">
        <ele>69.3</ele>
        <time>2023-03-04T07:36:30.000Z</time>
      </trkpt>
      <trkpt lat="43.49439" lon="6.6944">
        <ele>69.1</ele>
        <time>2023-03-04T07:36:31.000Z</time>
      </trkpt>
      <trkpt lat="43.49444" lon="6.69443">
        <ele>69</ele>
        <time>2023-03-04T07:36:32.000Z</time>
      </trkpt>
      <trkpt lat="43.4945" lon="6.69447">
        <ele>68.9</ele>
        <time>2023-03-04T07:36:33.000Z</time>
      </trkpt>
      <trkpt lat="43.49456" lon="6.69451">
        <ele>68.7</ele>
        <time>2023-03-04T07:36:34.000Z</time>
      </trkpt>
      <trkpt lat="43.49461" lon="6.69454">
        <ele>68.6</ele>
        <time>2023-03-04T07:36:35.000Z</time>
      </trkpt>
      <trkpt lat="43.49467" lon="6.69458">
        <ele>68.5</ele>
        <time>2023-03-04T07:36:36.000Z</time>
      </trkpt>
      <trkpt lat="43.49473" lon="6.69461">
        <ele>68.4</ele>
        <time>2023-03-04T07:36:37.000Z</time>
      </trkpt>
      <trkpt lat="43.49479" lon="6.69464">
        <ele>68.3</ele>
        <time>2023-03-04T07:36:38.000Z</time>
      </trkpt>
      <trkpt lat="43.49484" lon="6.69467">
        <ele>68.2</ele>
        <time>2023-03-04T07:36:39.000Z</time>
      </trkpt>
      <trkpt lat="43.49489" lon="6.69471">
        <ele>68.1</ele>
        <time>2023-03-04T07:36:40.000Z</time>
      </trkpt>
      <trkpt lat="43.49494" lon="6.69474">
        <ele>67.9</ele>
        <time>2023-03-04T07:36:41.000Z</time>
      </trkpt>
      <trkpt lat="43.495" lon="6.69478">
        <ele>67.8</ele>
        <time>2023-03-04T07:36:42.000Z</time>
      </trkpt>
      <trkpt lat="43.49505" lon="6.69482">
        <ele>67.7</ele>
        <time>2023-03-04T07:36:43.000Z</time>
      </trkpt>
      <trkpt lat="43.49511" lon="6.69486">
        <ele>67.5</ele>
        <time>2023-03-04T07:36:44.000Z</time>
      </trkpt>
      <trkpt lat="43.49516" lon="6.6949">
        <ele>67.4</ele>
        <time>2023-03-04T07:36:45.000Z</time>
      </trkpt>
      <trkpt lat="43.49522" lon="6.69494">
        <ele>67.3</ele>
        <time>2023-03-04T07:36:46.000Z</time>
      </trkpt>
      <trkpt lat="43.49527" lon="6.69498">
        <ele>67.2</ele>
        <time>2023-03-04T07:36:47.000Z</time>
      </trkpt>
      <trkpt lat="43.49533" lon="6.69502">
        <ele>67.1</ele>
        <time>2023-03-04T07:36:48.000Z</time>
      </trkpt>
      <trkpt lat="43.49538" lon="6.69506">
        <ele>67</ele>
        <time>2023-03-04T07:36:49.000Z</time>
      </trkpt>
      <trkpt lat="43.49544" lon="6.69509">
        <ele>66.9</ele>
        <time>2023-03-04T07:36:50.000Z</time>
      </trkpt>
      <trkpt lat="43.4955" lon="6.69512">
        <ele>66.8</ele>
        <time>2023-03-04T07:36:51.000Z</time>
      </trkpt>
      <trkpt lat="43.49555" lon="6.69515">
        <ele>66.7</ele>
        <time>2023-03-04T07:36:52.000Z</time>
      </trkpt>
      <trkpt lat="43.49561" lon="6.69518">
        <ele>66.6</ele>
        <time>2023-03-04T07:36:53.000Z</time>
      </trkpt>
      <trkpt lat="43.49566" lon="6.69522">
        <ele>66.5</ele>
        <time>2023-03-04T07:36:54.000Z</time>
      </trkpt>
      <trkpt lat="43.49572" lon="6.69526">
        <ele>66.4</ele>
        <time>2023-03-04T07:36:55.000Z</time>
      </trkpt>
      <trkpt lat="43.49578" lon="6.69529">
        <ele>66.3</ele>
        <time>2023-03-04T07:36:56.000Z</time>
      </trkpt>
      <trkpt lat="43.49583" lon="6.69533">
        <ele>66.2</ele>
        <time>2023-03-04T07:36:57.000Z</time>
      </trkpt>
      <trkpt lat="43.49589" lon="6.69537">
        <ele>66.2</ele>
        <time>2023-03-04T07:36:58.000Z</time>
      </trkpt>
      <trkpt lat="43.49594" lon="6.6954">
        <ele>66.2</ele>
        <time>2023-03-04T07:36:59.000Z</time>
      </trkpt>
      <trkpt lat="43.496" lon="6.69544">
        <ele>66.2</ele>
        <time>2023-03-04T07:37:00.000Z</time>
      </trkpt>
      <trkpt lat="43.49606" lon="6.69547">
        <ele>66.2</ele>
        <time>2023-03-04T07:37:01.000Z</time>
      </trkpt>
      <trkpt lat="43.49611" lon="6.69551">
        <ele>66.2</ele>
        <time>2023-03-04T07:37:02.000Z</time>
      </trkpt>
      <trkpt lat="43.49617" lon="6.69554">
        <ele>66.3</ele>
        <time>2023-03-04T07:37:03.000Z</time>
      </trkpt>
      <trkpt lat="43.49622" lon="6.69557">
        <ele>66.4</ele>
        <time>2023-03-04T07:37:04.000Z</time>
      </trkpt>
      <trkpt lat="43.49627" lon="6.6956">
        <ele>66.5</ele>
        <time>2023-03-04T07:37:05.000Z</time>
      </trkpt>
      <trkpt lat="43.49631" lon="6.69563">
        <ele>66.6</ele>
        <time>2023-03-04T07:37:06.000Z</time>
      </trkpt>
      <trkpt lat="43.49636" lon="6.69566">
        <ele>66.7</ele>
        <time>2023-03-04T07:37:07.000Z</time>
      </trkpt>
      <trkpt lat="43.49641" lon="6.69569">
        <ele>66.8</ele>
        <time>2023-03-04T07:37:08.000Z</time>
      </trkpt>
      <trkpt lat="43.49645" lon="6.69572">
        <ele>66.9</ele>
        <time>2023-03-04T07:37:09.000Z</time>
      </trkpt>
      <trkpt lat="43.4965" lon="6.69574">
        <ele>67</ele>
        <time>2023-03-04T07:37:10.000Z</time>
      </trkpt>
      <trkpt lat="43.49654" lon="6.69578">
        <ele>67.1</ele>
        <time>2023-03-04T07:37:11.000Z</time>
      </trkpt>
      <trkpt lat="43.49659" lon="6.6958">
        <ele>67.2</ele>
        <time>2023-03-04T07:37:12.000Z</time>
      </trkpt>
      <trkpt lat="43.49663" lon="6.69583">
        <ele>67.7</ele>
        <time>2023-03-04T07:37:13.000Z</time>
      </trkpt>
      <trkpt lat="43.49668" lon="6.69585">
        <ele>68</ele>
        <time>2023-03-04T07:37:14.000Z</time>
      </trkpt>
      <trkpt lat="43.49673" lon="6.69588">
        <ele>68.2</ele>
        <time>2023-03-04T07:37:15.000Z</time>
      </trkpt>
      <trkpt lat="43.49677" lon="6.6959">
        <ele>68.3</ele>
        <time>2023-03-04T07:37:16.000Z</time>
      </trkpt>
      <trkpt lat="43.49682" lon="6.69593">
        <ele>68.5</ele>
        <time>2023-03-04T07:37:17.000Z</time>
      </trkpt>
      <trkpt lat="43.49684" lon="6.69594">
        <ele>68.5</ele>
        <time>2023-03-04T07:37:18.000Z</time>
      </trkpt>
      <trkpt lat="43.49688" lon="6.69598">
        <ele>68.7</ele>
        <time>2023-03-04T07:37:19.000Z</time>
      </trkpt>
      <trkpt lat="43.49693" lon="6.69601">
        <ele>69</ele>
        <time>2023-03-04T07:37:20.000Z</time>
      </trkpt>
      <trkpt lat="43.49698" lon="6.69604">
        <ele>69.2</ele>
        <time>2023-03-04T07:37:21.000Z</time>
      </trkpt>
      <trkpt lat="43.49703" lon="6.69607">
        <ele>69.4</ele>
        <time>2023-03-04T07:37:22.000Z</time>
      </trkpt>
      <trkpt lat="43.49707" lon="6.69609">
        <ele>69.6</ele>
        <time>2023-03-04T07:37:23.000Z</time>
      </trkpt>
      <trkpt lat="43.49712" lon="6.6961">
        <ele>69.8</ele>
        <time>2023-03-04T07:37:24.000Z</time>
      </trkpt>
      <trkpt lat="43.49717" lon="6.69612">
        <ele>70</ele>
        <time>2023-03-04T07:37:25.000Z</time>
      </trkpt>
      <trkpt lat="43.49722" lon="6.69614">
        <ele>70.3</ele>
        <time>2023-03-04T07:37:26.000Z</time>
      </trkpt>
      <trkpt lat="43.49726" lon="6.69615">
        <ele>70.5</ele>
        <time>2023-03-04T07:37:27.000Z</time>
      </trkpt>
      <trkpt lat="43.49731" lon="6.69616">
        <ele>70.7</ele>
        <time>2023-03-04T07:37:28.000Z</time>
      </trkpt>
      <trkpt lat="43.49735" lon="6.69617">
        <ele>70.9</ele>
        <time>2023-03-04T07:37:29.000Z</time>
      </trkpt>
      <trkpt lat="43.49739" lon="6.69619">
        <ele>71.1</ele>
        <time>2023-03-04T07:37:30.000Z</time>
      </trkpt>
      <trkpt lat="43.49743" lon="6.69621">
        <ele>71.2</ele>
        <time>2023-03-04T07:37:31.000Z</time>
      </trkpt>
      <trkpt lat="43.49746" lon="6.69622">
        <ele>71.4</ele>
        <time>2023-03-04T07:37:32.000Z</time>
      </trkpt>
      <trkpt lat="43.49749" lon="6.69623">
        <ele>71.5</ele>
        <time>2023-03-04T07:37:33.000Z</time>
      </trkpt>
      <trkpt lat="43.49752" lon="6.69625">
        <ele>71.7</ele>
        <time>2023-03-04T07:37:34.000Z</time>
      </trkpt>
      <trkpt lat="43.49756" lon="6.69626">
        <ele>71.9</ele>
        <time>2023-03-04T07:37:35.000Z</time>
      </trkpt>
      <trkpt lat="43.49762" lon="6.69627">
        <ele>72.1</ele>
        <time>2023-03-04T07:37:36.000Z</time>
      </trkpt>
      <trkpt lat="43.49767" lon="6.69629">
        <ele>72.3</ele>
        <time>2023-03-04T07:37:37.000Z</time>
      </trkpt>
      <trkpt lat="43.49772" lon="6.69627">
        <ele>72.5</ele>
        <time>2023-03-04T07:37:39.000Z</time>
      </trkpt>
      <trkpt lat="43.49777" lon="6.69633">
        <ele>72.8</ele>
        <time>2023-03-04T07:37:40.000Z</time>
      </trkpt>
      <trkpt lat="43.49783" lon="6.69636">
        <ele>73</ele>
        <time>2023-03-04T07:37:42.000Z</time>
      </trkpt>
      <trkpt lat="43.49788" lon="6.69637">
        <ele>73.2</ele>
        <time>2023-03-04T07:37:43.000Z</time>
      </trkpt>
      <trkpt lat="43.49796" lon="6.69637">
        <ele>73.4</ele>
        <time>2023-03-04T07:37:44.000Z</time>
      </trkpt>
      <trkpt lat="43.49801" lon="6.69637">
        <ele>73.5</ele>
        <time>2023-03-04T07:37:45.000Z</time>
      </trkpt>
      <trkpt lat="43.49804" lon="6.69637">
        <ele>73.5</ele>
        <time>2023-03-04T07:37:46.000Z</time>
      </trkpt>
      <trkpt lat="43.4981" lon="6.69638">
        <ele>73.4</ele>
        <time>2023-03-04T07:37:47.000Z</time>
      </trkpt>
      <trkpt lat="43.49816" lon="6.6964">
        <ele>73.3</ele>
        <time>2023-03-04T07:37:48.000Z</time>
      </trkpt>
      <trkpt lat="43.49821" lon="6.69643">
        <ele>73.1</ele>
        <time>2023-03-04T07:37:49.000Z</time>
      </trkpt>
      <trkpt lat="43.49826" lon="6.69646">
        <ele>73</ele>
        <time>2023-03-04T07:37:50.000Z</time>
      </trkpt>
      <trkpt lat="43.49832" lon="6.69648">
        <ele>72.9</ele>
        <time>2023-03-04T07:37:51.000Z</time>
      </trkpt>
      <trkpt lat="43.49837" lon="6.6965">
        <ele>72.8</ele>
        <time>2023-03-04T07:37:52.000Z</time>
      </trkpt>
      <trkpt lat="43.49842" lon="6.69652">
        <ele>72.7</ele>
        <time>2023-03-04T07:37:53.000Z</time>
      </trkpt>
      <trkpt lat="43.49848" lon="6.69654">
        <ele>72.7</ele>
        <time>2023-03-04T07:37:54.000Z</time>
      </trkpt>
      <trkpt lat="43.49853" lon="6.69657">
        <ele>72.8</ele>
        <time>2023-03-04T07:37:55.000Z</time>
      </trkpt>
      <trkpt lat="43.49858" lon="6.69661">
        <ele>72.8</ele>
        <time>2023-03-04T07:37:56.000Z</time>
      </trkpt>
      <trkpt lat="43.49862" lon="6.69666">
        <ele>72.8</ele>
        <time>2023-03-04T07:37:57.000Z</time>
      </trkpt>
      <trkpt lat="43.49866" lon="6.6967">
        <ele>72.9</ele>
        <time>2023-03-04T07:37:58.000Z</time>
      </trkpt>
      <trkpt lat="43.49871" lon="6.69674">
        <ele>72.9</ele>
        <time>2023-03-04T07:37:59.000Z</time>
      </trkpt>
      <trkpt lat="43.49875" lon="6.69679">
        <ele>72.9</ele>
        <time>2023-03-04T07:38:00.000Z</time>
      </trkpt>
      <trkpt lat="43.49879" lon="6.69683">
        <ele>72.9</ele>
        <time>2023-03-04T07:38:01.000Z</time>
      </trkpt>
      <trkpt lat="43.49883" lon="6.69688">
        <ele>72.9</ele>
        <time>2023-03-04T07:38:02.000Z</time>
      </trkpt>
      <trkpt lat="43.49888" lon="6.69693">
        <ele>72.9</ele>
        <time>2023-03-04T07:38:03.000Z</time>
      </trkpt>
      <trkpt lat="43.49893" lon="6.69697">
        <ele>72.9</ele>
        <time>2023-03-04T07:38:04.000Z</time>
      </trkpt>
      <trkpt lat="43.49898" lon="6.69701">
        <ele>72.9</ele>
        <time>2023-03-04T07:38:05.000Z</time>
      </trkpt>
      <trkpt lat="43.49902" lon="6.69705">
        <ele>72.8</ele>
        <time>2023-03-04T07:38:06.000Z</time>
      </trkpt>
      <trkpt lat="43.49907" lon="6.6971">
        <ele>72.7</ele>
        <time>2023-03-04T07:38:07.000Z</time>
      </trkpt>
      <trkpt lat="43.49912" lon="6.69715">
        <ele>72.5</ele>
        <time>2023-03-04T07:38:08.000Z</time>
      </trkpt>
      <trkpt lat="43.49917" lon="6.6972">
        <ele>72.4</ele>
        <time>2023-03-04T07:38:09.000Z</time>
      </trkpt>
      <trkpt lat="43.49922" lon="6.69725">
        <ele>72.2</ele>
        <time>2023-03-04T07:38:10.000Z</time>
      </trkpt>
      <trkpt lat="43.49928" lon="6.69729">
        <ele>72.1</ele>
        <time>2023-03-04T07:38:11.000Z</time>
      </trkpt>
      <trkpt lat="43.49933" lon="6.69734">
        <ele>71.9</ele>
        <time>2023-03-04T07:38:12.000Z</time>
      </trkpt>
      <trkpt lat="43.49938" lon="6.6974">
        <ele>71.7</ele>
        <time>2023-03-04T07:38:13.000Z</time>
      </trkpt>
      <trkpt lat="43.49943" lon="6.69745">
        <ele>71.6</ele>
        <time>2023-03-04T07:38:14.000Z</time>
      </trkpt>
      <trkpt lat="43.49948" lon="6.69751">
        <ele>71.5</ele>
        <time>2023-03-04T07:38:15.000Z</time>
      </trkpt>
      <trkpt lat="43.49953" lon="6.69757">
        <ele>71.4</ele>
        <time>2023-03-04T07:38:16.000Z</time>
      </trkpt>
      <trkpt lat="43.49957" lon="6.69762">
        <ele>71.4</ele>
        <time>2023-03-04T07:38:17.000Z</time>
      </trkpt>
      <trkpt lat="43.49962" lon="6.69767">
        <ele>71.4</ele>
        <time>2023-03-04T07:38:18.000Z</time>
      </trkpt>
      <trkpt lat="43.49967" lon="6.69772">
        <ele>71.4</ele>
        <time>2023-03-04T07:38:19.000Z</time>
      </trkpt>
      <trkpt lat="43.49972" lon="6.69776">
        <ele>71.5</ele>
        <time>2023-03-04T07:38:20.000Z</time>
      </trkpt>
      <trkpt lat="43.49976" lon="6.69781">
        <ele>71.6</ele>
        <time>2023-03-04T07:38:21.000Z</time>
      </trkpt>
      <trkpt lat="43.49981" lon="6.69786">
        <ele>71.8</ele>
        <time>2023-03-04T07:38:22.000Z</time>
      </trkpt>
      <trkpt lat="43.49986" lon="6.69791">
        <ele>71.9</ele>
        <time>2023-03-04T07:38:23.000Z</time>
      </trkpt>
      <trkpt lat="43.49989" lon="6.69796">
        <ele>72.1</ele>
        <time>2023-03-04T07:38:24.000Z</time>
      </trkpt>
      <trkpt lat="43.49993" lon="6.69802">
        <ele>72.3</ele>
        <time>2023-03-04T07:38:25.000Z</time>
      </trkpt>
      <trkpt lat="43.49997" lon="6.69807">
        <ele>72.6</ele>
        <time>2023-03-04T07:38:26.000Z</time>
      </trkpt>
      <trkpt lat="43.50001" lon="6.69812">
        <ele>72.8</ele>
        <time>2023-03-04T07:38:27.000Z</time>
      </trkpt>
      <trkpt lat="43.50004" lon="6.69818">
        <ele>73.1</ele>
        <time>2023-03-04T07:38:28.000Z</time>
      </trkpt>
      <trkpt lat="43.50007" lon="6.69823">
        <ele>73.3</ele>
        <time>2023-03-04T07:38:29.000Z</time>
      </trkpt>
      <trkpt lat="43.5001" lon="6.69828">
        <ele>73.6</ele>
        <time>2023-03-04T07:38:30.000Z</time>
      </trkpt>
      <trkpt lat="43.50013" lon="6.69833">
        <ele>73.8</ele>
        <time>2023-03-04T07:38:31.000Z</time>
      </trkpt>
      <trkpt lat="43.50016" lon="6.69839">
        <ele>74</ele>
        <time>2023-03-04T07:38:32.000Z</time>
      </trkpt>
      <trkpt lat="43.50019" lon="6.69845">
        <ele>74.3</ele>
        <time>2023-03-04T07:38:33.000Z</time>
      </trkpt>
      <trkpt lat="43.50022" lon="6.6985">
        <ele>74.5</ele>
        <time>2023-03-04T07:38:34.000Z</time>
      </trkpt>
      <trkpt lat="43.50025" lon="6.69856">
        <ele>74.6</ele>
        <time>2023-03-04T07:38:35.000Z</time>
      </trkpt>
      <trkpt lat="43.50029" lon="6.69861">
        <ele>74.8</ele>
        <time>2023-03-04T07:38:36.000Z</time>
      </trkpt>
      <trkpt lat="43.50032" lon="6.69866">
        <ele>75</ele>
        <time>2023-03-04T07:38:37.000Z</time>
      </trkpt>
      <trkpt lat="43.50035" lon="6.69872">
        <ele>75.1</ele>
        <time>2023-03-04T07:38:38.000Z</time>
      </trkpt>
      <trkpt lat="43.50038" lon="6.69878">
        <ele>75.2</ele>
        <time>2023-03-04T07:38:39.000Z</time>
      </trkpt>
      <trkpt lat="43.50041" lon="6.69884">
        <ele>75.3</ele>
        <time>2023-03-04T07:38:40.000Z</time>
      </trkpt>
      <trkpt lat="43.50044" lon="6.6989">
        <ele>75.4</ele>
        <time>2023-03-04T07:38:41.000Z</time>
      </trkpt>
      <trkpt lat="43.50047" lon="6.69895">
        <ele>75.5</ele>
        <time>2023-03-04T07:38:42.000Z</time>
      </trkpt>
      <trkpt lat="43.5005" lon="6.69901">
        <ele>75.5</ele>
        <time>2023-03-04T07:38:43.000Z</time>
      </trkpt>
      <trkpt lat="43.50054" lon="6.69907">
        <ele>75.6</ele>
        <time>2023-03-04T07:38:44.000Z</time>
      </trkpt>
      <trkpt lat="43.50058" lon="6.69913">
        <ele>75.6</ele>
        <time>2023-03-04T07:38:45.000Z</time>
      </trkpt>
      <trkpt lat="43.50061" lon="6.69918">
        <ele>75.6</ele>
        <time>2023-03-04T07:38:46.000Z</time>
      </trkpt>
      <trkpt lat="43.50064" lon="6.69924">
        <ele>75.7</ele>
        <time>2023-03-04T07:38:47.000Z</time>
      </trkpt>
      <trkpt lat="43.50067" lon="6.6993">
        <ele>75.7</ele>
        <time>2023-03-04T07:38:48.000Z</time>
      </trkpt>
      <trkpt lat="43.50071" lon="6.69936">
        <ele>75.8</ele>
        <time>2023-03-04T07:38:49.000Z</time>
      </trkpt>
      <trkpt lat="43.50073" lon="6.69942">
        <ele>75.8</ele>
        <time>2023-03-04T07:38:50.000Z</time>
      </trkpt>
      <trkpt lat="43.50076" lon="6.69948">
        <ele>75.9</ele>
        <time>2023-03-04T07:38:51.000Z</time>
      </trkpt>
      <trkpt lat="43.50079" lon="6.69954">
        <ele>76</ele>
        <time>2023-03-04T07:38:52.000Z</time>
      </trkpt>
      <trkpt lat="43.50083" lon="6.6996">
        <ele>76.1</ele>
        <time>2023-03-04T07:38:53.000Z</time>
      </trkpt>
      <trkpt lat="43.50086" lon="6.69966">
        <ele>76.2</ele>
        <time>2023-03-04T07:38:54.000Z</time>
      </trkpt>
      <trkpt lat="43.50089" lon="6.69972">
        <ele>76.3</ele>
        <time>2023-03-04T07:38:55.000Z</time>
      </trkpt>
      <trkpt lat="43.50092" lon="6.69979">
        <ele>76.4</ele>
        <time>2023-03-04T07:38:56.000Z</time>
      </trkpt>
      <trkpt lat="43.50094" lon="6.69985">
        <ele>76.5</ele>
        <time>2023-03-04T07:38:57.000Z</time>
      </trkpt>
      <trkpt lat="43.50097" lon="6.6999">
        <ele>76.5</ele>
        <time>2023-03-04T07:38:58.000Z</time>
      </trkpt>
      <trkpt lat="43.501" lon="6.69996">
        <ele>76.6</ele>
        <time>2023-03-04T07:38:59.000Z</time>
      </trkpt>
      <trkpt lat="43.50102" lon="6.70002">
        <ele>76.7</ele>
        <time>2023-03-04T07:39:00.000Z</time>
      </trkpt>
      <trkpt lat="43.50106" lon="6.70008">
        <ele>76.9</ele>
        <time>2023-03-04T07:39:01.000Z</time>
      </trkpt>
      <trkpt lat="43.50109" lon="6.70014">
        <ele>77</ele>
        <time>2023-03-04T07:39:02.000Z</time>
      </trkpt>
      <trkpt lat="43.50112" lon="6.70019">
        <ele>77.1</ele>
        <time>2023-03-04T07:39:03.000Z</time>
      </trkpt>
      <trkpt lat="43.50115" lon="6.70025">
        <ele>77.2</ele>
        <time>2023-03-04T07:39:04.000Z</time>
      </trkpt>
      <trkpt lat="43.50118" lon="6.7003">
        <ele>77.3</ele>
        <time>2023-03-04T07:39:05.000Z</time>
      </trkpt>
      <trkpt lat="43.50121" lon="6.70036">
        <ele>77.5</ele>
        <time>2023-03-04T07:39:06.000Z</time>
      </trkpt>
      <trkpt lat="43.50123" lon="6.7004">
        <ele>77.6</ele>
        <time>2023-03-04T07:39:07.000Z</time>
      </trkpt>
      <trkpt lat="43.50126" lon="6.70044">
        <ele>77.7</ele>
        <time>2023-03-04T07:39:08.000Z</time>
      </trkpt>
      <trkpt lat="43.50129" lon="6.70049">
        <ele>77.9</ele>
        <time>2023-03-04T07:39:09.000Z</time>
      </trkpt>
      <trkpt lat="43.50131" lon="6.70053">
        <ele>78</ele>
        <time>2023-03-04T07:39:10.000Z</time>
      </trkpt>
      <trkpt lat="43.50135" lon="6.70059">
        <ele>78.2</ele>
        <time>2023-03-04T07:39:11.000Z</time>
      </trkpt>
      <trkpt lat="43.50138" lon="6.70065">
        <ele>78.4</ele>
        <time>2023-03-04T07:39:12.000Z</time>
      </trkpt>
      <trkpt lat="43.50141" lon="6.70071">
        <ele>78.5</ele>
        <time>2023-03-04T07:39:13.000Z</time>
      </trkpt>
      <trkpt lat="43.50144" lon="6.70076">
        <ele>78.7</ele>
        <time>2023-03-04T07:39:14.000Z</time>
      </trkpt>
      <trkpt lat="43.50146" lon="6.70081">
        <ele>78.8</ele>
        <time>2023-03-04T07:39:15.000Z</time>
      </trkpt>
      <trkpt lat="43.50148" lon="6.70087">
        <ele>78.9</ele>
        <time>2023-03-04T07:39:16.000Z</time>
      </trkpt>
      <trkpt lat="43.5015" lon="6.70092">
        <ele>79.1</ele>
        <time>2023-03-04T07:39:17.000Z</time>
      </trkpt>
      <trkpt lat="43.50155" lon="6.70101">
        <ele>79.6</ele>
        <time>2023-03-04T07:39:19.000Z</time>
      </trkpt>
      <trkpt lat="43.50159" lon="6.70108">
        <ele>80</ele>
        <time>2023-03-04T07:39:20.000Z</time>
      </trkpt>
      <trkpt lat="43.50162" lon="6.70113">
        <ele>80.3</ele>
        <time>2023-03-04T07:39:21.000Z</time>
      </trkpt>
      <trkpt lat="43.50165" lon="6.70116">
        <ele>80.5</ele>
        <time>2023-03-04T07:39:22.000Z</time>
      </trkpt>
      <trkpt lat="43.50169" lon="6.70126">
        <ele>81</ele>
        <time>2023-03-04T07:39:24.000Z</time>
      </trkpt>
      <trkpt lat="43.50171" lon="6.70131">
        <ele>81.3</ele>
        <time>2023-03-04T07:39:25.000Z</time>
      </trkpt>
      <trkpt lat="43.50176" lon="6.70139">
        <ele>81.8</ele>
        <time>2023-03-04T07:39:27.000Z</time>
      </trkpt>
      <trkpt lat="43.5018" lon="6.70144">
        <ele>82.1</ele>
        <time>2023-03-04T07:39:28.000Z</time>
      </trkpt>
      <trkpt lat="43.50182" lon="6.7015">
        <ele>82.4</ele>
        <time>2023-03-04T07:39:29.000Z</time>
      </trkpt>
      <trkpt lat="43.50186" lon="6.70155">
        <ele>82.7</ele>
        <time>2023-03-04T07:39:31.000Z</time>
      </trkpt>
      <trkpt lat="43.50189" lon="6.70161">
        <ele>83.1</ele>
        <time>2023-03-04T07:39:32.000Z</time>
      </trkpt>
      <trkpt lat="43.50192" lon="6.70166">
        <ele>83.4</ele>
        <time>2023-03-04T07:39:33.000Z</time>
      </trkpt>
      <trkpt lat="43.50195" lon="6.70171">
        <ele>83.6</ele>
        <time>2023-03-04T07:39:34.000Z</time>
      </trkpt>
      <trkpt lat="43.50197" lon="6.70177">
        <ele>84</ele>
        <time>2023-03-04T07:39:35.000Z</time>
      </trkpt>
      <trkpt lat="43.50201" lon="6.70183">
        <ele>84.3</ele>
        <time>2023-03-04T07:39:36.000Z</time>
      </trkpt>
      <trkpt lat="43.50204" lon="6.70189">
        <ele>84.6</ele>
        <time>2023-03-04T07:39:37.000Z</time>
      </trkpt>
      <trkpt lat="43.50208" lon="6.70195">
        <ele>85</ele>
        <time>2023-03-04T07:39:38.000Z</time>
      </trkpt>
      <trkpt lat="43.50211" lon="6.702">
        <ele>85.2</ele>
        <time>2023-03-04T07:39:39.000Z</time>
      </trkpt>
      <trkpt lat="43.50213" lon="6.70206">
        <ele>85.5</ele>
        <time>2023-03-04T07:39:41.000Z</time>
      </trkpt>
      <trkpt lat="43.50219" lon="6.70215">
        <ele>86</ele>
        <time>2023-03-04T07:39:42.000Z</time>
      </trkpt>
      <trkpt lat="43.50223" lon="6.70219">
        <ele>86.2</ele>
        <time>2023-03-04T07:39:43.000Z</time>
      </trkpt>
      <trkpt lat="43.50226" lon="6.70224">
        <ele>86.4</ele>
        <time>2023-03-04T07:39:44.000Z</time>
      </trkpt>
      <trkpt lat="43.50228" lon="6.70228">
        <ele>86.6</ele>
        <time>2023-03-04T07:39:45.000Z</time>
      </trkpt>
      <trkpt lat="43.50231" lon="6.70234">
        <ele>86.9</ele>
        <time>2023-03-04T07:39:46.000Z</time>
      </trkpt>
      <trkpt lat="43.50234" lon="6.70239">
        <ele>87.1</ele>
        <time>2023-03-04T07:39:47.000Z</time>
      </trkpt>
      <trkpt lat="43.50237" lon="6.70244">
        <ele>87.3</ele>
        <time>2023-03-04T07:39:48.000Z</time>
      </trkpt>
      <trkpt lat="43.5024" lon="6.70248">
        <ele>87.4</ele>
        <time>2023-03-04T07:39:49.000Z</time>
      </trkpt>
      <trkpt lat="43.50245" lon="6.70254">
        <ele>87.7</ele>
        <time>2023-03-04T07:39:51.000Z</time>
      </trkpt>
      <trkpt lat="43.5025" lon="6.70261">
        <ele>87.9</ele>
        <time>2023-03-04T07:39:52.000Z</time>
      </trkpt>
      <trkpt lat="43.50253" lon="6.70266">
        <ele>88.1</ele>
        <time>2023-03-04T07:39:53.000Z</time>
      </trkpt>
      <trkpt lat="43.50257" lon="6.7027">
        <ele>88.3</ele>
        <time>2023-03-04T07:39:54.000Z</time>
      </trkpt>
      <trkpt lat="43.5026" lon="6.70274">
        <ele>88.4</ele>
        <time>2023-03-04T07:39:55.000Z</time>
      </trkpt>
      <trkpt lat="43.50263" lon="6.70277">
        <ele>88.5</ele>
        <time>2023-03-04T07:39:56.000Z</time>
      </trkpt>
      <trkpt lat="43.50267" lon="6.70281">
        <ele>88.7</ele>
        <time>2023-03-04T07:39:57.000Z</time>
      </trkpt>
      <trkpt lat="43.5027" lon="6.70285">
        <ele>89.1</ele>
        <time>2023-03-04T07:39:58.000Z</time>
      </trkpt>
      <trkpt lat="43.50273" lon="6.7029">
        <ele>89.2</ele>
        <time>2023-03-04T07:39:59.000Z</time>
      </trkpt>
      <trkpt lat="43.50277" lon="6.70294">
        <ele>89.3</ele>
        <time>2023-03-04T07:40:00.000Z</time>
      </trkpt>
      <trkpt lat="43.5028" lon="6.70298">
        <ele>89.5</ele>
        <time>2023-03-04T07:40:01.000Z</time>
      </trkpt>
      <trkpt lat="43.50284" lon="6.70302">
        <ele>89.6</ele>
        <time>2023-03-04T07:40:02.000Z</time>
      </trkpt>
      <trkpt lat="43.50287" lon="6.70306">
        <ele>89.8</ele>
        <time>2023-03-04T07:40:03.000Z</time>
      </trkpt>
      <trkpt lat="43.5029" lon="6.70309">
        <ele>89.9</ele>
        <time>2023-03-04T07:40:04.000Z</time>
      </trkpt>
      <trkpt lat="43.50294" lon="6.70312">
        <ele>90</ele>
        <time>2023-03-04T07:40:06.000Z</time>
      </trkpt>
      <trkpt lat="43.50298" lon="6.70316">
        <ele>90.2</ele>
        <time>2023-03-04T07:40:07.000Z</time>
      </trkpt>
      <trkpt lat="43.50301" lon="6.7032">
        <ele>90.3</ele>
        <time>2023-03-04T07:40:08.000Z</time>
      </trkpt>
      <trkpt lat="43.50305" lon="6.70325">
        <ele>90.5</ele>
        <time>2023-03-04T07:40:09.000Z</time>
      </trkpt>
      <trkpt lat="43.50309" lon="6.70329">
        <ele>90.6</ele>
        <time>2023-03-04T07:40:10.000Z</time>
      </trkpt>
      <trkpt lat="43.50313" lon="6.70333">
        <ele>90.8</ele>
        <time>2023-03-04T07:40:11.000Z</time>
      </trkpt>
      <trkpt lat="43.50317" lon="6.70337">
        <ele>90.9</ele>
        <time>2023-03-04T07:40:12.000Z</time>
      </trkpt>
      <trkpt lat="43.50321" lon="6.70341">
        <ele>91</ele>
        <time>2023-03-04T07:40:13.000Z</time>
      </trkpt>
      <trkpt lat="43.50324" lon="6.70346">
        <ele>91.1</ele>
        <time>2023-03-04T07:40:14.000Z</time>
      </trkpt>
      <trkpt lat="43.50328" lon="6.7035">
        <ele>91.1</ele>
        <time>2023-03-04T07:40:15.000Z</time>
      </trkpt>
      <trkpt lat="43.50332" lon="6.70354">
        <ele>91.2</ele>
        <time>2023-03-04T07:40:16.000Z</time>
      </trkpt>
      <trkpt lat="43.50336" lon="6.70358">
        <ele>91.2</ele>
        <time>2023-03-04T07:40:17.000Z</time>
      </trkpt>
      <trkpt lat="43.50339" lon="6.70362">
        <ele>91.2</ele>
        <time>2023-03-04T07:40:18.000Z</time>
      </trkpt>
      <trkpt lat="43.50343" lon="6.70366">
        <ele>91.2</ele>
        <time>2023-03-04T07:40:19.000Z</time>
      </trkpt>
      <trkpt lat="43.50347" lon="6.70371">
        <ele>91.3</ele>
        <time>2023-03-04T07:40:20.000Z</time>
      </trkpt>
      <trkpt lat="43.5035" lon="6.70376">
        <ele>91.3</ele>
        <time>2023-03-04T07:40:21.000Z</time>
      </trkpt>
      <trkpt lat="43.50354" lon="6.7038">
        <ele>91.3</ele>
        <time>2023-03-04T07:40:22.000Z</time>
      </trkpt>
      <trkpt lat="43.50358" lon="6.70385">
        <ele>91.3</ele>
        <time>2023-03-04T07:40:23.000Z</time>
      </trkpt>
      <trkpt lat="43.50361" lon="6.7039">
        <ele>91.3</ele>
        <time>2023-03-04T07:40:24.000Z</time>
      </trkpt>
      <trkpt lat="43.50365" lon="6.70394">
        <ele>91.4</ele>
        <time>2023-03-04T07:40:25.000Z</time>
      </trkpt>
      <trkpt lat="43.50369" lon="6.70398">
        <ele>91.4</ele>
        <time>2023-03-04T07:40:26.000Z</time>
      </trkpt>
      <trkpt lat="43.50374" lon="6.70402">
        <ele>91.4</ele>
        <time>2023-03-04T07:40:27.000Z</time>
      </trkpt>
      <trkpt lat="43.50379" lon="6.70405">
        <ele>91.5</ele>
        <time>2023-03-04T07:40:28.000Z</time>
      </trkpt>
      <trkpt lat="43.50384" lon="6.70408">
        <ele>91.6</ele>
        <time>2023-03-04T07:40:29.000Z</time>
      </trkpt>
      <trkpt lat="43.5039" lon="6.70411">
        <ele>91.6</ele>
        <time>2023-03-04T07:40:30.000Z</time>
      </trkpt>
      <trkpt lat="43.50395" lon="6.70413">
        <ele>91.8</ele>
        <time>2023-03-04T07:40:31.000Z</time>
      </trkpt>
      <trkpt lat="43.50399" lon="6.70416">
        <ele>91.9</ele>
        <time>2023-03-04T07:40:32.000Z</time>
      </trkpt>
      <trkpt lat="43.50403" lon="6.70418">
        <ele>92.1</ele>
        <time>2023-03-04T07:40:33.000Z</time>
      </trkpt>
      <trkpt lat="43.50407" lon="6.70421">
        <ele>92.2</ele>
        <time>2023-03-04T07:40:34.000Z</time>
      </trkpt>
      <trkpt lat="43.50412" lon="6.70424">
        <ele>92.4</ele>
        <time>2023-03-04T07:40:35.000Z</time>
      </trkpt>
      <trkpt lat="43.50415" lon="6.70429">
        <ele>92.6</ele>
        <time>2023-03-04T07:40:36.000Z</time>
      </trkpt>
      <trkpt lat="43.50419" lon="6.70434">
        <ele>92.7</ele>
        <time>2023-03-04T07:40:37.000Z</time>
      </trkpt>
      <trkpt lat="43.50421" lon="6.7044">
        <ele>92.9</ele>
        <time>2023-03-04T07:40:38.000Z</time>
      </trkpt>
      <trkpt lat="43.50423" lon="6.70447">
        <ele>93</ele>
        <time>2023-03-04T07:40:39.000Z</time>
      </trkpt>
      <trkpt lat="43.50424" lon="6.70454">
        <ele>93.2</ele>
        <time>2023-03-04T07:40:40.000Z</time>
      </trkpt>
      <trkpt lat="43.50425" lon="6.70462">
        <ele>93.3</ele>
        <time>2023-03-04T07:40:41.000Z</time>
      </trkpt>
      <trkpt lat="43.50427" lon="6.70469">
        <ele>93.3</ele>
        <time>2023-03-04T07:40:42.000Z</time>
      </trkpt>
      <trkpt lat="43.5043" lon="6.70476">
        <ele>93.4</ele>
        <time>2023-03-04T07:40:43.000Z</time>
      </trkpt>
      <trkpt lat="43.50433" lon="6.70483">
        <ele>93.4</ele>
        <time>2023-03-04T07:40:44.000Z</time>
      </trkpt>
      <trkpt lat="43.50436" lon="6.70488">
        <ele>93.5</ele>
        <time>2023-03-04T07:40:45.000Z</time>
      </trkpt>
      <trkpt lat="43.50439" lon="6.70493">
        <ele>93.6</ele>
        <time>2023-03-04T07:40:46.000Z</time>
      </trkpt>
      <trkpt lat="43.50442" lon="6.70499">
        <ele>93.6</ele>
        <time>2023-03-04T07:40:47.000Z</time>
      </trkpt>
      <trkpt lat="43.50446" lon="6.70504">
        <ele>93.7</ele>
        <time>2023-03-04T07:40:48.000Z</time>
      </trkpt>
      <trkpt lat="43.5045" lon="6.70508">
        <ele>93.8</ele>
        <time>2023-03-04T07:40:49.000Z</time>
      </trkpt>
      <trkpt lat="43.50454" lon="6.70511">
        <ele>94</ele>
        <time>2023-03-04T07:40:50.000Z</time>
      </trkpt>
      <trkpt lat="43.50458" lon="6.70513">
        <ele>94.1</ele>
        <time>2023-03-04T07:40:51.000Z</time>
      </trkpt>
      <trkpt lat="43.5046" lon="6.70517">
        <ele>94.3</ele>
        <time>2023-03-04T07:40:52.000Z</time>
      </trkpt>
      <trkpt lat="43.50461" lon="6.70519">
        <ele>94.4</ele>
        <time>2023-03-04T07:40:53.000Z</time>
      </trkpt>
      <trkpt lat="43.50462" lon="6.70523">
        <ele>94.4</ele>
        <time>2023-03-04T07:40:54.000Z</time>
      </trkpt>
      <trkpt lat="43.50464" lon="6.70528">
        <ele>94.4</ele>
        <time>2023-03-04T07:40:55.000Z</time>
      </trkpt>
      <trkpt lat="43.50465" lon="6.70535">
        <ele>94.3</ele>
        <time>2023-03-04T07:40:56.000Z</time>
      </trkpt>
      <trkpt lat="43.50464" lon="6.70541">
        <ele>94.3</ele>
        <time>2023-03-04T07:40:57.000Z</time>
      </trkpt>
      <trkpt lat="43.50463" lon="6.70546">
        <ele>94.3</ele>
        <time>2023-03-04T07:40:58.000Z</time>
      </trkpt>
      <trkpt lat="43.50463" lon="6.70551">
        <ele>94.4</ele>
        <time>2023-03-04T07:40:59.000Z</time>
      </trkpt>
      <trkpt lat="43.5046" lon="6.70559">
        <ele>94.5</ele>
        <time>2023-03-04T07:41:01.000Z</time>
      </trkpt>
      <trkpt lat="43.50455" lon="6.70561">
        <ele>94.6</ele>
        <time>2023-03-04T07:41:02.000Z</time>
      </trkpt>
      <trkpt lat="43.50452" lon="6.70561">
        <ele>94.6</ele>
        <time>2023-03-04T07:41:03.000Z</time>
      </trkpt>
      <trkpt lat="43.50449" lon="6.70563">
        <ele>94.7</ele>
        <time>2023-03-04T07:41:04.000Z</time>
      </trkpt>
      <trkpt lat="43.50447" lon="6.70563">
        <ele>94.7</ele>
        <time>2023-03-04T07:41:05.000Z</time>
      </trkpt>
      <trkpt lat="43.50444" lon="6.70563">
        <ele>94.8</ele>
        <time>2023-03-04T07:41:06.000Z</time>
      </trkpt>
      <trkpt lat="43.50439" lon="6.70564">
        <ele>95</ele>
        <time>2023-03-04T07:41:07.000Z</time>
      </trkpt>
      <trkpt lat="43.50435" lon="6.70565">
        <ele>95.1</ele>
        <time>2023-03-04T07:41:09.000Z</time>
      </trkpt>
      <trkpt lat="43.50432" lon="6.70563">
        <ele>95.3</ele>
        <time>2023-03-04T07:41:10.000Z</time>
      </trkpt>
      <trkpt lat="43.50431" lon="6.7056">
        <ele>95.4</ele>
        <time>2023-03-04T07:41:11.000Z</time>
      </trkpt>
      <trkpt lat="43.50428" lon="6.70558">
        <ele>95.6</ele>
        <time>2023-03-04T07:41:12.000Z</time>
      </trkpt>
      <trkpt lat="43.50425" lon="6.70555">
        <ele>95.8</ele>
        <time>2023-03-04T07:41:13.000Z</time>
      </trkpt>
      <trkpt lat="43.50423" lon="6.70551">
        <ele>96</ele>
        <time>2023-03-04T07:41:14.000Z</time>
      </trkpt>
      <trkpt lat="43.5042" lon="6.70548">
        <ele>96.2</ele>
        <time>2023-03-04T07:41:15.000Z</time>
      </trkpt>
      <trkpt lat="43.50417" lon="6.70545">
        <ele>96.4</ele>
        <time>2023-03-04T07:41:16.000Z</time>
      </trkpt>
      <trkpt lat="43.50413" lon="6.70545">
        <ele>96.5</ele>
        <time>2023-03-04T07:41:18.000Z</time>
      </trkpt>
      <trkpt lat="43.50412" lon="6.70545">
        <ele>96.6</ele>
        <time>2023-03-04T07:41:19.000Z</time>
      </trkpt>
      <trkpt lat="43.50412" lon="6.70545">
        <ele>96.6</ele>
        <time>2023-03-04T07:41:20.000Z</time>
      </trkpt>
      <trkpt lat="43.50411" lon="6.70545">
        <ele>96.6</ele>
        <time>2023-03-04T07:41:22.000Z</time>
      </trkpt>
      <trkpt lat="43.5041" lon="6.70545">
        <ele>96.7</ele>
        <time>2023-03-04T07:41:23.000Z</time>
      </trkpt>
      <trkpt lat="43.50408" lon="6.70543">
        <ele>96.7</ele>
        <time>2023-03-04T07:41:24.000Z</time>
      </trkpt>
      <trkpt lat="43.50408" lon="6.70541">
        <ele>96.8</ele>
        <time>2023-03-04T07:41:25.000Z</time>
      </trkpt>
      <trkpt lat="43.50407" lon="6.7054">
        <ele>96.8</ele>
        <time>2023-03-04T07:41:26.000Z</time>
      </trkpt>
      <trkpt lat="43.50405" lon="6.70536">
        <ele>96.8</ele>
        <time>2023-03-04T07:41:27.000Z</time>
      </trkpt>
      <trkpt lat="43.50401" lon="6.70532">
        <ele>96.9</ele>
        <time>2023-03-04T07:41:28.000Z</time>
      </trkpt>
      <trkpt lat="43.50398" lon="6.70528">
        <ele>96.8</ele>
        <time>2023-03-04T07:41:29.000Z</time>
      </trkpt>
      <trkpt lat="43.50394" lon="6.70525">
        <ele>96.7</ele>
        <time>2023-03-04T07:41:30.000Z</time>
      </trkpt>
      <trkpt lat="43.50391" lon="6.70522">
        <ele>96.7</ele>
        <time>2023-03-04T07:41:32.000Z</time>
      </trkpt>
      <trkpt lat="43.50387" lon="6.7052">
        <ele>96.6</ele>
        <time>2023-03-04T07:41:33.000Z</time>
      </trkpt>
      <trkpt lat="43.50386" lon="6.7052">
        <ele>96.5</ele>
        <time>2023-03-04T07:41:34.000Z</time>
      </trkpt>
      <trkpt lat="43.50383" lon="6.70522">
        <ele>96.4</ele>
        <time>2023-03-04T07:41:36.000Z</time>
      </trkpt>
      <trkpt lat="43.50381" lon="6.70524">
        <ele>95.6</ele>
        <time>2023-03-04T07:41:37.000Z</time>
      </trkpt>
      <trkpt lat="43.5038" lon="6.70527">
        <ele>95.5</ele>
        <time>2023-03-04T07:41:38.000Z</time>
      </trkpt>
      <trkpt lat="43.50382" lon="6.70533">
        <ele>95.7</ele>
        <time>2023-03-04T07:41:39.000Z</time>
      </trkpt>
      <trkpt lat="43.50386" lon="6.70537">
        <ele>95.9</ele>
        <time>2023-03-04T07:41:40.000Z</time>
      </trkpt>
      <trkpt lat="43.5039" lon="6.70539">
        <ele>96.1</ele>
        <time>2023-03-04T07:41:41.000Z</time>
      </trkpt>
      <trkpt lat="43.50395" lon="6.70542">
        <ele>96.3</ele>
        <time>2023-03-04T07:41:42.000Z</time>
      </trkpt>
      <trkpt lat="43.50399" lon="6.70545">
        <ele>96.6</ele>
        <time>2023-03-04T07:41:43.000Z</time>
      </trkpt>
      <trkpt lat="43.50405" lon="6.7055">
        <ele>96.9</ele>
        <time>2023-03-04T07:41:45.000Z</time>
      </trkpt>
      <trkpt lat="43.50409" lon="6.70553">
        <ele>97.1</ele>
        <time>2023-03-04T07:41:46.000Z</time>
      </trkpt>
      <trkpt lat="43.50414" lon="6.70557">
        <ele>97.4</ele>
        <time>2023-03-04T07:41:48.000Z</time>
      </trkpt>
      <trkpt lat="43.50418" lon="6.70562">
        <ele>97.7</ele>
        <time>2023-03-04T07:41:49.000Z</time>
      </trkpt>
      <trkpt lat="43.50421" lon="6.70566">
        <ele>97.9</ele>
        <time>2023-03-04T07:41:50.000Z</time>
      </trkpt>
      <trkpt lat="43.50425" lon="6.70572">
        <ele>98.2</ele>
        <time>2023-03-04T07:41:51.000Z</time>
      </trkpt>
      <trkpt lat="43.50428" lon="6.70577">
        <ele>98.4</ele>
        <time>2023-03-04T07:41:52.000Z</time>
      </trkpt>
      <trkpt lat="43.50431" lon="6.70582">
        <ele>98.7</ele>
        <time>2023-03-04T07:41:53.000Z</time>
      </trkpt>
      <trkpt lat="43.50436" lon="6.70591">
        <ele>99.2</ele>
        <time>2023-03-04T07:41:55.000Z</time>
      </trkpt>
      <trkpt lat="43.50438" lon="6.70596">
        <ele>99.4</ele>
        <time>2023-03-04T07:41:56.000Z</time>
      </trkpt>
      <trkpt lat="43.5044" lon="6.70603">
        <ele>99.8</ele>
        <time>2023-03-04T07:41:57.000Z</time>
      </trkpt>
      <trkpt lat="43.50443" lon="6.7061">
        <ele>100.1</ele>
        <time>2023-03-04T07:41:59.000Z</time>
      </trkpt>
      <trkpt lat="43.50445" lon="6.70617">
        <ele>100.5</ele>
        <time>2023-03-04T07:42:00.000Z</time>
      </trkpt>
      <trkpt lat="43.50447" lon="6.70624">
        <ele>100.8</ele>
        <time>2023-03-04T07:42:01.000Z</time>
      </trkpt>
      <trkpt lat="43.50448" lon="6.7063">
        <ele>101.1</ele>
        <time>2023-03-04T07:42:02.000Z</time>
      </trkpt>
      <trkpt lat="43.50449" lon="6.70636">
        <ele>101.3</ele>
        <time>2023-03-04T07:42:03.000Z</time>
      </trkpt>
      <trkpt lat="43.5045" lon="6.70643">
        <ele>101.6</ele>
        <time>2023-03-04T07:42:04.000Z</time>
      </trkpt>
      <trkpt lat="43.50451" lon="6.7065">
        <ele>102</ele>
        <time>2023-03-04T07:42:06.000Z</time>
      </trkpt>
      <trkpt lat="43.50452" lon="6.70657">
        <ele>102.3</ele>
        <time>2023-03-04T07:42:07.000Z</time>
      </trkpt>
      <trkpt lat="43.50452" lon="6.70663">
        <ele>102.6</ele>
        <time>2023-03-04T07:42:08.000Z</time>
      </trkpt>
      <trkpt lat="43.50452" lon="6.7067">
        <ele>102.9</ele>
        <time>2023-03-04T07:42:09.000Z</time>
      </trkpt>
      <trkpt lat="43.50453" lon="6.70676">
        <ele>103.2</ele>
        <time>2023-03-04T07:42:10.000Z</time>
      </trkpt>
      <trkpt lat="43.50454" lon="6.70682">
        <ele>103.5</ele>
        <time>2023-03-04T07:42:11.000Z</time>
      </trkpt>
      <trkpt lat="43.50454" lon="6.70688">
        <ele>103.7</ele>
        <time>2023-03-04T07:42:12.000Z</time>
      </trkpt>
      <trkpt lat="43.50455" lon="6.70693">
        <ele>104</ele>
        <time>2023-03-04T07:42:13.000Z</time>
      </trkpt>
      <trkpt lat="43.50456" lon="6.707">
        <ele>104.3</ele>
        <time>2023-03-04T07:42:15.000Z</time>
      </trkpt>
      <trkpt lat="43.50458" lon="6.70708">
        <ele>104.6</ele>
        <time>2023-03-04T07:42:16.000Z</time>
      </trkpt>
      <trkpt lat="43.5046" lon="6.70714">
        <ele>104.9</ele>
        <time>2023-03-04T07:42:17.000Z</time>
      </trkpt>
      <trkpt lat="43.50461" lon="6.70719">
        <ele>105.2</ele>
        <time>2023-03-04T07:42:18.000Z</time>
      </trkpt>
      <trkpt lat="43.50462" lon="6.70724">
        <ele>105.4</ele>
        <time>2023-03-04T07:42:19.000Z</time>
      </trkpt>
      <trkpt lat="43.50464" lon="6.70731">
        <ele>105.7</ele>
        <time>2023-03-04T07:42:20.000Z</time>
      </trkpt>
      <trkpt lat="43.50466" lon="6.70736">
        <ele>106</ele>
        <time>2023-03-04T07:42:21.000Z</time>
      </trkpt>
      <trkpt lat="43.50467" lon="6.70741">
        <ele>106.2</ele>
        <time>2023-03-04T07:42:22.000Z</time>
      </trkpt>
      <trkpt lat="43.50469" lon="6.70748">
        <ele>106.5</ele>
        <time>2023-03-04T07:42:24.000Z</time>
      </trkpt>
      <trkpt lat="43.50471" lon="6.70754">
        <ele>106.8</ele>
        <time>2023-03-04T07:42:25.000Z</time>
      </trkpt>
      <trkpt lat="43.50472" lon="6.70759">
        <ele>107.1</ele>
        <time>2023-03-04T07:42:26.000Z</time>
      </trkpt>
      <trkpt lat="43.50474" lon="6.70764">
        <ele>107.4</ele>
        <time>2023-03-04T07:42:27.000Z</time>
      </trkpt>
      <trkpt lat="43.50476" lon="6.7077">
        <ele>107.7</ele>
        <time>2023-03-04T07:42:28.000Z</time>
      </trkpt>
      <trkpt lat="43.50478" lon="6.70775">
        <ele>107.9</ele>
        <time>2023-03-04T07:42:30.000Z</time>
      </trkpt>
      <trkpt lat="43.5048" lon="6.70782">
        <ele>108.3</ele>
        <time>2023-03-04T07:42:31.000Z</time>
      </trkpt>
      <trkpt lat="43.50482" lon="6.70788">
        <ele>108.5</ele>
        <time>2023-03-04T07:42:32.000Z</time>
      </trkpt>
      <trkpt lat="43.50484" lon="6.70793">
        <ele>108.8</ele>
        <time>2023-03-04T07:42:34.000Z</time>
      </trkpt>
      <trkpt lat="43.50486" lon="6.70799">
        <ele>109.1</ele>
        <time>2023-03-04T07:42:35.000Z</time>
      </trkpt>
      <trkpt lat="43.50488" lon="6.70803">
        <ele>109.3</ele>
        <time>2023-03-04T07:42:36.000Z</time>
      </trkpt>
      <trkpt lat="43.5049" lon="6.70809">
        <ele>109.6</ele>
        <time>2023-03-04T07:42:37.000Z</time>
      </trkpt>
      <trkpt lat="43.50492" lon="6.70813">
        <ele>109.9</ele>
        <time>2023-03-04T07:42:38.000Z</time>
      </trkpt>
      <trkpt lat="43.50493" lon="6.70818">
        <ele>110.1</ele>
        <time>2023-03-04T07:42:39.000Z</time>
      </trkpt>
      <trkpt lat="43.50495" lon="6.70824">
        <ele>110.4</ele>
        <time>2023-03-04T07:42:41.000Z</time>
      </trkpt>
      <trkpt lat="43.50497" lon="6.70829">
        <ele>110.7</ele>
        <time>2023-03-04T07:42:42.000Z</time>
      </trkpt>
      <trkpt lat="43.50499" lon="6.70833">
        <ele>110.9</ele>
        <time>2023-03-04T07:42:43.000Z</time>
      </trkpt>
      <trkpt lat="43.505" lon="6.70838">
        <ele>111.1</ele>
        <time>2023-03-04T07:42:44.000Z</time>
      </trkpt>
      <trkpt lat="43.50502" lon="6.70843">
        <ele>111.4</ele>
        <time>2023-03-04T07:42:45.000Z</time>
      </trkpt>
      <trkpt lat="43.50504" lon="6.70848">
        <ele>111.7</ele>
        <time>2023-03-04T07:42:46.000Z</time>
      </trkpt>
      <trkpt lat="43.50506" lon="6.70857">
        <ele>112.1</ele>
        <time>2023-03-04T07:42:48.000Z</time>
      </trkpt>
      <trkpt lat="43.50507" lon="6.70861">
        <ele>112.3</ele>
        <time>2023-03-04T07:42:49.000Z</time>
      </trkpt>
      <trkpt lat="43.50508" lon="6.70866">
        <ele>112.6</ele>
        <time>2023-03-04T07:42:50.000Z</time>
      </trkpt>
      <trkpt lat="43.50509" lon="6.70871">
        <ele>112.8</ele>
        <time>2023-03-04T07:42:52.000Z</time>
      </trkpt>
      <trkpt lat="43.50511" lon="6.70878">
        <ele>113.1</ele>
        <time>2023-03-04T07:42:53.000Z</time>
      </trkpt>
      <trkpt lat="43.50512" lon="6.70884">
        <ele>113.4</ele>
        <time>2023-03-04T07:42:54.000Z</time>
      </trkpt>
      <trkpt lat="43.50513" lon="6.70889">
        <ele>113.6</ele>
        <time>2023-03-04T07:42:55.000Z</time>
      </trkpt>
      <trkpt lat="43.50514" lon="6.70895">
        <ele>113.9</ele>
        <time>2023-03-04T07:42:56.000Z</time>
      </trkpt>
      <trkpt lat="43.50515" lon="6.70904">
        <ele>114.2</ele>
        <time>2023-03-04T07:42:58.000Z</time>
      </trkpt>
      <trkpt lat="43.50516" lon="6.70909">
        <ele>114.5</ele>
        <time>2023-03-04T07:42:59.000Z</time>
      </trkpt>
      <trkpt lat="43.50517" lon="6.70914">
        <ele>114.7</ele>
        <time>2023-03-04T07:43:00.000Z</time>
      </trkpt>
      <trkpt lat="43.50518" lon="6.7092">
        <ele>114.9</ele>
        <time>2023-03-04T07:43:02.000Z</time>
      </trkpt>
      <trkpt lat="43.5052" lon="6.7093">
        <ele>115.3</ele>
        <time>2023-03-04T07:43:03.000Z</time>
      </trkpt>
      <trkpt lat="43.50522" lon="6.70939">
        <ele>115.7</ele>
        <time>2023-03-04T07:43:05.000Z</time>
      </trkpt>
      <trkpt lat="43.50523" lon="6.70945">
        <ele>116</ele>
        <time>2023-03-04T07:43:06.000Z</time>
      </trkpt>
      <trkpt lat="43.50524" lon="6.7095">
        <ele>116.2</ele>
        <time>2023-03-04T07:43:07.000Z</time>
      </trkpt>
      <trkpt lat="43.50525" lon="6.70957">
        <ele>116.5</ele>
        <time>2023-03-04T07:43:09.000Z</time>
      </trkpt>
      <trkpt lat="43.50526" lon="6.70966">
        <ele>116.9</ele>
        <time>2023-03-04T07:43:10.000Z</time>
      </trkpt>
      <trkpt lat="43.50528" lon="6.70976">
        <ele>117.3</ele>
        <time>2023-03-04T07:43:12.000Z</time>
      </trkpt>
      <trkpt lat="43.50529" lon="6.70981">
        <ele>117.6</ele>
        <time>2023-03-04T07:43:13.000Z</time>
      </trkpt>
      <trkpt lat="43.5053" lon="6.70986">
        <ele>117.8</ele>
        <time>2023-03-04T07:43:14.000Z</time>
      </trkpt>
      <trkpt lat="43.50532" lon="6.70996">
        <ele>118.2</ele>
        <time>2023-03-04T07:43:16.000Z</time>
      </trkpt>
      <trkpt lat="43.50533" lon="6.71003">
        <ele>118.5</ele>
        <time>2023-03-04T07:43:17.000Z</time>
      </trkpt>
      <trkpt lat="43.50535" lon="6.71009">
        <ele>118.8</ele>
        <time>2023-03-04T07:43:19.000Z</time>
      </trkpt>
      <trkpt lat="43.50536" lon="6.71015">
        <ele>119</ele>
        <time>2023-03-04T07:43:20.000Z</time>
      </trkpt>
      <trkpt lat="43.50537" lon="6.71023">
        <ele>119.4</ele>
        <time>2023-03-04T07:43:21.000Z</time>
      </trkpt>
      <trkpt lat="43.50538" lon="6.71029">
        <ele>119.6</ele>
        <time>2023-03-04T07:43:23.000Z</time>
      </trkpt>
      <trkpt lat="43.5054" lon="6.71038">
        <ele>120</ele>
        <time>2023-03-04T07:43:24.000Z</time>
      </trkpt>
      <trkpt lat="43.50542" lon="6.71047">
        <ele>120.4</ele>
        <time>2023-03-04T07:43:26.000Z</time>
      </trkpt>
      <trkpt lat="43.50543" lon="6.71052">
        <ele>120.7</ele>
        <time>2023-03-04T07:43:27.000Z</time>
      </trkpt>
      <trkpt lat="43.50544" lon="6.71058">
        <ele>120.9</ele>
        <time>2023-03-04T07:43:28.000Z</time>
      </trkpt>
      <trkpt lat="43.50546" lon="6.71068">
        <ele>121.4</ele>
        <time>2023-03-04T07:43:30.000Z</time>
      </trkpt>
      <trkpt lat="43.50547" lon="6.71073">
        <ele>121.7</ele>
        <time>2023-03-04T07:43:31.000Z</time>
      </trkpt>
      <trkpt lat="43.50548" lon="6.7108">
        <ele>122</ele>
        <time>2023-03-04T07:43:32.000Z</time>
      </trkpt>
      <trkpt lat="43.5055" lon="6.7109">
        <ele>122.4</ele>
        <time>2023-03-04T07:43:34.000Z</time>
      </trkpt>
      <trkpt lat="43.50551" lon="6.71095">
        <ele>122.6</ele>
        <time>2023-03-04T07:43:35.000Z</time>
      </trkpt>
      <trkpt lat="43.50552" lon="6.71101">
        <ele>122.9</ele>
        <time>2023-03-04T07:43:37.000Z</time>
      </trkpt>
      <trkpt lat="43.50553" lon="6.71108">
        <ele>123.2</ele>
        <time>2023-03-04T07:43:38.000Z</time>
      </trkpt>
      <trkpt lat="43.50554" lon="6.71114">
        <ele>123.5</ele>
        <time>2023-03-04T07:43:39.000Z</time>
      </trkpt>
      <trkpt lat="43.50555" lon="6.71119">
        <ele>123.7</ele>
        <time>2023-03-04T07:43:40.000Z</time>
      </trkpt>
      <trkpt lat="43.50557" lon="6.71126">
        <ele>124</ele>
        <time>2023-03-04T07:43:41.000Z</time>
      </trkpt>
      <trkpt lat="43.50557" lon="6.71131">
        <ele>124.2</ele>
        <time>2023-03-04T07:43:42.000Z</time>
      </trkpt>
      <trkpt lat="43.50559" lon="6.7114">
        <ele>124.6</ele>
        <time>2023-03-04T07:43:44.000Z</time>
      </trkpt>
      <trkpt lat="43.5056" lon="6.71146">
        <ele>124.9</ele>
        <time>2023-03-04T07:43:45.000Z</time>
      </trkpt>
      <trkpt lat="43.50561" lon="6.71152">
        <ele>125.2</ele>
        <time>2023-03-04T07:43:46.000Z</time>
      </trkpt>
      <trkpt lat="43.50563" lon="6.7116">
        <ele>125.6</ele>
        <time>2023-03-04T07:43:48.000Z</time>
      </trkpt>
      <trkpt lat="43.50564" lon="6.71167">
        <ele>125.9</ele>
        <time>2023-03-04T07:43:49.000Z</time>
      </trkpt>
      <trkpt lat="43.50565" lon="6.71173">
        <ele>126.2</ele>
        <time>2023-03-04T07:43:50.000Z</time>
      </trkpt>
      <trkpt lat="43.50567" lon="6.71182">
        <ele>126.6</ele>
        <time>2023-03-04T07:43:52.000Z</time>
      </trkpt>
      <trkpt lat="43.50568" lon="6.71188">
        <ele>126.9</ele>
        <time>2023-03-04T07:43:53.000Z</time>
      </trkpt>
      <trkpt lat="43.50569" lon="6.71194">
        <ele>127.2</ele>
        <time>2023-03-04T07:43:54.000Z</time>
      </trkpt>
      <trkpt lat="43.5057" lon="6.712">
        <ele>127.4</ele>
        <time>2023-03-04T07:43:56.000Z</time>
      </trkpt>
      <trkpt lat="43.50571" lon="6.71209">
        <ele>127.9</ele>
        <time>2023-03-04T07:43:57.000Z</time>
      </trkpt>
      <trkpt lat="43.50572" lon="6.71214">
        <ele>128.1</ele>
        <time>2023-03-04T07:43:58.000Z</time>
      </trkpt>
      <trkpt lat="43.50573" lon="6.71219">
        <ele>128.4</ele>
        <time>2023-03-04T07:44:00.000Z</time>
      </trkpt>
      <trkpt lat="43.50574" lon="6.71226">
        <ele>128.7</ele>
        <time>2023-03-04T07:44:01.000Z</time>
      </trkpt>
      <trkpt lat="43.50576" lon="6.71232">
        <ele>128.9</ele>
        <time>2023-03-04T07:44:02.000Z</time>
      </trkpt>
      <trkpt lat="43.50577" lon="6.71237">
        <ele>129.2</ele>
        <time>2023-03-04T07:44:03.000Z</time>
      </trkpt>
      <trkpt lat="43.50577" lon="6.71243">
        <ele>129.5</ele>
        <time>2023-03-04T07:44:04.000Z</time>
      </trkpt>
      <trkpt lat="43.50579" lon="6.71249">
        <ele>129.7</ele>
        <time>2023-03-04T07:44:05.000Z</time>
      </trkpt>
      <trkpt lat="43.5058" lon="6.71253">
        <ele>129.9</ele>
        <time>2023-03-04T07:44:06.000Z</time>
      </trkpt>
      <trkpt lat="43.50582" lon="6.71263">
        <ele>130.4</ele>
        <time>2023-03-04T07:44:08.000Z</time>
      </trkpt>
      <trkpt lat="43.50584" lon="6.71268">
        <ele>130.6</ele>
        <time>2023-03-04T07:44:09.000Z</time>
      </trkpt>
      <trkpt lat="43.50586" lon="6.71272">
        <ele>130.8</ele>
        <time>2023-03-04T07:44:10.000Z</time>
      </trkpt>
      <trkpt lat="43.50589" lon="6.7128">
        <ele>131.2</ele>
        <time>2023-03-04T07:44:12.000Z</time>
      </trkpt>
      <trkpt lat="43.50591" lon="6.71286">
        <ele>131.5</ele>
        <time>2023-03-04T07:44:13.000Z</time>
      </trkpt>
      <trkpt lat="43.50594" lon="6.71291">
        <ele>131.8</ele>
        <time>2023-03-04T07:44:14.000Z</time>
      </trkpt>
      <trkpt lat="43.50597" lon="6.71299">
        <ele>132.1</ele>
        <time>2023-03-04T07:44:16.000Z</time>
      </trkpt>
      <trkpt lat="43.506" lon="6.71305">
        <ele>132.4</ele>
        <time>2023-03-04T07:44:17.000Z</time>
      </trkpt>
      <trkpt lat="43.50601" lon="6.71309">
        <ele>132.6</ele>
        <time>2023-03-04T07:44:18.000Z</time>
      </trkpt>
      <trkpt lat="43.50604" lon="6.71313">
        <ele>132.8</ele>
        <time>2023-03-04T07:44:19.000Z</time>
      </trkpt>
      <trkpt lat="43.50608" lon="6.71321">
        <ele>133.2</ele>
        <time>2023-03-04T07:44:21.000Z</time>
      </trkpt>
      <trkpt lat="43.5061" lon="6.71326">
        <ele>133.5</ele>
        <time>2023-03-04T07:44:22.000Z</time>
      </trkpt>
      <trkpt lat="43.50613" lon="6.71331">
        <ele>133.8</ele>
        <time>2023-03-04T07:44:24.000Z</time>
      </trkpt>
      <trkpt lat="43.50617" lon="6.71339">
        <ele>134.2</ele>
        <time>2023-03-04T07:44:25.000Z</time>
      </trkpt>
      <trkpt lat="43.5062" lon="6.71343">
        <ele>134.5</ele>
        <time>2023-03-04T07:44:26.000Z</time>
      </trkpt>
      <trkpt lat="43.50623" lon="6.71347">
        <ele>134.7</ele>
        <time>2023-03-04T07:44:27.000Z</time>
      </trkpt>
      <trkpt lat="43.50628" lon="6.71354">
        <ele>135.1</ele>
        <time>2023-03-04T07:44:29.000Z</time>
      </trkpt>
      <trkpt lat="43.50631" lon="6.71359">
        <ele>135.4</ele>
        <time>2023-03-04T07:44:30.000Z</time>
      </trkpt>
      <trkpt lat="43.50634" lon="6.71364">
        <ele>135.7</ele>
        <time>2023-03-04T07:44:32.000Z</time>
      </trkpt>
      <trkpt lat="43.50637" lon="6.71369">
        <ele>135.9</ele>
        <time>2023-03-04T07:44:33.000Z</time>
      </trkpt>
      <trkpt lat="43.50641" lon="6.71374">
        <ele>136.1</ele>
        <time>2023-03-04T07:44:34.000Z</time>
      </trkpt>
      <trkpt lat="43.50644" lon="6.71379">
        <ele>136.4</ele>
        <time>2023-03-04T07:44:35.000Z</time>
      </trkpt>
      <trkpt lat="43.50647" lon="6.71385">
        <ele>136.6</ele>
        <time>2023-03-04T07:44:36.000Z</time>
      </trkpt>
      <trkpt lat="43.5065" lon="6.71391">
        <ele>136.9</ele>
        <time>2023-03-04T07:44:37.000Z</time>
      </trkpt>
      <trkpt lat="43.50652" lon="6.71396">
        <ele>137.1</ele>
        <time>2023-03-04T07:44:38.000Z</time>
      </trkpt>
      <trkpt lat="43.50656" lon="6.71404">
        <ele>137.4</ele>
        <time>2023-03-04T07:44:40.000Z</time>
      </trkpt>
      <trkpt lat="43.50658" lon="6.7141">
        <ele>137.6</ele>
        <time>2023-03-04T07:44:41.000Z</time>
      </trkpt>
      <trkpt lat="43.5066" lon="6.71415">
        <ele>137.9</ele>
        <time>2023-03-04T07:44:42.000Z</time>
      </trkpt>
      <trkpt lat="43.50664" lon="6.71424">
        <ele>138.2</ele>
        <time>2023-03-04T07:44:44.000Z</time>
      </trkpt>
      <trkpt lat="43.50667" lon="6.7143">
        <ele>138.5</ele>
        <time>2023-03-04T07:44:45.000Z</time>
      </trkpt>
      <trkpt lat="43.50669" lon="6.71435">
        <ele>138.8</ele>
        <time>2023-03-04T07:44:46.000Z</time>
      </trkpt>
      <trkpt lat="43.50673" lon="6.71441">
        <ele>139</ele>
        <time>2023-03-04T07:44:48.000Z</time>
      </trkpt>
      <trkpt lat="43.50676" lon="6.71447">
        <ele>139.3</ele>
        <time>2023-03-04T07:44:49.000Z</time>
      </trkpt>
      <trkpt lat="43.50679" lon="6.71454">
        <ele>139.6</ele>
        <time>2023-03-04T07:44:51.000Z</time>
      </trkpt>
      <trkpt lat="43.50681" lon="6.7146">
        <ele>139.9</ele>
        <time>2023-03-04T07:44:52.000Z</time>
      </trkpt>
      <trkpt lat="43.50683" lon="6.71465">
        <ele>140.1</ele>
        <time>2023-03-04T07:44:53.000Z</time>
      </trkpt>
      <trkpt lat="43.50686" lon="6.71469">
        <ele>140.3</ele>
        <time>2023-03-04T07:44:54.000Z</time>
      </trkpt>
      <trkpt lat="43.50688" lon="6.71474">
        <ele>140.5</ele>
        <time>2023-03-04T07:44:55.000Z</time>
      </trkpt>
      <trkpt lat="43.50691" lon="6.71479">
        <ele>140.7</ele>
        <time>2023-03-04T07:44:56.000Z</time>
      </trkpt>
      <trkpt lat="43.50693" lon="6.71483">
        <ele>140.9</ele>
        <time>2023-03-04T07:44:57.000Z</time>
      </trkpt>
      <trkpt lat="43.50696" lon="6.71489">
        <ele>141.2</ele>
        <time>2023-03-04T07:44:59.000Z</time>
      </trkpt>
      <trkpt lat="43.50698" lon="6.71493">
        <ele>141.4</ele>
        <time>2023-03-04T07:45:00.000Z</time>
      </trkpt>
      <trkpt lat="43.50701" lon="6.71498">
        <ele>141.7</ele>
        <time>2023-03-04T07:45:01.000Z</time>
      </trkpt>
      <trkpt lat="43.50705" lon="6.71505">
        <ele>142</ele>
        <time>2023-03-04T07:45:02.000Z</time>
      </trkpt>
      <trkpt lat="43.50708" lon="6.71511">
        <ele>142.3</ele>
        <time>2023-03-04T07:45:04.000Z</time>
      </trkpt>
      <trkpt lat="43.50711" lon="6.71516">
        <ele>142.6</ele>
        <time>2023-03-04T07:45:05.000Z</time>
      </trkpt>
      <trkpt lat="43.50714" lon="6.71521">
        <ele>142.8</ele>
        <time>2023-03-04T07:45:06.000Z</time>
      </trkpt>
      <trkpt lat="43.50716" lon="6.71524">
        <ele>143</ele>
        <time>2023-03-04T07:45:07.000Z</time>
      </trkpt>
      <trkpt lat="43.50719" lon="6.71529">
        <ele>143.3</ele>
        <time>2023-03-04T07:45:08.000Z</time>
      </trkpt>
      <trkpt lat="43.50722" lon="6.71533">
        <ele>143.5</ele>
        <time>2023-03-04T07:45:09.000Z</time>
      </trkpt>
      <trkpt lat="43.50726" lon="6.71538">
        <ele>143.8</ele>
        <time>2023-03-04T07:45:10.000Z</time>
      </trkpt>
      <trkpt lat="43.50729" lon="6.71542">
        <ele>144.1</ele>
        <time>2023-03-04T07:45:12.000Z</time>
      </trkpt>
      <trkpt lat="43.50732" lon="6.71547">
        <ele>144.3</ele>
        <time>2023-03-04T07:45:13.000Z</time>
      </trkpt>
      <trkpt lat="43.50735" lon="6.71551">
        <ele>144.5</ele>
        <time>2023-03-04T07:45:14.000Z</time>
      </trkpt>
      <trkpt lat="43.50738" lon="6.71555">
        <ele>144.8</ele>
        <time>2023-03-04T07:45:15.000Z</time>
      </trkpt>
      <trkpt lat="43.50742" lon="6.71559">
        <ele>145</ele>
        <time>2023-03-04T07:45:16.000Z</time>
      </trkpt>
      <trkpt lat="43.50745" lon="6.71563">
        <ele>145.3</ele>
        <time>2023-03-04T07:45:17.000Z</time>
      </trkpt>
      <trkpt lat="43.50751" lon="6.71569">
        <ele>145.7</ele>
        <time>2023-03-04T07:45:19.000Z</time>
      </trkpt>
      <trkpt lat="43.50755" lon="6.71573">
        <ele>146</ele>
        <time>2023-03-04T07:45:20.000Z</time>
      </trkpt>
      <trkpt lat="43.50757" lon="6.71576">
        <ele>146.2</ele>
        <time>2023-03-04T07:45:21.000Z</time>
      </trkpt>
      <trkpt lat="43.5076" lon="6.71579">
        <ele>146.4</ele>
        <time>2023-03-04T07:45:22.000Z</time>
      </trkpt>
      <trkpt lat="43.50765" lon="6.71583">
        <ele>146.7</ele>
        <time>2023-03-04T07:45:24.000Z</time>
      </trkpt>
      <trkpt lat="43.5077" lon="6.71586">
        <ele>147</ele>
        <time>2023-03-04T07:45:25.000Z</time>
      </trkpt>
      <trkpt lat="43.50773" lon="6.71589">
        <ele>147.2</ele>
        <time>2023-03-04T07:45:26.000Z</time>
      </trkpt>
      <trkpt lat="43.50779" lon="6.71592">
        <ele>147.6</ele>
        <time>2023-03-04T07:45:28.000Z</time>
      </trkpt>
      <trkpt lat="43.50784" lon="6.71594">
        <ele>147.9</ele>
        <time>2023-03-04T07:45:29.000Z</time>
      </trkpt>
      <trkpt lat="43.50788" lon="6.71595">
        <ele>148.1</ele>
        <time>2023-03-04T07:45:30.000Z</time>
      </trkpt>
      <trkpt lat="43.50793" lon="6.71596">
        <ele>148.4</ele>
        <time>2023-03-04T07:45:32.000Z</time>
      </trkpt>
      <trkpt lat="43.50797" lon="6.71597">
        <ele>148.6</ele>
        <time>2023-03-04T07:45:33.000Z</time>
      </trkpt>
      <trkpt lat="43.50802" lon="6.71597">
        <ele>148.9</ele>
        <time>2023-03-04T07:45:34.000Z</time>
      </trkpt>
      <trkpt lat="43.50807" lon="6.71597">
        <ele>149.1</ele>
        <time>2023-03-04T07:45:35.000Z</time>
      </trkpt>
      <trkpt lat="43.50811" lon="6.71596">
        <ele>149.4</ele>
        <time>2023-03-04T07:45:36.000Z</time>
      </trkpt>
      <trkpt lat="43.50818" lon="6.71594">
        <ele>149.8</ele>
        <time>2023-03-04T07:45:38.000Z</time>
      </trkpt>
      <trkpt lat="43.50823" lon="6.71593">
        <ele>150.1</ele>
        <time>2023-03-04T07:45:39.000Z</time>
      </trkpt>
      <trkpt lat="43.50828" lon="6.71591">
        <ele>150.4</ele>
        <time>2023-03-04T07:45:40.000Z</time>
      </trkpt>
      <trkpt lat="43.50832" lon="6.71589">
        <ele>150.6</ele>
        <time>2023-03-04T07:45:41.000Z</time>
      </trkpt>
      <trkpt lat="43.50837" lon="6.71586">
        <ele>150.9</ele>
        <time>2023-03-04T07:45:43.000Z</time>
      </trkpt>
      <trkpt lat="43.50841" lon="6.71582">
        <ele>151.2</ele>
        <time>2023-03-04T07:45:44.000Z</time>
      </trkpt>
      <trkpt lat="43.50845" lon="6.71579">
        <ele>151.5</ele>
        <time>2023-03-04T07:45:45.000Z</time>
      </trkpt>
      <trkpt lat="43.50848" lon="6.71577">
        <ele>151.7</ele>
        <time>2023-03-04T07:45:46.000Z</time>
      </trkpt>
      <trkpt lat="43.50852" lon="6.71573">
        <ele>151.9</ele>
        <time>2023-03-04T07:45:47.000Z</time>
      </trkpt>
      <trkpt lat="43.50857" lon="6.71569">
        <ele>152.3</ele>
        <time>2023-03-04T07:45:49.000Z</time>
      </trkpt>
      <trkpt lat="43.5086" lon="6.71565">
        <ele>152.5</ele>
        <time>2023-03-04T07:45:50.000Z</time>
      </trkpt>
      <trkpt lat="43.50865" lon="6.71561">
        <ele>152.8</ele>
        <time>2023-03-04T07:45:51.000Z</time>
      </trkpt>
      <trkpt lat="43.50869" lon="6.71557">
        <ele>153.1</ele>
        <time>2023-03-04T07:45:52.000Z</time>
      </trkpt>
      <trkpt lat="43.50872" lon="6.71554">
        <ele>153.4</ele>
        <time>2023-03-04T07:45:53.000Z</time>
      </trkpt>
      <trkpt lat="43.50875" lon="6.7155">
        <ele>153.6</ele>
        <time>2023-03-04T07:45:54.000Z</time>
      </trkpt>
      <trkpt lat="43.50879" lon="6.71546">
        <ele>153.9</ele>
        <time>2023-03-04T07:45:56.000Z</time>
      </trkpt>
      <trkpt lat="43.50882" lon="6.71542">
        <ele>154.2</ele>
        <time>2023-03-04T07:45:57.000Z</time>
      </trkpt>
      <trkpt lat="43.50887" lon="6.71538">
        <ele>154.5</ele>
        <time>2023-03-04T07:45:58.000Z</time>
      </trkpt>
      <trkpt lat="43.5089" lon="6.71536">
        <ele>154.7</ele>
        <time>2023-03-04T07:45:59.000Z</time>
      </trkpt>
      <trkpt lat="43.50894" lon="6.71534">
        <ele>155</ele>
        <time>2023-03-04T07:46:00.000Z</time>
      </trkpt>
      <trkpt lat="43.50898" lon="6.71532">
        <ele>155.3</ele>
        <time>2023-03-04T07:46:01.000Z</time>
      </trkpt>
      <trkpt lat="43.50905" lon="6.7153">
        <ele>155.7</ele>
        <time>2023-03-04T07:46:03.000Z</time>
      </trkpt>
      <trkpt lat="43.5091" lon="6.7153">
        <ele>156</ele>
        <time>2023-03-04T07:46:04.000Z</time>
      </trkpt>
      <trkpt lat="43.50914" lon="6.71531">
        <ele>156.3</ele>
        <time>2023-03-04T07:46:05.000Z</time>
      </trkpt>
      <trkpt lat="43.50919" lon="6.71532">
        <ele>156.5</ele>
        <time>2023-03-04T07:46:07.000Z</time>
      </trkpt>
      <trkpt lat="43.50923" lon="6.71535">
        <ele>156.8</ele>
        <time>2023-03-04T07:46:08.000Z</time>
      </trkpt>
      <trkpt lat="43.50928" lon="6.71537">
        <ele>157.1</ele>
        <time>2023-03-04T07:46:09.000Z</time>
      </trkpt>
      <trkpt lat="43.50932" lon="6.7154">
        <ele>157.3</ele>
        <time>2023-03-04T07:46:10.000Z</time>
      </trkpt>
      <trkpt lat="43.50935" lon="6.71543">
        <ele>157.6</ele>
        <time>2023-03-04T07:46:11.000Z</time>
      </trkpt>
      <trkpt lat="43.50939" lon="6.71546">
        <ele>157.8</ele>
        <time>2023-03-04T07:46:12.000Z</time>
      </trkpt>
      <trkpt lat="43.50944" lon="6.71553">
        <ele>158.2</ele>
        <time>2023-03-04T07:46:14.000Z</time>
      </trkpt>
      <trkpt lat="43.50947" lon="6.71558">
        <ele>158.5</ele>
        <time>2023-03-04T07:46:15.000Z</time>
      </trkpt>
      <trkpt lat="43.50949" lon="6.71563">
        <ele>158.7</ele>
        <time>2023-03-04T07:46:16.000Z</time>
      </trkpt>
      <trkpt lat="43.50952" lon="6.71569">
        <ele>159</ele>
        <time>2023-03-04T07:46:18.000Z</time>
      </trkpt>
      <trkpt lat="43.50954" lon="6.71575">
        <ele>159.3</ele>
        <time>2023-03-04T07:46:19.000Z</time>
      </trkpt>
      <trkpt lat="43.50956" lon="6.71581">
        <ele>159.5</ele>
        <time>2023-03-04T07:46:20.000Z</time>
      </trkpt>
      <trkpt lat="43.50959" lon="6.71587">
        <ele>159.8</ele>
        <time>2023-03-04T07:46:21.000Z</time>
      </trkpt>
      <trkpt lat="43.5096" lon="6.71592">
        <ele>160</ele>
        <time>2023-03-04T07:46:22.000Z</time>
      </trkpt>
      <trkpt lat="43.50962" lon="6.71598">
        <ele>160.3</ele>
        <time>2023-03-04T07:46:23.000Z</time>
      </trkpt>
      <trkpt lat="43.50964" lon="6.71603">
        <ele>160.5</ele>
        <time>2023-03-04T07:46:24.000Z</time>
      </trkpt>
      <trkpt lat="43.50966" lon="6.71611">
        <ele>160.8</ele>
        <time>2023-03-04T07:46:26.000Z</time>
      </trkpt>
      <trkpt lat="43.50968" lon="6.71617">
        <ele>161.1</ele>
        <time>2023-03-04T07:46:27.000Z</time>
      </trkpt>
      <trkpt lat="43.50971" lon="6.71625">
        <ele>161.4</ele>
        <time>2023-03-04T07:46:28.000Z</time>
      </trkpt>
      <trkpt lat="43.50973" lon="6.71629">
        <ele>161.7</ele>
        <time>2023-03-04T07:46:29.000Z</time>
      </trkpt>
      <trkpt lat="43.50975" lon="6.71635">
        <ele>161.9</ele>
        <time>2023-03-04T07:46:30.000Z</time>
      </trkpt>
      <trkpt lat="43.50976" lon="6.71639">
        <ele>162.1</ele>
        <time>2023-03-04T07:46:31.000Z</time>
      </trkpt>
      <trkpt lat="43.50978" lon="6.71644">
        <ele>162.3</ele>
        <time>2023-03-04T07:46:33.000Z</time>
      </trkpt>
      <trkpt lat="43.5098" lon="6.71649">
        <ele>162.6</ele>
        <time>2023-03-04T07:46:34.000Z</time>
      </trkpt>
      <trkpt lat="43.50983" lon="6.71656">
        <ele>162.9</ele>
        <time>2023-03-04T07:46:35.000Z</time>
      </trkpt>
      <trkpt lat="43.50986" lon="6.71661">
        <ele>163.1</ele>
        <time>2023-03-04T07:46:36.000Z</time>
      </trkpt>
      <trkpt lat="43.50988" lon="6.71666">
        <ele>163.3</ele>
        <time>2023-03-04T07:46:37.000Z</time>
      </trkpt>
      <trkpt lat="43.50991" lon="6.71671">
        <ele>163.6</ele>
        <time>2023-03-04T07:46:38.000Z</time>
      </trkpt>
      <trkpt lat="43.50993" lon="6.71676">
        <ele>163.8</ele>
        <time>2023-03-04T07:46:40.000Z</time>
      </trkpt>
      <trkpt lat="43.50996" lon="6.71681">
        <ele>164.1</ele>
        <time>2023-03-04T07:46:41.000Z</time>
      </trkpt>
      <trkpt lat="43.50998" lon="6.71687">
        <ele>164.3</ele>
        <time>2023-03-04T07:46:42.000Z</time>
      </trkpt>
      <trkpt lat="43.51001" lon="6.71693">
        <ele>164.6</ele>
        <time>2023-03-04T07:46:43.000Z</time>
      </trkpt>
      <trkpt lat="43.51003" lon="6.71697">
        <ele>164.8</ele>
        <time>2023-03-04T07:46:44.000Z</time>
      </trkpt>
      <trkpt lat="43.51006" lon="6.71703">
        <ele>165.1</ele>
        <time>2023-03-04T07:46:45.000Z</time>
      </trkpt>
      <trkpt lat="43.51009" lon="6.71708">
        <ele>165.3</ele>
        <time>2023-03-04T07:46:46.000Z</time>
      </trkpt>
      <trkpt lat="43.51011" lon="6.71711">
        <ele>165.5</ele>
        <time>2023-03-04T07:46:47.000Z</time>
      </trkpt>
      <trkpt lat="43.51015" lon="6.71719">
        <ele>165.9</ele>
        <time>2023-03-04T07:46:49.000Z</time>
      </trkpt>
      <trkpt lat="43.51017" lon="6.71725">
        <ele>166.2</ele>
        <time>2023-03-04T07:46:50.000Z</time>
      </trkpt>
      <trkpt lat="43.5102" lon="6.7173">
        <ele>166.4</ele>
        <time>2023-03-04T07:46:52.000Z</time>
      </trkpt>
      <trkpt lat="43.51023" lon="6.71738">
        <ele>166.8</ele>
        <time>2023-03-04T07:46:53.000Z</time>
      </trkpt>
      <trkpt lat="43.51026" lon="6.71743">
        <ele>167.1</ele>
        <time>2023-03-04T07:46:54.000Z</time>
      </trkpt>
      <trkpt lat="43.51028" lon="6.71748">
        <ele>167.3</ele>
        <time>2023-03-04T07:46:55.000Z</time>
      </trkpt>
      <trkpt lat="43.51032" lon="6.71755">
        <ele>167.7</ele>
        <time>2023-03-04T07:46:57.000Z</time>
      </trkpt>
      <trkpt lat="43.51035" lon="6.71761">
        <ele>167.9</ele>
        <time>2023-03-04T07:46:58.000Z</time>
      </trkpt>
      <trkpt lat="43.51038" lon="6.71768">
        <ele>168.3</ele>
        <time>2023-03-04T07:47:00.000Z</time>
      </trkpt>
      <trkpt lat="43.51041" lon="6.71774">
        <ele>168.6</ele>
        <time>2023-03-04T07:47:01.000Z</time>
      </trkpt>
      <trkpt lat="43.51043" lon="6.71778">
        <ele>168.8</ele>
        <time>2023-03-04T07:47:02.000Z</time>
      </trkpt>
      <trkpt lat="43.51046" lon="6.71785">
        <ele>169.1</ele>
        <time>2023-03-04T07:47:04.000Z</time>
      </trkpt>
      <trkpt lat="43.51051" lon="6.71795">
        <ele>169.7</ele>
        <time>2023-03-04T07:47:06.000Z</time>
      </trkpt>
      <trkpt lat="43.51054" lon="6.718">
        <ele>169.9</ele>
        <time>2023-03-04T07:47:07.000Z</time>
      </trkpt>
      <trkpt lat="43.51056" lon="6.71803">
        <ele>170.2</ele>
        <time>2023-03-04T07:47:08.000Z</time>
      </trkpt>
      <trkpt lat="43.51059" lon="6.71808">
        <ele>170.4</ele>
        <time>2023-03-04T07:47:09.000Z</time>
      </trkpt>
      <trkpt lat="43.51063" lon="6.71816">
        <ele>170.8</ele>
        <time>2023-03-04T07:47:11.000Z</time>
      </trkpt>
      <trkpt lat="43.51066" lon="6.71821">
        <ele>171.1</ele>
        <time>2023-03-04T07:47:12.000Z</time>
      </trkpt>
      <trkpt lat="43.51069" lon="6.71826">
        <ele>171.3</ele>
        <time>2023-03-04T07:47:13.000Z</time>
      </trkpt>
      <trkpt lat="43.51074" lon="6.71832">
        <ele>171.6</ele>
        <time>2023-03-04T07:47:15.000Z</time>
      </trkpt>
      <trkpt lat="43.51077" lon="6.71836">
        <ele>171.9</ele>
        <time>2023-03-04T07:47:16.000Z</time>
      </trkpt>
      <trkpt lat="43.5108" lon="6.7184">
        <ele>172.1</ele>
        <time>2023-03-04T07:47:17.000Z</time>
      </trkpt>
      <trkpt lat="43.51084" lon="6.71845">
        <ele>172.3</ele>
        <time>2023-03-04T07:47:19.000Z</time>
      </trkpt>
      <trkpt lat="43.51087" lon="6.71847">
        <ele>172.5</ele>
        <time>2023-03-04T07:47:20.000Z</time>
      </trkpt>
      <trkpt lat="43.51091" lon="6.71853">
        <ele>172.7</ele>
        <time>2023-03-04T07:47:21.000Z</time>
      </trkpt>
      <trkpt lat="43.51094" lon="6.71857">
        <ele>172.9</ele>
        <time>2023-03-04T07:47:22.000Z</time>
      </trkpt>
      <trkpt lat="43.51097" lon="6.7186">
        <ele>173.1</ele>
        <time>2023-03-04T07:47:23.000Z</time>
      </trkpt>
      <trkpt lat="43.511" lon="6.71865">
        <ele>173.3</ele>
        <time>2023-03-04T07:47:24.000Z</time>
      </trkpt>
      <trkpt lat="43.51103" lon="6.71868">
        <ele>173.5</ele>
        <time>2023-03-04T07:47:25.000Z</time>
      </trkpt>
      <trkpt lat="43.51108" lon="6.71876">
        <ele>173.9</ele>
        <time>2023-03-04T07:47:27.000Z</time>
      </trkpt>
      <trkpt lat="43.5111" lon="6.7188">
        <ele>174.1</ele>
        <time>2023-03-04T07:47:28.000Z</time>
      </trkpt>
      <trkpt lat="43.51113" lon="6.71884">
        <ele>174.2</ele>
        <time>2023-03-04T07:47:29.000Z</time>
      </trkpt>
      <trkpt lat="43.51116" lon="6.71889">
        <ele>174.5</ele>
        <time>2023-03-04T07:47:31.000Z</time>
      </trkpt>
      <trkpt lat="43.51118" lon="6.71894">
        <ele>174.7</ele>
        <time>2023-03-04T07:47:32.000Z</time>
      </trkpt>
      <trkpt lat="43.5112" lon="6.71899">
        <ele>174.9</ele>
        <time>2023-03-04T07:47:33.000Z</time>
      </trkpt>
      <trkpt lat="43.51122" lon="6.71905">
        <ele>175.1</ele>
        <time>2023-03-04T07:47:34.000Z</time>
      </trkpt>
      <trkpt lat="43.51124" lon="6.7191">
        <ele>175.3</ele>
        <time>2023-03-04T07:47:35.000Z</time>
      </trkpt>
      <trkpt lat="43.51127" lon="6.71916">
        <ele>175.6</ele>
        <time>2023-03-04T07:47:36.000Z</time>
      </trkpt>
      <trkpt lat="43.51128" lon="6.71921">
        <ele>175.8</ele>
        <time>2023-03-04T07:47:37.000Z</time>
      </trkpt>
      <trkpt lat="43.5113" lon="6.71926">
        <ele>176</ele>
        <time>2023-03-04T07:47:38.000Z</time>
      </trkpt>
      <trkpt lat="43.51131" lon="6.71932">
        <ele>176.2</ele>
        <time>2023-03-04T07:47:39.000Z</time>
      </trkpt>
      <trkpt lat="43.51133" lon="6.71939">
        <ele>176.5</ele>
        <time>2023-03-04T07:47:41.000Z</time>
      </trkpt>
      <trkpt lat="43.51134" lon="6.71946">
        <ele>176.8</ele>
        <time>2023-03-04T07:47:42.000Z</time>
      </trkpt>
      <trkpt lat="43.51135" lon="6.71951">
        <ele>177</ele>
        <time>2023-03-04T07:47:43.000Z</time>
      </trkpt>
      <trkpt lat="43.51136" lon="6.71957">
        <ele>177.2</ele>
        <time>2023-03-04T07:47:44.000Z</time>
      </trkpt>
      <trkpt lat="43.51136" lon="6.71964">
        <ele>177.5</ele>
        <time>2023-03-04T07:47:46.000Z</time>
      </trkpt>
      <trkpt lat="43.51136" lon="6.7197">
        <ele>177.8</ele>
        <time>2023-03-04T07:47:47.000Z</time>
      </trkpt>
      <trkpt lat="43.51136" lon="6.71976">
        <ele>178</ele>
        <time>2023-03-04T07:47:48.000Z</time>
      </trkpt>
      <trkpt lat="43.51136" lon="6.71983">
        <ele>178.3</ele>
        <time>2023-03-04T07:47:49.000Z</time>
      </trkpt>
      <trkpt lat="43.51135" lon="6.71989">
        <ele>178.5</ele>
        <time>2023-03-04T07:47:50.000Z</time>
      </trkpt>
      <trkpt lat="43.51134" lon="6.71994">
        <ele>178.8</ele>
        <time>2023-03-04T07:47:51.000Z</time>
      </trkpt>
      <trkpt lat="43.51133" lon="6.72">
        <ele>179</ele>
        <time>2023-03-04T07:47:52.000Z</time>
      </trkpt>
      <trkpt lat="43.51132" lon="6.72006">
        <ele>179.3</ele>
        <time>2023-03-04T07:47:54.000Z</time>
      </trkpt>
      <trkpt lat="43.51131" lon="6.72012">
        <ele>179.6</ele>
        <time>2023-03-04T07:47:55.000Z</time>
      </trkpt>
      <trkpt lat="43.5113" lon="6.72018">
        <ele>179.9</ele>
        <time>2023-03-04T07:47:56.000Z</time>
      </trkpt>
      <trkpt lat="43.51129" lon="6.72024">
        <ele>180.1</ele>
        <time>2023-03-04T07:47:57.000Z</time>
      </trkpt>
      <trkpt lat="43.51128" lon="6.7203">
        <ele>180.4</ele>
        <time>2023-03-04T07:47:58.000Z</time>
      </trkpt>
      <trkpt lat="43.51127" lon="6.72035">
        <ele>180.6</ele>
        <time>2023-03-04T07:47:59.000Z</time>
      </trkpt>
      <trkpt lat="43.51126" lon="6.72042">
        <ele>180.9</ele>
        <time>2023-03-04T07:48:01.000Z</time>
      </trkpt>
      <trkpt lat="43.51126" lon="6.72047">
        <ele>181</ele>
        <time>2023-03-04T07:48:02.000Z</time>
      </trkpt>
      <trkpt lat="43.51127" lon="6.72054">
        <ele>181.3</ele>
        <time>2023-03-04T07:48:03.000Z</time>
      </trkpt>
      <trkpt lat="43.51128" lon="6.7206">
        <ele>181.5</ele>
        <time>2023-03-04T07:48:04.000Z</time>
      </trkpt>
      <trkpt lat="43.51129" lon="6.72065">
        <ele>181.7</ele>
        <time>2023-03-04T07:48:05.000Z</time>
      </trkpt>
      <trkpt lat="43.51131" lon="6.7207">
        <ele>181.9</ele>
        <time>2023-03-04T07:48:06.000Z</time>
      </trkpt>
      <trkpt lat="43.51136" lon="6.72076">
        <ele>182.2</ele>
        <time>2023-03-04T07:48:08.000Z</time>
      </trkpt>
      <trkpt lat="43.51141" lon="6.72082">
        <ele>182.5</ele>
        <time>2023-03-04T07:48:09.000Z</time>
      </trkpt>
      <trkpt lat="43.51145" lon="6.72087">
        <ele>182.8</ele>
        <time>2023-03-04T07:48:10.000Z</time>
      </trkpt>
      <trkpt lat="43.51149" lon="6.7209">
        <ele>183</ele>
        <time>2023-03-04T07:48:11.000Z</time>
      </trkpt>
      <trkpt lat="43.51153" lon="6.72093">
        <ele>183.2</ele>
        <time>2023-03-04T07:48:12.000Z</time>
      </trkpt>
      <trkpt lat="43.51156" lon="6.72095">
        <ele>183.4</ele>
        <time>2023-03-04T07:48:13.000Z</time>
      </trkpt>
      <trkpt lat="43.5116" lon="6.72098">
        <ele>183.5</ele>
        <time>2023-03-04T07:48:14.000Z</time>
      </trkpt>
      <trkpt lat="43.51165" lon="6.72102">
        <ele>183.8</ele>
        <time>2023-03-04T07:48:16.000Z</time>
      </trkpt>
      <trkpt lat="43.51169" lon="6.72106">
        <ele>184</ele>
        <time>2023-03-04T07:48:17.000Z</time>
      </trkpt>
      <trkpt lat="43.51171" lon="6.72109">
        <ele>184.1</ele>
        <time>2023-03-04T07:48:18.000Z</time>
      </trkpt>
      <trkpt lat="43.51175" lon="6.72113">
        <ele>184.3</ele>
        <time>2023-03-04T07:48:19.000Z</time>
      </trkpt>
      <trkpt lat="43.51178" lon="6.72117">
        <ele>184.5</ele>
        <time>2023-03-04T07:48:20.000Z</time>
      </trkpt>
      <trkpt lat="43.51181" lon="6.7212">
        <ele>184.7</ele>
        <time>2023-03-04T07:48:22.000Z</time>
      </trkpt>
      <trkpt lat="43.51185" lon="6.72125">
        <ele>185</ele>
        <time>2023-03-04T07:48:23.000Z</time>
      </trkpt>
      <trkpt lat="43.51188" lon="6.72129">
        <ele>185.2</ele>
        <time>2023-03-04T07:48:24.000Z</time>
      </trkpt>
      <trkpt lat="43.51191" lon="6.72133">
        <ele>185.4</ele>
        <time>2023-03-04T07:48:25.000Z</time>
      </trkpt>
      <trkpt lat="43.51193" lon="6.72136">
        <ele>185.6</ele>
        <time>2023-03-04T07:48:26.000Z</time>
      </trkpt>
      <trkpt lat="43.51196" lon="6.7214">
        <ele>185.9</ele>
        <time>2023-03-04T07:48:27.000Z</time>
      </trkpt>
      <trkpt lat="43.51199" lon="6.72144">
        <ele>186.1</ele>
        <time>2023-03-04T07:48:28.000Z</time>
      </trkpt>
      <trkpt lat="43.51201" lon="6.72149">
        <ele>186.4</ele>
        <time>2023-03-04T07:48:30.000Z</time>
      </trkpt>
      <trkpt lat="43.51204" lon="6.72152">
        <ele>186.7</ele>
        <time>2023-03-04T07:48:31.000Z</time>
      </trkpt>
      <trkpt lat="43.51206" lon="6.72156">
        <ele>186.9</ele>
        <time>2023-03-04T07:48:32.000Z</time>
      </trkpt>
      <trkpt lat="43.5121" lon="6.72159">
        <ele>187.2</ele>
        <time>2023-03-04T07:48:33.000Z</time>
      </trkpt>
      <trkpt lat="43.51213" lon="6.72162">
        <ele>187.5</ele>
        <time>2023-03-04T07:48:34.000Z</time>
      </trkpt>
      <trkpt lat="43.51216" lon="6.72164">
        <ele>187.8</ele>
        <time>2023-03-04T07:48:35.000Z</time>
      </trkpt>
      <trkpt lat="43.51222" lon="6.72167">
        <ele>188.2</ele>
        <time>2023-03-04T07:48:37.000Z</time>
      </trkpt>
      <trkpt lat="43.51225" lon="6.72169">
        <ele>188.5</ele>
        <time>2023-03-04T07:48:38.000Z</time>
      </trkpt>
      <trkpt lat="43.5123" lon="6.72171">
        <ele>188.9</ele>
        <time>2023-03-04T07:48:39.000Z</time>
      </trkpt>
      <trkpt lat="43.51233" lon="6.72171">
        <ele>189.2</ele>
        <time>2023-03-04T07:48:40.000Z</time>
      </trkpt>
      <trkpt lat="43.51238" lon="6.72171">
        <ele>189.5</ele>
        <time>2023-03-04T07:48:42.000Z</time>
      </trkpt>
      <trkpt lat="43.51242" lon="6.72171">
        <ele>189.8</ele>
        <time>2023-03-04T07:48:43.000Z</time>
      </trkpt>
      <trkpt lat="43.51246" lon="6.7217">
        <ele>190</ele>
        <time>2023-03-04T07:48:44.000Z</time>
      </trkpt>
      <trkpt lat="43.5125" lon="6.72168">
        <ele>190.3</ele>
        <time>2023-03-04T07:48:45.000Z</time>
      </trkpt>
      <trkpt lat="43.51254" lon="6.72166">
        <ele>190.6</ele>
        <time>2023-03-04T07:48:46.000Z</time>
      </trkpt>
      <trkpt lat="43.51257" lon="6.72164">
        <ele>190.8</ele>
        <time>2023-03-04T07:48:47.000Z</time>
      </trkpt>
      <trkpt lat="43.51261" lon="6.7216">
        <ele>191.1</ele>
        <time>2023-03-04T07:48:48.000Z</time>
      </trkpt>
      <trkpt lat="43.51264" lon="6.72156">
        <ele>191.3</ele>
        <time>2023-03-04T07:48:49.000Z</time>
      </trkpt>
      <trkpt lat="43.51267" lon="6.72151">
        <ele>191.6</ele>
        <time>2023-03-04T07:48:51.000Z</time>
      </trkpt>
      <trkpt lat="43.5127" lon="6.72147">
        <ele>191.9</ele>
        <time>2023-03-04T07:48:52.000Z</time>
      </trkpt>
      <trkpt lat="43.51273" lon="6.72142">
        <ele>192.1</ele>
        <time>2023-03-04T07:48:53.000Z</time>
      </trkpt>
      <trkpt lat="43.51276" lon="6.72138">
        <ele>192.4</ele>
        <time>2023-03-04T07:48:54.000Z</time>
      </trkpt>
      <trkpt lat="43.51279" lon="6.72134">
        <ele>192.7</ele>
        <time>2023-03-04T07:48:55.000Z</time>
      </trkpt>
      <trkpt lat="43.51282" lon="6.72129">
        <ele>192.9</ele>
        <time>2023-03-04T07:48:57.000Z</time>
      </trkpt>
      <trkpt lat="43.51286" lon="6.72122">
        <ele>193.4</ele>
        <time>2023-03-04T07:48:58.000Z</time>
      </trkpt>
      <trkpt lat="43.51289" lon="6.72118">
        <ele>193.6</ele>
        <time>2023-03-04T07:48:59.000Z</time>
      </trkpt>
      <trkpt lat="43.51292" lon="6.72115">
        <ele>193.8</ele>
        <time>2023-03-04T07:49:00.000Z</time>
      </trkpt>
      <trkpt lat="43.51295" lon="6.7211">
        <ele>194.2</ele>
        <time>2023-03-04T07:49:02.000Z</time>
      </trkpt>
      <trkpt lat="43.51301" lon="6.72104">
        <ele>194.6</ele>
        <time>2023-03-04T07:49:03.000Z</time>
      </trkpt>
      <trkpt lat="43.51305" lon="6.72102">
        <ele>194.9</ele>
        <time>2023-03-04T07:49:04.000Z</time>
      </trkpt>
      <trkpt lat="43.51309" lon="6.721">
        <ele>195.3</ele>
        <time>2023-03-04T07:49:06.000Z</time>
      </trkpt>
      <trkpt lat="43.51313" lon="6.72099">
        <ele>195.5</ele>
        <time>2023-03-04T07:49:07.000Z</time>
      </trkpt>
      <trkpt lat="43.51318" lon="6.72099">
        <ele>195.9</ele>
        <time>2023-03-04T07:49:08.000Z</time>
      </trkpt>
      <trkpt lat="43.51323" lon="6.721">
        <ele>196.2</ele>
        <time>2023-03-04T07:49:09.000Z</time>
      </trkpt>
      <trkpt lat="43.51327" lon="6.72102">
        <ele>196.5</ele>
        <time>2023-03-04T07:49:10.000Z</time>
      </trkpt>
      <trkpt lat="43.51331" lon="6.72104">
        <ele>196.8</ele>
        <time>2023-03-04T07:49:11.000Z</time>
      </trkpt>
      <trkpt lat="43.51336" lon="6.72108">
        <ele>197.1</ele>
        <time>2023-03-04T07:49:13.000Z</time>
      </trkpt>
      <trkpt lat="43.51339" lon="6.72111">
        <ele>197.4</ele>
        <time>2023-03-04T07:49:14.000Z</time>
      </trkpt>
      <trkpt lat="43.51343" lon="6.72114">
        <ele>197.7</ele>
        <time>2023-03-04T07:49:15.000Z</time>
      </trkpt>
      <trkpt lat="43.51347" lon="6.72118">
        <ele>198.1</ele>
        <time>2023-03-04T07:49:16.000Z</time>
      </trkpt>
      <trkpt lat="43.51351" lon="6.72122">
        <ele>198.4</ele>
        <time>2023-03-04T07:49:17.000Z</time>
      </trkpt>
      <trkpt lat="43.51354" lon="6.72125">
        <ele>198.6</ele>
        <time>2023-03-04T07:49:18.000Z</time>
      </trkpt>
      <trkpt lat="43.51358" lon="6.72129">
        <ele>198.9</ele>
        <time>2023-03-04T07:49:19.000Z</time>
      </trkpt>
      <trkpt lat="43.51361" lon="6.72132">
        <ele>199.2</ele>
        <time>2023-03-04T07:49:20.000Z</time>
      </trkpt>
      <trkpt lat="43.51365" lon="6.72136">
        <ele>199.5</ele>
        <time>2023-03-04T07:49:22.000Z</time>
      </trkpt>
      <trkpt lat="43.5137" lon="6.7214">
        <ele>199.9</ele>
        <time>2023-03-04T07:49:23.000Z</time>
      </trkpt>
      <trkpt lat="43.51374" lon="6.72145">
        <ele>200.3</ele>
        <time>2023-03-04T07:49:25.000Z</time>
      </trkpt>
      <trkpt lat="43.51377" lon="6.72148">
        <ele>200.5</ele>
        <time>2023-03-04T07:49:26.000Z</time>
      </trkpt>
      <trkpt lat="43.51381" lon="6.72151">
        <ele>200.8</ele>
        <time>2023-03-04T07:49:27.000Z</time>
      </trkpt>
      <trkpt lat="43.51386" lon="6.72156">
        <ele>201.1</ele>
        <time>2023-03-04T07:49:28.000Z</time>
      </trkpt>
      <trkpt lat="43.5139" lon="6.72159">
        <ele>201.4</ele>
        <time>2023-03-04T07:49:29.000Z</time>
      </trkpt>
      <trkpt lat="43.51393" lon="6.72162">
        <ele>201.7</ele>
        <time>2023-03-04T07:49:30.000Z</time>
      </trkpt>
      <trkpt lat="43.51396" lon="6.72165">
        <ele>201.9</ele>
        <time>2023-03-04T07:49:31.000Z</time>
      </trkpt>
      <trkpt lat="43.514" lon="6.72169">
        <ele>202.2</ele>
        <time>2023-03-04T07:49:33.000Z</time>
      </trkpt>
      <trkpt lat="43.51404" lon="6.72173">
        <ele>202.5</ele>
        <time>2023-03-04T07:49:34.000Z</time>
      </trkpt>
      <trkpt lat="43.51408" lon="6.72177">
        <ele>202.9</ele>
        <time>2023-03-04T07:49:35.000Z</time>
      </trkpt>
      <trkpt lat="43.5141" lon="6.72179">
        <ele>203.1</ele>
        <time>2023-03-04T07:49:36.000Z</time>
      </trkpt>
      <trkpt lat="43.51414" lon="6.72182">
        <ele>203.3</ele>
        <time>2023-03-04T07:49:37.000Z</time>
      </trkpt>
      <trkpt lat="43.51418" lon="6.72184">
        <ele>203.6</ele>
        <time>2023-03-04T07:49:38.000Z</time>
      </trkpt>
      <trkpt lat="43.51422" lon="6.72187">
        <ele>203.9</ele>
        <time>2023-03-04T07:49:39.000Z</time>
      </trkpt>
      <trkpt lat="43.51426" lon="6.72189">
        <ele>204.2</ele>
        <time>2023-03-04T07:49:40.000Z</time>
      </trkpt>
      <trkpt lat="43.5143" lon="6.72192">
        <ele>204.5</ele>
        <time>2023-03-04T07:49:42.000Z</time>
      </trkpt>
      <trkpt lat="43.51434" lon="6.72197">
        <ele>204.8</ele>
        <time>2023-03-04T07:49:43.000Z</time>
      </trkpt>
      <trkpt lat="43.51437" lon="6.72201">
        <ele>205.1</ele>
        <time>2023-03-04T07:49:44.000Z</time>
      </trkpt>
      <trkpt lat="43.5144" lon="6.72205">
        <ele>205.3</ele>
        <time>2023-03-04T07:49:46.000Z</time>
      </trkpt>
      <trkpt lat="43.51441" lon="6.72206">
        <ele>205.4</ele>
        <time>2023-03-04T07:49:47.000Z</time>
      </trkpt>
      <trkpt lat="43.51443" lon="6.7221">
        <ele>205.6</ele>
        <time>2023-03-04T07:49:48.000Z</time>
      </trkpt>
      <trkpt lat="43.51443" lon="6.72211">
        <ele>205.7</ele>
        <time>2023-03-04T07:49:49.000Z</time>
      </trkpt>
      <trkpt lat="43.51446" lon="6.72214">
        <ele>205.9</ele>
        <time>2023-03-04T07:49:50.000Z</time>
      </trkpt>
      <trkpt lat="43.51447" lon="6.72216">
        <ele>206</ele>
        <time>2023-03-04T07:49:51.000Z</time>
      </trkpt>
      <trkpt lat="43.51449" lon="6.72217">
        <ele>206.1</ele>
        <time>2023-03-04T07:49:53.000Z</time>
      </trkpt>
      <trkpt lat="43.51452" lon="6.72219">
        <ele>206.3</ele>
        <time>2023-03-04T07:49:54.000Z</time>
      </trkpt>
      <trkpt lat="43.51455" lon="6.72222">
        <ele>206.6</ele>
        <time>2023-03-04T07:49:55.000Z</time>
      </trkpt>
      <trkpt lat="43.51458" lon="6.72224">
        <ele>205.5</ele>
        <time>2023-03-04T07:49:56.000Z</time>
      </trkpt>
      <trkpt lat="43.5146" lon="6.72228">
        <ele>205.2</ele>
        <time>2023-03-04T07:49:57.000Z</time>
      </trkpt>
      <trkpt lat="43.51461" lon="6.72233">
        <ele>205</ele>
        <time>2023-03-04T07:49:58.000Z</time>
      </trkpt>
      <trkpt lat="43.51462" lon="6.72238">
        <ele>204.7</ele>
        <time>2023-03-04T07:49:59.000Z</time>
      </trkpt>
      <trkpt lat="43.51463" lon="6.72244">
        <ele>204.3</ele>
        <time>2023-03-04T07:50:01.000Z</time>
      </trkpt>
      <trkpt lat="43.51463" lon="6.72251">
        <ele>204</ele>
        <time>2023-03-04T07:50:02.000Z</time>
      </trkpt>
      <trkpt lat="43.51458" lon="6.72263">
        <ele>203.4</ele>
        <time>2023-03-04T07:50:03.000Z</time>
      </trkpt>
      <trkpt lat="43.51454" lon="6.7227">
        <ele>203.1</ele>
        <time>2023-03-04T07:50:04.000Z</time>
      </trkpt>
      <trkpt lat="43.51449" lon="6.72276">
        <ele>202.8</ele>
        <time>2023-03-04T07:50:05.000Z</time>
      </trkpt>
      <trkpt lat="43.51444" lon="6.7228">
        <ele>202.6</ele>
        <time>2023-03-04T07:50:06.000Z</time>
      </trkpt>
      <trkpt lat="43.51438" lon="6.72282">
        <ele>202.4</ele>
        <time>2023-03-04T07:50:07.000Z</time>
      </trkpt>
      <trkpt lat="43.51433" lon="6.72283">
        <ele>202.2</ele>
        <time>2023-03-04T07:50:08.000Z</time>
      </trkpt>
      <trkpt lat="43.51428" lon="6.72283">
        <ele>202.1</ele>
        <time>2023-03-04T07:50:09.000Z</time>
      </trkpt>
      <trkpt lat="43.51423" lon="6.72284">
        <ele>201.9</ele>
        <time>2023-03-04T07:50:10.000Z</time>
      </trkpt>
      <trkpt lat="43.51417" lon="6.72284">
        <ele>201.8</ele>
        <time>2023-03-04T07:50:11.000Z</time>
      </trkpt>
      <trkpt lat="43.51412" lon="6.72285">
        <ele>201.7</ele>
        <time>2023-03-04T07:50:12.000Z</time>
      </trkpt>
      <trkpt lat="43.51407" lon="6.72286">
        <ele>201.7</ele>
        <time>2023-03-04T07:50:13.000Z</time>
      </trkpt>
      <trkpt lat="43.51401" lon="6.72288">
        <ele>201.6</ele>
        <time>2023-03-04T07:50:14.000Z</time>
      </trkpt>
      <trkpt lat="43.51396" lon="6.72292">
        <ele>201.5</ele>
        <time>2023-03-04T07:50:15.000Z</time>
      </trkpt>
      <trkpt lat="43.51392" lon="6.72295">
        <ele>201.5</ele>
        <time>2023-03-04T07:50:16.000Z</time>
      </trkpt>
      <trkpt lat="43.51388" lon="6.72299">
        <ele>201.4</ele>
        <time>2023-03-04T07:50:17.000Z</time>
      </trkpt>
      <trkpt lat="43.51384" lon="6.72303">
        <ele>201.4</ele>
        <time>2023-03-04T07:50:18.000Z</time>
      </trkpt>
      <trkpt lat="43.5138" lon="6.72307">
        <ele>201.3</ele>
        <time>2023-03-04T07:50:19.000Z</time>
      </trkpt>
      <trkpt lat="43.51376" lon="6.72312">
        <ele>201.3</ele>
        <time>2023-03-04T07:50:20.000Z</time>
      </trkpt>
      <trkpt lat="43.51372" lon="6.72317">
        <ele>201.2</ele>
        <time>2023-03-04T07:50:21.000Z</time>
      </trkpt>
      <trkpt lat="43.51369" lon="6.72323">
        <ele>201.1</ele>
        <time>2023-03-04T07:50:22.000Z</time>
      </trkpt>
      <trkpt lat="43.51368" lon="6.7233">
        <ele>201.1</ele>
        <time>2023-03-04T07:50:23.000Z</time>
      </trkpt>
      <trkpt lat="43.51368" lon="6.72338">
        <ele>201</ele>
        <time>2023-03-04T07:50:24.000Z</time>
      </trkpt>
      <trkpt lat="43.5137" lon="6.72346">
        <ele>200.9</ele>
        <time>2023-03-04T07:50:25.000Z</time>
      </trkpt>
      <trkpt lat="43.51373" lon="6.72352">
        <ele>200.9</ele>
        <time>2023-03-04T07:50:26.000Z</time>
      </trkpt>
      <trkpt lat="43.51377" lon="6.72356">
        <ele>200.8</ele>
        <time>2023-03-04T07:50:27.000Z</time>
      </trkpt>
      <trkpt lat="43.51382" lon="6.72359">
        <ele>200.7</ele>
        <time>2023-03-04T07:50:28.000Z</time>
      </trkpt>
      <trkpt lat="43.51386" lon="6.72363">
        <ele>200.7</ele>
        <time>2023-03-04T07:50:29.000Z</time>
      </trkpt>
      <trkpt lat="43.51391" lon="6.72365">
        <ele>200.7</ele>
        <time>2023-03-04T07:50:30.000Z</time>
      </trkpt>
      <trkpt lat="43.51395" lon="6.72367">
        <ele>200.6</ele>
        <time>2023-03-04T07:50:31.000Z</time>
      </trkpt>
      <trkpt lat="43.514" lon="6.72368">
        <ele>200.6</ele>
        <time>2023-03-04T07:50:32.000Z</time>
      </trkpt>
      <trkpt lat="43.51405" lon="6.72369">
        <ele>200.6</ele>
        <time>2023-03-04T07:50:33.000Z</time>
      </trkpt>
      <trkpt lat="43.5141" lon="6.72369">
        <ele>200.5</ele>
        <time>2023-03-04T07:50:34.000Z</time>
      </trkpt>
      <trkpt lat="43.51414" lon="6.72369">
        <ele>200.4</ele>
        <time>2023-03-04T07:50:35.000Z</time>
      </trkpt>
      <trkpt lat="43.51419" lon="6.72367">
        <ele>200.4</ele>
        <time>2023-03-04T07:50:36.000Z</time>
      </trkpt>
      <trkpt lat="43.51424" lon="6.72365">
        <ele>200.2</ele>
        <time>2023-03-04T07:50:37.000Z</time>
      </trkpt>
      <trkpt lat="43.51429" lon="6.72361">
        <ele>200.1</ele>
        <time>2023-03-04T07:50:38.000Z</time>
      </trkpt>
      <trkpt lat="43.51434" lon="6.72357">
        <ele>199.9</ele>
        <time>2023-03-04T07:50:39.000Z</time>
      </trkpt>
      <trkpt lat="43.51438" lon="6.72352">
        <ele>199.8</ele>
        <time>2023-03-04T07:50:40.000Z</time>
      </trkpt>
      <trkpt lat="43.51442" lon="6.72347">
        <ele>199.6</ele>
        <time>2023-03-04T07:50:41.000Z</time>
      </trkpt>
      <trkpt lat="43.51446" lon="6.72341">
        <ele>199.5</ele>
        <time>2023-03-04T07:50:42.000Z</time>
      </trkpt>
      <trkpt lat="43.51449" lon="6.72335">
        <ele>199.3</ele>
        <time>2023-03-04T07:50:43.000Z</time>
      </trkpt>
      <trkpt lat="43.51453" lon="6.7233">
        <ele>199.2</ele>
        <time>2023-03-04T07:50:44.000Z</time>
      </trkpt>
      <trkpt lat="43.51457" lon="6.72323">
        <ele>199</ele>
        <time>2023-03-04T07:50:45.000Z</time>
      </trkpt>
      <trkpt lat="43.51461" lon="6.72316">
        <ele>198.8</ele>
        <time>2023-03-04T07:50:46.000Z</time>
      </trkpt>
      <trkpt lat="43.51464" lon="6.72309">
        <ele>198.6</ele>
        <time>2023-03-04T07:50:47.000Z</time>
      </trkpt>
      <trkpt lat="43.51468" lon="6.72301">
        <ele>198.5</ele>
        <time>2023-03-04T07:50:48.000Z</time>
      </trkpt>
      <trkpt lat="43.51473" lon="6.72294">
        <ele>198.3</ele>
        <time>2023-03-04T07:50:49.000Z</time>
      </trkpt>
      <trkpt lat="43.51477" lon="6.72286">
        <ele>198.1</ele>
        <time>2023-03-04T07:50:50.000Z</time>
      </trkpt>
      <trkpt lat="43.51482" lon="6.72279">
        <ele>197.9</ele>
        <time>2023-03-04T07:50:51.000Z</time>
      </trkpt>
      <trkpt lat="43.51487" lon="6.72271">
        <ele>197.8</ele>
        <time>2023-03-04T07:50:52.000Z</time>
      </trkpt>
      <trkpt lat="43.51492" lon="6.72264">
        <ele>197.6</ele>
        <time>2023-03-04T07:50:53.000Z</time>
      </trkpt>
      <trkpt lat="43.51496" lon="6.72256">
        <ele>197.5</ele>
        <time>2023-03-04T07:50:54.000Z</time>
      </trkpt>
      <trkpt lat="43.515" lon="6.72248">
        <ele>197.4</ele>
        <time>2023-03-04T07:50:55.000Z</time>
      </trkpt>
      <trkpt lat="43.51504" lon="6.7224">
        <ele>197.3</ele>
        <time>2023-03-04T07:50:56.000Z</time>
      </trkpt>
      <trkpt lat="43.51508" lon="6.72232">
        <ele>197.1</ele>
        <time>2023-03-04T07:50:57.000Z</time>
      </trkpt>
      <trkpt lat="43.51514" lon="6.72227">
        <ele>197</ele>
        <time>2023-03-04T07:50:58.000Z</time>
      </trkpt>
      <trkpt lat="43.5152" lon="6.72227">
        <ele>196.8</ele>
        <time>2023-03-04T07:50:59.000Z</time>
      </trkpt>
      <trkpt lat="43.51526" lon="6.72229">
        <ele>196.6</ele>
        <time>2023-03-04T07:51:00.000Z</time>
      </trkpt>
      <trkpt lat="43.51532" lon="6.72234">
        <ele>196.3</ele>
        <time>2023-03-04T07:51:01.000Z</time>
      </trkpt>
      <trkpt lat="43.51538" lon="6.72237">
        <ele>195.9</ele>
        <time>2023-03-04T07:51:02.000Z</time>
      </trkpt>
      <trkpt lat="43.51544" lon="6.7224">
        <ele>195.5</ele>
        <time>2023-03-04T07:51:03.000Z</time>
      </trkpt>
      <trkpt lat="43.5155" lon="6.72243">
        <ele>195.1</ele>
        <time>2023-03-04T07:51:04.000Z</time>
      </trkpt>
      <trkpt lat="43.51555" lon="6.72249">
        <ele>194.8</ele>
        <time>2023-03-04T07:51:05.000Z</time>
      </trkpt>
      <trkpt lat="43.51559" lon="6.72257">
        <ele>194.4</ele>
        <time>2023-03-04T07:51:06.000Z</time>
      </trkpt>
      <trkpt lat="43.5156" lon="6.72266">
        <ele>194.1</ele>
        <time>2023-03-04T07:51:07.000Z</time>
      </trkpt>
      <trkpt lat="43.5156" lon="6.72276">
        <ele>193.8</ele>
        <time>2023-03-04T07:51:08.000Z</time>
      </trkpt>
      <trkpt lat="43.51559" lon="6.72285">
        <ele>193.4</ele>
        <time>2023-03-04T07:51:09.000Z</time>
      </trkpt>
      <trkpt lat="43.51558" lon="6.72295">
        <ele>193.1</ele>
        <time>2023-03-04T07:51:10.000Z</time>
      </trkpt>
      <trkpt lat="43.51557" lon="6.72305">
        <ele>192.8</ele>
        <time>2023-03-04T07:51:11.000Z</time>
      </trkpt>
      <trkpt lat="43.51558" lon="6.72315">
        <ele>192.5</ele>
        <time>2023-03-04T07:51:12.000Z</time>
      </trkpt>
      <trkpt lat="43.51559" lon="6.72324">
        <ele>192.2</ele>
        <time>2023-03-04T07:51:13.000Z</time>
      </trkpt>
      <trkpt lat="43.51559" lon="6.72334">
        <ele>192</ele>
        <time>2023-03-04T07:51:14.000Z</time>
      </trkpt>
      <trkpt lat="43.5156" lon="6.72344">
        <ele>191.7</ele>
        <time>2023-03-04T07:51:15.000Z</time>
      </trkpt>
      <trkpt lat="43.51561" lon="6.72353">
        <ele>191.5</ele>
        <time>2023-03-04T07:51:16.000Z</time>
      </trkpt>
      <trkpt lat="43.51563" lon="6.72363">
        <ele>191.3</ele>
        <time>2023-03-04T07:51:17.000Z</time>
      </trkpt>
      <trkpt lat="43.51565" lon="6.72371">
        <ele>191.1</ele>
        <time>2023-03-04T07:51:18.000Z</time>
      </trkpt>
      <trkpt lat="43.51568" lon="6.7238">
        <ele>190.9</ele>
        <time>2023-03-04T07:51:19.000Z</time>
      </trkpt>
      <trkpt lat="43.51571" lon="6.72388">
        <ele>190.7</ele>
        <time>2023-03-04T07:51:20.000Z</time>
      </trkpt>
      <trkpt lat="43.51573" lon="6.72396">
        <ele>190.6</ele>
        <time>2023-03-04T07:51:21.000Z</time>
      </trkpt>
      <trkpt lat="43.51572" lon="6.72404">
        <ele>190.5</ele>
        <time>2023-03-04T07:51:22.000Z</time>
      </trkpt>
      <trkpt lat="43.51568" lon="6.72409">
        <ele>190.3</ele>
        <time>2023-03-04T07:51:23.000Z</time>
      </trkpt>
      <trkpt lat="43.51563" lon="6.72414">
        <ele>190.1</ele>
        <time>2023-03-04T07:51:24.000Z</time>
      </trkpt>
      <trkpt lat="43.51557" lon="6.72416">
        <ele>189.9</ele>
        <time>2023-03-04T07:51:25.000Z</time>
      </trkpt>
      <trkpt lat="43.51551" lon="6.72419">
        <ele>189.7</ele>
        <time>2023-03-04T07:51:26.000Z</time>
      </trkpt>
      <trkpt lat="43.51545" lon="6.72422">
        <ele>189.4</ele>
        <time>2023-03-04T07:51:27.000Z</time>
      </trkpt>
      <trkpt lat="43.51539" lon="6.72425">
        <ele>189.2</ele>
        <time>2023-03-04T07:51:28.000Z</time>
      </trkpt>
      <trkpt lat="43.51533" lon="6.72428">
        <ele>188.9</ele>
        <time>2023-03-04T07:51:29.000Z</time>
      </trkpt>
      <trkpt lat="43.51528" lon="6.72432">
        <ele>188.7</ele>
        <time>2023-03-04T07:51:30.000Z</time>
      </trkpt>
      <trkpt lat="43.51522" lon="6.72437">
        <ele>188.4</ele>
        <time>2023-03-04T07:51:31.000Z</time>
      </trkpt>
      <trkpt lat="43.51516" lon="6.72441">
        <ele>188</ele>
        <time>2023-03-04T07:51:32.000Z</time>
      </trkpt>
      <trkpt lat="43.5151" lon="6.72445">
        <ele>187.7</ele>
        <time>2023-03-04T07:51:33.000Z</time>
      </trkpt>
      <trkpt lat="43.51504" lon="6.72449">
        <ele>187.4</ele>
        <time>2023-03-04T07:51:34.000Z</time>
      </trkpt>
      <trkpt lat="43.51498" lon="6.72454">
        <ele>187.1</ele>
        <time>2023-03-04T07:51:35.000Z</time>
      </trkpt>
      <trkpt lat="43.51492" lon="6.72459">
        <ele>186.8</ele>
        <time>2023-03-04T07:51:36.000Z</time>
      </trkpt>
      <trkpt lat="43.51485" lon="6.72465">
        <ele>186.6</ele>
        <time>2023-03-04T07:51:37.000Z</time>
      </trkpt>
      <trkpt lat="43.51479" lon="6.72471">
        <ele>186.4</ele>
        <time>2023-03-04T07:51:38.000Z</time>
      </trkpt>
      <trkpt lat="43.51473" lon="6.72475">
        <ele>186.3</ele>
        <time>2023-03-04T07:51:39.000Z</time>
      </trkpt>
      <trkpt lat="43.51467" lon="6.72479">
        <ele>186.2</ele>
        <time>2023-03-04T07:51:40.000Z</time>
      </trkpt>
      <trkpt lat="43.51461" lon="6.72483">
        <ele>186.1</ele>
        <time>2023-03-04T07:51:41.000Z</time>
      </trkpt>
      <trkpt lat="43.51455" lon="6.72487">
        <ele>186</ele>
        <time>2023-03-04T07:51:42.000Z</time>
      </trkpt>
      <trkpt lat="43.51449" lon="6.72491">
        <ele>185.9</ele>
        <time>2023-03-04T07:51:43.000Z</time>
      </trkpt>
      <trkpt lat="43.51444" lon="6.72494">
        <ele>185.8</ele>
        <time>2023-03-04T07:51:44.000Z</time>
      </trkpt>
      <trkpt lat="43.51438" lon="6.72497">
        <ele>185.6</ele>
        <time>2023-03-04T07:51:45.000Z</time>
      </trkpt>
      <trkpt lat="43.51433" lon="6.72501">
        <ele>185.5</ele>
        <time>2023-03-04T07:51:46.000Z</time>
      </trkpt>
      <trkpt lat="43.51428" lon="6.72504">
        <ele>185.4</ele>
        <time>2023-03-04T07:51:47.000Z</time>
      </trkpt>
      <trkpt lat="43.51422" lon="6.72507">
        <ele>185.2</ele>
        <time>2023-03-04T07:51:48.000Z</time>
      </trkpt>
      <trkpt lat="43.51416" lon="6.7251">
        <ele>185</ele>
        <time>2023-03-04T07:51:49.000Z</time>
      </trkpt>
      <trkpt lat="43.51411" lon="6.72513">
        <ele>184.8</ele>
        <time>2023-03-04T07:51:50.000Z</time>
      </trkpt>
      <trkpt lat="43.51405" lon="6.72516">
        <ele>184.5</ele>
        <time>2023-03-04T07:51:51.000Z</time>
      </trkpt>
      <trkpt lat="43.51399" lon="6.7252">
        <ele>184.3</ele>
        <time>2023-03-04T07:51:52.000Z</time>
      </trkpt>
      <trkpt lat="43.51393" lon="6.72523">
        <ele>184.1</ele>
        <time>2023-03-04T07:51:53.000Z</time>
      </trkpt>
      <trkpt lat="43.51387" lon="6.72526">
        <ele>183.9</ele>
        <time>2023-03-04T07:51:54.000Z</time>
      </trkpt>
      <trkpt lat="43.51381" lon="6.7253">
        <ele>183.7</ele>
        <time>2023-03-04T07:51:55.000Z</time>
      </trkpt>
      <trkpt lat="43.51375" lon="6.72533">
        <ele>183.5</ele>
        <time>2023-03-04T07:51:56.000Z</time>
      </trkpt>
      <trkpt lat="43.51369" lon="6.72537">
        <ele>183.3</ele>
        <time>2023-03-04T07:51:57.000Z</time>
      </trkpt>
      <trkpt lat="43.51363" lon="6.72541">
        <ele>183.1</ele>
        <time>2023-03-04T07:51:58.000Z</time>
      </trkpt>
      <trkpt lat="43.51357" lon="6.72544">
        <ele>182.9</ele>
        <time>2023-03-04T07:51:59.000Z</time>
      </trkpt>
      <trkpt lat="43.51351" lon="6.72548">
        <ele>182.7</ele>
        <time>2023-03-04T07:52:00.000Z</time>
      </trkpt>
      <trkpt lat="43.51345" lon="6.72552">
        <ele>182.5</ele>
        <time>2023-03-04T07:52:01.000Z</time>
      </trkpt>
      <trkpt lat="43.51339" lon="6.72555">
        <ele>182.3</ele>
        <time>2023-03-04T07:52:02.000Z</time>
      </trkpt>
      <trkpt lat="43.51333" lon="6.72559">
        <ele>182.2</ele>
        <time>2023-03-04T07:52:03.000Z</time>
      </trkpt>
      <trkpt lat="43.51327" lon="6.72562">
        <ele>182</ele>
        <time>2023-03-04T07:52:04.000Z</time>
      </trkpt>
      <trkpt lat="43.51322" lon="6.72565">
        <ele>181.8</ele>
        <time>2023-03-04T07:52:05.000Z</time>
      </trkpt>
      <trkpt lat="43.51316" lon="6.72568">
        <ele>181.7</ele>
        <time>2023-03-04T07:52:06.000Z</time>
      </trkpt>
      <trkpt lat="43.5131" lon="6.72571">
        <ele>181.5</ele>
        <time>2023-03-04T07:52:07.000Z</time>
      </trkpt>
      <trkpt lat="43.51305" lon="6.72573">
        <ele>181.3</ele>
        <time>2023-03-04T07:52:08.000Z</time>
      </trkpt>
      <trkpt lat="43.51299" lon="6.72575">
        <ele>181</ele>
        <time>2023-03-04T07:52:09.000Z</time>
      </trkpt>
      <trkpt lat="43.51294" lon="6.72579">
        <ele>180.8</ele>
        <time>2023-03-04T07:52:10.000Z</time>
      </trkpt>
      <trkpt lat="43.51289" lon="6.72583">
        <ele>180.5</ele>
        <time>2023-03-04T07:52:11.000Z</time>
      </trkpt>
      <trkpt lat="43.51284" lon="6.72589">
        <ele>180.2</ele>
        <time>2023-03-04T07:52:12.000Z</time>
      </trkpt>
      <trkpt lat="43.51279" lon="6.72596">
        <ele>179.9</ele>
        <time>2023-03-04T07:52:13.000Z</time>
      </trkpt>
      <trkpt lat="43.51275" lon="6.72604">
        <ele>179.7</ele>
        <time>2023-03-04T07:52:14.000Z</time>
      </trkpt>
      <trkpt lat="43.51272" lon="6.72613">
        <ele>179.5</ele>
        <time>2023-03-04T07:52:15.000Z</time>
      </trkpt>
      <trkpt lat="43.51269" lon="6.72622">
        <ele>179.3</ele>
        <time>2023-03-04T07:52:16.000Z</time>
      </trkpt>
      <trkpt lat="43.51267" lon="6.7263">
        <ele>179.1</ele>
        <time>2023-03-04T07:52:17.000Z</time>
      </trkpt>
      <trkpt lat="43.51265" lon="6.72639">
        <ele>179</ele>
        <time>2023-03-04T07:52:18.000Z</time>
      </trkpt>
      <trkpt lat="43.51262" lon="6.72647">
        <ele>178.8</ele>
        <time>2023-03-04T07:52:19.000Z</time>
      </trkpt>
      <trkpt lat="43.5126" lon="6.72655">
        <ele>178.6</ele>
        <time>2023-03-04T07:52:20.000Z</time>
      </trkpt>
      <trkpt lat="43.51258" lon="6.72663">
        <ele>178.5</ele>
        <time>2023-03-04T07:52:21.000Z</time>
      </trkpt>
      <trkpt lat="43.51256" lon="6.72672">
        <ele>178.3</ele>
        <time>2023-03-04T07:52:22.000Z</time>
      </trkpt>
      <trkpt lat="43.51254" lon="6.7268">
        <ele>178.2</ele>
        <time>2023-03-04T07:52:23.000Z</time>
      </trkpt>
      <trkpt lat="43.51252" lon="6.72688">
        <ele>178</ele>
        <time>2023-03-04T07:52:24.000Z</time>
      </trkpt>
      <trkpt lat="43.51249" lon="6.72696">
        <ele>177.8</ele>
        <time>2023-03-04T07:52:25.000Z</time>
      </trkpt>
      <trkpt lat="43.51247" lon="6.72703">
        <ele>177.6</ele>
        <time>2023-03-04T07:52:26.000Z</time>
      </trkpt>
      <trkpt lat="43.51245" lon="6.72711">
        <ele>177.5</ele>
        <time>2023-03-04T07:52:27.000Z</time>
      </trkpt>
      <trkpt lat="43.51244" lon="6.72718">
        <ele>177.3</ele>
        <time>2023-03-04T07:52:28.000Z</time>
      </trkpt>
      <trkpt lat="43.51242" lon="6.72726">
        <ele>177.1</ele>
        <time>2023-03-04T07:52:29.000Z</time>
      </trkpt>
      <trkpt lat="43.51241" lon="6.72735">
        <ele>176.9</ele>
        <time>2023-03-04T07:52:30.000Z</time>
      </trkpt>
      <trkpt lat="43.51241" lon="6.72743">
        <ele>176.7</ele>
        <time>2023-03-04T07:52:31.000Z</time>
      </trkpt>
      <trkpt lat="43.51241" lon="6.72752">
        <ele>176.5</ele>
        <time>2023-03-04T07:52:32.000Z</time>
      </trkpt>
      <trkpt lat="43.51241" lon="6.72761">
        <ele>176.3</ele>
        <time>2023-03-04T07:52:33.000Z</time>
      </trkpt>
      <trkpt lat="43.51241" lon="6.72769">
        <ele>176.1</ele>
        <time>2023-03-04T07:52:34.000Z</time>
      </trkpt>
      <trkpt lat="43.51242" lon="6.72777">
        <ele>175.9</ele>
        <time>2023-03-04T07:52:35.000Z</time>
      </trkpt>
      <trkpt lat="43.51242" lon="6.72786">
        <ele>175.8</ele>
        <time>2023-03-04T07:52:36.000Z</time>
      </trkpt>
      <trkpt lat="43.51243" lon="6.72794">
        <ele>175.6</ele>
        <time>2023-03-04T07:52:37.000Z</time>
      </trkpt>
      <trkpt lat="43.51244" lon="6.72802">
        <ele>175.5</ele>
        <time>2023-03-04T07:52:38.000Z</time>
      </trkpt>
      <trkpt lat="43.51244" lon="6.7281">
        <ele>175.3</ele>
        <time>2023-03-04T07:52:39.000Z</time>
      </trkpt>
      <trkpt lat="43.51245" lon="6.72817">
        <ele>175.2</ele>
        <time>2023-03-04T07:52:40.000Z</time>
      </trkpt>
      <trkpt lat="43.51246" lon="6.72825">
        <ele>175</ele>
        <time>2023-03-04T07:52:41.000Z</time>
      </trkpt>
      <trkpt lat="43.51247" lon="6.72833">
        <ele>174.9</ele>
        <time>2023-03-04T07:52:42.000Z</time>
      </trkpt>
      <trkpt lat="43.51248" lon="6.72841">
        <ele>174.8</ele>
        <time>2023-03-04T07:52:43.000Z</time>
      </trkpt>
      <trkpt lat="43.5125" lon="6.72848">
        <ele>174.6</ele>
        <time>2023-03-04T07:52:44.000Z</time>
      </trkpt>
      <trkpt lat="43.51253" lon="6.72854">
        <ele>174.5</ele>
        <time>2023-03-04T07:52:45.000Z</time>
      </trkpt>
      <trkpt lat="43.51257" lon="6.7286">
        <ele>174.3</ele>
        <time>2023-03-04T07:52:46.000Z</time>
      </trkpt>
      <trkpt lat="43.51261" lon="6.72866">
        <ele>174.2</ele>
        <time>2023-03-04T07:52:47.000Z</time>
      </trkpt>
      <trkpt lat="43.51265" lon="6.72872">
        <ele>174.1</ele>
        <time>2023-03-04T07:52:48.000Z</time>
      </trkpt>
      <trkpt lat="43.51268" lon="6.72878">
        <ele>173.9</ele>
        <time>2023-03-04T07:52:49.000Z</time>
      </trkpt>
      <trkpt lat="43.51271" lon="6.72884">
        <ele>173.8</ele>
        <time>2023-03-04T07:52:50.000Z</time>
      </trkpt>
      <trkpt lat="43.51271" lon="6.72892">
        <ele>173.6</ele>
        <time>2023-03-04T07:52:51.000Z</time>
      </trkpt>
      <trkpt lat="43.5127" lon="6.729">
        <ele>173.5</ele>
        <time>2023-03-04T07:52:52.000Z</time>
      </trkpt>
      <trkpt lat="43.51267" lon="6.72906">
        <ele>173.4</ele>
        <time>2023-03-04T07:52:53.000Z</time>
      </trkpt>
      <trkpt lat="43.51264" lon="6.72912">
        <ele>173.3</ele>
        <time>2023-03-04T07:52:54.000Z</time>
      </trkpt>
      <trkpt lat="43.51261" lon="6.72918">
        <ele>173.1</ele>
        <time>2023-03-04T07:52:55.000Z</time>
      </trkpt>
      <trkpt lat="43.51258" lon="6.72924">
        <ele>173</ele>
        <time>2023-03-04T07:52:56.000Z</time>
      </trkpt>
      <trkpt lat="43.51256" lon="6.72931">
        <ele>172.9</ele>
        <time>2023-03-04T07:52:57.000Z</time>
      </trkpt>
      <trkpt lat="43.51256" lon="6.72939">
        <ele>172.8</ele>
        <time>2023-03-04T07:52:58.000Z</time>
      </trkpt>
      <trkpt lat="43.51258" lon="6.72947">
        <ele>172.7</ele>
        <time>2023-03-04T07:52:59.000Z</time>
      </trkpt>
      <trkpt lat="43.51262" lon="6.72954">
        <ele>172.6</ele>
        <time>2023-03-04T07:53:00.000Z</time>
      </trkpt>
      <trkpt lat="43.51266" lon="6.7296">
        <ele>172.5</ele>
        <time>2023-03-04T07:53:01.000Z</time>
      </trkpt>
      <trkpt lat="43.51269" lon="6.72966">
        <ele>172.4</ele>
        <time>2023-03-04T07:53:02.000Z</time>
      </trkpt>
      <trkpt lat="43.51271" lon="6.72973">
        <ele>172.3</ele>
        <time>2023-03-04T07:53:03.000Z</time>
      </trkpt>
      <trkpt lat="43.51272" lon="6.72981">
        <ele>172.2</ele>
        <time>2023-03-04T07:53:04.000Z</time>
      </trkpt>
      <trkpt lat="43.51272" lon="6.72988">
        <ele>172.1</ele>
        <time>2023-03-04T07:53:05.000Z</time>
      </trkpt>
      <trkpt lat="43.51273" lon="6.72996">
        <ele>172</ele>
        <time>2023-03-04T07:53:06.000Z</time>
      </trkpt>
      <trkpt lat="43.51275" lon="6.73003">
        <ele>171.9</ele>
        <time>2023-03-04T07:53:07.000Z</time>
      </trkpt>
      <trkpt lat="43.51278" lon="6.7301">
        <ele>171.8</ele>
        <time>2023-03-04T07:53:08.000Z</time>
      </trkpt>
      <trkpt lat="43.51282" lon="6.73015">
        <ele>171.7</ele>
        <time>2023-03-04T07:53:09.000Z</time>
      </trkpt>
      <trkpt lat="43.51287" lon="6.73019">
        <ele>171.7</ele>
        <time>2023-03-04T07:53:10.000Z</time>
      </trkpt>
      <trkpt lat="43.51292" lon="6.73021">
        <ele>171.6</ele>
        <time>2023-03-04T07:53:11.000Z</time>
      </trkpt>
      <trkpt lat="43.51298" lon="6.73023">
        <ele>171.5</ele>
        <time>2023-03-04T07:53:12.000Z</time>
      </trkpt>
      <trkpt lat="43.51304" lon="6.73023">
        <ele>171.4</ele>
        <time>2023-03-04T07:53:13.000Z</time>
      </trkpt>
      <trkpt lat="43.5131" lon="6.73023">
        <ele>171.3</ele>
        <time>2023-03-04T07:53:14.000Z</time>
      </trkpt>
      <trkpt lat="43.51316" lon="6.73021">
        <ele>171.1</ele>
        <time>2023-03-04T07:53:15.000Z</time>
      </trkpt>
      <trkpt lat="43.51321" lon="6.73019">
        <ele>171</ele>
        <time>2023-03-04T07:53:16.000Z</time>
      </trkpt>
      <trkpt lat="43.51327" lon="6.73016">
        <ele>170.8</ele>
        <time>2023-03-04T07:53:17.000Z</time>
      </trkpt>
      <trkpt lat="43.51331" lon="6.73013">
        <ele>170.7</ele>
        <time>2023-03-04T07:53:18.000Z</time>
      </trkpt>
      <trkpt lat="43.51336" lon="6.73009">
        <ele>170.5</ele>
        <time>2023-03-04T07:53:19.000Z</time>
      </trkpt>
      <trkpt lat="43.51341" lon="6.73006">
        <ele>170.4</ele>
        <time>2023-03-04T07:53:20.000Z</time>
      </trkpt>
      <trkpt lat="43.51346" lon="6.73003">
        <ele>170.2</ele>
        <time>2023-03-04T07:53:21.000Z</time>
      </trkpt>
      <trkpt lat="43.51352" lon="6.73001">
        <ele>170</ele>
        <time>2023-03-04T07:53:22.000Z</time>
      </trkpt>
      <trkpt lat="43.51357" lon="6.73001">
        <ele>169.8</ele>
        <time>2023-03-04T07:53:23.000Z</time>
      </trkpt>
      <trkpt lat="43.51363" lon="6.73003">
        <ele>169.6</ele>
        <time>2023-03-04T07:53:24.000Z</time>
      </trkpt>
      <trkpt lat="43.51368" lon="6.73008">
        <ele>169.3</ele>
        <time>2023-03-04T07:53:25.000Z</time>
      </trkpt>
      <trkpt lat="43.51372" lon="6.73015">
        <ele>169.1</ele>
        <time>2023-03-04T07:53:26.000Z</time>
      </trkpt>
      <trkpt lat="43.51376" lon="6.73023">
        <ele>168.8</ele>
        <time>2023-03-04T07:53:27.000Z</time>
      </trkpt>
      <trkpt lat="43.51379" lon="6.7303">
        <ele>168.5</ele>
        <time>2023-03-04T07:53:28.000Z</time>
      </trkpt>
      <trkpt lat="43.51384" lon="6.73038">
        <ele>168.1</ele>
        <time>2023-03-04T07:53:29.000Z</time>
      </trkpt>
      <trkpt lat="43.51388" lon="6.73043">
        <ele>167.8</ele>
        <time>2023-03-04T07:53:30.000Z</time>
      </trkpt>
      <trkpt lat="43.51394" lon="6.73048">
        <ele>167.5</ele>
        <time>2023-03-04T07:53:31.000Z</time>
      </trkpt>
      <trkpt lat="43.51399" lon="6.73052">
        <ele>167.2</ele>
        <time>2023-03-04T07:53:32.000Z</time>
      </trkpt>
      <trkpt lat="43.51404" lon="6.73057">
        <ele>166.8</ele>
        <time>2023-03-04T07:53:33.000Z</time>
      </trkpt>
      <trkpt lat="43.51407" lon="6.73063">
        <ele>166.5</ele>
        <time>2023-03-04T07:53:34.000Z</time>
      </trkpt>
      <trkpt lat="43.51409" lon="6.7307">
        <ele>166</ele>
        <time>2023-03-04T07:53:35.000Z</time>
      </trkpt>
      <trkpt lat="43.51409" lon="6.73078">
        <ele>165.6</ele>
        <time>2023-03-04T07:53:36.000Z</time>
      </trkpt>
      <trkpt lat="43.51407" lon="6.73087">
        <ele>165</ele>
        <time>2023-03-04T07:53:37.000Z</time>
      </trkpt>
      <trkpt lat="43.51403" lon="6.73095">
        <ele>164.3</ele>
        <time>2023-03-04T07:53:38.000Z</time>
      </trkpt>
      <trkpt lat="43.51399" lon="6.73102">
        <ele>163.7</ele>
        <time>2023-03-04T07:53:39.000Z</time>
      </trkpt>
      <trkpt lat="43.51394" lon="6.73108">
        <ele>163.1</ele>
        <time>2023-03-04T07:53:40.000Z</time>
      </trkpt>
      <trkpt lat="43.5139" lon="6.73114">
        <ele>162.5</ele>
        <time>2023-03-04T07:53:41.000Z</time>
      </trkpt>
      <trkpt lat="43.51385" lon="6.7312">
        <ele>161.9</ele>
        <time>2023-03-04T07:53:42.000Z</time>
      </trkpt>
      <trkpt lat="43.51381" lon="6.73127">
        <ele>161.3</ele>
        <time>2023-03-04T07:53:43.000Z</time>
      </trkpt>
      <trkpt lat="43.51377" lon="6.73136">
        <ele>160.7</ele>
        <time>2023-03-04T07:53:44.000Z</time>
      </trkpt>
      <trkpt lat="43.51376" lon="6.73144">
        <ele>160.2</ele>
        <time>2023-03-04T07:53:45.000Z</time>
      </trkpt>
      <trkpt lat="43.51375" lon="6.73154">
        <ele>159.6</ele>
        <time>2023-03-04T07:53:46.000Z</time>
      </trkpt>
      <trkpt lat="43.51377" lon="6.73164">
        <ele>159</ele>
        <time>2023-03-04T07:53:47.000Z</time>
      </trkpt>
      <trkpt lat="43.5138" lon="6.73173">
        <ele>158.4</ele>
        <time>2023-03-04T07:53:48.000Z</time>
      </trkpt>
      <trkpt lat="43.51384" lon="6.73182">
        <ele>157.9</ele>
        <time>2023-03-04T07:53:49.000Z</time>
      </trkpt>
      <trkpt lat="43.51388" lon="6.73191">
        <ele>157.7</ele>
        <time>2023-03-04T07:53:50.000Z</time>
      </trkpt>
      <trkpt lat="43.51392" lon="6.73197">
        <ele>157.8</ele>
        <time>2023-03-04T07:53:51.000Z</time>
      </trkpt>
      <trkpt lat="43.51395" lon="6.73201">
        <ele>157.9</ele>
        <time>2023-03-04T07:53:52.000Z</time>
      </trkpt>
      <trkpt lat="43.51397" lon="6.73204">
        <ele>157.9</ele>
        <time>2023-03-04T07:53:53.000Z</time>
      </trkpt>
      <trkpt lat="43.514" lon="6.73207">
        <ele>158</ele>
        <time>2023-03-04T07:53:54.000Z</time>
      </trkpt>
      <trkpt lat="43.514" lon="6.73208">
        <ele>157.9</ele>
        <time>2023-03-04T07:53:55.000Z</time>
      </trkpt>
      <trkpt lat="43.514" lon="6.7321">
        <ele>157.9</ele>
        <time>2023-03-04T07:53:56.000Z</time>
      </trkpt>
      <trkpt lat="43.51399" lon="6.73212">
        <ele>157.9</ele>
        <time>2023-03-04T07:53:57.000Z</time>
      </trkpt>
      <trkpt lat="43.51397" lon="6.73213">
        <ele>157.9</ele>
        <time>2023-03-04T07:53:58.000Z</time>
      </trkpt>
      <trkpt lat="43.51396" lon="6.73214">
        <ele>157.9</ele>
        <time>2023-03-04T07:53:59.000Z</time>
      </trkpt>
      <trkpt lat="43.51394" lon="6.73213">
        <ele>157.9</ele>
        <time>2023-03-04T07:54:00.000Z</time>
      </trkpt>
      <trkpt lat="43.51392" lon="6.7321">
        <ele>157.8</ele>
        <time>2023-03-04T07:54:02.000Z</time>
      </trkpt>
      <trkpt lat="43.51391" lon="6.73206">
        <ele>157.8</ele>
        <time>2023-03-04T07:54:03.000Z</time>
      </trkpt>
      <trkpt lat="43.5139" lon="6.73203">
        <ele>157.8</ele>
        <time>2023-03-04T07:54:04.000Z</time>
      </trkpt>
      <trkpt lat="43.51389" lon="6.73199">
        <ele>157.8</ele>
        <time>2023-03-04T07:54:05.000Z</time>
      </trkpt>
      <trkpt lat="43.51388" lon="6.73194">
        <ele>157.7</ele>
        <time>2023-03-04T07:54:07.000Z</time>
      </trkpt>
      <trkpt lat="43.51386" lon="6.73189">
        <ele>157.7</ele>
        <time>2023-03-04T07:54:08.000Z</time>
      </trkpt>
      <trkpt lat="43.51385" lon="6.73187">
        <ele>157.7</ele>
        <time>2023-03-04T07:54:09.000Z</time>
      </trkpt>
      <trkpt lat="43.51384" lon="6.73182">
        <ele>157.7</ele>
        <time>2023-03-04T07:54:11.000Z</time>
      </trkpt>
      <trkpt lat="43.51384" lon="6.73178">
        <ele>157.9</ele>
        <time>2023-03-04T07:54:12.000Z</time>
      </trkpt>
      <trkpt lat="43.51385" lon="6.73177">
        <ele>158</ele>
        <time>2023-03-04T07:54:13.000Z</time>
      </trkpt>
      <trkpt lat="43.51386" lon="6.73175">
        <ele>158.1</ele>
        <time>2023-03-04T07:54:15.000Z</time>
      </trkpt>
      <trkpt lat="43.51387" lon="6.73173">
        <ele>158.2</ele>
        <time>2023-03-04T07:54:16.000Z</time>
      </trkpt>
      <trkpt lat="43.51388" lon="6.73171">
        <ele>158.3</ele>
        <time>2023-03-04T07:54:17.000Z</time>
      </trkpt>
      <trkpt lat="43.51389" lon="6.73172">
        <ele>158.4</ele>
        <time>2023-03-04T07:54:18.000Z</time>
      </trkpt>
      <trkpt lat="43.5139" lon="6.73172">
        <ele>158.4</ele>
        <time>2023-03-04T07:54:19.000Z</time>
      </trkpt>
      <trkpt lat="43.51392" lon="6.73172">
        <ele>158.6</ele>
        <time>2023-03-04T07:54:20.000Z</time>
      </trkpt>
      <trkpt lat="43.51394" lon="6.73171">
        <ele>158.7</ele>
        <time>2023-03-04T07:54:21.000Z</time>
      </trkpt>
      <trkpt lat="43.51395" lon="6.73171">
        <ele>158.7</ele>
        <time>2023-03-04T07:54:23.000Z</time>
      </trkpt>
      <trkpt lat="43.51396" lon="6.7317">
        <ele>158.8</ele>
        <time>2023-03-04T07:54:24.000Z</time>
      </trkpt>
      <trkpt lat="43.51397" lon="6.73169">
        <ele>158.9</ele>
        <time>2023-03-04T07:54:25.000Z</time>
      </trkpt>
      <trkpt lat="43.51399" lon="6.73167">
        <ele>159.1</ele>
        <time>2023-03-04T07:54:26.000Z</time>
      </trkpt>
      <trkpt lat="43.51402" lon="6.73163">
        <ele>159.4</ele>
        <time>2023-03-04T07:54:27.000Z</time>
      </trkpt>
      <trkpt lat="43.51403" lon="6.73161">
        <ele>159.5</ele>
        <time>2023-03-04T07:54:28.000Z</time>
      </trkpt>
      <trkpt lat="43.51405" lon="6.73157">
        <ele>159.7</ele>
        <time>2023-03-04T07:54:30.000Z</time>
      </trkpt>
      <trkpt lat="43.51407" lon="6.73153">
        <ele>160</ele>
        <time>2023-03-04T07:54:31.000Z</time>
      </trkpt>
      <trkpt lat="43.51408" lon="6.7315">
        <ele>160.2</ele>
        <time>2023-03-04T07:54:32.000Z</time>
      </trkpt>
      <trkpt lat="43.5141" lon="6.73146">
        <ele>160.4</ele>
        <time>2023-03-04T07:54:33.000Z</time>
      </trkpt>
      <trkpt lat="43.51412" lon="6.73143">
        <ele>160.6</ele>
        <time>2023-03-04T07:54:34.000Z</time>
      </trkpt>
      <trkpt lat="43.51414" lon="6.7314">
        <ele>160.8</ele>
        <time>2023-03-04T07:54:35.000Z</time>
      </trkpt>
      <trkpt lat="43.51416" lon="6.73137">
        <ele>161</ele>
        <time>2023-03-04T07:54:36.000Z</time>
      </trkpt>
      <trkpt lat="43.51419" lon="6.73134">
        <ele>161.2</ele>
        <time>2023-03-04T07:54:37.000Z</time>
      </trkpt>
      <trkpt lat="43.51421" lon="6.73131">
        <ele>161.3</ele>
        <time>2023-03-04T07:54:38.000Z</time>
      </trkpt>
      <trkpt lat="43.51424" lon="6.73129">
        <ele>161.5</ele>
        <time>2023-03-04T07:54:39.000Z</time>
      </trkpt>
      <trkpt lat="43.51427" lon="6.73127">
        <ele>161.6</ele>
        <time>2023-03-04T07:54:41.000Z</time>
      </trkpt>
      <trkpt lat="43.5143" lon="6.73125">
        <ele>161.8</ele>
        <time>2023-03-04T07:54:42.000Z</time>
      </trkpt>
      <trkpt lat="43.51433" lon="6.73123">
        <ele>161.9</ele>
        <time>2023-03-04T07:54:43.000Z</time>
      </trkpt>
      <trkpt lat="43.51436" lon="6.73121">
        <ele>162</ele>
        <time>2023-03-04T07:54:44.000Z</time>
      </trkpt>
      <trkpt lat="43.51438" lon="6.73118">
        <ele>162.2</ele>
        <time>2023-03-04T07:54:45.000Z</time>
      </trkpt>
      <trkpt lat="43.51441" lon="6.73114">
        <ele>162.3</ele>
        <time>2023-03-04T07:54:46.000Z</time>
      </trkpt>
      <trkpt lat="43.51444" lon="6.7311">
        <ele>162.5</ele>
        <time>2023-03-04T07:54:47.000Z</time>
      </trkpt>
      <trkpt lat="43.51447" lon="6.73107">
        <ele>162.7</ele>
        <time>2023-03-04T07:54:48.000Z</time>
      </trkpt>
      <trkpt lat="43.51451" lon="6.73102">
        <ele>162.9</ele>
        <time>2023-03-04T07:54:50.000Z</time>
      </trkpt>
      <trkpt lat="43.51455" lon="6.73098">
        <ele>163.1</ele>
        <time>2023-03-04T07:54:51.000Z</time>
      </trkpt>
      <trkpt lat="43.51461" lon="6.7309">
        <ele>163.5</ele>
        <time>2023-03-04T07:54:53.000Z</time>
      </trkpt>
      <trkpt lat="43.51465" lon="6.73086">
        <ele>163.7</ele>
        <time>2023-03-04T07:54:55.000Z</time>
      </trkpt>
      <trkpt lat="43.51468" lon="6.73081">
        <ele>163.9</ele>
        <time>2023-03-04T07:54:56.000Z</time>
      </trkpt>
      <trkpt lat="43.5147" lon="6.73078">
        <ele>164</ele>
        <time>2023-03-04T07:54:57.000Z</time>
      </trkpt>
      <trkpt lat="43.51473" lon="6.73073">
        <ele>164.3</ele>
        <time>2023-03-04T07:54:58.000Z</time>
      </trkpt>
      <trkpt lat="43.51477" lon="6.73069">
        <ele>164.5</ele>
        <time>2023-03-04T07:54:59.000Z</time>
      </trkpt>
      <trkpt lat="43.5148" lon="6.73065">
        <ele>164.7</ele>
        <time>2023-03-04T07:55:00.000Z</time>
      </trkpt>
      <trkpt lat="43.51483" lon="6.73063">
        <ele>164.8</ele>
        <time>2023-03-04T07:55:01.000Z</time>
      </trkpt>
      <trkpt lat="43.51488" lon="6.73062">
        <ele>165.1</ele>
        <time>2023-03-04T07:55:03.000Z</time>
      </trkpt>
      <trkpt lat="43.51492" lon="6.73061">
        <ele>165.3</ele>
        <time>2023-03-04T07:55:04.000Z</time>
      </trkpt>
      <trkpt lat="43.51498" lon="6.73062">
        <ele>165.7</ele>
        <time>2023-03-04T07:55:05.000Z</time>
      </trkpt>
      <trkpt lat="43.51503" lon="6.73063">
        <ele>166.1</ele>
        <time>2023-03-04T07:55:06.000Z</time>
      </trkpt>
      <trkpt lat="43.51506" lon="6.73064">
        <ele>166.3</ele>
        <time>2023-03-04T07:55:07.000Z</time>
      </trkpt>
      <trkpt lat="43.51509" lon="6.73066">
        <ele>166.5</ele>
        <time>2023-03-04T07:55:08.000Z</time>
      </trkpt>
      <trkpt lat="43.51511" lon="6.73068">
        <ele>166.7</ele>
        <time>2023-03-04T07:55:09.000Z</time>
      </trkpt>
      <trkpt lat="43.51515" lon="6.73069">
        <ele>166.9</ele>
        <time>2023-03-04T07:55:11.000Z</time>
      </trkpt>
      <trkpt lat="43.51518" lon="6.73071">
        <ele>167.2</ele>
        <time>2023-03-04T07:55:12.000Z</time>
      </trkpt>
      <trkpt lat="43.51521" lon="6.73072">
        <ele>167.4</ele>
        <time>2023-03-04T07:55:13.000Z</time>
      </trkpt>
      <trkpt lat="43.51527" lon="6.73075">
        <ele>167.7</ele>
        <time>2023-03-04T07:55:15.000Z</time>
      </trkpt>
      <trkpt lat="43.51531" lon="6.73077">
        <ele>167.9</ele>
        <time>2023-03-04T07:55:16.000Z</time>
      </trkpt>
      <trkpt lat="43.51534" lon="6.73078">
        <ele>168.1</ele>
        <time>2023-03-04T07:55:17.000Z</time>
      </trkpt>
      <trkpt lat="43.51538" lon="6.7308">
        <ele>168.2</ele>
        <time>2023-03-04T07:55:19.000Z</time>
      </trkpt>
      <trkpt lat="43.51541" lon="6.73082">
        <ele>168.3</ele>
        <time>2023-03-04T07:55:20.000Z</time>
      </trkpt>
      <trkpt lat="43.51545" lon="6.73084">
        <ele>168.4</ele>
        <time>2023-03-04T07:55:21.000Z</time>
      </trkpt>
      <trkpt lat="43.51549" lon="6.73087">
        <ele>168.5</ele>
        <time>2023-03-04T07:55:22.000Z</time>
      </trkpt>
      <trkpt lat="43.51551" lon="6.73088">
        <ele>168.5</ele>
        <time>2023-03-04T07:55:23.000Z</time>
      </trkpt>
      <trkpt lat="43.51552" lon="6.73089">
        <ele>168.5</ele>
        <time>2023-03-04T07:55:24.000Z</time>
      </trkpt>
      <trkpt lat="43.51554" lon="6.73089">
        <ele>168.5</ele>
        <time>2023-03-04T07:55:25.000Z</time>
      </trkpt>
      <trkpt lat="43.51554" lon="6.73089">
        <ele>168.5</ele>
        <time>2023-03-04T07:55:27.000Z</time>
      </trkpt>
      <trkpt lat="43.51555" lon="6.73089">
        <ele>168.5</ele>
        <time>2023-03-04T07:55:28.000Z</time>
      </trkpt>
      <trkpt lat="43.51555" lon="6.7309">
        <ele>168.6</ele>
        <time>2023-03-04T07:55:29.000Z</time>
      </trkpt>
      <trkpt lat="43.51555" lon="6.7309">
        <ele>168.6</ele>
        <time>2023-03-04T07:55:31.000Z</time>
      </trkpt>
      <trkpt lat="43.51556" lon="6.7309">
        <ele>168.6</ele>
        <time>2023-03-04T07:55:32.000Z</time>
      </trkpt>
      <trkpt lat="43.51556" lon="6.7309">
        <ele>168.6</ele>
        <time>2023-03-04T07:55:34.000Z</time>
      </trkpt>
      <trkpt lat="43.51557" lon="6.7309">
        <ele>168.6</ele>
        <time>2023-03-04T07:55:35.000Z</time>
      </trkpt>
      <trkpt lat="43.51557" lon="6.7309">
        <ele>168.6</ele>
        <time>2023-03-04T07:55:36.000Z</time>
      </trkpt>
      <trkpt lat="43.5156" lon="6.7309">
        <ele>168.6</ele>
        <time>2023-03-04T07:55:37.000Z</time>
      </trkpt>
      <trkpt lat="43.51564" lon="6.7309">
        <ele>168.7</ele>
        <time>2023-03-04T07:55:38.000Z</time>
      </trkpt>
      <trkpt lat="43.51566" lon="6.73089">
        <ele>168.7</ele>
        <time>2023-03-04T07:55:39.000Z</time>
      </trkpt>
      <trkpt lat="43.51571" lon="6.73089">
        <ele>168.8</ele>
        <time>2023-03-04T07:55:41.000Z</time>
      </trkpt>
      <trkpt lat="43.51575" lon="6.73089">
        <ele>168.8</ele>
        <time>2023-03-04T07:55:42.000Z</time>
      </trkpt>
      <trkpt lat="43.51578" lon="6.73088">
        <ele>168.9</ele>
        <time>2023-03-04T07:55:43.000Z</time>
      </trkpt>
      <trkpt lat="43.51582" lon="6.73089">
        <ele>169</ele>
        <time>2023-03-04T07:55:45.000Z</time>
      </trkpt>
      <trkpt lat="43.51586" lon="6.73088">
        <ele>169</ele>
        <time>2023-03-04T07:55:46.000Z</time>
      </trkpt>
      <trkpt lat="43.5159" lon="6.73088">
        <ele>169.1</ele>
        <time>2023-03-04T07:55:47.000Z</time>
      </trkpt>
      <trkpt lat="43.51593" lon="6.73087">
        <ele>169.2</ele>
        <time>2023-03-04T07:55:48.000Z</time>
      </trkpt>
      <trkpt lat="43.51594" lon="6.73087">
        <ele>169.2</ele>
        <time>2023-03-04T07:55:49.000Z</time>
      </trkpt>
      <trkpt lat="43.51596" lon="6.73087">
        <ele>169.2</ele>
        <time>2023-03-04T07:55:50.000Z</time>
      </trkpt>
      <trkpt lat="43.51598" lon="6.73087">
        <ele>169.2</ele>
        <time>2023-03-04T07:55:51.000Z</time>
      </trkpt>
      <trkpt lat="43.516" lon="6.73085">
        <ele>169.3</ele>
        <time>2023-03-04T07:55:52.000Z</time>
      </trkpt>
      <trkpt lat="43.51604" lon="6.73084">
        <ele>169.4</ele>
        <time>2023-03-04T07:55:54.000Z</time>
      </trkpt>
      <trkpt lat="43.51609" lon="6.73083">
        <ele>169.5</ele>
        <time>2023-03-04T07:55:55.000Z</time>
      </trkpt>
      <trkpt lat="43.51612" lon="6.73082">
        <ele>169.5</ele>
        <time>2023-03-04T07:55:56.000Z</time>
      </trkpt>
      <trkpt lat="43.51615" lon="6.73081">
        <ele>169.6</ele>
        <time>2023-03-04T07:55:58.000Z</time>
      </trkpt>
      <trkpt lat="43.51619" lon="6.73079">
        <ele>169.6</ele>
        <time>2023-03-04T07:55:59.000Z</time>
      </trkpt>
      <trkpt lat="43.51623" lon="6.73077">
        <ele>169.7</ele>
        <time>2023-03-04T07:56:00.000Z</time>
      </trkpt>
      <trkpt lat="43.51625" lon="6.73074">
        <ele>169.7</ele>
        <time>2023-03-04T07:56:01.000Z</time>
      </trkpt>
      <trkpt lat="43.51629" lon="6.73071">
        <ele>169.7</ele>
        <time>2023-03-04T07:56:02.000Z</time>
      </trkpt>
      <trkpt lat="43.51631" lon="6.73068">
        <ele>169.6</ele>
        <time>2023-03-04T07:56:04.000Z</time>
      </trkpt>
      <trkpt lat="43.51634" lon="6.73064">
        <ele>169.6</ele>
        <time>2023-03-04T07:56:05.000Z</time>
      </trkpt>
      <trkpt lat="43.51636" lon="6.73062">
        <ele>169.5</ele>
        <time>2023-03-04T07:56:06.000Z</time>
      </trkpt>
      <trkpt lat="43.51638" lon="6.73058">
        <ele>169.4</ele>
        <time>2023-03-04T07:56:07.000Z</time>
      </trkpt>
      <trkpt lat="43.51641" lon="6.73053">
        <ele>169.4</ele>
        <time>2023-03-04T07:56:08.000Z</time>
      </trkpt>
      <trkpt lat="43.51644" lon="6.73049">
        <ele>169.3</ele>
        <time>2023-03-04T07:56:09.000Z</time>
      </trkpt>
      <trkpt lat="43.51647" lon="6.73044">
        <ele>169.2</ele>
        <time>2023-03-04T07:56:10.000Z</time>
      </trkpt>
      <trkpt lat="43.5165" lon="6.73038">
        <ele>169.1</ele>
        <time>2023-03-04T07:56:12.000Z</time>
      </trkpt>
      <trkpt lat="43.51652" lon="6.73032">
        <ele>169</ele>
        <time>2023-03-04T07:56:13.000Z</time>
      </trkpt>
      <trkpt lat="43.51655" lon="6.73025">
        <ele>168.9</ele>
        <time>2023-03-04T07:56:14.000Z</time>
      </trkpt>
      <trkpt lat="43.51658" lon="6.7302">
        <ele>168.9</ele>
        <time>2023-03-04T07:56:15.000Z</time>
      </trkpt>
      <trkpt lat="43.51661" lon="6.73015">
        <ele>168.9</ele>
        <time>2023-03-04T07:56:16.000Z</time>
      </trkpt>
      <trkpt lat="43.51664" lon="6.73008">
        <ele>168.9</ele>
        <time>2023-03-04T07:56:17.000Z</time>
      </trkpt>
      <trkpt lat="43.51666" lon="6.73001">
        <ele>168.9</ele>
        <time>2023-03-04T07:56:18.000Z</time>
      </trkpt>
      <trkpt lat="43.51668" lon="6.72995">
        <ele>169</ele>
        <time>2023-03-04T07:56:19.000Z</time>
      </trkpt>
      <trkpt lat="43.5167" lon="6.72989">
        <ele>169.1</ele>
        <time>2023-03-04T07:56:20.000Z</time>
      </trkpt>
      <trkpt lat="43.51672" lon="6.72984">
        <ele>169.1</ele>
        <time>2023-03-04T07:56:22.000Z</time>
      </trkpt>
      <trkpt lat="43.51675" lon="6.72976">
        <ele>169.2</ele>
        <time>2023-03-04T07:56:23.000Z</time>
      </trkpt>
      <trkpt lat="43.51678" lon="6.72971">
        <ele>169.3</ele>
        <time>2023-03-04T07:56:24.000Z</time>
      </trkpt>
      <trkpt lat="43.51681" lon="6.72966">
        <ele>169.4</ele>
        <time>2023-03-04T07:56:25.000Z</time>
      </trkpt>
      <trkpt lat="43.51684" lon="6.72961">
        <ele>169.6</ele>
        <time>2023-03-04T07:56:26.000Z</time>
      </trkpt>
      <trkpt lat="43.51688" lon="6.72957">
        <ele>169.8</ele>
        <time>2023-03-04T07:56:27.000Z</time>
      </trkpt>
      <trkpt lat="43.51691" lon="6.72952">
        <ele>170</ele>
        <time>2023-03-04T07:56:28.000Z</time>
      </trkpt>
      <trkpt lat="43.51694" lon="6.72942">
        <ele>170.3</ele>
        <time>2023-03-04T07:56:30.000Z</time>
      </trkpt>
      <trkpt lat="43.51696" lon="6.72936">
        <ele>170.6</ele>
        <time>2023-03-04T07:56:31.000Z</time>
      </trkpt>
      <trkpt lat="43.51698" lon="6.7293">
        <ele>170.8</ele>
        <time>2023-03-04T07:56:33.000Z</time>
      </trkpt>
      <trkpt lat="43.51701" lon="6.72925">
        <ele>171</ele>
        <time>2023-03-04T07:56:34.000Z</time>
      </trkpt>
      <trkpt lat="43.51703" lon="6.7292">
        <ele>171.1</ele>
        <time>2023-03-04T07:56:35.000Z</time>
      </trkpt>
      <trkpt lat="43.51705" lon="6.72914">
        <ele>171.3</ele>
        <time>2023-03-04T07:56:36.000Z</time>
      </trkpt>
      <trkpt lat="43.51708" lon="6.72908">
        <ele>171.4</ele>
        <time>2023-03-04T07:56:37.000Z</time>
      </trkpt>
      <trkpt lat="43.51711" lon="6.72903">
        <ele>171.4</ele>
        <time>2023-03-04T07:56:38.000Z</time>
      </trkpt>
      <trkpt lat="43.51714" lon="6.72897">
        <ele>171.4</ele>
        <time>2023-03-04T07:56:39.000Z</time>
      </trkpt>
      <trkpt lat="43.51718" lon="6.72891">
        <ele>171.4</ele>
        <time>2023-03-04T07:56:40.000Z</time>
      </trkpt>
      <trkpt lat="43.51721" lon="6.72886">
        <ele>171.3</ele>
        <time>2023-03-04T07:56:41.000Z</time>
      </trkpt>
      <trkpt lat="43.51725" lon="6.72881">
        <ele>171.2</ele>
        <time>2023-03-04T07:56:42.000Z</time>
      </trkpt>
      <trkpt lat="43.51729" lon="6.72875">
        <ele>171.1</ele>
        <time>2023-03-04T07:56:43.000Z</time>
      </trkpt>
      <trkpt lat="43.51731" lon="6.72869">
        <ele>171</ele>
        <time>2023-03-04T07:56:44.000Z</time>
      </trkpt>
      <trkpt lat="43.51734" lon="6.72863">
        <ele>171</ele>
        <time>2023-03-04T07:56:45.000Z</time>
      </trkpt>
      <trkpt lat="43.51736" lon="6.72858">
        <ele>171</ele>
        <time>2023-03-04T07:56:46.000Z</time>
      </trkpt>
      <trkpt lat="43.51739" lon="6.72853">
        <ele>171</ele>
        <time>2023-03-04T07:56:48.000Z</time>
      </trkpt>
      <trkpt lat="43.51741" lon="6.7285">
        <ele>171.1</ele>
        <time>2023-03-04T07:56:49.000Z</time>
      </trkpt>
      <trkpt lat="43.51744" lon="6.72848">
        <ele>171.1</ele>
        <time>2023-03-04T07:56:50.000Z</time>
      </trkpt>
      <trkpt lat="43.51745" lon="6.72848">
        <ele>171.1</ele>
        <time>2023-03-04T07:56:51.000Z</time>
      </trkpt>
      <trkpt lat="43.51748" lon="6.7285">
        <ele>171.1</ele>
        <time>2023-03-04T07:56:52.000Z</time>
      </trkpt>
      <trkpt lat="43.51748" lon="6.72852">
        <ele>171.1</ele>
        <time>2023-03-04T07:56:53.000Z</time>
      </trkpt>
      <trkpt lat="43.51751" lon="6.72855">
        <ele>171.1</ele>
        <time>2023-03-04T07:56:54.000Z</time>
      </trkpt>
      <trkpt lat="43.51754" lon="6.72859">
        <ele>171.1</ele>
        <time>2023-03-04T07:56:56.000Z</time>
      </trkpt>
      <trkpt lat="43.51757" lon="6.72864">
        <ele>171.1</ele>
        <time>2023-03-04T07:56:57.000Z</time>
      </trkpt>
      <trkpt lat="43.51761" lon="6.72873">
        <ele>171.2</ele>
        <time>2023-03-04T07:56:58.000Z</time>
      </trkpt>
      <trkpt lat="43.51763" lon="6.72879">
        <ele>171.3</ele>
        <time>2023-03-04T07:57:00.000Z</time>
      </trkpt>
      <trkpt lat="43.51765" lon="6.72883">
        <ele>171.5</ele>
        <time>2023-03-04T07:57:01.000Z</time>
      </trkpt>
      <trkpt lat="43.51766" lon="6.72888">
        <ele>171.7</ele>
        <time>2023-03-04T07:57:02.000Z</time>
      </trkpt>
      <trkpt lat="43.51767" lon="6.72892">
        <ele>171.8</ele>
        <time>2023-03-04T07:57:03.000Z</time>
      </trkpt>
      <trkpt lat="43.51769" lon="6.72895">
        <ele>172</ele>
        <time>2023-03-04T07:57:04.000Z</time>
      </trkpt>
      <trkpt lat="43.5177" lon="6.72899">
        <ele>172.2</ele>
        <time>2023-03-04T07:57:05.000Z</time>
      </trkpt>
      <trkpt lat="43.51772" lon="6.72903">
        <ele>172.5</ele>
        <time>2023-03-04T07:57:07.000Z</time>
      </trkpt>
      <trkpt lat="43.51774" lon="6.72907">
        <ele>172.8</ele>
        <time>2023-03-04T07:57:08.000Z</time>
      </trkpt>
      <trkpt lat="43.51777" lon="6.72911">
        <ele>173.1</ele>
        <time>2023-03-04T07:57:09.000Z</time>
      </trkpt>
      <trkpt lat="43.51779" lon="6.72916">
        <ele>173.5</ele>
        <time>2023-03-04T07:57:10.000Z</time>
      </trkpt>
      <trkpt lat="43.5178" lon="6.72918">
        <ele>173.6</ele>
        <time>2023-03-04T07:57:11.000Z</time>
      </trkpt>
      <trkpt lat="43.51782" lon="6.72923">
        <ele>174</ele>
        <time>2023-03-04T07:57:12.000Z</time>
      </trkpt>
      <trkpt lat="43.51784" lon="6.72928">
        <ele>174.4</ele>
        <time>2023-03-04T07:57:13.000Z</time>
      </trkpt>
      <trkpt lat="43.51787" lon="6.72933">
        <ele>174.8</ele>
        <time>2023-03-04T07:57:15.000Z</time>
      </trkpt>
      <trkpt lat="43.5179" lon="6.72937">
        <ele>175.2</ele>
        <time>2023-03-04T07:57:16.000Z</time>
      </trkpt>
      <trkpt lat="43.51793" lon="6.72943">
        <ele>175.7</ele>
        <time>2023-03-04T07:57:17.000Z</time>
      </trkpt>
      <trkpt lat="43.51796" lon="6.72947">
        <ele>176.1</ele>
        <time>2023-03-04T07:57:18.000Z</time>
      </trkpt>
      <trkpt lat="43.51799" lon="6.7295">
        <ele>176.4</ele>
        <time>2023-03-04T07:57:19.000Z</time>
      </trkpt>
      <trkpt lat="43.51801" lon="6.72953">
        <ele>176.8</ele>
        <time>2023-03-04T07:57:21.000Z</time>
      </trkpt>
      <trkpt lat="43.51804" lon="6.72954">
        <ele>177.2</ele>
        <time>2023-03-04T07:57:22.000Z</time>
      </trkpt>
      <trkpt lat="43.51808" lon="6.72957">
        <ele>177.6</ele>
        <time>2023-03-04T07:57:23.000Z</time>
      </trkpt>
      <trkpt lat="43.51811" lon="6.7296">
        <ele>178.1</ele>
        <time>2023-03-04T07:57:24.000Z</time>
      </trkpt>
      <trkpt lat="43.51812" lon="6.72962">
        <ele>178.3</ele>
        <time>2023-03-04T07:57:25.000Z</time>
      </trkpt>
      <trkpt lat="43.51814" lon="6.72964">
        <ele>178.7</ele>
        <time>2023-03-04T07:57:26.000Z</time>
      </trkpt>
      <trkpt lat="43.51816" lon="6.72966">
        <ele>178.9</ele>
        <time>2023-03-04T07:57:28.000Z</time>
      </trkpt>
      <trkpt lat="43.51817" lon="6.72968">
        <ele>179.1</ele>
        <time>2023-03-04T07:57:29.000Z</time>
      </trkpt>
      <trkpt lat="43.51819" lon="6.7297">
        <ele>179.5</ele>
        <time>2023-03-04T07:57:30.000Z</time>
      </trkpt>
      <trkpt lat="43.5182" lon="6.7297">
        <ele>179.7</ele>
        <time>2023-03-04T07:57:31.000Z</time>
      </trkpt>
      <trkpt lat="43.51824" lon="6.72972">
        <ele>180.3</ele>
        <time>2023-03-04T07:57:32.000Z</time>
      </trkpt>
      <trkpt lat="43.51825" lon="6.72972">
        <ele>180.5</ele>
        <time>2023-03-04T07:57:33.000Z</time>
      </trkpt>
      <trkpt lat="43.51828" lon="6.72974">
        <ele>181.1</ele>
        <time>2023-03-04T07:57:35.000Z</time>
      </trkpt>
      <trkpt lat="43.51831" lon="6.72975">
        <ele>181.5</ele>
        <time>2023-03-04T07:57:36.000Z</time>
      </trkpt>
      <trkpt lat="43.51835" lon="6.72977">
        <ele>182.3</ele>
        <time>2023-03-04T07:57:37.000Z</time>
      </trkpt>
      <trkpt lat="43.51838" lon="6.72978">
        <ele>182.8</ele>
        <time>2023-03-04T07:57:39.000Z</time>
      </trkpt>
      <trkpt lat="43.51841" lon="6.72979">
        <ele>183.3</ele>
        <time>2023-03-04T07:57:40.000Z</time>
      </trkpt>
      <trkpt lat="43.51844" lon="6.7298">
        <ele>183.8</ele>
        <time>2023-03-04T07:57:41.000Z</time>
      </trkpt>
      <trkpt lat="43.51847" lon="6.7298">
        <ele>184.3</ele>
        <time>2023-03-04T07:57:42.000Z</time>
      </trkpt>
      <trkpt lat="43.5185" lon="6.7298">
        <ele>184.7</ele>
        <time>2023-03-04T07:57:43.000Z</time>
      </trkpt>
      <trkpt lat="43.51853" lon="6.7298">
        <ele>185</ele>
        <time>2023-03-04T07:57:44.000Z</time>
      </trkpt>
      <trkpt lat="43.51856" lon="6.7298">
        <ele>185.5</ele>
        <time>2023-03-04T07:57:45.000Z</time>
      </trkpt>
      <trkpt lat="43.51861" lon="6.72979">
        <ele>186</ele>
        <time>2023-03-04T07:57:47.000Z</time>
      </trkpt>
      <trkpt lat="43.51864" lon="6.72979">
        <ele>186.4</ele>
        <time>2023-03-04T07:57:48.000Z</time>
      </trkpt>
      <trkpt lat="43.51867" lon="6.72979">
        <ele>186.7</ele>
        <time>2023-03-04T07:57:49.000Z</time>
      </trkpt>
      <trkpt lat="43.5187" lon="6.72978">
        <ele>187</ele>
        <time>2023-03-04T07:57:50.000Z</time>
      </trkpt>
      <trkpt lat="43.51873" lon="6.72978">
        <ele>187.2</ele>
        <time>2023-03-04T07:57:51.000Z</time>
      </trkpt>
      <trkpt lat="43.51874" lon="6.72977">
        <ele>187.4</ele>
        <time>2023-03-04T07:57:53.000Z</time>
      </trkpt>
      <trkpt lat="43.51875" lon="6.72976">
        <ele>187.4</ele>
        <time>2023-03-04T07:57:54.000Z</time>
      </trkpt>
      <trkpt lat="43.51876" lon="6.72976">
        <ele>187.5</ele>
        <time>2023-03-04T07:57:55.000Z</time>
      </trkpt>
      <trkpt lat="43.51876" lon="6.72975">
        <ele>187.5</ele>
        <time>2023-03-04T07:57:57.000Z</time>
      </trkpt>
      <trkpt lat="43.51877" lon="6.72975">
        <ele>187.6</ele>
        <time>2023-03-04T07:57:58.000Z</time>
      </trkpt>
      <trkpt lat="43.51877" lon="6.72974">
        <ele>187.6</ele>
        <time>2023-03-04T07:58:00.000Z</time>
      </trkpt>
      <trkpt lat="43.51878" lon="6.72974">
        <ele>187.6</ele>
        <time>2023-03-04T07:58:01.000Z</time>
      </trkpt>
      <trkpt lat="43.51878" lon="6.72974">
        <ele>187.7</ele>
        <time>2023-03-04T07:58:02.000Z</time>
      </trkpt>
      <trkpt lat="43.51879" lon="6.72973">
        <ele>187.7</ele>
        <time>2023-03-04T07:58:04.000Z</time>
      </trkpt>
      <trkpt lat="43.51879" lon="6.72973">
        <ele>187.8</ele>
        <time>2023-03-04T08:00:39.000Z</time>
      </trkpt>
      <trkpt lat="43.5188" lon="6.72972">
        <ele>187.8</ele>
        <time>2023-03-04T08:00:40.000Z</time>
      </trkpt>
      <trkpt lat="43.51881" lon="6.72972">
        <ele>187.9</ele>
        <time>2023-03-04T08:00:41.000Z</time>
      </trkpt>
      <trkpt lat="43.51883" lon="6.72969">
        <ele>188</ele>
        <time>2023-03-04T08:00:42.000Z</time>
      </trkpt>
      <trkpt lat="43.51884" lon="6.72968">
        <ele>188.2</ele>
        <time>2023-03-04T08:00:43.000Z</time>
      </trkpt>
      <trkpt lat="43.51885" lon="6.72967">
        <ele>188.3</ele>
        <time>2023-03-04T08:00:45.000Z</time>
      </trkpt>
      <trkpt lat="43.51888" lon="6.72963">
        <ele>188.5</ele>
        <time>2023-03-04T08:00:46.000Z</time>
      </trkpt>
      <trkpt lat="43.51891" lon="6.72957">
        <ele>188.9</ele>
        <time>2023-03-04T08:00:47.000Z</time>
      </trkpt>
      <trkpt lat="43.51894" lon="6.72953">
        <ele>189.2</ele>
        <time>2023-03-04T08:00:48.000Z</time>
      </trkpt>
      <trkpt lat="43.51896" lon="6.72949">
        <ele>189.5</ele>
        <time>2023-03-04T08:00:49.000Z</time>
      </trkpt>
      <trkpt lat="43.51899" lon="6.72945">
        <ele>189.8</ele>
        <time>2023-03-04T08:00:50.000Z</time>
      </trkpt>
      <trkpt lat="43.51901" lon="6.72941">
        <ele>190.1</ele>
        <time>2023-03-04T08:00:52.000Z</time>
      </trkpt>
      <trkpt lat="43.51903" lon="6.72938">
        <ele>190.5</ele>
        <time>2023-03-04T08:00:53.000Z</time>
      </trkpt>
      <trkpt lat="43.51906" lon="6.72934">
        <ele>190.9</ele>
        <time>2023-03-04T08:00:54.000Z</time>
      </trkpt>
      <trkpt lat="43.51908" lon="6.72932">
        <ele>191.2</ele>
        <time>2023-03-04T08:00:55.000Z</time>
      </trkpt>
      <trkpt lat="43.5191" lon="6.72928">
        <ele>191.6</ele>
        <time>2023-03-04T08:00:57.000Z</time>
      </trkpt>
      <trkpt lat="43.51912" lon="6.72925">
        <ele>192</ele>
        <time>2023-03-04T08:00:58.000Z</time>
      </trkpt>
      <trkpt lat="43.51914" lon="6.72922">
        <ele>192.6</ele>
        <time>2023-03-04T08:00:59.000Z</time>
      </trkpt>
      <trkpt lat="43.51915" lon="6.72921">
        <ele>192.7</ele>
        <time>2023-03-04T08:01:00.000Z</time>
      </trkpt>
      <trkpt lat="43.51915" lon="6.72918">
        <ele>192.8</ele>
        <time>2023-03-04T08:01:01.000Z</time>
      </trkpt>
      <trkpt lat="43.51914" lon="6.72918">
        <ele>192.9</ele>
        <time>2023-03-04T08:01:02.000Z</time>
      </trkpt>
      <trkpt lat="43.51913" lon="6.72918">
        <ele>193</ele>
        <time>2023-03-04T08:01:03.000Z</time>
      </trkpt>
      <trkpt lat="43.51912" lon="6.72917">
        <ele>193.1</ele>
        <time>2023-03-04T08:01:05.000Z</time>
      </trkpt>
      <trkpt lat="43.51911" lon="6.72917">
        <ele>193.2</ele>
        <time>2023-03-04T08:01:06.000Z</time>
      </trkpt>
      <trkpt lat="43.5191" lon="6.72917">
        <ele>193.2</ele>
        <time>2023-03-04T08:01:08.000Z</time>
      </trkpt>
      <trkpt lat="43.51909" lon="6.72917">
        <ele>193.3</ele>
        <time>2023-03-04T08:01:09.000Z</time>
      </trkpt>
      <trkpt lat="43.51908" lon="6.72917">
        <ele>193.4</ele>
        <time>2023-03-04T08:01:11.000Z</time>
      </trkpt>
      <trkpt lat="43.51907" lon="6.72916">
        <ele>193.5</ele>
        <time>2023-03-04T08:02:54.000Z</time>
      </trkpt>
      <trkpt lat="43.51906" lon="6.72916">
        <ele>193.6</ele>
        <time>2023-03-04T08:02:55.000Z</time>
      </trkpt>
      <trkpt lat="43.51901" lon="6.72915">
        <ele>194</ele>
        <time>2023-03-04T08:02:57.000Z</time>
      </trkpt>
      <trkpt lat="43.51897" lon="6.72914">
        <ele>194.3</ele>
        <time>2023-03-04T08:02:58.000Z</time>
      </trkpt>
      <trkpt lat="43.51893" lon="6.72913">
        <ele>194.7</ele>
        <time>2023-03-04T08:02:59.000Z</time>
      </trkpt>
      <trkpt lat="43.5189" lon="6.72912">
        <ele>195</ele>
        <time>2023-03-04T08:03:00.000Z</time>
      </trkpt>
      <trkpt lat="43.51887" lon="6.72911">
        <ele>195.3</ele>
        <time>2023-03-04T08:03:01.000Z</time>
      </trkpt>
      <trkpt lat="43.51885" lon="6.7291">
        <ele>195.6</ele>
        <time>2023-03-04T08:03:02.000Z</time>
      </trkpt>
      <trkpt lat="43.51882" lon="6.72907">
        <ele>196</ele>
        <time>2023-03-04T08:03:04.000Z</time>
      </trkpt>
      <trkpt lat="43.51879" lon="6.72905">
        <ele>196.4</ele>
        <time>2023-03-04T08:03:05.000Z</time>
      </trkpt>
      <trkpt lat="43.51876" lon="6.72901">
        <ele>196.9</ele>
        <time>2023-03-04T08:03:06.000Z</time>
      </trkpt>
      <trkpt lat="43.51875" lon="6.72897">
        <ele>197.2</ele>
        <time>2023-03-04T08:03:07.000Z</time>
      </trkpt>
      <trkpt lat="43.51872" lon="6.72894">
        <ele>197.7</ele>
        <time>2023-03-04T08:03:08.000Z</time>
      </trkpt>
      <trkpt lat="43.5187" lon="6.7289">
        <ele>198.1</ele>
        <time>2023-03-04T08:03:09.000Z</time>
      </trkpt>
      <trkpt lat="43.51868" lon="6.72887">
        <ele>198.5</ele>
        <time>2023-03-04T08:03:11.000Z</time>
      </trkpt>
      <trkpt lat="43.51866" lon="6.72883">
        <ele>198.9</ele>
        <time>2023-03-04T08:03:12.000Z</time>
      </trkpt>
      <trkpt lat="43.51864" lon="6.72878">
        <ele>199.4</ele>
        <time>2023-03-04T08:03:13.000Z</time>
      </trkpt>
      <trkpt lat="43.51863" lon="6.72876">
        <ele>199.6</ele>
        <time>2023-03-04T08:03:14.000Z</time>
      </trkpt>
      <trkpt lat="43.51862" lon="6.72873">
        <ele>200</ele>
        <time>2023-03-04T08:03:15.000Z</time>
      </trkpt>
      <trkpt lat="43.51862" lon="6.72868">
        <ele>200.4</ele>
        <time>2023-03-04T08:03:16.000Z</time>
      </trkpt>
      <trkpt lat="43.51862" lon="6.72863">
        <ele>200.7</ele>
        <time>2023-03-04T08:03:17.000Z</time>
      </trkpt>
      <trkpt lat="43.51863" lon="6.72859">
        <ele>201.1</ele>
        <time>2023-03-04T08:03:19.000Z</time>
      </trkpt>
      <trkpt lat="43.51865" lon="6.72854">
        <ele>201.5</ele>
        <time>2023-03-04T08:03:20.000Z</time>
      </trkpt>
      <trkpt lat="43.51867" lon="6.72849">
        <ele>201.8</ele>
        <time>2023-03-04T08:03:21.000Z</time>
      </trkpt>
      <trkpt lat="43.51869" lon="6.72846">
        <ele>202.2</ele>
        <time>2023-03-04T08:03:22.000Z</time>
      </trkpt>
      <trkpt lat="43.51873" lon="6.72842">
        <ele>202.6</ele>
        <time>2023-03-04T08:03:23.000Z</time>
      </trkpt>
      <trkpt lat="43.51874" lon="6.7284">
        <ele>202.8</ele>
        <time>2023-03-04T08:03:24.000Z</time>
      </trkpt>
      <trkpt lat="43.51877" lon="6.72837">
        <ele>203.1</ele>
        <time>2023-03-04T08:03:25.000Z</time>
      </trkpt>
      <trkpt lat="43.51881" lon="6.72834">
        <ele>203.5</ele>
        <time>2023-03-04T08:03:27.000Z</time>
      </trkpt>
      <trkpt lat="43.51884" lon="6.72832">
        <ele>203.8</ele>
        <time>2023-03-04T08:03:28.000Z</time>
      </trkpt>
      <trkpt lat="43.51887" lon="6.7283">
        <ele>204.2</ele>
        <time>2023-03-04T08:03:29.000Z</time>
      </trkpt>
      <trkpt lat="43.51891" lon="6.72828">
        <ele>204.5</ele>
        <time>2023-03-04T08:03:30.000Z</time>
      </trkpt>
      <trkpt lat="43.51893" lon="6.72827">
        <ele>204.7</ele>
        <time>2023-03-04T08:03:31.000Z</time>
      </trkpt>
      <trkpt lat="43.51896" lon="6.72825">
        <ele>205</ele>
        <time>2023-03-04T08:03:33.000Z</time>
      </trkpt>
      <trkpt lat="43.51899" lon="6.72823">
        <ele>205.4</ele>
        <time>2023-03-04T08:03:34.000Z</time>
      </trkpt>
      <trkpt lat="43.51901" lon="6.72821">
        <ele>205.7</ele>
        <time>2023-03-04T08:03:35.000Z</time>
      </trkpt>
      <trkpt lat="43.51905" lon="6.72818">
        <ele>206.1</ele>
        <time>2023-03-04T08:03:36.000Z</time>
      </trkpt>
      <trkpt lat="43.51907" lon="6.72817">
        <ele>206.4</ele>
        <time>2023-03-04T08:03:37.000Z</time>
      </trkpt>
      <trkpt lat="43.51911" lon="6.72814">
        <ele>206.8</ele>
        <time>2023-03-04T08:03:38.000Z</time>
      </trkpt>
      <trkpt lat="43.51917" lon="6.72812">
        <ele>207.6</ele>
        <time>2023-03-04T08:03:40.000Z</time>
      </trkpt>
      <trkpt lat="43.5192" lon="6.72811">
        <ele>208</ele>
        <time>2023-03-04T08:03:41.000Z</time>
      </trkpt>
      <trkpt lat="43.51924" lon="6.7281">
        <ele>208.5</ele>
        <time>2023-03-04T08:03:42.000Z</time>
      </trkpt>
      <trkpt lat="43.51926" lon="6.7281">
        <ele>208.9</ele>
        <time>2023-03-04T08:03:43.000Z</time>
      </trkpt>
      <trkpt lat="43.5193" lon="6.72809">
        <ele>209.3</ele>
        <time>2023-03-04T08:03:45.000Z</time>
      </trkpt>
      <trkpt lat="43.51933" lon="6.72808">
        <ele>209.9</ele>
        <time>2023-03-04T08:03:46.000Z</time>
      </trkpt>
      <trkpt lat="43.51937" lon="6.72806">
        <ele>210.5</ele>
        <time>2023-03-04T08:03:47.000Z</time>
      </trkpt>
      <trkpt lat="43.51939" lon="6.72806">
        <ele>210.7</ele>
        <time>2023-03-04T08:03:48.000Z</time>
      </trkpt>
      <trkpt lat="43.51942" lon="6.72804">
        <ele>211.2</ele>
        <time>2023-03-04T08:03:49.000Z</time>
      </trkpt>
      <trkpt lat="43.51945" lon="6.72804">
        <ele>211.6</ele>
        <time>2023-03-04T08:03:50.000Z</time>
      </trkpt>
      <trkpt lat="43.51949" lon="6.72803">
        <ele>212.1</ele>
        <time>2023-03-04T08:03:51.000Z</time>
      </trkpt>
      <trkpt lat="43.51953" lon="6.72802">
        <ele>212.6</ele>
        <time>2023-03-04T08:03:53.000Z</time>
      </trkpt>
      <trkpt lat="43.51956" lon="6.72801">
        <ele>213</ele>
        <time>2023-03-04T08:03:54.000Z</time>
      </trkpt>
      <trkpt lat="43.51959" lon="6.728">
        <ele>213.5</ele>
        <time>2023-03-04T08:03:55.000Z</time>
      </trkpt>
      <trkpt lat="43.51963" lon="6.72799">
        <ele>214</ele>
        <time>2023-03-04T08:03:56.000Z</time>
      </trkpt>
      <trkpt lat="43.51964" lon="6.72798">
        <ele>214.2</ele>
        <time>2023-03-04T08:03:57.000Z</time>
      </trkpt>
      <trkpt lat="43.51967" lon="6.72797">
        <ele>214.6</ele>
        <time>2023-03-04T08:03:58.000Z</time>
      </trkpt>
      <trkpt lat="43.51969" lon="6.72795">
        <ele>215</ele>
        <time>2023-03-04T08:03:59.000Z</time>
      </trkpt>
      <trkpt lat="43.51971" lon="6.72793">
        <ele>215.4</ele>
        <time>2023-03-04T08:04:01.000Z</time>
      </trkpt>
      <trkpt lat="43.51973" lon="6.72789">
        <ele>215.9</ele>
        <time>2023-03-04T08:04:02.000Z</time>
      </trkpt>
      <trkpt lat="43.51974" lon="6.72785">
        <ele>216.4</ele>
        <time>2023-03-04T08:04:03.000Z</time>
      </trkpt>
      <trkpt lat="43.51976" lon="6.72782">
        <ele>216.8</ele>
        <time>2023-03-04T08:04:04.000Z</time>
      </trkpt>
      <trkpt lat="43.51975" lon="6.72777">
        <ele>217.3</ele>
        <time>2023-03-04T08:04:05.000Z</time>
      </trkpt>
      <trkpt lat="43.51975" lon="6.72775">
        <ele>217.5</ele>
        <time>2023-03-04T08:04:06.000Z</time>
      </trkpt>
      <trkpt lat="43.51973" lon="6.72774">
        <ele>217.8</ele>
        <time>2023-03-04T08:04:07.000Z</time>
      </trkpt>
      <trkpt lat="43.5197" lon="6.72774">
        <ele>219.1</ele>
        <time>2023-03-04T08:04:09.000Z</time>
      </trkpt>
      <trkpt lat="43.51967" lon="6.72775">
        <ele>219</ele>
        <time>2023-03-04T08:04:10.000Z</time>
      </trkpt>
      <trkpt lat="43.51963" lon="6.72776">
        <ele>219</ele>
        <time>2023-03-04T08:04:11.000Z</time>
      </trkpt>
      <trkpt lat="43.51959" lon="6.72778">
        <ele>219</ele>
        <time>2023-03-04T08:04:12.000Z</time>
      </trkpt>
      <trkpt lat="43.51955" lon="6.72778">
        <ele>219</ele>
        <time>2023-03-04T08:04:13.000Z</time>
      </trkpt>
      <trkpt lat="43.51951" lon="6.72777">
        <ele>218.9</ele>
        <time>2023-03-04T08:04:15.000Z</time>
      </trkpt>
      <trkpt lat="43.51947" lon="6.72774">
        <ele>218.9</ele>
        <time>2023-03-04T08:04:16.000Z</time>
      </trkpt>
      <trkpt lat="43.51943" lon="6.72769">
        <ele>218.8</ele>
        <time>2023-03-04T08:04:17.000Z</time>
      </trkpt>
      <trkpt lat="43.5194" lon="6.72765">
        <ele>218.8</ele>
        <time>2023-03-04T08:04:18.000Z</time>
      </trkpt>
      <trkpt lat="43.51937" lon="6.7276">
        <ele>218.7</ele>
        <time>2023-03-04T08:04:19.000Z</time>
      </trkpt>
      <trkpt lat="43.51935" lon="6.72756">
        <ele>218.7</ele>
        <time>2023-03-04T08:04:21.000Z</time>
      </trkpt>
      <trkpt lat="43.51932" lon="6.72751">
        <ele>218.6</ele>
        <time>2023-03-04T08:04:22.000Z</time>
      </trkpt>
      <trkpt lat="43.5193" lon="6.72747">
        <ele>218.6</ele>
        <time>2023-03-04T08:04:23.000Z</time>
      </trkpt>
      <trkpt lat="43.5193" lon="6.72743">
        <ele>218.6</ele>
        <time>2023-03-04T08:04:24.000Z</time>
      </trkpt>
      <trkpt lat="43.5193" lon="6.72741">
        <ele>218.5</ele>
        <time>2023-03-04T08:04:25.000Z</time>
      </trkpt>
      <trkpt lat="43.51931" lon="6.72739">
        <ele>218.5</ele>
        <time>2023-03-04T08:04:26.000Z</time>
      </trkpt>
      <trkpt lat="43.51932" lon="6.72738">
        <ele>218.5</ele>
        <time>2023-03-04T08:04:27.000Z</time>
      </trkpt>
      <trkpt lat="43.51934" lon="6.72738">
        <ele>218.5</ele>
        <time>2023-03-04T08:04:28.000Z</time>
      </trkpt>
      <trkpt lat="43.51935" lon="6.7274">
        <ele>218.5</ele>
        <time>2023-03-04T08:04:30.000Z</time>
      </trkpt>
      <trkpt lat="43.51936" lon="6.72741">
        <ele>218.4</ele>
        <time>2023-03-04T08:04:31.000Z</time>
      </trkpt>
      <trkpt lat="43.51937" lon="6.72742">
        <ele>218.4</ele>
        <time>2023-03-04T08:04:32.000Z</time>
      </trkpt>
      <trkpt lat="43.51937" lon="6.72744">
        <ele>218.4</ele>
        <time>2023-03-04T08:04:33.000Z</time>
      </trkpt>
      <trkpt lat="43.51936" lon="6.72746">
        <ele>218.4</ele>
        <time>2023-03-04T08:04:34.000Z</time>
      </trkpt>
      <trkpt lat="43.51936" lon="6.72746">
        <ele>218.4</ele>
        <time>2023-03-04T08:04:35.000Z</time>
      </trkpt>
      <trkpt lat="43.51936" lon="6.72746">
        <ele>218.4</ele>
        <time>2023-03-04T08:04:37.000Z</time>
      </trkpt>
      <trkpt lat="43.51936" lon="6.72746">
        <ele>218.4</ele>
        <time>2023-03-04T08:04:38.000Z</time>
      </trkpt>
      <trkpt lat="43.51936" lon="6.72745">
        <ele>218.4</ele>
        <time>2023-03-04T08:04:40.000Z</time>
      </trkpt>
      <trkpt lat="43.51936" lon="6.72745">
        <ele>218.4</ele>
        <time>2023-03-04T08:04:41.000Z</time>
      </trkpt>
      <trkpt lat="43.51935" lon="6.72745">
        <ele>218.4</ele>
        <time>2023-03-04T08:04:43.000Z</time>
      </trkpt>
      <trkpt lat="43.51935" lon="6.72745">
        <ele>218.4</ele>
        <time>2023-03-04T08:04:44.000Z</time>
      </trkpt>
      <trkpt lat="43.51932" lon="6.72741">
        <ele>218.3</ele>
        <time>2023-03-04T08:07:25.000Z</time>
      </trkpt>
      <trkpt lat="43.51932" lon="6.72739">
        <ele>218.3</ele>
        <time>2023-03-04T08:07:26.000Z</time>
      </trkpt>
      <trkpt lat="43.51933" lon="6.72737">
        <ele>218.2</ele>
        <time>2023-03-04T08:07:27.000Z</time>
      </trkpt>
      <trkpt lat="43.51933" lon="6.72732">
        <ele>218.2</ele>
        <time>2023-03-04T08:07:28.000Z</time>
      </trkpt>
      <trkpt lat="43.51934" lon="6.72731">
        <ele>218.2</ele>
        <time>2023-03-04T08:07:29.000Z</time>
      </trkpt>
      <trkpt lat="43.51934" lon="6.72726">
        <ele>218.1</ele>
        <time>2023-03-04T08:07:30.000Z</time>
      </trkpt>
      <trkpt lat="43.51934" lon="6.72722">
        <ele>218.1</ele>
        <time>2023-03-04T08:07:31.000Z</time>
      </trkpt>
      <trkpt lat="43.51931" lon="6.72718">
        <ele>218</ele>
        <time>2023-03-04T08:07:33.000Z</time>
      </trkpt>
      <trkpt lat="43.51929" lon="6.72714">
        <ele>218</ele>
        <time>2023-03-04T08:07:34.000Z</time>
      </trkpt>
      <trkpt lat="43.51927" lon="6.72707">
        <ele>217.9</ele>
        <time>2023-03-04T08:07:35.000Z</time>
      </trkpt>
      <trkpt lat="43.51922" lon="6.72698">
        <ele>217.9</ele>
        <time>2023-03-04T08:07:37.000Z</time>
      </trkpt>
      <trkpt lat="43.51919" lon="6.72692">
        <ele>217.9</ele>
        <time>2023-03-04T08:07:38.000Z</time>
      </trkpt>
      <trkpt lat="43.51916" lon="6.72686">
        <ele>217.8</ele>
        <time>2023-03-04T08:07:39.000Z</time>
      </trkpt>
      <trkpt lat="43.51913" lon="6.72682">
        <ele>217.8</ele>
        <time>2023-03-04T08:07:40.000Z</time>
      </trkpt>
      <trkpt lat="43.51909" lon="6.72673">
        <ele>217.8</ele>
        <time>2023-03-04T08:07:42.000Z</time>
      </trkpt>
      <trkpt lat="43.51906" lon="6.72668">
        <ele>217.8</ele>
        <time>2023-03-04T08:07:43.000Z</time>
      </trkpt>
      <trkpt lat="43.51904" lon="6.72664">
        <ele>217.8</ele>
        <time>2023-03-04T08:07:44.000Z</time>
      </trkpt>
      <trkpt lat="43.51901" lon="6.72659">
        <ele>217.8</ele>
        <time>2023-03-04T08:07:45.000Z</time>
      </trkpt>
      <trkpt lat="43.51897" lon="6.72651">
        <ele>217.8</ele>
        <time>2023-03-04T08:07:47.000Z</time>
      </trkpt>
      <trkpt lat="43.51895" lon="6.72647">
        <ele>217.9</ele>
        <time>2023-03-04T08:07:48.000Z</time>
      </trkpt>
      <trkpt lat="43.51892" lon="6.72641">
        <ele>217.9</ele>
        <time>2023-03-04T08:07:50.000Z</time>
      </trkpt>
      <trkpt lat="43.51889" lon="6.72635">
        <ele>218</ele>
        <time>2023-03-04T08:07:51.000Z</time>
      </trkpt>
      <trkpt lat="43.51886" lon="6.7263">
        <ele>218.1</ele>
        <time>2023-03-04T08:07:52.000Z</time>
      </trkpt>
      <trkpt lat="43.51884" lon="6.72624">
        <ele>218.1</ele>
        <time>2023-03-04T08:07:53.000Z</time>
      </trkpt>
      <trkpt lat="43.51881" lon="6.7262">
        <ele>218.2</ele>
        <time>2023-03-04T08:07:54.000Z</time>
      </trkpt>
      <trkpt lat="43.51878" lon="6.72614">
        <ele>218.3</ele>
        <time>2023-03-04T08:07:56.000Z</time>
      </trkpt>
      <trkpt lat="43.51874" lon="6.72606">
        <ele>218.5</ele>
        <time>2023-03-04T08:07:57.000Z</time>
      </trkpt>
      <trkpt lat="43.51871" lon="6.72601">
        <ele>218.6</ele>
        <time>2023-03-04T08:07:58.000Z</time>
      </trkpt>
      <trkpt lat="43.51868" lon="6.72595">
        <ele>218.8</ele>
        <time>2023-03-04T08:08:00.000Z</time>
      </trkpt>
      <trkpt lat="43.51865" lon="6.72589">
        <ele>218.9</ele>
        <time>2023-03-04T08:08:01.000Z</time>
      </trkpt>
      <trkpt lat="43.51863" lon="6.72584">
        <ele>219</ele>
        <time>2023-03-04T08:08:02.000Z</time>
      </trkpt>
      <trkpt lat="43.51859" lon="6.72577">
        <ele>219.2</ele>
        <time>2023-03-04T08:08:03.000Z</time>
      </trkpt>
      <trkpt lat="43.51857" lon="6.72573">
        <ele>219.3</ele>
        <time>2023-03-04T08:08:04.000Z</time>
      </trkpt>
      <trkpt lat="43.51854" lon="6.72567">
        <ele>219.5</ele>
        <time>2023-03-04T08:08:05.000Z</time>
      </trkpt>
      <trkpt lat="43.51851" lon="6.72561">
        <ele>219.6</ele>
        <time>2023-03-04T08:08:06.000Z</time>
      </trkpt>
      <trkpt lat="43.51849" lon="6.72555">
        <ele>219.8</ele>
        <time>2023-03-04T08:08:07.000Z</time>
      </trkpt>
      <trkpt lat="43.51847" lon="6.72549">
        <ele>219.9</ele>
        <time>2023-03-04T08:08:08.000Z</time>
      </trkpt>
      <trkpt lat="43.51846" lon="6.72543">
        <ele>220</ele>
        <time>2023-03-04T08:08:09.000Z</time>
      </trkpt>
      <trkpt lat="43.51845" lon="6.72534">
        <ele>220.2</ele>
        <time>2023-03-04T08:08:11.000Z</time>
      </trkpt>
      <trkpt lat="43.51845" lon="6.7253">
        <ele>220.3</ele>
        <time>2023-03-04T08:08:12.000Z</time>
      </trkpt>
      <trkpt lat="43.51845" lon="6.72521">
        <ele>220.5</ele>
        <time>2023-03-04T08:08:13.000Z</time>
      </trkpt>
      <trkpt lat="43.51846" lon="6.72509">
        <ele>220.7</ele>
        <time>2023-03-04T08:08:15.000Z</time>
      </trkpt>
      <trkpt lat="43.51848" lon="6.72503">
        <ele>220.9</ele>
        <time>2023-03-04T08:08:16.000Z</time>
      </trkpt>
      <trkpt lat="43.51851" lon="6.72491">
        <ele>221.1</ele>
        <time>2023-03-04T08:08:18.000Z</time>
      </trkpt>
      <trkpt lat="43.51852" lon="6.72485">
        <ele>221.3</ele>
        <time>2023-03-04T08:08:19.000Z</time>
      </trkpt>
      <trkpt lat="43.51854" lon="6.72478">
        <ele>221.4</ele>
        <time>2023-03-04T08:08:20.000Z</time>
      </trkpt>
      <trkpt lat="43.51856" lon="6.72473">
        <ele>221.5</ele>
        <time>2023-03-04T08:08:21.000Z</time>
      </trkpt>
      <trkpt lat="43.51858" lon="6.72467">
        <ele>221.7</ele>
        <time>2023-03-04T08:08:22.000Z</time>
      </trkpt>
      <trkpt lat="43.51859" lon="6.72461">
        <ele>221.8</ele>
        <time>2023-03-04T08:08:23.000Z</time>
      </trkpt>
      <trkpt lat="43.51861" lon="6.72455">
        <ele>221.9</ele>
        <time>2023-03-04T08:08:24.000Z</time>
      </trkpt>
      <trkpt lat="43.51862" lon="6.72451">
        <ele>221.9</ele>
        <time>2023-03-04T08:08:25.000Z</time>
      </trkpt>
      <trkpt lat="43.51863" lon="6.7244">
        <ele>222.1</ele>
        <time>2023-03-04T08:08:27.000Z</time>
      </trkpt>
      <trkpt lat="43.51864" lon="6.72433">
        <ele>222.2</ele>
        <time>2023-03-04T08:08:28.000Z</time>
      </trkpt>
      <trkpt lat="43.51864" lon="6.72427">
        <ele>222.3</ele>
        <time>2023-03-04T08:08:29.000Z</time>
      </trkpt>
      <trkpt lat="43.51864" lon="6.7242">
        <ele>222.4</ele>
        <time>2023-03-04T08:08:30.000Z</time>
      </trkpt>
      <trkpt lat="43.51864" lon="6.72413">
        <ele>222.5</ele>
        <time>2023-03-04T08:08:31.000Z</time>
      </trkpt>
      <trkpt lat="43.51864" lon="6.72406">
        <ele>222.6</ele>
        <time>2023-03-04T08:08:32.000Z</time>
      </trkpt>
      <trkpt lat="43.51864" lon="6.72399">
        <ele>222.7</ele>
        <time>2023-03-04T08:08:33.000Z</time>
      </trkpt>
      <trkpt lat="43.51863" lon="6.72393">
        <ele>222.8</ele>
        <time>2023-03-04T08:08:34.000Z</time>
      </trkpt>
      <trkpt lat="43.51863" lon="6.72386">
        <ele>222.9</ele>
        <time>2023-03-04T08:08:35.000Z</time>
      </trkpt>
      <trkpt lat="43.51862" lon="6.72379">
        <ele>223</ele>
        <time>2023-03-04T08:08:36.000Z</time>
      </trkpt>
      <trkpt lat="43.5186" lon="6.72372">
        <ele>223.1</ele>
        <time>2023-03-04T08:08:37.000Z</time>
      </trkpt>
      <trkpt lat="43.51858" lon="6.72366">
        <ele>223.2</ele>
        <time>2023-03-04T08:08:38.000Z</time>
      </trkpt>
      <trkpt lat="43.51856" lon="6.72359">
        <ele>223.3</ele>
        <time>2023-03-04T08:08:39.000Z</time>
      </trkpt>
      <trkpt lat="43.51854" lon="6.72354">
        <ele>223.4</ele>
        <time>2023-03-04T08:08:40.000Z</time>
      </trkpt>
      <trkpt lat="43.51852" lon="6.72349">
        <ele>223.5</ele>
        <time>2023-03-04T08:08:41.000Z</time>
      </trkpt>
      <trkpt lat="43.51849" lon="6.72344">
        <ele>223.5</ele>
        <time>2023-03-04T08:08:42.000Z</time>
      </trkpt>
      <trkpt lat="43.51847" lon="6.72341">
        <ele>223.6</ele>
        <time>2023-03-04T08:08:43.000Z</time>
      </trkpt>
      <trkpt lat="43.51845" lon="6.72336">
        <ele>223.6</ele>
        <time>2023-03-04T08:08:44.000Z</time>
      </trkpt>
      <trkpt lat="43.51842" lon="6.72333">
        <ele>223.7</ele>
        <time>2023-03-04T08:08:45.000Z</time>
      </trkpt>
      <trkpt lat="43.5184" lon="6.72329">
        <ele>223.7</ele>
        <time>2023-03-04T08:08:46.000Z</time>
      </trkpt>
      <trkpt lat="43.51837" lon="6.72325">
        <ele>223.8</ele>
        <time>2023-03-04T08:08:47.000Z</time>
      </trkpt>
      <trkpt lat="43.51834" lon="6.72321">
        <ele>224.3</ele>
        <time>2023-03-04T08:08:48.000Z</time>
      </trkpt>
      <trkpt lat="43.51831" lon="6.72316">
        <ele>224.7</ele>
        <time>2023-03-04T08:08:50.000Z</time>
      </trkpt>
      <trkpt lat="43.51829" lon="6.72312">
        <ele>225</ele>
        <time>2023-03-04T08:08:51.000Z</time>
      </trkpt>
      <trkpt lat="43.5183" lon="6.72306">
        <ele>225.4</ele>
        <time>2023-03-04T08:08:52.000Z</time>
      </trkpt>
      <trkpt lat="43.51834" lon="6.72304">
        <ele>225.9</ele>
        <time>2023-03-04T08:08:53.000Z</time>
      </trkpt>
      <trkpt lat="43.51838" lon="6.72302">
        <ele>226.2</ele>
        <time>2023-03-04T08:08:54.000Z</time>
      </trkpt>
      <trkpt lat="43.51846" lon="6.72304">
        <ele>226.9</ele>
        <time>2023-03-04T08:08:56.000Z</time>
      </trkpt>
      <trkpt lat="43.51849" lon="6.72308">
        <ele>227.3</ele>
        <time>2023-03-04T08:08:57.000Z</time>
      </trkpt>
      <trkpt lat="43.51853" lon="6.72312">
        <ele>227.7</ele>
        <time>2023-03-04T08:08:58.000Z</time>
      </trkpt>
      <trkpt lat="43.51858" lon="6.7232">
        <ele>228.5</ele>
        <time>2023-03-04T08:09:00.000Z</time>
      </trkpt>
      <trkpt lat="43.51861" lon="6.72324">
        <ele>228.8</ele>
        <time>2023-03-04T08:09:01.000Z</time>
      </trkpt>
      <trkpt lat="43.51864" lon="6.72328">
        <ele>229.3</ele>
        <time>2023-03-04T08:09:02.000Z</time>
      </trkpt>
      <trkpt lat="43.51866" lon="6.72333">
        <ele>229.7</ele>
        <time>2023-03-04T08:09:04.000Z</time>
      </trkpt>
      <trkpt lat="43.51869" lon="6.72337">
        <ele>230.1</ele>
        <time>2023-03-04T08:09:05.000Z</time>
      </trkpt>
      <trkpt lat="43.51873" lon="6.72342">
        <ele>230.6</ele>
        <time>2023-03-04T08:09:06.000Z</time>
      </trkpt>
      <trkpt lat="43.51874" lon="6.72346">
        <ele>231</ele>
        <time>2023-03-04T08:09:07.000Z</time>
      </trkpt>
      <trkpt lat="43.51876" lon="6.72351">
        <ele>231.4</ele>
        <time>2023-03-04T08:09:08.000Z</time>
      </trkpt>
      <trkpt lat="43.51879" lon="6.72357">
        <ele>231.9</ele>
        <time>2023-03-04T08:09:10.000Z</time>
      </trkpt>
      <trkpt lat="43.5188" lon="6.72361">
        <ele>232.2</ele>
        <time>2023-03-04T08:09:11.000Z</time>
      </trkpt>
      <trkpt lat="43.51882" lon="6.72365">
        <ele>232.6</ele>
        <time>2023-03-04T08:09:12.000Z</time>
      </trkpt>
      <trkpt lat="43.51885" lon="6.72372">
        <ele>233.2</ele>
        <time>2023-03-04T08:09:14.000Z</time>
      </trkpt>
      <trkpt lat="43.51887" lon="6.72377">
        <ele>233.6</ele>
        <time>2023-03-04T08:09:15.000Z</time>
      </trkpt>
      <trkpt lat="43.5189" lon="6.72383">
        <ele>234.1</ele>
        <time>2023-03-04T08:09:17.000Z</time>
      </trkpt>
      <trkpt lat="43.51892" lon="6.72387">
        <ele>234.4</ele>
        <time>2023-03-04T08:09:18.000Z</time>
      </trkpt>
      <trkpt lat="43.51894" lon="6.72391">
        <ele>234.8</ele>
        <time>2023-03-04T08:09:19.000Z</time>
      </trkpt>
      <trkpt lat="43.51897" lon="6.72398">
        <ele>235.3</ele>
        <time>2023-03-04T08:09:21.000Z</time>
      </trkpt>
      <trkpt lat="43.51898" lon="6.72401">
        <ele>235.6</ele>
        <time>2023-03-04T08:09:22.000Z</time>
      </trkpt>
      <trkpt lat="43.51901" lon="6.72408">
        <ele>236.2</ele>
        <time>2023-03-04T08:09:24.000Z</time>
      </trkpt>
      <trkpt lat="43.51903" lon="6.72412">
        <ele>236.5</ele>
        <time>2023-03-04T08:09:25.000Z</time>
      </trkpt>
      <trkpt lat="43.51905" lon="6.72416">
        <ele>236.9</ele>
        <time>2023-03-04T08:09:26.000Z</time>
      </trkpt>
      <trkpt lat="43.51906" lon="6.7242">
        <ele>237.2</ele>
        <time>2023-03-04T08:09:28.000Z</time>
      </trkpt>
      <trkpt lat="43.51908" lon="6.72424">
        <ele>237.6</ele>
        <time>2023-03-04T08:09:29.000Z</time>
      </trkpt>
      <trkpt lat="43.51911" lon="6.7243">
        <ele>238.1</ele>
        <time>2023-03-04T08:09:30.000Z</time>
      </trkpt>
      <trkpt lat="43.51914" lon="6.72437">
        <ele>238.8</ele>
        <time>2023-03-04T08:09:32.000Z</time>
      </trkpt>
      <trkpt lat="43.51915" lon="6.7244">
        <ele>239</ele>
        <time>2023-03-04T08:09:33.000Z</time>
      </trkpt>
      <trkpt lat="43.51917" lon="6.72446">
        <ele>239.5</ele>
        <time>2023-03-04T08:09:35.000Z</time>
      </trkpt>
      <trkpt lat="43.51919" lon="6.7245">
        <ele>240</ele>
        <time>2023-03-04T08:09:36.000Z</time>
      </trkpt>
      <trkpt lat="43.51922" lon="6.72456">
        <ele>240.6</ele>
        <time>2023-03-04T08:09:38.000Z</time>
      </trkpt>
      <trkpt lat="43.51924" lon="6.7246">
        <ele>240.9</ele>
        <time>2023-03-04T08:09:39.000Z</time>
      </trkpt>
      <trkpt lat="43.51926" lon="6.72463">
        <ele>241.3</ele>
        <time>2023-03-04T08:09:40.000Z</time>
      </trkpt>
      <trkpt lat="43.51928" lon="6.7247">
        <ele>241.9</ele>
        <time>2023-03-04T08:09:42.000Z</time>
      </trkpt>
      <trkpt lat="43.5193" lon="6.72474">
        <ele>242.3</ele>
        <time>2023-03-04T08:09:43.000Z</time>
      </trkpt>
      <trkpt lat="43.51932" lon="6.7248">
        <ele>242.9</ele>
        <time>2023-03-04T08:09:45.000Z</time>
      </trkpt>
      <trkpt lat="43.51933" lon="6.72485">
        <ele>243.3</ele>
        <time>2023-03-04T08:09:46.000Z</time>
      </trkpt>
      <trkpt lat="43.51933" lon="6.72486">
        <ele>243.4</ele>
        <time>2023-03-04T08:09:47.000Z</time>
      </trkpt>
      <trkpt lat="43.51934" lon="6.7249">
        <ele>243.8</ele>
        <time>2023-03-04T08:09:49.000Z</time>
      </trkpt>
      <trkpt lat="43.51934" lon="6.72492">
        <ele>243.9</ele>
        <time>2023-03-04T08:09:50.000Z</time>
      </trkpt>
      <trkpt lat="43.51935" lon="6.72496">
        <ele>244.3</ele>
        <time>2023-03-04T08:09:51.000Z</time>
      </trkpt>
      <trkpt lat="43.51937" lon="6.725">
        <ele>244.8</ele>
        <time>2023-03-04T08:09:52.000Z</time>
      </trkpt>
      <trkpt lat="43.51937" lon="6.72502">
        <ele>245</ele>
        <time>2023-03-04T08:09:53.000Z</time>
      </trkpt>
      <trkpt lat="43.51938" lon="6.72506">
        <ele>245.3</ele>
        <time>2023-03-04T08:09:54.000Z</time>
      </trkpt>
      <trkpt lat="43.5194" lon="6.7251">
        <ele>245.7</ele>
        <time>2023-03-04T08:09:56.000Z</time>
      </trkpt>
      <trkpt lat="43.51942" lon="6.72514">
        <ele>246.2</ele>
        <time>2023-03-04T08:09:57.000Z</time>
      </trkpt>
      <trkpt lat="43.51943" lon="6.72516">
        <ele>246.3</ele>
        <time>2023-03-04T08:09:58.000Z</time>
      </trkpt>
      <trkpt lat="43.51944" lon="6.72519">
        <ele>246.7</ele>
        <time>2023-03-04T08:09:59.000Z</time>
      </trkpt>
      <trkpt lat="43.51947" lon="6.72522">
        <ele>246.7</ele>
        <time>2023-03-04T08:10:00.000Z</time>
      </trkpt>
      <trkpt lat="43.51947" lon="6.72522">
        <ele>246.7</ele>
        <time>2023-03-04T08:10:01.000Z</time>
      </trkpt>
      <trkpt lat="43.51951" lon="6.72523">
        <ele>246.5</ele>
        <time>2023-03-04T08:10:02.000Z</time>
      </trkpt>
      <trkpt lat="43.51952" lon="6.72523">
        <ele>246.4</ele>
        <time>2023-03-04T08:10:03.000Z</time>
      </trkpt>
      <trkpt lat="43.51955" lon="6.72523">
        <ele>246.2</ele>
        <time>2023-03-04T08:10:05.000Z</time>
      </trkpt>
      <trkpt lat="43.51957" lon="6.72522">
        <ele>246.1</ele>
        <time>2023-03-04T08:10:06.000Z</time>
      </trkpt>
      <trkpt lat="43.51957" lon="6.72521">
        <ele>246.1</ele>
        <time>2023-03-04T08:10:08.000Z</time>
      </trkpt>
      <trkpt lat="43.51958" lon="6.72521">
        <ele>246</ele>
        <time>2023-03-04T08:10:09.000Z</time>
      </trkpt>
      <trkpt lat="43.51958" lon="6.7252">
        <ele>246</ele>
        <time>2023-03-04T08:10:10.000Z</time>
      </trkpt>
      <trkpt lat="43.51958" lon="6.7252">
        <ele>246</ele>
        <time>2023-03-04T08:10:11.000Z</time>
      </trkpt>
      <trkpt lat="43.51958" lon="6.7252">
        <ele>246</ele>
        <time>2023-03-04T08:10:12.000Z</time>
      </trkpt>
      <trkpt lat="43.51958" lon="6.7252">
        <ele>246</ele>
        <time>2023-03-04T08:10:14.000Z</time>
      </trkpt>
      <trkpt lat="43.51958" lon="6.7252">
        <ele>246</ele>
        <time>2023-03-04T08:10:15.000Z</time>
      </trkpt>
      <trkpt lat="43.51958" lon="6.7252">
        <ele>246</ele>
        <time>2023-03-04T08:10:17.000Z</time>
      </trkpt>
      <trkpt lat="43.51959" lon="6.7252">
        <ele>246</ele>
        <time>2023-03-04T08:10:18.000Z</time>
      </trkpt>
      <trkpt lat="43.5196" lon="6.7252">
        <ele>245.9</ele>
        <time>2023-03-04T08:10:20.000Z</time>
      </trkpt>
      <trkpt lat="43.5196" lon="6.72521">
        <ele>245.9</ele>
        <time>2023-03-04T08:10:21.000Z</time>
      </trkpt>
      <trkpt lat="43.5196" lon="6.72522">
        <ele>245.9</ele>
        <time>2023-03-04T08:10:22.000Z</time>
      </trkpt>
      <trkpt lat="43.51961" lon="6.72526">
        <ele>245.8</ele>
        <time>2023-03-04T08:10:23.000Z</time>
      </trkpt>
      <trkpt lat="43.51962" lon="6.72528">
        <ele>245.8</ele>
        <time>2023-03-04T08:10:24.000Z</time>
      </trkpt>
      <trkpt lat="43.51961" lon="6.72534">
        <ele>245.9</ele>
        <time>2023-03-04T08:10:25.000Z</time>
      </trkpt>
      <trkpt lat="43.51962" lon="6.72539">
        <ele>246</ele>
        <time>2023-03-04T08:10:26.000Z</time>
      </trkpt>
      <trkpt lat="43.51962" lon="6.72544">
        <ele>246.3</ele>
        <time>2023-03-04T08:10:27.000Z</time>
      </trkpt>
      <trkpt lat="43.51963" lon="6.72551">
        <ele>246.8</ele>
        <time>2023-03-04T08:10:29.000Z</time>
      </trkpt>
      <trkpt lat="43.51963" lon="6.72554">
        <ele>247.1</ele>
        <time>2023-03-04T08:10:30.000Z</time>
      </trkpt>
      <trkpt lat="43.51964" lon="6.72557">
        <ele>247.3</ele>
        <time>2023-03-04T08:10:31.000Z</time>
      </trkpt>
      <trkpt lat="43.51966" lon="6.7256">
        <ele>247.7</ele>
        <time>2023-03-04T08:10:32.000Z</time>
      </trkpt>
      <trkpt lat="43.51967" lon="6.72561">
        <ele>247.9</ele>
        <time>2023-03-04T08:10:33.000Z</time>
      </trkpt>
      <trkpt lat="43.51969" lon="6.72565">
        <ele>248.4</ele>
        <time>2023-03-04T08:10:34.000Z</time>
      </trkpt>
      <trkpt lat="43.5197" lon="6.72565">
        <ele>248.5</ele>
        <time>2023-03-04T08:10:35.000Z</time>
      </trkpt>
      <trkpt lat="43.51973" lon="6.72568">
        <ele>249</ele>
        <time>2023-03-04T08:10:37.000Z</time>
      </trkpt>
      <trkpt lat="43.51974" lon="6.72569">
        <ele>249.2</ele>
        <time>2023-03-04T08:10:38.000Z</time>
      </trkpt>
      <trkpt lat="43.51976" lon="6.72571">
        <ele>249.7</ele>
        <time>2023-03-04T08:10:39.000Z</time>
      </trkpt>
      <trkpt lat="43.51978" lon="6.72572">
        <ele>249.9</ele>
        <time>2023-03-04T08:10:40.000Z</time>
      </trkpt>
      <trkpt lat="43.5198" lon="6.72571">
        <ele>250.3</ele>
        <time>2023-03-04T08:10:41.000Z</time>
      </trkpt>
      <trkpt lat="43.51985" lon="6.7257">
        <ele>251.1</ele>
        <time>2023-03-04T08:10:43.000Z</time>
      </trkpt>
      <trkpt lat="43.51986" lon="6.7257">
        <ele>251.4</ele>
        <time>2023-03-04T08:10:44.000Z</time>
      </trkpt>
      <trkpt lat="43.51988" lon="6.72569">
        <ele>251.8</ele>
        <time>2023-03-04T08:10:45.000Z</time>
      </trkpt>
      <trkpt lat="43.51992" lon="6.72568">
        <ele>252.5</ele>
        <time>2023-03-04T08:10:46.000Z</time>
      </trkpt>
      <trkpt lat="43.51993" lon="6.72567">
        <ele>252.8</ele>
        <time>2023-03-04T08:10:47.000Z</time>
      </trkpt>
      <trkpt lat="43.51997" lon="6.72566">
        <ele>253.6</ele>
        <time>2023-03-04T08:10:48.000Z</time>
      </trkpt>
      <trkpt lat="43.51998" lon="6.72565">
        <ele>254</ele>
        <time>2023-03-04T08:10:49.000Z</time>
      </trkpt>
      <trkpt lat="43.52002" lon="6.72565">
        <ele>254.8</ele>
        <time>2023-03-04T08:10:51.000Z</time>
      </trkpt>
      <trkpt lat="43.52004" lon="6.72565">
        <ele>255.5</ele>
        <time>2023-03-04T08:10:52.000Z</time>
      </trkpt>
      <trkpt lat="43.52006" lon="6.72565">
        <ele>255.9</ele>
        <time>2023-03-04T08:10:53.000Z</time>
      </trkpt>
      <trkpt lat="43.52005" lon="6.72565">
        <ele>256.1</ele>
        <time>2023-03-04T08:10:54.000Z</time>
      </trkpt>
      <trkpt lat="43.52004" lon="6.72565">
        <ele>256.3</ele>
        <time>2023-03-04T08:10:55.000Z</time>
      </trkpt>
      <trkpt lat="43.52004" lon="6.72565">
        <ele>256.3</ele>
        <time>2023-03-04T08:10:56.000Z</time>
      </trkpt>
      <trkpt lat="43.52005" lon="6.72565">
        <ele>256.3</ele>
        <time>2023-03-04T08:10:58.000Z</time>
      </trkpt>
      <trkpt lat="43.52005" lon="6.72565">
        <ele>256.4</ele>
        <time>2023-03-04T08:10:59.000Z</time>
      </trkpt>
      <trkpt lat="43.52005" lon="6.72565">
        <ele>256.4</ele>
        <time>2023-03-04T08:11:01.000Z</time>
      </trkpt>
      <trkpt lat="43.52005" lon="6.72565">
        <ele>256.5</ele>
        <time>2023-03-04T08:11:02.000Z</time>
      </trkpt>
      <trkpt lat="43.52005" lon="6.72565">
        <ele>256.5</ele>
        <time>2023-03-04T08:11:03.000Z</time>
      </trkpt>
      <trkpt lat="43.52005" lon="6.72565">
        <ele>256.5</ele>
        <time>2023-03-04T08:11:04.000Z</time>
      </trkpt>
      <trkpt lat="43.52005" lon="6.72565">
        <ele>256.6</ele>
        <time>2023-03-04T08:11:05.000Z</time>
      </trkpt>
      <trkpt lat="43.52006" lon="6.72565">
        <ele>256.7</ele>
        <time>2023-03-04T08:11:07.000Z</time>
      </trkpt>
      <trkpt lat="43.52006" lon="6.72566">
        <ele>256.9</ele>
        <time>2023-03-04T08:11:08.000Z</time>
      </trkpt>
      <trkpt lat="43.52007" lon="6.72567">
        <ele>257.2</ele>
        <time>2023-03-04T08:11:09.000Z</time>
      </trkpt>
      <trkpt lat="43.52008" lon="6.72568">
        <ele>257.5</ele>
        <time>2023-03-04T08:11:10.000Z</time>
      </trkpt>
      <trkpt lat="43.52009" lon="6.72569">
        <ele>257.8</ele>
        <time>2023-03-04T08:11:11.000Z</time>
      </trkpt>
      <trkpt lat="43.5201" lon="6.7257">
        <ele>258.1</ele>
        <time>2023-03-04T08:11:12.000Z</time>
      </trkpt>
      <trkpt lat="43.5201" lon="6.72571">
        <ele>258.3</ele>
        <time>2023-03-04T08:11:13.000Z</time>
      </trkpt>
      <trkpt lat="43.52011" lon="6.72572">
        <ele>258.6</ele>
        <time>2023-03-04T08:11:15.000Z</time>
      </trkpt>
      <trkpt lat="43.52012" lon="6.72572">
        <ele>258.9</ele>
        <time>2023-03-04T08:11:16.000Z</time>
      </trkpt>
      <trkpt lat="43.52013" lon="6.72573">
        <ele>259.1</ele>
        <time>2023-03-04T08:11:17.000Z</time>
      </trkpt>
      <trkpt lat="43.52014" lon="6.72574">
        <ele>259.4</ele>
        <time>2023-03-04T08:11:18.000Z</time>
      </trkpt>
      <trkpt lat="43.52014" lon="6.72575">
        <ele>259.5</ele>
        <time>2023-03-04T08:11:20.000Z</time>
      </trkpt>
      <trkpt lat="43.52014" lon="6.72574">
        <ele>259.5</ele>
        <time>2023-03-04T08:11:21.000Z</time>
      </trkpt>
      <trkpt lat="43.52015" lon="6.72575">
        <ele>259.6</ele>
        <time>2023-03-04T08:11:22.000Z</time>
      </trkpt>
      <trkpt lat="43.52015" lon="6.72575">
        <ele>259.8</ele>
        <time>2023-03-04T08:11:24.000Z</time>
      </trkpt>
      <trkpt lat="43.52016" lon="6.72576">
        <ele>260</ele>
        <time>2023-03-04T08:11:25.000Z</time>
      </trkpt>
      <trkpt lat="43.52016" lon="6.72576">
        <ele>260.1</ele>
        <time>2023-03-04T08:11:26.000Z</time>
      </trkpt>
      <trkpt lat="43.52017" lon="6.72577">
        <ele>260.3</ele>
        <time>2023-03-04T08:11:27.000Z</time>
      </trkpt>
      <trkpt lat="43.52018" lon="6.72577">
        <ele>260.6</ele>
        <time>2023-03-04T08:11:28.000Z</time>
      </trkpt>
      <trkpt lat="43.52019" lon="6.72577">
        <ele>260.7</ele>
        <time>2023-03-04T08:11:29.000Z</time>
      </trkpt>
      <trkpt lat="43.52019" lon="6.72576">
        <ele>260.8</ele>
        <time>2023-03-04T08:11:30.000Z</time>
      </trkpt>
      <trkpt lat="43.5202" lon="6.72576">
        <ele>261</ele>
        <time>2023-03-04T08:11:32.000Z</time>
      </trkpt>
      <trkpt lat="43.5202" lon="6.72576">
        <ele>261.1</ele>
        <time>2023-03-04T08:11:33.000Z</time>
      </trkpt>
      <trkpt lat="43.52021" lon="6.72576">
        <ele>261.3</ele>
        <time>2023-03-04T08:11:35.000Z</time>
      </trkpt>
      <trkpt lat="43.52021" lon="6.72575">
        <ele>261.4</ele>
        <time>2023-03-04T08:11:36.000Z</time>
      </trkpt>
      <trkpt lat="43.52022" lon="6.72575">
        <ele>261.5</ele>
        <time>2023-03-04T08:11:38.000Z</time>
      </trkpt>
      <trkpt lat="43.52022" lon="6.72575">
        <ele>261.6</ele>
        <time>2023-03-04T08:11:39.000Z</time>
      </trkpt>
      <trkpt lat="43.52023" lon="6.72574">
        <ele>261.8</ele>
        <time>2023-03-04T08:11:41.000Z</time>
      </trkpt>
      <trkpt lat="43.52024" lon="6.72574">
        <ele>261.9</ele>
        <time>2023-03-04T08:11:42.000Z</time>
      </trkpt>
      <trkpt lat="43.52024" lon="6.72574">
        <ele>262</ele>
        <time>2023-03-04T08:11:43.000Z</time>
      </trkpt>
      <trkpt lat="43.52025" lon="6.72574">
        <ele>262.2</ele>
        <time>2023-03-04T08:11:45.000Z</time>
      </trkpt>
      <trkpt lat="43.52025" lon="6.72573">
        <ele>262.3</ele>
        <time>2023-03-04T08:11:46.000Z</time>
      </trkpt>
      <trkpt lat="43.52026" lon="6.72573">
        <ele>262.4</ele>
        <time>2023-03-04T08:11:48.000Z</time>
      </trkpt>
      <trkpt lat="43.52026" lon="6.72573">
        <ele>262.6</ele>
        <time>2023-03-04T08:11:49.000Z</time>
      </trkpt>
      <trkpt lat="43.52027" lon="6.72572">
        <ele>262.7</ele>
        <time>2023-03-04T08:12:04.000Z</time>
      </trkpt>
      <trkpt lat="43.52027" lon="6.72572">
        <ele>262.8</ele>
        <time>2023-03-04T08:12:05.000Z</time>
      </trkpt>
      <trkpt lat="43.52028" lon="6.72572">
        <ele>262.9</ele>
        <time>2023-03-04T08:12:06.000Z</time>
      </trkpt>
      <trkpt lat="43.52029" lon="6.72572">
        <ele>263.1</ele>
        <time>2023-03-04T08:12:07.000Z</time>
      </trkpt>
      <trkpt lat="43.52031" lon="6.72571">
        <ele>263.7</ele>
        <time>2023-03-04T08:12:09.000Z</time>
      </trkpt>
      <trkpt lat="43.52032" lon="6.72571">
        <ele>263.8</ele>
        <time>2023-03-04T08:12:10.000Z</time>
      </trkpt>
      <trkpt lat="43.52034" lon="6.72571">
        <ele>264.2</ele>
        <time>2023-03-04T08:12:11.000Z</time>
      </trkpt>
      <trkpt lat="43.52035" lon="6.72571">
        <ele>264.4</ele>
        <time>2023-03-04T08:12:13.000Z</time>
      </trkpt>
      <trkpt lat="43.52036" lon="6.72571">
        <ele>264.5</ele>
        <time>2023-03-04T08:12:14.000Z</time>
      </trkpt>
      <trkpt lat="43.52037" lon="6.72572">
        <ele>264.7</ele>
        <time>2023-03-04T08:12:15.000Z</time>
      </trkpt>
      <trkpt lat="43.52038" lon="6.72572">
        <ele>264.8</ele>
        <time>2023-03-04T08:12:16.000Z</time>
      </trkpt>
      <trkpt lat="43.52038" lon="6.72573">
        <ele>265</ele>
        <time>2023-03-04T08:12:17.000Z</time>
      </trkpt>
      <trkpt lat="43.5204" lon="6.72574">
        <ele>265.2</ele>
        <time>2023-03-04T08:12:19.000Z</time>
      </trkpt>
      <trkpt lat="43.52041" lon="6.72576">
        <ele>265.5</ele>
        <time>2023-03-04T08:12:20.000Z</time>
      </trkpt>
      <trkpt lat="43.52042" lon="6.72577">
        <ele>265.6</ele>
        <time>2023-03-04T08:12:21.000Z</time>
      </trkpt>
      <trkpt lat="43.52043" lon="6.72578">
        <ele>265.8</ele>
        <time>2023-03-04T08:12:23.000Z</time>
      </trkpt>
      <trkpt lat="43.52043" lon="6.72579">
        <ele>265.9</ele>
        <time>2023-03-04T08:12:25.000Z</time>
      </trkpt>
      <trkpt lat="43.52044" lon="6.7258">
        <ele>266</ele>
        <time>2023-03-04T08:12:26.000Z</time>
      </trkpt>
      <trkpt lat="43.52045" lon="6.72581">
        <ele>266.2</ele>
        <time>2023-03-04T08:12:27.000Z</time>
      </trkpt>
      <trkpt lat="43.52046" lon="6.72582">
        <ele>266.3</ele>
        <time>2023-03-04T08:12:28.000Z</time>
      </trkpt>
      <trkpt lat="43.52048" lon="6.72584">
        <ele>266.5</ele>
        <time>2023-03-04T08:12:29.000Z</time>
      </trkpt>
      <trkpt lat="43.52048" lon="6.72584">
        <ele>266.6</ele>
        <time>2023-03-04T08:12:30.000Z</time>
      </trkpt>
      <trkpt lat="43.52049" lon="6.72585">
        <ele>266.7</ele>
        <time>2023-03-04T08:12:32.000Z</time>
      </trkpt>
      <trkpt lat="43.52049" lon="6.72585">
        <ele>266.7</ele>
        <time>2023-03-04T08:12:33.000Z</time>
      </trkpt>
      <trkpt lat="43.5205" lon="6.72586">
        <ele>266.8</ele>
        <time>2023-03-04T08:12:34.000Z</time>
      </trkpt>
      <trkpt lat="43.5205" lon="6.72586">
        <ele>266.9</ele>
        <time>2023-03-04T08:12:35.000Z</time>
      </trkpt>
      <trkpt lat="43.52051" lon="6.72587">
        <ele>267</ele>
        <time>2023-03-04T08:12:37.000Z</time>
      </trkpt>
      <trkpt lat="43.52052" lon="6.72587">
        <ele>267</ele>
        <time>2023-03-04T08:12:38.000Z</time>
      </trkpt>
      <trkpt lat="43.52052" lon="6.72587">
        <ele>267.1</ele>
        <time>2023-03-04T08:12:39.000Z</time>
      </trkpt>
      <trkpt lat="43.52053" lon="6.72588">
        <ele>267.2</ele>
        <time>2023-03-04T08:12:40.000Z</time>
      </trkpt>
      <trkpt lat="43.52053" lon="6.72588">
        <ele>267.2</ele>
        <time>2023-03-04T08:12:41.000Z</time>
      </trkpt>
      <trkpt lat="43.52056" lon="6.72591">
        <ele>267.6</ele>
        <time>2023-03-04T08:12:42.000Z</time>
      </trkpt>
      <trkpt lat="43.52056" lon="6.72592">
        <ele>267.7</ele>
        <time>2023-03-04T08:12:43.000Z</time>
      </trkpt>
      <trkpt lat="43.52059" lon="6.72594">
        <ele>268</ele>
        <time>2023-03-04T08:12:44.000Z</time>
      </trkpt>
      <trkpt lat="43.52062" lon="6.72594">
        <ele>268.2</ele>
        <time>2023-03-04T08:12:45.000Z</time>
      </trkpt>
      <trkpt lat="43.52064" lon="6.72594">
        <ele>268.5</ele>
        <time>2023-03-04T08:12:47.000Z</time>
      </trkpt>
      <trkpt lat="43.52067" lon="6.72594">
        <ele>268.8</ele>
        <time>2023-03-04T08:12:48.000Z</time>
      </trkpt>
      <trkpt lat="43.52071" lon="6.72591">
        <ele>269.3</ele>
        <time>2023-03-04T08:12:49.000Z</time>
      </trkpt>
      <trkpt lat="43.52076" lon="6.7259">
        <ele>269.7</ele>
        <time>2023-03-04T08:12:51.000Z</time>
      </trkpt>
      <trkpt lat="43.52079" lon="6.72588">
        <ele>269.9</ele>
        <time>2023-03-04T08:12:52.000Z</time>
      </trkpt>
      <trkpt lat="43.52083" lon="6.72586">
        <ele>270.2</ele>
        <time>2023-03-04T08:12:53.000Z</time>
      </trkpt>
      <trkpt lat="43.52085" lon="6.72584">
        <ele>270.4</ele>
        <time>2023-03-04T08:12:55.000Z</time>
      </trkpt>
      <trkpt lat="43.52088" lon="6.72583">
        <ele>270.5</ele>
        <time>2023-03-04T08:12:56.000Z</time>
      </trkpt>
      <trkpt lat="43.52092" lon="6.72581">
        <ele>270.7</ele>
        <time>2023-03-04T08:12:57.000Z</time>
      </trkpt>
      <trkpt lat="43.52094" lon="6.7258">
        <ele>270.8</ele>
        <time>2023-03-04T08:12:58.000Z</time>
      </trkpt>
      <trkpt lat="43.52097" lon="6.72578">
        <ele>270.9</ele>
        <time>2023-03-04T08:12:59.000Z</time>
      </trkpt>
      <trkpt lat="43.52098" lon="6.72578">
        <ele>270.9</ele>
        <time>2023-03-04T08:13:00.000Z</time>
      </trkpt>
      <trkpt lat="43.521" lon="6.72578">
        <ele>271</ele>
        <time>2023-03-04T08:13:02.000Z</time>
      </trkpt>
      <trkpt lat="43.52101" lon="6.72578">
        <ele>271</ele>
        <time>2023-03-04T08:13:03.000Z</time>
      </trkpt>
      <trkpt lat="43.52103" lon="6.72577">
        <ele>271</ele>
        <time>2023-03-04T08:13:05.000Z</time>
      </trkpt>
      <trkpt lat="43.52104" lon="6.72577">
        <ele>271</ele>
        <time>2023-03-04T08:13:06.000Z</time>
      </trkpt>
      <trkpt lat="43.52105" lon="6.72577">
        <ele>271</ele>
        <time>2023-03-04T08:13:07.000Z</time>
      </trkpt>
      <trkpt lat="43.52105" lon="6.72578">
        <ele>271</ele>
        <time>2023-03-04T08:13:09.000Z</time>
      </trkpt>
      <trkpt lat="43.52106" lon="6.72578">
        <ele>271</ele>
        <time>2023-03-04T08:13:10.000Z</time>
      </trkpt>
      <trkpt lat="43.52107" lon="6.72578">
        <ele>271</ele>
        <time>2023-03-04T08:13:12.000Z</time>
      </trkpt>
      <trkpt lat="43.52108" lon="6.72578">
        <ele>270.9</ele>
        <time>2023-03-04T08:13:13.000Z</time>
      </trkpt>
      <trkpt lat="43.52108" lon="6.72578">
        <ele>270.9</ele>
        <time>2023-03-04T08:13:14.000Z</time>
      </trkpt>
      <trkpt lat="43.52109" lon="6.72579">
        <ele>270.9</ele>
        <time>2023-03-04T08:13:16.000Z</time>
      </trkpt>
      <trkpt lat="43.5211" lon="6.72579">
        <ele>270.9</ele>
        <time>2023-03-04T08:13:17.000Z</time>
      </trkpt>
      <trkpt lat="43.52111" lon="6.72579">
        <ele>270.9</ele>
        <time>2023-03-04T08:13:18.000Z</time>
      </trkpt>
      <trkpt lat="43.52112" lon="6.72579">
        <ele>270.8</ele>
        <time>2023-03-04T08:13:20.000Z</time>
      </trkpt>
      <trkpt lat="43.52112" lon="6.72579">
        <ele>270.8</ele>
        <time>2023-03-04T08:13:21.000Z</time>
      </trkpt>
      <trkpt lat="43.52113" lon="6.72579">
        <ele>270.8</ele>
        <time>2023-03-04T08:13:22.000Z</time>
      </trkpt>
      <trkpt lat="43.52114" lon="6.7258">
        <ele>270.7</ele>
        <time>2023-03-04T08:13:23.000Z</time>
      </trkpt>
      <trkpt lat="43.52115" lon="6.7258">
        <ele>270.7</ele>
        <time>2023-03-04T08:15:23.000Z</time>
      </trkpt>
      <trkpt lat="43.52116" lon="6.7258">
        <ele>270.7</ele>
        <time>2023-03-04T08:15:24.000Z</time>
      </trkpt>
      <trkpt lat="43.5212" lon="6.7258">
        <ele>270.4</ele>
        <time>2023-03-04T08:15:25.000Z</time>
      </trkpt>
      <trkpt lat="43.52125" lon="6.7258">
        <ele>269.9</ele>
        <time>2023-03-04T08:15:26.000Z</time>
      </trkpt>
      <trkpt lat="43.52129" lon="6.72578">
        <ele>269.5</ele>
        <time>2023-03-04T08:15:27.000Z</time>
      </trkpt>
      <trkpt lat="43.52135" lon="6.72577">
        <ele>269</ele>
        <time>2023-03-04T08:15:28.000Z</time>
      </trkpt>
      <trkpt lat="43.5214" lon="6.72576">
        <ele>268.6</ele>
        <time>2023-03-04T08:15:30.000Z</time>
      </trkpt>
      <trkpt lat="43.52144" lon="6.72577">
        <ele>268.3</ele>
        <time>2023-03-04T08:15:31.000Z</time>
      </trkpt>
      <trkpt lat="43.52149" lon="6.72577">
        <ele>267.8</ele>
        <time>2023-03-04T08:15:32.000Z</time>
      </trkpt>
      <trkpt lat="43.52153" lon="6.72576">
        <ele>267.4</ele>
        <time>2023-03-04T08:15:33.000Z</time>
      </trkpt>
      <trkpt lat="43.52156" lon="6.72576">
        <ele>267.1</ele>
        <time>2023-03-04T08:15:34.000Z</time>
      </trkpt>
      <trkpt lat="43.5216" lon="6.72576">
        <ele>266.8</ele>
        <time>2023-03-04T08:15:35.000Z</time>
      </trkpt>
      <trkpt lat="43.52163" lon="6.72577">
        <ele>266.3</ele>
        <time>2023-03-04T08:15:37.000Z</time>
      </trkpt>
      <trkpt lat="43.52168" lon="6.72577">
        <ele>265.7</ele>
        <time>2023-03-04T08:15:38.000Z</time>
      </trkpt>
      <trkpt lat="43.52173" lon="6.72579">
        <ele>264.9</ele>
        <time>2023-03-04T08:15:39.000Z</time>
      </trkpt>
      <trkpt lat="43.52177" lon="6.7258">
        <ele>264.2</ele>
        <time>2023-03-04T08:15:40.000Z</time>
      </trkpt>
      <trkpt lat="43.52181" lon="6.72581">
        <ele>263.5</ele>
        <time>2023-03-04T08:15:41.000Z</time>
      </trkpt>
      <trkpt lat="43.52184" lon="6.72581">
        <ele>262.9</ele>
        <time>2023-03-04T08:15:42.000Z</time>
      </trkpt>
      <trkpt lat="43.52188" lon="6.72582">
        <ele>262.2</ele>
        <time>2023-03-04T08:15:43.000Z</time>
      </trkpt>
      <trkpt lat="43.52193" lon="6.72584">
        <ele>261.4</ele>
        <time>2023-03-04T08:15:45.000Z</time>
      </trkpt>
      <trkpt lat="43.522" lon="6.72589">
        <ele>260.2</ele>
        <time>2023-03-04T08:15:46.000Z</time>
      </trkpt>
      <trkpt lat="43.52206" lon="6.72594">
        <ele>259.2</ele>
        <time>2023-03-04T08:15:47.000Z</time>
      </trkpt>
      <trkpt lat="43.52211" lon="6.72597">
        <ele>258.4</ele>
        <time>2023-03-04T08:15:48.000Z</time>
      </trkpt>
      <trkpt lat="43.52215" lon="6.72601">
        <ele>257.8</ele>
        <time>2023-03-04T08:15:49.000Z</time>
      </trkpt>
      <trkpt lat="43.52219" lon="6.72603">
        <ele>257.3</ele>
        <time>2023-03-04T08:15:50.000Z</time>
      </trkpt>
      <trkpt lat="43.52222" lon="6.72604">
        <ele>257</ele>
        <time>2023-03-04T08:15:51.000Z</time>
      </trkpt>
      <trkpt lat="43.52225" lon="6.72605">
        <ele>256.6</ele>
        <time>2023-03-04T08:15:53.000Z</time>
      </trkpt>
      <trkpt lat="43.52229" lon="6.72608">
        <ele>256.1</ele>
        <time>2023-03-04T08:15:54.000Z</time>
      </trkpt>
      <trkpt lat="43.5223" lon="6.72609">
        <ele>256</ele>
        <time>2023-03-04T08:15:55.000Z</time>
      </trkpt>
      <trkpt lat="43.52234" lon="6.7261">
        <ele>255.4</ele>
        <time>2023-03-04T08:15:56.000Z</time>
      </trkpt>
      <trkpt lat="43.52238" lon="6.7261">
        <ele>255</ele>
        <time>2023-03-04T08:15:57.000Z</time>
      </trkpt>
      <trkpt lat="43.52242" lon="6.72608">
        <ele>254.4</ele>
        <time>2023-03-04T08:15:58.000Z</time>
      </trkpt>
      <trkpt lat="43.52246" lon="6.72603">
        <ele>253.7</ele>
        <time>2023-03-04T08:16:00.000Z</time>
      </trkpt>
      <trkpt lat="43.52249" lon="6.72601">
        <ele>253.3</ele>
        <time>2023-03-04T08:16:01.000Z</time>
      </trkpt>
      <trkpt lat="43.52254" lon="6.72599">
        <ele>252.8</ele>
        <time>2023-03-04T08:16:02.000Z</time>
      </trkpt>
      <trkpt lat="43.52257" lon="6.72599">
        <ele>252.5</ele>
        <time>2023-03-04T08:16:03.000Z</time>
      </trkpt>
      <trkpt lat="43.52262" lon="6.726">
        <ele>252.2</ele>
        <time>2023-03-04T08:16:04.000Z</time>
      </trkpt>
      <trkpt lat="43.52267" lon="6.72601">
        <ele>251.8</ele>
        <time>2023-03-04T08:16:06.000Z</time>
      </trkpt>
      <trkpt lat="43.52273" lon="6.72605">
        <ele>251.4</ele>
        <time>2023-03-04T08:16:07.000Z</time>
      </trkpt>
      <trkpt lat="43.52278" lon="6.72608">
        <ele>251.2</ele>
        <time>2023-03-04T08:16:08.000Z</time>
      </trkpt>
      <trkpt lat="43.52282" lon="6.72609">
        <ele>251</ele>
        <time>2023-03-04T08:16:09.000Z</time>
      </trkpt>
      <trkpt lat="43.52286" lon="6.72612">
        <ele>250.8</ele>
        <time>2023-03-04T08:16:10.000Z</time>
      </trkpt>
      <trkpt lat="43.52291" lon="6.72615">
        <ele>250.7</ele>
        <time>2023-03-04T08:16:11.000Z</time>
      </trkpt>
      <trkpt lat="43.52296" lon="6.72616">
        <ele>250.5</ele>
        <time>2023-03-04T08:16:12.000Z</time>
      </trkpt>
      <trkpt lat="43.523" lon="6.72616">
        <ele>250.4</ele>
        <time>2023-03-04T08:16:13.000Z</time>
      </trkpt>
      <trkpt lat="43.52304" lon="6.72615">
        <ele>250.4</ele>
        <time>2023-03-04T08:16:15.000Z</time>
      </trkpt>
      <trkpt lat="43.52305" lon="6.72616">
        <ele>250.4</ele>
        <time>2023-03-04T08:16:16.000Z</time>
      </trkpt>
      <trkpt lat="43.52307" lon="6.72616">
        <ele>250.3</ele>
        <time>2023-03-04T08:16:17.000Z</time>
      </trkpt>
      <trkpt lat="43.52306" lon="6.72615">
        <ele>250.3</ele>
        <time>2023-03-04T08:16:19.000Z</time>
      </trkpt>
      <trkpt lat="43.52306" lon="6.72616">
        <ele>250.3</ele>
        <time>2023-03-04T08:16:20.000Z</time>
      </trkpt>
      <trkpt lat="43.52306" lon="6.72616">
        <ele>250.3</ele>
        <time>2023-03-04T08:16:22.000Z</time>
      </trkpt>
      <trkpt lat="43.52306" lon="6.72616">
        <ele>250.3</ele>
        <time>2023-03-04T08:16:23.000Z</time>
      </trkpt>
      <trkpt lat="43.52306" lon="6.72616">
        <ele>250.3</ele>
        <time>2023-03-04T08:16:24.000Z</time>
      </trkpt>
      <trkpt lat="43.52306" lon="6.72616">
        <ele>250.3</ele>
        <time>2023-03-04T08:16:26.000Z</time>
      </trkpt>
      <trkpt lat="43.52306" lon="6.72616">
        <ele>250.3</ele>
        <time>2023-03-04T08:16:27.000Z</time>
      </trkpt>
      <trkpt lat="43.52308" lon="6.72612">
        <ele>249.8</ele>
        <time>2023-03-04T08:17:18.000Z</time>
      </trkpt>
      <trkpt lat="43.5231" lon="6.72609">
        <ele>249.3</ele>
        <time>2023-03-04T08:17:20.000Z</time>
      </trkpt>
      <trkpt lat="43.52313" lon="6.72607">
        <ele>248.7</ele>
        <time>2023-03-04T08:17:21.000Z</time>
      </trkpt>
      <trkpt lat="43.52315" lon="6.72605">
        <ele>248.2</ele>
        <time>2023-03-04T08:17:22.000Z</time>
      </trkpt>
      <trkpt lat="43.52318" lon="6.72602">
        <ele>247.6</ele>
        <time>2023-03-04T08:17:23.000Z</time>
      </trkpt>
      <trkpt lat="43.5232" lon="6.726">
        <ele>247.3</ele>
        <time>2023-03-04T08:17:24.000Z</time>
      </trkpt>
      <trkpt lat="43.52321" lon="6.72593">
        <ele>246.5</ele>
        <time>2023-03-04T08:17:25.000Z</time>
      </trkpt>
      <trkpt lat="43.52322" lon="6.72588">
        <ele>245.9</ele>
        <time>2023-03-04T08:17:27.000Z</time>
      </trkpt>
      <trkpt lat="43.52323" lon="6.72582">
        <ele>245.3</ele>
        <time>2023-03-04T08:17:28.000Z</time>
      </trkpt>
      <trkpt lat="43.52324" lon="6.72575">
        <ele>244.5</ele>
        <time>2023-03-04T08:17:29.000Z</time>
      </trkpt>
      <trkpt lat="43.52326" lon="6.72569">
        <ele>243.8</ele>
        <time>2023-03-04T08:17:30.000Z</time>
      </trkpt>
      <trkpt lat="43.52327" lon="6.72564">
        <ele>243.2</ele>
        <time>2023-03-04T08:17:31.000Z</time>
      </trkpt>
      <trkpt lat="43.52328" lon="6.72557">
        <ele>242.5</ele>
        <time>2023-03-04T08:17:33.000Z</time>
      </trkpt>
      <trkpt lat="43.5233" lon="6.72549">
        <ele>241.7</ele>
        <time>2023-03-04T08:17:34.000Z</time>
      </trkpt>
      <trkpt lat="43.52331" lon="6.72542">
        <ele>241.1</ele>
        <time>2023-03-04T08:17:35.000Z</time>
      </trkpt>
      <trkpt lat="43.52332" lon="6.72538">
        <ele>240.7</ele>
        <time>2023-03-04T08:17:36.000Z</time>
      </trkpt>
      <trkpt lat="43.52334" lon="6.72532">
        <ele>240</ele>
        <time>2023-03-04T08:17:37.000Z</time>
      </trkpt>
      <trkpt lat="43.52338" lon="6.72525">
        <ele>239.2</ele>
        <time>2023-03-04T08:17:38.000Z</time>
      </trkpt>
      <trkpt lat="43.52341" lon="6.72519">
        <ele>238.5</ele>
        <time>2023-03-04T08:17:39.000Z</time>
      </trkpt>
      <trkpt lat="43.52342" lon="6.72514">
        <ele>238</ele>
        <time>2023-03-04T08:17:40.000Z</time>
      </trkpt>
      <trkpt lat="43.52344" lon="6.72508">
        <ele>237.3</ele>
        <time>2023-03-04T08:17:42.000Z</time>
      </trkpt>
      <trkpt lat="43.52345" lon="6.72503">
        <ele>236.9</ele>
        <time>2023-03-04T08:17:43.000Z</time>
      </trkpt>
      <trkpt lat="43.52346" lon="6.72496">
        <ele>236.3</ele>
        <time>2023-03-04T08:17:44.000Z</time>
      </trkpt>
      <trkpt lat="43.52347" lon="6.72491">
        <ele>235.8</ele>
        <time>2023-03-04T08:17:45.000Z</time>
      </trkpt>
      <trkpt lat="43.52348" lon="6.72485">
        <ele>235.2</ele>
        <time>2023-03-04T08:17:46.000Z</time>
      </trkpt>
      <trkpt lat="43.52349" lon="6.7248">
        <ele>234.7</ele>
        <time>2023-03-04T08:17:47.000Z</time>
      </trkpt>
      <trkpt lat="43.52353" lon="6.7247">
        <ele>233.3</ele>
        <time>2023-03-04T08:17:49.000Z</time>
      </trkpt>
      <trkpt lat="43.52356" lon="6.72465">
        <ele>232.6</ele>
        <time>2023-03-04T08:17:51.000Z</time>
      </trkpt>
      <trkpt lat="43.52359" lon="6.7246">
        <ele>231.7</ele>
        <time>2023-03-04T08:17:52.000Z</time>
      </trkpt>
      <trkpt lat="43.5236" lon="6.72456">
        <ele>231.2</ele>
        <time>2023-03-04T08:17:53.000Z</time>
      </trkpt>
      <trkpt lat="43.52361" lon="6.72452">
        <ele>230.8</ele>
        <time>2023-03-04T08:17:54.000Z</time>
      </trkpt>
      <trkpt lat="43.52363" lon="6.72449">
        <ele>230.3</ele>
        <time>2023-03-04T08:17:55.000Z</time>
      </trkpt>
      <trkpt lat="43.52365" lon="6.72445">
        <ele>229.7</ele>
        <time>2023-03-04T08:17:56.000Z</time>
      </trkpt>
      <trkpt lat="43.52368" lon="6.7244">
        <ele>229</ele>
        <time>2023-03-04T08:17:58.000Z</time>
      </trkpt>
      <trkpt lat="43.5237" lon="6.72433">
        <ele>228.1</ele>
        <time>2023-03-04T08:17:59.000Z</time>
      </trkpt>
      <trkpt lat="43.52373" lon="6.72428">
        <ele>227.3</ele>
        <time>2023-03-04T08:18:00.000Z</time>
      </trkpt>
      <trkpt lat="43.52376" lon="6.72422">
        <ele>226.5</ele>
        <time>2023-03-04T08:18:01.000Z</time>
      </trkpt>
      <trkpt lat="43.52377" lon="6.72418">
        <ele>225.9</ele>
        <time>2023-03-04T08:18:02.000Z</time>
      </trkpt>
      <trkpt lat="43.5238" lon="6.72413">
        <ele>225.2</ele>
        <time>2023-03-04T08:18:03.000Z</time>
      </trkpt>
      <trkpt lat="43.52381" lon="6.72411">
        <ele>224.9</ele>
        <time>2023-03-04T08:18:04.000Z</time>
      </trkpt>
      <trkpt lat="43.52383" lon="6.72408">
        <ele>224.3</ele>
        <time>2023-03-04T08:18:06.000Z</time>
      </trkpt>
      <trkpt lat="43.52385" lon="6.72404">
        <ele>223.6</ele>
        <time>2023-03-04T08:18:07.000Z</time>
      </trkpt>
      <trkpt lat="43.52388" lon="6.72402">
        <ele>223</ele>
        <time>2023-03-04T08:18:08.000Z</time>
      </trkpt>
      <trkpt lat="43.5239" lon="6.72398">
        <ele>222.2</ele>
        <time>2023-03-04T08:18:09.000Z</time>
      </trkpt>
      <trkpt lat="43.52392" lon="6.72394">
        <ele>221.5</ele>
        <time>2023-03-04T08:18:10.000Z</time>
      </trkpt>
      <trkpt lat="43.52394" lon="6.72392">
        <ele>221</ele>
        <time>2023-03-04T08:18:11.000Z</time>
      </trkpt>
      <trkpt lat="43.52395" lon="6.7239">
        <ele>220.7</ele>
        <time>2023-03-04T08:18:13.000Z</time>
      </trkpt>
      <trkpt lat="43.52396" lon="6.72388">
        <ele>220.2</ele>
        <time>2023-03-04T08:18:14.000Z</time>
      </trkpt>
      <trkpt lat="43.52397" lon="6.72386">
        <ele>219.9</ele>
        <time>2023-03-04T08:18:15.000Z</time>
      </trkpt>
      <trkpt lat="43.52399" lon="6.72383">
        <ele>219.2</ele>
        <time>2023-03-04T08:18:17.000Z</time>
      </trkpt>
      <trkpt lat="43.52402" lon="6.7238">
        <ele>218.5</ele>
        <time>2023-03-04T08:18:18.000Z</time>
      </trkpt>
      <trkpt lat="43.52404" lon="6.72376">
        <ele>217.7</ele>
        <time>2023-03-04T08:18:19.000Z</time>
      </trkpt>
      <trkpt lat="43.52408" lon="6.72372">
        <ele>216.9</ele>
        <time>2023-03-04T08:18:20.000Z</time>
      </trkpt>
      <trkpt lat="43.52409" lon="6.72371">
        <ele>216.5</ele>
        <time>2023-03-04T08:18:21.000Z</time>
      </trkpt>
      <trkpt lat="43.52411" lon="6.72368">
        <ele>215.9</ele>
        <time>2023-03-04T08:18:22.000Z</time>
      </trkpt>
      <trkpt lat="43.52414" lon="6.72366">
        <ele>215.3</ele>
        <time>2023-03-04T08:18:23.000Z</time>
      </trkpt>
      <trkpt lat="43.52418" lon="6.72361">
        <ele>214.3</ele>
        <time>2023-03-04T08:18:25.000Z</time>
      </trkpt>
      <trkpt lat="43.5242" lon="6.72357">
        <ele>213.6</ele>
        <time>2023-03-04T08:18:26.000Z</time>
      </trkpt>
      <trkpt lat="43.52421" lon="6.72353">
        <ele>213</ele>
        <time>2023-03-04T08:18:27.000Z</time>
      </trkpt>
      <trkpt lat="43.52422" lon="6.72349">
        <ele>212.4</ele>
        <time>2023-03-04T08:18:29.000Z</time>
      </trkpt>
      <trkpt lat="43.52424" lon="6.72344">
        <ele>211.6</ele>
        <time>2023-03-04T08:18:30.000Z</time>
      </trkpt>
      <trkpt lat="43.52426" lon="6.72339">
        <ele>211</ele>
        <time>2023-03-04T08:18:32.000Z</time>
      </trkpt>
      <trkpt lat="43.52427" lon="6.72336">
        <ele>210.5</ele>
        <time>2023-03-04T08:18:33.000Z</time>
      </trkpt>
      <trkpt lat="43.52427" lon="6.72332">
        <ele>210</ele>
        <time>2023-03-04T08:18:34.000Z</time>
      </trkpt>
      <trkpt lat="43.52428" lon="6.72327">
        <ele>209.4</ele>
        <time>2023-03-04T08:18:35.000Z</time>
      </trkpt>
      <trkpt lat="43.52428" lon="6.72325">
        <ele>209.2</ele>
        <time>2023-03-04T08:18:36.000Z</time>
      </trkpt>
      <trkpt lat="43.52429" lon="6.72321">
        <ele>208.8</ele>
        <time>2023-03-04T08:18:37.000Z</time>
      </trkpt>
      <trkpt lat="43.5243" lon="6.72313">
        <ele>208</ele>
        <time>2023-03-04T08:18:39.000Z</time>
      </trkpt>
      <trkpt lat="43.52431" lon="6.72307">
        <ele>207.5</ele>
        <time>2023-03-04T08:18:40.000Z</time>
      </trkpt>
      <trkpt lat="43.52431" lon="6.72301">
        <ele>206.9</ele>
        <time>2023-03-04T08:18:41.000Z</time>
      </trkpt>
      <trkpt lat="43.52432" lon="6.72295">
        <ele>206.3</ele>
        <time>2023-03-04T08:18:43.000Z</time>
      </trkpt>
      <trkpt lat="43.52432" lon="6.7229">
        <ele>206</ele>
        <time>2023-03-04T08:18:44.000Z</time>
      </trkpt>
      <trkpt lat="43.52433" lon="6.72285">
        <ele>205.5</ele>
        <time>2023-03-04T08:18:45.000Z</time>
      </trkpt>
      <trkpt lat="43.52434" lon="6.72279">
        <ele>204.9</ele>
        <time>2023-03-04T08:18:46.000Z</time>
      </trkpt>
      <trkpt lat="43.52435" lon="6.72275">
        <ele>204.5</ele>
        <time>2023-03-04T08:18:47.000Z</time>
      </trkpt>
      <trkpt lat="43.52435" lon="6.72271">
        <ele>204.2</ele>
        <time>2023-03-04T08:18:48.000Z</time>
      </trkpt>
      <trkpt lat="43.52436" lon="6.72266">
        <ele>203.7</ele>
        <time>2023-03-04T08:18:50.000Z</time>
      </trkpt>
      <trkpt lat="43.52437" lon="6.72264">
        <ele>203.5</ele>
        <time>2023-03-04T08:18:51.000Z</time>
      </trkpt>
      <trkpt lat="43.52438" lon="6.72259">
        <ele>203</ele>
        <time>2023-03-04T08:18:52.000Z</time>
      </trkpt>
      <trkpt lat="43.5244" lon="6.72254">
        <ele>202.5</ele>
        <time>2023-03-04T08:18:53.000Z</time>
      </trkpt>
      <trkpt lat="43.52442" lon="6.72249">
        <ele>202</ele>
        <time>2023-03-04T08:18:54.000Z</time>
      </trkpt>
      <trkpt lat="43.52445" lon="6.72243">
        <ele>201.5</ele>
        <time>2023-03-04T08:18:55.000Z</time>
      </trkpt>
      <trkpt lat="43.52447" lon="6.72239">
        <ele>201.1</ele>
        <time>2023-03-04T08:18:56.000Z</time>
      </trkpt>
      <trkpt lat="43.5245" lon="6.72233">
        <ele>200.6</ele>
        <time>2023-03-04T08:18:58.000Z</time>
      </trkpt>
      <trkpt lat="43.52452" lon="6.72229">
        <ele>200.2</ele>
        <time>2023-03-04T08:18:59.000Z</time>
      </trkpt>
      <trkpt lat="43.52453" lon="6.72225">
        <ele>199.8</ele>
        <time>2023-03-04T08:19:00.000Z</time>
      </trkpt>
      <trkpt lat="43.52455" lon="6.72222">
        <ele>199.5</ele>
        <time>2023-03-04T08:19:01.000Z</time>
      </trkpt>
      <trkpt lat="43.52456" lon="6.7222">
        <ele>199.3</ele>
        <time>2023-03-04T08:19:02.000Z</time>
      </trkpt>
      <trkpt lat="43.52458" lon="6.72217">
        <ele>199</ele>
        <time>2023-03-04T08:19:03.000Z</time>
      </trkpt>
      <trkpt lat="43.52459" lon="6.72215">
        <ele>198.8</ele>
        <time>2023-03-04T08:19:04.000Z</time>
      </trkpt>
      <trkpt lat="43.52461" lon="6.72212">
        <ele>198.5</ele>
        <time>2023-03-04T08:19:06.000Z</time>
      </trkpt>
      <trkpt lat="43.52462" lon="6.72211">
        <ele>198.4</ele>
        <time>2023-03-04T08:19:07.000Z</time>
      </trkpt>
      <trkpt lat="43.52465" lon="6.72208">
        <ele>198</ele>
        <time>2023-03-04T08:19:08.000Z</time>
      </trkpt>
      <trkpt lat="43.52465" lon="6.72208">
        <ele>197.9</ele>
        <time>2023-03-04T08:19:09.000Z</time>
      </trkpt>
      <trkpt lat="43.52468" lon="6.72206">
        <ele>197.6</ele>
        <time>2023-03-04T08:19:10.000Z</time>
      </trkpt>
      <trkpt lat="43.52469" lon="6.72203">
        <ele>197.6</ele>
        <time>2023-03-04T08:19:11.000Z</time>
      </trkpt>
      <trkpt lat="43.5247" lon="6.722">
        <ele>197.6</ele>
        <time>2023-03-04T08:19:13.000Z</time>
      </trkpt>
      <trkpt lat="43.52471" lon="6.72198">
        <ele>197.6</ele>
        <time>2023-03-04T08:19:14.000Z</time>
      </trkpt>
      <trkpt lat="43.52472" lon="6.72196">
        <ele>197.6</ele>
        <time>2023-03-04T08:19:15.000Z</time>
      </trkpt>
      <trkpt lat="43.52472" lon="6.72195">
        <ele>197.6</ele>
        <time>2023-03-04T08:19:17.000Z</time>
      </trkpt>
      <trkpt lat="43.52472" lon="6.72195">
        <ele>197.6</ele>
        <time>2023-03-04T08:19:18.000Z</time>
      </trkpt>
      <trkpt lat="43.52472" lon="6.72195">
        <ele>197.6</ele>
        <time>2023-03-04T08:19:20.000Z</time>
      </trkpt>
      <trkpt lat="43.52471" lon="6.72195">
        <ele>197.6</ele>
        <time>2023-03-04T08:19:21.000Z</time>
      </trkpt>
      <trkpt lat="43.52471" lon="6.72194">
        <ele>197.6</ele>
        <time>2023-03-04T08:19:22.000Z</time>
      </trkpt>
      <trkpt lat="43.52471" lon="6.72194">
        <ele>197.6</ele>
        <time>2023-03-04T08:19:24.000Z</time>
      </trkpt>
      <trkpt lat="43.52471" lon="6.72194">
        <ele>197.6</ele>
        <time>2023-03-04T08:19:25.000Z</time>
      </trkpt>
      <trkpt lat="43.52472" lon="6.7219">
        <ele>197.6</ele>
        <time>2023-03-04T08:19:29.000Z</time>
      </trkpt>
      <trkpt lat="43.52472" lon="6.72187">
        <ele>197.6</ele>
        <time>2023-03-04T08:19:30.000Z</time>
      </trkpt>
      <trkpt lat="43.52471" lon="6.7218">
        <ele>197.8</ele>
        <time>2023-03-04T08:19:32.000Z</time>
      </trkpt>
      <trkpt lat="43.5247" lon="6.72175">
        <ele>198</ele>
        <time>2023-03-04T08:19:33.000Z</time>
      </trkpt>
      <trkpt lat="43.52469" lon="6.72167">
        <ele>198.3</ele>
        <time>2023-03-04T08:19:35.000Z</time>
      </trkpt>
      <trkpt lat="43.52468" lon="6.72164">
        <ele>198.5</ele>
        <time>2023-03-04T08:19:36.000Z</time>
      </trkpt>
      <trkpt lat="43.52468" lon="6.72161">
        <ele>198.7</ele>
        <time>2023-03-04T08:19:37.000Z</time>
      </trkpt>
      <trkpt lat="43.52468" lon="6.72157">
        <ele>199</ele>
        <time>2023-03-04T08:19:38.000Z</time>
      </trkpt>
      <trkpt lat="43.52468" lon="6.7215">
        <ele>199.6</ele>
        <time>2023-03-04T08:19:40.000Z</time>
      </trkpt>
      <trkpt lat="43.52468" lon="6.72147">
        <ele>199.8</ele>
        <time>2023-03-04T08:19:41.000Z</time>
      </trkpt>
      <trkpt lat="43.52468" lon="6.72145">
        <ele>200</ele>
        <time>2023-03-04T08:19:42.000Z</time>
      </trkpt>
      <trkpt lat="43.52468" lon="6.72141">
        <ele>200.4</ele>
        <time>2023-03-04T08:19:43.000Z</time>
      </trkpt>
      <trkpt lat="43.52468" lon="6.72137">
        <ele>200.7</ele>
        <time>2023-03-04T08:19:44.000Z</time>
      </trkpt>
      <trkpt lat="43.52468" lon="6.72131">
        <ele>201.2</ele>
        <time>2023-03-04T08:19:46.000Z</time>
      </trkpt>
      <trkpt lat="43.52469" lon="6.72129">
        <ele>201.3</ele>
        <time>2023-03-04T08:19:47.000Z</time>
      </trkpt>
      <trkpt lat="43.52469" lon="6.72123">
        <ele>201.8</ele>
        <time>2023-03-04T08:19:48.000Z</time>
      </trkpt>
      <trkpt lat="43.52467" lon="6.72117">
        <ele>202.2</ele>
        <time>2023-03-04T08:19:50.000Z</time>
      </trkpt>
      <trkpt lat="43.52467" lon="6.72113">
        <ele>202.5</ele>
        <time>2023-03-04T08:19:51.000Z</time>
      </trkpt>
      <trkpt lat="43.52466" lon="6.72109">
        <ele>202.7</ele>
        <time>2023-03-04T08:19:52.000Z</time>
      </trkpt>
      <trkpt lat="43.52464" lon="6.72104">
        <ele>203</ele>
        <time>2023-03-04T08:19:53.000Z</time>
      </trkpt>
      <trkpt lat="43.52463" lon="6.72099">
        <ele>203.2</ele>
        <time>2023-03-04T08:19:55.000Z</time>
      </trkpt>
      <trkpt lat="43.5246" lon="6.72094">
        <ele>203.4</ele>
        <time>2023-03-04T08:19:56.000Z</time>
      </trkpt>
      <trkpt lat="43.52458" lon="6.72089">
        <ele>203.5</ele>
        <time>2023-03-04T08:19:57.000Z</time>
      </trkpt>
      <trkpt lat="43.52455" lon="6.72084">
        <ele>203.6</ele>
        <time>2023-03-04T08:19:58.000Z</time>
      </trkpt>
      <trkpt lat="43.52453" lon="6.72081">
        <ele>203.6</ele>
        <time>2023-03-04T08:19:59.000Z</time>
      </trkpt>
      <trkpt lat="43.52449" lon="6.72076">
        <ele>203.7</ele>
        <time>2023-03-04T08:20:00.000Z</time>
      </trkpt>
      <trkpt lat="43.52446" lon="6.72071">
        <ele>203.8</ele>
        <time>2023-03-04T08:20:01.000Z</time>
      </trkpt>
      <trkpt lat="43.52442" lon="6.72068">
        <ele>203.9</ele>
        <time>2023-03-04T08:20:03.000Z</time>
      </trkpt>
      <trkpt lat="43.52439" lon="6.72064">
        <ele>204</ele>
        <time>2023-03-04T08:20:04.000Z</time>
      </trkpt>
      <trkpt lat="43.52435" lon="6.72059">
        <ele>204.2</ele>
        <time>2023-03-04T08:20:05.000Z</time>
      </trkpt>
      <trkpt lat="43.52432" lon="6.72055">
        <ele>204.5</ele>
        <time>2023-03-04T08:20:06.000Z</time>
      </trkpt>
      <trkpt lat="43.52431" lon="6.7205">
        <ele>204.8</ele>
        <time>2023-03-04T08:20:07.000Z</time>
      </trkpt>
      <trkpt lat="43.52429" lon="6.72043">
        <ele>205.2</ele>
        <time>2023-03-04T08:20:09.000Z</time>
      </trkpt>
      <trkpt lat="43.52429" lon="6.72038">
        <ele>205.5</ele>
        <time>2023-03-04T08:20:10.000Z</time>
      </trkpt>
      <trkpt lat="43.52428" lon="6.72033">
        <ele>205.8</ele>
        <time>2023-03-04T08:20:11.000Z</time>
      </trkpt>
      <trkpt lat="43.52427" lon="6.72027">
        <ele>206.1</ele>
        <time>2023-03-04T08:20:13.000Z</time>
      </trkpt>
      <trkpt lat="43.52426" lon="6.72023">
        <ele>206.4</ele>
        <time>2023-03-04T08:20:14.000Z</time>
      </trkpt>
      <trkpt lat="43.52424" lon="6.72016">
        <ele>206.8</ele>
        <time>2023-03-04T08:20:15.000Z</time>
      </trkpt>
      <trkpt lat="43.52423" lon="6.72012">
        <ele>207</ele>
        <time>2023-03-04T08:20:16.000Z</time>
      </trkpt>
      <trkpt lat="43.52422" lon="6.72007">
        <ele>207.3</ele>
        <time>2023-03-04T08:20:17.000Z</time>
      </trkpt>
      <trkpt lat="43.5242" lon="6.72002">
        <ele>207.5</ele>
        <time>2023-03-04T08:20:19.000Z</time>
      </trkpt>
      <trkpt lat="43.52419" lon="6.71997">
        <ele>207.7</ele>
        <time>2023-03-04T08:20:20.000Z</time>
      </trkpt>
      <trkpt lat="43.52418" lon="6.71993">
        <ele>207.9</ele>
        <time>2023-03-04T08:20:21.000Z</time>
      </trkpt>
      <trkpt lat="43.52417" lon="6.71989">
        <ele>208.2</ele>
        <time>2023-03-04T08:20:22.000Z</time>
      </trkpt>
      <trkpt lat="43.52415" lon="6.71985">
        <ele>208.4</ele>
        <time>2023-03-04T08:20:23.000Z</time>
      </trkpt>
      <trkpt lat="43.52413" lon="6.7198">
        <ele>208.7</ele>
        <time>2023-03-04T08:20:24.000Z</time>
      </trkpt>
      <trkpt lat="43.52411" lon="6.71976">
        <ele>208.9</ele>
        <time>2023-03-04T08:20:25.000Z</time>
      </trkpt>
      <trkpt lat="43.52409" lon="6.71973">
        <ele>209.1</ele>
        <time>2023-03-04T08:20:26.000Z</time>
      </trkpt>
      <trkpt lat="43.52408" lon="6.7197">
        <ele>209.3</ele>
        <time>2023-03-04T08:20:27.000Z</time>
      </trkpt>
      <trkpt lat="43.52406" lon="6.71966">
        <ele>209.5</ele>
        <time>2023-03-04T08:20:29.000Z</time>
      </trkpt>
      <trkpt lat="43.52403" lon="6.71963">
        <ele>209.8</ele>
        <time>2023-03-04T08:20:30.000Z</time>
      </trkpt>
      <trkpt lat="43.524" lon="6.71957">
        <ele>210.2</ele>
        <time>2023-03-04T08:20:31.000Z</time>
      </trkpt>
      <trkpt lat="43.52398" lon="6.71954">
        <ele>210.5</ele>
        <time>2023-03-04T08:20:32.000Z</time>
      </trkpt>
      <trkpt lat="43.52396" lon="6.7195">
        <ele>210.7</ele>
        <time>2023-03-04T08:20:33.000Z</time>
      </trkpt>
      <trkpt lat="43.52393" lon="6.71946">
        <ele>211</ele>
        <time>2023-03-04T08:20:34.000Z</time>
      </trkpt>
      <trkpt lat="43.5239" lon="6.71943">
        <ele>211.4</ele>
        <time>2023-03-04T08:20:35.000Z</time>
      </trkpt>
      <trkpt lat="43.52387" lon="6.71939">
        <ele>211.7</ele>
        <time>2023-03-04T08:20:37.000Z</time>
      </trkpt>
      <trkpt lat="43.52385" lon="6.71937">
        <ele>212</ele>
        <time>2023-03-04T08:20:38.000Z</time>
      </trkpt>
      <trkpt lat="43.52382" lon="6.71934">
        <ele>212.4</ele>
        <time>2023-03-04T08:20:39.000Z</time>
      </trkpt>
      <trkpt lat="43.52379" lon="6.71932">
        <ele>212.7</ele>
        <time>2023-03-04T08:20:40.000Z</time>
      </trkpt>
      <trkpt lat="43.52377" lon="6.71928">
        <ele>213.1</ele>
        <time>2023-03-04T08:20:41.000Z</time>
      </trkpt>
      <trkpt lat="43.52376" lon="6.71927">
        <ele>213.3</ele>
        <time>2023-03-04T08:20:42.000Z</time>
      </trkpt>
      <trkpt lat="43.52374" lon="6.71923">
        <ele>213.6</ele>
        <time>2023-03-04T08:20:44.000Z</time>
      </trkpt>
      <trkpt lat="43.52373" lon="6.71921">
        <ele>213.7</ele>
        <time>2023-03-04T08:20:45.000Z</time>
      </trkpt>
      <trkpt lat="43.52372" lon="6.71918">
        <ele>214</ele>
        <time>2023-03-04T08:20:46.000Z</time>
      </trkpt>
      <trkpt lat="43.5237" lon="6.71913">
        <ele>214.4</ele>
        <time>2023-03-04T08:20:47.000Z</time>
      </trkpt>
      <trkpt lat="43.52368" lon="6.71909">
        <ele>214.8</ele>
        <time>2023-03-04T08:20:48.000Z</time>
      </trkpt>
      <trkpt lat="43.52366" lon="6.71906">
        <ele>215.2</ele>
        <time>2023-03-04T08:20:49.000Z</time>
      </trkpt>
      <trkpt lat="43.52363" lon="6.71902">
        <ele>215.5</ele>
        <time>2023-03-04T08:20:50.000Z</time>
      </trkpt>
      <trkpt lat="43.5236" lon="6.71899">
        <ele>215.9</ele>
        <time>2023-03-04T08:20:52.000Z</time>
      </trkpt>
      <trkpt lat="43.52358" lon="6.71898">
        <ele>216.2</ele>
        <time>2023-03-04T08:20:53.000Z</time>
      </trkpt>
      <trkpt lat="43.52355" lon="6.71895">
        <ele>216.6</ele>
        <time>2023-03-04T08:20:54.000Z</time>
      </trkpt>
      <trkpt lat="43.52353" lon="6.71892">
        <ele>217</ele>
        <time>2023-03-04T08:20:55.000Z</time>
      </trkpt>
      <trkpt lat="43.5235" lon="6.71889">
        <ele>217.4</ele>
        <time>2023-03-04T08:20:56.000Z</time>
      </trkpt>
      <trkpt lat="43.52348" lon="6.71886">
        <ele>217.8</ele>
        <time>2023-03-04T08:20:57.000Z</time>
      </trkpt>
      <trkpt lat="43.52345" lon="6.71883">
        <ele>218.2</ele>
        <time>2023-03-04T08:20:59.000Z</time>
      </trkpt>
      <trkpt lat="43.52342" lon="6.7188">
        <ele>218.7</ele>
        <time>2023-03-04T08:21:00.000Z</time>
      </trkpt>
      <trkpt lat="43.52339" lon="6.71877">
        <ele>219.2</ele>
        <time>2023-03-04T08:21:01.000Z</time>
      </trkpt>
      <trkpt lat="43.52338" lon="6.71876">
        <ele>219.4</ele>
        <time>2023-03-04T08:21:02.000Z</time>
      </trkpt>
      <trkpt lat="43.52336" lon="6.71872">
        <ele>219.9</ele>
        <time>2023-03-04T08:21:03.000Z</time>
      </trkpt>
      <trkpt lat="43.52335" lon="6.71871">
        <ele>220.1</ele>
        <time>2023-03-04T08:21:04.000Z</time>
      </trkpt>
      <trkpt lat="43.52333" lon="6.71869">
        <ele>220.4</ele>
        <time>2023-03-04T08:21:05.000Z</time>
      </trkpt>
      <trkpt lat="43.52329" lon="6.71867">
        <ele>221.1</ele>
        <time>2023-03-04T08:21:07.000Z</time>
      </trkpt>
      <trkpt lat="43.52326" lon="6.71865">
        <ele>221.5</ele>
        <time>2023-03-04T08:21:08.000Z</time>
      </trkpt>
      <trkpt lat="43.52323" lon="6.71862">
        <ele>221.9</ele>
        <time>2023-03-04T08:21:09.000Z</time>
      </trkpt>
      <trkpt lat="43.52323" lon="6.71862">
        <ele>222</ele>
        <time>2023-03-04T08:21:10.000Z</time>
      </trkpt>
      <trkpt lat="43.52322" lon="6.71861">
        <ele>222.2</ele>
        <time>2023-03-04T08:21:12.000Z</time>
      </trkpt>
      <trkpt lat="43.52321" lon="6.7186">
        <ele>222.3</ele>
        <time>2023-03-04T08:21:13.000Z</time>
      </trkpt>
      <trkpt lat="43.5232" lon="6.71859">
        <ele>222.5</ele>
        <time>2023-03-04T08:21:14.000Z</time>
      </trkpt>
      <trkpt lat="43.52319" lon="6.71859">
        <ele>222.6</ele>
        <time>2023-03-04T08:21:16.000Z</time>
      </trkpt>
      <trkpt lat="43.52319" lon="6.71858">
        <ele>222.7</ele>
        <time>2023-03-04T08:21:17.000Z</time>
      </trkpt>
      <trkpt lat="43.52318" lon="6.71857">
        <ele>222.8</ele>
        <time>2023-03-04T08:21:18.000Z</time>
      </trkpt>
      <trkpt lat="43.52318" lon="6.71857">
        <ele>222.9</ele>
        <time>2023-03-04T08:21:20.000Z</time>
      </trkpt>
      <trkpt lat="43.52317" lon="6.71856">
        <ele>223</ele>
        <time>2023-03-04T08:21:21.000Z</time>
      </trkpt>
      <trkpt lat="43.52317" lon="6.71855">
        <ele>223.1</ele>
        <time>2023-03-04T08:21:22.000Z</time>
      </trkpt>
      <trkpt lat="43.52314" lon="6.71852">
        <ele>223.6</ele>
        <time>2023-03-04T08:21:23.000Z</time>
      </trkpt>
      <trkpt lat="43.52313" lon="6.7185">
        <ele>223.8</ele>
        <time>2023-03-04T08:21:24.000Z</time>
      </trkpt>
      <trkpt lat="43.52311" lon="6.71848">
        <ele>224.1</ele>
        <time>2023-03-04T08:21:26.000Z</time>
      </trkpt>
      <trkpt lat="43.52308" lon="6.71843">
        <ele>224.7</ele>
        <time>2023-03-04T08:21:27.000Z</time>
      </trkpt>
      <trkpt lat="43.52307" lon="6.71842">
        <ele>224.9</ele>
        <time>2023-03-04T08:21:28.000Z</time>
      </trkpt>
      <trkpt lat="43.52304" lon="6.71838">
        <ele>225.4</ele>
        <time>2023-03-04T08:21:29.000Z</time>
      </trkpt>
      <trkpt lat="43.52303" lon="6.71836">
        <ele>225.6</ele>
        <time>2023-03-04T08:21:30.000Z</time>
      </trkpt>
      <trkpt lat="43.523" lon="6.71831">
        <ele>226.2</ele>
        <time>2023-03-04T08:21:32.000Z</time>
      </trkpt>
      <trkpt lat="43.523" lon="6.7183">
        <ele>226.4</ele>
        <time>2023-03-04T08:21:33.000Z</time>
      </trkpt>
      <trkpt lat="43.52299" lon="6.71828">
        <ele>226.6</ele>
        <time>2023-03-04T08:21:34.000Z</time>
      </trkpt>
      <trkpt lat="43.52298" lon="6.71822">
        <ele>227.2</ele>
        <time>2023-03-04T08:21:35.000Z</time>
      </trkpt>
      <trkpt lat="43.52298" lon="6.7182">
        <ele>227.4</ele>
        <time>2023-03-04T08:21:36.000Z</time>
      </trkpt>
      <trkpt lat="43.52297" lon="6.71817">
        <ele>227.7</ele>
        <time>2023-03-04T08:21:37.000Z</time>
      </trkpt>
      <trkpt lat="43.52296" lon="6.71813">
        <ele>228.1</ele>
        <time>2023-03-04T08:21:39.000Z</time>
      </trkpt>
      <trkpt lat="43.52295" lon="6.7181">
        <ele>228.5</ele>
        <time>2023-03-04T08:21:40.000Z</time>
      </trkpt>
      <trkpt lat="43.52293" lon="6.71805">
        <ele>229</ele>
        <time>2023-03-04T08:21:41.000Z</time>
      </trkpt>
      <trkpt lat="43.52292" lon="6.71802">
        <ele>229.3</ele>
        <time>2023-03-04T08:21:42.000Z</time>
      </trkpt>
      <trkpt lat="43.52292" lon="6.71801">
        <ele>229.4</ele>
        <time>2023-03-04T08:21:43.000Z</time>
      </trkpt>
      <trkpt lat="43.52292" lon="6.718">
        <ele>229.5</ele>
        <time>2023-03-04T08:21:44.000Z</time>
      </trkpt>
      <trkpt lat="43.52291" lon="6.71796">
        <ele>229.9</ele>
        <time>2023-03-04T08:21:46.000Z</time>
      </trkpt>
      <trkpt lat="43.52291" lon="6.71795">
        <ele>230</ele>
        <time>2023-03-04T08:21:47.000Z</time>
      </trkpt>
      <trkpt lat="43.5229" lon="6.71792">
        <ele>230.3</ele>
        <time>2023-03-04T08:21:48.000Z</time>
      </trkpt>
      <trkpt lat="43.5229" lon="6.71786">
        <ele>230.8</ele>
        <time>2023-03-04T08:21:50.000Z</time>
      </trkpt>
      <trkpt lat="43.52289" lon="6.71782">
        <ele>231.2</ele>
        <time>2023-03-04T08:21:51.000Z</time>
      </trkpt>
      <trkpt lat="43.52289" lon="6.71777">
        <ele>231.7</ele>
        <time>2023-03-04T08:21:52.000Z</time>
      </trkpt>
      <trkpt lat="43.52289" lon="6.71775">
        <ele>231.8</ele>
        <time>2023-03-04T08:21:53.000Z</time>
      </trkpt>
      <trkpt lat="43.52288" lon="6.71772">
        <ele>232.1</ele>
        <time>2023-03-04T08:21:54.000Z</time>
      </trkpt>
      <trkpt lat="43.52288" lon="6.71768">
        <ele>232.5</ele>
        <time>2023-03-04T08:21:56.000Z</time>
      </trkpt>
      <trkpt lat="43.52287" lon="6.71764">
        <ele>232.9</ele>
        <time>2023-03-04T08:21:57.000Z</time>
      </trkpt>
      <trkpt lat="43.52286" lon="6.7176">
        <ele>233.4</ele>
        <time>2023-03-04T08:21:58.000Z</time>
      </trkpt>
      <trkpt lat="43.52285" lon="6.71758">
        <ele>233.5</ele>
        <time>2023-03-04T08:21:59.000Z</time>
      </trkpt>
      <trkpt lat="43.52284" lon="6.71755">
        <ele>234</ele>
        <time>2023-03-04T08:22:00.000Z</time>
      </trkpt>
      <trkpt lat="43.52283" lon="6.7175">
        <ele>234.5</ele>
        <time>2023-03-04T08:22:01.000Z</time>
      </trkpt>
      <trkpt lat="43.52282" lon="6.71746">
        <ele>235</ele>
        <time>2023-03-04T08:22:03.000Z</time>
      </trkpt>
      <trkpt lat="43.52279" lon="6.71741">
        <ele>235.7</ele>
        <time>2023-03-04T08:22:04.000Z</time>
      </trkpt>
      <trkpt lat="43.52278" lon="6.71738">
        <ele>236.1</ele>
        <time>2023-03-04T08:22:05.000Z</time>
      </trkpt>
      <trkpt lat="43.52275" lon="6.71734">
        <ele>236.7</ele>
        <time>2023-03-04T08:22:06.000Z</time>
      </trkpt>
      <trkpt lat="43.52273" lon="6.71731">
        <ele>237.2</ele>
        <time>2023-03-04T08:22:07.000Z</time>
      </trkpt>
      <trkpt lat="43.52271" lon="6.71727">
        <ele>237.7</ele>
        <time>2023-03-04T08:22:08.000Z</time>
      </trkpt>
      <trkpt lat="43.52269" lon="6.71725">
        <ele>238</ele>
        <time>2023-03-04T08:22:09.000Z</time>
      </trkpt>
      <trkpt lat="43.52266" lon="6.71724">
        <ele>238.4</ele>
        <time>2023-03-04T08:22:11.000Z</time>
      </trkpt>
      <trkpt lat="43.52263" lon="6.71722">
        <ele>238.8</ele>
        <time>2023-03-04T08:22:12.000Z</time>
      </trkpt>
      <trkpt lat="43.5226" lon="6.71719">
        <ele>239.2</ele>
        <time>2023-03-04T08:22:13.000Z</time>
      </trkpt>
      <trkpt lat="43.52257" lon="6.71717">
        <ele>239.6</ele>
        <time>2023-03-04T08:22:14.000Z</time>
      </trkpt>
      <trkpt lat="43.52255" lon="6.71716">
        <ele>239.9</ele>
        <time>2023-03-04T08:22:15.000Z</time>
      </trkpt>
      <trkpt lat="43.52252" lon="6.71714">
        <ele>240.2</ele>
        <time>2023-03-04T08:22:16.000Z</time>
      </trkpt>
      <trkpt lat="43.52249" lon="6.71712">
        <ele>240.4</ele>
        <time>2023-03-04T08:22:17.000Z</time>
      </trkpt>
      <trkpt lat="43.52247" lon="6.7171">
        <ele>240.6</ele>
        <time>2023-03-04T08:22:19.000Z</time>
      </trkpt>
      <trkpt lat="43.52244" lon="6.71708">
        <ele>240.8</ele>
        <time>2023-03-04T08:22:20.000Z</time>
      </trkpt>
      <trkpt lat="43.5224" lon="6.71705">
        <ele>241.1</ele>
        <time>2023-03-04T08:22:21.000Z</time>
      </trkpt>
      <trkpt lat="43.52236" lon="6.71701">
        <ele>241.4</ele>
        <time>2023-03-04T08:22:22.000Z</time>
      </trkpt>
      <trkpt lat="43.52234" lon="6.71698">
        <ele>241.6</ele>
        <time>2023-03-04T08:22:23.000Z</time>
      </trkpt>
      <trkpt lat="43.52232" lon="6.71694">
        <ele>241.9</ele>
        <time>2023-03-04T08:22:24.000Z</time>
      </trkpt>
      <trkpt lat="43.52229" lon="6.71689">
        <ele>242.2</ele>
        <time>2023-03-04T08:22:25.000Z</time>
      </trkpt>
      <trkpt lat="43.52227" lon="6.71685">
        <ele>242.5</ele>
        <time>2023-03-04T08:22:27.000Z</time>
      </trkpt>
      <trkpt lat="43.52226" lon="6.71681">
        <ele>242.8</ele>
        <time>2023-03-04T08:22:28.000Z</time>
      </trkpt>
      <trkpt lat="43.52224" lon="6.71676">
        <ele>243.2</ele>
        <time>2023-03-04T08:22:29.000Z</time>
      </trkpt>
      <trkpt lat="43.52222" lon="6.71671">
        <ele>243.5</ele>
        <time>2023-03-04T08:22:30.000Z</time>
      </trkpt>
      <trkpt lat="43.52221" lon="6.71667">
        <ele>243.8</ele>
        <time>2023-03-04T08:22:31.000Z</time>
      </trkpt>
      <trkpt lat="43.52218" lon="6.71664">
        <ele>244</ele>
        <time>2023-03-04T08:22:33.000Z</time>
      </trkpt>
      <trkpt lat="43.52216" lon="6.71661">
        <ele>244.3</ele>
        <time>2023-03-04T08:22:34.000Z</time>
      </trkpt>
      <trkpt lat="43.52213" lon="6.71655">
        <ele>244.7</ele>
        <time>2023-03-04T08:22:35.000Z</time>
      </trkpt>
      <trkpt lat="43.52211" lon="6.7165">
        <ele>245</ele>
        <time>2023-03-04T08:22:37.000Z</time>
      </trkpt>
      <trkpt lat="43.52209" lon="6.71647">
        <ele>245.2</ele>
        <time>2023-03-04T08:22:38.000Z</time>
      </trkpt>
      <trkpt lat="43.52207" lon="6.71642">
        <ele>245.6</ele>
        <time>2023-03-04T08:22:39.000Z</time>
      </trkpt>
      <trkpt lat="43.52206" lon="6.71639">
        <ele>245.7</ele>
        <time>2023-03-04T08:22:40.000Z</time>
      </trkpt>
      <trkpt lat="43.52205" lon="6.71636">
        <ele>246</ele>
        <time>2023-03-04T08:22:41.000Z</time>
      </trkpt>
      <trkpt lat="43.52203" lon="6.71634">
        <ele>246.2</ele>
        <time>2023-03-04T08:22:42.000Z</time>
      </trkpt>
      <trkpt lat="43.52201" lon="6.7163">
        <ele>246.5</ele>
        <time>2023-03-04T08:22:44.000Z</time>
      </trkpt>
      <trkpt lat="43.52199" lon="6.71626">
        <ele>246.9</ele>
        <time>2023-03-04T08:22:45.000Z</time>
      </trkpt>
      <trkpt lat="43.52197" lon="6.71623">
        <ele>247.2</ele>
        <time>2023-03-04T08:22:46.000Z</time>
      </trkpt>
      <trkpt lat="43.52194" lon="6.71621">
        <ele>247.5</ele>
        <time>2023-03-04T08:22:47.000Z</time>
      </trkpt>
      <trkpt lat="43.52192" lon="6.71618">
        <ele>247.8</ele>
        <time>2023-03-04T08:22:48.000Z</time>
      </trkpt>
      <trkpt lat="43.5219" lon="6.71616">
        <ele>248.1</ele>
        <time>2023-03-04T08:22:49.000Z</time>
      </trkpt>
      <trkpt lat="43.52188" lon="6.71612">
        <ele>248.4</ele>
        <time>2023-03-04T08:22:51.000Z</time>
      </trkpt>
      <trkpt lat="43.52185" lon="6.7161">
        <ele>248.8</ele>
        <time>2023-03-04T08:22:52.000Z</time>
      </trkpt>
      <trkpt lat="43.52183" lon="6.71607">
        <ele>249.2</ele>
        <time>2023-03-04T08:22:53.000Z</time>
      </trkpt>
      <trkpt lat="43.5218" lon="6.71603">
        <ele>249.6</ele>
        <time>2023-03-04T08:22:54.000Z</time>
      </trkpt>
      <trkpt lat="43.52179" lon="6.71602">
        <ele>249.8</ele>
        <time>2023-03-04T08:22:55.000Z</time>
      </trkpt>
      <trkpt lat="43.52178" lon="6.716">
        <ele>250</ele>
        <time>2023-03-04T08:22:56.000Z</time>
      </trkpt>
      <trkpt lat="43.52177" lon="6.71598">
        <ele>250.3</ele>
        <time>2023-03-04T08:22:58.000Z</time>
      </trkpt>
      <trkpt lat="43.52175" lon="6.71594">
        <ele>250.7</ele>
        <time>2023-03-04T08:22:59.000Z</time>
      </trkpt>
      <trkpt lat="43.52175" lon="6.71593">
        <ele>250.8</ele>
        <time>2023-03-04T08:23:00.000Z</time>
      </trkpt>
      <trkpt lat="43.52173" lon="6.71588">
        <ele>251.3</ele>
        <time>2023-03-04T08:23:01.000Z</time>
      </trkpt>
      <trkpt lat="43.52172" lon="6.71584">
        <ele>251.7</ele>
        <time>2023-03-04T08:23:02.000Z</time>
      </trkpt>
      <trkpt lat="43.52171" lon="6.71583">
        <ele>251.9</ele>
        <time>2023-03-04T08:23:03.000Z</time>
      </trkpt>
      <trkpt lat="43.52169" lon="6.71577">
        <ele>252.6</ele>
        <time>2023-03-04T08:23:05.000Z</time>
      </trkpt>
      <trkpt lat="43.52169" lon="6.71575">
        <ele>252.8</ele>
        <time>2023-03-04T08:23:06.000Z</time>
      </trkpt>
      <trkpt lat="43.52168" lon="6.71573">
        <ele>253</ele>
        <time>2023-03-04T08:23:07.000Z</time>
      </trkpt>
      <trkpt lat="43.52167" lon="6.71569">
        <ele>253.6</ele>
        <time>2023-03-04T08:23:08.000Z</time>
      </trkpt>
      <trkpt lat="43.52166" lon="6.71567">
        <ele>253.7</ele>
        <time>2023-03-04T08:23:09.000Z</time>
      </trkpt>
      <trkpt lat="43.52164" lon="6.71564">
        <ele>254.2</ele>
        <time>2023-03-04T08:23:10.000Z</time>
      </trkpt>
      <trkpt lat="43.52164" lon="6.71562">
        <ele>254.4</ele>
        <time>2023-03-04T08:23:11.000Z</time>
      </trkpt>
      <trkpt lat="43.52162" lon="6.71557">
        <ele>255.1</ele>
        <time>2023-03-04T08:23:13.000Z</time>
      </trkpt>
      <trkpt lat="43.52161" lon="6.71554">
        <ele>255.4</ele>
        <time>2023-03-04T08:23:14.000Z</time>
      </trkpt>
      <trkpt lat="43.52161" lon="6.71552">
        <ele>255.6</ele>
        <time>2023-03-04T08:23:15.000Z</time>
      </trkpt>
      <trkpt lat="43.52159" lon="6.71548">
        <ele>256.2</ele>
        <time>2023-03-04T08:23:16.000Z</time>
      </trkpt>
      <trkpt lat="43.52158" lon="6.71546">
        <ele>256.5</ele>
        <time>2023-03-04T08:23:17.000Z</time>
      </trkpt>
      <trkpt lat="43.52155" lon="6.71541">
        <ele>257.2</ele>
        <time>2023-03-04T08:23:19.000Z</time>
      </trkpt>
      <trkpt lat="43.52155" lon="6.7154">
        <ele>257.5</ele>
        <time>2023-03-04T08:23:20.000Z</time>
      </trkpt>
      <trkpt lat="43.52154" lon="6.71538">
        <ele>257.7</ele>
        <time>2023-03-04T08:23:21.000Z</time>
      </trkpt>
      <trkpt lat="43.52152" lon="6.71533">
        <ele>258.4</ele>
        <time>2023-03-04T08:23:22.000Z</time>
      </trkpt>
      <trkpt lat="43.52151" lon="6.71532">
        <ele>258.7</ele>
        <time>2023-03-04T08:23:23.000Z</time>
      </trkpt>
      <trkpt lat="43.5215" lon="6.7153">
        <ele>259.1</ele>
        <time>2023-03-04T08:23:24.000Z</time>
      </trkpt>
      <trkpt lat="43.52149" lon="6.71528">
        <ele>259.5</ele>
        <time>2023-03-04T08:23:26.000Z</time>
      </trkpt>
      <trkpt lat="43.52146" lon="6.71525">
        <ele>260.3</ele>
        <time>2023-03-04T08:23:27.000Z</time>
      </trkpt>
      <trkpt lat="43.52145" lon="6.71524">
        <ele>260.5</ele>
        <time>2023-03-04T08:23:28.000Z</time>
      </trkpt>
      <trkpt lat="43.52143" lon="6.71523">
        <ele>261.3</ele>
        <time>2023-03-04T08:23:29.000Z</time>
      </trkpt>
      <trkpt lat="43.52142" lon="6.71523">
        <ele>261.5</ele>
        <time>2023-03-04T08:23:30.000Z</time>
      </trkpt>
      <trkpt lat="43.52141" lon="6.71524">
        <ele>261.8</ele>
        <time>2023-03-04T08:23:31.000Z</time>
      </trkpt>
      <trkpt lat="43.52141" lon="6.71524">
        <ele>261.8</ele>
        <time>2023-03-04T08:23:33.000Z</time>
      </trkpt>
      <trkpt lat="43.5214" lon="6.71524">
        <ele>261.9</ele>
        <time>2023-03-04T08:23:34.000Z</time>
      </trkpt>
      <trkpt lat="43.5214" lon="6.71524">
        <ele>262</ele>
        <time>2023-03-04T08:23:36.000Z</time>
      </trkpt>
      <trkpt lat="43.5214" lon="6.71524">
        <ele>262</ele>
        <time>2023-03-04T08:23:37.000Z</time>
      </trkpt>
      <trkpt lat="43.5214" lon="6.71524">
        <ele>262</ele>
        <time>2023-03-04T08:23:38.000Z</time>
      </trkpt>
      <trkpt lat="43.52139" lon="6.71524">
        <ele>262.1</ele>
        <time>2023-03-04T08:23:40.000Z</time>
      </trkpt>
      <trkpt lat="43.52139" lon="6.71524">
        <ele>262.2</ele>
        <time>2023-03-04T08:23:41.000Z</time>
      </trkpt>
      <trkpt lat="43.52139" lon="6.71524">
        <ele>262.3</ele>
        <time>2023-03-04T08:23:42.000Z</time>
      </trkpt>
      <trkpt lat="43.52138" lon="6.71524">
        <ele>262.5</ele>
        <time>2023-03-04T08:23:44.000Z</time>
      </trkpt>
      <trkpt lat="43.52137" lon="6.71524">
        <ele>262.7</ele>
        <time>2023-03-04T08:23:45.000Z</time>
      </trkpt>
      <trkpt lat="43.52136" lon="6.71525">
        <ele>262.9</ele>
        <time>2023-03-04T08:23:47.000Z</time>
      </trkpt>
      <trkpt lat="43.52136" lon="6.71525">
        <ele>263</ele>
        <time>2023-03-04T08:23:48.000Z</time>
      </trkpt>
      <trkpt lat="43.52136" lon="6.71525">
        <ele>263</ele>
        <time>2023-03-04T08:23:50.000Z</time>
      </trkpt>
      <trkpt lat="43.52136" lon="6.71525">
        <ele>263</ele>
        <time>2023-03-04T08:23:51.000Z</time>
      </trkpt>
      <trkpt lat="43.52136" lon="6.71525">
        <ele>263</ele>
        <time>2023-03-04T08:23:52.000Z</time>
      </trkpt>
      <trkpt lat="43.52136" lon="6.71525">
        <ele>263.1</ele>
        <time>2023-03-04T08:23:54.000Z</time>
      </trkpt>
      <trkpt lat="43.52136" lon="6.71525">
        <ele>263.1</ele>
        <time>2023-03-04T08:23:55.000Z</time>
      </trkpt>
      <trkpt lat="43.52136" lon="6.71525">
        <ele>263.1</ele>
        <time>2023-03-04T08:23:56.000Z</time>
      </trkpt>
      <trkpt lat="43.52136" lon="6.71525">
        <ele>263.1</ele>
        <time>2023-03-04T08:23:58.000Z</time>
      </trkpt>
      <trkpt lat="43.52133" lon="6.71527">
        <ele>263.9</ele>
        <time>2023-03-04T08:24:07.000Z</time>
      </trkpt>
      <trkpt lat="43.52131" lon="6.7153">
        <ele>264.5</ele>
        <time>2023-03-04T08:24:09.000Z</time>
      </trkpt>
      <trkpt lat="43.52129" lon="6.71532">
        <ele>265.1</ele>
        <time>2023-03-04T08:24:10.000Z</time>
      </trkpt>
      <trkpt lat="43.52126" lon="6.71532">
        <ele>265.7</ele>
        <time>2023-03-04T08:24:11.000Z</time>
      </trkpt>
      <trkpt lat="43.52123" lon="6.71532">
        <ele>266.2</ele>
        <time>2023-03-04T08:24:12.000Z</time>
      </trkpt>
      <trkpt lat="43.5212" lon="6.71533">
        <ele>266.7</ele>
        <time>2023-03-04T08:24:13.000Z</time>
      </trkpt>
      <trkpt lat="43.52118" lon="6.71533">
        <ele>267.1</ele>
        <time>2023-03-04T08:24:14.000Z</time>
      </trkpt>
      <trkpt lat="43.52114" lon="6.71533">
        <ele>267.7</ele>
        <time>2023-03-04T08:24:16.000Z</time>
      </trkpt>
      <trkpt lat="43.52111" lon="6.71532">
        <ele>268.2</ele>
        <time>2023-03-04T08:24:17.000Z</time>
      </trkpt>
      <trkpt lat="43.52109" lon="6.71531">
        <ele>268.4</ele>
        <time>2023-03-04T08:24:18.000Z</time>
      </trkpt>
      <trkpt lat="43.52106" lon="6.7153">
        <ele>268.9</ele>
        <time>2023-03-04T08:24:19.000Z</time>
      </trkpt>
      <trkpt lat="43.52104" lon="6.71529">
        <ele>269.1</ele>
        <time>2023-03-04T08:24:20.000Z</time>
      </trkpt>
      <trkpt lat="43.52102" lon="6.71527">
        <ele>269.4</ele>
        <time>2023-03-04T08:24:21.000Z</time>
      </trkpt>
      <trkpt lat="43.52098" lon="6.71525">
        <ele>269.8</ele>
        <time>2023-03-04T08:24:23.000Z</time>
      </trkpt>
      <trkpt lat="43.52095" lon="6.71524">
        <ele>270.2</ele>
        <time>2023-03-04T08:24:24.000Z</time>
      </trkpt>
      <trkpt lat="43.52092" lon="6.71521">
        <ele>270.5</ele>
        <time>2023-03-04T08:24:25.000Z</time>
      </trkpt>
      <trkpt lat="43.52091" lon="6.71521">
        <ele>270.7</ele>
        <time>2023-03-04T08:24:26.000Z</time>
      </trkpt>
      <trkpt lat="43.52088" lon="6.71519">
        <ele>271</ele>
        <time>2023-03-04T08:24:27.000Z</time>
      </trkpt>
      <trkpt lat="43.52086" lon="6.71517">
        <ele>271.2</ele>
        <time>2023-03-04T08:24:28.000Z</time>
      </trkpt>
      <trkpt lat="43.52084" lon="6.71515">
        <ele>271.5</ele>
        <time>2023-03-04T08:24:30.000Z</time>
      </trkpt>
      <trkpt lat="43.5208" lon="6.71512">
        <ele>271.9</ele>
        <time>2023-03-04T08:24:31.000Z</time>
      </trkpt>
      <trkpt lat="43.52078" lon="6.71512">
        <ele>272.1</ele>
        <time>2023-03-04T08:24:32.000Z</time>
      </trkpt>
      <trkpt lat="43.52075" lon="6.71511">
        <ele>272.4</ele>
        <time>2023-03-04T08:24:33.000Z</time>
      </trkpt>
      <trkpt lat="43.52072" lon="6.7151">
        <ele>272.7</ele>
        <time>2023-03-04T08:24:34.000Z</time>
      </trkpt>
      <trkpt lat="43.52069" lon="6.71509">
        <ele>273</ele>
        <time>2023-03-04T08:24:35.000Z</time>
      </trkpt>
      <trkpt lat="43.52066" lon="6.71508">
        <ele>273.4</ele>
        <time>2023-03-04T08:24:36.000Z</time>
      </trkpt>
      <trkpt lat="43.5206" lon="6.71507">
        <ele>273.9</ele>
        <time>2023-03-04T08:24:38.000Z</time>
      </trkpt>
      <trkpt lat="43.52058" lon="6.71506">
        <ele>274.2</ele>
        <time>2023-03-04T08:24:39.000Z</time>
      </trkpt>
      <trkpt lat="43.52056" lon="6.71506">
        <ele>274.4</ele>
        <time>2023-03-04T08:24:40.000Z</time>
      </trkpt>
      <trkpt lat="43.52052" lon="6.71505">
        <ele>277.3</ele>
        <time>2023-03-04T08:24:41.000Z</time>
      </trkpt>
      <trkpt lat="43.5205" lon="6.71505">
        <ele>277.6</ele>
        <time>2023-03-04T08:24:42.000Z</time>
      </trkpt>
      <trkpt lat="43.52046" lon="6.71504">
        <ele>277.5</ele>
        <time>2023-03-04T08:24:43.000Z</time>
      </trkpt>
      <trkpt lat="43.52045" lon="6.71504">
        <ele>277.4</ele>
        <time>2023-03-04T08:24:44.000Z</time>
      </trkpt>
      <trkpt lat="43.52042" lon="6.71504">
        <ele>279.6</ele>
        <time>2023-03-04T08:24:46.000Z</time>
      </trkpt>
      <trkpt lat="43.52038" lon="6.71503">
        <ele>279.5</ele>
        <time>2023-03-04T08:24:47.000Z</time>
      </trkpt>
      <trkpt lat="43.52034" lon="6.71502">
        <ele>279.4</ele>
        <time>2023-03-04T08:24:49.000Z</time>
      </trkpt>
      <trkpt lat="43.52031" lon="6.71499">
        <ele>279.3</ele>
        <time>2023-03-04T08:24:50.000Z</time>
      </trkpt>
      <trkpt lat="43.52028" lon="6.71497">
        <ele>281.7</ele>
        <time>2023-03-04T08:24:52.000Z</time>
      </trkpt>
      <trkpt lat="43.52025" lon="6.71495">
        <ele>281.6</ele>
        <time>2023-03-04T08:24:53.000Z</time>
      </trkpt>
      <trkpt lat="43.52022" lon="6.71494">
        <ele>281.5</ele>
        <time>2023-03-04T08:24:54.000Z</time>
      </trkpt>
      <trkpt lat="43.5202" lon="6.71492">
        <ele>281.4</ele>
        <time>2023-03-04T08:24:55.000Z</time>
      </trkpt>
      <trkpt lat="43.52019" lon="6.71492">
        <ele>281.3</ele>
        <time>2023-03-04T08:24:56.000Z</time>
      </trkpt>
      <trkpt lat="43.52016" lon="6.71491">
        <ele>283</ele>
        <time>2023-03-04T08:24:57.000Z</time>
      </trkpt>
      <trkpt lat="43.52013" lon="6.71489">
        <ele>283.2</ele>
        <time>2023-03-04T08:24:58.000Z</time>
      </trkpt>
      <trkpt lat="43.5201" lon="6.71488">
        <ele>283.5</ele>
        <time>2023-03-04T08:24:59.000Z</time>
      </trkpt>
      <trkpt lat="43.52005" lon="6.71485">
        <ele>283.8</ele>
        <time>2023-03-04T08:25:01.000Z</time>
      </trkpt>
      <trkpt lat="43.52004" lon="6.71484">
        <ele>283.9</ele>
        <time>2023-03-04T08:25:02.000Z</time>
      </trkpt>
      <trkpt lat="43.52003" lon="6.71483">
        <ele>284</ele>
        <time>2023-03-04T08:25:03.000Z</time>
      </trkpt>
      <trkpt lat="43.52" lon="6.7148">
        <ele>284.2</ele>
        <time>2023-03-04T08:25:04.000Z</time>
      </trkpt>
      <trkpt lat="43.51997" lon="6.71477">
        <ele>284.4</ele>
        <time>2023-03-04T08:25:05.000Z</time>
      </trkpt>
      <trkpt lat="43.51996" lon="6.71477">
        <ele>284.5</ele>
        <time>2023-03-04T08:25:06.000Z</time>
      </trkpt>
      <trkpt lat="43.51993" lon="6.71475">
        <ele>284.6</ele>
        <time>2023-03-04T08:25:08.000Z</time>
      </trkpt>
      <trkpt lat="43.51991" lon="6.71473">
        <ele>284.8</ele>
        <time>2023-03-04T08:25:09.000Z</time>
      </trkpt>
      <trkpt lat="43.51988" lon="6.71471">
        <ele>285</ele>
        <time>2023-03-04T08:25:10.000Z</time>
      </trkpt>
      <trkpt lat="43.51985" lon="6.7147">
        <ele>285.2</ele>
        <time>2023-03-04T08:25:11.000Z</time>
      </trkpt>
      <trkpt lat="43.51985" lon="6.71469">
        <ele>285.3</ele>
        <time>2023-03-04T08:25:12.000Z</time>
      </trkpt>
      <trkpt lat="43.51983" lon="6.71468">
        <ele>285.4</ele>
        <time>2023-03-04T08:25:13.000Z</time>
      </trkpt>
      <trkpt lat="43.51983" lon="6.71468">
        <ele>285.4</ele>
        <time>2023-03-04T08:25:14.000Z</time>
      </trkpt>
      <trkpt lat="43.51982" lon="6.71467">
        <ele>285.5</ele>
        <time>2023-03-04T08:25:16.000Z</time>
      </trkpt>
      <trkpt lat="43.51981" lon="6.71467">
        <ele>285.5</ele>
        <time>2023-03-04T08:25:17.000Z</time>
      </trkpt>
      <trkpt lat="43.51978" lon="6.71464">
        <ele>285.8</ele>
        <time>2023-03-04T08:25:18.000Z</time>
      </trkpt>
      <trkpt lat="43.51977" lon="6.71463">
        <ele>285.9</ele>
        <time>2023-03-04T08:25:19.000Z</time>
      </trkpt>
      <trkpt lat="43.51974" lon="6.71462">
        <ele>286.1</ele>
        <time>2023-03-04T08:25:21.000Z</time>
      </trkpt>
      <trkpt lat="43.51971" lon="6.71461">
        <ele>286.2</ele>
        <time>2023-03-04T08:25:22.000Z</time>
      </trkpt>
      <trkpt lat="43.51969" lon="6.71461">
        <ele>286.4</ele>
        <time>2023-03-04T08:25:23.000Z</time>
      </trkpt>
      <trkpt lat="43.51965" lon="6.7146">
        <ele>286.7</ele>
        <time>2023-03-04T08:25:24.000Z</time>
      </trkpt>
      <trkpt lat="43.51962" lon="6.7146">
        <ele>286.9</ele>
        <time>2023-03-04T08:25:25.000Z</time>
      </trkpt>
      <trkpt lat="43.5196" lon="6.7146">
        <ele>287</ele>
        <time>2023-03-04T08:25:26.000Z</time>
      </trkpt>
      <trkpt lat="43.51958" lon="6.7146">
        <ele>287.1</ele>
        <time>2023-03-04T08:25:27.000Z</time>
      </trkpt>
      <trkpt lat="43.51954" lon="6.7146">
        <ele>286.9</ele>
        <time>2023-03-04T08:25:28.000Z</time>
      </trkpt>
      <trkpt lat="43.51954" lon="6.71459">
        <ele>286.9</ele>
        <time>2023-03-04T08:25:29.000Z</time>
      </trkpt>
      <trkpt lat="43.51951" lon="6.71458">
        <ele>286.7</ele>
        <time>2023-03-04T08:25:31.000Z</time>
      </trkpt>
      <trkpt lat="43.5195" lon="6.71458">
        <ele>286.7</ele>
        <time>2023-03-04T08:25:32.000Z</time>
      </trkpt>
      <trkpt lat="43.51951" lon="6.71458">
        <ele>286.7</ele>
        <time>2023-03-04T08:25:34.000Z</time>
      </trkpt>
      <trkpt lat="43.5195" lon="6.71458">
        <ele>286.7</ele>
        <time>2023-03-04T08:25:35.000Z</time>
      </trkpt>
      <trkpt lat="43.51951" lon="6.71458">
        <ele>286.7</ele>
        <time>2023-03-04T08:25:36.000Z</time>
      </trkpt>
      <trkpt lat="43.51951" lon="6.71458">
        <ele>286.7</ele>
        <time>2023-03-04T08:25:38.000Z</time>
      </trkpt>
      <trkpt lat="43.5195" lon="6.71458">
        <ele>286.7</ele>
        <time>2023-03-04T08:25:39.000Z</time>
      </trkpt>
      <trkpt lat="43.5195" lon="6.71458">
        <ele>286.7</ele>
        <time>2023-03-04T08:25:41.000Z</time>
      </trkpt>
      <trkpt lat="43.5195" lon="6.71458">
        <ele>286.7</ele>
        <time>2023-03-04T08:25:42.000Z</time>
      </trkpt>
      <trkpt lat="43.51954" lon="6.71455">
        <ele>286.4</ele>
        <time>2023-03-04T08:30:22.000Z</time>
      </trkpt>
      <trkpt lat="43.51955" lon="6.71456">
        <ele>286.3</ele>
        <time>2023-03-04T08:30:23.000Z</time>
      </trkpt>
      <trkpt lat="43.51956" lon="6.71457">
        <ele>286.2</ele>
        <time>2023-03-04T08:30:24.000Z</time>
      </trkpt>
      <trkpt lat="43.51959" lon="6.71459">
        <ele>286.1</ele>
        <time>2023-03-04T08:30:26.000Z</time>
      </trkpt>
      <trkpt lat="43.51962" lon="6.7146">
        <ele>285.9</ele>
        <time>2023-03-04T08:30:27.000Z</time>
      </trkpt>
      <trkpt lat="43.51965" lon="6.71462">
        <ele>285.7</ele>
        <time>2023-03-04T08:30:28.000Z</time>
      </trkpt>
      <trkpt lat="43.51969" lon="6.71464">
        <ele>285.5</ele>
        <time>2023-03-04T08:30:29.000Z</time>
      </trkpt>
      <trkpt lat="43.51974" lon="6.71466">
        <ele>285.1</ele>
        <time>2023-03-04T08:30:31.000Z</time>
      </trkpt>
      <trkpt lat="43.51978" lon="6.71466">
        <ele>284.9</ele>
        <time>2023-03-04T08:30:32.000Z</time>
      </trkpt>
      <trkpt lat="43.5199" lon="6.71467">
        <ele>284.2</ele>
        <time>2023-03-04T08:30:33.000Z</time>
      </trkpt>
      <trkpt lat="43.51996" lon="6.71468">
        <ele>283.9</ele>
        <time>2023-03-04T08:30:34.000Z</time>
      </trkpt>
      <trkpt lat="43.52002" lon="6.71469">
        <ele>283.5</ele>
        <time>2023-03-04T08:30:35.000Z</time>
      </trkpt>
      <trkpt lat="43.52006" lon="6.71469">
        <ele>283.3</ele>
        <time>2023-03-04T08:30:36.000Z</time>
      </trkpt>
      <trkpt lat="43.52011" lon="6.7147">
        <ele>283</ele>
        <time>2023-03-04T08:30:37.000Z</time>
      </trkpt>
      <trkpt lat="43.52018" lon="6.71471">
        <ele>282.6</ele>
        <time>2023-03-04T08:30:39.000Z</time>
      </trkpt>
      <trkpt lat="43.52021" lon="6.71472">
        <ele>282.4</ele>
        <time>2023-03-04T08:30:40.000Z</time>
      </trkpt>
      <trkpt lat="43.52027" lon="6.71472">
        <ele>282</ele>
        <time>2023-03-04T08:30:41.000Z</time>
      </trkpt>
      <trkpt lat="43.52032" lon="6.71472">
        <ele>281.7</ele>
        <time>2023-03-04T08:30:42.000Z</time>
      </trkpt>
      <trkpt lat="43.52037" lon="6.71472">
        <ele>281.4</ele>
        <time>2023-03-04T08:30:43.000Z</time>
      </trkpt>
      <trkpt lat="43.52041" lon="6.71472">
        <ele>281.2</ele>
        <time>2023-03-04T08:30:44.000Z</time>
      </trkpt>
      <trkpt lat="43.52046" lon="6.71472">
        <ele>280.8</ele>
        <time>2023-03-04T08:30:45.000Z</time>
      </trkpt>
      <trkpt lat="43.52052" lon="6.7147">
        <ele>280.5</ele>
        <time>2023-03-04T08:30:46.000Z</time>
      </trkpt>
      <trkpt lat="43.52057" lon="6.71469">
        <ele>280.2</ele>
        <time>2023-03-04T08:30:47.000Z</time>
      </trkpt>
      <trkpt lat="43.52062" lon="6.71468">
        <ele>279.8</ele>
        <time>2023-03-04T08:30:48.000Z</time>
      </trkpt>
      <trkpt lat="43.52067" lon="6.71467">
        <ele>279.5</ele>
        <time>2023-03-04T08:30:49.000Z</time>
      </trkpt>
      <trkpt lat="43.52072" lon="6.71465">
        <ele>279.2</ele>
        <time>2023-03-04T08:30:50.000Z</time>
      </trkpt>
      <trkpt lat="43.52077" lon="6.71464">
        <ele>278.9</ele>
        <time>2023-03-04T08:30:51.000Z</time>
      </trkpt>
      <trkpt lat="43.52082" lon="6.71463">
        <ele>278.6</ele>
        <time>2023-03-04T08:30:52.000Z</time>
      </trkpt>
      <trkpt lat="43.52086" lon="6.71461">
        <ele>278.3</ele>
        <time>2023-03-04T08:30:53.000Z</time>
      </trkpt>
      <trkpt lat="43.52091" lon="6.71459">
        <ele>278</ele>
        <time>2023-03-04T08:30:54.000Z</time>
      </trkpt>
      <trkpt lat="43.52095" lon="6.71457">
        <ele>277.7</ele>
        <time>2023-03-04T08:30:55.000Z</time>
      </trkpt>
      <trkpt lat="43.52099" lon="6.71454">
        <ele>277.4</ele>
        <time>2023-03-04T08:30:56.000Z</time>
      </trkpt>
      <trkpt lat="43.52103" lon="6.71451">
        <ele>277.2</ele>
        <time>2023-03-04T08:30:57.000Z</time>
      </trkpt>
      <trkpt lat="43.52107" lon="6.71448">
        <ele>276.9</ele>
        <time>2023-03-04T08:30:58.000Z</time>
      </trkpt>
      <trkpt lat="43.52111" lon="6.71445">
        <ele>276.6</ele>
        <time>2023-03-04T08:30:59.000Z</time>
      </trkpt>
      <trkpt lat="43.52115" lon="6.71443">
        <ele>276.4</ele>
        <time>2023-03-04T08:31:00.000Z</time>
      </trkpt>
      <trkpt lat="43.52119" lon="6.71439">
        <ele>276.1</ele>
        <time>2023-03-04T08:31:01.000Z</time>
      </trkpt>
      <trkpt lat="43.52123" lon="6.71435">
        <ele>275.9</ele>
        <time>2023-03-04T08:31:02.000Z</time>
      </trkpt>
      <trkpt lat="43.52127" lon="6.71432">
        <ele>275.6</ele>
        <time>2023-03-04T08:31:03.000Z</time>
      </trkpt>
      <trkpt lat="43.52131" lon="6.71428">
        <ele>275.3</ele>
        <time>2023-03-04T08:31:04.000Z</time>
      </trkpt>
      <trkpt lat="43.52135" lon="6.71424">
        <ele>275.1</ele>
        <time>2023-03-04T08:31:05.000Z</time>
      </trkpt>
      <trkpt lat="43.52138" lon="6.71419">
        <ele>274.9</ele>
        <time>2023-03-04T08:31:06.000Z</time>
      </trkpt>
      <trkpt lat="43.52142" lon="6.71414">
        <ele>274.6</ele>
        <time>2023-03-04T08:31:07.000Z</time>
      </trkpt>
      <trkpt lat="43.52145" lon="6.71408">
        <ele>274.4</ele>
        <time>2023-03-04T08:31:08.000Z</time>
      </trkpt>
      <trkpt lat="43.52148" lon="6.71401">
        <ele>274.1</ele>
        <time>2023-03-04T08:31:09.000Z</time>
      </trkpt>
      <trkpt lat="43.52151" lon="6.71393">
        <ele>273.9</ele>
        <time>2023-03-04T08:31:10.000Z</time>
      </trkpt>
      <trkpt lat="43.52152" lon="6.71386">
        <ele>273.7</ele>
        <time>2023-03-04T08:31:11.000Z</time>
      </trkpt>
      <trkpt lat="43.52154" lon="6.71378">
        <ele>273.5</ele>
        <time>2023-03-04T08:31:12.000Z</time>
      </trkpt>
      <trkpt lat="43.52156" lon="6.71371">
        <ele>273.2</ele>
        <time>2023-03-04T08:31:13.000Z</time>
      </trkpt>
      <trkpt lat="43.52157" lon="6.71363">
        <ele>273</ele>
        <time>2023-03-04T08:31:14.000Z</time>
      </trkpt>
      <trkpt lat="43.52158" lon="6.71355">
        <ele>272.8</ele>
        <time>2023-03-04T08:31:15.000Z</time>
      </trkpt>
      <trkpt lat="43.52159" lon="6.71347">
        <ele>272.6</ele>
        <time>2023-03-04T08:31:16.000Z</time>
      </trkpt>
      <trkpt lat="43.5216" lon="6.7134">
        <ele>272.4</ele>
        <time>2023-03-04T08:31:17.000Z</time>
      </trkpt>
      <trkpt lat="43.52162" lon="6.71333">
        <ele>272.3</ele>
        <time>2023-03-04T08:31:18.000Z</time>
      </trkpt>
      <trkpt lat="43.52163" lon="6.71326">
        <ele>272.1</ele>
        <time>2023-03-04T08:31:19.000Z</time>
      </trkpt>
      <trkpt lat="43.52165" lon="6.7132">
        <ele>272</ele>
        <time>2023-03-04T08:31:20.000Z</time>
      </trkpt>
      <trkpt lat="43.52168" lon="6.71313">
        <ele>271.9</ele>
        <time>2023-03-04T08:31:21.000Z</time>
      </trkpt>
      <trkpt lat="43.52169" lon="6.71307">
        <ele>271.8</ele>
        <time>2023-03-04T08:31:22.000Z</time>
      </trkpt>
      <trkpt lat="43.52171" lon="6.713">
        <ele>271.7</ele>
        <time>2023-03-04T08:31:23.000Z</time>
      </trkpt>
      <trkpt lat="43.52171" lon="6.71294">
        <ele>271.6</ele>
        <time>2023-03-04T08:31:24.000Z</time>
      </trkpt>
      <trkpt lat="43.52172" lon="6.71288">
        <ele>271.5</ele>
        <time>2023-03-04T08:31:25.000Z</time>
      </trkpt>
      <trkpt lat="43.52172" lon="6.71281">
        <ele>271.4</ele>
        <time>2023-03-04T08:31:26.000Z</time>
      </trkpt>
      <trkpt lat="43.52172" lon="6.71275">
        <ele>271.3</ele>
        <time>2023-03-04T08:31:27.000Z</time>
      </trkpt>
      <trkpt lat="43.52172" lon="6.71271">
        <ele>271.2</ele>
        <time>2023-03-04T08:31:28.000Z</time>
      </trkpt>
      <trkpt lat="43.52173" lon="6.71263">
        <ele>271.1</ele>
        <time>2023-03-04T08:31:29.000Z</time>
      </trkpt>
      <trkpt lat="43.52173" lon="6.71257">
        <ele>271</ele>
        <time>2023-03-04T08:31:30.000Z</time>
      </trkpt>
      <trkpt lat="43.52173" lon="6.71252">
        <ele>270.9</ele>
        <time>2023-03-04T08:31:31.000Z</time>
      </trkpt>
      <trkpt lat="43.52173" lon="6.71246">
        <ele>270.8</ele>
        <time>2023-03-04T08:31:32.000Z</time>
      </trkpt>
      <trkpt lat="43.52173" lon="6.71239">
        <ele>270.6</ele>
        <time>2023-03-04T08:31:33.000Z</time>
      </trkpt>
      <trkpt lat="43.52172" lon="6.71234">
        <ele>270.5</ele>
        <time>2023-03-04T08:31:34.000Z</time>
      </trkpt>
      <trkpt lat="43.52172" lon="6.71229">
        <ele>270.3</ele>
        <time>2023-03-04T08:31:35.000Z</time>
      </trkpt>
      <trkpt lat="43.52172" lon="6.71221">
        <ele>270.1</ele>
        <time>2023-03-04T08:31:36.000Z</time>
      </trkpt>
      <trkpt lat="43.52173" lon="6.71213">
        <ele>269.9</ele>
        <time>2023-03-04T08:31:37.000Z</time>
      </trkpt>
      <trkpt lat="43.52173" lon="6.71207">
        <ele>269.7</ele>
        <time>2023-03-04T08:31:38.000Z</time>
      </trkpt>
      <trkpt lat="43.52173" lon="6.712">
        <ele>269.5</ele>
        <time>2023-03-04T08:31:39.000Z</time>
      </trkpt>
      <trkpt lat="43.52174" lon="6.71193">
        <ele>269.2</ele>
        <time>2023-03-04T08:31:40.000Z</time>
      </trkpt>
      <trkpt lat="43.52174" lon="6.71185">
        <ele>268.9</ele>
        <time>2023-03-04T08:31:41.000Z</time>
      </trkpt>
      <trkpt lat="43.52175" lon="6.71177">
        <ele>268.6</ele>
        <time>2023-03-04T08:31:42.000Z</time>
      </trkpt>
      <trkpt lat="43.52176" lon="6.7117">
        <ele>268.4</ele>
        <time>2023-03-04T08:31:43.000Z</time>
      </trkpt>
      <trkpt lat="43.52176" lon="6.71162">
        <ele>268.1</ele>
        <time>2023-03-04T08:31:44.000Z</time>
      </trkpt>
      <trkpt lat="43.52177" lon="6.71155">
        <ele>267.8</ele>
        <time>2023-03-04T08:31:45.000Z</time>
      </trkpt>
      <trkpt lat="43.52178" lon="6.71148">
        <ele>267.5</ele>
        <time>2023-03-04T08:31:46.000Z</time>
      </trkpt>
      <trkpt lat="43.52179" lon="6.71141">
        <ele>267.2</ele>
        <time>2023-03-04T08:31:47.000Z</time>
      </trkpt>
      <trkpt lat="43.52181" lon="6.71133">
        <ele>266.8</ele>
        <time>2023-03-04T08:31:48.000Z</time>
      </trkpt>
      <trkpt lat="43.52184" lon="6.71125">
        <ele>266.5</ele>
        <time>2023-03-04T08:31:49.000Z</time>
      </trkpt>
      <trkpt lat="43.52186" lon="6.71117">
        <ele>266.1</ele>
        <time>2023-03-04T08:31:50.000Z</time>
      </trkpt>
      <trkpt lat="43.52189" lon="6.71109">
        <ele>265.8</ele>
        <time>2023-03-04T08:31:51.000Z</time>
      </trkpt>
      <trkpt lat="43.52192" lon="6.71102">
        <ele>265.5</ele>
        <time>2023-03-04T08:31:52.000Z</time>
      </trkpt>
      <trkpt lat="43.52194" lon="6.71094">
        <ele>265.1</ele>
        <time>2023-03-04T08:31:53.000Z</time>
      </trkpt>
      <trkpt lat="43.52195" lon="6.71086">
        <ele>264.8</ele>
        <time>2023-03-04T08:31:54.000Z</time>
      </trkpt>
      <trkpt lat="43.52195" lon="6.71078">
        <ele>264.5</ele>
        <time>2023-03-04T08:31:55.000Z</time>
      </trkpt>
      <trkpt lat="43.52194" lon="6.7107">
        <ele>264.1</ele>
        <time>2023-03-04T08:31:56.000Z</time>
      </trkpt>
      <trkpt lat="43.52194" lon="6.7106">
        <ele>263.8</ele>
        <time>2023-03-04T08:31:57.000Z</time>
      </trkpt>
      <trkpt lat="43.52194" lon="6.71051">
        <ele>263.4</ele>
        <time>2023-03-04T08:31:58.000Z</time>
      </trkpt>
      <trkpt lat="43.52193" lon="6.71042">
        <ele>263.1</ele>
        <time>2023-03-04T08:31:59.000Z</time>
      </trkpt>
      <trkpt lat="43.52193" lon="6.71034">
        <ele>262.8</ele>
        <time>2023-03-04T08:32:00.000Z</time>
      </trkpt>
      <trkpt lat="43.52192" lon="6.71025">
        <ele>262.4</ele>
        <time>2023-03-04T08:32:01.000Z</time>
      </trkpt>
      <trkpt lat="43.52192" lon="6.71017">
        <ele>262.2</ele>
        <time>2023-03-04T08:32:02.000Z</time>
      </trkpt>
      <trkpt lat="43.52192" lon="6.71008">
        <ele>261.9</ele>
        <time>2023-03-04T08:32:03.000Z</time>
      </trkpt>
      <trkpt lat="43.52193" lon="6.70999">
        <ele>261.6</ele>
        <time>2023-03-04T08:32:04.000Z</time>
      </trkpt>
      <trkpt lat="43.52193" lon="6.70991">
        <ele>261.3</ele>
        <time>2023-03-04T08:32:05.000Z</time>
      </trkpt>
      <trkpt lat="43.52193" lon="6.70981">
        <ele>261.1</ele>
        <time>2023-03-04T08:32:06.000Z</time>
      </trkpt>
      <trkpt lat="43.52192" lon="6.70973">
        <ele>260.8</ele>
        <time>2023-03-04T08:32:07.000Z</time>
      </trkpt>
      <trkpt lat="43.52191" lon="6.70965">
        <ele>260.6</ele>
        <time>2023-03-04T08:32:08.000Z</time>
      </trkpt>
      <trkpt lat="43.52189" lon="6.70957">
        <ele>260.3</ele>
        <time>2023-03-04T08:32:09.000Z</time>
      </trkpt>
      <trkpt lat="43.52188" lon="6.70949">
        <ele>260.1</ele>
        <time>2023-03-04T08:32:10.000Z</time>
      </trkpt>
      <trkpt lat="43.52188" lon="6.70943">
        <ele>259.8</ele>
        <time>2023-03-04T08:32:11.000Z</time>
      </trkpt>
      <trkpt lat="43.52188" lon="6.70936">
        <ele>259.6</ele>
        <time>2023-03-04T08:32:12.000Z</time>
      </trkpt>
      <trkpt lat="43.52189" lon="6.70929">
        <ele>259.3</ele>
        <time>2023-03-04T08:32:13.000Z</time>
      </trkpt>
      <trkpt lat="43.52192" lon="6.70922">
        <ele>259</ele>
        <time>2023-03-04T08:32:14.000Z</time>
      </trkpt>
      <trkpt lat="43.52195" lon="6.70915">
        <ele>258.7</ele>
        <time>2023-03-04T08:32:15.000Z</time>
      </trkpt>
      <trkpt lat="43.522" lon="6.70909">
        <ele>258.3</ele>
        <time>2023-03-04T08:32:16.000Z</time>
      </trkpt>
      <trkpt lat="43.52205" lon="6.70902">
        <ele>257.9</ele>
        <time>2023-03-04T08:32:17.000Z</time>
      </trkpt>
      <trkpt lat="43.5221" lon="6.70897">
        <ele>257.6</ele>
        <time>2023-03-04T08:32:18.000Z</time>
      </trkpt>
      <trkpt lat="43.52215" lon="6.70893">
        <ele>257.2</ele>
        <time>2023-03-04T08:32:19.000Z</time>
      </trkpt>
      <trkpt lat="43.52221" lon="6.70889">
        <ele>256.8</ele>
        <time>2023-03-04T08:32:20.000Z</time>
      </trkpt>
      <trkpt lat="43.52226" lon="6.70885">
        <ele>256.5</ele>
        <time>2023-03-04T08:32:21.000Z</time>
      </trkpt>
      <trkpt lat="43.52231" lon="6.7088">
        <ele>256.1</ele>
        <time>2023-03-04T08:32:22.000Z</time>
      </trkpt>
      <trkpt lat="43.52237" lon="6.70873">
        <ele>255.6</ele>
        <time>2023-03-04T08:32:23.000Z</time>
      </trkpt>
      <trkpt lat="43.52242" lon="6.70867">
        <ele>255.2</ele>
        <time>2023-03-04T08:32:24.000Z</time>
      </trkpt>
      <trkpt lat="43.52246" lon="6.70859">
        <ele>254.8</ele>
        <time>2023-03-04T08:32:25.000Z</time>
      </trkpt>
      <trkpt lat="43.52251" lon="6.70852">
        <ele>254.3</ele>
        <time>2023-03-04T08:32:26.000Z</time>
      </trkpt>
      <trkpt lat="43.52255" lon="6.70844">
        <ele>253.9</ele>
        <time>2023-03-04T08:32:27.000Z</time>
      </trkpt>
      <trkpt lat="43.52259" lon="6.70836">
        <ele>253.4</ele>
        <time>2023-03-04T08:32:28.000Z</time>
      </trkpt>
      <trkpt lat="43.52263" lon="6.70827">
        <ele>252.9</ele>
        <time>2023-03-04T08:32:29.000Z</time>
      </trkpt>
      <trkpt lat="43.52268" lon="6.70819">
        <ele>252.5</ele>
        <time>2023-03-04T08:32:30.000Z</time>
      </trkpt>
      <trkpt lat="43.52273" lon="6.7081">
        <ele>252</ele>
        <time>2023-03-04T08:32:31.000Z</time>
      </trkpt>
      <trkpt lat="43.52278" lon="6.70802">
        <ele>251.7</ele>
        <time>2023-03-04T08:32:32.000Z</time>
      </trkpt>
      <trkpt lat="43.52284" lon="6.70794">
        <ele>251.4</ele>
        <time>2023-03-04T08:32:33.000Z</time>
      </trkpt>
      <trkpt lat="43.52289" lon="6.70787">
        <ele>251.1</ele>
        <time>2023-03-04T08:32:34.000Z</time>
      </trkpt>
      <trkpt lat="43.52294" lon="6.70779">
        <ele>250.8</ele>
        <time>2023-03-04T08:32:35.000Z</time>
      </trkpt>
      <trkpt lat="43.52298" lon="6.70771">
        <ele>250.6</ele>
        <time>2023-03-04T08:32:36.000Z</time>
      </trkpt>
      <trkpt lat="43.52302" lon="6.70761">
        <ele>250.4</ele>
        <time>2023-03-04T08:32:37.000Z</time>
      </trkpt>
      <trkpt lat="43.52305" lon="6.70752">
        <ele>250.3</ele>
        <time>2023-03-04T08:32:38.000Z</time>
      </trkpt>
      <trkpt lat="43.52306" lon="6.70743">
        <ele>250.3</ele>
        <time>2023-03-04T08:32:39.000Z</time>
      </trkpt>
      <trkpt lat="43.52308" lon="6.70734">
        <ele>250.2</ele>
        <time>2023-03-04T08:32:40.000Z</time>
      </trkpt>
      <trkpt lat="43.5231" lon="6.70725">
        <ele>250.2</ele>
        <time>2023-03-04T08:32:41.000Z</time>
      </trkpt>
      <trkpt lat="43.52311" lon="6.70717">
        <ele>250.2</ele>
        <time>2023-03-04T08:32:42.000Z</time>
      </trkpt>
      <trkpt lat="43.52312" lon="6.70709">
        <ele>250.2</ele>
        <time>2023-03-04T08:32:43.000Z</time>
      </trkpt>
      <trkpt lat="43.52314" lon="6.70701">
        <ele>250.3</ele>
        <time>2023-03-04T08:32:44.000Z</time>
      </trkpt>
      <trkpt lat="43.52315" lon="6.70694">
        <ele>250.3</ele>
        <time>2023-03-04T08:32:45.000Z</time>
      </trkpt>
      <trkpt lat="43.52317" lon="6.70687">
        <ele>250.4</ele>
        <time>2023-03-04T08:32:46.000Z</time>
      </trkpt>
      <trkpt lat="43.5232" lon="6.70681">
        <ele>250.4</ele>
        <time>2023-03-04T08:32:47.000Z</time>
      </trkpt>
      <trkpt lat="43.52323" lon="6.70675">
        <ele>250.5</ele>
        <time>2023-03-04T08:32:48.000Z</time>
      </trkpt>
      <trkpt lat="43.52325" lon="6.7067">
        <ele>250.6</ele>
        <time>2023-03-04T08:32:49.000Z</time>
      </trkpt>
      <trkpt lat="43.52327" lon="6.70664">
        <ele>250.7</ele>
        <time>2023-03-04T08:32:50.000Z</time>
      </trkpt>
      <trkpt lat="43.5233" lon="6.70657">
        <ele>250.8</ele>
        <time>2023-03-04T08:32:51.000Z</time>
      </trkpt>
      <trkpt lat="43.52332" lon="6.70651">
        <ele>251</ele>
        <time>2023-03-04T08:32:52.000Z</time>
      </trkpt>
      <trkpt lat="43.52334" lon="6.70644">
        <ele>251.3</ele>
        <time>2023-03-04T08:32:53.000Z</time>
      </trkpt>
      <trkpt lat="43.52336" lon="6.70637">
        <ele>251.5</ele>
        <time>2023-03-04T08:32:54.000Z</time>
      </trkpt>
      <trkpt lat="43.52339" lon="6.7063">
        <ele>251.8</ele>
        <time>2023-03-04T08:32:55.000Z</time>
      </trkpt>
      <trkpt lat="43.52341" lon="6.70623">
        <ele>252.1</ele>
        <time>2023-03-04T08:32:56.000Z</time>
      </trkpt>
      <trkpt lat="43.52343" lon="6.70617">
        <ele>252.3</ele>
        <time>2023-03-04T08:32:57.000Z</time>
      </trkpt>
      <trkpt lat="43.52344" lon="6.70611">
        <ele>252.5</ele>
        <time>2023-03-04T08:32:58.000Z</time>
      </trkpt>
      <trkpt lat="43.52346" lon="6.70604">
        <ele>252.8</ele>
        <time>2023-03-04T08:32:59.000Z</time>
      </trkpt>
      <trkpt lat="43.52348" lon="6.70598">
        <ele>253.1</ele>
        <time>2023-03-04T08:33:00.000Z</time>
      </trkpt>
      <trkpt lat="43.5235" lon="6.70591">
        <ele>253.3</ele>
        <time>2023-03-04T08:33:01.000Z</time>
      </trkpt>
      <trkpt lat="43.52351" lon="6.70584">
        <ele>253.6</ele>
        <time>2023-03-04T08:33:02.000Z</time>
      </trkpt>
      <trkpt lat="43.52353" lon="6.70578">
        <ele>253.8</ele>
        <time>2023-03-04T08:33:03.000Z</time>
      </trkpt>
      <trkpt lat="43.52354" lon="6.70572">
        <ele>254.1</ele>
        <time>2023-03-04T08:33:04.000Z</time>
      </trkpt>
      <trkpt lat="43.52355" lon="6.70565">
        <ele>254.3</ele>
        <time>2023-03-04T08:33:05.000Z</time>
      </trkpt>
      <trkpt lat="43.52357" lon="6.70558">
        <ele>254.5</ele>
        <time>2023-03-04T08:33:06.000Z</time>
      </trkpt>
      <trkpt lat="43.52358" lon="6.70552">
        <ele>254.8</ele>
        <time>2023-03-04T08:33:07.000Z</time>
      </trkpt>
      <trkpt lat="43.52359" lon="6.70546">
        <ele>255</ele>
        <time>2023-03-04T08:33:08.000Z</time>
      </trkpt>
      <trkpt lat="43.5236" lon="6.70539">
        <ele>255.2</ele>
        <time>2023-03-04T08:33:09.000Z</time>
      </trkpt>
      <trkpt lat="43.52361" lon="6.70533">
        <ele>255.4</ele>
        <time>2023-03-04T08:33:10.000Z</time>
      </trkpt>
      <trkpt lat="43.52362" lon="6.70527">
        <ele>255.6</ele>
        <time>2023-03-04T08:33:11.000Z</time>
      </trkpt>
      <trkpt lat="43.52363" lon="6.70521">
        <ele>255.8</ele>
        <time>2023-03-04T08:33:12.000Z</time>
      </trkpt>
      <trkpt lat="43.52364" lon="6.70515">
        <ele>256</ele>
        <time>2023-03-04T08:33:13.000Z</time>
      </trkpt>
      <trkpt lat="43.52365" lon="6.70509">
        <ele>256.3</ele>
        <time>2023-03-04T08:33:14.000Z</time>
      </trkpt>
      <trkpt lat="43.52366" lon="6.70502">
        <ele>256.5</ele>
        <time>2023-03-04T08:33:15.000Z</time>
      </trkpt>
      <trkpt lat="43.52366" lon="6.70496">
        <ele>256.7</ele>
        <time>2023-03-04T08:33:16.000Z</time>
      </trkpt>
      <trkpt lat="43.52367" lon="6.7049">
        <ele>257</ele>
        <time>2023-03-04T08:33:17.000Z</time>
      </trkpt>
      <trkpt lat="43.52368" lon="6.70483">
        <ele>257.3</ele>
        <time>2023-03-04T08:33:18.000Z</time>
      </trkpt>
      <trkpt lat="43.52368" lon="6.70477">
        <ele>257.5</ele>
        <time>2023-03-04T08:33:19.000Z</time>
      </trkpt>
      <trkpt lat="43.52369" lon="6.70471">
        <ele>257.8</ele>
        <time>2023-03-04T08:33:20.000Z</time>
      </trkpt>
      <trkpt lat="43.52368" lon="6.70467">
        <ele>258</ele>
        <time>2023-03-04T08:33:21.000Z</time>
      </trkpt>
      <trkpt lat="43.52367" lon="6.70461">
        <ele>258.2</ele>
        <time>2023-03-04T08:33:22.000Z</time>
      </trkpt>
      <trkpt lat="43.52365" lon="6.70456">
        <ele>258.4</ele>
        <time>2023-03-04T08:33:23.000Z</time>
      </trkpt>
      <trkpt lat="43.52363" lon="6.70452">
        <ele>258.6</ele>
        <time>2023-03-04T08:33:24.000Z</time>
      </trkpt>
      <trkpt lat="43.5236" lon="6.70448">
        <ele>258.9</ele>
        <time>2023-03-04T08:33:25.000Z</time>
      </trkpt>
      <trkpt lat="43.52357" lon="6.70445">
        <ele>259.1</ele>
        <time>2023-03-04T08:33:26.000Z</time>
      </trkpt>
      <trkpt lat="43.52355" lon="6.70442">
        <ele>259.3</ele>
        <time>2023-03-04T08:33:27.000Z</time>
      </trkpt>
      <trkpt lat="43.5235" lon="6.70435">
        <ele>259.7</ele>
        <time>2023-03-04T08:33:29.000Z</time>
      </trkpt>
      <trkpt lat="43.52347" lon="6.70432">
        <ele>259.9</ele>
        <time>2023-03-04T08:33:30.000Z</time>
      </trkpt>
      <trkpt lat="43.52343" lon="6.70427">
        <ele>260.2</ele>
        <time>2023-03-04T08:33:31.000Z</time>
      </trkpt>
      <trkpt lat="43.52339" lon="6.70423">
        <ele>260.5</ele>
        <time>2023-03-04T08:33:32.000Z</time>
      </trkpt>
      <trkpt lat="43.52335" lon="6.7042">
        <ele>260.7</ele>
        <time>2023-03-04T08:33:33.000Z</time>
      </trkpt>
      <trkpt lat="43.52332" lon="6.70416">
        <ele>261</ele>
        <time>2023-03-04T08:33:34.000Z</time>
      </trkpt>
      <trkpt lat="43.52329" lon="6.70413">
        <ele>261.3</ele>
        <time>2023-03-04T08:33:35.000Z</time>
      </trkpt>
      <trkpt lat="43.52325" lon="6.7041">
        <ele>261.7</ele>
        <time>2023-03-04T08:33:37.000Z</time>
      </trkpt>
      <trkpt lat="43.52322" lon="6.70408">
        <ele>261.9</ele>
        <time>2023-03-04T08:33:38.000Z</time>
      </trkpt>
      <trkpt lat="43.52319" lon="6.70405">
        <ele>262.2</ele>
        <time>2023-03-04T08:33:39.000Z</time>
      </trkpt>
      <trkpt lat="43.52316" lon="6.70402">
        <ele>262.6</ele>
        <time>2023-03-04T08:33:40.000Z</time>
      </trkpt>
      <trkpt lat="43.52312" lon="6.70401">
        <ele>262.9</ele>
        <time>2023-03-04T08:33:41.000Z</time>
      </trkpt>
      <trkpt lat="43.52308" lon="6.70399">
        <ele>263.2</ele>
        <time>2023-03-04T08:33:42.000Z</time>
      </trkpt>
      <trkpt lat="43.52305" lon="6.70398">
        <ele>263.5</ele>
        <time>2023-03-04T08:33:43.000Z</time>
      </trkpt>
      <trkpt lat="43.52301" lon="6.70397">
        <ele>263.9</ele>
        <time>2023-03-04T08:33:44.000Z</time>
      </trkpt>
      <trkpt lat="43.52296" lon="6.70395">
        <ele>264.3</ele>
        <time>2023-03-04T08:33:46.000Z</time>
      </trkpt>
      <trkpt lat="43.52291" lon="6.70393">
        <ele>264.7</ele>
        <time>2023-03-04T08:33:47.000Z</time>
      </trkpt>
      <trkpt lat="43.52288" lon="6.70392">
        <ele>265</ele>
        <time>2023-03-04T08:33:48.000Z</time>
      </trkpt>
      <trkpt lat="43.52285" lon="6.70391">
        <ele>265.3</ele>
        <time>2023-03-04T08:33:49.000Z</time>
      </trkpt>
      <trkpt lat="43.52282" lon="6.7039">
        <ele>265.5</ele>
        <time>2023-03-04T08:33:50.000Z</time>
      </trkpt>
      <trkpt lat="43.52278" lon="6.70389">
        <ele>265.7</ele>
        <time>2023-03-04T08:33:51.000Z</time>
      </trkpt>
      <trkpt lat="43.52274" lon="6.70386">
        <ele>266</ele>
        <time>2023-03-04T08:33:53.000Z</time>
      </trkpt>
      <trkpt lat="43.5227" lon="6.70383">
        <ele>266.3</ele>
        <time>2023-03-04T08:33:54.000Z</time>
      </trkpt>
      <trkpt lat="43.52267" lon="6.70381">
        <ele>266.4</ele>
        <time>2023-03-04T08:33:55.000Z</time>
      </trkpt>
      <trkpt lat="43.52265" lon="6.70377">
        <ele>266.6</ele>
        <time>2023-03-04T08:33:56.000Z</time>
      </trkpt>
      <trkpt lat="43.52263" lon="6.70372">
        <ele>266.8</ele>
        <time>2023-03-04T08:33:57.000Z</time>
      </trkpt>
      <trkpt lat="43.52263" lon="6.70368">
        <ele>266.9</ele>
        <time>2023-03-04T08:33:58.000Z</time>
      </trkpt>
      <trkpt lat="43.52262" lon="6.70362">
        <ele>267.2</ele>
        <time>2023-03-04T08:33:59.000Z</time>
      </trkpt>
      <trkpt lat="43.52261" lon="6.70357">
        <ele>267.4</ele>
        <time>2023-03-04T08:34:00.000Z</time>
      </trkpt>
      <trkpt lat="43.52261" lon="6.70351">
        <ele>267.6</ele>
        <time>2023-03-04T08:34:02.000Z</time>
      </trkpt>
      <trkpt lat="43.5226" lon="6.70346">
        <ele>267.8</ele>
        <time>2023-03-04T08:34:03.000Z</time>
      </trkpt>
      <trkpt lat="43.52259" lon="6.70343">
        <ele>267.9</ele>
        <time>2023-03-04T08:34:04.000Z</time>
      </trkpt>
      <trkpt lat="43.52258" lon="6.70337">
        <ele>268.1</ele>
        <time>2023-03-04T08:34:05.000Z</time>
      </trkpt>
      <trkpt lat="43.52257" lon="6.70331">
        <ele>268.4</ele>
        <time>2023-03-04T08:34:06.000Z</time>
      </trkpt>
      <trkpt lat="43.52256" lon="6.70326">
        <ele>268.5</ele>
        <time>2023-03-04T08:34:07.000Z</time>
      </trkpt>
      <trkpt lat="43.52254" lon="6.70321">
        <ele>268.7</ele>
        <time>2023-03-04T08:34:08.000Z</time>
      </trkpt>
      <trkpt lat="43.52253" lon="6.70316">
        <ele>268.9</ele>
        <time>2023-03-04T08:34:09.000Z</time>
      </trkpt>
      <trkpt lat="43.52251" lon="6.70312">
        <ele>269</ele>
        <time>2023-03-04T08:34:10.000Z</time>
      </trkpt>
      <trkpt lat="43.52249" lon="6.70307">
        <ele>269.2</ele>
        <time>2023-03-04T08:34:12.000Z</time>
      </trkpt>
      <trkpt lat="43.52247" lon="6.703">
        <ele>269.3</ele>
        <time>2023-03-04T08:34:13.000Z</time>
      </trkpt>
      <trkpt lat="43.52245" lon="6.70295">
        <ele>269.5</ele>
        <time>2023-03-04T08:34:14.000Z</time>
      </trkpt>
      <trkpt lat="43.52244" lon="6.70291">
        <ele>269.6</ele>
        <time>2023-03-04T08:34:15.000Z</time>
      </trkpt>
      <trkpt lat="43.52241" lon="6.70285">
        <ele>269.8</ele>
        <time>2023-03-04T08:34:16.000Z</time>
      </trkpt>
      <trkpt lat="43.52239" lon="6.70279">
        <ele>270</ele>
        <time>2023-03-04T08:34:17.000Z</time>
      </trkpt>
      <trkpt lat="43.52237" lon="6.70275">
        <ele>270.1</ele>
        <time>2023-03-04T08:34:18.000Z</time>
      </trkpt>
      <trkpt lat="43.52235" lon="6.70271">
        <ele>270.2</ele>
        <time>2023-03-04T08:34:20.000Z</time>
      </trkpt>
      <trkpt lat="43.52233" lon="6.70267">
        <ele>270.3</ele>
        <time>2023-03-04T08:34:21.000Z</time>
      </trkpt>
      <trkpt lat="43.5223" lon="6.70262">
        <ele>270.5</ele>
        <time>2023-03-04T08:34:22.000Z</time>
      </trkpt>
      <trkpt lat="43.52228" lon="6.70258">
        <ele>270.6</ele>
        <time>2023-03-04T08:34:23.000Z</time>
      </trkpt>
      <trkpt lat="43.52225" lon="6.70254">
        <ele>270.8</ele>
        <time>2023-03-04T08:34:24.000Z</time>
      </trkpt>
      <trkpt lat="43.52223" lon="6.70249">
        <ele>270.9</ele>
        <time>2023-03-04T08:34:25.000Z</time>
      </trkpt>
      <trkpt lat="43.5222" lon="6.70246">
        <ele>271.1</ele>
        <time>2023-03-04T08:34:26.000Z</time>
      </trkpt>
      <trkpt lat="43.52217" lon="6.70241">
        <ele>271.3</ele>
        <time>2023-03-04T08:34:28.000Z</time>
      </trkpt>
      <trkpt lat="43.52214" lon="6.70236">
        <ele>271.4</ele>
        <time>2023-03-04T08:34:29.000Z</time>
      </trkpt>
      <trkpt lat="43.52211" lon="6.70232">
        <ele>271.6</ele>
        <time>2023-03-04T08:34:30.000Z</time>
      </trkpt>
      <trkpt lat="43.52209" lon="6.70228">
        <ele>271.8</ele>
        <time>2023-03-04T08:34:31.000Z</time>
      </trkpt>
      <trkpt lat="43.52206" lon="6.70225">
        <ele>272</ele>
        <time>2023-03-04T08:34:32.000Z</time>
      </trkpt>
      <trkpt lat="43.52203" lon="6.70222">
        <ele>272.2</ele>
        <time>2023-03-04T08:34:34.000Z</time>
      </trkpt>
      <trkpt lat="43.52199" lon="6.70217">
        <ele>272.4</ele>
        <time>2023-03-04T08:34:35.000Z</time>
      </trkpt>
      <trkpt lat="43.52196" lon="6.70213">
        <ele>272.7</ele>
        <time>2023-03-04T08:34:36.000Z</time>
      </trkpt>
      <trkpt lat="43.52193" lon="6.7021">
        <ele>272.9</ele>
        <time>2023-03-04T08:34:37.000Z</time>
      </trkpt>
      <trkpt lat="43.52191" lon="6.70207">
        <ele>273.1</ele>
        <time>2023-03-04T08:34:38.000Z</time>
      </trkpt>
      <trkpt lat="43.52187" lon="6.70205">
        <ele>273.4</ele>
        <time>2023-03-04T08:34:39.000Z</time>
      </trkpt>
      <trkpt lat="43.52184" lon="6.70202">
        <ele>273.6</ele>
        <time>2023-03-04T08:34:40.000Z</time>
      </trkpt>
      <trkpt lat="43.52183" lon="6.70201">
        <ele>273.7</ele>
        <time>2023-03-04T08:34:41.000Z</time>
      </trkpt>
      <trkpt lat="43.52179" lon="6.70198">
        <ele>274.1</ele>
        <time>2023-03-04T08:34:43.000Z</time>
      </trkpt>
      <trkpt lat="43.52175" lon="6.70196">
        <ele>274.4</ele>
        <time>2023-03-04T08:34:44.000Z</time>
      </trkpt>
      <trkpt lat="43.52171" lon="6.70193">
        <ele>274.7</ele>
        <time>2023-03-04T08:34:45.000Z</time>
      </trkpt>
      <trkpt lat="43.52167" lon="6.70191">
        <ele>275</ele>
        <time>2023-03-04T08:34:46.000Z</time>
      </trkpt>
      <trkpt lat="43.52164" lon="6.70189">
        <ele>275.2</ele>
        <time>2023-03-04T08:34:47.000Z</time>
      </trkpt>
      <trkpt lat="43.5216" lon="6.70186">
        <ele>275.5</ele>
        <time>2023-03-04T08:34:48.000Z</time>
      </trkpt>
      <trkpt lat="43.52157" lon="6.70183">
        <ele>275.8</ele>
        <time>2023-03-04T08:34:50.000Z</time>
      </trkpt>
      <trkpt lat="43.52154" lon="6.70179">
        <ele>275.9</ele>
        <time>2023-03-04T08:34:51.000Z</time>
      </trkpt>
      <trkpt lat="43.52151" lon="6.70177">
        <ele>276.1</ele>
        <time>2023-03-04T08:34:52.000Z</time>
      </trkpt>
      <trkpt lat="43.52149" lon="6.70172">
        <ele>276.3</ele>
        <time>2023-03-04T08:34:53.000Z</time>
      </trkpt>
      <trkpt lat="43.52147" lon="6.70167">
        <ele>276.5</ele>
        <time>2023-03-04T08:34:54.000Z</time>
      </trkpt>
      <trkpt lat="43.52145" lon="6.70163">
        <ele>276.6</ele>
        <time>2023-03-04T08:34:55.000Z</time>
      </trkpt>
      <trkpt lat="43.52143" lon="6.70156">
        <ele>276.8</ele>
        <time>2023-03-04T08:34:57.000Z</time>
      </trkpt>
      <trkpt lat="43.52141" lon="6.7015">
        <ele>276.9</ele>
        <time>2023-03-04T08:34:58.000Z</time>
      </trkpt>
      <trkpt lat="43.52139" lon="6.70145">
        <ele>277.1</ele>
        <time>2023-03-04T08:34:59.000Z</time>
      </trkpt>
      <trkpt lat="43.52137" lon="6.7014">
        <ele>277.2</ele>
        <time>2023-03-04T08:35:00.000Z</time>
      </trkpt>
      <trkpt lat="43.52136" lon="6.70136">
        <ele>277.4</ele>
        <time>2023-03-04T08:35:01.000Z</time>
      </trkpt>
      <trkpt lat="43.52135" lon="6.7013">
        <ele>277.5</ele>
        <time>2023-03-04T08:35:02.000Z</time>
      </trkpt>
      <trkpt lat="43.52134" lon="6.70121">
        <ele>277.8</ele>
        <time>2023-03-04T08:35:04.000Z</time>
      </trkpt>
      <trkpt lat="43.52134" lon="6.70116">
        <ele>278</ele>
        <time>2023-03-04T08:35:05.000Z</time>
      </trkpt>
      <trkpt lat="43.52134" lon="6.7011">
        <ele>278.2</ele>
        <time>2023-03-04T08:35:07.000Z</time>
      </trkpt>
      <trkpt lat="43.52135" lon="6.70104">
        <ele>278.4</ele>
        <time>2023-03-04T08:35:08.000Z</time>
      </trkpt>
      <trkpt lat="43.52135" lon="6.70099">
        <ele>278.6</ele>
        <time>2023-03-04T08:35:09.000Z</time>
      </trkpt>
      <trkpt lat="43.52135" lon="6.70093">
        <ele>278.8</ele>
        <time>2023-03-04T08:35:10.000Z</time>
      </trkpt>
      <trkpt lat="43.52135" lon="6.70089">
        <ele>279</ele>
        <time>2023-03-04T08:35:11.000Z</time>
      </trkpt>
      <trkpt lat="43.52134" lon="6.70085">
        <ele>279.2</ele>
        <time>2023-03-04T08:35:12.000Z</time>
      </trkpt>
      <trkpt lat="43.52133" lon="6.7008">
        <ele>279.4</ele>
        <time>2023-03-04T08:35:14.000Z</time>
      </trkpt>
      <trkpt lat="43.52132" lon="6.70075">
        <ele>279.7</ele>
        <time>2023-03-04T08:35:15.000Z</time>
      </trkpt>
      <trkpt lat="43.5213" lon="6.7007">
        <ele>279.9</ele>
        <time>2023-03-04T08:35:16.000Z</time>
      </trkpt>
      <trkpt lat="43.52128" lon="6.70064">
        <ele>280.2</ele>
        <time>2023-03-04T08:35:17.000Z</time>
      </trkpt>
      <trkpt lat="43.52126" lon="6.7006">
        <ele>280.4</ele>
        <time>2023-03-04T08:35:18.000Z</time>
      </trkpt>
      <trkpt lat="43.52125" lon="6.70056">
        <ele>280.6</ele>
        <time>2023-03-04T08:35:19.000Z</time>
      </trkpt>
      <trkpt lat="43.52122" lon="6.70051">
        <ele>280.9</ele>
        <time>2023-03-04T08:35:21.000Z</time>
      </trkpt>
      <trkpt lat="43.5212" lon="6.70048">
        <ele>281.1</ele>
        <time>2023-03-04T08:35:22.000Z</time>
      </trkpt>
      <trkpt lat="43.52117" lon="6.70043">
        <ele>281.4</ele>
        <time>2023-03-04T08:35:23.000Z</time>
      </trkpt>
      <trkpt lat="43.52114" lon="6.70039">
        <ele>281.6</ele>
        <time>2023-03-04T08:35:24.000Z</time>
      </trkpt>
      <trkpt lat="43.52111" lon="6.70036">
        <ele>281.8</ele>
        <time>2023-03-04T08:35:25.000Z</time>
      </trkpt>
      <trkpt lat="43.52107" lon="6.70032">
        <ele>282</ele>
        <time>2023-03-04T08:35:26.000Z</time>
      </trkpt>
      <trkpt lat="43.52104" lon="6.70028">
        <ele>282.2</ele>
        <time>2023-03-04T08:35:27.000Z</time>
      </trkpt>
      <trkpt lat="43.521" lon="6.70025">
        <ele>282.4</ele>
        <time>2023-03-04T08:35:29.000Z</time>
      </trkpt>
      <trkpt lat="43.52098" lon="6.70021">
        <ele>282.6</ele>
        <time>2023-03-04T08:35:30.000Z</time>
      </trkpt>
      <trkpt lat="43.52095" lon="6.70017">
        <ele>282.7</ele>
        <time>2023-03-04T08:35:31.000Z</time>
      </trkpt>
      <trkpt lat="43.52093" lon="6.70012">
        <ele>282.8</ele>
        <time>2023-03-04T08:35:32.000Z</time>
      </trkpt>
      <trkpt lat="43.52092" lon="6.70008">
        <ele>282.9</ele>
        <time>2023-03-04T08:35:33.000Z</time>
      </trkpt>
      <trkpt lat="43.52093" lon="6.70004">
        <ele>283</ele>
        <time>2023-03-04T08:35:34.000Z</time>
      </trkpt>
      <trkpt lat="43.52094" lon="6.69999">
        <ele>283.1</ele>
        <time>2023-03-04T08:35:35.000Z</time>
      </trkpt>
      <trkpt lat="43.52095" lon="6.69993">
        <ele>283.2</ele>
        <time>2023-03-04T08:35:37.000Z</time>
      </trkpt>
      <trkpt lat="43.52097" lon="6.69986">
        <ele>283.3</ele>
        <time>2023-03-04T08:35:38.000Z</time>
      </trkpt>
      <trkpt lat="43.52098" lon="6.69981">
        <ele>283.5</ele>
        <time>2023-03-04T08:35:39.000Z</time>
      </trkpt>
      <trkpt lat="43.521" lon="6.69974">
        <ele>283.6</ele>
        <time>2023-03-04T08:35:40.000Z</time>
      </trkpt>
      <trkpt lat="43.52101" lon="6.69968">
        <ele>283.8</ele>
        <time>2023-03-04T08:35:41.000Z</time>
      </trkpt>
      <trkpt lat="43.52103" lon="6.69963">
        <ele>283.9</ele>
        <time>2023-03-04T08:35:42.000Z</time>
      </trkpt>
      <trkpt lat="43.52106" lon="6.69958">
        <ele>284.1</ele>
        <time>2023-03-04T08:35:44.000Z</time>
      </trkpt>
      <trkpt lat="43.52109" lon="6.69955">
        <ele>284.3</ele>
        <time>2023-03-04T08:35:45.000Z</time>
      </trkpt>
      <trkpt lat="43.52113" lon="6.69952">
        <ele>284.5</ele>
        <time>2023-03-04T08:35:46.000Z</time>
      </trkpt>
      <trkpt lat="43.52116" lon="6.69948">
        <ele>284.7</ele>
        <time>2023-03-04T08:35:47.000Z</time>
      </trkpt>
      <trkpt lat="43.52121" lon="6.69941">
        <ele>285.1</ele>
        <time>2023-03-04T08:35:49.000Z</time>
      </trkpt>
      <trkpt lat="43.52123" lon="6.69936">
        <ele>285.4</ele>
        <time>2023-03-04T08:35:50.000Z</time>
      </trkpt>
      <trkpt lat="43.52126" lon="6.69932">
        <ele>285.6</ele>
        <time>2023-03-04T08:35:51.000Z</time>
      </trkpt>
      <trkpt lat="43.52129" lon="6.69928">
        <ele>285.9</ele>
        <time>2023-03-04T08:35:52.000Z</time>
      </trkpt>
      <trkpt lat="43.52131" lon="6.69924">
        <ele>286.1</ele>
        <time>2023-03-04T08:35:53.000Z</time>
      </trkpt>
      <trkpt lat="43.52133" lon="6.69919">
        <ele>286.4</ele>
        <time>2023-03-04T08:35:55.000Z</time>
      </trkpt>
      <trkpt lat="43.52135" lon="6.69914">
        <ele>286.7</ele>
        <time>2023-03-04T08:35:56.000Z</time>
      </trkpt>
      <trkpt lat="43.52137" lon="6.69908">
        <ele>287</ele>
        <time>2023-03-04T08:35:57.000Z</time>
      </trkpt>
      <trkpt lat="43.52139" lon="6.69902">
        <ele>287.3</ele>
        <time>2023-03-04T08:35:58.000Z</time>
      </trkpt>
      <trkpt lat="43.5214" lon="6.69898">
        <ele>287.6</ele>
        <time>2023-03-04T08:35:59.000Z</time>
      </trkpt>
      <trkpt lat="43.52142" lon="6.69893">
        <ele>287.9</ele>
        <time>2023-03-04T08:36:00.000Z</time>
      </trkpt>
      <trkpt lat="43.52143" lon="6.69888">
        <ele>288.1</ele>
        <time>2023-03-04T08:36:01.000Z</time>
      </trkpt>
      <trkpt lat="43.52145" lon="6.69881">
        <ele>288.5</ele>
        <time>2023-03-04T08:36:03.000Z</time>
      </trkpt>
      <trkpt lat="43.52147" lon="6.69876">
        <ele>288.7</ele>
        <time>2023-03-04T08:36:04.000Z</time>
      </trkpt>
      <trkpt lat="43.52149" lon="6.69871">
        <ele>289</ele>
        <time>2023-03-04T08:36:05.000Z</time>
      </trkpt>
      <trkpt lat="43.52152" lon="6.69866">
        <ele>289.2</ele>
        <time>2023-03-04T08:36:06.000Z</time>
      </trkpt>
      <trkpt lat="43.52154" lon="6.69861">
        <ele>289.5</ele>
        <time>2023-03-04T08:36:07.000Z</time>
      </trkpt>
      <trkpt lat="43.52158" lon="6.69857">
        <ele>289.7</ele>
        <time>2023-03-04T08:36:08.000Z</time>
      </trkpt>
      <trkpt lat="43.5216" lon="6.69853">
        <ele>289.9</ele>
        <time>2023-03-04T08:36:09.000Z</time>
      </trkpt>
      <trkpt lat="43.52163" lon="6.69848">
        <ele>290.1</ele>
        <time>2023-03-04T08:36:10.000Z</time>
      </trkpt>
      <trkpt lat="43.52166" lon="6.69843">
        <ele>290.4</ele>
        <time>2023-03-04T08:36:12.000Z</time>
      </trkpt>
      <trkpt lat="43.5217" lon="6.69838">
        <ele>290.6</ele>
        <time>2023-03-04T08:36:13.000Z</time>
      </trkpt>
      <trkpt lat="43.52173" lon="6.69834">
        <ele>290.8</ele>
        <time>2023-03-04T08:36:14.000Z</time>
      </trkpt>
      <trkpt lat="43.52176" lon="6.69831">
        <ele>291</ele>
        <time>2023-03-04T08:36:15.000Z</time>
      </trkpt>
      <trkpt lat="43.52179" lon="6.69827">
        <ele>291.1</ele>
        <time>2023-03-04T08:36:16.000Z</time>
      </trkpt>
      <trkpt lat="43.52182" lon="6.69825">
        <ele>291.3</ele>
        <time>2023-03-04T08:36:17.000Z</time>
      </trkpt>
      <trkpt lat="43.52185" lon="6.69822">
        <ele>291.4</ele>
        <time>2023-03-04T08:36:19.000Z</time>
      </trkpt>
      <trkpt lat="43.52189" lon="6.6982">
        <ele>291.5</ele>
        <time>2023-03-04T08:36:20.000Z</time>
      </trkpt>
      <trkpt lat="43.52192" lon="6.69818">
        <ele>291.6</ele>
        <time>2023-03-04T08:36:21.000Z</time>
      </trkpt>
      <trkpt lat="43.52196" lon="6.69817">
        <ele>291.6</ele>
        <time>2023-03-04T08:36:22.000Z</time>
      </trkpt>
      <trkpt lat="43.522" lon="6.69818">
        <ele>291.7</ele>
        <time>2023-03-04T08:36:23.000Z</time>
      </trkpt>
      <trkpt lat="43.52203" lon="6.69817">
        <ele>291.7</ele>
        <time>2023-03-04T08:36:24.000Z</time>
      </trkpt>
      <trkpt lat="43.52208" lon="6.69817">
        <ele>291.7</ele>
        <time>2023-03-04T08:36:25.000Z</time>
      </trkpt>
      <trkpt lat="43.52213" lon="6.69817">
        <ele>291.7</ele>
        <time>2023-03-04T08:36:27.000Z</time>
      </trkpt>
      <trkpt lat="43.5222" lon="6.69817">
        <ele>291.6</ele>
        <time>2023-03-04T08:36:28.000Z</time>
      </trkpt>
      <trkpt lat="43.52228" lon="6.69814">
        <ele>291.5</ele>
        <time>2023-03-04T08:36:30.000Z</time>
      </trkpt>
      <trkpt lat="43.52233" lon="6.69812">
        <ele>291.5</ele>
        <time>2023-03-04T08:36:31.000Z</time>
      </trkpt>
      <trkpt lat="43.52237" lon="6.69809">
        <ele>291.5</ele>
        <time>2023-03-04T08:36:32.000Z</time>
      </trkpt>
      <trkpt lat="43.52242" lon="6.69808">
        <ele>291.5</ele>
        <time>2023-03-04T08:36:33.000Z</time>
      </trkpt>
      <trkpt lat="43.52247" lon="6.69806">
        <ele>291.5</ele>
        <time>2023-03-04T08:36:35.000Z</time>
      </trkpt>
      <trkpt lat="43.52252" lon="6.69805">
        <ele>291.6</ele>
        <time>2023-03-04T08:36:36.000Z</time>
      </trkpt>
      <trkpt lat="43.52262" lon="6.69807">
        <ele>291.7</ele>
        <time>2023-03-04T08:36:37.000Z</time>
      </trkpt>
      <trkpt lat="43.52266" lon="6.6981">
        <ele>291.8</ele>
        <time>2023-03-04T08:36:38.000Z</time>
      </trkpt>
      <trkpt lat="43.5227" lon="6.69813">
        <ele>291.9</ele>
        <time>2023-03-04T08:36:39.000Z</time>
      </trkpt>
      <trkpt lat="43.52275" lon="6.6982">
        <ele>292.2</ele>
        <time>2023-03-04T08:36:41.000Z</time>
      </trkpt>
      <trkpt lat="43.5228" lon="6.69822">
        <ele>292.4</ele>
        <time>2023-03-04T08:36:42.000Z</time>
      </trkpt>
      <trkpt lat="43.52285" lon="6.69823">
        <ele>292.5</ele>
        <time>2023-03-04T08:36:43.000Z</time>
      </trkpt>
      <trkpt lat="43.52289" lon="6.69824">
        <ele>292.7</ele>
        <time>2023-03-04T08:36:44.000Z</time>
      </trkpt>
      <trkpt lat="43.52293" lon="6.69826">
        <ele>292.8</ele>
        <time>2023-03-04T08:36:46.000Z</time>
      </trkpt>
      <trkpt lat="43.523" lon="6.69827">
        <ele>292.9</ele>
        <time>2023-03-04T08:36:47.000Z</time>
      </trkpt>
      <trkpt lat="43.52305" lon="6.69827">
        <ele>292.9</ele>
        <time>2023-03-04T08:36:48.000Z</time>
      </trkpt>
      <trkpt lat="43.52309" lon="6.69828">
        <ele>292.9</ele>
        <time>2023-03-04T08:36:49.000Z</time>
      </trkpt>
      <trkpt lat="43.52313" lon="6.69828">
        <ele>292.8</ele>
        <time>2023-03-04T08:36:50.000Z</time>
      </trkpt>
      <trkpt lat="43.52318" lon="6.69828">
        <ele>292.7</ele>
        <time>2023-03-04T08:36:51.000Z</time>
      </trkpt>
      <trkpt lat="43.52323" lon="6.69828">
        <ele>292.6</ele>
        <time>2023-03-04T08:36:52.000Z</time>
      </trkpt>
      <trkpt lat="43.52328" lon="6.69828">
        <ele>292.4</ele>
        <time>2023-03-04T08:36:53.000Z</time>
      </trkpt>
      <trkpt lat="43.52333" lon="6.69828">
        <ele>292.2</ele>
        <time>2023-03-04T08:36:54.000Z</time>
      </trkpt>
      <trkpt lat="43.52338" lon="6.69829">
        <ele>292</ele>
        <time>2023-03-04T08:36:55.000Z</time>
      </trkpt>
      <trkpt lat="43.52343" lon="6.6983">
        <ele>291.8</ele>
        <time>2023-03-04T08:36:56.000Z</time>
      </trkpt>
      <trkpt lat="43.52347" lon="6.69831">
        <ele>291.5</ele>
        <time>2023-03-04T08:36:57.000Z</time>
      </trkpt>
      <trkpt lat="43.52352" lon="6.69833">
        <ele>291.2</ele>
        <time>2023-03-04T08:36:58.000Z</time>
      </trkpt>
      <trkpt lat="43.52358" lon="6.69834">
        <ele>290.8</ele>
        <time>2023-03-04T08:36:59.000Z</time>
      </trkpt>
      <trkpt lat="43.52363" lon="6.69837">
        <ele>290.5</ele>
        <time>2023-03-04T08:37:00.000Z</time>
      </trkpt>
      <trkpt lat="43.52368" lon="6.6984">
        <ele>290.2</ele>
        <time>2023-03-04T08:37:01.000Z</time>
      </trkpt>
      <trkpt lat="43.52373" lon="6.69843">
        <ele>289.9</ele>
        <time>2023-03-04T08:37:02.000Z</time>
      </trkpt>
      <trkpt lat="43.52378" lon="6.69845">
        <ele>289.6</ele>
        <time>2023-03-04T08:37:03.000Z</time>
      </trkpt>
      <trkpt lat="43.52383" lon="6.69847">
        <ele>289.4</ele>
        <time>2023-03-04T08:37:04.000Z</time>
      </trkpt>
      <trkpt lat="43.52388" lon="6.69848">
        <ele>289.2</ele>
        <time>2023-03-04T08:37:05.000Z</time>
      </trkpt>
      <trkpt lat="43.52394" lon="6.69847">
        <ele>289</ele>
        <time>2023-03-04T08:37:06.000Z</time>
      </trkpt>
      <trkpt lat="43.52398" lon="6.69844">
        <ele>288.9</ele>
        <time>2023-03-04T08:37:07.000Z</time>
      </trkpt>
      <trkpt lat="43.52403" lon="6.6984">
        <ele>288.7</ele>
        <time>2023-03-04T08:37:08.000Z</time>
      </trkpt>
      <trkpt lat="43.52408" lon="6.69837">
        <ele>288.5</ele>
        <time>2023-03-04T08:37:09.000Z</time>
      </trkpt>
      <trkpt lat="43.52412" lon="6.69832">
        <ele>288.4</ele>
        <time>2023-03-04T08:37:10.000Z</time>
      </trkpt>
      <trkpt lat="43.52416" lon="6.69828">
        <ele>288.3</ele>
        <time>2023-03-04T08:37:11.000Z</time>
      </trkpt>
      <trkpt lat="43.52419" lon="6.69823">
        <ele>288.2</ele>
        <time>2023-03-04T08:37:12.000Z</time>
      </trkpt>
      <trkpt lat="43.52423" lon="6.69818">
        <ele>288.2</ele>
        <time>2023-03-04T08:37:13.000Z</time>
      </trkpt>
      <trkpt lat="43.52426" lon="6.69812">
        <ele>288.1</ele>
        <time>2023-03-04T08:37:14.000Z</time>
      </trkpt>
      <trkpt lat="43.52429" lon="6.69807">
        <ele>288.1</ele>
        <time>2023-03-04T08:37:15.000Z</time>
      </trkpt>
      <trkpt lat="43.52432" lon="6.69801">
        <ele>288.1</ele>
        <time>2023-03-04T08:37:16.000Z</time>
      </trkpt>
      <trkpt lat="43.52435" lon="6.69795">
        <ele>288.1</ele>
        <time>2023-03-04T08:37:17.000Z</time>
      </trkpt>
      <trkpt lat="43.5244" lon="6.69791">
        <ele>288.2</ele>
        <time>2023-03-04T08:37:18.000Z</time>
      </trkpt>
      <trkpt lat="43.52444" lon="6.69785">
        <ele>288.2</ele>
        <time>2023-03-04T08:37:19.000Z</time>
      </trkpt>
      <trkpt lat="43.52447" lon="6.69779">
        <ele>288.3</ele>
        <time>2023-03-04T08:37:20.000Z</time>
      </trkpt>
      <trkpt lat="43.52451" lon="6.69773">
        <ele>288.4</ele>
        <time>2023-03-04T08:37:21.000Z</time>
      </trkpt>
      <trkpt lat="43.52454" lon="6.69767">
        <ele>288.5</ele>
        <time>2023-03-04T08:37:22.000Z</time>
      </trkpt>
      <trkpt lat="43.52457" lon="6.69762">
        <ele>288.6</ele>
        <time>2023-03-04T08:37:23.000Z</time>
      </trkpt>
      <trkpt lat="43.52461" lon="6.69757">
        <ele>288.8</ele>
        <time>2023-03-04T08:37:24.000Z</time>
      </trkpt>
      <trkpt lat="43.52464" lon="6.69751">
        <ele>288.9</ele>
        <time>2023-03-04T08:37:25.000Z</time>
      </trkpt>
      <trkpt lat="43.52467" lon="6.69746">
        <ele>289.1</ele>
        <time>2023-03-04T08:37:26.000Z</time>
      </trkpt>
      <trkpt lat="43.5247" lon="6.69742">
        <ele>289.3</ele>
        <time>2023-03-04T08:37:27.000Z</time>
      </trkpt>
      <trkpt lat="43.52472" lon="6.69737">
        <ele>289.4</ele>
        <time>2023-03-04T08:37:28.000Z</time>
      </trkpt>
      <trkpt lat="43.52474" lon="6.69732">
        <ele>289.6</ele>
        <time>2023-03-04T08:37:29.000Z</time>
      </trkpt>
      <trkpt lat="43.52477" lon="6.69727">
        <ele>289.9</ele>
        <time>2023-03-04T08:37:30.000Z</time>
      </trkpt>
      <trkpt lat="43.52481" lon="6.69722">
        <ele>290.1</ele>
        <time>2023-03-04T08:37:31.000Z</time>
      </trkpt>
      <trkpt lat="43.52484" lon="6.69716">
        <ele>290.4</ele>
        <time>2023-03-04T08:37:32.000Z</time>
      </trkpt>
      <trkpt lat="43.52486" lon="6.69713">
        <ele>290.6</ele>
        <time>2023-03-04T08:37:33.000Z</time>
      </trkpt>
      <trkpt lat="43.52489" lon="6.69709">
        <ele>290.8</ele>
        <time>2023-03-04T08:37:34.000Z</time>
      </trkpt>
      <trkpt lat="43.52492" lon="6.69706">
        <ele>291</ele>
        <time>2023-03-04T08:37:36.000Z</time>
      </trkpt>
      <trkpt lat="43.52497" lon="6.69696">
        <ele>291.4</ele>
        <time>2023-03-04T08:37:37.000Z</time>
      </trkpt>
      <trkpt lat="43.525" lon="6.69691">
        <ele>291.5</ele>
        <time>2023-03-04T08:37:38.000Z</time>
      </trkpt>
      <trkpt lat="43.52503" lon="6.69685">
        <ele>291.7</ele>
        <time>2023-03-04T08:37:40.000Z</time>
      </trkpt>
      <trkpt lat="43.52507" lon="6.69679">
        <ele>291.8</ele>
        <time>2023-03-04T08:37:41.000Z</time>
      </trkpt>
      <trkpt lat="43.52512" lon="6.69671">
        <ele>292</ele>
        <time>2023-03-04T08:37:42.000Z</time>
      </trkpt>
      <trkpt lat="43.52515" lon="6.69667">
        <ele>292.1</ele>
        <time>2023-03-04T08:37:43.000Z</time>
      </trkpt>
      <trkpt lat="43.52517" lon="6.69664">
        <ele>292.1</ele>
        <time>2023-03-04T08:37:45.000Z</time>
      </trkpt>
      <trkpt lat="43.5252" lon="6.69659">
        <ele>292.2</ele>
        <time>2023-03-04T08:37:46.000Z</time>
      </trkpt>
      <trkpt lat="43.52522" lon="6.69655">
        <ele>292.2</ele>
        <time>2023-03-04T08:37:47.000Z</time>
      </trkpt>
      <trkpt lat="43.52522" lon="6.69649">
        <ele>292.5</ele>
        <time>2023-03-04T08:37:48.000Z</time>
      </trkpt>
      <trkpt lat="43.52519" lon="6.69647">
        <ele>292.7</ele>
        <time>2023-03-04T08:37:49.000Z</time>
      </trkpt>
      <trkpt lat="43.52516" lon="6.69648">
        <ele>292.9</ele>
        <time>2023-03-04T08:37:50.000Z</time>
      </trkpt>
      <trkpt lat="43.52513" lon="6.69651">
        <ele>293.2</ele>
        <time>2023-03-04T08:37:51.000Z</time>
      </trkpt>
      <trkpt lat="43.52512" lon="6.69655">
        <ele>293.5</ele>
        <time>2023-03-04T08:37:52.000Z</time>
      </trkpt>
      <trkpt lat="43.52509" lon="6.69658">
        <ele>293.8</ele>
        <time>2023-03-04T08:37:54.000Z</time>
      </trkpt>
      <trkpt lat="43.52505" lon="6.69662">
        <ele>294.2</ele>
        <time>2023-03-04T08:37:55.000Z</time>
      </trkpt>
      <trkpt lat="43.52503" lon="6.69664">
        <ele>294.5</ele>
        <time>2023-03-04T08:37:56.000Z</time>
      </trkpt>
      <trkpt lat="43.52501" lon="6.69668">
        <ele>294.8</ele>
        <time>2023-03-04T08:37:57.000Z</time>
      </trkpt>
      <trkpt lat="43.52497" lon="6.69672">
        <ele>295.4</ele>
        <time>2023-03-04T08:37:59.000Z</time>
      </trkpt>
      <trkpt lat="43.52494" lon="6.69675">
        <ele>295.7</ele>
        <time>2023-03-04T08:38:00.000Z</time>
      </trkpt>
      <trkpt lat="43.52491" lon="6.69679">
        <ele>296.1</ele>
        <time>2023-03-04T08:38:01.000Z</time>
      </trkpt>
      <trkpt lat="43.52488" lon="6.69682">
        <ele>296.5</ele>
        <time>2023-03-04T08:38:03.000Z</time>
      </trkpt>
      <trkpt lat="43.52486" lon="6.69685">
        <ele>296.8</ele>
        <time>2023-03-04T08:38:04.000Z</time>
      </trkpt>
      <trkpt lat="43.52484" lon="6.69688">
        <ele>297.1</ele>
        <time>2023-03-04T08:38:05.000Z</time>
      </trkpt>
      <trkpt lat="43.5248" lon="6.69691">
        <ele>297.6</ele>
        <time>2023-03-04T08:38:06.000Z</time>
      </trkpt>
      <trkpt lat="43.52478" lon="6.69694">
        <ele>297.9</ele>
        <time>2023-03-04T08:38:07.000Z</time>
      </trkpt>
      <trkpt lat="43.52475" lon="6.69697">
        <ele>298.3</ele>
        <time>2023-03-04T08:38:08.000Z</time>
      </trkpt>
      <trkpt lat="43.52471" lon="6.69701">
        <ele>298.8</ele>
        <time>2023-03-04T08:38:09.000Z</time>
      </trkpt>
      <trkpt lat="43.52469" lon="6.69704">
        <ele>299.1</ele>
        <time>2023-03-04T08:38:10.000Z</time>
      </trkpt>
      <trkpt lat="43.52466" lon="6.69708">
        <ele>299.6</ele>
        <time>2023-03-04T08:38:12.000Z</time>
      </trkpt>
      <trkpt lat="43.52463" lon="6.6971">
        <ele>299.9</ele>
        <time>2023-03-04T08:38:13.000Z</time>
      </trkpt>
      <trkpt lat="43.5246" lon="6.69713">
        <ele>300.3</ele>
        <time>2023-03-04T08:38:14.000Z</time>
      </trkpt>
      <trkpt lat="43.52458" lon="6.69715">
        <ele>300.6</ele>
        <time>2023-03-04T08:38:15.000Z</time>
      </trkpt>
      <trkpt lat="43.52454" lon="6.69717">
        <ele>301</ele>
        <time>2023-03-04T08:38:16.000Z</time>
      </trkpt>
      <trkpt lat="43.5245" lon="6.69719">
        <ele>301.5</ele>
        <time>2023-03-04T08:38:18.000Z</time>
      </trkpt>
      <trkpt lat="43.52447" lon="6.6972">
        <ele>301.8</ele>
        <time>2023-03-04T08:38:19.000Z</time>
      </trkpt>
      <trkpt lat="43.52443" lon="6.69723">
        <ele>302.3</ele>
        <time>2023-03-04T08:38:20.000Z</time>
      </trkpt>
      <trkpt lat="43.52441" lon="6.69725">
        <ele>302.6</ele>
        <time>2023-03-04T08:38:21.000Z</time>
      </trkpt>
      <trkpt lat="43.52437" lon="6.69728">
        <ele>303</ele>
        <time>2023-03-04T08:38:22.000Z</time>
      </trkpt>
      <trkpt lat="43.52435" lon="6.69729">
        <ele>303.2</ele>
        <time>2023-03-04T08:38:23.000Z</time>
      </trkpt>
      <trkpt lat="43.52432" lon="6.69731">
        <ele>303.6</ele>
        <time>2023-03-04T08:38:25.000Z</time>
      </trkpt>
      <trkpt lat="43.52429" lon="6.69734">
        <ele>303.9</ele>
        <time>2023-03-04T08:38:26.000Z</time>
      </trkpt>
      <trkpt lat="43.52426" lon="6.69737">
        <ele>304.2</ele>
        <time>2023-03-04T08:38:27.000Z</time>
      </trkpt>
      <trkpt lat="43.52423" lon="6.69739">
        <ele>304.5</ele>
        <time>2023-03-04T08:38:28.000Z</time>
      </trkpt>
      <trkpt lat="43.5242" lon="6.69741">
        <ele>304.8</ele>
        <time>2023-03-04T08:38:29.000Z</time>
      </trkpt>
      <trkpt lat="43.52417" lon="6.69745">
        <ele>305.1</ele>
        <time>2023-03-04T08:38:31.000Z</time>
      </trkpt>
      <trkpt lat="43.52413" lon="6.69748">
        <ele>305.5</ele>
        <time>2023-03-04T08:38:32.000Z</time>
      </trkpt>
      <trkpt lat="43.5241" lon="6.69751">
        <ele>305.9</ele>
        <time>2023-03-04T08:38:33.000Z</time>
      </trkpt>
      <trkpt lat="43.52407" lon="6.69755">
        <ele>306.2</ele>
        <time>2023-03-04T08:38:34.000Z</time>
      </trkpt>
      <trkpt lat="43.52406" lon="6.69756">
        <ele>306.4</ele>
        <time>2023-03-04T08:38:35.000Z</time>
      </trkpt>
      <trkpt lat="43.52403" lon="6.69759">
        <ele>306.7</ele>
        <time>2023-03-04T08:38:36.000Z</time>
      </trkpt>
      <trkpt lat="43.524" lon="6.69762">
        <ele>307</ele>
        <time>2023-03-04T08:38:38.000Z</time>
      </trkpt>
      <trkpt lat="43.52397" lon="6.69765">
        <ele>307.3</ele>
        <time>2023-03-04T08:38:39.000Z</time>
      </trkpt>
      <trkpt lat="43.52394" lon="6.69768">
        <ele>307.7</ele>
        <time>2023-03-04T08:38:40.000Z</time>
      </trkpt>
      <trkpt lat="43.52392" lon="6.6977">
        <ele>308</ele>
        <time>2023-03-04T08:38:41.000Z</time>
      </trkpt>
      <trkpt lat="43.52389" lon="6.69773">
        <ele>308.3</ele>
        <time>2023-03-04T08:38:42.000Z</time>
      </trkpt>
      <trkpt lat="43.52386" lon="6.69775">
        <ele>308.6</ele>
        <time>2023-03-04T08:38:43.000Z</time>
      </trkpt>
      <trkpt lat="43.52384" lon="6.69777">
        <ele>308.9</ele>
        <time>2023-03-04T08:38:44.000Z</time>
      </trkpt>
      <trkpt lat="43.52381" lon="6.69778">
        <ele>309.2</ele>
        <time>2023-03-04T08:38:45.000Z</time>
      </trkpt>
      <trkpt lat="43.52378" lon="6.69778">
        <ele>309.5</ele>
        <time>2023-03-04T08:38:47.000Z</time>
      </trkpt>
      <trkpt lat="43.52374" lon="6.69775">
        <ele>310</ele>
        <time>2023-03-04T08:38:48.000Z</time>
      </trkpt>
      <trkpt lat="43.52372" lon="6.69774">
        <ele>310.2</ele>
        <time>2023-03-04T08:38:49.000Z</time>
      </trkpt>
      <trkpt lat="43.52369" lon="6.69772">
        <ele>310.6</ele>
        <time>2023-03-04T08:38:50.000Z</time>
      </trkpt>
      <trkpt lat="43.52368" lon="6.69769">
        <ele>310.9</ele>
        <time>2023-03-04T08:38:51.000Z</time>
      </trkpt>
      <trkpt lat="43.52365" lon="6.69766">
        <ele>311.2</ele>
        <time>2023-03-04T08:38:52.000Z</time>
      </trkpt>
      <trkpt lat="43.52362" lon="6.69763">
        <ele>311.6</ele>
        <time>2023-03-04T08:38:54.000Z</time>
      </trkpt>
      <trkpt lat="43.52358" lon="6.6976">
        <ele>312.1</ele>
        <time>2023-03-04T08:38:55.000Z</time>
      </trkpt>
      <trkpt lat="43.52355" lon="6.69758">
        <ele>312.4</ele>
        <time>2023-03-04T08:38:57.000Z</time>
      </trkpt>
      <trkpt lat="43.52352" lon="6.69756">
        <ele>312.7</ele>
        <time>2023-03-04T08:38:58.000Z</time>
      </trkpt>
      <trkpt lat="43.52349" lon="6.69754">
        <ele>313</ele>
        <time>2023-03-04T08:38:59.000Z</time>
      </trkpt>
      <trkpt lat="43.52345" lon="6.69752">
        <ele>313.3</ele>
        <time>2023-03-04T08:39:00.000Z</time>
      </trkpt>
      <trkpt lat="43.52341" lon="6.69751">
        <ele>313.6</ele>
        <time>2023-03-04T08:39:01.000Z</time>
      </trkpt>
      <trkpt lat="43.52338" lon="6.6975">
        <ele>313.8</ele>
        <time>2023-03-04T08:39:02.000Z</time>
      </trkpt>
      <trkpt lat="43.52334" lon="6.69749">
        <ele>314.1</ele>
        <time>2023-03-04T08:39:03.000Z</time>
      </trkpt>
      <trkpt lat="43.5233" lon="6.69748">
        <ele>314.4</ele>
        <time>2023-03-04T08:39:04.000Z</time>
      </trkpt>
      <trkpt lat="43.52327" lon="6.69748">
        <ele>314.7</ele>
        <time>2023-03-04T08:39:06.000Z</time>
      </trkpt>
      <trkpt lat="43.52324" lon="6.69747">
        <ele>315</ele>
        <time>2023-03-04T08:39:07.000Z</time>
      </trkpt>
      <trkpt lat="43.52321" lon="6.69746">
        <ele>315.4</ele>
        <time>2023-03-04T08:39:08.000Z</time>
      </trkpt>
      <trkpt lat="43.52318" lon="6.69746">
        <ele>315.7</ele>
        <time>2023-03-04T08:39:09.000Z</time>
      </trkpt>
      <trkpt lat="43.52315" lon="6.69745">
        <ele>316</ele>
        <time>2023-03-04T08:39:10.000Z</time>
      </trkpt>
      <trkpt lat="43.52312" lon="6.69744">
        <ele>316.4</ele>
        <time>2023-03-04T08:39:11.000Z</time>
      </trkpt>
      <trkpt lat="43.52309" lon="6.69743">
        <ele>316.7</ele>
        <time>2023-03-04T08:39:12.000Z</time>
      </trkpt>
      <trkpt lat="43.52305" lon="6.6974">
        <ele>317.2</ele>
        <time>2023-03-04T08:39:14.000Z</time>
      </trkpt>
      <trkpt lat="43.52303" lon="6.69737">
        <ele>317.5</ele>
        <time>2023-03-04T08:39:15.000Z</time>
      </trkpt>
      <trkpt lat="43.523" lon="6.69734">
        <ele>317.9</ele>
        <time>2023-03-04T08:39:16.000Z</time>
      </trkpt>
      <trkpt lat="43.52298" lon="6.6973">
        <ele>318.2</ele>
        <time>2023-03-04T08:39:17.000Z</time>
      </trkpt>
      <trkpt lat="43.52296" lon="6.69727">
        <ele>318.6</ele>
        <time>2023-03-04T08:39:18.000Z</time>
      </trkpt>
      <trkpt lat="43.52293" lon="6.69723">
        <ele>318.9</ele>
        <time>2023-03-04T08:39:19.000Z</time>
      </trkpt>
      <trkpt lat="43.52291" lon="6.69719">
        <ele>319.4</ele>
        <time>2023-03-04T08:39:21.000Z</time>
      </trkpt>
      <trkpt lat="43.52288" lon="6.69714">
        <ele>319.9</ele>
        <time>2023-03-04T08:39:22.000Z</time>
      </trkpt>
      <trkpt lat="43.52286" lon="6.69711">
        <ele>320.3</ele>
        <time>2023-03-04T08:39:23.000Z</time>
      </trkpt>
      <trkpt lat="43.52284" lon="6.69709">
        <ele>320.6</ele>
        <time>2023-03-04T08:39:24.000Z</time>
      </trkpt>
      <trkpt lat="43.5228" lon="6.69706">
        <ele>321.1</ele>
        <time>2023-03-04T08:39:26.000Z</time>
      </trkpt>
      <trkpt lat="43.52277" lon="6.69704">
        <ele>321.5</ele>
        <time>2023-03-04T08:39:27.000Z</time>
      </trkpt>
      <trkpt lat="43.52273" lon="6.69702">
        <ele>321.9</ele>
        <time>2023-03-04T08:39:28.000Z</time>
      </trkpt>
      <trkpt lat="43.52269" lon="6.69702">
        <ele>322.3</ele>
        <time>2023-03-04T08:39:30.000Z</time>
      </trkpt>
      <trkpt lat="43.52265" lon="6.69701">
        <ele>322.7</ele>
        <time>2023-03-04T08:39:31.000Z</time>
      </trkpt>
      <trkpt lat="43.52261" lon="6.69701">
        <ele>323.1</ele>
        <time>2023-03-04T08:39:32.000Z</time>
      </trkpt>
      <trkpt lat="43.52257" lon="6.69702">
        <ele>323.5</ele>
        <time>2023-03-04T08:39:33.000Z</time>
      </trkpt>
      <trkpt lat="43.52254" lon="6.69702">
        <ele>323.8</ele>
        <time>2023-03-04T08:39:34.000Z</time>
      </trkpt>
      <trkpt lat="43.5225" lon="6.69703">
        <ele>324.2</ele>
        <time>2023-03-04T08:39:35.000Z</time>
      </trkpt>
      <trkpt lat="43.52248" lon="6.69703">
        <ele>324.4</ele>
        <time>2023-03-04T08:39:36.000Z</time>
      </trkpt>
      <trkpt lat="43.52242" lon="6.69702">
        <ele>325</ele>
        <time>2023-03-04T08:39:38.000Z</time>
      </trkpt>
      <trkpt lat="43.52239" lon="6.69701">
        <ele>325.5</ele>
        <time>2023-03-04T08:39:39.000Z</time>
      </trkpt>
      <trkpt lat="43.52235" lon="6.697">
        <ele>325.9</ele>
        <time>2023-03-04T08:39:41.000Z</time>
      </trkpt>
      <trkpt lat="43.52231" lon="6.69699">
        <ele>326.4</ele>
        <time>2023-03-04T08:39:42.000Z</time>
      </trkpt>
      <trkpt lat="43.52227" lon="6.69699">
        <ele>326.9</ele>
        <time>2023-03-04T08:39:43.000Z</time>
      </trkpt>
      <trkpt lat="43.52225" lon="6.69698">
        <ele>327.2</ele>
        <time>2023-03-04T08:39:44.000Z</time>
      </trkpt>
      <trkpt lat="43.52221" lon="6.69697">
        <ele>327.6</ele>
        <time>2023-03-04T08:39:45.000Z</time>
      </trkpt>
      <trkpt lat="43.52218" lon="6.69696">
        <ele>327.9</ele>
        <time>2023-03-04T08:39:46.000Z</time>
      </trkpt>
      <trkpt lat="43.52215" lon="6.69696">
        <ele>328.2</ele>
        <time>2023-03-04T08:39:47.000Z</time>
      </trkpt>
      <trkpt lat="43.52211" lon="6.69695">
        <ele>328.6</ele>
        <time>2023-03-04T08:39:49.000Z</time>
      </trkpt>
      <trkpt lat="43.52207" lon="6.69694">
        <ele>328.9</ele>
        <time>2023-03-04T08:39:50.000Z</time>
      </trkpt>
      <trkpt lat="43.52204" lon="6.69694">
        <ele>329.2</ele>
        <time>2023-03-04T08:39:51.000Z</time>
      </trkpt>
      <trkpt lat="43.522" lon="6.69693">
        <ele>329.5</ele>
        <time>2023-03-04T08:39:52.000Z</time>
      </trkpt>
      <trkpt lat="43.52197" lon="6.69692">
        <ele>329.7</ele>
        <time>2023-03-04T08:39:53.000Z</time>
      </trkpt>
      <trkpt lat="43.52193" lon="6.69691">
        <ele>330</ele>
        <time>2023-03-04T08:39:54.000Z</time>
      </trkpt>
      <trkpt lat="43.5219" lon="6.6969">
        <ele>330.2</ele>
        <time>2023-03-04T08:39:56.000Z</time>
      </trkpt>
      <trkpt lat="43.52186" lon="6.6969">
        <ele>330.5</ele>
        <time>2023-03-04T08:39:57.000Z</time>
      </trkpt>
      <trkpt lat="43.52182" lon="6.6969">
        <ele>330.8</ele>
        <time>2023-03-04T08:39:58.000Z</time>
      </trkpt>
      <trkpt lat="43.5218" lon="6.6969">
        <ele>331</ele>
        <time>2023-03-04T08:39:59.000Z</time>
      </trkpt>
      <trkpt lat="43.52176" lon="6.6969">
        <ele>331.2</ele>
        <time>2023-03-04T08:40:01.000Z</time>
      </trkpt>
      <trkpt lat="43.52172" lon="6.69691">
        <ele>331.5</ele>
        <time>2023-03-04T08:40:02.000Z</time>
      </trkpt>
      <trkpt lat="43.52168" lon="6.69692">
        <ele>331.7</ele>
        <time>2023-03-04T08:40:03.000Z</time>
      </trkpt>
      <trkpt lat="43.52165" lon="6.69693">
        <ele>331.9</ele>
        <time>2023-03-04T08:40:04.000Z</time>
      </trkpt>
      <trkpt lat="43.52162" lon="6.69694">
        <ele>332.1</ele>
        <time>2023-03-04T08:40:05.000Z</time>
      </trkpt>
      <trkpt lat="43.52159" lon="6.69696">
        <ele>332.3</ele>
        <time>2023-03-04T08:40:06.000Z</time>
      </trkpt>
      <trkpt lat="43.52155" lon="6.69698">
        <ele>332.5</ele>
        <time>2023-03-04T08:40:08.000Z</time>
      </trkpt>
      <trkpt lat="43.52151" lon="6.69702">
        <ele>332.7</ele>
        <time>2023-03-04T08:40:09.000Z</time>
      </trkpt>
      <trkpt lat="43.52149" lon="6.69704">
        <ele>332.8</ele>
        <time>2023-03-04T08:40:10.000Z</time>
      </trkpt>
      <trkpt lat="43.52145" lon="6.69707">
        <ele>333</ele>
        <time>2023-03-04T08:40:11.000Z</time>
      </trkpt>
      <trkpt lat="43.52142" lon="6.6971">
        <ele>333.1</ele>
        <time>2023-03-04T08:40:12.000Z</time>
      </trkpt>
      <trkpt lat="43.52139" lon="6.69713">
        <ele>333.2</ele>
        <time>2023-03-04T08:40:13.000Z</time>
      </trkpt>
      <trkpt lat="43.52134" lon="6.69717">
        <ele>333.5</ele>
        <time>2023-03-04T08:40:15.000Z</time>
      </trkpt>
      <trkpt lat="43.52131" lon="6.6972">
        <ele>333.6</ele>
        <time>2023-03-04T08:40:16.000Z</time>
      </trkpt>
      <trkpt lat="43.52128" lon="6.69724">
        <ele>333.8</ele>
        <time>2023-03-04T08:40:17.000Z</time>
      </trkpt>
      <trkpt lat="43.52125" lon="6.69726">
        <ele>334</ele>
        <time>2023-03-04T08:40:18.000Z</time>
      </trkpt>
      <trkpt lat="43.52122" lon="6.69728">
        <ele>334.2</ele>
        <time>2023-03-04T08:40:19.000Z</time>
      </trkpt>
      <trkpt lat="43.52118" lon="6.69731">
        <ele>334.4</ele>
        <time>2023-03-04T08:40:21.000Z</time>
      </trkpt>
      <trkpt lat="43.52115" lon="6.69732">
        <ele>334.6</ele>
        <time>2023-03-04T08:40:22.000Z</time>
      </trkpt>
      <trkpt lat="43.52113" lon="6.69734">
        <ele>334.9</ele>
        <time>2023-03-04T08:40:23.000Z</time>
      </trkpt>
      <trkpt lat="43.5211" lon="6.69736">
        <ele>335.1</ele>
        <time>2023-03-04T08:40:24.000Z</time>
      </trkpt>
      <trkpt lat="43.52107" lon="6.69737">
        <ele>335.4</ele>
        <time>2023-03-04T08:40:25.000Z</time>
      </trkpt>
      <trkpt lat="43.52103" lon="6.69739">
        <ele>335.6</ele>
        <time>2023-03-04T08:40:26.000Z</time>
      </trkpt>
      <trkpt lat="43.521" lon="6.6974">
        <ele>335.9</ele>
        <time>2023-03-04T08:40:27.000Z</time>
      </trkpt>
      <trkpt lat="43.52097" lon="6.69741">
        <ele>336.2</ele>
        <time>2023-03-04T08:40:28.000Z</time>
      </trkpt>
      <trkpt lat="43.52095" lon="6.69741">
        <ele>336.4</ele>
        <time>2023-03-04T08:40:29.000Z</time>
      </trkpt>
      <trkpt lat="43.5209" lon="6.69741">
        <ele>336.9</ele>
        <time>2023-03-04T08:40:31.000Z</time>
      </trkpt>
      <trkpt lat="43.52087" lon="6.69741">
        <ele>337.2</ele>
        <time>2023-03-04T08:40:32.000Z</time>
      </trkpt>
      <trkpt lat="43.52084" lon="6.69741">
        <ele>337.6</ele>
        <time>2023-03-04T08:40:34.000Z</time>
      </trkpt>
      <trkpt lat="43.52079" lon="6.69742">
        <ele>338.2</ele>
        <time>2023-03-04T08:40:35.000Z</time>
      </trkpt>
      <trkpt lat="43.52077" lon="6.69743">
        <ele>338.6</ele>
        <time>2023-03-04T08:40:36.000Z</time>
      </trkpt>
      <trkpt lat="43.52074" lon="6.69744">
        <ele>339.1</ele>
        <time>2023-03-04T08:40:38.000Z</time>
      </trkpt>
      <trkpt lat="43.52071" lon="6.69745">
        <ele>339.6</ele>
        <time>2023-03-04T08:40:39.000Z</time>
      </trkpt>
      <trkpt lat="43.52068" lon="6.69746">
        <ele>340.1</ele>
        <time>2023-03-04T08:40:40.000Z</time>
      </trkpt>
      <trkpt lat="43.52064" lon="6.69747">
        <ele>340.8</ele>
        <time>2023-03-04T08:40:41.000Z</time>
      </trkpt>
      <trkpt lat="43.52063" lon="6.69747">
        <ele>341</ele>
        <time>2023-03-04T08:40:42.000Z</time>
      </trkpt>
      <trkpt lat="43.5206" lon="6.69746">
        <ele>341.5</ele>
        <time>2023-03-04T08:40:43.000Z</time>
      </trkpt>
      <trkpt lat="43.52057" lon="6.69746">
        <ele>342</ele>
        <time>2023-03-04T08:40:44.000Z</time>
      </trkpt>
      <trkpt lat="43.52054" lon="6.69745">
        <ele>342.6</ele>
        <time>2023-03-04T08:40:46.000Z</time>
      </trkpt>
      <trkpt lat="43.52051" lon="6.69745">
        <ele>343.2</ele>
        <time>2023-03-04T08:40:47.000Z</time>
      </trkpt>
      <trkpt lat="43.52047" lon="6.69743">
        <ele>343.7</ele>
        <time>2023-03-04T08:40:48.000Z</time>
      </trkpt>
      <trkpt lat="43.52046" lon="6.69743">
        <ele>343.9</ele>
        <time>2023-03-04T08:40:49.000Z</time>
      </trkpt>
      <trkpt lat="43.52043" lon="6.69742">
        <ele>344.3</ele>
        <time>2023-03-04T08:40:50.000Z</time>
      </trkpt>
      <trkpt lat="43.52041" lon="6.69741">
        <ele>344.6</ele>
        <time>2023-03-04T08:40:51.000Z</time>
      </trkpt>
      <trkpt lat="43.52039" lon="6.6974">
        <ele>345</ele>
        <time>2023-03-04T08:40:53.000Z</time>
      </trkpt>
      <trkpt lat="43.52038" lon="6.6974">
        <ele>345.1</ele>
        <time>2023-03-04T08:40:54.000Z</time>
      </trkpt>
      <trkpt lat="43.52037" lon="6.6974">
        <ele>345.7</ele>
        <time>2023-03-04T08:40:56.000Z</time>
      </trkpt>
      <trkpt lat="43.52037" lon="6.6974">
        <ele>345.7</ele>
        <time>2023-03-04T08:40:57.000Z</time>
      </trkpt>
      <trkpt lat="43.52037" lon="6.69741">
        <ele>345.7</ele>
        <time>2023-03-04T08:40:58.000Z</time>
      </trkpt>
      <trkpt lat="43.52037" lon="6.69741">
        <ele>345.7</ele>
        <time>2023-03-04T08:41:00.000Z</time>
      </trkpt>
      <trkpt lat="43.52037" lon="6.69741">
        <ele>345.7</ele>
        <time>2023-03-04T08:41:01.000Z</time>
      </trkpt>
      <trkpt lat="43.52038" lon="6.69741">
        <ele>345.7</ele>
        <time>2023-03-04T08:41:03.000Z</time>
      </trkpt>
      <trkpt lat="43.52038" lon="6.69741">
        <ele>345.7</ele>
        <time>2023-03-04T08:41:04.000Z</time>
      </trkpt>
      <trkpt lat="43.52039" lon="6.69736">
        <ele>345.9</ele>
        <time>2023-03-04T08:42:48.000Z</time>
      </trkpt>
      <trkpt lat="43.52039" lon="6.69736">
        <ele>346</ele>
        <time>2023-03-04T08:42:49.000Z</time>
      </trkpt>
      <trkpt lat="43.5204" lon="6.69736">
        <ele>346</ele>
        <time>2023-03-04T08:42:50.000Z</time>
      </trkpt>
      <trkpt lat="43.5204" lon="6.69736">
        <ele>346</ele>
        <time>2023-03-04T08:42:51.000Z</time>
      </trkpt>
      <trkpt lat="43.5204" lon="6.69736">
        <ele>346</ele>
        <time>2023-03-04T08:42:52.000Z</time>
      </trkpt>
      <trkpt lat="43.5204" lon="6.69736">
        <ele>346</ele>
        <time>2023-03-04T08:42:53.000Z</time>
      </trkpt>
      <trkpt lat="43.5204" lon="6.69736">
        <ele>346</ele>
        <time>2023-03-04T08:42:54.000Z</time>
      </trkpt>
      <trkpt lat="43.5204" lon="6.69736">
        <ele>346</ele>
        <time>2023-03-04T08:42:55.000Z</time>
      </trkpt>
      <trkpt lat="43.5204" lon="6.69736">
        <ele>346</ele>
        <time>2023-03-04T08:42:56.000Z</time>
      </trkpt>
      <trkpt lat="43.5204" lon="6.69736">
        <ele>346</ele>
        <time>2023-03-04T08:42:57.000Z</time>
      </trkpt>
      <trkpt lat="43.5204" lon="6.69736">
        <ele>346</ele>
        <time>2023-03-04T08:42:58.000Z</time>
      </trkpt>
      <trkpt lat="43.5204" lon="6.69736">
        <ele>346</ele>
        <time>2023-03-04T08:42:59.000Z</time>
      </trkpt>
      <trkpt lat="43.52042" lon="6.69738">
        <ele>346.2</ele>
        <time>2023-03-04T08:43:17.000Z</time>
      </trkpt>
      <trkpt lat="43.52043" lon="6.69738">
        <ele>346.2</ele>
        <time>2023-03-04T08:43:18.000Z</time>
      </trkpt>
      <trkpt lat="43.52044" lon="6.69738">
        <ele>346.3</ele>
        <time>2023-03-04T08:43:19.000Z</time>
      </trkpt>
      <trkpt lat="43.52045" lon="6.69738">
        <ele>346.4</ele>
        <time>2023-03-04T08:43:20.000Z</time>
      </trkpt>
      <trkpt lat="43.52047" lon="6.69739">
        <ele>346.5</ele>
        <time>2023-03-04T08:43:21.000Z</time>
      </trkpt>
      <trkpt lat="43.52048" lon="6.69739">
        <ele>346.5</ele>
        <time>2023-03-04T08:43:22.000Z</time>
      </trkpt>
      <trkpt lat="43.52049" lon="6.69741">
        <ele>346.6</ele>
        <time>2023-03-04T08:43:24.000Z</time>
      </trkpt>
      <trkpt lat="43.52048" lon="6.69746">
        <ele>346.9</ele>
        <time>2023-03-04T08:43:26.000Z</time>
      </trkpt>
      <trkpt lat="43.52047" lon="6.69747">
        <ele>346.9</ele>
        <time>2023-03-04T08:43:27.000Z</time>
      </trkpt>
      <trkpt lat="43.52045" lon="6.69747">
        <ele>347.1</ele>
        <time>2023-03-04T08:43:28.000Z</time>
      </trkpt>
      <trkpt lat="43.52045" lon="6.69746">
        <ele>347.1</ele>
        <time>2023-03-04T08:43:30.000Z</time>
      </trkpt>
      <trkpt lat="43.52045" lon="6.69745">
        <ele>347.1</ele>
        <time>2023-03-04T08:43:31.000Z</time>
      </trkpt>
      <trkpt lat="43.52045" lon="6.69744">
        <ele>347.2</ele>
        <time>2023-03-04T08:43:33.000Z</time>
      </trkpt>
      <trkpt lat="43.52044" lon="6.69744">
        <ele>347.2</ele>
        <time>2023-03-04T08:43:34.000Z</time>
      </trkpt>
      <trkpt lat="43.52044" lon="6.69743">
        <ele>347.3</ele>
        <time>2023-03-04T08:43:35.000Z</time>
      </trkpt>
      <trkpt lat="43.52044" lon="6.69742">
        <ele>347.3</ele>
        <time>2023-03-04T08:43:37.000Z</time>
      </trkpt>
      <trkpt lat="43.52044" lon="6.69741">
        <ele>347.4</ele>
        <time>2023-03-04T08:43:38.000Z</time>
      </trkpt>
      <trkpt lat="43.52044" lon="6.69741">
        <ele>347.4</ele>
        <time>2023-03-04T08:44:08.000Z</time>
      </trkpt>
      <trkpt lat="43.52044" lon="6.6974">
        <ele>347.4</ele>
        <time>2023-03-04T08:44:09.000Z</time>
      </trkpt>
      <trkpt lat="43.52043" lon="6.69739">
        <ele>347.5</ele>
        <time>2023-03-04T08:44:10.000Z</time>
      </trkpt>
      <trkpt lat="43.52044" lon="6.69735">
        <ele>347.7</ele>
        <time>2023-03-04T08:44:11.000Z</time>
      </trkpt>
      <trkpt lat="43.52045" lon="6.69733">
        <ele>347.8</ele>
        <time>2023-03-04T08:44:12.000Z</time>
      </trkpt>
      <trkpt lat="43.52045" lon="6.69729">
        <ele>348</ele>
        <time>2023-03-04T08:44:13.000Z</time>
      </trkpt>
      <trkpt lat="43.52044" lon="6.69728">
        <ele>348.1</ele>
        <time>2023-03-04T08:44:15.000Z</time>
      </trkpt>
      <trkpt lat="43.52044" lon="6.69727">
        <ele>348.1</ele>
        <time>2023-03-04T08:44:16.000Z</time>
      </trkpt>
      <trkpt lat="43.52044" lon="6.69722">
        <ele>348.4</ele>
        <time>2023-03-04T08:44:17.000Z</time>
      </trkpt>
      <trkpt lat="43.52044" lon="6.69719">
        <ele>348.5</ele>
        <time>2023-03-04T08:44:19.000Z</time>
      </trkpt>
      <trkpt lat="43.52044" lon="6.69717">
        <ele>348.6</ele>
        <time>2023-03-04T08:44:20.000Z</time>
      </trkpt>
      <trkpt lat="43.52044" lon="6.69714">
        <ele>348.8</ele>
        <time>2023-03-04T08:44:21.000Z</time>
      </trkpt>
      <trkpt lat="43.52045" lon="6.69714">
        <ele>348.8</ele>
        <time>2023-03-04T08:44:22.000Z</time>
      </trkpt>
      <trkpt lat="43.52045" lon="6.69713">
        <ele>348.8</ele>
        <time>2023-03-04T08:44:23.000Z</time>
      </trkpt>
      <trkpt lat="43.52045" lon="6.69713">
        <ele>348.8</ele>
        <time>2023-03-04T08:44:24.000Z</time>
      </trkpt>
      <trkpt lat="43.52045" lon="6.69713">
        <ele>348.9</ele>
        <time>2023-03-04T08:44:25.000Z</time>
      </trkpt>
      <trkpt lat="43.52045" lon="6.69712">
        <ele>349.6</ele>
        <time>2023-03-04T08:44:27.000Z</time>
      </trkpt>
      <trkpt lat="43.52045" lon="6.69712">
        <ele>349.7</ele>
        <time>2023-03-04T08:44:28.000Z</time>
      </trkpt>
      <trkpt lat="43.52046" lon="6.6971">
        <ele>350.1</ele>
        <time>2023-03-04T08:44:29.000Z</time>
      </trkpt>
      <trkpt lat="43.52047" lon="6.6971">
        <ele>350.2</ele>
        <time>2023-03-04T08:44:30.000Z</time>
      </trkpt>
      <trkpt lat="43.52047" lon="6.69711">
        <ele>350.3</ele>
        <time>2023-03-04T08:44:32.000Z</time>
      </trkpt>
      <trkpt lat="43.52047" lon="6.69711">
        <ele>350.4</ele>
        <time>2023-03-04T08:44:33.000Z</time>
      </trkpt>
      <trkpt lat="43.52048" lon="6.69711">
        <ele>350.5</ele>
        <time>2023-03-04T08:44:35.000Z</time>
      </trkpt>
      <trkpt lat="43.52049" lon="6.69711">
        <ele>350.8</ele>
        <time>2023-03-04T08:44:36.000Z</time>
      </trkpt>
      <trkpt lat="43.5205" lon="6.6971">
        <ele>351.1</ele>
        <time>2023-03-04T08:44:38.000Z</time>
      </trkpt>
      <trkpt lat="43.5205" lon="6.6971">
        <ele>351.2</ele>
        <time>2023-03-04T08:44:39.000Z</time>
      </trkpt>
      <trkpt lat="43.5205" lon="6.69709">
        <ele>351.3</ele>
        <time>2023-03-04T08:44:41.000Z</time>
      </trkpt>
      <trkpt lat="43.5205" lon="6.69708">
        <ele>351.4</ele>
        <time>2023-03-04T08:44:42.000Z</time>
      </trkpt>
      <trkpt lat="43.5205" lon="6.69708">
        <ele>351.5</ele>
        <time>2023-03-04T08:44:43.000Z</time>
      </trkpt>
      <trkpt lat="43.5205" lon="6.69708">
        <ele>351.6</ele>
        <time>2023-03-04T08:44:45.000Z</time>
      </trkpt>
      <trkpt lat="43.5205" lon="6.69707">
        <ele>351.6</ele>
        <time>2023-03-04T08:44:46.000Z</time>
      </trkpt>
      <trkpt lat="43.5205" lon="6.69707">
        <ele>351.6</ele>
        <time>2023-03-04T08:44:47.000Z</time>
      </trkpt>
      <trkpt lat="43.5205" lon="6.69707">
        <ele>351.6</ele>
        <time>2023-03-04T08:44:49.000Z</time>
      </trkpt>
      <trkpt lat="43.5205" lon="6.69707">
        <ele>351.6</ele>
        <time>2023-03-04T08:44:50.000Z</time>
      </trkpt>
      <trkpt lat="43.5205" lon="6.69707">
        <ele>351.7</ele>
        <time>2023-03-04T08:44:52.000Z</time>
      </trkpt>
      <trkpt lat="43.5205" lon="6.69707">
        <ele>351.7</ele>
        <time>2023-03-04T08:44:53.000Z</time>
      </trkpt>
      <trkpt lat="43.52051" lon="6.69704">
        <ele>352.2</ele>
        <time>2023-03-04T08:45:04.000Z</time>
      </trkpt>
      <trkpt lat="43.52052" lon="6.69703">
        <ele>352.4</ele>
        <time>2023-03-04T08:45:05.000Z</time>
      </trkpt>
      <trkpt lat="43.52052" lon="6.69703">
        <ele>352.4</ele>
        <time>2023-03-04T08:45:06.000Z</time>
      </trkpt>
      <trkpt lat="43.52053" lon="6.69703">
        <ele>352.5</ele>
        <time>2023-03-04T08:45:07.000Z</time>
      </trkpt>
      <trkpt lat="43.52053" lon="6.69703">
        <ele>352.6</ele>
        <time>2023-03-04T08:45:08.000Z</time>
      </trkpt>
      <trkpt lat="43.52054" lon="6.69703">
        <ele>352.7</ele>
        <time>2023-03-04T08:45:10.000Z</time>
      </trkpt>
      <trkpt lat="43.52054" lon="6.69703">
        <ele>352.7</ele>
        <time>2023-03-04T08:45:11.000Z</time>
      </trkpt>
      <trkpt lat="43.52054" lon="6.69703">
        <ele>352.7</ele>
        <time>2023-03-04T08:45:13.000Z</time>
      </trkpt>
      <trkpt lat="43.52054" lon="6.69703">
        <ele>352.7</ele>
        <time>2023-03-04T08:45:14.000Z</time>
      </trkpt>
      <trkpt lat="43.52054" lon="6.69703">
        <ele>352.8</ele>
        <time>2023-03-04T08:45:15.000Z</time>
      </trkpt>
      <trkpt lat="43.52055" lon="6.69704">
        <ele>352.8</ele>
        <time>2023-03-04T08:45:17.000Z</time>
      </trkpt>
      <trkpt lat="43.52055" lon="6.69704">
        <ele>352.9</ele>
        <time>2023-03-04T08:45:18.000Z</time>
      </trkpt>
      <trkpt lat="43.52055" lon="6.69704">
        <ele>352.9</ele>
        <time>2023-03-04T08:45:20.000Z</time>
      </trkpt>
      <trkpt lat="43.52055" lon="6.69704">
        <ele>353</ele>
        <time>2023-03-04T08:45:21.000Z</time>
      </trkpt>
      <trkpt lat="43.52058" lon="6.69708">
        <ele>353.5</ele>
        <time>2023-03-04T08:46:23.000Z</time>
      </trkpt>
      <trkpt lat="43.52061" lon="6.69708">
        <ele>353.8</ele>
        <time>2023-03-04T08:46:24.000Z</time>
      </trkpt>
      <trkpt lat="43.52063" lon="6.69709">
        <ele>354</ele>
        <time>2023-03-04T08:46:26.000Z</time>
      </trkpt>
      <trkpt lat="43.52066" lon="6.69709">
        <ele>354.2</ele>
        <time>2023-03-04T08:46:27.000Z</time>
      </trkpt>
      <trkpt lat="43.52067" lon="6.69709">
        <ele>354.3</ele>
        <time>2023-03-04T08:46:28.000Z</time>
      </trkpt>
      <trkpt lat="43.5207" lon="6.69709">
        <ele>354.5</ele>
        <time>2023-03-04T08:46:29.000Z</time>
      </trkpt>
      <trkpt lat="43.52071" lon="6.69709">
        <ele>354.6</ele>
        <time>2023-03-04T08:46:30.000Z</time>
      </trkpt>
      <trkpt lat="43.52074" lon="6.69707">
        <ele>354.8</ele>
        <time>2023-03-04T08:46:31.000Z</time>
      </trkpt>
      <trkpt lat="43.52075" lon="6.69707">
        <ele>354.9</ele>
        <time>2023-03-04T08:46:32.000Z</time>
      </trkpt>
      <trkpt lat="43.52078" lon="6.69706">
        <ele>355</ele>
        <time>2023-03-04T08:46:33.000Z</time>
      </trkpt>
      <trkpt lat="43.52081" lon="6.69705">
        <ele>355.1</ele>
        <time>2023-03-04T08:46:35.000Z</time>
      </trkpt>
      <trkpt lat="43.52082" lon="6.69705">
        <ele>355.1</ele>
        <time>2023-03-04T08:46:36.000Z</time>
      </trkpt>
      <trkpt lat="43.52084" lon="6.69704">
        <ele>355.2</ele>
        <time>2023-03-04T08:46:37.000Z</time>
      </trkpt>
      <trkpt lat="43.52085" lon="6.69704">
        <ele>355.3</ele>
        <time>2023-03-04T08:46:38.000Z</time>
      </trkpt>
      <trkpt lat="43.52087" lon="6.69703">
        <ele>355.3</ele>
        <time>2023-03-04T08:46:39.000Z</time>
      </trkpt>
      <trkpt lat="43.52088" lon="6.69702">
        <ele>355.4</ele>
        <time>2023-03-04T08:46:40.000Z</time>
      </trkpt>
      <trkpt lat="43.5209" lon="6.69701">
        <ele>355.4</ele>
        <time>2023-03-04T08:46:41.000Z</time>
      </trkpt>
      <trkpt lat="43.52092" lon="6.69701">
        <ele>355.5</ele>
        <time>2023-03-04T08:46:42.000Z</time>
      </trkpt>
      <trkpt lat="43.52093" lon="6.69699">
        <ele>355.6</ele>
        <time>2023-03-04T08:46:43.000Z</time>
      </trkpt>
      <trkpt lat="43.52095" lon="6.69696">
        <ele>355.7</ele>
        <time>2023-03-04T08:46:45.000Z</time>
      </trkpt>
      <trkpt lat="43.52097" lon="6.69693">
        <ele>355.9</ele>
        <time>2023-03-04T08:46:46.000Z</time>
      </trkpt>
      <trkpt lat="43.52099" lon="6.69691">
        <ele>356.1</ele>
        <time>2023-03-04T08:46:47.000Z</time>
      </trkpt>
      <trkpt lat="43.52102" lon="6.69687">
        <ele>356.4</ele>
        <time>2023-03-04T08:46:49.000Z</time>
      </trkpt>
      <trkpt lat="43.52105" lon="6.69682">
        <ele>356.8</ele>
        <time>2023-03-04T08:46:50.000Z</time>
      </trkpt>
      <trkpt lat="43.52107" lon="6.69679">
        <ele>357.1</ele>
        <time>2023-03-04T08:46:51.000Z</time>
      </trkpt>
      <trkpt lat="43.52109" lon="6.69676">
        <ele>357.3</ele>
        <time>2023-03-04T08:46:52.000Z</time>
      </trkpt>
      <trkpt lat="43.52111" lon="6.69673">
        <ele>357.5</ele>
        <time>2023-03-04T08:46:53.000Z</time>
      </trkpt>
      <trkpt lat="43.52112" lon="6.69671">
        <ele>357.6</ele>
        <time>2023-03-04T08:46:54.000Z</time>
      </trkpt>
      <trkpt lat="43.52113" lon="6.6967">
        <ele>357.7</ele>
        <time>2023-03-04T08:46:55.000Z</time>
      </trkpt>
      <trkpt lat="43.52116" lon="6.69666">
        <ele>358</ele>
        <time>2023-03-04T08:46:57.000Z</time>
      </trkpt>
      <trkpt lat="43.52117" lon="6.69664">
        <ele>358</ele>
        <time>2023-03-04T08:46:58.000Z</time>
      </trkpt>
      <trkpt lat="43.52119" lon="6.69663">
        <ele>358.2</ele>
        <time>2023-03-04T08:46:59.000Z</time>
      </trkpt>
      <trkpt lat="43.52122" lon="6.6966">
        <ele>358.3</ele>
        <time>2023-03-04T08:47:00.000Z</time>
      </trkpt>
      <trkpt lat="43.52123" lon="6.69659">
        <ele>358.3</ele>
        <time>2023-03-04T08:47:01.000Z</time>
      </trkpt>
      <trkpt lat="43.52126" lon="6.69656">
        <ele>358.4</ele>
        <time>2023-03-04T08:47:03.000Z</time>
      </trkpt>
      <trkpt lat="43.5213" lon="6.69652">
        <ele>358.6</ele>
        <time>2023-03-04T08:47:04.000Z</time>
      </trkpt>
      <trkpt lat="43.52133" lon="6.6965">
        <ele>358.6</ele>
        <time>2023-03-04T08:47:05.000Z</time>
      </trkpt>
      <trkpt lat="43.52136" lon="6.69648">
        <ele>358.7</ele>
        <time>2023-03-04T08:47:07.000Z</time>
      </trkpt>
      <trkpt lat="43.52137" lon="6.69647">
        <ele>358.8</ele>
        <time>2023-03-04T08:47:08.000Z</time>
      </trkpt>
      <trkpt lat="43.52139" lon="6.69645">
        <ele>358.9</ele>
        <time>2023-03-04T08:47:09.000Z</time>
      </trkpt>
      <trkpt lat="43.5214" lon="6.69644">
        <ele>358.9</ele>
        <time>2023-03-04T08:47:10.000Z</time>
      </trkpt>
      <trkpt lat="43.52142" lon="6.69641">
        <ele>359</ele>
        <time>2023-03-04T08:47:11.000Z</time>
      </trkpt>
      <trkpt lat="43.52143" lon="6.6964">
        <ele>359.1</ele>
        <time>2023-03-04T08:47:12.000Z</time>
      </trkpt>
      <trkpt lat="43.52144" lon="6.69638">
        <ele>359.2</ele>
        <time>2023-03-04T08:47:14.000Z</time>
      </trkpt>
      <trkpt lat="43.52144" lon="6.69637">
        <ele>359.2</ele>
        <time>2023-03-04T08:47:15.000Z</time>
      </trkpt>
      <trkpt lat="43.52146" lon="6.69634">
        <ele>359.4</ele>
        <time>2023-03-04T08:47:16.000Z</time>
      </trkpt>
      <trkpt lat="43.52147" lon="6.69633">
        <ele>359.5</ele>
        <time>2023-03-04T08:47:17.000Z</time>
      </trkpt>
      <trkpt lat="43.52148" lon="6.69632">
        <ele>359.6</ele>
        <time>2023-03-04T08:47:18.000Z</time>
      </trkpt>
      <trkpt lat="43.5215" lon="6.69631">
        <ele>359.8</ele>
        <time>2023-03-04T08:47:19.000Z</time>
      </trkpt>
      <trkpt lat="43.52152" lon="6.69632">
        <ele>360</ele>
        <time>2023-03-04T08:47:20.000Z</time>
      </trkpt>
      <trkpt lat="43.52155" lon="6.69631">
        <ele>360.3</ele>
        <time>2023-03-04T08:47:22.000Z</time>
      </trkpt>
      <trkpt lat="43.52158" lon="6.69629">
        <ele>360.7</ele>
        <time>2023-03-04T08:47:23.000Z</time>
      </trkpt>
      <trkpt lat="43.52159" lon="6.69629">
        <ele>360.8</ele>
        <time>2023-03-04T08:47:24.000Z</time>
      </trkpt>
      <trkpt lat="43.52162" lon="6.69627">
        <ele>361.2</ele>
        <time>2023-03-04T08:47:25.000Z</time>
      </trkpt>
      <trkpt lat="43.52164" lon="6.69627">
        <ele>361.4</ele>
        <time>2023-03-04T08:47:26.000Z</time>
      </trkpt>
      <trkpt lat="43.52167" lon="6.69625">
        <ele>361.7</ele>
        <time>2023-03-04T08:47:27.000Z</time>
      </trkpt>
      <trkpt lat="43.52171" lon="6.69623">
        <ele>362.2</ele>
        <time>2023-03-04T08:47:29.000Z</time>
      </trkpt>
      <trkpt lat="43.52174" lon="6.69621">
        <ele>362.6</ele>
        <time>2023-03-04T08:47:30.000Z</time>
      </trkpt>
      <trkpt lat="43.52176" lon="6.69621">
        <ele>362.8</ele>
        <time>2023-03-04T08:47:31.000Z</time>
      </trkpt>
      <trkpt lat="43.52179" lon="6.6962">
        <ele>363</ele>
        <time>2023-03-04T08:47:32.000Z</time>
      </trkpt>
      <trkpt lat="43.52182" lon="6.69619">
        <ele>363.3</ele>
        <time>2023-03-04T08:47:33.000Z</time>
      </trkpt>
      <trkpt lat="43.52183" lon="6.69619">
        <ele>363.4</ele>
        <time>2023-03-04T08:47:34.000Z</time>
      </trkpt>
      <trkpt lat="43.52185" lon="6.69617">
        <ele>369.3</ele>
        <time>2023-03-04T08:47:35.000Z</time>
      </trkpt>
      <trkpt lat="43.52188" lon="6.69615">
        <ele>369.5</ele>
        <time>2023-03-04T08:47:37.000Z</time>
      </trkpt>
      <trkpt lat="43.52191" lon="6.69613">
        <ele>369.6</ele>
        <time>2023-03-04T08:47:38.000Z</time>
      </trkpt>
      <trkpt lat="43.52195" lon="6.69614">
        <ele>369.2</ele>
        <time>2023-03-04T08:47:39.000Z</time>
      </trkpt>
      <trkpt lat="43.52197" lon="6.69614">
        <ele>369.4</ele>
        <time>2023-03-04T08:47:40.000Z</time>
      </trkpt>
      <trkpt lat="43.522" lon="6.69614">
        <ele>369.5</ele>
        <time>2023-03-04T08:47:41.000Z</time>
      </trkpt>
      <trkpt lat="43.52201" lon="6.69613">
        <ele>369.7</ele>
        <time>2023-03-04T08:47:42.000Z</time>
      </trkpt>
      <trkpt lat="43.52202" lon="6.69612">
        <ele>369.8</ele>
        <time>2023-03-04T08:47:43.000Z</time>
      </trkpt>
      <trkpt lat="43.52204" lon="6.69611">
        <ele>369.9</ele>
        <time>2023-03-04T08:47:44.000Z</time>
      </trkpt>
      <trkpt lat="43.52206" lon="6.69609">
        <ele>369.6</ele>
        <time>2023-03-04T08:47:46.000Z</time>
      </trkpt>
      <trkpt lat="43.52206" lon="6.69607">
        <ele>369.7</ele>
        <time>2023-03-04T08:47:47.000Z</time>
      </trkpt>
      <trkpt lat="43.52205" lon="6.69606">
        <ele>369.9</ele>
        <time>2023-03-04T08:47:48.000Z</time>
      </trkpt>
      <trkpt lat="43.52205" lon="6.69606">
        <ele>370</ele>
        <time>2023-03-04T08:47:49.000Z</time>
      </trkpt>
      <trkpt lat="43.52205" lon="6.69605">
        <ele>370.2</ele>
        <time>2023-03-04T08:47:50.000Z</time>
      </trkpt>
      <trkpt lat="43.52206" lon="6.69605">
        <ele>370.3</ele>
        <time>2023-03-04T08:47:52.000Z</time>
      </trkpt>
      <trkpt lat="43.52206" lon="6.69605">
        <ele>370.5</ele>
        <time>2023-03-04T08:47:53.000Z</time>
      </trkpt>
      <trkpt lat="43.52206" lon="6.69605">
        <ele>370.6</ele>
        <time>2023-03-04T08:47:54.000Z</time>
      </trkpt>
      <trkpt lat="43.52207" lon="6.69604">
        <ele>370.8</ele>
        <time>2023-03-04T08:47:56.000Z</time>
      </trkpt>
      <trkpt lat="43.52206" lon="6.69604">
        <ele>370.9</ele>
        <time>2023-03-04T08:47:57.000Z</time>
      </trkpt>
      <trkpt lat="43.52206" lon="6.69603">
        <ele>371.1</ele>
        <time>2023-03-04T08:47:59.000Z</time>
      </trkpt>
      <trkpt lat="43.52206" lon="6.69603">
        <ele>371.2</ele>
        <time>2023-03-04T08:48:00.000Z</time>
      </trkpt>
      <trkpt lat="43.52206" lon="6.69603">
        <ele>371.4</ele>
        <time>2023-03-04T08:48:01.000Z</time>
      </trkpt>
      <trkpt lat="43.52206" lon="6.69603">
        <ele>371.5</ele>
        <time>2023-03-04T08:48:03.000Z</time>
      </trkpt>
      <trkpt lat="43.52206" lon="6.69602">
        <ele>371.7</ele>
        <time>2023-03-04T08:48:04.000Z</time>
      </trkpt>
      <trkpt lat="43.52206" lon="6.69602">
        <ele>371.8</ele>
        <time>2023-03-04T08:48:06.000Z</time>
      </trkpt>
      <trkpt lat="43.52206" lon="6.69602">
        <ele>371.9</ele>
        <time>2023-03-04T08:48:07.000Z</time>
      </trkpt>
      <trkpt lat="43.52206" lon="6.69602">
        <ele>372.1</ele>
        <time>2023-03-04T08:48:08.000Z</time>
      </trkpt>
      <trkpt lat="43.52207" lon="6.69602">
        <ele>372.2</ele>
        <time>2023-03-04T08:48:10.000Z</time>
      </trkpt>
      <trkpt lat="43.52206" lon="6.69601">
        <ele>372.4</ele>
        <time>2023-03-04T08:48:11.000Z</time>
      </trkpt>
      <trkpt lat="43.52205" lon="6.69601">
        <ele>372.5</ele>
        <time>2023-03-04T08:48:13.000Z</time>
      </trkpt>
      <trkpt lat="43.52204" lon="6.69601">
        <ele>373.2</ele>
        <time>2023-03-04T08:48:14.000Z</time>
      </trkpt>
      <trkpt lat="43.522" lon="6.696">
        <ele>373.3</ele>
        <time>2023-03-04T08:48:15.000Z</time>
      </trkpt>
      <trkpt lat="43.52197" lon="6.69601">
        <ele>373.5</ele>
        <time>2023-03-04T08:48:17.000Z</time>
      </trkpt>
      <trkpt lat="43.52196" lon="6.69601">
        <ele>373.6</ele>
        <time>2023-03-04T08:48:18.000Z</time>
      </trkpt>
      <trkpt lat="43.52192" lon="6.69602">
        <ele>373.8</ele>
        <time>2023-03-04T08:48:19.000Z</time>
      </trkpt>
      <trkpt lat="43.52191" lon="6.69602">
        <ele>374.4</ele>
        <time>2023-03-04T08:48:20.000Z</time>
      </trkpt>
      <trkpt lat="43.52187" lon="6.69602">
        <ele>374.6</ele>
        <time>2023-03-04T08:48:21.000Z</time>
      </trkpt>
      <trkpt lat="43.52186" lon="6.69602">
        <ele>374.7</ele>
        <time>2023-03-04T08:48:22.000Z</time>
      </trkpt>
      <trkpt lat="43.52183" lon="6.69603">
        <ele>374.9</ele>
        <time>2023-03-04T08:48:23.000Z</time>
      </trkpt>
      <trkpt lat="43.52181" lon="6.69602">
        <ele>375.1</ele>
        <time>2023-03-04T08:48:25.000Z</time>
      </trkpt>
      <trkpt lat="43.52177" lon="6.69602">
        <ele>375.3</ele>
        <time>2023-03-04T08:48:26.000Z</time>
      </trkpt>
      <trkpt lat="43.52175" lon="6.69602">
        <ele>375.5</ele>
        <time>2023-03-04T08:48:27.000Z</time>
      </trkpt>
      <trkpt lat="43.52172" lon="6.69602">
        <ele>375.7</ele>
        <time>2023-03-04T08:48:29.000Z</time>
      </trkpt>
      <trkpt lat="43.52168" lon="6.69602">
        <ele>376</ele>
        <time>2023-03-04T08:48:30.000Z</time>
      </trkpt>
      <trkpt lat="43.52167" lon="6.69602">
        <ele>376.2</ele>
        <time>2023-03-04T08:48:31.000Z</time>
      </trkpt>
      <trkpt lat="43.52166" lon="6.69602">
        <ele>376.3</ele>
        <time>2023-03-04T08:48:32.000Z</time>
      </trkpt>
      <trkpt lat="43.52165" lon="6.69601">
        <ele>376.4</ele>
        <time>2023-03-04T08:48:33.000Z</time>
      </trkpt>
      <trkpt lat="43.52165" lon="6.69599">
        <ele>376.5</ele>
        <time>2023-03-04T08:48:34.000Z</time>
      </trkpt>
      <trkpt lat="43.52166" lon="6.69599">
        <ele>376.6</ele>
        <time>2023-03-04T08:48:35.000Z</time>
      </trkpt>
      <trkpt lat="43.52166" lon="6.69599">
        <ele>376.6</ele>
        <time>2023-03-04T08:48:37.000Z</time>
      </trkpt>
      <trkpt lat="43.52167" lon="6.69599">
        <ele>376.7</ele>
        <time>2023-03-04T08:48:38.000Z</time>
      </trkpt>
      <trkpt lat="43.52167" lon="6.69598">
        <ele>376.7</ele>
        <time>2023-03-04T08:48:40.000Z</time>
      </trkpt>
      <trkpt lat="43.52168" lon="6.69598">
        <ele>376.8</ele>
        <time>2023-03-04T08:48:41.000Z</time>
      </trkpt>
      <trkpt lat="43.52169" lon="6.69597">
        <ele>377</ele>
        <time>2023-03-04T08:48:42.000Z</time>
      </trkpt>
      <trkpt lat="43.5217" lon="6.69595">
        <ele>377.1</ele>
        <time>2023-03-04T08:48:43.000Z</time>
      </trkpt>
      <trkpt lat="43.52174" lon="6.69596">
        <ele>377.6</ele>
        <time>2023-03-04T08:48:44.000Z</time>
      </trkpt>
      <trkpt lat="43.52177" lon="6.69595">
        <ele>378.1</ele>
        <time>2023-03-04T08:48:45.000Z</time>
      </trkpt>
      <trkpt lat="43.5218" lon="6.69593">
        <ele>378.5</ele>
        <time>2023-03-04T08:48:47.000Z</time>
      </trkpt>
      <trkpt lat="43.52181" lon="6.69593">
        <ele>378.6</ele>
        <time>2023-03-04T08:48:48.000Z</time>
      </trkpt>
      <trkpt lat="43.52183" lon="6.69593">
        <ele>378.8</ele>
        <time>2023-03-04T08:48:49.000Z</time>
      </trkpt>
      <trkpt lat="43.52184" lon="6.69593">
        <ele>378.9</ele>
        <time>2023-03-04T08:48:50.000Z</time>
      </trkpt>
      <trkpt lat="43.52183" lon="6.69593">
        <ele>379</ele>
        <time>2023-03-04T08:48:51.000Z</time>
      </trkpt>
      <trkpt lat="43.52183" lon="6.69593">
        <ele>379</ele>
        <time>2023-03-04T08:48:53.000Z</time>
      </trkpt>
      <trkpt lat="43.52183" lon="6.69593">
        <ele>379</ele>
        <time>2023-03-04T08:48:54.000Z</time>
      </trkpt>
      <trkpt lat="43.52183" lon="6.69593">
        <ele>379</ele>
        <time>2023-03-04T08:48:55.000Z</time>
      </trkpt>
      <trkpt lat="43.52184" lon="6.69593">
        <ele>379.1</ele>
        <time>2023-03-04T08:48:56.000Z</time>
      </trkpt>
      <trkpt lat="43.52185" lon="6.69593">
        <ele>379.3</ele>
        <time>2023-03-04T08:48:58.000Z</time>
      </trkpt>
      <trkpt lat="43.52189" lon="6.69589">
        <ele>379.8</ele>
        <time>2023-03-04T08:48:59.000Z</time>
      </trkpt>
      <trkpt lat="43.5219" lon="6.69588">
        <ele>380</ele>
        <time>2023-03-04T08:49:00.000Z</time>
      </trkpt>
      <trkpt lat="43.5219" lon="6.69588">
        <ele>380.1</ele>
        <time>2023-03-04T08:49:01.000Z</time>
      </trkpt>
      <trkpt lat="43.52191" lon="6.69587">
        <ele>380.2</ele>
        <time>2023-03-04T08:49:02.000Z</time>
      </trkpt>
      <trkpt lat="43.52192" lon="6.69587">
        <ele>380.4</ele>
        <time>2023-03-04T08:49:04.000Z</time>
      </trkpt>
      <trkpt lat="43.52193" lon="6.69586">
        <ele>380.5</ele>
        <time>2023-03-04T08:49:05.000Z</time>
      </trkpt>
      <trkpt lat="43.52195" lon="6.69585">
        <ele>380.7</ele>
        <time>2023-03-04T08:49:06.000Z</time>
      </trkpt>
      <trkpt lat="43.52196" lon="6.69583">
        <ele>381</ele>
        <time>2023-03-04T08:49:07.000Z</time>
      </trkpt>
      <trkpt lat="43.52198" lon="6.69583">
        <ele>381.2</ele>
        <time>2023-03-04T08:49:08.000Z</time>
      </trkpt>
      <trkpt lat="43.522" lon="6.69581">
        <ele>381.5</ele>
        <time>2023-03-04T08:49:09.000Z</time>
      </trkpt>
      <trkpt lat="43.52203" lon="6.69579">
        <ele>381.8</ele>
        <time>2023-03-04T08:49:10.000Z</time>
      </trkpt>
      <trkpt lat="43.52205" lon="6.69577">
        <ele>382.2</ele>
        <time>2023-03-04T08:49:11.000Z</time>
      </trkpt>
      <trkpt lat="43.52209" lon="6.69574">
        <ele>382.7</ele>
        <time>2023-03-04T08:49:13.000Z</time>
      </trkpt>
      <trkpt lat="43.5221" lon="6.69573">
        <ele>382.9</ele>
        <time>2023-03-04T08:49:14.000Z</time>
      </trkpt>
      <trkpt lat="43.52211" lon="6.69572">
        <ele>383.1</ele>
        <time>2023-03-04T08:49:15.000Z</time>
      </trkpt>
      <trkpt lat="43.52214" lon="6.6957">
        <ele>383.4</ele>
        <time>2023-03-04T08:49:16.000Z</time>
      </trkpt>
      <trkpt lat="43.52216" lon="6.69568">
        <ele>383.8</ele>
        <time>2023-03-04T08:49:18.000Z</time>
      </trkpt>
      <trkpt lat="43.52217" lon="6.69567">
        <ele>384</ele>
        <time>2023-03-04T08:49:19.000Z</time>
      </trkpt>
      <trkpt lat="43.5222" lon="6.69565">
        <ele>384.4</ele>
        <time>2023-03-04T08:49:20.000Z</time>
      </trkpt>
      <trkpt lat="43.5222" lon="6.69564">
        <ele>384.6</ele>
        <time>2023-03-04T08:49:21.000Z</time>
      </trkpt>
      <trkpt lat="43.52222" lon="6.69562">
        <ele>384.8</ele>
        <time>2023-03-04T08:49:22.000Z</time>
      </trkpt>
      <trkpt lat="43.52223" lon="6.6956">
        <ele>385.1</ele>
        <time>2023-03-04T08:49:24.000Z</time>
      </trkpt>
      <trkpt lat="43.52224" lon="6.69558">
        <ele>385.4</ele>
        <time>2023-03-04T08:49:25.000Z</time>
      </trkpt>
      <trkpt lat="43.52225" lon="6.69557">
        <ele>385.6</ele>
        <time>2023-03-04T08:49:26.000Z</time>
      </trkpt>
      <trkpt lat="43.52226" lon="6.69556">
        <ele>385.8</ele>
        <time>2023-03-04T08:49:27.000Z</time>
      </trkpt>
      <trkpt lat="43.52228" lon="6.69554">
        <ele>386.2</ele>
        <time>2023-03-04T08:49:28.000Z</time>
      </trkpt>
      <trkpt lat="43.52231" lon="6.69553">
        <ele>386.7</ele>
        <time>2023-03-04T08:49:29.000Z</time>
      </trkpt>
      <trkpt lat="43.52231" lon="6.69552">
        <ele>386.8</ele>
        <time>2023-03-04T08:49:30.000Z</time>
      </trkpt>
      <trkpt lat="43.52234" lon="6.69549">
        <ele>387.3</ele>
        <time>2023-03-04T08:49:32.000Z</time>
      </trkpt>
      <trkpt lat="43.52235" lon="6.69548">
        <ele>387.6</ele>
        <time>2023-03-04T08:49:33.000Z</time>
      </trkpt>
      <trkpt lat="43.52237" lon="6.69544">
        <ele>388.1</ele>
        <time>2023-03-04T08:49:34.000Z</time>
      </trkpt>
      <trkpt lat="43.52239" lon="6.6954">
        <ele>388.7</ele>
        <time>2023-03-04T08:49:35.000Z</time>
      </trkpt>
      <trkpt lat="43.5224" lon="6.69538">
        <ele>388.9</ele>
        <time>2023-03-04T08:49:36.000Z</time>
      </trkpt>
      <trkpt lat="43.52242" lon="6.69535">
        <ele>389.3</ele>
        <time>2023-03-04T08:49:37.000Z</time>
      </trkpt>
      <trkpt lat="43.52243" lon="6.69533">
        <ele>389.5</ele>
        <time>2023-03-04T08:49:38.000Z</time>
      </trkpt>
      <trkpt lat="43.52245" lon="6.6953">
        <ele>389.9</ele>
        <time>2023-03-04T08:49:40.000Z</time>
      </trkpt>
      <trkpt lat="43.52245" lon="6.6953">
        <ele>389.9</ele>
        <time>2023-03-04T08:49:41.000Z</time>
      </trkpt>
      <trkpt lat="43.52245" lon="6.69531">
        <ele>390</ele>
        <time>2023-03-04T08:49:43.000Z</time>
      </trkpt>
      <trkpt lat="43.52246" lon="6.69531">
        <ele>390</ele>
        <time>2023-03-04T08:49:44.000Z</time>
      </trkpt>
      <trkpt lat="43.52246" lon="6.6953">
        <ele>390.2</ele>
        <time>2023-03-04T08:49:45.000Z</time>
      </trkpt>
      <trkpt lat="43.52247" lon="6.69529">
        <ele>390.2</ele>
        <time>2023-03-04T08:49:47.000Z</time>
      </trkpt>
      <trkpt lat="43.52247" lon="6.69529">
        <ele>390.3</ele>
        <time>2023-03-04T08:49:48.000Z</time>
      </trkpt>
      <trkpt lat="43.52248" lon="6.69528">
        <ele>390.4</ele>
        <time>2023-03-04T08:49:50.000Z</time>
      </trkpt>
      <trkpt lat="43.52249" lon="6.69528">
        <ele>390.5</ele>
        <time>2023-03-04T08:49:51.000Z</time>
      </trkpt>
      <trkpt lat="43.5225" lon="6.69528">
        <ele>390.6</ele>
        <time>2023-03-04T08:49:53.000Z</time>
      </trkpt>
      <trkpt lat="43.52251" lon="6.69527">
        <ele>390.7</ele>
        <time>2023-03-04T08:49:54.000Z</time>
      </trkpt>
      <trkpt lat="43.52252" lon="6.69527">
        <ele>390.8</ele>
        <time>2023-03-04T08:49:55.000Z</time>
      </trkpt>
      <trkpt lat="43.52253" lon="6.69526">
        <ele>391</ele>
        <time>2023-03-04T08:49:57.000Z</time>
      </trkpt>
      <trkpt lat="43.52254" lon="6.69526">
        <ele>391.1</ele>
        <time>2023-03-04T08:49:58.000Z</time>
      </trkpt>
      <trkpt lat="43.52254" lon="6.69525">
        <ele>391.1</ele>
        <time>2023-03-04T08:50:00.000Z</time>
      </trkpt>
      <trkpt lat="43.52254" lon="6.69525">
        <ele>391.2</ele>
        <time>2023-03-04T08:50:01.000Z</time>
      </trkpt>
      <trkpt lat="43.52255" lon="6.69525">
        <ele>391.3</ele>
        <time>2023-03-04T08:50:02.000Z</time>
      </trkpt>
      <trkpt lat="43.52256" lon="6.69525">
        <ele>391.3</ele>
        <time>2023-03-04T08:50:04.000Z</time>
      </trkpt>
      <trkpt lat="43.52257" lon="6.69525">
        <ele>391.4</ele>
        <time>2023-03-04T08:50:05.000Z</time>
      </trkpt>
      <trkpt lat="43.52258" lon="6.69525">
        <ele>391.5</ele>
        <time>2023-03-04T08:50:06.000Z</time>
      </trkpt>
      <trkpt lat="43.52259" lon="6.69525">
        <ele>391.6</ele>
        <time>2023-03-04T08:50:07.000Z</time>
      </trkpt>
      <trkpt lat="43.5226" lon="6.69524">
        <ele>391.7</ele>
        <time>2023-03-04T08:50:08.000Z</time>
      </trkpt>
      <trkpt lat="43.52261" lon="6.69523">
        <ele>391.8</ele>
        <time>2023-03-04T08:50:09.000Z</time>
      </trkpt>
      <trkpt lat="43.52264" lon="6.69522">
        <ele>392.1</ele>
        <time>2023-03-04T08:50:11.000Z</time>
      </trkpt>
      <trkpt lat="43.52265" lon="6.69521">
        <ele>392.2</ele>
        <time>2023-03-04T08:50:12.000Z</time>
      </trkpt>
      <trkpt lat="43.52269" lon="6.69521">
        <ele>392.4</ele>
        <time>2023-03-04T08:50:13.000Z</time>
      </trkpt>
      <trkpt lat="43.5227" lon="6.69521">
        <ele>392.5</ele>
        <time>2023-03-04T08:50:14.000Z</time>
      </trkpt>
      <trkpt lat="43.52273" lon="6.69521">
        <ele>392.7</ele>
        <time>2023-03-04T08:50:15.000Z</time>
      </trkpt>
      <trkpt lat="43.52274" lon="6.6952">
        <ele>392.8</ele>
        <time>2023-03-04T08:50:16.000Z</time>
      </trkpt>
      <trkpt lat="43.52278" lon="6.69521">
        <ele>393</ele>
        <time>2023-03-04T08:50:18.000Z</time>
      </trkpt>
      <trkpt lat="43.52278" lon="6.69522">
        <ele>393</ele>
        <time>2023-03-04T08:50:19.000Z</time>
      </trkpt>
      <trkpt lat="43.52281" lon="6.69521">
        <ele>393.2</ele>
        <time>2023-03-04T08:50:20.000Z</time>
      </trkpt>
      <trkpt lat="43.52282" lon="6.6952">
        <ele>393.2</ele>
        <time>2023-03-04T08:50:21.000Z</time>
      </trkpt>
      <trkpt lat="43.52285" lon="6.69519">
        <ele>393.4</ele>
        <time>2023-03-04T08:50:22.000Z</time>
      </trkpt>
      <trkpt lat="43.52286" lon="6.69519">
        <ele>393.4</ele>
        <time>2023-03-04T08:50:23.000Z</time>
      </trkpt>
      <trkpt lat="43.52289" lon="6.69518">
        <ele>393.6</ele>
        <time>2023-03-04T08:50:25.000Z</time>
      </trkpt>
      <trkpt lat="43.5229" lon="6.69518">
        <ele>393.6</ele>
        <time>2023-03-04T08:50:26.000Z</time>
      </trkpt>
      <trkpt lat="43.52293" lon="6.69519">
        <ele>393.8</ele>
        <time>2023-03-04T08:50:27.000Z</time>
      </trkpt>
      <trkpt lat="43.52294" lon="6.69519">
        <ele>393.8</ele>
        <time>2023-03-04T08:50:28.000Z</time>
      </trkpt>
      <trkpt lat="43.52297" lon="6.69519">
        <ele>394</ele>
        <time>2023-03-04T08:50:29.000Z</time>
      </trkpt>
      <trkpt lat="43.52298" lon="6.69519">
        <ele>394</ele>
        <time>2023-03-04T08:50:30.000Z</time>
      </trkpt>
      <trkpt lat="43.523" lon="6.69519">
        <ele>394.2</ele>
        <time>2023-03-04T08:50:32.000Z</time>
      </trkpt>
      <trkpt lat="43.52301" lon="6.69519">
        <ele>394.2</ele>
        <time>2023-03-04T08:50:33.000Z</time>
      </trkpt>
      <trkpt lat="43.52304" lon="6.69519">
        <ele>394.4</ele>
        <time>2023-03-04T08:50:34.000Z</time>
      </trkpt>
      <trkpt lat="43.52305" lon="6.69518">
        <ele>394.5</ele>
        <time>2023-03-04T08:50:35.000Z</time>
      </trkpt>
      <trkpt lat="43.52309" lon="6.69517">
        <ele>394.7</ele>
        <time>2023-03-04T08:50:36.000Z</time>
      </trkpt>
      <trkpt lat="43.52312" lon="6.69517">
        <ele>395</ele>
        <time>2023-03-04T08:50:37.000Z</time>
      </trkpt>
      <trkpt lat="43.52313" lon="6.69517">
        <ele>395.1</ele>
        <time>2023-03-04T08:50:38.000Z</time>
      </trkpt>
      <trkpt lat="43.52317" lon="6.69517">
        <ele>395.5</ele>
        <time>2023-03-04T08:50:40.000Z</time>
      </trkpt>
      <trkpt lat="43.52319" lon="6.69517">
        <ele>395.7</ele>
        <time>2023-03-04T08:50:41.000Z</time>
      </trkpt>
      <trkpt lat="43.52322" lon="6.69517">
        <ele>396</ele>
        <time>2023-03-04T08:50:42.000Z</time>
      </trkpt>
      <trkpt lat="43.52324" lon="6.69517">
        <ele>396.2</ele>
        <time>2023-03-04T08:50:43.000Z</time>
      </trkpt>
      <trkpt lat="43.52327" lon="6.69517">
        <ele>396.7</ele>
        <time>2023-03-04T08:50:44.000Z</time>
      </trkpt>
      <trkpt lat="43.52328" lon="6.69517">
        <ele>396.8</ele>
        <time>2023-03-04T08:50:45.000Z</time>
      </trkpt>
      <trkpt lat="43.52331" lon="6.69517">
        <ele>397.2</ele>
        <time>2023-03-04T08:50:46.000Z</time>
      </trkpt>
      <trkpt lat="43.52334" lon="6.69517">
        <ele>397.6</ele>
        <time>2023-03-04T08:50:47.000Z</time>
      </trkpt>
      <trkpt lat="43.52339" lon="6.69518">
        <ele>398.3</ele>
        <time>2023-03-04T08:50:49.000Z</time>
      </trkpt>
      <trkpt lat="43.52341" lon="6.69519">
        <ele>398.5</ele>
        <time>2023-03-04T08:50:50.000Z</time>
      </trkpt>
      <trkpt lat="43.52342" lon="6.69519">
        <ele>398.7</ele>
        <time>2023-03-04T08:50:51.000Z</time>
      </trkpt>
      <trkpt lat="43.52346" lon="6.69521">
        <ele>399.3</ele>
        <time>2023-03-04T08:50:53.000Z</time>
      </trkpt>
      <trkpt lat="43.52347" lon="6.69522">
        <ele>399.4</ele>
        <time>2023-03-04T08:50:54.000Z</time>
      </trkpt>
      <trkpt lat="43.52348" lon="6.69522">
        <ele>399.5</ele>
        <time>2023-03-04T08:50:55.000Z</time>
      </trkpt>
      <trkpt lat="43.5235" lon="6.69523">
        <ele>399.7</ele>
        <time>2023-03-04T08:50:56.000Z</time>
      </trkpt>
      <trkpt lat="43.52351" lon="6.69523">
        <ele>399.9</ele>
        <time>2023-03-04T08:50:57.000Z</time>
      </trkpt>
      <trkpt lat="43.52353" lon="6.69523">
        <ele>400</ele>
        <time>2023-03-04T08:50:58.000Z</time>
      </trkpt>
      <trkpt lat="43.52352" lon="6.69522">
        <ele>400.1</ele>
        <time>2023-03-04T08:50:59.000Z</time>
      </trkpt>
      <trkpt lat="43.52352" lon="6.69521">
        <ele>400.1</ele>
        <time>2023-03-04T08:51:01.000Z</time>
      </trkpt>
      <trkpt lat="43.52352" lon="6.69521">
        <ele>400.2</ele>
        <time>2023-03-04T08:51:02.000Z</time>
      </trkpt>
      <trkpt lat="43.52351" lon="6.6952">
        <ele>400.3</ele>
        <time>2023-03-04T08:51:03.000Z</time>
      </trkpt>
      <trkpt lat="43.52351" lon="6.6952">
        <ele>400.3</ele>
        <time>2023-03-04T08:51:05.000Z</time>
      </trkpt>
      <trkpt lat="43.52351" lon="6.69519">
        <ele>400.4</ele>
        <time>2023-03-04T08:51:06.000Z</time>
      </trkpt>
      <trkpt lat="43.52351" lon="6.69519">
        <ele>400.4</ele>
        <time>2023-03-04T08:51:08.000Z</time>
      </trkpt>
      <trkpt lat="43.5235" lon="6.69518">
        <ele>400.5</ele>
        <time>2023-03-04T08:51:09.000Z</time>
      </trkpt>
      <trkpt lat="43.5235" lon="6.69518">
        <ele>400.5</ele>
        <time>2023-03-04T08:51:10.000Z</time>
      </trkpt>
      <trkpt lat="43.5235" lon="6.69517">
        <ele>400.6</ele>
        <time>2023-03-04T08:51:12.000Z</time>
      </trkpt>
      <trkpt lat="43.52349" lon="6.69517">
        <ele>400.7</ele>
        <time>2023-03-04T08:51:13.000Z</time>
      </trkpt>
      <trkpt lat="43.52349" lon="6.69516">
        <ele>400.7</ele>
        <time>2023-03-04T08:51:15.000Z</time>
      </trkpt>
      <trkpt lat="43.52349" lon="6.69516">
        <ele>400.8</ele>
        <time>2023-03-04T09:01:38.000Z</time>
      </trkpt>
      <trkpt lat="43.52349" lon="6.69515">
        <ele>400.8</ele>
        <time>2023-03-04T09:01:39.000Z</time>
      </trkpt>
      <trkpt lat="43.52348" lon="6.69514">
        <ele>400.9</ele>
        <time>2023-03-04T09:01:40.000Z</time>
      </trkpt>
      <trkpt lat="43.52346" lon="6.69512">
        <ele>401.3</ele>
        <time>2023-03-04T09:01:42.000Z</time>
      </trkpt>
      <trkpt lat="43.52345" lon="6.69511">
        <ele>401.4</ele>
        <time>2023-03-04T09:01:43.000Z</time>
      </trkpt>
      <trkpt lat="43.52344" lon="6.69506">
        <ele>401.8</ele>
        <time>2023-03-04T09:01:44.000Z</time>
      </trkpt>
      <trkpt lat="43.52343" lon="6.69504">
        <ele>401.9</ele>
        <time>2023-03-04T09:01:45.000Z</time>
      </trkpt>
      <trkpt lat="43.52342" lon="6.69501">
        <ele>402.3</ele>
        <time>2023-03-04T09:01:46.000Z</time>
      </trkpt>
      <trkpt lat="43.52341" lon="6.695">
        <ele>402.4</ele>
        <time>2023-03-04T09:01:47.000Z</time>
      </trkpt>
      <trkpt lat="43.52341" lon="6.695">
        <ele>402.5</ele>
        <time>2023-03-04T09:01:49.000Z</time>
      </trkpt>
      <trkpt lat="43.52341" lon="6.695">
        <ele>402.5</ele>
        <time>2023-03-04T09:01:50.000Z</time>
      </trkpt>
      <trkpt lat="43.52341" lon="6.695">
        <ele>402.5</ele>
        <time>2023-03-04T09:01:52.000Z</time>
      </trkpt>
      <trkpt lat="43.52341" lon="6.695">
        <ele>402.5</ele>
        <time>2023-03-04T09:01:53.000Z</time>
      </trkpt>
      <trkpt lat="43.52341" lon="6.695">
        <ele>402.5</ele>
        <time>2023-03-04T09:01:54.000Z</time>
      </trkpt>
      <trkpt lat="43.52341" lon="6.69499">
        <ele>402.6</ele>
        <time>2023-03-04T09:01:56.000Z</time>
      </trkpt>
      <trkpt lat="43.52341" lon="6.69499">
        <ele>402.6</ele>
        <time>2023-03-04T09:01:57.000Z</time>
      </trkpt>
      <trkpt lat="43.52341" lon="6.69498">
        <ele>402.7</ele>
        <time>2023-03-04T09:01:58.000Z</time>
      </trkpt>
      <trkpt lat="43.52339" lon="6.69494">
        <ele>403.1</ele>
        <time>2023-03-04T09:01:59.000Z</time>
      </trkpt>
      <trkpt lat="43.52338" lon="6.6949">
        <ele>403.5</ele>
        <time>2023-03-04T09:02:00.000Z</time>
      </trkpt>
      <trkpt lat="43.52338" lon="6.69488">
        <ele>403.7</ele>
        <time>2023-03-04T09:02:01.000Z</time>
      </trkpt>
      <trkpt lat="43.52339" lon="6.69484">
        <ele>404.1</ele>
        <time>2023-03-04T09:02:03.000Z</time>
      </trkpt>
      <trkpt lat="43.52339" lon="6.69483">
        <ele>404.2</ele>
        <time>2023-03-04T09:02:04.000Z</time>
      </trkpt>
      <trkpt lat="43.52338" lon="6.69481">
        <ele>404.4</ele>
        <time>2023-03-04T09:02:05.000Z</time>
      </trkpt>
      <trkpt lat="43.52336" lon="6.6948">
        <ele>404.7</ele>
        <time>2023-03-04T09:02:07.000Z</time>
      </trkpt>
      <trkpt lat="43.52333" lon="6.69477">
        <ele>405.2</ele>
        <time>2023-03-04T09:02:08.000Z</time>
      </trkpt>
      <trkpt lat="43.5233" lon="6.69475">
        <ele>405.7</ele>
        <time>2023-03-04T09:02:10.000Z</time>
      </trkpt>
      <trkpt lat="43.5233" lon="6.69474">
        <ele>405.8</ele>
        <time>2023-03-04T09:02:11.000Z</time>
      </trkpt>
      <trkpt lat="43.52327" lon="6.6947">
        <ele>406.3</ele>
        <time>2023-03-04T09:02:12.000Z</time>
      </trkpt>
      <trkpt lat="43.52326" lon="6.69469">
        <ele>406.4</ele>
        <time>2023-03-04T09:02:13.000Z</time>
      </trkpt>
      <trkpt lat="43.52324" lon="6.69466">
        <ele>406.8</ele>
        <time>2023-03-04T09:02:14.000Z</time>
      </trkpt>
      <trkpt lat="43.52323" lon="6.69466">
        <ele>407</ele>
        <time>2023-03-04T09:02:15.000Z</time>
      </trkpt>
      <trkpt lat="43.5232" lon="6.69464">
        <ele>407.4</ele>
        <time>2023-03-04T09:02:17.000Z</time>
      </trkpt>
      <trkpt lat="43.52319" lon="6.69463">
        <ele>407.5</ele>
        <time>2023-03-04T09:02:18.000Z</time>
      </trkpt>
      <trkpt lat="43.52316" lon="6.6946">
        <ele>408</ele>
        <time>2023-03-04T09:02:19.000Z</time>
      </trkpt>
      <trkpt lat="43.52315" lon="6.69459">
        <ele>408.2</ele>
        <time>2023-03-04T09:02:20.000Z</time>
      </trkpt>
      <trkpt lat="43.52312" lon="6.69458">
        <ele>408.6</ele>
        <time>2023-03-04T09:02:21.000Z</time>
      </trkpt>
      <trkpt lat="43.52311" lon="6.69458">
        <ele>408.8</ele>
        <time>2023-03-04T09:02:22.000Z</time>
      </trkpt>
      <trkpt lat="43.52308" lon="6.69458">
        <ele>409.3</ele>
        <time>2023-03-04T09:02:24.000Z</time>
      </trkpt>
      <trkpt lat="43.52307" lon="6.69458">
        <ele>409.4</ele>
        <time>2023-03-04T09:02:25.000Z</time>
      </trkpt>
      <trkpt lat="43.52304" lon="6.69459">
        <ele>409.9</ele>
        <time>2023-03-04T09:02:26.000Z</time>
      </trkpt>
      <trkpt lat="43.52302" lon="6.69459">
        <ele>410.2</ele>
        <time>2023-03-04T09:02:27.000Z</time>
      </trkpt>
      <trkpt lat="43.523" lon="6.69459">
        <ele>410.5</ele>
        <time>2023-03-04T09:02:28.000Z</time>
      </trkpt>
      <trkpt lat="43.52299" lon="6.69458">
        <ele>410.8</ele>
        <time>2023-03-04T09:02:29.000Z</time>
      </trkpt>
      <trkpt lat="43.52299" lon="6.69456">
        <ele>411</ele>
        <time>2023-03-04T09:02:31.000Z</time>
      </trkpt>
      <trkpt lat="43.52298" lon="6.69455">
        <ele>411.2</ele>
        <time>2023-03-04T09:02:32.000Z</time>
      </trkpt>
      <trkpt lat="43.52297" lon="6.69452">
        <ele>411.6</ele>
        <time>2023-03-04T09:02:33.000Z</time>
      </trkpt>
      <trkpt lat="43.52295" lon="6.6945">
        <ele>412.1</ele>
        <time>2023-03-04T09:02:34.000Z</time>
      </trkpt>
      <trkpt lat="43.52294" lon="6.69449">
        <ele>412.2</ele>
        <time>2023-03-04T09:02:35.000Z</time>
      </trkpt>
      <trkpt lat="43.52293" lon="6.69449">
        <ele>412.5</ele>
        <time>2023-03-04T09:02:36.000Z</time>
      </trkpt>
      <trkpt lat="43.5229" lon="6.6945">
        <ele>413</ele>
        <time>2023-03-04T09:02:38.000Z</time>
      </trkpt>
      <trkpt lat="43.52288" lon="6.69449">
        <ele>413.3</ele>
        <time>2023-03-04T09:02:39.000Z</time>
      </trkpt>
      <trkpt lat="43.52287" lon="6.69449">
        <ele>413.5</ele>
        <time>2023-03-04T09:02:41.000Z</time>
      </trkpt>
      <trkpt lat="43.52287" lon="6.69449">
        <ele>413.6</ele>
        <time>2023-03-04T09:02:42.000Z</time>
      </trkpt>
      <trkpt lat="43.52287" lon="6.69449">
        <ele>413.6</ele>
        <time>2023-03-04T09:02:43.000Z</time>
      </trkpt>
      <trkpt lat="43.52287" lon="6.69449">
        <ele>413.6</ele>
        <time>2023-03-04T09:02:45.000Z</time>
      </trkpt>
      <trkpt lat="43.52287" lon="6.69449">
        <ele>413.7</ele>
        <time>2023-03-04T09:02:46.000Z</time>
      </trkpt>
      <trkpt lat="43.52287" lon="6.69449">
        <ele>413.7</ele>
        <time>2023-03-04T09:02:48.000Z</time>
      </trkpt>
      <trkpt lat="43.52287" lon="6.69449">
        <ele>413.7</ele>
        <time>2023-03-04T09:02:49.000Z</time>
      </trkpt>
      <trkpt lat="43.52287" lon="6.69449">
        <ele>413.7</ele>
        <time>2023-03-04T09:02:51.000Z</time>
      </trkpt>
      <trkpt lat="43.52286" lon="6.69448">
        <ele>413.8</ele>
        <time>2023-03-04T09:02:52.000Z</time>
      </trkpt>
      <trkpt lat="43.52286" lon="6.69448">
        <ele>413.8</ele>
        <time>2023-03-04T09:02:53.000Z</time>
      </trkpt>
      <trkpt lat="43.52285" lon="6.69449">
        <ele>413.9</ele>
        <time>2023-03-04T09:02:54.000Z</time>
      </trkpt>
      <trkpt lat="43.52285" lon="6.69449">
        <ele>413.9</ele>
        <time>2023-03-04T09:02:56.000Z</time>
      </trkpt>
      <trkpt lat="43.52284" lon="6.69449">
        <ele>414.1</ele>
        <time>2023-03-04T09:02:57.000Z</time>
      </trkpt>
      <trkpt lat="43.52282" lon="6.6945">
        <ele>414.3</ele>
        <time>2023-03-04T09:02:58.000Z</time>
      </trkpt>
      <trkpt lat="43.52282" lon="6.69451">
        <ele>414.4</ele>
        <time>2023-03-04T09:02:59.000Z</time>
      </trkpt>
      <trkpt lat="43.52282" lon="6.69451">
        <ele>414.5</ele>
        <time>2023-03-04T09:03:00.000Z</time>
      </trkpt>
      <trkpt lat="43.52282" lon="6.69452">
        <ele>414.6</ele>
        <time>2023-03-04T09:03:01.000Z</time>
      </trkpt>
      <trkpt lat="43.5228" lon="6.69452">
        <ele>414.8</ele>
        <time>2023-03-04T09:03:03.000Z</time>
      </trkpt>
      <trkpt lat="43.5228" lon="6.69453">
        <ele>414.8</ele>
        <time>2023-03-04T09:03:04.000Z</time>
      </trkpt>
      <trkpt lat="43.5228" lon="6.69453">
        <ele>414.9</ele>
        <time>2023-03-04T09:03:06.000Z</time>
      </trkpt>
      <trkpt lat="43.52279" lon="6.69453">
        <ele>415</ele>
        <time>2023-03-04T09:03:07.000Z</time>
      </trkpt>
      <trkpt lat="43.52277" lon="6.69453">
        <ele>415.2</ele>
        <time>2023-03-04T09:03:09.000Z</time>
      </trkpt>
      <trkpt lat="43.52276" lon="6.69453">
        <ele>415.3</ele>
        <time>2023-03-04T09:03:10.000Z</time>
      </trkpt>
      <trkpt lat="43.52275" lon="6.69452">
        <ele>415.4</ele>
        <time>2023-03-04T09:03:11.000Z</time>
      </trkpt>
      <trkpt lat="43.52275" lon="6.69452">
        <ele>415.4</ele>
        <time>2023-03-04T09:03:12.000Z</time>
      </trkpt>
      <trkpt lat="43.52275" lon="6.69452">
        <ele>415.4</ele>
        <time>2023-03-04T09:03:13.000Z</time>
      </trkpt>
      <trkpt lat="43.52275" lon="6.69453">
        <ele>415.4</ele>
        <time>2023-03-04T09:03:14.000Z</time>
      </trkpt>
      <trkpt lat="43.52275" lon="6.69453">
        <ele>415.4</ele>
        <time>2023-03-04T09:03:16.000Z</time>
      </trkpt>
      <trkpt lat="43.52275" lon="6.69452">
        <ele>415.4</ele>
        <time>2023-03-04T09:03:17.000Z</time>
      </trkpt>
      <trkpt lat="43.52274" lon="6.69451">
        <ele>415.5</ele>
        <time>2023-03-04T09:03:18.000Z</time>
      </trkpt>
      <trkpt lat="43.52272" lon="6.6945">
        <ele>415.6</ele>
        <time>2023-03-04T09:03:20.000Z</time>
      </trkpt>
      <trkpt lat="43.52269" lon="6.69449">
        <ele>415.7</ele>
        <time>2023-03-04T09:03:21.000Z</time>
      </trkpt>
      <trkpt lat="43.52269" lon="6.6945">
        <ele>415.7</ele>
        <time>2023-03-04T09:03:23.000Z</time>
      </trkpt>
      <trkpt lat="43.52269" lon="6.6945">
        <ele>415.7</ele>
        <time>2023-03-04T09:03:24.000Z</time>
      </trkpt>
      <trkpt lat="43.52269" lon="6.69451">
        <ele>415.7</ele>
        <time>2023-03-04T09:03:26.000Z</time>
      </trkpt>
      <trkpt lat="43.52268" lon="6.69451">
        <ele>415.7</ele>
        <time>2023-03-04T09:03:27.000Z</time>
      </trkpt>
      <trkpt lat="43.52265" lon="6.69448">
        <ele>415.8</ele>
        <time>2023-03-04T09:03:28.000Z</time>
      </trkpt>
      <trkpt lat="43.52263" lon="6.69447">
        <ele>415.8</ele>
        <time>2023-03-04T09:03:29.000Z</time>
      </trkpt>
      <trkpt lat="43.52258" lon="6.69446">
        <ele>415.9</ele>
        <time>2023-03-04T09:03:31.000Z</time>
      </trkpt>
      <trkpt lat="43.52257" lon="6.69445">
        <ele>415.9</ele>
        <time>2023-03-04T09:03:32.000Z</time>
      </trkpt>
      <trkpt lat="43.52256" lon="6.69444">
        <ele>415.9</ele>
        <time>2023-03-04T09:03:33.000Z</time>
      </trkpt>
      <trkpt lat="43.52252" lon="6.69442">
        <ele>415.8</ele>
        <time>2023-03-04T09:03:34.000Z</time>
      </trkpt>
      <trkpt lat="43.5225" lon="6.69442">
        <ele>415.8</ele>
        <time>2023-03-04T09:03:35.000Z</time>
      </trkpt>
      <trkpt lat="43.52246" lon="6.6944">
        <ele>415.8</ele>
        <time>2023-03-04T09:03:37.000Z</time>
      </trkpt>
      <trkpt lat="43.52243" lon="6.69439">
        <ele>415.7</ele>
        <time>2023-03-04T09:03:38.000Z</time>
      </trkpt>
      <trkpt lat="43.52238" lon="6.69437">
        <ele>415.7</ele>
        <time>2023-03-04T09:03:39.000Z</time>
      </trkpt>
      <trkpt lat="43.52235" lon="6.69435">
        <ele>415.6</ele>
        <time>2023-03-04T09:03:40.000Z</time>
      </trkpt>
      <trkpt lat="43.52232" lon="6.69433">
        <ele>415.6</ele>
        <time>2023-03-04T09:03:41.000Z</time>
      </trkpt>
      <trkpt lat="43.52229" lon="6.69431">
        <ele>415.5</ele>
        <time>2023-03-04T09:03:42.000Z</time>
      </trkpt>
      <trkpt lat="43.52226" lon="6.6943">
        <ele>415.5</ele>
        <time>2023-03-04T09:03:43.000Z</time>
      </trkpt>
      <trkpt lat="43.52222" lon="6.69432">
        <ele>415.5</ele>
        <time>2023-03-04T09:03:45.000Z</time>
      </trkpt>
      <trkpt lat="43.52219" lon="6.69434">
        <ele>415.5</ele>
        <time>2023-03-04T09:03:46.000Z</time>
      </trkpt>
      <trkpt lat="43.52214" lon="6.69437">
        <ele>415.6</ele>
        <time>2023-03-04T09:03:47.000Z</time>
      </trkpt>
      <trkpt lat="43.52209" lon="6.69439">
        <ele>415.7</ele>
        <time>2023-03-04T09:03:48.000Z</time>
      </trkpt>
      <trkpt lat="43.52206" lon="6.69439">
        <ele>415.7</ele>
        <time>2023-03-04T09:03:49.000Z</time>
      </trkpt>
      <trkpt lat="43.52201" lon="6.6944">
        <ele>415.9</ele>
        <time>2023-03-04T09:03:50.000Z</time>
      </trkpt>
      <trkpt lat="43.52197" lon="6.69441">
        <ele>416.1</ele>
        <time>2023-03-04T09:03:51.000Z</time>
      </trkpt>
      <trkpt lat="43.52193" lon="6.69442">
        <ele>416.2</ele>
        <time>2023-03-04T09:03:53.000Z</time>
      </trkpt>
      <trkpt lat="43.52189" lon="6.69443">
        <ele>416.5</ele>
        <time>2023-03-04T09:03:54.000Z</time>
      </trkpt>
      <trkpt lat="43.52183" lon="6.69443">
        <ele>416.9</ele>
        <time>2023-03-04T09:03:55.000Z</time>
      </trkpt>
      <trkpt lat="43.52178" lon="6.69442">
        <ele>417.2</ele>
        <time>2023-03-04T09:03:57.000Z</time>
      </trkpt>
      <trkpt lat="43.52172" lon="6.6944">
        <ele>417.8</ele>
        <time>2023-03-04T09:03:58.000Z</time>
      </trkpt>
      <trkpt lat="43.52169" lon="6.69438">
        <ele>418.3</ele>
        <time>2023-03-04T09:04:00.000Z</time>
      </trkpt>
      <trkpt lat="43.52168" lon="6.69437">
        <ele>418.2</ele>
        <time>2023-03-04T09:04:01.000Z</time>
      </trkpt>
      <trkpt lat="43.52168" lon="6.69437">
        <ele>418.2</ele>
        <time>2023-03-04T09:04:02.000Z</time>
      </trkpt>
      <trkpt lat="43.52167" lon="6.69436">
        <ele>418.1</ele>
        <time>2023-03-04T09:04:03.000Z</time>
      </trkpt>
      <trkpt lat="43.52167" lon="6.69436">
        <ele>418.1</ele>
        <time>2023-03-04T09:04:04.000Z</time>
      </trkpt>
      <trkpt lat="43.52166" lon="6.69436">
        <ele>418.1</ele>
        <time>2023-03-04T09:04:05.000Z</time>
      </trkpt>
      <trkpt lat="43.52167" lon="6.69437">
        <ele>418</ele>
        <time>2023-03-04T09:04:07.000Z</time>
      </trkpt>
      <trkpt lat="43.52167" lon="6.69437">
        <ele>418</ele>
        <time>2023-03-04T09:04:08.000Z</time>
      </trkpt>
      <trkpt lat="43.52167" lon="6.69437">
        <ele>418</ele>
        <time>2023-03-04T09:04:10.000Z</time>
      </trkpt>
      <trkpt lat="43.52167" lon="6.69437">
        <ele>418</ele>
        <time>2023-03-04T09:04:11.000Z</time>
      </trkpt>
      <trkpt lat="43.52167" lon="6.69437">
        <ele>418</ele>
        <time>2023-03-04T09:04:12.000Z</time>
      </trkpt>
      <trkpt lat="43.52169" lon="6.69435">
        <ele>417.8</ele>
        <time>2023-03-04T09:05:47.000Z</time>
      </trkpt>
      <trkpt lat="43.52169" lon="6.69432">
        <ele>417.6</ele>
        <time>2023-03-04T09:05:48.000Z</time>
      </trkpt>
      <trkpt lat="43.52171" lon="6.69425">
        <ele>416.9</ele>
        <time>2023-03-04T09:05:50.000Z</time>
      </trkpt>
      <trkpt lat="43.52173" lon="6.69419">
        <ele>416.3</ele>
        <time>2023-03-04T09:05:51.000Z</time>
      </trkpt>
      <trkpt lat="43.52175" lon="6.69415">
        <ele>415.7</ele>
        <time>2023-03-04T09:05:52.000Z</time>
      </trkpt>
      <trkpt lat="43.52177" lon="6.69412">
        <ele>415.2</ele>
        <time>2023-03-04T09:05:53.000Z</time>
      </trkpt>
      <trkpt lat="43.52178" lon="6.6941">
        <ele>414.8</ele>
        <time>2023-03-04T09:05:54.000Z</time>
      </trkpt>
      <trkpt lat="43.52179" lon="6.69405">
        <ele>414.3</ele>
        <time>2023-03-04T09:05:56.000Z</time>
      </trkpt>
      <trkpt lat="43.52181" lon="6.69401">
        <ele>413.7</ele>
        <time>2023-03-04T09:05:57.000Z</time>
      </trkpt>
      <trkpt lat="43.52182" lon="6.69396">
        <ele>413</ele>
        <time>2023-03-04T09:05:58.000Z</time>
      </trkpt>
      <trkpt lat="43.52182" lon="6.69394">
        <ele>412.7</ele>
        <time>2023-03-04T09:05:59.000Z</time>
      </trkpt>
      <trkpt lat="43.52183" lon="6.6939">
        <ele>412.1</ele>
        <time>2023-03-04T09:06:00.000Z</time>
      </trkpt>
      <trkpt lat="43.52184" lon="6.69389">
        <ele>411.9</ele>
        <time>2023-03-04T09:06:01.000Z</time>
      </trkpt>
      <trkpt lat="43.52185" lon="6.69385">
        <ele>411.4</ele>
        <time>2023-03-04T09:06:02.000Z</time>
      </trkpt>
      <trkpt lat="43.52186" lon="6.69384">
        <ele>411.2</ele>
        <time>2023-03-04T09:06:03.000Z</time>
      </trkpt>
      <trkpt lat="43.52188" lon="6.6938">
        <ele>410.5</ele>
        <time>2023-03-04T09:06:05.000Z</time>
      </trkpt>
      <trkpt lat="43.52189" lon="6.69378">
        <ele>410.3</ele>
        <time>2023-03-04T09:06:06.000Z</time>
      </trkpt>
      <trkpt lat="43.52191" lon="6.69376">
        <ele>409.7</ele>
        <time>2023-03-04T09:06:07.000Z</time>
      </trkpt>
      <trkpt lat="43.52194" lon="6.69373">
        <ele>409.1</ele>
        <time>2023-03-04T09:06:08.000Z</time>
      </trkpt>
      <trkpt lat="43.52195" lon="6.69372">
        <ele>408.9</ele>
        <time>2023-03-04T09:06:09.000Z</time>
      </trkpt>
      <trkpt lat="43.52198" lon="6.69369">
        <ele>408.3</ele>
        <time>2023-03-04T09:06:10.000Z</time>
      </trkpt>
      <trkpt lat="43.52199" lon="6.69368">
        <ele>408.1</ele>
        <time>2023-03-04T09:06:11.000Z</time>
      </trkpt>
      <trkpt lat="43.522" lon="6.69367">
        <ele>407.8</ele>
        <time>2023-03-04T09:06:12.000Z</time>
      </trkpt>
      <trkpt lat="43.52203" lon="6.69364">
        <ele>407.5</ele>
        <time>2023-03-04T09:06:14.000Z</time>
      </trkpt>
      <trkpt lat="43.52206" lon="6.69362">
        <ele>407.1</ele>
        <time>2023-03-04T09:06:15.000Z</time>
      </trkpt>
      <trkpt lat="43.52209" lon="6.69359">
        <ele>406.8</ele>
        <time>2023-03-04T09:06:16.000Z</time>
      </trkpt>
      <trkpt lat="43.52211" lon="6.69356">
        <ele>406.5</ele>
        <time>2023-03-04T09:06:17.000Z</time>
      </trkpt>
      <trkpt lat="43.52214" lon="6.69352">
        <ele>406.2</ele>
        <time>2023-03-04T09:06:18.000Z</time>
      </trkpt>
      <trkpt lat="43.52216" lon="6.6935">
        <ele>406.2</ele>
        <time>2023-03-04T09:06:19.000Z</time>
      </trkpt>
      <trkpt lat="43.52217" lon="6.69346">
        <ele>406.1</ele>
        <time>2023-03-04T09:06:20.000Z</time>
      </trkpt>
      <trkpt lat="43.52219" lon="6.69343">
        <ele>406</ele>
        <time>2023-03-04T09:06:21.000Z</time>
      </trkpt>
      <trkpt lat="43.5222" lon="6.69339">
        <ele>406</ele>
        <time>2023-03-04T09:06:23.000Z</time>
      </trkpt>
      <trkpt lat="43.52222" lon="6.69335">
        <ele>406.1</ele>
        <time>2023-03-04T09:06:24.000Z</time>
      </trkpt>
      <trkpt lat="43.52224" lon="6.69331">
        <ele>406.2</ele>
        <time>2023-03-04T09:06:25.000Z</time>
      </trkpt>
      <trkpt lat="43.52225" lon="6.69325">
        <ele>406.4</ele>
        <time>2023-03-04T09:06:26.000Z</time>
      </trkpt>
      <trkpt lat="43.52226" lon="6.69321">
        <ele>406.7</ele>
        <time>2023-03-04T09:06:27.000Z</time>
      </trkpt>
      <trkpt lat="43.52227" lon="6.69317">
        <ele>407</ele>
        <time>2023-03-04T09:06:28.000Z</time>
      </trkpt>
      <trkpt lat="43.52227" lon="6.69314">
        <ele>407.2</ele>
        <time>2023-03-04T09:06:29.000Z</time>
      </trkpt>
      <trkpt lat="43.52228" lon="6.69312">
        <ele>407.4</ele>
        <time>2023-03-04T09:06:31.000Z</time>
      </trkpt>
      <trkpt lat="43.5223" lon="6.6931">
        <ele>407.8</ele>
        <time>2023-03-04T09:06:32.000Z</time>
      </trkpt>
      <trkpt lat="43.52231" lon="6.69306">
        <ele>408.2</ele>
        <time>2023-03-04T09:06:33.000Z</time>
      </trkpt>
      <trkpt lat="43.52234" lon="6.69302">
        <ele>408.8</ele>
        <time>2023-03-04T09:06:35.000Z</time>
      </trkpt>
      <trkpt lat="43.52235" lon="6.69301">
        <ele>409</ele>
        <time>2023-03-04T09:06:36.000Z</time>
      </trkpt>
      <trkpt lat="43.52237" lon="6.69296">
        <ele>409.7</ele>
        <time>2023-03-04T09:06:37.000Z</time>
      </trkpt>
      <trkpt lat="43.52237" lon="6.69295">
        <ele>409.9</ele>
        <time>2023-03-04T09:06:38.000Z</time>
      </trkpt>
      <trkpt lat="43.52237" lon="6.69291">
        <ele>410.4</ele>
        <time>2023-03-04T09:06:39.000Z</time>
      </trkpt>
      <trkpt lat="43.52237" lon="6.69289">
        <ele>410.6</ele>
        <time>2023-03-04T09:06:40.000Z</time>
      </trkpt>
      <trkpt lat="43.52237" lon="6.69287">
        <ele>411</ele>
        <time>2023-03-04T09:06:41.000Z</time>
      </trkpt>
      <trkpt lat="43.52238" lon="6.69283">
        <ele>411.4</ele>
        <time>2023-03-04T09:06:43.000Z</time>
      </trkpt>
      <trkpt lat="43.52238" lon="6.6928">
        <ele>411.9</ele>
        <time>2023-03-04T09:06:44.000Z</time>
      </trkpt>
      <trkpt lat="43.52239" lon="6.69278">
        <ele>412.1</ele>
        <time>2023-03-04T09:06:45.000Z</time>
      </trkpt>
      <trkpt lat="43.5224" lon="6.69275">
        <ele>412.6</ele>
        <time>2023-03-04T09:06:46.000Z</time>
      </trkpt>
      <trkpt lat="43.5224" lon="6.69274">
        <ele>412.8</ele>
        <time>2023-03-04T09:06:47.000Z</time>
      </trkpt>
      <trkpt lat="43.5224" lon="6.69272">
        <ele>413</ele>
        <time>2023-03-04T09:06:48.000Z</time>
      </trkpt>
      <trkpt lat="43.5224" lon="6.69269">
        <ele>413.4</ele>
        <time>2023-03-04T09:06:49.000Z</time>
      </trkpt>
      <trkpt lat="43.52239" lon="6.69267">
        <ele>413.6</ele>
        <time>2023-03-04T09:06:50.000Z</time>
      </trkpt>
      <trkpt lat="43.52239" lon="6.69266">
        <ele>413.7</ele>
        <time>2023-03-04T09:06:52.000Z</time>
      </trkpt>
      <trkpt lat="43.52239" lon="6.69265">
        <ele>413.9</ele>
        <time>2023-03-04T09:06:53.000Z</time>
      </trkpt>
      <trkpt lat="43.52239" lon="6.69263">
        <ele>414.1</ele>
        <time>2023-03-04T09:06:54.000Z</time>
      </trkpt>
      <trkpt lat="43.52239" lon="6.69262">
        <ele>414.3</ele>
        <time>2023-03-04T09:06:55.000Z</time>
      </trkpt>
      <trkpt lat="43.52237" lon="6.69258">
        <ele>414.7</ele>
        <time>2023-03-04T09:06:56.000Z</time>
      </trkpt>
      <trkpt lat="43.52236" lon="6.69256">
        <ele>414.9</ele>
        <time>2023-03-04T09:06:57.000Z</time>
      </trkpt>
      <trkpt lat="43.52236" lon="6.69252">
        <ele>415.3</ele>
        <time>2023-03-04T09:06:58.000Z</time>
      </trkpt>
      <trkpt lat="43.52236" lon="6.69251">
        <ele>415.4</ele>
        <time>2023-03-04T09:06:59.000Z</time>
      </trkpt>
      <trkpt lat="43.52237" lon="6.69247">
        <ele>415.7</ele>
        <time>2023-03-04T09:07:01.000Z</time>
      </trkpt>
      <trkpt lat="43.52237" lon="6.69245">
        <ele>415.9</ele>
        <time>2023-03-04T09:07:02.000Z</time>
      </trkpt>
      <trkpt lat="43.52238" lon="6.69241">
        <ele>416.1</ele>
        <time>2023-03-04T09:07:03.000Z</time>
      </trkpt>
      <trkpt lat="43.52238" lon="6.69237">
        <ele>416.4</ele>
        <time>2023-03-04T09:07:04.000Z</time>
      </trkpt>
      <trkpt lat="43.52239" lon="6.69236">
        <ele>416.5</ele>
        <time>2023-03-04T09:07:05.000Z</time>
      </trkpt>
      <trkpt lat="43.5224" lon="6.69232">
        <ele>416.8</ele>
        <time>2023-03-04T09:07:06.000Z</time>
      </trkpt>
      <trkpt lat="43.52241" lon="6.6923">
        <ele>416.9</ele>
        <time>2023-03-04T09:07:07.000Z</time>
      </trkpt>
      <trkpt lat="43.52243" lon="6.69225">
        <ele>417.2</ele>
        <time>2023-03-04T09:07:09.000Z</time>
      </trkpt>
      <trkpt lat="43.52244" lon="6.69223">
        <ele>417.3</ele>
        <time>2023-03-04T09:07:10.000Z</time>
      </trkpt>
      <trkpt lat="43.52245" lon="6.69221">
        <ele>417.4</ele>
        <time>2023-03-04T09:07:11.000Z</time>
      </trkpt>
      <trkpt lat="43.52247" lon="6.69216">
        <ele>417.6</ele>
        <time>2023-03-04T09:07:12.000Z</time>
      </trkpt>
      <trkpt lat="43.52247" lon="6.69214">
        <ele>417.6</ele>
        <time>2023-03-04T09:07:13.000Z</time>
      </trkpt>
      <trkpt lat="43.52248" lon="6.69209">
        <ele>417.8</ele>
        <time>2023-03-04T09:07:15.000Z</time>
      </trkpt>
      <trkpt lat="43.52249" lon="6.69205">
        <ele>417.9</ele>
        <time>2023-03-04T09:07:16.000Z</time>
      </trkpt>
      <trkpt lat="43.52249" lon="6.692">
        <ele>417.9</ele>
        <time>2023-03-04T09:07:17.000Z</time>
      </trkpt>
      <trkpt lat="43.52249" lon="6.69194">
        <ele>417.9</ele>
        <time>2023-03-04T09:07:18.000Z</time>
      </trkpt>
      <trkpt lat="43.5225" lon="6.69191">
        <ele>417.9</ele>
        <time>2023-03-04T09:07:19.000Z</time>
      </trkpt>
      <trkpt lat="43.5225" lon="6.69186">
        <ele>417.8</ele>
        <time>2023-03-04T09:07:20.000Z</time>
      </trkpt>
      <trkpt lat="43.5225" lon="6.69179">
        <ele>417.6</ele>
        <time>2023-03-04T09:07:22.000Z</time>
      </trkpt>
      <trkpt lat="43.5225" lon="6.69177">
        <ele>417.5</ele>
        <time>2023-03-04T09:07:23.000Z</time>
      </trkpt>
      <trkpt lat="43.5225" lon="6.69174">
        <ele>417.4</ele>
        <time>2023-03-04T09:07:24.000Z</time>
      </trkpt>
      <trkpt lat="43.52251" lon="6.69171">
        <ele>417.3</ele>
        <time>2023-03-04T09:07:25.000Z</time>
      </trkpt>
      <trkpt lat="43.52251" lon="6.69166">
        <ele>417.1</ele>
        <time>2023-03-04T09:07:26.000Z</time>
      </trkpt>
      <trkpt lat="43.52251" lon="6.69161">
        <ele>416.8</ele>
        <time>2023-03-04T09:07:27.000Z</time>
      </trkpt>
      <trkpt lat="43.52251" lon="6.69159">
        <ele>416.7</ele>
        <time>2023-03-04T09:07:28.000Z</time>
      </trkpt>
      <trkpt lat="43.52251" lon="6.69155">
        <ele>416.4</ele>
        <time>2023-03-04T09:07:30.000Z</time>
      </trkpt>
      <trkpt lat="43.52252" lon="6.69151">
        <ele>416.2</ele>
        <time>2023-03-04T09:07:31.000Z</time>
      </trkpt>
      <trkpt lat="43.52252" lon="6.69146">
        <ele>415.8</ele>
        <time>2023-03-04T09:07:32.000Z</time>
      </trkpt>
      <trkpt lat="43.52253" lon="6.69142">
        <ele>415.6</ele>
        <time>2023-03-04T09:07:33.000Z</time>
      </trkpt>
      <trkpt lat="43.52254" lon="6.69137">
        <ele>415.2</ele>
        <time>2023-03-04T09:07:34.000Z</time>
      </trkpt>
      <trkpt lat="43.52254" lon="6.69133">
        <ele>414.9</ele>
        <time>2023-03-04T09:07:35.000Z</time>
      </trkpt>
      <trkpt lat="43.52254" lon="6.69128">
        <ele>414.5</ele>
        <time>2023-03-04T09:07:37.000Z</time>
      </trkpt>
      <trkpt lat="43.52254" lon="6.69123">
        <ele>414.1</ele>
        <time>2023-03-04T09:07:38.000Z</time>
      </trkpt>
      <trkpt lat="43.52252" lon="6.69119">
        <ele>413.8</ele>
        <time>2023-03-04T09:07:39.000Z</time>
      </trkpt>
      <trkpt lat="43.52252" lon="6.69117">
        <ele>413.6</ele>
        <time>2023-03-04T09:07:41.000Z</time>
      </trkpt>
      <trkpt lat="43.52252" lon="6.69115">
        <ele>413.5</ele>
        <time>2023-03-04T09:07:42.000Z</time>
      </trkpt>
      <trkpt lat="43.52252" lon="6.69113">
        <ele>413.3</ele>
        <time>2023-03-04T09:07:43.000Z</time>
      </trkpt>
      <trkpt lat="43.52253" lon="6.69109">
        <ele>412.9</ele>
        <time>2023-03-04T09:07:44.000Z</time>
      </trkpt>
      <trkpt lat="43.52253" lon="6.69107">
        <ele>412.7</ele>
        <time>2023-03-04T09:07:45.000Z</time>
      </trkpt>
      <trkpt lat="43.52254" lon="6.69104">
        <ele>412.4</ele>
        <time>2023-03-04T09:07:46.000Z</time>
      </trkpt>
      <trkpt lat="43.52255" lon="6.69099">
        <ele>411.9</ele>
        <time>2023-03-04T09:07:48.000Z</time>
      </trkpt>
      <trkpt lat="43.52255" lon="6.69094">
        <ele>411.5</ele>
        <time>2023-03-04T09:07:49.000Z</time>
      </trkpt>
      <trkpt lat="43.52254" lon="6.69092">
        <ele>411.3</ele>
        <time>2023-03-04T09:07:50.000Z</time>
      </trkpt>
      <trkpt lat="43.52255" lon="6.69088">
        <ele>411</ele>
        <time>2023-03-04T09:07:52.000Z</time>
      </trkpt>
      <trkpt lat="43.52256" lon="6.69084">
        <ele>410.7</ele>
        <time>2023-03-04T09:07:53.000Z</time>
      </trkpt>
      <trkpt lat="43.52257" lon="6.69082">
        <ele>410.4</ele>
        <time>2023-03-04T09:07:54.000Z</time>
      </trkpt>
      <trkpt lat="43.52259" lon="6.69077">
        <ele>410.1</ele>
        <time>2023-03-04T09:07:55.000Z</time>
      </trkpt>
      <trkpt lat="43.52259" lon="6.69073">
        <ele>409.8</ele>
        <time>2023-03-04T09:07:56.000Z</time>
      </trkpt>
      <trkpt lat="43.5226" lon="6.69069">
        <ele>409.6</ele>
        <time>2023-03-04T09:07:57.000Z</time>
      </trkpt>
      <trkpt lat="43.52261" lon="6.69064">
        <ele>409.3</ele>
        <time>2023-03-04T09:07:58.000Z</time>
      </trkpt>
      <trkpt lat="43.52261" lon="6.69059">
        <ele>409</ele>
        <time>2023-03-04T09:08:00.000Z</time>
      </trkpt>
      <trkpt lat="43.5226" lon="6.69054">
        <ele>408.7</ele>
        <time>2023-03-04T09:08:01.000Z</time>
      </trkpt>
      <trkpt lat="43.52257" lon="6.6905">
        <ele>408.4</ele>
        <time>2023-03-04T09:08:02.000Z</time>
      </trkpt>
      <trkpt lat="43.52256" lon="6.69047">
        <ele>408.2</ele>
        <time>2023-03-04T09:08:03.000Z</time>
      </trkpt>
      <trkpt lat="43.52255" lon="6.69045">
        <ele>408</ele>
        <time>2023-03-04T09:08:04.000Z</time>
      </trkpt>
      <trkpt lat="43.52255" lon="6.69043">
        <ele>407.9</ele>
        <time>2023-03-04T09:08:05.000Z</time>
      </trkpt>
      <trkpt lat="43.52256" lon="6.69039">
        <ele>407.6</ele>
        <time>2023-03-04T09:08:07.000Z</time>
      </trkpt>
      <trkpt lat="43.52257" lon="6.69037">
        <ele>407.4</ele>
        <time>2023-03-04T09:08:08.000Z</time>
      </trkpt>
      <trkpt lat="43.52257" lon="6.69033">
        <ele>407</ele>
        <time>2023-03-04T09:08:09.000Z</time>
      </trkpt>
      <trkpt lat="43.52257" lon="6.69032">
        <ele>406.9</ele>
        <time>2023-03-04T09:08:10.000Z</time>
      </trkpt>
      <trkpt lat="43.52257" lon="6.6903">
        <ele>406.7</ele>
        <time>2023-03-04T09:08:11.000Z</time>
      </trkpt>
      <trkpt lat="43.52257" lon="6.69029">
        <ele>406.6</ele>
        <time>2023-03-04T09:08:12.000Z</time>
      </trkpt>
      <trkpt lat="43.52256" lon="6.69028">
        <ele>406.5</ele>
        <time>2023-03-04T09:08:13.000Z</time>
      </trkpt>
      <trkpt lat="43.52255" lon="6.69027">
        <ele>406.4</ele>
        <time>2023-03-04T09:08:15.000Z</time>
      </trkpt>
      <trkpt lat="43.52254" lon="6.69026">
        <ele>406.1</ele>
        <time>2023-03-04T09:08:16.000Z</time>
      </trkpt>
      <trkpt lat="43.52251" lon="6.69022">
        <ele>405.6</ele>
        <time>2023-03-04T09:08:17.000Z</time>
      </trkpt>
      <trkpt lat="43.52251" lon="6.6902">
        <ele>405.4</ele>
        <time>2023-03-04T09:08:18.000Z</time>
      </trkpt>
      <trkpt lat="43.5225" lon="6.69016">
        <ele>404.9</ele>
        <time>2023-03-04T09:08:19.000Z</time>
      </trkpt>
      <trkpt lat="43.5225" lon="6.69011">
        <ele>404.5</ele>
        <time>2023-03-04T09:08:20.000Z</time>
      </trkpt>
      <trkpt lat="43.52249" lon="6.69007">
        <ele>404.1</ele>
        <time>2023-03-04T09:08:21.000Z</time>
      </trkpt>
      <trkpt lat="43.52249" lon="6.69005">
        <ele>404</ele>
        <time>2023-03-04T09:08:22.000Z</time>
      </trkpt>
      <trkpt lat="43.52249" lon="6.69001">
        <ele>403.6</ele>
        <time>2023-03-04T09:08:24.000Z</time>
      </trkpt>
      <trkpt lat="43.52248" lon="6.68996">
        <ele>403.3</ele>
        <time>2023-03-04T09:08:25.000Z</time>
      </trkpt>
      <trkpt lat="43.52247" lon="6.68991">
        <ele>403</ele>
        <time>2023-03-04T09:08:26.000Z</time>
      </trkpt>
      <trkpt lat="43.52247" lon="6.68985">
        <ele>402.7</ele>
        <time>2023-03-04T09:08:27.000Z</time>
      </trkpt>
      <trkpt lat="43.52247" lon="6.6898">
        <ele>402.4</ele>
        <time>2023-03-04T09:08:28.000Z</time>
      </trkpt>
      <trkpt lat="43.52247" lon="6.68973">
        <ele>402.2</ele>
        <time>2023-03-04T09:08:29.000Z</time>
      </trkpt>
      <trkpt lat="43.52247" lon="6.68965">
        <ele>402</ele>
        <time>2023-03-04T09:08:31.000Z</time>
      </trkpt>
      <trkpt lat="43.52245" lon="6.6896">
        <ele>401.8</ele>
        <time>2023-03-04T09:08:32.000Z</time>
      </trkpt>
      <trkpt lat="43.52244" lon="6.68955">
        <ele>401.8</ele>
        <time>2023-03-04T09:08:33.000Z</time>
      </trkpt>
      <trkpt lat="43.52244" lon="6.68951">
        <ele>401.7</ele>
        <time>2023-03-04T09:08:34.000Z</time>
      </trkpt>
      <trkpt lat="43.52242" lon="6.68946">
        <ele>401.6</ele>
        <time>2023-03-04T09:08:35.000Z</time>
      </trkpt>
      <trkpt lat="43.52241" lon="6.68939">
        <ele>401.6</ele>
        <time>2023-03-04T09:08:37.000Z</time>
      </trkpt>
      <trkpt lat="43.52239" lon="6.68931">
        <ele>401.6</ele>
        <time>2023-03-04T09:08:38.000Z</time>
      </trkpt>
      <trkpt lat="43.52239" lon="6.68925">
        <ele>401.6</ele>
        <time>2023-03-04T09:08:39.000Z</time>
      </trkpt>
      <trkpt lat="43.52238" lon="6.68919">
        <ele>401.7</ele>
        <time>2023-03-04T09:08:41.000Z</time>
      </trkpt>
      <trkpt lat="43.52238" lon="6.68914">
        <ele>401.7</ele>
        <time>2023-03-04T09:08:42.000Z</time>
      </trkpt>
      <trkpt lat="43.52237" lon="6.68909">
        <ele>401.8</ele>
        <time>2023-03-04T09:08:43.000Z</time>
      </trkpt>
      <trkpt lat="43.52238" lon="6.68903">
        <ele>402</ele>
        <time>2023-03-04T09:08:44.000Z</time>
      </trkpt>
      <trkpt lat="43.52239" lon="6.68897">
        <ele>402.1</ele>
        <time>2023-03-04T09:08:45.000Z</time>
      </trkpt>
      <trkpt lat="43.5224" lon="6.68895">
        <ele>402.2</ele>
        <time>2023-03-04T09:08:46.000Z</time>
      </trkpt>
      <trkpt lat="43.52241" lon="6.68891">
        <ele>402.4</ele>
        <time>2023-03-04T09:08:47.000Z</time>
      </trkpt>
      <trkpt lat="43.52241" lon="6.68887">
        <ele>402.5</ele>
        <time>2023-03-04T09:08:49.000Z</time>
      </trkpt>
      <trkpt lat="43.52242" lon="6.68885">
        <ele>402.6</ele>
        <time>2023-03-04T09:08:50.000Z</time>
      </trkpt>
      <trkpt lat="43.52242" lon="6.68883">
        <ele>402.7</ele>
        <time>2023-03-04T09:08:51.000Z</time>
      </trkpt>
      <trkpt lat="43.52243" lon="6.6888">
        <ele>402.9</ele>
        <time>2023-03-04T09:08:52.000Z</time>
      </trkpt>
      <trkpt lat="43.52243" lon="6.68877">
        <ele>403</ele>
        <time>2023-03-04T09:08:54.000Z</time>
      </trkpt>
      <trkpt lat="43.52244" lon="6.68872">
        <ele>403.3</ele>
        <time>2023-03-04T09:08:55.000Z</time>
      </trkpt>
      <trkpt lat="43.52244" lon="6.6887">
        <ele>403.3</ele>
        <time>2023-03-04T09:08:56.000Z</time>
      </trkpt>
      <trkpt lat="43.52245" lon="6.68865">
        <ele>403.6</ele>
        <time>2023-03-04T09:08:57.000Z</time>
      </trkpt>
      <trkpt lat="43.52245" lon="6.68861">
        <ele>403.8</ele>
        <time>2023-03-04T09:08:58.000Z</time>
      </trkpt>
      <trkpt lat="43.52246" lon="6.68857">
        <ele>403.9</ele>
        <time>2023-03-04T09:08:59.000Z</time>
      </trkpt>
      <trkpt lat="43.52247" lon="6.68853">
        <ele>404.1</ele>
        <time>2023-03-04T09:09:00.000Z</time>
      </trkpt>
      <trkpt lat="43.5225" lon="6.68846">
        <ele>404.4</ele>
        <time>2023-03-04T09:09:02.000Z</time>
      </trkpt>
      <trkpt lat="43.52253" lon="6.68841">
        <ele>404.5</ele>
        <time>2023-03-04T09:09:03.000Z</time>
      </trkpt>
      <trkpt lat="43.52256" lon="6.68835">
        <ele>404.7</ele>
        <time>2023-03-04T09:09:05.000Z</time>
      </trkpt>
      <trkpt lat="43.52259" lon="6.6883">
        <ele>404.8</ele>
        <time>2023-03-04T09:09:06.000Z</time>
      </trkpt>
      <trkpt lat="43.52261" lon="6.68825">
        <ele>404.9</ele>
        <time>2023-03-04T09:09:07.000Z</time>
      </trkpt>
      <trkpt lat="43.52264" lon="6.68821">
        <ele>404.9</ele>
        <time>2023-03-04T09:09:08.000Z</time>
      </trkpt>
      <trkpt lat="43.52268" lon="6.68817">
        <ele>404.8</ele>
        <time>2023-03-04T09:09:10.000Z</time>
      </trkpt>
      <trkpt lat="43.52271" lon="6.68811">
        <ele>404.7</ele>
        <time>2023-03-04T09:09:11.000Z</time>
      </trkpt>
      <trkpt lat="43.52274" lon="6.68805">
        <ele>404.4</ele>
        <time>2023-03-04T09:09:12.000Z</time>
      </trkpt>
      <trkpt lat="43.52275" lon="6.688">
        <ele>404.2</ele>
        <time>2023-03-04T09:09:13.000Z</time>
      </trkpt>
      <trkpt lat="43.52277" lon="6.68795">
        <ele>403.9</ele>
        <time>2023-03-04T09:09:14.000Z</time>
      </trkpt>
      <trkpt lat="43.5228" lon="6.6879">
        <ele>403.5</ele>
        <time>2023-03-04T09:09:15.000Z</time>
      </trkpt>
      <trkpt lat="43.52282" lon="6.68785">
        <ele>403.1</ele>
        <time>2023-03-04T09:09:17.000Z</time>
      </trkpt>
      <trkpt lat="43.52283" lon="6.68782">
        <ele>402.8</ele>
        <time>2023-03-04T09:09:18.000Z</time>
      </trkpt>
      <trkpt lat="43.52286" lon="6.6878">
        <ele>402.5</ele>
        <time>2023-03-04T09:09:19.000Z</time>
      </trkpt>
      <trkpt lat="43.52289" lon="6.68777">
        <ele>402.1</ele>
        <time>2023-03-04T09:09:20.000Z</time>
      </trkpt>
      <trkpt lat="43.52292" lon="6.68776">
        <ele>401.7</ele>
        <time>2023-03-04T09:09:21.000Z</time>
      </trkpt>
      <trkpt lat="43.52297" lon="6.68773">
        <ele>401.1</ele>
        <time>2023-03-04T09:09:22.000Z</time>
      </trkpt>
      <trkpt lat="43.523" lon="6.68768">
        <ele>400.6</ele>
        <time>2023-03-04T09:09:23.000Z</time>
      </trkpt>
      <trkpt lat="43.52303" lon="6.68763">
        <ele>400</ele>
        <time>2023-03-04T09:09:25.000Z</time>
      </trkpt>
      <trkpt lat="43.52306" lon="6.68758">
        <ele>399.5</ele>
        <time>2023-03-04T09:09:26.000Z</time>
      </trkpt>
      <trkpt lat="43.52308" lon="6.68754">
        <ele>399.1</ele>
        <time>2023-03-04T09:09:27.000Z</time>
      </trkpt>
      <trkpt lat="43.52311" lon="6.68748">
        <ele>398.6</ele>
        <time>2023-03-04T09:09:28.000Z</time>
      </trkpt>
      <trkpt lat="43.52314" lon="6.68743">
        <ele>398.2</ele>
        <time>2023-03-04T09:09:29.000Z</time>
      </trkpt>
      <trkpt lat="43.52318" lon="6.68736">
        <ele>397.7</ele>
        <time>2023-03-04T09:09:30.000Z</time>
      </trkpt>
      <trkpt lat="43.52323" lon="6.68732">
        <ele>397.4</ele>
        <time>2023-03-04T09:09:31.000Z</time>
      </trkpt>
      <trkpt lat="43.52327" lon="6.68729">
        <ele>397.1</ele>
        <time>2023-03-04T09:09:32.000Z</time>
      </trkpt>
      <trkpt lat="43.52332" lon="6.68723">
        <ele>396.8</ele>
        <time>2023-03-04T09:09:34.000Z</time>
      </trkpt>
      <trkpt lat="43.52339" lon="6.6872">
        <ele>396.5</ele>
        <time>2023-03-04T09:09:35.000Z</time>
      </trkpt>
      <trkpt lat="43.52344" lon="6.68718">
        <ele>396.4</ele>
        <time>2023-03-04T09:09:36.000Z</time>
      </trkpt>
      <trkpt lat="43.52349" lon="6.68717">
        <ele>396.2</ele>
        <time>2023-03-04T09:09:37.000Z</time>
      </trkpt>
      <trkpt lat="43.52352" lon="6.68716">
        <ele>396.1</ele>
        <time>2023-03-04T09:09:38.000Z</time>
      </trkpt>
      <trkpt lat="43.52357" lon="6.68714">
        <ele>396</ele>
        <time>2023-03-04T09:09:40.000Z</time>
      </trkpt>
      <trkpt lat="43.52361" lon="6.68712">
        <ele>395.9</ele>
        <time>2023-03-04T09:09:41.000Z</time>
      </trkpt>
      <trkpt lat="43.52366" lon="6.6871">
        <ele>395.7</ele>
        <time>2023-03-04T09:09:42.000Z</time>
      </trkpt>
      <trkpt lat="43.52372" lon="6.68709">
        <ele>395.6</ele>
        <time>2023-03-04T09:09:43.000Z</time>
      </trkpt>
      <trkpt lat="43.52375" lon="6.68703">
        <ele>395.5</ele>
        <time>2023-03-04T09:09:44.000Z</time>
      </trkpt>
      <trkpt lat="43.52378" lon="6.68699">
        <ele>395.5</ele>
        <time>2023-03-04T09:09:45.000Z</time>
      </trkpt>
      <trkpt lat="43.52381" lon="6.68693">
        <ele>395.5</ele>
        <time>2023-03-04T09:09:47.000Z</time>
      </trkpt>
      <trkpt lat="43.52383" lon="6.68688">
        <ele>395.5</ele>
        <time>2023-03-04T09:09:48.000Z</time>
      </trkpt>
      <trkpt lat="43.52385" lon="6.68684">
        <ele>395.5</ele>
        <time>2023-03-04T09:09:49.000Z</time>
      </trkpt>
      <trkpt lat="43.52387" lon="6.6868">
        <ele>395.6</ele>
        <time>2023-03-04T09:09:50.000Z</time>
      </trkpt>
      <trkpt lat="43.52391" lon="6.68673">
        <ele>395.7</ele>
        <time>2023-03-04T09:09:52.000Z</time>
      </trkpt>
      <trkpt lat="43.52395" lon="6.68669">
        <ele>395.8</ele>
        <time>2023-03-04T09:09:53.000Z</time>
      </trkpt>
      <trkpt lat="43.52397" lon="6.68664">
        <ele>395.9</ele>
        <time>2023-03-04T09:09:54.000Z</time>
      </trkpt>
      <trkpt lat="43.52399" lon="6.68659">
        <ele>396.2</ele>
        <time>2023-03-04T09:09:56.000Z</time>
      </trkpt>
      <trkpt lat="43.524" lon="6.68654">
        <ele>396.3</ele>
        <time>2023-03-04T09:09:57.000Z</time>
      </trkpt>
      <trkpt lat="43.52401" lon="6.6865">
        <ele>396.5</ele>
        <time>2023-03-04T09:09:58.000Z</time>
      </trkpt>
      <trkpt lat="43.52404" lon="6.68648">
        <ele>396.8</ele>
        <time>2023-03-04T09:09:59.000Z</time>
      </trkpt>
      <trkpt lat="43.52405" lon="6.68646">
        <ele>396.9</ele>
        <time>2023-03-04T09:10:00.000Z</time>
      </trkpt>
      <trkpt lat="43.52407" lon="6.68645">
        <ele>397.1</ele>
        <time>2023-03-04T09:10:01.000Z</time>
      </trkpt>
      <trkpt lat="43.5241" lon="6.68642">
        <ele>397.3</ele>
        <time>2023-03-04T09:10:03.000Z</time>
      </trkpt>
      <trkpt lat="43.52412" lon="6.68639">
        <ele>397.6</ele>
        <time>2023-03-04T09:10:04.000Z</time>
      </trkpt>
      <trkpt lat="43.52415" lon="6.68637">
        <ele>397.9</ele>
        <time>2023-03-04T09:10:05.000Z</time>
      </trkpt>
      <trkpt lat="43.52417" lon="6.68634">
        <ele>398.1</ele>
        <time>2023-03-04T09:10:06.000Z</time>
      </trkpt>
      <trkpt lat="43.52418" lon="6.68633">
        <ele>398.2</ele>
        <time>2023-03-04T09:10:07.000Z</time>
      </trkpt>
      <trkpt lat="43.5242" lon="6.68629">
        <ele>398.5</ele>
        <time>2023-03-04T09:10:08.000Z</time>
      </trkpt>
      <trkpt lat="43.5242" lon="6.68626">
        <ele>398.6</ele>
        <time>2023-03-04T09:10:10.000Z</time>
      </trkpt>
      <trkpt lat="43.52421" lon="6.68624">
        <ele>398.7</ele>
        <time>2023-03-04T09:10:11.000Z</time>
      </trkpt>
      <trkpt lat="43.52421" lon="6.68621">
        <ele>398.8</ele>
        <time>2023-03-04T09:10:12.000Z</time>
      </trkpt>
      <trkpt lat="43.52422" lon="6.68618">
        <ele>399</ele>
        <time>2023-03-04T09:10:13.000Z</time>
      </trkpt>
      <trkpt lat="43.52422" lon="6.68614">
        <ele>399.1</ele>
        <time>2023-03-04T09:10:14.000Z</time>
      </trkpt>
      <trkpt lat="43.52422" lon="6.68609">
        <ele>399.2</ele>
        <time>2023-03-04T09:10:15.000Z</time>
      </trkpt>
      <trkpt lat="43.52423" lon="6.68604">
        <ele>399.4</ele>
        <time>2023-03-04T09:10:16.000Z</time>
      </trkpt>
      <trkpt lat="43.52425" lon="6.68601">
        <ele>399.5</ele>
        <time>2023-03-04T09:10:18.000Z</time>
      </trkpt>
      <trkpt lat="43.52427" lon="6.68597">
        <ele>399.6</ele>
        <time>2023-03-04T09:10:19.000Z</time>
      </trkpt>
      <trkpt lat="43.5243" lon="6.68594">
        <ele>399.7</ele>
        <time>2023-03-04T09:10:20.000Z</time>
      </trkpt>
      <trkpt lat="43.52433" lon="6.68591">
        <ele>399.8</ele>
        <time>2023-03-04T09:10:21.000Z</time>
      </trkpt>
      <trkpt lat="43.52435" lon="6.68587">
        <ele>399.9</ele>
        <time>2023-03-04T09:10:22.000Z</time>
      </trkpt>
      <trkpt lat="43.52437" lon="6.68584">
        <ele>400.1</ele>
        <time>2023-03-04T09:10:23.000Z</time>
      </trkpt>
      <trkpt lat="43.5244" lon="6.68581">
        <ele>400.2</ele>
        <time>2023-03-04T09:10:25.000Z</time>
      </trkpt>
      <trkpt lat="43.52442" lon="6.68578">
        <ele>400.3</ele>
        <time>2023-03-04T09:10:26.000Z</time>
      </trkpt>
      <trkpt lat="43.52443" lon="6.68573">
        <ele>400.4</ele>
        <time>2023-03-04T09:10:27.000Z</time>
      </trkpt>
      <trkpt lat="43.52444" lon="6.6857">
        <ele>400.5</ele>
        <time>2023-03-04T09:10:28.000Z</time>
      </trkpt>
      <trkpt lat="43.52445" lon="6.68565">
        <ele>400.6</ele>
        <time>2023-03-04T09:10:29.000Z</time>
      </trkpt>
      <trkpt lat="43.52445" lon="6.68563">
        <ele>400.7</ele>
        <time>2023-03-04T09:10:30.000Z</time>
      </trkpt>
      <trkpt lat="43.52446" lon="6.68558">
        <ele>400.8</ele>
        <time>2023-03-04T09:10:31.000Z</time>
      </trkpt>
      <trkpt lat="43.52448" lon="6.68552">
        <ele>400.9</ele>
        <time>2023-03-04T09:10:33.000Z</time>
      </trkpt>
      <trkpt lat="43.5245" lon="6.68547">
        <ele>400.9</ele>
        <time>2023-03-04T09:10:34.000Z</time>
      </trkpt>
      <trkpt lat="43.52454" lon="6.68541">
        <ele>401</ele>
        <time>2023-03-04T09:10:35.000Z</time>
      </trkpt>
      <trkpt lat="43.52458" lon="6.68538">
        <ele>401.1</ele>
        <time>2023-03-04T09:10:36.000Z</time>
      </trkpt>
      <trkpt lat="43.52463" lon="6.68534">
        <ele>401.1</ele>
        <time>2023-03-04T09:10:38.000Z</time>
      </trkpt>
      <trkpt lat="43.52466" lon="6.68531">
        <ele>401.2</ele>
        <time>2023-03-04T09:10:39.000Z</time>
      </trkpt>
      <trkpt lat="43.52468" lon="6.68527">
        <ele>401.2</ele>
        <time>2023-03-04T09:10:40.000Z</time>
      </trkpt>
      <trkpt lat="43.52468" lon="6.68526">
        <ele>401.2</ele>
        <time>2023-03-04T09:10:41.000Z</time>
      </trkpt>
      <trkpt lat="43.52468" lon="6.68526">
        <ele>401.2</ele>
        <time>2023-03-04T09:10:42.000Z</time>
      </trkpt>
      <trkpt lat="43.52467" lon="6.68527">
        <ele>401.3</ele>
        <time>2023-03-04T09:10:43.000Z</time>
      </trkpt>
      <trkpt lat="43.52466" lon="6.68528">
        <ele>401.3</ele>
        <time>2023-03-04T09:10:45.000Z</time>
      </trkpt>
      <trkpt lat="43.52466" lon="6.68528">
        <ele>401.3</ele>
        <time>2023-03-04T09:10:46.000Z</time>
      </trkpt>
      <trkpt lat="43.52466" lon="6.68528">
        <ele>401.3</ele>
        <time>2023-03-04T09:10:48.000Z</time>
      </trkpt>
      <trkpt lat="43.52466" lon="6.68528">
        <ele>401.3</ele>
        <time>2023-03-04T09:10:49.000Z</time>
      </trkpt>
      <trkpt lat="43.52466" lon="6.68528">
        <ele>401.3</ele>
        <time>2023-03-04T09:10:50.000Z</time>
      </trkpt>
      <trkpt lat="43.52466" lon="6.68528">
        <ele>401.3</ele>
        <time>2023-03-04T09:10:52.000Z</time>
      </trkpt>
      <trkpt lat="43.52466" lon="6.6852">
        <ele>401.4</ele>
        <time>2023-03-04T09:11:31.000Z</time>
      </trkpt>
      <trkpt lat="43.52467" lon="6.68519">
        <ele>401.4</ele>
        <time>2023-03-04T09:11:32.000Z</time>
      </trkpt>
      <trkpt lat="43.52467" lon="6.68517">
        <ele>401.4</ele>
        <time>2023-03-04T09:11:33.000Z</time>
      </trkpt>
      <trkpt lat="43.52467" lon="6.68516">
        <ele>401.5</ele>
        <time>2023-03-04T09:11:34.000Z</time>
      </trkpt>
      <trkpt lat="43.52468" lon="6.68513">
        <ele>401.5</ele>
        <time>2023-03-04T09:11:36.000Z</time>
      </trkpt>
      <trkpt lat="43.5247" lon="6.68508">
        <ele>401.6</ele>
        <time>2023-03-04T09:11:37.000Z</time>
      </trkpt>
      <trkpt lat="43.52472" lon="6.68504">
        <ele>401.7</ele>
        <time>2023-03-04T09:11:38.000Z</time>
      </trkpt>
      <trkpt lat="43.52472" lon="6.685">
        <ele>401.7</ele>
        <time>2023-03-04T09:11:39.000Z</time>
      </trkpt>
      <trkpt lat="43.52474" lon="6.68492">
        <ele>401.7</ele>
        <time>2023-03-04T09:11:41.000Z</time>
      </trkpt>
      <trkpt lat="43.52475" lon="6.68487">
        <ele>401.6</ele>
        <time>2023-03-04T09:11:42.000Z</time>
      </trkpt>
      <trkpt lat="43.52477" lon="6.68479">
        <ele>401.4</ele>
        <time>2023-03-04T09:11:44.000Z</time>
      </trkpt>
      <trkpt lat="43.52478" lon="6.68475">
        <ele>401.3</ele>
        <time>2023-03-04T09:11:45.000Z</time>
      </trkpt>
      <trkpt lat="43.5248" lon="6.68467">
        <ele>401</ele>
        <time>2023-03-04T09:11:46.000Z</time>
      </trkpt>
      <trkpt lat="43.52482" lon="6.68462">
        <ele>400.8</ele>
        <time>2023-03-04T09:11:47.000Z</time>
      </trkpt>
      <trkpt lat="43.52485" lon="6.68455">
        <ele>400.4</ele>
        <time>2023-03-04T09:11:48.000Z</time>
      </trkpt>
      <trkpt lat="43.52486" lon="6.68451">
        <ele>400.2</ele>
        <time>2023-03-04T09:11:49.000Z</time>
      </trkpt>
      <trkpt lat="43.52488" lon="6.68445">
        <ele>399.8</ele>
        <time>2023-03-04T09:11:50.000Z</time>
      </trkpt>
      <trkpt lat="43.5249" lon="6.68436">
        <ele>399.3</ele>
        <time>2023-03-04T09:11:52.000Z</time>
      </trkpt>
      <trkpt lat="43.52491" lon="6.6843">
        <ele>398.9</ele>
        <time>2023-03-04T09:11:53.000Z</time>
      </trkpt>
      <trkpt lat="43.52493" lon="6.68426">
        <ele>398.7</ele>
        <time>2023-03-04T09:11:55.000Z</time>
      </trkpt>
      <trkpt lat="43.52495" lon="6.68421">
        <ele>398.3</ele>
        <time>2023-03-04T09:11:56.000Z</time>
      </trkpt>
      <trkpt lat="43.52497" lon="6.68417">
        <ele>398</ele>
        <time>2023-03-04T09:11:57.000Z</time>
      </trkpt>
      <trkpt lat="43.52498" lon="6.68412">
        <ele>397.6</ele>
        <time>2023-03-04T09:11:58.000Z</time>
      </trkpt>
      <trkpt lat="43.52499" lon="6.68407">
        <ele>397.3</ele>
        <time>2023-03-04T09:11:59.000Z</time>
      </trkpt>
      <trkpt lat="43.52499" lon="6.68403">
        <ele>397</ele>
        <time>2023-03-04T09:12:00.000Z</time>
      </trkpt>
      <trkpt lat="43.52499" lon="6.68399">
        <ele>396.6</ele>
        <time>2023-03-04T09:12:02.000Z</time>
      </trkpt>
      <trkpt lat="43.525" lon="6.68392">
        <ele>396</ele>
        <time>2023-03-04T09:12:03.000Z</time>
      </trkpt>
      <trkpt lat="43.52501" lon="6.68386">
        <ele>395.5</ele>
        <time>2023-03-04T09:12:04.000Z</time>
      </trkpt>
      <trkpt lat="43.52503" lon="6.68381">
        <ele>394.9</ele>
        <time>2023-03-04T09:12:05.000Z</time>
      </trkpt>
      <trkpt lat="43.52505" lon="6.68375">
        <ele>394.2</ele>
        <time>2023-03-04T09:12:07.000Z</time>
      </trkpt>
      <trkpt lat="43.52506" lon="6.6837">
        <ele>393.5</ele>
        <time>2023-03-04T09:12:08.000Z</time>
      </trkpt>
      <trkpt lat="43.52506" lon="6.68369">
        <ele>393.4</ele>
        <time>2023-03-04T09:12:09.000Z</time>
      </trkpt>
      <trkpt lat="43.52506" lon="6.68367">
        <ele>393.1</ele>
        <time>2023-03-04T09:12:11.000Z</time>
      </trkpt>
      <trkpt lat="43.52507" lon="6.68365">
        <ele>392.9</ele>
        <time>2023-03-04T09:12:12.000Z</time>
      </trkpt>
      <trkpt lat="43.52508" lon="6.68359">
        <ele>392.2</ele>
        <time>2023-03-04T09:12:13.000Z</time>
      </trkpt>
      <trkpt lat="43.52508" lon="6.68357">
        <ele>391.9</ele>
        <time>2023-03-04T09:12:14.000Z</time>
      </trkpt>
      <trkpt lat="43.52509" lon="6.68353">
        <ele>391.5</ele>
        <time>2023-03-04T09:12:15.000Z</time>
      </trkpt>
      <trkpt lat="43.5251" lon="6.68349">
        <ele>391.1</ele>
        <time>2023-03-04T09:12:16.000Z</time>
      </trkpt>
      <trkpt lat="43.52511" lon="6.68345">
        <ele>390.7</ele>
        <time>2023-03-04T09:12:17.000Z</time>
      </trkpt>
      <trkpt lat="43.52512" lon="6.68339">
        <ele>390.2</ele>
        <time>2023-03-04T09:12:19.000Z</time>
      </trkpt>
      <trkpt lat="43.52513" lon="6.68333">
        <ele>389.8</ele>
        <time>2023-03-04T09:12:20.000Z</time>
      </trkpt>
      <trkpt lat="43.52515" lon="6.68327">
        <ele>389.6</ele>
        <time>2023-03-04T09:12:21.000Z</time>
      </trkpt>
      <trkpt lat="43.52516" lon="6.68322">
        <ele>389.4</ele>
        <time>2023-03-04T09:12:22.000Z</time>
      </trkpt>
      <trkpt lat="43.52517" lon="6.68317">
        <ele>389.2</ele>
        <time>2023-03-04T09:12:23.000Z</time>
      </trkpt>
      <trkpt lat="43.52519" lon="6.68312">
        <ele>389.1</ele>
        <time>2023-03-04T09:12:24.000Z</time>
      </trkpt>
      <trkpt lat="43.5252" lon="6.68308">
        <ele>388.9</ele>
        <time>2023-03-04T09:12:26.000Z</time>
      </trkpt>
      <trkpt lat="43.52522" lon="6.68303">
        <ele>388.8</ele>
        <time>2023-03-04T09:12:27.000Z</time>
      </trkpt>
      <trkpt lat="43.52523" lon="6.683">
        <ele>388.6</ele>
        <time>2023-03-04T09:12:28.000Z</time>
      </trkpt>
      <trkpt lat="43.52525" lon="6.68295">
        <ele>388.4</ele>
        <time>2023-03-04T09:12:29.000Z</time>
      </trkpt>
      <trkpt lat="43.52527" lon="6.6829">
        <ele>388</ele>
        <time>2023-03-04T09:12:30.000Z</time>
      </trkpt>
      <trkpt lat="43.52528" lon="6.68286">
        <ele>387.7</ele>
        <time>2023-03-04T09:12:31.000Z</time>
      </trkpt>
      <trkpt lat="43.52528" lon="6.68282">
        <ele>387.4</ele>
        <time>2023-03-04T09:12:32.000Z</time>
      </trkpt>
      <trkpt lat="43.52529" lon="6.68277">
        <ele>387</ele>
        <time>2023-03-04T09:12:34.000Z</time>
      </trkpt>
      <trkpt lat="43.52529" lon="6.68273">
        <ele>386.7</ele>
        <time>2023-03-04T09:12:35.000Z</time>
      </trkpt>
      <trkpt lat="43.5253" lon="6.68269">
        <ele>386.2</ele>
        <time>2023-03-04T09:12:36.000Z</time>
      </trkpt>
      <trkpt lat="43.52531" lon="6.68265">
        <ele>385.9</ele>
        <time>2023-03-04T09:12:37.000Z</time>
      </trkpt>
      <trkpt lat="43.52531" lon="6.68264">
        <ele>385.7</ele>
        <time>2023-03-04T09:12:38.000Z</time>
      </trkpt>
      <trkpt lat="43.52534" lon="6.68259">
        <ele>385.1</ele>
        <time>2023-03-04T09:12:40.000Z</time>
      </trkpt>
      <trkpt lat="43.52535" lon="6.68257">
        <ele>385</ele>
        <time>2023-03-04T09:12:41.000Z</time>
      </trkpt>
      <trkpt lat="43.52535" lon="6.68255">
        <ele>384.8</ele>
        <time>2023-03-04T09:12:42.000Z</time>
      </trkpt>
      <trkpt lat="43.52535" lon="6.68253">
        <ele>384.6</ele>
        <time>2023-03-04T09:12:44.000Z</time>
      </trkpt>
      <trkpt lat="43.52536" lon="6.68251">
        <ele>384.4</ele>
        <time>2023-03-04T09:12:45.000Z</time>
      </trkpt>
      <trkpt lat="43.52538" lon="6.68245">
        <ele>383.9</ele>
        <time>2023-03-04T09:12:46.000Z</time>
      </trkpt>
      <trkpt lat="43.52538" lon="6.68243">
        <ele>383.7</ele>
        <time>2023-03-04T09:12:47.000Z</time>
      </trkpt>
      <trkpt lat="43.5254" lon="6.68238">
        <ele>383.3</ele>
        <time>2023-03-04T09:12:48.000Z</time>
      </trkpt>
      <trkpt lat="43.52541" lon="6.68235">
        <ele>383.1</ele>
        <time>2023-03-04T09:12:49.000Z</time>
      </trkpt>
      <trkpt lat="43.52542" lon="6.68227">
        <ele>382.6</ele>
        <time>2023-03-04T09:12:51.000Z</time>
      </trkpt>
      <trkpt lat="43.52543" lon="6.68222">
        <ele>382.2</ele>
        <time>2023-03-04T09:12:52.000Z</time>
      </trkpt>
      <trkpt lat="43.52544" lon="6.68218">
        <ele>381.8</ele>
        <time>2023-03-04T09:12:53.000Z</time>
      </trkpt>
      <trkpt lat="43.52545" lon="6.68213">
        <ele>381.4</ele>
        <time>2023-03-04T09:12:54.000Z</time>
      </trkpt>
      <trkpt lat="43.52546" lon="6.68208">
        <ele>380.9</ele>
        <time>2023-03-04T09:12:55.000Z</time>
      </trkpt>
      <trkpt lat="43.52547" lon="6.68204">
        <ele>380.5</ele>
        <time>2023-03-04T09:12:56.000Z</time>
      </trkpt>
      <trkpt lat="43.52548" lon="6.68199">
        <ele>379.8</ele>
        <time>2023-03-04T09:12:58.000Z</time>
      </trkpt>
      <trkpt lat="43.52549" lon="6.68197">
        <ele>379.6</ele>
        <time>2023-03-04T09:12:59.000Z</time>
      </trkpt>
      <trkpt lat="43.52549" lon="6.68195">
        <ele>379.4</ele>
        <time>2023-03-04T09:13:00.000Z</time>
      </trkpt>
      <trkpt lat="43.52548" lon="6.68191">
        <ele>378.9</ele>
        <time>2023-03-04T09:13:01.000Z</time>
      </trkpt>
      <trkpt lat="43.52549" lon="6.68187">
        <ele>378.4</ele>
        <time>2023-03-04T09:13:02.000Z</time>
      </trkpt>
      <trkpt lat="43.5255" lon="6.68185">
        <ele>378.1</ele>
        <time>2023-03-04T09:13:03.000Z</time>
      </trkpt>
      <trkpt lat="43.52551" lon="6.6818">
        <ele>377.4</ele>
        <time>2023-03-04T09:13:05.000Z</time>
      </trkpt>
      <trkpt lat="43.52553" lon="6.68175">
        <ele>376.9</ele>
        <time>2023-03-04T09:13:06.000Z</time>
      </trkpt>
      <trkpt lat="43.52556" lon="6.68169">
        <ele>376.1</ele>
        <time>2023-03-04T09:13:07.000Z</time>
      </trkpt>
      <trkpt lat="43.52557" lon="6.68165">
        <ele>375.7</ele>
        <time>2023-03-04T09:13:08.000Z</time>
      </trkpt>
      <trkpt lat="43.52557" lon="6.68164">
        <ele>375.6</ele>
        <time>2023-03-04T09:13:09.000Z</time>
      </trkpt>
      <trkpt lat="43.52558" lon="6.6816">
        <ele>375.2</ele>
        <time>2023-03-04T09:13:10.000Z</time>
      </trkpt>
      <trkpt lat="43.52558" lon="6.68159">
        <ele>375</ele>
        <time>2023-03-04T09:13:11.000Z</time>
      </trkpt>
      <trkpt lat="43.52558" lon="6.68154">
        <ele>374.5</ele>
        <time>2023-03-04T09:13:13.000Z</time>
      </trkpt>
      <trkpt lat="43.52559" lon="6.68149">
        <ele>373.9</ele>
        <time>2023-03-04T09:13:14.000Z</time>
      </trkpt>
      <trkpt lat="43.52559" lon="6.68147">
        <ele>373.6</ele>
        <time>2023-03-04T09:13:15.000Z</time>
      </trkpt>
      <trkpt lat="43.5256" lon="6.68145">
        <ele>373.3</ele>
        <time>2023-03-04T09:13:16.000Z</time>
      </trkpt>
      <trkpt lat="43.52561" lon="6.68141">
        <ele>372.8</ele>
        <time>2023-03-04T09:13:17.000Z</time>
      </trkpt>
      <trkpt lat="43.52563" lon="6.68135">
        <ele>372.1</ele>
        <time>2023-03-04T09:13:19.000Z</time>
      </trkpt>
      <trkpt lat="43.52564" lon="6.68131">
        <ele>371.6</ele>
        <time>2023-03-04T09:13:20.000Z</time>
      </trkpt>
      <trkpt lat="43.52565" lon="6.68126">
        <ele>371.1</ele>
        <time>2023-03-04T09:13:21.000Z</time>
      </trkpt>
      <trkpt lat="43.52565" lon="6.68121">
        <ele>370.6</ele>
        <time>2023-03-04T09:13:23.000Z</time>
      </trkpt>
      <trkpt lat="43.52566" lon="6.68115">
        <ele>370.2</ele>
        <time>2023-03-04T09:13:24.000Z</time>
      </trkpt>
      <trkpt lat="43.52566" lon="6.68111">
        <ele>369.9</ele>
        <time>2023-03-04T09:13:25.000Z</time>
      </trkpt>
      <trkpt lat="43.52567" lon="6.68106">
        <ele>369.7</ele>
        <time>2023-03-04T09:13:26.000Z</time>
      </trkpt>
      <trkpt lat="43.52569" lon="6.68102">
        <ele>369.6</ele>
        <time>2023-03-04T09:13:27.000Z</time>
      </trkpt>
      <trkpt lat="43.52571" lon="6.68099">
        <ele>369.5</ele>
        <time>2023-03-04T09:13:28.000Z</time>
      </trkpt>
      <trkpt lat="43.52572" lon="6.68095">
        <ele>369.4</ele>
        <time>2023-03-04T09:13:30.000Z</time>
      </trkpt>
      <trkpt lat="43.52572" lon="6.6809">
        <ele>369.4</ele>
        <time>2023-03-04T09:13:31.000Z</time>
      </trkpt>
      <trkpt lat="43.52573" lon="6.68086">
        <ele>369.3</ele>
        <time>2023-03-04T09:13:32.000Z</time>
      </trkpt>
      <trkpt lat="43.52574" lon="6.68082">
        <ele>369.3</ele>
        <time>2023-03-04T09:13:33.000Z</time>
      </trkpt>
      <trkpt lat="43.52576" lon="6.68078">
        <ele>369.3</ele>
        <time>2023-03-04T09:13:34.000Z</time>
      </trkpt>
      <trkpt lat="43.52578" lon="6.68074">
        <ele>369.3</ele>
        <time>2023-03-04T09:13:35.000Z</time>
      </trkpt>
      <trkpt lat="43.52581" lon="6.6807">
        <ele>369.3</ele>
        <time>2023-03-04T09:13:36.000Z</time>
      </trkpt>
      <trkpt lat="43.52582" lon="6.68065">
        <ele>369.3</ele>
        <time>2023-03-04T09:13:38.000Z</time>
      </trkpt>
      <trkpt lat="43.52583" lon="6.68061">
        <ele>369.3</ele>
        <time>2023-03-04T09:13:39.000Z</time>
      </trkpt>
      <trkpt lat="43.52585" lon="6.68057">
        <ele>369.3</ele>
        <time>2023-03-04T09:13:40.000Z</time>
      </trkpt>
      <trkpt lat="43.52586" lon="6.68052">
        <ele>369.3</ele>
        <time>2023-03-04T09:13:41.000Z</time>
      </trkpt>
      <trkpt lat="43.52588" lon="6.68047">
        <ele>369.2</ele>
        <time>2023-03-04T09:13:42.000Z</time>
      </trkpt>
      <trkpt lat="43.52589" lon="6.68043">
        <ele>369.2</ele>
        <time>2023-03-04T09:13:43.000Z</time>
      </trkpt>
      <trkpt lat="43.52591" lon="6.68038">
        <ele>369.1</ele>
        <time>2023-03-04T09:13:44.000Z</time>
      </trkpt>
      <trkpt lat="43.52592" lon="6.68033">
        <ele>369.1</ele>
        <time>2023-03-04T09:13:45.000Z</time>
      </trkpt>
      <trkpt lat="43.52594" lon="6.68028">
        <ele>369</ele>
        <time>2023-03-04T09:13:47.000Z</time>
      </trkpt>
      <trkpt lat="43.52595" lon="6.68023">
        <ele>369</ele>
        <time>2023-03-04T09:13:48.000Z</time>
      </trkpt>
      <trkpt lat="43.52597" lon="6.68017">
        <ele>369</ele>
        <time>2023-03-04T09:13:49.000Z</time>
      </trkpt>
      <trkpt lat="43.52598" lon="6.6801">
        <ele>369</ele>
        <time>2023-03-04T09:13:50.000Z</time>
      </trkpt>
      <trkpt lat="43.526" lon="6.68005">
        <ele>369.1</ele>
        <time>2023-03-04T09:13:51.000Z</time>
      </trkpt>
      <trkpt lat="43.52602" lon="6.67998">
        <ele>369.4</ele>
        <time>2023-03-04T09:13:52.000Z</time>
      </trkpt>
      <trkpt lat="43.52605" lon="6.67992">
        <ele>369.6</ele>
        <time>2023-03-04T09:13:53.000Z</time>
      </trkpt>
      <trkpt lat="43.52606" lon="6.67986">
        <ele>370</ele>
        <time>2023-03-04T09:13:55.000Z</time>
      </trkpt>
      <trkpt lat="43.52607" lon="6.67982">
        <ele>370.2</ele>
        <time>2023-03-04T09:13:56.000Z</time>
      </trkpt>
      <trkpt lat="43.52606" lon="6.67978">
        <ele>370.5</ele>
        <time>2023-03-04T09:13:57.000Z</time>
      </trkpt>
      <trkpt lat="43.52606" lon="6.67977">
        <ele>370.6</ele>
        <time>2023-03-04T09:13:58.000Z</time>
      </trkpt>
      <trkpt lat="43.52605" lon="6.67974">
        <ele>370.8</ele>
        <time>2023-03-04T09:13:59.000Z</time>
      </trkpt>
      <trkpt lat="43.52603" lon="6.67971">
        <ele>371.1</ele>
        <time>2023-03-04T09:14:01.000Z</time>
      </trkpt>
      <trkpt lat="43.52601" lon="6.67966">
        <ele>371.5</ele>
        <time>2023-03-04T09:14:02.000Z</time>
      </trkpt>
      <trkpt lat="43.526" lon="6.67964">
        <ele>371.7</ele>
        <time>2023-03-04T09:14:03.000Z</time>
      </trkpt>
      <trkpt lat="43.52599" lon="6.67962">
        <ele>371.9</ele>
        <time>2023-03-04T09:14:05.000Z</time>
      </trkpt>
      <trkpt lat="43.52598" lon="6.67959">
        <ele>372.1</ele>
        <time>2023-03-04T09:14:06.000Z</time>
      </trkpt>
      <trkpt lat="43.52597" lon="6.67955">
        <ele>372.5</ele>
        <time>2023-03-04T09:14:07.000Z</time>
      </trkpt>
      <trkpt lat="43.52596" lon="6.67951">
        <ele>372.8</ele>
        <time>2023-03-04T09:14:08.000Z</time>
      </trkpt>
      <trkpt lat="43.52595" lon="6.67949">
        <ele>372.9</ele>
        <time>2023-03-04T09:14:09.000Z</time>
      </trkpt>
      <trkpt lat="43.52594" lon="6.67946">
        <ele>373.2</ele>
        <time>2023-03-04T09:14:10.000Z</time>
      </trkpt>
      <trkpt lat="43.52592" lon="6.67942">
        <ele>373.5</ele>
        <time>2023-03-04T09:14:11.000Z</time>
      </trkpt>
      <trkpt lat="43.52591" lon="6.67938">
        <ele>373.8</ele>
        <time>2023-03-04T09:14:13.000Z</time>
      </trkpt>
      <trkpt lat="43.52591" lon="6.67933">
        <ele>374</ele>
        <time>2023-03-04T09:14:14.000Z</time>
      </trkpt>
      <trkpt lat="43.5259" lon="6.67928">
        <ele>374.3</ele>
        <time>2023-03-04T09:14:15.000Z</time>
      </trkpt>
      <trkpt lat="43.52589" lon="6.67923">
        <ele>374.7</ele>
        <time>2023-03-04T09:14:16.000Z</time>
      </trkpt>
      <trkpt lat="43.52588" lon="6.67919">
        <ele>374.9</ele>
        <time>2023-03-04T09:14:17.000Z</time>
      </trkpt>
      <trkpt lat="43.52587" lon="6.67913">
        <ele>375.3</ele>
        <time>2023-03-04T09:14:18.000Z</time>
      </trkpt>
      <trkpt lat="43.52587" lon="6.67911">
        <ele>375.4</ele>
        <time>2023-03-04T09:14:19.000Z</time>
      </trkpt>
      <trkpt lat="43.52587" lon="6.67906">
        <ele>375.6</ele>
        <time>2023-03-04T09:14:20.000Z</time>
      </trkpt>
      <trkpt lat="43.52586" lon="6.67901">
        <ele>375.9</ele>
        <time>2023-03-04T09:14:22.000Z</time>
      </trkpt>
      <trkpt lat="43.52585" lon="6.67897">
        <ele>376.2</ele>
        <time>2023-03-04T09:14:23.000Z</time>
      </trkpt>
      <trkpt lat="43.52585" lon="6.67892">
        <ele>376.5</ele>
        <time>2023-03-04T09:14:24.000Z</time>
      </trkpt>
      <trkpt lat="43.52585" lon="6.67888">
        <ele>376.7</ele>
        <time>2023-03-04T09:14:25.000Z</time>
      </trkpt>
      <trkpt lat="43.52584" lon="6.67884">
        <ele>376.9</ele>
        <time>2023-03-04T09:14:26.000Z</time>
      </trkpt>
      <trkpt lat="43.52584" lon="6.67879">
        <ele>377.2</ele>
        <time>2023-03-04T09:14:27.000Z</time>
      </trkpt>
      <trkpt lat="43.52585" lon="6.67876">
        <ele>377.4</ele>
        <time>2023-03-04T09:14:28.000Z</time>
      </trkpt>
      <trkpt lat="43.52585" lon="6.67873">
        <ele>377.6</ele>
        <time>2023-03-04T09:14:30.000Z</time>
      </trkpt>
      <trkpt lat="43.52585" lon="6.67868">
        <ele>377.9</ele>
        <time>2023-03-04T09:14:31.000Z</time>
      </trkpt>
      <trkpt lat="43.52586" lon="6.67863">
        <ele>378.1</ele>
        <time>2023-03-04T09:14:32.000Z</time>
      </trkpt>
      <trkpt lat="43.52587" lon="6.67859">
        <ele>378.3</ele>
        <time>2023-03-04T09:14:33.000Z</time>
      </trkpt>
      <trkpt lat="43.52588" lon="6.67855">
        <ele>378.6</ele>
        <time>2023-03-04T09:14:34.000Z</time>
      </trkpt>
      <trkpt lat="43.52589" lon="6.67851">
        <ele>378.7</ele>
        <time>2023-03-04T09:14:36.000Z</time>
      </trkpt>
      <trkpt lat="43.52591" lon="6.67847">
        <ele>378.9</ele>
        <time>2023-03-04T09:14:37.000Z</time>
      </trkpt>
      <trkpt lat="43.52592" lon="6.67842">
        <ele>379.1</ele>
        <time>2023-03-04T09:14:38.000Z</time>
      </trkpt>
      <trkpt lat="43.52593" lon="6.67838">
        <ele>379.3</ele>
        <time>2023-03-04T09:14:39.000Z</time>
      </trkpt>
      <trkpt lat="43.52595" lon="6.67833">
        <ele>379.4</ele>
        <time>2023-03-04T09:14:40.000Z</time>
      </trkpt>
      <trkpt lat="43.52596" lon="6.67829">
        <ele>379.5</ele>
        <time>2023-03-04T09:14:41.000Z</time>
      </trkpt>
      <trkpt lat="43.52599" lon="6.67824">
        <ele>379.6</ele>
        <time>2023-03-04T09:14:43.000Z</time>
      </trkpt>
      <trkpt lat="43.52601" lon="6.67821">
        <ele>379.6</ele>
        <time>2023-03-04T09:14:44.000Z</time>
      </trkpt>
      <trkpt lat="43.52604" lon="6.67818">
        <ele>379.6</ele>
        <time>2023-03-04T09:14:45.000Z</time>
      </trkpt>
      <trkpt lat="43.52607" lon="6.67815">
        <ele>379.6</ele>
        <time>2023-03-04T09:14:47.000Z</time>
      </trkpt>
      <trkpt lat="43.52611" lon="6.67811">
        <ele>379.5</ele>
        <time>2023-03-04T09:14:48.000Z</time>
      </trkpt>
      <trkpt lat="43.52612" lon="6.6781">
        <ele>379.5</ele>
        <time>2023-03-04T09:14:49.000Z</time>
      </trkpt>
      <trkpt lat="43.52614" lon="6.67806">
        <ele>379.3</ele>
        <time>2023-03-04T09:14:51.000Z</time>
      </trkpt>
      <trkpt lat="43.52618" lon="6.67802">
        <ele>379.1</ele>
        <time>2023-03-04T09:14:52.000Z</time>
      </trkpt>
      <trkpt lat="43.52623" lon="6.67798">
        <ele>378.9</ele>
        <time>2023-03-04T09:14:53.000Z</time>
      </trkpt>
      <trkpt lat="43.52628" lon="6.67795">
        <ele>378.7</ele>
        <time>2023-03-04T09:14:55.000Z</time>
      </trkpt>
      <trkpt lat="43.52632" lon="6.67793">
        <ele>378.6</ele>
        <time>2023-03-04T09:14:56.000Z</time>
      </trkpt>
      <trkpt lat="43.52635" lon="6.67791">
        <ele>378.5</ele>
        <time>2023-03-04T09:14:57.000Z</time>
      </trkpt>
      <trkpt lat="43.52639" lon="6.67788">
        <ele>378.5</ele>
        <time>2023-03-04T09:14:58.000Z</time>
      </trkpt>
      <trkpt lat="43.52642" lon="6.67785">
        <ele>378.5</ele>
        <time>2023-03-04T09:14:59.000Z</time>
      </trkpt>
      <trkpt lat="43.52645" lon="6.67781">
        <ele>378.5</ele>
        <time>2023-03-04T09:15:00.000Z</time>
      </trkpt>
      <trkpt lat="43.52648" lon="6.67775">
        <ele>378.6</ele>
        <time>2023-03-04T09:15:01.000Z</time>
      </trkpt>
      <trkpt lat="43.52647" lon="6.6777">
        <ele>378.7</ele>
        <time>2023-03-04T09:15:03.000Z</time>
      </trkpt>
      <trkpt lat="43.52644" lon="6.67766">
        <ele>378.9</ele>
        <time>2023-03-04T09:15:04.000Z</time>
      </trkpt>
      <trkpt lat="43.52642" lon="6.67762">
        <ele>379</ele>
        <time>2023-03-04T09:15:05.000Z</time>
      </trkpt>
      <trkpt lat="43.52638" lon="6.67759">
        <ele>379.3</ele>
        <time>2023-03-04T09:15:06.000Z</time>
      </trkpt>
      <trkpt lat="43.52635" lon="6.67756">
        <ele>379.5</ele>
        <time>2023-03-04T09:15:07.000Z</time>
      </trkpt>
      <trkpt lat="43.52633" lon="6.67753">
        <ele>379.6</ele>
        <time>2023-03-04T09:15:08.000Z</time>
      </trkpt>
      <trkpt lat="43.52632" lon="6.67752">
        <ele>379.7</ele>
        <time>2023-03-04T09:15:10.000Z</time>
      </trkpt>
      <trkpt lat="43.52631" lon="6.6775">
        <ele>379.8</ele>
        <time>2023-03-04T09:15:11.000Z</time>
      </trkpt>
      <trkpt lat="43.52629" lon="6.67747">
        <ele>380</ele>
        <time>2023-03-04T09:15:12.000Z</time>
      </trkpt>
      <trkpt lat="43.52627" lon="6.67743">
        <ele>380.3</ele>
        <time>2023-03-04T09:15:13.000Z</time>
      </trkpt>
      <trkpt lat="43.52625" lon="6.6774">
        <ele>380.5</ele>
        <time>2023-03-04T09:15:14.000Z</time>
      </trkpt>
      <trkpt lat="43.52623" lon="6.67737">
        <ele>380.7</ele>
        <time>2023-03-04T09:15:15.000Z</time>
      </trkpt>
      <trkpt lat="43.5262" lon="6.67732">
        <ele>381.1</ele>
        <time>2023-03-04T09:15:17.000Z</time>
      </trkpt>
      <trkpt lat="43.52618" lon="6.6773">
        <ele>381.3</ele>
        <time>2023-03-04T09:15:18.000Z</time>
      </trkpt>
      <trkpt lat="43.52616" lon="6.67728">
        <ele>381.5</ele>
        <time>2023-03-04T09:15:19.000Z</time>
      </trkpt>
      <trkpt lat="43.52613" lon="6.67726">
        <ele>381.7</ele>
        <time>2023-03-04T09:15:20.000Z</time>
      </trkpt>
      <trkpt lat="43.52613" lon="6.67725">
        <ele>381.8</ele>
        <time>2023-03-04T09:15:21.000Z</time>
      </trkpt>
      <trkpt lat="43.52611" lon="6.67723">
        <ele>382</ele>
        <time>2023-03-04T09:15:22.000Z</time>
      </trkpt>
      <trkpt lat="43.52609" lon="6.67722">
        <ele>382.1</ele>
        <time>2023-03-04T09:15:24.000Z</time>
      </trkpt>
      <trkpt lat="43.52607" lon="6.67719">
        <ele>382.4</ele>
        <time>2023-03-04T09:15:25.000Z</time>
      </trkpt>
      <trkpt lat="43.52606" lon="6.67718">
        <ele>382.5</ele>
        <time>2023-03-04T09:15:26.000Z</time>
      </trkpt>
      <trkpt lat="43.52603" lon="6.67716">
        <ele>382.7</ele>
        <time>2023-03-04T09:15:27.000Z</time>
      </trkpt>
      <trkpt lat="43.52601" lon="6.67713">
        <ele>382.9</ele>
        <time>2023-03-04T09:15:28.000Z</time>
      </trkpt>
      <trkpt lat="43.526" lon="6.67712">
        <ele>383</ele>
        <time>2023-03-04T09:15:29.000Z</time>
      </trkpt>
      <trkpt lat="43.52597" lon="6.6771">
        <ele>383.1</ele>
        <time>2023-03-04T09:15:30.000Z</time>
      </trkpt>
      <trkpt lat="43.52595" lon="6.67706">
        <ele>383.4</ele>
        <time>2023-03-04T09:15:31.000Z</time>
      </trkpt>
      <trkpt lat="43.52594" lon="6.67704">
        <ele>383.4</ele>
        <time>2023-03-04T09:15:32.000Z</time>
      </trkpt>
      <trkpt lat="43.52592" lon="6.67701">
        <ele>383.6</ele>
        <time>2023-03-04T09:15:34.000Z</time>
      </trkpt>
      <trkpt lat="43.52589" lon="6.67698">
        <ele>383.8</ele>
        <time>2023-03-04T09:15:35.000Z</time>
      </trkpt>
      <trkpt lat="43.52588" lon="6.67694">
        <ele>384</ele>
        <time>2023-03-04T09:15:36.000Z</time>
      </trkpt>
      <trkpt lat="43.52585" lon="6.6769">
        <ele>384.2</ele>
        <time>2023-03-04T09:15:37.000Z</time>
      </trkpt>
      <trkpt lat="43.52584" lon="6.67688">
        <ele>384.3</ele>
        <time>2023-03-04T09:15:38.000Z</time>
      </trkpt>
      <trkpt lat="43.52582" lon="6.67683">
        <ele>384.6</ele>
        <time>2023-03-04T09:15:39.000Z</time>
      </trkpt>
      <trkpt lat="43.52581" lon="6.67681">
        <ele>384.7</ele>
        <time>2023-03-04T09:15:40.000Z</time>
      </trkpt>
      <trkpt lat="43.5258" lon="6.67679">
        <ele>384.9</ele>
        <time>2023-03-04T09:15:41.000Z</time>
      </trkpt>
      <trkpt lat="43.52579" lon="6.67675">
        <ele>385.1</ele>
        <time>2023-03-04T09:15:43.000Z</time>
      </trkpt>
      <trkpt lat="43.52578" lon="6.6767">
        <ele>385.4</ele>
        <time>2023-03-04T09:15:44.000Z</time>
      </trkpt>
      <trkpt lat="43.52578" lon="6.67668">
        <ele>385.5</ele>
        <time>2023-03-04T09:15:45.000Z</time>
      </trkpt>
      <trkpt lat="43.52577" lon="6.67664">
        <ele>385.8</ele>
        <time>2023-03-04T09:15:46.000Z</time>
      </trkpt>
      <trkpt lat="43.52577" lon="6.67662">
        <ele>385.9</ele>
        <time>2023-03-04T09:15:47.000Z</time>
      </trkpt>
      <trkpt lat="43.52576" lon="6.67657">
        <ele>386.2</ele>
        <time>2023-03-04T09:15:48.000Z</time>
      </trkpt>
      <trkpt lat="43.52575" lon="6.67655">
        <ele>386.3</ele>
        <time>2023-03-04T09:15:49.000Z</time>
      </trkpt>
      <trkpt lat="43.52574" lon="6.6765">
        <ele>386.5</ele>
        <time>2023-03-04T09:15:51.000Z</time>
      </trkpt>
      <trkpt lat="43.52573" lon="6.67646">
        <ele>386.7</ele>
        <time>2023-03-04T09:15:52.000Z</time>
      </trkpt>
      <trkpt lat="43.52573" lon="6.67644">
        <ele>386.8</ele>
        <time>2023-03-04T09:15:53.000Z</time>
      </trkpt>
      <trkpt lat="43.52573" lon="6.67641">
        <ele>386.9</ele>
        <time>2023-03-04T09:15:55.000Z</time>
      </trkpt>
      <trkpt lat="43.52573" lon="6.6764">
        <ele>386.9</ele>
        <time>2023-03-04T09:15:56.000Z</time>
      </trkpt>
      <trkpt lat="43.52573" lon="6.67637">
        <ele>387</ele>
        <time>2023-03-04T09:15:57.000Z</time>
      </trkpt>
      <trkpt lat="43.52573" lon="6.67636">
        <ele>387</ele>
        <time>2023-03-04T09:15:59.000Z</time>
      </trkpt>
      <trkpt lat="43.52573" lon="6.67635">
        <ele>387</ele>
        <time>2023-03-04T09:16:00.000Z</time>
      </trkpt>
      <trkpt lat="43.52574" lon="6.67635">
        <ele>387</ele>
        <time>2023-03-04T09:16:02.000Z</time>
      </trkpt>
      <trkpt lat="43.52574" lon="6.67634">
        <ele>387</ele>
        <time>2023-03-04T09:16:03.000Z</time>
      </trkpt>
      <trkpt lat="43.52574" lon="6.67633">
        <ele>387</ele>
        <time>2023-03-04T09:16:04.000Z</time>
      </trkpt>
      <trkpt lat="43.52574" lon="6.67632">
        <ele>387</ele>
        <time>2023-03-04T09:16:06.000Z</time>
      </trkpt>
      <trkpt lat="43.52574" lon="6.67632">
        <ele>387.1</ele>
        <time>2023-03-04T09:16:07.000Z</time>
      </trkpt>
      <trkpt lat="43.52574" lon="6.67631">
        <ele>387.1</ele>
        <time>2023-03-04T09:19:01.000Z</time>
      </trkpt>
      <trkpt lat="43.52575" lon="6.6763">
        <ele>387.1</ele>
        <time>2023-03-04T09:19:02.000Z</time>
      </trkpt>
      <trkpt lat="43.52575" lon="6.67629">
        <ele>387.1</ele>
        <time>2023-03-04T09:19:04.000Z</time>
      </trkpt>
      <trkpt lat="43.52575" lon="6.67629">
        <ele>387.1</ele>
        <time>2023-03-04T09:19:05.000Z</time>
      </trkpt>
      <trkpt lat="43.52577" lon="6.67626">
        <ele>387.1</ele>
        <time>2023-03-04T09:19:06.000Z</time>
      </trkpt>
      <trkpt lat="43.52579" lon="6.67622">
        <ele>387.2</ele>
        <time>2023-03-04T09:19:07.000Z</time>
      </trkpt>
      <trkpt lat="43.52581" lon="6.6762">
        <ele>387.2</ele>
        <time>2023-03-04T09:19:08.000Z</time>
      </trkpt>
      <trkpt lat="43.52583" lon="6.67617">
        <ele>387.2</ele>
        <time>2023-03-04T09:19:09.000Z</time>
      </trkpt>
      <trkpt lat="43.52586" lon="6.67614">
        <ele>387.1</ele>
        <time>2023-03-04T09:19:11.000Z</time>
      </trkpt>
      <trkpt lat="43.52589" lon="6.67611">
        <ele>387.1</ele>
        <time>2023-03-04T09:19:12.000Z</time>
      </trkpt>
      <trkpt lat="43.52592" lon="6.67607">
        <ele>387</ele>
        <time>2023-03-04T09:19:13.000Z</time>
      </trkpt>
      <trkpt lat="43.52594" lon="6.67605">
        <ele>387</ele>
        <time>2023-03-04T09:19:14.000Z</time>
      </trkpt>
      <trkpt lat="43.52596" lon="6.676">
        <ele>386.9</ele>
        <time>2023-03-04T09:19:15.000Z</time>
      </trkpt>
      <trkpt lat="43.52597" lon="6.67596">
        <ele>386.8</ele>
        <time>2023-03-04T09:19:16.000Z</time>
      </trkpt>
      <trkpt lat="43.52598" lon="6.67589">
        <ele>386.6</ele>
        <time>2023-03-04T09:19:18.000Z</time>
      </trkpt>
      <trkpt lat="43.52598" lon="6.67583">
        <ele>386.4</ele>
        <time>2023-03-04T09:19:19.000Z</time>
      </trkpt>
      <trkpt lat="43.52598" lon="6.67576">
        <ele>386.1</ele>
        <time>2023-03-04T09:19:20.000Z</time>
      </trkpt>
      <trkpt lat="43.52599" lon="6.6757">
        <ele>385.8</ele>
        <time>2023-03-04T09:19:21.000Z</time>
      </trkpt>
      <trkpt lat="43.526" lon="6.67564">
        <ele>385.6</ele>
        <time>2023-03-04T09:19:22.000Z</time>
      </trkpt>
      <trkpt lat="43.52602" lon="6.67559">
        <ele>385.3</ele>
        <time>2023-03-04T09:19:23.000Z</time>
      </trkpt>
      <trkpt lat="43.52602" lon="6.67554">
        <ele>385.1</ele>
        <time>2023-03-04T09:19:24.000Z</time>
      </trkpt>
      <trkpt lat="43.52603" lon="6.67547">
        <ele>384.7</ele>
        <time>2023-03-04T09:19:26.000Z</time>
      </trkpt>
      <trkpt lat="43.52604" lon="6.67541">
        <ele>384.4</ele>
        <time>2023-03-04T09:19:27.000Z</time>
      </trkpt>
      <trkpt lat="43.52605" lon="6.67534">
        <ele>384</ele>
        <time>2023-03-04T09:19:28.000Z</time>
      </trkpt>
      <trkpt lat="43.52605" lon="6.67529">
        <ele>383.7</ele>
        <time>2023-03-04T09:19:29.000Z</time>
      </trkpt>
      <trkpt lat="43.52606" lon="6.67525">
        <ele>383.5</ele>
        <time>2023-03-04T09:19:30.000Z</time>
      </trkpt>
      <trkpt lat="43.52607" lon="6.67517">
        <ele>383</ele>
        <time>2023-03-04T09:19:32.000Z</time>
      </trkpt>
      <trkpt lat="43.52608" lon="6.67511">
        <ele>382.7</ele>
        <time>2023-03-04T09:19:33.000Z</time>
      </trkpt>
      <trkpt lat="43.52609" lon="6.67506">
        <ele>382.4</ele>
        <time>2023-03-04T09:19:34.000Z</time>
      </trkpt>
      <trkpt lat="43.5261" lon="6.67502">
        <ele>382.1</ele>
        <time>2023-03-04T09:19:35.000Z</time>
      </trkpt>
      <trkpt lat="43.52611" lon="6.67497">
        <ele>381.8</ele>
        <time>2023-03-04T09:19:37.000Z</time>
      </trkpt>
      <trkpt lat="43.52612" lon="6.67492">
        <ele>381.6</ele>
        <time>2023-03-04T09:19:38.000Z</time>
      </trkpt>
      <trkpt lat="43.52613" lon="6.67487">
        <ele>381.4</ele>
        <time>2023-03-04T09:19:39.000Z</time>
      </trkpt>
      <trkpt lat="43.52614" lon="6.67482">
        <ele>381.1</ele>
        <time>2023-03-04T09:19:40.000Z</time>
      </trkpt>
      <trkpt lat="43.52615" lon="6.6748">
        <ele>381.1</ele>
        <time>2023-03-04T09:19:41.000Z</time>
      </trkpt>
      <trkpt lat="43.52616" lon="6.67476">
        <ele>380.9</ele>
        <time>2023-03-04T09:19:42.000Z</time>
      </trkpt>
      <trkpt lat="43.52617" lon="6.67471">
        <ele>380.8</ele>
        <time>2023-03-04T09:19:43.000Z</time>
      </trkpt>
      <trkpt lat="43.52618" lon="6.67467">
        <ele>380.7</ele>
        <time>2023-03-04T09:19:44.000Z</time>
      </trkpt>
      <trkpt lat="43.52619" lon="6.67461">
        <ele>380.6</ele>
        <time>2023-03-04T09:19:46.000Z</time>
      </trkpt>
      <trkpt lat="43.52621" lon="6.67455">
        <ele>380.5</ele>
        <time>2023-03-04T09:19:47.000Z</time>
      </trkpt>
      <trkpt lat="43.52622" lon="6.67448">
        <ele>380.3</ele>
        <time>2023-03-04T09:19:48.000Z</time>
      </trkpt>
      <trkpt lat="43.52624" lon="6.67444">
        <ele>380.2</ele>
        <time>2023-03-04T09:19:49.000Z</time>
      </trkpt>
      <trkpt lat="43.52626" lon="6.67436">
        <ele>380</ele>
        <time>2023-03-04T09:19:50.000Z</time>
      </trkpt>
      <trkpt lat="43.52627" lon="6.67431">
        <ele>379.9</ele>
        <time>2023-03-04T09:19:51.000Z</time>
      </trkpt>
      <trkpt lat="43.52628" lon="6.67425">
        <ele>379.7</ele>
        <time>2023-03-04T09:19:53.000Z</time>
      </trkpt>
      <trkpt lat="43.52628" lon="6.67421">
        <ele>379.6</ele>
        <time>2023-03-04T09:19:54.000Z</time>
      </trkpt>
      <trkpt lat="43.52628" lon="6.67415">
        <ele>379.4</ele>
        <time>2023-03-04T09:19:55.000Z</time>
      </trkpt>
      <trkpt lat="43.52628" lon="6.67411">
        <ele>379.3</ele>
        <time>2023-03-04T09:19:56.000Z</time>
      </trkpt>
      <trkpt lat="43.52628" lon="6.67406">
        <ele>379.2</ele>
        <time>2023-03-04T09:19:57.000Z</time>
      </trkpt>
      <trkpt lat="43.52628" lon="6.674">
        <ele>379</ele>
        <time>2023-03-04T09:19:58.000Z</time>
      </trkpt>
      <trkpt lat="43.52629" lon="6.67393">
        <ele>378.8</ele>
        <time>2023-03-04T09:20:00.000Z</time>
      </trkpt>
      <trkpt lat="43.52628" lon="6.67386">
        <ele>378.7</ele>
        <time>2023-03-04T09:20:01.000Z</time>
      </trkpt>
      <trkpt lat="43.52626" lon="6.6738">
        <ele>378.6</ele>
        <time>2023-03-04T09:20:02.000Z</time>
      </trkpt>
      <trkpt lat="43.52623" lon="6.67375">
        <ele>378.5</ele>
        <time>2023-03-04T09:20:03.000Z</time>
      </trkpt>
      <trkpt lat="43.52619" lon="6.67371">
        <ele>378.4</ele>
        <time>2023-03-04T09:20:04.000Z</time>
      </trkpt>
      <trkpt lat="43.52616" lon="6.67366">
        <ele>378.3</ele>
        <time>2023-03-04T09:20:05.000Z</time>
      </trkpt>
      <trkpt lat="43.52612" lon="6.67362">
        <ele>378.1</ele>
        <time>2023-03-04T09:20:06.000Z</time>
      </trkpt>
      <trkpt lat="43.52608" lon="6.67358">
        <ele>378</ele>
        <time>2023-03-04T09:20:07.000Z</time>
      </trkpt>
      <trkpt lat="43.52604" lon="6.67352">
        <ele>377.8</ele>
        <time>2023-03-04T09:20:09.000Z</time>
      </trkpt>
      <trkpt lat="43.52601" lon="6.67347">
        <ele>377.5</ele>
        <time>2023-03-04T09:20:10.000Z</time>
      </trkpt>
      <trkpt lat="43.52597" lon="6.67342">
        <ele>377.3</ele>
        <time>2023-03-04T09:20:11.000Z</time>
      </trkpt>
      <trkpt lat="43.52594" lon="6.67336">
        <ele>377</ele>
        <time>2023-03-04T09:20:12.000Z</time>
      </trkpt>
      <trkpt lat="43.52591" lon="6.67331">
        <ele>376.7</ele>
        <time>2023-03-04T09:20:13.000Z</time>
      </trkpt>
      <trkpt lat="43.52588" lon="6.67325">
        <ele>376.3</ele>
        <time>2023-03-04T09:20:15.000Z</time>
      </trkpt>
      <trkpt lat="43.52586" lon="6.67322">
        <ele>376.1</ele>
        <time>2023-03-04T09:20:16.000Z</time>
      </trkpt>
      <trkpt lat="43.52584" lon="6.67316">
        <ele>375.6</ele>
        <time>2023-03-04T09:20:17.000Z</time>
      </trkpt>
      <trkpt lat="43.52582" lon="6.67313">
        <ele>375.4</ele>
        <time>2023-03-04T09:20:18.000Z</time>
      </trkpt>
      <trkpt lat="43.52581" lon="6.67311">
        <ele>375.2</ele>
        <time>2023-03-04T09:20:20.000Z</time>
      </trkpt>
      <trkpt lat="43.52576" lon="6.67308">
        <ele>374.6</ele>
        <time>2023-03-04T09:20:21.000Z</time>
      </trkpt>
      <trkpt lat="43.52573" lon="6.67305">
        <ele>374.1</ele>
        <time>2023-03-04T09:20:22.000Z</time>
      </trkpt>
      <trkpt lat="43.52569" lon="6.67303">
        <ele>373.6</ele>
        <time>2023-03-04T09:20:23.000Z</time>
      </trkpt>
      <trkpt lat="43.52567" lon="6.673">
        <ele>373.2</ele>
        <time>2023-03-04T09:20:24.000Z</time>
      </trkpt>
      <trkpt lat="43.52566" lon="6.67294">
        <ele>372.7</ele>
        <time>2023-03-04T09:20:26.000Z</time>
      </trkpt>
      <trkpt lat="43.52565" lon="6.67293">
        <ele>372.5</ele>
        <time>2023-03-04T09:20:27.000Z</time>
      </trkpt>
      <trkpt lat="43.52565" lon="6.67289">
        <ele>372.2</ele>
        <time>2023-03-04T09:20:28.000Z</time>
      </trkpt>
      <trkpt lat="43.52564" lon="6.67288">
        <ele>372.1</ele>
        <time>2023-03-04T09:20:29.000Z</time>
      </trkpt>
      <trkpt lat="43.52562" lon="6.67284">
        <ele>371.7</ele>
        <time>2023-03-04T09:20:30.000Z</time>
      </trkpt>
      <trkpt lat="43.52561" lon="6.67283">
        <ele>371.6</ele>
        <time>2023-03-04T09:20:31.000Z</time>
      </trkpt>
      <trkpt lat="43.5256" lon="6.67279">
        <ele>371.3</ele>
        <time>2023-03-04T09:20:33.000Z</time>
      </trkpt>
      <trkpt lat="43.52557" lon="6.67275">
        <ele>370.8</ele>
        <time>2023-03-04T09:20:34.000Z</time>
      </trkpt>
      <trkpt lat="43.52555" lon="6.67268">
        <ele>370.7</ele>
        <time>2023-03-04T09:20:35.000Z</time>
      </trkpt>
      <trkpt lat="43.52553" lon="6.67261">
        <ele>370.8</ele>
        <time>2023-03-04T09:20:37.000Z</time>
      </trkpt>
      <trkpt lat="43.52552" lon="6.67254">
        <ele>370.9</ele>
        <time>2023-03-04T09:20:38.000Z</time>
      </trkpt>
      <trkpt lat="43.52551" lon="6.67248">
        <ele>371.2</ele>
        <time>2023-03-04T09:20:39.000Z</time>
      </trkpt>
      <trkpt lat="43.52551" lon="6.67243">
        <ele>371.5</ele>
        <time>2023-03-04T09:20:40.000Z</time>
      </trkpt>
      <trkpt lat="43.52552" lon="6.67239">
        <ele>371.8</ele>
        <time>2023-03-04T09:20:41.000Z</time>
      </trkpt>
      <trkpt lat="43.52553" lon="6.67236">
        <ele>372.1</ele>
        <time>2023-03-04T09:20:42.000Z</time>
      </trkpt>
      <trkpt lat="43.52554" lon="6.67233">
        <ele>372.3</ele>
        <time>2023-03-04T09:20:44.000Z</time>
      </trkpt>
      <trkpt lat="43.52555" lon="6.67229">
        <ele>372.7</ele>
        <time>2023-03-04T09:20:45.000Z</time>
      </trkpt>
      <trkpt lat="43.52555" lon="6.67226">
        <ele>373</ele>
        <time>2023-03-04T09:20:46.000Z</time>
      </trkpt>
      <trkpt lat="43.52556" lon="6.67224">
        <ele>373.3</ele>
        <time>2023-03-04T09:20:48.000Z</time>
      </trkpt>
      <trkpt lat="43.52557" lon="6.67219">
        <ele>373.8</ele>
        <time>2023-03-04T09:20:49.000Z</time>
      </trkpt>
      <trkpt lat="43.52558" lon="6.67217">
        <ele>374</ele>
        <time>2023-03-04T09:20:50.000Z</time>
      </trkpt>
      <trkpt lat="43.5256" lon="6.67213">
        <ele>374.5</ele>
        <time>2023-03-04T09:20:51.000Z</time>
      </trkpt>
      <trkpt lat="43.5256" lon="6.67211">
        <ele>374.6</ele>
        <time>2023-03-04T09:20:52.000Z</time>
      </trkpt>
      <trkpt lat="43.52561" lon="6.67208">
        <ele>375</ele>
        <time>2023-03-04T09:20:53.000Z</time>
      </trkpt>
      <trkpt lat="43.52564" lon="6.67203">
        <ele>375.6</ele>
        <time>2023-03-04T09:20:55.000Z</time>
      </trkpt>
      <trkpt lat="43.52565" lon="6.67199">
        <ele>375.9</ele>
        <time>2023-03-04T09:20:56.000Z</time>
      </trkpt>
      <trkpt lat="43.52567" lon="6.67192">
        <ele>376.6</ele>
        <time>2023-03-04T09:20:58.000Z</time>
      </trkpt>
      <trkpt lat="43.52568" lon="6.67189">
        <ele>376.8</ele>
        <time>2023-03-04T09:20:59.000Z</time>
      </trkpt>
      <trkpt lat="43.52569" lon="6.67186">
        <ele>377.1</ele>
        <time>2023-03-04T09:21:00.000Z</time>
      </trkpt>
      <trkpt lat="43.5257" lon="6.67182">
        <ele>377.5</ele>
        <time>2023-03-04T09:21:01.000Z</time>
      </trkpt>
      <trkpt lat="43.5257" lon="6.67181">
        <ele>377.6</ele>
        <time>2023-03-04T09:21:02.000Z</time>
      </trkpt>
      <trkpt lat="43.52571" lon="6.67178">
        <ele>377.8</ele>
        <time>2023-03-04T09:21:03.000Z</time>
      </trkpt>
      <trkpt lat="43.52572" lon="6.67174">
        <ele>378.2</ele>
        <time>2023-03-04T09:21:05.000Z</time>
      </trkpt>
      <trkpt lat="43.52573" lon="6.6717">
        <ele>378.5</ele>
        <time>2023-03-04T09:21:06.000Z</time>
      </trkpt>
      <trkpt lat="43.52576" lon="6.67165">
        <ele>378.9</ele>
        <time>2023-03-04T09:21:08.000Z</time>
      </trkpt>
      <trkpt lat="43.52576" lon="6.67164">
        <ele>379</ele>
        <time>2023-03-04T09:21:09.000Z</time>
      </trkpt>
      <trkpt lat="43.52577" lon="6.67159">
        <ele>379.3</ele>
        <time>2023-03-04T09:21:10.000Z</time>
      </trkpt>
      <trkpt lat="43.52577" lon="6.67158">
        <ele>379.4</ele>
        <time>2023-03-04T09:21:11.000Z</time>
      </trkpt>
      <trkpt lat="43.52579" lon="6.67154">
        <ele>379.7</ele>
        <time>2023-03-04T09:21:12.000Z</time>
      </trkpt>
      <trkpt lat="43.52579" lon="6.67152">
        <ele>379.8</ele>
        <time>2023-03-04T09:21:13.000Z</time>
      </trkpt>
      <trkpt lat="43.5258" lon="6.67147">
        <ele>380.1</ele>
        <time>2023-03-04T09:21:15.000Z</time>
      </trkpt>
      <trkpt lat="43.5258" lon="6.67143">
        <ele>380.3</ele>
        <time>2023-03-04T09:21:16.000Z</time>
      </trkpt>
      <trkpt lat="43.52581" lon="6.67138">
        <ele>380.5</ele>
        <time>2023-03-04T09:21:17.000Z</time>
      </trkpt>
      <trkpt lat="43.52583" lon="6.67132">
        <ele>380.6</ele>
        <time>2023-03-04T09:21:19.000Z</time>
      </trkpt>
      <trkpt lat="43.52584" lon="6.67126">
        <ele>380.7</ele>
        <time>2023-03-04T09:21:20.000Z</time>
      </trkpt>
      <trkpt lat="43.52584" lon="6.67124">
        <ele>380.7</ele>
        <time>2023-03-04T09:21:21.000Z</time>
      </trkpt>
      <trkpt lat="43.52587" lon="6.67118">
        <ele>380.7</ele>
        <time>2023-03-04T09:21:22.000Z</time>
      </trkpt>
      <trkpt lat="43.52587" lon="6.67116">
        <ele>380.7</ele>
        <time>2023-03-04T09:21:23.000Z</time>
      </trkpt>
      <trkpt lat="43.52589" lon="6.67111">
        <ele>380.5</ele>
        <time>2023-03-04T09:21:24.000Z</time>
      </trkpt>
      <trkpt lat="43.5259" lon="6.67106">
        <ele>380.4</ele>
        <time>2023-03-04T09:21:26.000Z</time>
      </trkpt>
      <trkpt lat="43.52589" lon="6.67101">
        <ele>380.2</ele>
        <time>2023-03-04T09:21:27.000Z</time>
      </trkpt>
      <trkpt lat="43.5259" lon="6.67101">
        <ele>380.2</ele>
        <time>2023-03-04T09:21:28.000Z</time>
      </trkpt>
      <trkpt lat="43.52589" lon="6.67102">
        <ele>380.2</ele>
        <time>2023-03-04T09:21:30.000Z</time>
      </trkpt>
      <trkpt lat="43.52589" lon="6.67101">
        <ele>380.1</ele>
        <time>2023-03-04T09:21:31.000Z</time>
      </trkpt>
      <trkpt lat="43.52588" lon="6.67101">
        <ele>380.1</ele>
        <time>2023-03-04T09:21:33.000Z</time>
      </trkpt>
      <trkpt lat="43.52588" lon="6.67101">
        <ele>380.1</ele>
        <time>2023-03-04T09:21:34.000Z</time>
      </trkpt>
      <trkpt lat="43.52588" lon="6.671">
        <ele>380.1</ele>
        <time>2023-03-04T09:21:36.000Z</time>
      </trkpt>
      <trkpt lat="43.52588" lon="6.671">
        <ele>380.1</ele>
        <time>2023-03-04T09:21:37.000Z</time>
      </trkpt>
      <trkpt lat="43.52588" lon="6.671">
        <ele>380.1</ele>
        <time>2023-03-04T09:21:38.000Z</time>
      </trkpt>
      <trkpt lat="43.52588" lon="6.67097">
        <ele>379.9</ele>
        <time>2023-03-04T09:21:49.000Z</time>
      </trkpt>
      <trkpt lat="43.52588" lon="6.67095">
        <ele>379.9</ele>
        <time>2023-03-04T09:21:50.000Z</time>
      </trkpt>
      <trkpt lat="43.52588" lon="6.67092">
        <ele>379.6</ele>
        <time>2023-03-04T09:21:52.000Z</time>
      </trkpt>
      <trkpt lat="43.52588" lon="6.67089">
        <ele>379.2</ele>
        <time>2023-03-04T09:21:53.000Z</time>
      </trkpt>
      <trkpt lat="43.52588" lon="6.67086">
        <ele>378.8</ele>
        <time>2023-03-04T09:21:55.000Z</time>
      </trkpt>
      <trkpt lat="43.52588" lon="6.67083">
        <ele>378.4</ele>
        <time>2023-03-04T09:21:56.000Z</time>
      </trkpt>
      <trkpt lat="43.52588" lon="6.67082">
        <ele>378.3</ele>
        <time>2023-03-04T09:21:57.000Z</time>
      </trkpt>
      <trkpt lat="43.52588" lon="6.6708">
        <ele>378.1</ele>
        <time>2023-03-04T09:21:58.000Z</time>
      </trkpt>
      <trkpt lat="43.52588" lon="6.67079">
        <ele>377.9</ele>
        <time>2023-03-04T09:21:59.000Z</time>
      </trkpt>
      <trkpt lat="43.52588" lon="6.67078">
        <ele>377.8</ele>
        <time>2023-03-04T09:22:00.000Z</time>
      </trkpt>
      <trkpt lat="43.52588" lon="6.67076">
        <ele>377.6</ele>
        <time>2023-03-04T09:22:01.000Z</time>
      </trkpt>
      <trkpt lat="43.52587" lon="6.67075">
        <ele>377.3</ele>
        <time>2023-03-04T09:22:03.000Z</time>
      </trkpt>
      <trkpt lat="43.52587" lon="6.67074">
        <ele>377.1</ele>
        <time>2023-03-04T09:22:04.000Z</time>
      </trkpt>
      <trkpt lat="43.52586" lon="6.67073">
        <ele>377</ele>
        <time>2023-03-04T09:22:05.000Z</time>
      </trkpt>
      <trkpt lat="43.52586" lon="6.67072">
        <ele>376.8</ele>
        <time>2023-03-04T09:22:06.000Z</time>
      </trkpt>
      <trkpt lat="43.52586" lon="6.67071">
        <ele>376.7</ele>
        <time>2023-03-04T09:22:07.000Z</time>
      </trkpt>
      <trkpt lat="43.52585" lon="6.6707">
        <ele>376.5</ele>
        <time>2023-03-04T09:22:08.000Z</time>
      </trkpt>
      <trkpt lat="43.52585" lon="6.67069">
        <ele>376.3</ele>
        <time>2023-03-04T09:22:09.000Z</time>
      </trkpt>
      <trkpt lat="43.52585" lon="6.67068">
        <ele>376.2</ele>
        <time>2023-03-04T09:22:11.000Z</time>
      </trkpt>
      <trkpt lat="43.52585" lon="6.67067">
        <ele>375.9</ele>
        <time>2023-03-04T09:22:12.000Z</time>
      </trkpt>
      <trkpt lat="43.52584" lon="6.67065">
        <ele>375.6</ele>
        <time>2023-03-04T09:22:13.000Z</time>
      </trkpt>
      <trkpt lat="43.52583" lon="6.67064">
        <ele>375.2</ele>
        <time>2023-03-04T09:22:15.000Z</time>
      </trkpt>
      <trkpt lat="43.52582" lon="6.67062">
        <ele>374.8</ele>
        <time>2023-03-04T09:22:16.000Z</time>
      </trkpt>
      <trkpt lat="43.52582" lon="6.67059">
        <ele>374.5</ele>
        <time>2023-03-04T09:22:17.000Z</time>
      </trkpt>
      <trkpt lat="43.52581" lon="6.67057">
        <ele>373.9</ele>
        <time>2023-03-04T09:22:18.000Z</time>
      </trkpt>
      <trkpt lat="43.52581" lon="6.67053">
        <ele>373.2</ele>
        <time>2023-03-04T09:22:20.000Z</time>
      </trkpt>
      <trkpt lat="43.52581" lon="6.67052">
        <ele>373</ele>
        <time>2023-03-04T09:22:21.000Z</time>
      </trkpt>
      <trkpt lat="43.52581" lon="6.67048">
        <ele>372.3</ele>
        <time>2023-03-04T09:22:22.000Z</time>
      </trkpt>
      <trkpt lat="43.52581" lon="6.67047">
        <ele>372</ele>
        <time>2023-03-04T09:22:23.000Z</time>
      </trkpt>
      <trkpt lat="43.52581" lon="6.67045">
        <ele>371.7</ele>
        <time>2023-03-04T09:22:24.000Z</time>
      </trkpt>
      <trkpt lat="43.52581" lon="6.67044">
        <ele>371.6</ele>
        <time>2023-03-04T09:22:25.000Z</time>
      </trkpt>
      <trkpt lat="43.52581" lon="6.67043">
        <ele>371.3</ele>
        <time>2023-03-04T09:22:27.000Z</time>
      </trkpt>
      <trkpt lat="43.52581" lon="6.6704">
        <ele>370.8</ele>
        <time>2023-03-04T09:22:28.000Z</time>
      </trkpt>
      <trkpt lat="43.52581" lon="6.67039">
        <ele>370.4</ele>
        <time>2023-03-04T09:22:29.000Z</time>
      </trkpt>
      <trkpt lat="43.52581" lon="6.67036">
        <ele>369.8</ele>
        <time>2023-03-04T09:22:30.000Z</time>
      </trkpt>
      <trkpt lat="43.5258" lon="6.67035">
        <ele>369.6</ele>
        <time>2023-03-04T09:22:31.000Z</time>
      </trkpt>
      <trkpt lat="43.5258" lon="6.67034">
        <ele>369.4</ele>
        <time>2023-03-04T09:22:32.000Z</time>
      </trkpt>
      <trkpt lat="43.5258" lon="6.67032">
        <ele>369</ele>
        <time>2023-03-04T09:22:33.000Z</time>
      </trkpt>
      <trkpt lat="43.52579" lon="6.67031">
        <ele>368.7</ele>
        <time>2023-03-04T09:22:34.000Z</time>
      </trkpt>
      <trkpt lat="43.52578" lon="6.6703">
        <ele>368.3</ele>
        <time>2023-03-04T09:22:35.000Z</time>
      </trkpt>
      <trkpt lat="43.52578" lon="6.67026">
        <ele>367.5</ele>
        <time>2023-03-04T09:22:37.000Z</time>
      </trkpt>
      <trkpt lat="43.52579" lon="6.67025">
        <ele>367.3</ele>
        <time>2023-03-04T09:22:39.000Z</time>
      </trkpt>
      <trkpt lat="43.52579" lon="6.67024">
        <ele>367.1</ele>
        <time>2023-03-04T09:22:40.000Z</time>
      </trkpt>
      <trkpt lat="43.5258" lon="6.67023">
        <ele>366.9</ele>
        <time>2023-03-04T09:22:42.000Z</time>
      </trkpt>
      <trkpt lat="43.5258" lon="6.67023">
        <ele>366.7</ele>
        <time>2023-03-04T09:22:43.000Z</time>
      </trkpt>
      <trkpt lat="43.52581" lon="6.67022">
        <ele>366.4</ele>
        <time>2023-03-04T09:22:44.000Z</time>
      </trkpt>
      <trkpt lat="43.52581" lon="6.6702">
        <ele>366</ele>
        <time>2023-03-04T09:22:45.000Z</time>
      </trkpt>
      <trkpt lat="43.52581" lon="6.67018">
        <ele>365.6</ele>
        <time>2023-03-04T09:22:46.000Z</time>
      </trkpt>
      <trkpt lat="43.52582" lon="6.67017">
        <ele>365.3</ele>
        <time>2023-03-04T09:22:47.000Z</time>
      </trkpt>
      <trkpt lat="43.52583" lon="6.67016">
        <ele>364.9</ele>
        <time>2023-03-04T09:22:48.000Z</time>
      </trkpt>
      <trkpt lat="43.52584" lon="6.67015">
        <ele>364.5</ele>
        <time>2023-03-04T09:22:50.000Z</time>
      </trkpt>
      <trkpt lat="43.52585" lon="6.67014">
        <ele>364.2</ele>
        <time>2023-03-04T09:22:51.000Z</time>
      </trkpt>
      <trkpt lat="43.52586" lon="6.67012">
        <ele>363.7</ele>
        <time>2023-03-04T09:22:52.000Z</time>
      </trkpt>
      <trkpt lat="43.52586" lon="6.6701">
        <ele>363.5</ele>
        <time>2023-03-04T09:22:53.000Z</time>
      </trkpt>
      <trkpt lat="43.52586" lon="6.67009">
        <ele>363.1</ele>
        <time>2023-03-04T09:22:54.000Z</time>
      </trkpt>
      <trkpt lat="43.52587" lon="6.67007">
        <ele>362.8</ele>
        <time>2023-03-04T09:22:55.000Z</time>
      </trkpt>
      <trkpt lat="43.52587" lon="6.67006">
        <ele>362.5</ele>
        <time>2023-03-04T09:22:57.000Z</time>
      </trkpt>
      <trkpt lat="43.52588" lon="6.67005">
        <ele>362.3</ele>
        <time>2023-03-04T09:22:58.000Z</time>
      </trkpt>
      <trkpt lat="43.52588" lon="6.67005">
        <ele>362.1</ele>
        <time>2023-03-04T09:22:59.000Z</time>
      </trkpt>
      <trkpt lat="43.52589" lon="6.67004">
        <ele>362</ele>
        <time>2023-03-04T09:23:00.000Z</time>
      </trkpt>
      <trkpt lat="43.52589" lon="6.67003">
        <ele>361.8</ele>
        <time>2023-03-04T09:23:01.000Z</time>
      </trkpt>
      <trkpt lat="43.5259" lon="6.67002">
        <ele>361.5</ele>
        <time>2023-03-04T09:23:02.000Z</time>
      </trkpt>
      <trkpt lat="43.5259" lon="6.67001">
        <ele>361.2</ele>
        <time>2023-03-04T09:23:03.000Z</time>
      </trkpt>
      <trkpt lat="43.52591" lon="6.66999">
        <ele>360.9</ele>
        <time>2023-03-04T09:23:05.000Z</time>
      </trkpt>
      <trkpt lat="43.52591" lon="6.66999">
        <ele>360.8</ele>
        <time>2023-03-04T09:23:06.000Z</time>
      </trkpt>
      <trkpt lat="43.52592" lon="6.66998">
        <ele>360.6</ele>
        <time>2023-03-04T09:23:07.000Z</time>
      </trkpt>
      <trkpt lat="43.52591" lon="6.66997">
        <ele>360.4</ele>
        <time>2023-03-04T09:23:08.000Z</time>
      </trkpt>
      <trkpt lat="43.52591" lon="6.66995">
        <ele>360.1</ele>
        <time>2023-03-04T09:23:09.000Z</time>
      </trkpt>
      <trkpt lat="43.52592" lon="6.66994">
        <ele>359.8</ele>
        <time>2023-03-04T09:23:11.000Z</time>
      </trkpt>
      <trkpt lat="43.52593" lon="6.66992">
        <ele>359.4</ele>
        <time>2023-03-04T09:23:12.000Z</time>
      </trkpt>
      <trkpt lat="43.52593" lon="6.66988">
        <ele>358.9</ele>
        <time>2023-03-04T09:23:13.000Z</time>
      </trkpt>
      <trkpt lat="43.52594" lon="6.66988">
        <ele>358.7</ele>
        <time>2023-03-04T09:23:15.000Z</time>
      </trkpt>
      <trkpt lat="43.52594" lon="6.66987">
        <ele>358.6</ele>
        <time>2023-03-04T09:23:16.000Z</time>
      </trkpt>
      <trkpt lat="43.52595" lon="6.66985">
        <ele>358.2</ele>
        <time>2023-03-04T09:23:17.000Z</time>
      </trkpt>
      <trkpt lat="43.52596" lon="6.66984">
        <ele>358</ele>
        <time>2023-03-04T09:23:18.000Z</time>
      </trkpt>
      <trkpt lat="43.52597" lon="6.66984">
        <ele>357.8</ele>
        <time>2023-03-04T09:23:19.000Z</time>
      </trkpt>
      <trkpt lat="43.52598" lon="6.66981">
        <ele>357.5</ele>
        <time>2023-03-04T09:23:20.000Z</time>
      </trkpt>
      <trkpt lat="43.52598" lon="6.6698">
        <ele>357.3</ele>
        <time>2023-03-04T09:23:21.000Z</time>
      </trkpt>
      <trkpt lat="43.52599" lon="6.66979">
        <ele>357.1</ele>
        <time>2023-03-04T09:23:22.000Z</time>
      </trkpt>
      <trkpt lat="43.52601" lon="6.66977">
        <ele>356.6</ele>
        <time>2023-03-04T09:23:23.000Z</time>
      </trkpt>
      <trkpt lat="43.52601" lon="6.66976">
        <ele>356.5</ele>
        <time>2023-03-04T09:23:25.000Z</time>
      </trkpt>
      <trkpt lat="43.52602" lon="6.66974">
        <ele>356.1</ele>
        <time>2023-03-04T09:23:26.000Z</time>
      </trkpt>
      <trkpt lat="43.52603" lon="6.66972">
        <ele>355.8</ele>
        <time>2023-03-04T09:23:27.000Z</time>
      </trkpt>
      <trkpt lat="43.52602" lon="6.66971">
        <ele>355.6</ele>
        <time>2023-03-04T09:23:28.000Z</time>
      </trkpt>
      <trkpt lat="43.52603" lon="6.6697">
        <ele>355.4</ele>
        <time>2023-03-04T09:23:29.000Z</time>
      </trkpt>
      <trkpt lat="43.52603" lon="6.66969">
        <ele>355.3</ele>
        <time>2023-03-04T09:23:30.000Z</time>
      </trkpt>
      <trkpt lat="43.52603" lon="6.66967">
        <ele>354.9</ele>
        <time>2023-03-04T09:23:32.000Z</time>
      </trkpt>
      <trkpt lat="43.52604" lon="6.66965">
        <ele>354.7</ele>
        <time>2023-03-04T09:23:33.000Z</time>
      </trkpt>
      <trkpt lat="43.52604" lon="6.66965">
        <ele>354.5</ele>
        <time>2023-03-04T09:23:35.000Z</time>
      </trkpt>
      <trkpt lat="43.52605" lon="6.66963">
        <ele>354.3</ele>
        <time>2023-03-04T09:23:36.000Z</time>
      </trkpt>
      <trkpt lat="43.52606" lon="6.66962">
        <ele>354</ele>
        <time>2023-03-04T09:23:37.000Z</time>
      </trkpt>
      <trkpt lat="43.52607" lon="6.6696">
        <ele>353.6</ele>
        <time>2023-03-04T09:23:38.000Z</time>
      </trkpt>
      <trkpt lat="43.52608" lon="6.66958">
        <ele>353.3</ele>
        <time>2023-03-04T09:23:39.000Z</time>
      </trkpt>
      <trkpt lat="43.52609" lon="6.66957">
        <ele>353</ele>
        <time>2023-03-04T09:23:40.000Z</time>
      </trkpt>
      <trkpt lat="43.52609" lon="6.66955">
        <ele>352.6</ele>
        <time>2023-03-04T09:23:42.000Z</time>
      </trkpt>
      <trkpt lat="43.5261" lon="6.66952">
        <ele>352.2</ele>
        <time>2023-03-04T09:23:43.000Z</time>
      </trkpt>
      <trkpt lat="43.5261" lon="6.6695">
        <ele>351.8</ele>
        <time>2023-03-04T09:23:44.000Z</time>
      </trkpt>
      <trkpt lat="43.5261" lon="6.66948">
        <ele>351.5</ele>
        <time>2023-03-04T09:23:45.000Z</time>
      </trkpt>
      <trkpt lat="43.5261" lon="6.66944">
        <ele>350.9</ele>
        <time>2023-03-04T09:23:46.000Z</time>
      </trkpt>
      <trkpt lat="43.5261" lon="6.66943">
        <ele>350.6</ele>
        <time>2023-03-04T09:23:47.000Z</time>
      </trkpt>
      <trkpt lat="43.52612" lon="6.6694">
        <ele>350</ele>
        <time>2023-03-04T09:23:48.000Z</time>
      </trkpt>
      <trkpt lat="43.52613" lon="6.66938">
        <ele>349.7</ele>
        <time>2023-03-04T09:23:50.000Z</time>
      </trkpt>
      <trkpt lat="43.52613" lon="6.66937">
        <ele>349.4</ele>
        <time>2023-03-04T09:23:51.000Z</time>
      </trkpt>
      <trkpt lat="43.52614" lon="6.66935">
        <ele>349</ele>
        <time>2023-03-04T09:23:52.000Z</time>
      </trkpt>
      <trkpt lat="43.52615" lon="6.66934">
        <ele>348.8</ele>
        <time>2023-03-04T09:23:53.000Z</time>
      </trkpt>
      <trkpt lat="43.52615" lon="6.66933">
        <ele>348.5</ele>
        <time>2023-03-04T09:23:54.000Z</time>
      </trkpt>
      <trkpt lat="43.52616" lon="6.66931">
        <ele>348.2</ele>
        <time>2023-03-04T09:23:56.000Z</time>
      </trkpt>
      <trkpt lat="43.52616" lon="6.6693">
        <ele>348.1</ele>
        <time>2023-03-04T09:23:57.000Z</time>
      </trkpt>
      <trkpt lat="43.52616" lon="6.6693">
        <ele>348</ele>
        <time>2023-03-04T09:23:58.000Z</time>
      </trkpt>
      <trkpt lat="43.52616" lon="6.6693">
        <ele>347.9</ele>
        <time>2023-03-04T09:24:00.000Z</time>
      </trkpt>
      <trkpt lat="43.52617" lon="6.66929">
        <ele>347.8</ele>
        <time>2023-03-04T09:24:01.000Z</time>
      </trkpt>
      <trkpt lat="43.52617" lon="6.66927">
        <ele>347.4</ele>
        <time>2023-03-04T09:24:03.000Z</time>
      </trkpt>
      <trkpt lat="43.52617" lon="6.66926">
        <ele>347.2</ele>
        <time>2023-03-04T09:24:04.000Z</time>
      </trkpt>
      <trkpt lat="43.52618" lon="6.66924">
        <ele>346.9</ele>
        <time>2023-03-04T09:24:05.000Z</time>
      </trkpt>
      <trkpt lat="43.52618" lon="6.66922">
        <ele>346.6</ele>
        <time>2023-03-04T09:24:06.000Z</time>
      </trkpt>
      <trkpt lat="43.52618" lon="6.66921">
        <ele>346.3</ele>
        <time>2023-03-04T09:24:07.000Z</time>
      </trkpt>
      <trkpt lat="43.52618" lon="6.66919">
        <ele>346</ele>
        <time>2023-03-04T09:24:08.000Z</time>
      </trkpt>
      <trkpt lat="43.52619" lon="6.66917">
        <ele>345.7</ele>
        <time>2023-03-04T09:24:10.000Z</time>
      </trkpt>
      <trkpt lat="43.5262" lon="6.66915">
        <ele>345.4</ele>
        <time>2023-03-04T09:24:11.000Z</time>
      </trkpt>
      <trkpt lat="43.5262" lon="6.66913">
        <ele>345.1</ele>
        <time>2023-03-04T09:24:12.000Z</time>
      </trkpt>
      <trkpt lat="43.52621" lon="6.6691">
        <ele>344.5</ele>
        <time>2023-03-04T09:24:13.000Z</time>
      </trkpt>
      <trkpt lat="43.52621" lon="6.66908">
        <ele>344.2</ele>
        <time>2023-03-04T09:24:15.000Z</time>
      </trkpt>
      <trkpt lat="43.52622" lon="6.66906">
        <ele>343.9</ele>
        <time>2023-03-04T09:24:16.000Z</time>
      </trkpt>
      <trkpt lat="43.52622" lon="6.66905">
        <ele>343.7</ele>
        <time>2023-03-04T09:24:17.000Z</time>
      </trkpt>
      <trkpt lat="43.52623" lon="6.66903">
        <ele>343.4</ele>
        <time>2023-03-04T09:24:18.000Z</time>
      </trkpt>
      <trkpt lat="43.52624" lon="6.66901">
        <ele>343.1</ele>
        <time>2023-03-04T09:24:20.000Z</time>
      </trkpt>
      <trkpt lat="43.52624" lon="6.66899">
        <ele>342.8</ele>
        <time>2023-03-04T09:24:21.000Z</time>
      </trkpt>
      <trkpt lat="43.52624" lon="6.66897">
        <ele>342.5</ele>
        <time>2023-03-04T09:24:22.000Z</time>
      </trkpt>
      <trkpt lat="43.52625" lon="6.66895">
        <ele>342.2</ele>
        <time>2023-03-04T09:24:23.000Z</time>
      </trkpt>
      <trkpt lat="43.52624" lon="6.66893">
        <ele>341.9</ele>
        <time>2023-03-04T09:24:24.000Z</time>
      </trkpt>
      <trkpt lat="43.52624" lon="6.66888">
        <ele>341.3</ele>
        <time>2023-03-04T09:24:25.000Z</time>
      </trkpt>
      <trkpt lat="43.52624" lon="6.66887">
        <ele>341.2</ele>
        <time>2023-03-04T09:24:26.000Z</time>
      </trkpt>
      <trkpt lat="43.52623" lon="6.66882">
        <ele>340.6</ele>
        <time>2023-03-04T09:24:28.000Z</time>
      </trkpt>
      <trkpt lat="43.52623" lon="6.66878">
        <ele>340.2</ele>
        <time>2023-03-04T09:24:29.000Z</time>
      </trkpt>
      <trkpt lat="43.52623" lon="6.66874">
        <ele>339.7</ele>
        <time>2023-03-04T09:24:30.000Z</time>
      </trkpt>
      <trkpt lat="43.52623" lon="6.66868">
        <ele>339.2</ele>
        <time>2023-03-04T09:24:32.000Z</time>
      </trkpt>
      <trkpt lat="43.52622" lon="6.66861">
        <ele>338.7</ele>
        <time>2023-03-04T09:24:33.000Z</time>
      </trkpt>
      <trkpt lat="43.52622" lon="6.66855">
        <ele>338.3</ele>
        <time>2023-03-04T09:24:34.000Z</time>
      </trkpt>
      <trkpt lat="43.52622" lon="6.66849">
        <ele>337.9</ele>
        <time>2023-03-04T09:24:35.000Z</time>
      </trkpt>
      <trkpt lat="43.52621" lon="6.66842">
        <ele>337.6</ele>
        <time>2023-03-04T09:24:36.000Z</time>
      </trkpt>
      <trkpt lat="43.52621" lon="6.66836">
        <ele>337.4</ele>
        <time>2023-03-04T09:24:37.000Z</time>
      </trkpt>
      <trkpt lat="43.5262" lon="6.6683">
        <ele>337.2</ele>
        <time>2023-03-04T09:24:38.000Z</time>
      </trkpt>
      <trkpt lat="43.52619" lon="6.66825">
        <ele>337</ele>
        <time>2023-03-04T09:24:39.000Z</time>
      </trkpt>
      <trkpt lat="43.52619" lon="6.66819">
        <ele>336.9</ele>
        <time>2023-03-04T09:24:41.000Z</time>
      </trkpt>
      <trkpt lat="43.52619" lon="6.66812">
        <ele>336.7</ele>
        <time>2023-03-04T09:24:42.000Z</time>
      </trkpt>
      <trkpt lat="43.5262" lon="6.66806">
        <ele>336.5</ele>
        <time>2023-03-04T09:24:43.000Z</time>
      </trkpt>
      <trkpt lat="43.5262" lon="6.668">
        <ele>336.3</ele>
        <time>2023-03-04T09:24:44.000Z</time>
      </trkpt>
      <trkpt lat="43.52621" lon="6.66795">
        <ele>336.1</ele>
        <time>2023-03-04T09:24:45.000Z</time>
      </trkpt>
      <trkpt lat="43.52621" lon="6.6679">
        <ele>335.9</ele>
        <time>2023-03-04T09:24:47.000Z</time>
      </trkpt>
      <trkpt lat="43.52621" lon="6.66789">
        <ele>335.8</ele>
        <time>2023-03-04T09:24:48.000Z</time>
      </trkpt>
      <trkpt lat="43.5262" lon="6.66784">
        <ele>335.4</ele>
        <time>2023-03-04T09:24:49.000Z</time>
      </trkpt>
      <trkpt lat="43.5262" lon="6.66782">
        <ele>335.3</ele>
        <time>2023-03-04T09:24:50.000Z</time>
      </trkpt>
      <trkpt lat="43.52619" lon="6.66778">
        <ele>334.9</ele>
        <time>2023-03-04T09:24:51.000Z</time>
      </trkpt>
      <trkpt lat="43.52619" lon="6.66777">
        <ele>334.8</ele>
        <time>2023-03-04T09:24:52.000Z</time>
      </trkpt>
      <trkpt lat="43.52619" lon="6.66772">
        <ele>334.3</ele>
        <time>2023-03-04T09:24:54.000Z</time>
      </trkpt>
      <trkpt lat="43.52619" lon="6.6677">
        <ele>334.2</ele>
        <time>2023-03-04T09:24:55.000Z</time>
      </trkpt>
      <trkpt lat="43.52618" lon="6.66765">
        <ele>333.7</ele>
        <time>2023-03-04T09:24:56.000Z</time>
      </trkpt>
      <trkpt lat="43.52618" lon="6.66764">
        <ele>333.6</ele>
        <time>2023-03-04T09:24:57.000Z</time>
      </trkpt>
      <trkpt lat="43.52617" lon="6.66759">
        <ele>333</ele>
        <time>2023-03-04T09:24:58.000Z</time>
      </trkpt>
      <trkpt lat="43.52616" lon="6.66757">
        <ele>332.7</ele>
        <time>2023-03-04T09:24:59.000Z</time>
      </trkpt>
      <trkpt lat="43.52616" lon="6.66752">
        <ele>332.1</ele>
        <time>2023-03-04T09:25:01.000Z</time>
      </trkpt>
      <trkpt lat="43.52615" lon="6.66748">
        <ele>331.6</ele>
        <time>2023-03-04T09:25:02.000Z</time>
      </trkpt>
      <trkpt lat="43.52614" lon="6.66744">
        <ele>331.1</ele>
        <time>2023-03-04T09:25:03.000Z</time>
      </trkpt>
      <trkpt lat="43.52612" lon="6.6674">
        <ele>330.6</ele>
        <time>2023-03-04T09:25:04.000Z</time>
      </trkpt>
      <trkpt lat="43.52609" lon="6.66736">
        <ele>329.9</ele>
        <time>2023-03-04T09:25:05.000Z</time>
      </trkpt>
      <trkpt lat="43.52608" lon="6.66734">
        <ele>329.6</ele>
        <time>2023-03-04T09:25:06.000Z</time>
      </trkpt>
      <trkpt lat="43.52606" lon="6.6673">
        <ele>329.2</ele>
        <time>2023-03-04T09:25:07.000Z</time>
      </trkpt>
      <trkpt lat="43.52607" lon="6.66728">
        <ele>328.5</ele>
        <time>2023-03-04T09:25:08.000Z</time>
      </trkpt>
      <trkpt lat="43.52609" lon="6.66726">
        <ele>328.3</ele>
        <time>2023-03-04T09:25:10.000Z</time>
      </trkpt>
      <trkpt lat="43.52609" lon="6.66727">
        <ele>328.3</ele>
        <time>2023-03-04T09:25:11.000Z</time>
      </trkpt>
      <trkpt lat="43.52608" lon="6.66727">
        <ele>328.2</ele>
        <time>2023-03-04T09:25:13.000Z</time>
      </trkpt>
      <trkpt lat="43.52608" lon="6.66727">
        <ele>328.2</ele>
        <time>2023-03-04T09:25:14.000Z</time>
      </trkpt>
      <trkpt lat="43.52608" lon="6.66727">
        <ele>328.2</ele>
        <time>2023-03-04T09:25:15.000Z</time>
      </trkpt>
      <trkpt lat="43.52608" lon="6.66727">
        <ele>328.2</ele>
        <time>2023-03-04T09:25:17.000Z</time>
      </trkpt>
      <trkpt lat="43.52608" lon="6.66727">
        <ele>328.2</ele>
        <time>2023-03-04T09:25:18.000Z</time>
      </trkpt>
      <trkpt lat="43.52608" lon="6.66727">
        <ele>328.2</ele>
        <time>2023-03-04T09:25:20.000Z</time>
      </trkpt>
      <trkpt lat="43.52605" lon="6.66728">
        <ele>327.9</ele>
        <time>2023-03-04T09:28:03.000Z</time>
      </trkpt>
      <trkpt lat="43.52603" lon="6.66729">
        <ele>327.7</ele>
        <time>2023-03-04T09:28:04.000Z</time>
      </trkpt>
      <trkpt lat="43.52603" lon="6.66729">
        <ele>327.7</ele>
        <time>2023-03-04T09:28:05.000Z</time>
      </trkpt>
      <trkpt lat="43.52603" lon="6.66729">
        <ele>327.6</ele>
        <time>2023-03-04T09:28:06.000Z</time>
      </trkpt>
      <trkpt lat="43.52603" lon="6.66729">
        <ele>327.6</ele>
        <time>2023-03-04T09:28:08.000Z</time>
      </trkpt>
      <trkpt lat="43.52603" lon="6.66729">
        <ele>327.6</ele>
        <time>2023-03-04T09:28:09.000Z</time>
      </trkpt>
      <trkpt lat="43.52603" lon="6.66728">
        <ele>327.6</ele>
        <time>2023-03-04T09:28:10.000Z</time>
      </trkpt>
      <trkpt lat="43.52602" lon="6.66728">
        <ele>327.6</ele>
        <time>2023-03-04T09:28:12.000Z</time>
      </trkpt>
      <trkpt lat="43.52602" lon="6.66728">
        <ele>327.5</ele>
        <time>2023-03-04T09:28:13.000Z</time>
      </trkpt>
      <trkpt lat="43.52602" lon="6.66728">
        <ele>327.5</ele>
        <time>2023-03-04T09:28:15.000Z</time>
      </trkpt>
      <trkpt lat="43.52599" lon="6.6673">
        <ele>327.2</ele>
        <time>2023-03-04T09:28:29.000Z</time>
      </trkpt>
      <trkpt lat="43.52598" lon="6.66731">
        <ele>327</ele>
        <time>2023-03-04T09:28:30.000Z</time>
      </trkpt>
      <trkpt lat="43.52597" lon="6.66731">
        <ele>326.9</ele>
        <time>2023-03-04T09:28:31.000Z</time>
      </trkpt>
      <trkpt lat="43.52593" lon="6.66735">
        <ele>326.3</ele>
        <time>2023-03-04T09:28:32.000Z</time>
      </trkpt>
      <trkpt lat="43.52589" lon="6.66737">
        <ele>325.7</ele>
        <time>2023-03-04T09:28:34.000Z</time>
      </trkpt>
      <trkpt lat="43.52583" lon="6.66741">
        <ele>324.9</ele>
        <time>2023-03-04T09:28:35.000Z</time>
      </trkpt>
      <trkpt lat="43.52578" lon="6.66744">
        <ele>324.2</ele>
        <time>2023-03-04T09:28:36.000Z</time>
      </trkpt>
      <trkpt lat="43.52574" lon="6.66746">
        <ele>323.5</ele>
        <time>2023-03-04T09:28:37.000Z</time>
      </trkpt>
      <trkpt lat="43.52567" lon="6.66751">
        <ele>322.4</ele>
        <time>2023-03-04T09:28:38.000Z</time>
      </trkpt>
      <trkpt lat="43.52562" lon="6.66753">
        <ele>321.8</ele>
        <time>2023-03-04T09:28:39.000Z</time>
      </trkpt>
      <trkpt lat="43.52558" lon="6.66756">
        <ele>321.2</ele>
        <time>2023-03-04T09:28:41.000Z</time>
      </trkpt>
      <trkpt lat="43.5255" lon="6.66761">
        <ele>320</ele>
        <time>2023-03-04T09:28:42.000Z</time>
      </trkpt>
      <trkpt lat="43.52546" lon="6.66763">
        <ele>319.4</ele>
        <time>2023-03-04T09:28:44.000Z</time>
      </trkpt>
      <trkpt lat="43.52544" lon="6.66764">
        <ele>319.1</ele>
        <time>2023-03-04T09:28:45.000Z</time>
      </trkpt>
      <trkpt lat="43.52544" lon="6.66763">
        <ele>319</ele>
        <time>2023-03-04T09:28:46.000Z</time>
      </trkpt>
      <trkpt lat="43.52545" lon="6.66763">
        <ele>318.9</ele>
        <time>2023-03-04T09:28:48.000Z</time>
      </trkpt>
      <trkpt lat="43.52545" lon="6.66764">
        <ele>318.8</ele>
        <time>2023-03-04T09:28:49.000Z</time>
      </trkpt>
      <trkpt lat="43.52545" lon="6.66764">
        <ele>318.8</ele>
        <time>2023-03-04T09:28:51.000Z</time>
      </trkpt>
      <trkpt lat="43.52545" lon="6.66764">
        <ele>318.8</ele>
        <time>2023-03-04T09:28:52.000Z</time>
      </trkpt>
      <trkpt lat="43.52545" lon="6.66765">
        <ele>318.7</ele>
        <time>2023-03-04T09:28:54.000Z</time>
      </trkpt>
      <trkpt lat="43.52545" lon="6.66766">
        <ele>318.6</ele>
        <time>2023-03-04T09:28:55.000Z</time>
      </trkpt>
      <trkpt lat="43.52544" lon="6.66767">
        <ele>318.5</ele>
        <time>2023-03-04T09:28:56.000Z</time>
      </trkpt>
      <trkpt lat="43.52543" lon="6.66767">
        <ele>318.4</ele>
        <time>2023-03-04T09:28:58.000Z</time>
      </trkpt>
      <trkpt lat="43.52543" lon="6.66766">
        <ele>318.3</ele>
        <time>2023-03-04T09:28:59.000Z</time>
      </trkpt>
      <trkpt lat="43.52543" lon="6.66766">
        <ele>318.3</ele>
        <time>2023-03-04T09:29:00.000Z</time>
      </trkpt>
      <trkpt lat="43.52542" lon="6.66766">
        <ele>318.2</ele>
        <time>2023-03-04T09:29:02.000Z</time>
      </trkpt>
      <trkpt lat="43.52542" lon="6.66765">
        <ele>318.2</ele>
        <time>2023-03-04T09:29:03.000Z</time>
      </trkpt>
      <trkpt lat="43.52542" lon="6.66765">
        <ele>318.2</ele>
        <time>2023-03-04T09:29:05.000Z</time>
      </trkpt>
      <trkpt lat="43.52543" lon="6.66765">
        <ele>318.1</ele>
        <time>2023-03-04T09:29:06.000Z</time>
      </trkpt>
      <trkpt lat="43.52543" lon="6.66765">
        <ele>318.1</ele>
        <time>2023-03-04T09:29:07.000Z</time>
      </trkpt>
      <trkpt lat="43.52543" lon="6.66765">
        <ele>318</ele>
        <time>2023-03-04T09:29:08.000Z</time>
      </trkpt>
      <trkpt lat="43.52537" lon="6.66767">
        <ele>317.3</ele>
        <time>2023-03-04T09:34:28.000Z</time>
      </trkpt>
      <trkpt lat="43.52537" lon="6.66768">
        <ele>317.3</ele>
        <time>2023-03-04T09:34:29.000Z</time>
      </trkpt>
      <trkpt lat="43.52536" lon="6.66769">
        <ele>317.1</ele>
        <time>2023-03-04T09:34:30.000Z</time>
      </trkpt>
      <trkpt lat="43.52534" lon="6.6677">
        <ele>316.9</ele>
        <time>2023-03-04T09:34:32.000Z</time>
      </trkpt>
      <trkpt lat="43.52531" lon="6.66771">
        <ele>316.6</ele>
        <time>2023-03-04T09:34:33.000Z</time>
      </trkpt>
      <trkpt lat="43.52527" lon="6.66773">
        <ele>316.2</ele>
        <time>2023-03-04T09:34:35.000Z</time>
      </trkpt>
      <trkpt lat="43.52526" lon="6.66774">
        <ele>316.1</ele>
        <time>2023-03-04T09:34:36.000Z</time>
      </trkpt>
      <trkpt lat="43.52523" lon="6.66776">
        <ele>315.8</ele>
        <time>2023-03-04T09:34:37.000Z</time>
      </trkpt>
      <trkpt lat="43.5252" lon="6.66779">
        <ele>315.5</ele>
        <time>2023-03-04T09:34:38.000Z</time>
      </trkpt>
      <trkpt lat="43.52517" lon="6.66781">
        <ele>315.2</ele>
        <time>2023-03-04T09:34:39.000Z</time>
      </trkpt>
      <trkpt lat="43.52514" lon="6.66784">
        <ele>314.8</ele>
        <time>2023-03-04T09:34:40.000Z</time>
      </trkpt>
      <trkpt lat="43.5251" lon="6.66787">
        <ele>314.4</ele>
        <time>2023-03-04T09:34:42.000Z</time>
      </trkpt>
      <trkpt lat="43.52507" lon="6.66789">
        <ele>314</ele>
        <time>2023-03-04T09:34:43.000Z</time>
      </trkpt>
      <trkpt lat="43.52504" lon="6.66791">
        <ele>313.6</ele>
        <time>2023-03-04T09:34:44.000Z</time>
      </trkpt>
      <trkpt lat="43.52501" lon="6.66792">
        <ele>313.3</ele>
        <time>2023-03-04T09:34:45.000Z</time>
      </trkpt>
      <trkpt lat="43.52498" lon="6.66794">
        <ele>312.9</ele>
        <time>2023-03-04T09:34:46.000Z</time>
      </trkpt>
      <trkpt lat="43.52493" lon="6.66797">
        <ele>312.2</ele>
        <time>2023-03-04T09:34:48.000Z</time>
      </trkpt>
      <trkpt lat="43.52489" lon="6.668">
        <ele>311.7</ele>
        <time>2023-03-04T09:34:49.000Z</time>
      </trkpt>
      <trkpt lat="43.52486" lon="6.66801">
        <ele>311.3</ele>
        <time>2023-03-04T09:34:50.000Z</time>
      </trkpt>
      <trkpt lat="43.52482" lon="6.66803">
        <ele>310.9</ele>
        <time>2023-03-04T09:34:52.000Z</time>
      </trkpt>
      <trkpt lat="43.52478" lon="6.66805">
        <ele>310.3</ele>
        <time>2023-03-04T09:34:53.000Z</time>
      </trkpt>
      <trkpt lat="43.52475" lon="6.66806">
        <ele>309.9</ele>
        <time>2023-03-04T09:34:54.000Z</time>
      </trkpt>
      <trkpt lat="43.52471" lon="6.66807">
        <ele>309.5</ele>
        <time>2023-03-04T09:34:55.000Z</time>
      </trkpt>
      <trkpt lat="43.52467" lon="6.66808">
        <ele>309.1</ele>
        <time>2023-03-04T09:34:56.000Z</time>
      </trkpt>
      <trkpt lat="43.52463" lon="6.66809">
        <ele>308.7</ele>
        <time>2023-03-04T09:34:57.000Z</time>
      </trkpt>
      <trkpt lat="43.52459" lon="6.6681">
        <ele>308.3</ele>
        <time>2023-03-04T09:34:58.000Z</time>
      </trkpt>
      <trkpt lat="43.52453" lon="6.66809">
        <ele>307.6</ele>
        <time>2023-03-04T09:34:59.000Z</time>
      </trkpt>
      <trkpt lat="43.52448" lon="6.66808">
        <ele>307</ele>
        <time>2023-03-04T09:35:00.000Z</time>
      </trkpt>
      <trkpt lat="43.52443" lon="6.66806">
        <ele>306.4</ele>
        <time>2023-03-04T09:35:01.000Z</time>
      </trkpt>
      <trkpt lat="43.52436" lon="6.66803">
        <ele>305.6</ele>
        <time>2023-03-04T09:35:03.000Z</time>
      </trkpt>
      <trkpt lat="43.52431" lon="6.66796">
        <ele>304.8</ele>
        <time>2023-03-04T09:35:04.000Z</time>
      </trkpt>
      <trkpt lat="43.52427" lon="6.6679">
        <ele>304.2</ele>
        <time>2023-03-04T09:35:05.000Z</time>
      </trkpt>
      <trkpt lat="43.52421" lon="6.66785">
        <ele>303.6</ele>
        <time>2023-03-04T09:35:06.000Z</time>
      </trkpt>
      <trkpt lat="43.52415" lon="6.66779">
        <ele>302.8</ele>
        <time>2023-03-04T09:35:07.000Z</time>
      </trkpt>
      <trkpt lat="43.5241" lon="6.66775">
        <ele>302.2</ele>
        <time>2023-03-04T09:35:08.000Z</time>
      </trkpt>
      <trkpt lat="43.52406" lon="6.66771">
        <ele>301.7</ele>
        <time>2023-03-04T09:35:09.000Z</time>
      </trkpt>
      <trkpt lat="43.524" lon="6.66768">
        <ele>301.2</ele>
        <time>2023-03-04T09:35:10.000Z</time>
      </trkpt>
      <trkpt lat="43.52395" lon="6.66764">
        <ele>300.6</ele>
        <time>2023-03-04T09:35:11.000Z</time>
      </trkpt>
      <trkpt lat="43.52388" lon="6.66762">
        <ele>300.1</ele>
        <time>2023-03-04T09:35:12.000Z</time>
      </trkpt>
      <trkpt lat="43.52382" lon="6.66762">
        <ele>299.6</ele>
        <time>2023-03-04T09:35:13.000Z</time>
      </trkpt>
      <trkpt lat="43.52375" lon="6.66762">
        <ele>299.1</ele>
        <time>2023-03-04T09:35:14.000Z</time>
      </trkpt>
      <trkpt lat="43.52368" lon="6.66763">
        <ele>298.5</ele>
        <time>2023-03-04T09:35:15.000Z</time>
      </trkpt>
      <trkpt lat="43.52361" lon="6.66765">
        <ele>298</ele>
        <time>2023-03-04T09:35:16.000Z</time>
      </trkpt>
      <trkpt lat="43.52355" lon="6.6677">
        <ele>297.4</ele>
        <time>2023-03-04T09:35:17.000Z</time>
      </trkpt>
      <trkpt lat="43.52349" lon="6.66777">
        <ele>296.8</ele>
        <time>2023-03-04T09:35:18.000Z</time>
      </trkpt>
      <trkpt lat="43.52343" lon="6.66784">
        <ele>296.1</ele>
        <time>2023-03-04T09:35:19.000Z</time>
      </trkpt>
      <trkpt lat="43.52337" lon="6.66791">
        <ele>295.4</ele>
        <time>2023-03-04T09:35:20.000Z</time>
      </trkpt>
      <trkpt lat="43.52331" lon="6.66795">
        <ele>294.8</ele>
        <time>2023-03-04T09:35:21.000Z</time>
      </trkpt>
      <trkpt lat="43.52324" lon="6.66795">
        <ele>294.1</ele>
        <time>2023-03-04T09:35:22.000Z</time>
      </trkpt>
      <trkpt lat="43.52317" lon="6.66794">
        <ele>293.5</ele>
        <time>2023-03-04T09:35:23.000Z</time>
      </trkpt>
      <trkpt lat="43.52312" lon="6.6679">
        <ele>292.9</ele>
        <time>2023-03-04T09:35:24.000Z</time>
      </trkpt>
      <trkpt lat="43.52307" lon="6.66784">
        <ele>292.4</ele>
        <time>2023-03-04T09:35:25.000Z</time>
      </trkpt>
      <trkpt lat="43.52302" lon="6.66778">
        <ele>291.9</ele>
        <time>2023-03-04T09:35:26.000Z</time>
      </trkpt>
      <trkpt lat="43.52298" lon="6.6677">
        <ele>291.4</ele>
        <time>2023-03-04T09:35:27.000Z</time>
      </trkpt>
      <trkpt lat="43.52293" lon="6.66762">
        <ele>291</ele>
        <time>2023-03-04T09:35:28.000Z</time>
      </trkpt>
      <trkpt lat="43.52289" lon="6.66755">
        <ele>290.6</ele>
        <time>2023-03-04T09:35:29.000Z</time>
      </trkpt>
      <trkpt lat="43.52284" lon="6.66747">
        <ele>290.1</ele>
        <time>2023-03-04T09:35:30.000Z</time>
      </trkpt>
      <trkpt lat="43.52279" lon="6.6674">
        <ele>289.7</ele>
        <time>2023-03-04T09:35:31.000Z</time>
      </trkpt>
      <trkpt lat="43.52273" lon="6.66733">
        <ele>289.2</ele>
        <time>2023-03-04T09:35:32.000Z</time>
      </trkpt>
      <trkpt lat="43.52268" lon="6.66726">
        <ele>288.7</ele>
        <time>2023-03-04T09:35:33.000Z</time>
      </trkpt>
      <trkpt lat="43.52262" lon="6.66718">
        <ele>288.1</ele>
        <time>2023-03-04T09:35:34.000Z</time>
      </trkpt>
      <trkpt lat="43.52257" lon="6.6671">
        <ele>287.4</ele>
        <time>2023-03-04T09:35:35.000Z</time>
      </trkpt>
      <trkpt lat="43.52251" lon="6.66703">
        <ele>286.8</ele>
        <time>2023-03-04T09:35:36.000Z</time>
      </trkpt>
      <trkpt lat="43.52244" lon="6.66695">
        <ele>286.1</ele>
        <time>2023-03-04T09:35:37.000Z</time>
      </trkpt>
      <trkpt lat="43.52238" lon="6.66687">
        <ele>285.4</ele>
        <time>2023-03-04T09:35:38.000Z</time>
      </trkpt>
      <trkpt lat="43.52231" lon="6.66681">
        <ele>284.8</ele>
        <time>2023-03-04T09:35:39.000Z</time>
      </trkpt>
      <trkpt lat="43.52225" lon="6.66674">
        <ele>284.1</ele>
        <time>2023-03-04T09:35:40.000Z</time>
      </trkpt>
      <trkpt lat="43.52221" lon="6.66666">
        <ele>283.5</ele>
        <time>2023-03-04T09:35:41.000Z</time>
      </trkpt>
      <trkpt lat="43.52216" lon="6.66659">
        <ele>282.8</ele>
        <time>2023-03-04T09:35:42.000Z</time>
      </trkpt>
      <trkpt lat="43.5221" lon="6.66652">
        <ele>282.1</ele>
        <time>2023-03-04T09:35:43.000Z</time>
      </trkpt>
      <trkpt lat="43.52205" lon="6.66646">
        <ele>281.3</ele>
        <time>2023-03-04T09:35:44.000Z</time>
      </trkpt>
      <trkpt lat="43.52199" lon="6.66641">
        <ele>280.5</ele>
        <time>2023-03-04T09:35:45.000Z</time>
      </trkpt>
      <trkpt lat="43.52193" lon="6.66638">
        <ele>279.7</ele>
        <time>2023-03-04T09:35:46.000Z</time>
      </trkpt>
      <trkpt lat="43.52185" lon="6.66638">
        <ele>278.8</ele>
        <time>2023-03-04T09:35:47.000Z</time>
      </trkpt>
      <trkpt lat="43.52177" lon="6.6664">
        <ele>277.9</ele>
        <time>2023-03-04T09:35:48.000Z</time>
      </trkpt>
      <trkpt lat="43.52169" lon="6.66644">
        <ele>277.1</ele>
        <time>2023-03-04T09:35:49.000Z</time>
      </trkpt>
      <trkpt lat="43.52161" lon="6.66649">
        <ele>276.5</ele>
        <time>2023-03-04T09:35:50.000Z</time>
      </trkpt>
      <trkpt lat="43.52154" lon="6.66653">
        <ele>275.9</ele>
        <time>2023-03-04T09:35:51.000Z</time>
      </trkpt>
      <trkpt lat="43.52147" lon="6.66657">
        <ele>275.4</ele>
        <time>2023-03-04T09:35:52.000Z</time>
      </trkpt>
      <trkpt lat="43.52141" lon="6.66664">
        <ele>275</ele>
        <time>2023-03-04T09:35:53.000Z</time>
      </trkpt>
      <trkpt lat="43.52135" lon="6.66671">
        <ele>274.6</ele>
        <time>2023-03-04T09:35:54.000Z</time>
      </trkpt>
      <trkpt lat="43.5213" lon="6.66678">
        <ele>274.2</ele>
        <time>2023-03-04T09:35:55.000Z</time>
      </trkpt>
      <trkpt lat="43.52125" lon="6.66685">
        <ele>273.7</ele>
        <time>2023-03-04T09:35:56.000Z</time>
      </trkpt>
      <trkpt lat="43.5212" lon="6.66692">
        <ele>273.2</ele>
        <time>2023-03-04T09:35:57.000Z</time>
      </trkpt>
      <trkpt lat="43.52116" lon="6.66698">
        <ele>272.6</ele>
        <time>2023-03-04T09:35:58.000Z</time>
      </trkpt>
      <trkpt lat="43.52112" lon="6.66704">
        <ele>272</ele>
        <time>2023-03-04T09:35:59.000Z</time>
      </trkpt>
      <trkpt lat="43.52107" lon="6.66708">
        <ele>271.5</ele>
        <time>2023-03-04T09:36:00.000Z</time>
      </trkpt>
      <trkpt lat="43.52102" lon="6.66711">
        <ele>270.9</ele>
        <time>2023-03-04T09:36:01.000Z</time>
      </trkpt>
      <trkpt lat="43.52097" lon="6.66712">
        <ele>270.3</ele>
        <time>2023-03-04T09:36:02.000Z</time>
      </trkpt>
      <trkpt lat="43.52092" lon="6.6671">
        <ele>269.7</ele>
        <time>2023-03-04T09:36:03.000Z</time>
      </trkpt>
      <trkpt lat="43.52086" lon="6.66706">
        <ele>269</ele>
        <time>2023-03-04T09:36:04.000Z</time>
      </trkpt>
      <trkpt lat="43.52081" lon="6.667">
        <ele>268.2</ele>
        <time>2023-03-04T09:36:05.000Z</time>
      </trkpt>
      <trkpt lat="43.52076" lon="6.66694">
        <ele>267.5</ele>
        <time>2023-03-04T09:36:06.000Z</time>
      </trkpt>
      <trkpt lat="43.5207" lon="6.66687">
        <ele>266.7</ele>
        <time>2023-03-04T09:36:07.000Z</time>
      </trkpt>
      <trkpt lat="43.52064" lon="6.66681">
        <ele>265.9</ele>
        <time>2023-03-04T09:36:08.000Z</time>
      </trkpt>
      <trkpt lat="43.52059" lon="6.66675">
        <ele>265.1</ele>
        <time>2023-03-04T09:36:09.000Z</time>
      </trkpt>
      <trkpt lat="43.52053" lon="6.66669">
        <ele>264.3</ele>
        <time>2023-03-04T09:36:10.000Z</time>
      </trkpt>
      <trkpt lat="43.52047" lon="6.66663">
        <ele>263.4</ele>
        <time>2023-03-04T09:36:11.000Z</time>
      </trkpt>
      <trkpt lat="43.52041" lon="6.66658">
        <ele>262.6</ele>
        <time>2023-03-04T09:36:12.000Z</time>
      </trkpt>
      <trkpt lat="43.52034" lon="6.66653">
        <ele>261.7</ele>
        <time>2023-03-04T09:36:13.000Z</time>
      </trkpt>
      <trkpt lat="43.52028" lon="6.66647">
        <ele>260.9</ele>
        <time>2023-03-04T09:36:14.000Z</time>
      </trkpt>
      <trkpt lat="43.52022" lon="6.66641">
        <ele>260.2</ele>
        <time>2023-03-04T09:36:15.000Z</time>
      </trkpt>
      <trkpt lat="43.52016" lon="6.66636">
        <ele>259.5</ele>
        <time>2023-03-04T09:36:16.000Z</time>
      </trkpt>
      <trkpt lat="43.52009" lon="6.6663">
        <ele>258.9</ele>
        <time>2023-03-04T09:36:17.000Z</time>
      </trkpt>
      <trkpt lat="43.52002" lon="6.66624">
        <ele>258.2</ele>
        <time>2023-03-04T09:36:18.000Z</time>
      </trkpt>
      <trkpt lat="43.51996" lon="6.66619">
        <ele>257.6</ele>
        <time>2023-03-04T09:36:19.000Z</time>
      </trkpt>
      <trkpt lat="43.51988" lon="6.66615">
        <ele>256.9</ele>
        <time>2023-03-04T09:36:20.000Z</time>
      </trkpt>
      <trkpt lat="43.5198" lon="6.66614">
        <ele>256</ele>
        <time>2023-03-04T09:36:21.000Z</time>
      </trkpt>
      <trkpt lat="43.51972" lon="6.66613">
        <ele>255.1</ele>
        <time>2023-03-04T09:36:22.000Z</time>
      </trkpt>
      <trkpt lat="43.51964" lon="6.66613">
        <ele>254.2</ele>
        <time>2023-03-04T09:36:23.000Z</time>
      </trkpt>
      <trkpt lat="43.51955" lon="6.66615">
        <ele>253.3</ele>
        <time>2023-03-04T09:36:24.000Z</time>
      </trkpt>
      <trkpt lat="43.51946" lon="6.66617">
        <ele>252.5</ele>
        <time>2023-03-04T09:36:25.000Z</time>
      </trkpt>
      <trkpt lat="43.51939" lon="6.6662">
        <ele>251.8</ele>
        <time>2023-03-04T09:36:26.000Z</time>
      </trkpt>
      <trkpt lat="43.51932" lon="6.66622">
        <ele>251.2</ele>
        <time>2023-03-04T09:36:27.000Z</time>
      </trkpt>
      <trkpt lat="43.51927" lon="6.66623">
        <ele>250.8</ele>
        <time>2023-03-04T09:36:28.000Z</time>
      </trkpt>
      <trkpt lat="43.51923" lon="6.66621">
        <ele>250.4</ele>
        <time>2023-03-04T09:36:29.000Z</time>
      </trkpt>
      <trkpt lat="43.5192" lon="6.66617">
        <ele>250.1</ele>
        <time>2023-03-04T09:36:30.000Z</time>
      </trkpt>
      <trkpt lat="43.5192" lon="6.66612">
        <ele>249.9</ele>
        <time>2023-03-04T09:36:31.000Z</time>
      </trkpt>
      <trkpt lat="43.5192" lon="6.66607">
        <ele>249.6</ele>
        <time>2023-03-04T09:36:32.000Z</time>
      </trkpt>
      <trkpt lat="43.51922" lon="6.66602">
        <ele>249.3</ele>
        <time>2023-03-04T09:36:33.000Z</time>
      </trkpt>
      <trkpt lat="43.51924" lon="6.66597">
        <ele>249</ele>
        <time>2023-03-04T09:36:34.000Z</time>
      </trkpt>
      <trkpt lat="43.51926" lon="6.66593">
        <ele>248.7</ele>
        <time>2023-03-04T09:36:35.000Z</time>
      </trkpt>
      <trkpt lat="43.51927" lon="6.66589">
        <ele>248.6</ele>
        <time>2023-03-04T09:36:36.000Z</time>
      </trkpt>
      <trkpt lat="43.51928" lon="6.66584">
        <ele>248.3</ele>
        <time>2023-03-04T09:36:37.000Z</time>
      </trkpt>
      <trkpt lat="43.51928" lon="6.66583">
        <ele>248.3</ele>
        <time>2023-03-04T09:36:38.000Z</time>
      </trkpt>
      <trkpt lat="43.51929" lon="6.66578">
        <ele>248</ele>
        <time>2023-03-04T09:36:40.000Z</time>
      </trkpt>
      <trkpt lat="43.51931" lon="6.66573">
        <ele>247.8</ele>
        <time>2023-03-04T09:36:41.000Z</time>
      </trkpt>
      <trkpt lat="43.51932" lon="6.66567">
        <ele>247.5</ele>
        <time>2023-03-04T09:36:42.000Z</time>
      </trkpt>
      <trkpt lat="43.51933" lon="6.66563">
        <ele>247.3</ele>
        <time>2023-03-04T09:36:43.000Z</time>
      </trkpt>
      <trkpt lat="43.51933" lon="6.66558">
        <ele>247.1</ele>
        <time>2023-03-04T09:36:44.000Z</time>
      </trkpt>
      <trkpt lat="43.5193" lon="6.66552">
        <ele>246.8</ele>
        <time>2023-03-04T09:36:45.000Z</time>
      </trkpt>
      <trkpt lat="43.51925" lon="6.66549">
        <ele>246.4</ele>
        <time>2023-03-04T09:36:47.000Z</time>
      </trkpt>
      <trkpt lat="43.5192" lon="6.66548">
        <ele>246.4</ele>
        <time>2023-03-04T09:36:48.000Z</time>
      </trkpt>
      <trkpt lat="43.51915" lon="6.66551">
        <ele>246.4</ele>
        <time>2023-03-04T09:36:49.000Z</time>
      </trkpt>
      <trkpt lat="43.51913" lon="6.66553">
        <ele>246.4</ele>
        <time>2023-03-04T09:36:50.000Z</time>
      </trkpt>
      <trkpt lat="43.5191" lon="6.66554">
        <ele>246.4</ele>
        <time>2023-03-04T09:36:51.000Z</time>
      </trkpt>
      <trkpt lat="43.51906" lon="6.66554">
        <ele>246.4</ele>
        <time>2023-03-04T09:36:52.000Z</time>
      </trkpt>
      <trkpt lat="43.51902" lon="6.66552">
        <ele>246.4</ele>
        <time>2023-03-04T09:36:53.000Z</time>
      </trkpt>
      <trkpt lat="43.519" lon="6.66549">
        <ele>246.4</ele>
        <time>2023-03-04T09:36:54.000Z</time>
      </trkpt>
      <trkpt lat="43.51899" lon="6.66543">
        <ele>246.4</ele>
        <time>2023-03-04T09:36:56.000Z</time>
      </trkpt>
      <trkpt lat="43.51899" lon="6.66541">
        <ele>246.1</ele>
        <time>2023-03-04T09:36:57.000Z</time>
      </trkpt>
      <trkpt lat="43.51901" lon="6.6654">
        <ele>245.9</ele>
        <time>2023-03-04T09:36:59.000Z</time>
      </trkpt>
      <trkpt lat="43.51901" lon="6.66539">
        <ele>245.9</ele>
        <time>2023-03-04T09:37:00.000Z</time>
      </trkpt>
      <trkpt lat="43.51902" lon="6.66537">
        <ele>245.7</ele>
        <time>2023-03-04T09:37:01.000Z</time>
      </trkpt>
      <trkpt lat="43.51902" lon="6.66537">
        <ele>245.7</ele>
        <time>2023-03-04T09:37:02.000Z</time>
      </trkpt>
      <trkpt lat="43.51902" lon="6.66536">
        <ele>245.6</ele>
        <time>2023-03-04T09:37:03.000Z</time>
      </trkpt>
      <trkpt lat="43.51902" lon="6.66536">
        <ele>245.6</ele>
        <time>2023-03-04T09:37:05.000Z</time>
      </trkpt>
      <trkpt lat="43.51903" lon="6.66536">
        <ele>245.5</ele>
        <time>2023-03-04T09:37:06.000Z</time>
      </trkpt>
      <trkpt lat="43.51903" lon="6.66536">
        <ele>245.5</ele>
        <time>2023-03-04T09:37:07.000Z</time>
      </trkpt>
      <trkpt lat="43.51903" lon="6.66535">
        <ele>245.5</ele>
        <time>2023-03-04T09:37:08.000Z</time>
      </trkpt>
      <trkpt lat="43.51903" lon="6.66535">
        <ele>245.4</ele>
        <time>2023-03-04T09:37:10.000Z</time>
      </trkpt>
      <trkpt lat="43.51902" lon="6.66533">
        <ele>245.2</ele>
        <time>2023-03-04T09:37:11.000Z</time>
      </trkpt>
      <trkpt lat="43.51902" lon="6.66532">
        <ele>245.1</ele>
        <time>2023-03-04T09:37:12.000Z</time>
      </trkpt>
      <trkpt lat="43.51901" lon="6.66531">
        <ele>245.1</ele>
        <time>2023-03-04T09:37:13.000Z</time>
      </trkpt>
      <trkpt lat="43.51901" lon="6.66531">
        <ele>245</ele>
        <time>2023-03-04T09:37:14.000Z</time>
      </trkpt>
      <trkpt lat="43.51901" lon="6.66531">
        <ele>245</ele>
        <time>2023-03-04T09:37:16.000Z</time>
      </trkpt>
      <trkpt lat="43.51901" lon="6.6653">
        <ele>245</ele>
        <time>2023-03-04T09:37:17.000Z</time>
      </trkpt>
      <trkpt lat="43.51902" lon="6.66528">
        <ele>244.8</ele>
        <time>2023-03-04T09:37:19.000Z</time>
      </trkpt>
      <trkpt lat="43.51904" lon="6.66525">
        <ele>244.4</ele>
        <time>2023-03-04T09:37:20.000Z</time>
      </trkpt>
      <trkpt lat="43.51906" lon="6.66521">
        <ele>244.1</ele>
        <time>2023-03-04T09:37:21.000Z</time>
      </trkpt>
      <trkpt lat="43.51909" lon="6.66517">
        <ele>243.6</ele>
        <time>2023-03-04T09:37:23.000Z</time>
      </trkpt>
      <trkpt lat="43.51911" lon="6.66513">
        <ele>243.2</ele>
        <time>2023-03-04T09:37:24.000Z</time>
      </trkpt>
      <trkpt lat="43.51914" lon="6.66509">
        <ele>242.8</ele>
        <time>2023-03-04T09:37:25.000Z</time>
      </trkpt>
      <trkpt lat="43.51918" lon="6.66506">
        <ele>242.4</ele>
        <time>2023-03-04T09:37:26.000Z</time>
      </trkpt>
      <trkpt lat="43.51922" lon="6.66503">
        <ele>241.9</ele>
        <time>2023-03-04T09:37:27.000Z</time>
      </trkpt>
      <trkpt lat="43.51927" lon="6.665">
        <ele>241.5</ele>
        <time>2023-03-04T09:37:28.000Z</time>
      </trkpt>
      <trkpt lat="43.51931" lon="6.66497">
        <ele>241.1</ele>
        <time>2023-03-04T09:37:29.000Z</time>
      </trkpt>
      <trkpt lat="43.51936" lon="6.66495">
        <ele>240.7</ele>
        <time>2023-03-04T09:37:30.000Z</time>
      </trkpt>
      <trkpt lat="43.51941" lon="6.66493">
        <ele>240.3</ele>
        <time>2023-03-04T09:37:31.000Z</time>
      </trkpt>
      <trkpt lat="43.51946" lon="6.66491">
        <ele>240</ele>
        <time>2023-03-04T09:37:33.000Z</time>
      </trkpt>
      <trkpt lat="43.5195" lon="6.66487">
        <ele>239.6</ele>
        <time>2023-03-04T09:37:34.000Z</time>
      </trkpt>
      <trkpt lat="43.51953" lon="6.6648">
        <ele>239.6</ele>
        <time>2023-03-04T09:37:35.000Z</time>
      </trkpt>
      <trkpt lat="43.51954" lon="6.66474">
        <ele>239.5</ele>
        <time>2023-03-04T09:37:36.000Z</time>
      </trkpt>
      <trkpt lat="43.51952" lon="6.66468">
        <ele>239.5</ele>
        <time>2023-03-04T09:37:38.000Z</time>
      </trkpt>
      <trkpt lat="43.51951" lon="6.66463">
        <ele>239.5</ele>
        <time>2023-03-04T09:37:39.000Z</time>
      </trkpt>
      <trkpt lat="43.51949" lon="6.66463">
        <ele>239.5</ele>
        <time>2023-03-04T09:37:41.000Z</time>
      </trkpt>
      <trkpt lat="43.51948" lon="6.66464">
        <ele>239.5</ele>
        <time>2023-03-04T09:37:42.000Z</time>
      </trkpt>
      <trkpt lat="43.51947" lon="6.66465">
        <ele>239.4</ele>
        <time>2023-03-04T09:37:44.000Z</time>
      </trkpt>
      <trkpt lat="43.51947" lon="6.66465">
        <ele>239.4</ele>
        <time>2023-03-04T09:37:45.000Z</time>
      </trkpt>
      <trkpt lat="43.51946" lon="6.66466">
        <ele>239.4</ele>
        <time>2023-03-04T09:37:47.000Z</time>
      </trkpt>
      <trkpt lat="43.51946" lon="6.66467">
        <ele>239.4</ele>
        <time>2023-03-04T09:37:48.000Z</time>
      </trkpt>
      <trkpt lat="43.51946" lon="6.66467">
        <ele>239.4</ele>
        <time>2023-03-04T09:37:49.000Z</time>
      </trkpt>
      <trkpt lat="43.51946" lon="6.66468">
        <ele>239.4</ele>
        <time>2023-03-04T09:37:51.000Z</time>
      </trkpt>
      <trkpt lat="43.51944" lon="6.66464">
        <ele>239.4</ele>
        <time>2023-03-04T09:38:08.000Z</time>
      </trkpt>
      <trkpt lat="43.51943" lon="6.66459">
        <ele>239.4</ele>
        <time>2023-03-04T09:38:10.000Z</time>
      </trkpt>
      <trkpt lat="43.51942" lon="6.66455">
        <ele>239.4</ele>
        <time>2023-03-04T09:38:11.000Z</time>
      </trkpt>
      <trkpt lat="43.51942" lon="6.6645">
        <ele>239.4</ele>
        <time>2023-03-04T09:38:12.000Z</time>
      </trkpt>
      <trkpt lat="43.51942" lon="6.66445">
        <ele>239.5</ele>
        <time>2023-03-04T09:38:13.000Z</time>
      </trkpt>
      <trkpt lat="43.51942" lon="6.66441">
        <ele>239.5</ele>
        <time>2023-03-04T09:38:14.000Z</time>
      </trkpt>
      <trkpt lat="43.51943" lon="6.66434">
        <ele>239.5</ele>
        <time>2023-03-04T09:38:16.000Z</time>
      </trkpt>
      <trkpt lat="43.51944" lon="6.66429">
        <ele>239.5</ele>
        <time>2023-03-04T09:38:17.000Z</time>
      </trkpt>
      <trkpt lat="43.51946" lon="6.66421">
        <ele>239.6</ele>
        <time>2023-03-04T09:38:18.000Z</time>
      </trkpt>
      <trkpt lat="43.51949" lon="6.66416">
        <ele>239.6</ele>
        <time>2023-03-04T09:38:19.000Z</time>
      </trkpt>
      <trkpt lat="43.51951" lon="6.66414">
        <ele>239.6</ele>
        <time>2023-03-04T09:38:20.000Z</time>
      </trkpt>
      <trkpt lat="43.51953" lon="6.66412">
        <ele>239.6</ele>
        <time>2023-03-04T09:38:21.000Z</time>
      </trkpt>
      <trkpt lat="43.51956" lon="6.6641">
        <ele>239.6</ele>
        <time>2023-03-04T09:38:23.000Z</time>
      </trkpt>
      <trkpt lat="43.51959" lon="6.66408">
        <ele>239.6</ele>
        <time>2023-03-04T09:38:24.000Z</time>
      </trkpt>
      <trkpt lat="43.51962" lon="6.66404">
        <ele>239.6</ele>
        <time>2023-03-04T09:38:25.000Z</time>
      </trkpt>
      <trkpt lat="43.51963" lon="6.66403">
        <ele>239.6</ele>
        <time>2023-03-04T09:38:26.000Z</time>
      </trkpt>
      <trkpt lat="43.51964" lon="6.66399">
        <ele>239.6</ele>
        <time>2023-03-04T09:38:27.000Z</time>
      </trkpt>
      <trkpt lat="43.51964" lon="6.66393">
        <ele>239.5</ele>
        <time>2023-03-04T09:38:28.000Z</time>
      </trkpt>
      <trkpt lat="43.5196" lon="6.66388">
        <ele>239.5</ele>
        <time>2023-03-04T09:38:30.000Z</time>
      </trkpt>
      <trkpt lat="43.51956" lon="6.66386">
        <ele>239.5</ele>
        <time>2023-03-04T09:38:31.000Z</time>
      </trkpt>
      <trkpt lat="43.51952" lon="6.66385">
        <ele>239.4</ele>
        <time>2023-03-04T09:38:32.000Z</time>
      </trkpt>
      <trkpt lat="43.51947" lon="6.66385">
        <ele>239.4</ele>
        <time>2023-03-04T09:38:34.000Z</time>
      </trkpt>
      <trkpt lat="43.51942" lon="6.66386">
        <ele>239.4</ele>
        <time>2023-03-04T09:38:35.000Z</time>
      </trkpt>
      <trkpt lat="43.51938" lon="6.66386">
        <ele>239.4</ele>
        <time>2023-03-04T09:38:36.000Z</time>
      </trkpt>
      <trkpt lat="43.51933" lon="6.66387">
        <ele>239.4</ele>
        <time>2023-03-04T09:38:37.000Z</time>
      </trkpt>
      <trkpt lat="43.51929" lon="6.66387">
        <ele>239.4</ele>
        <time>2023-03-04T09:38:38.000Z</time>
      </trkpt>
      <trkpt lat="43.51924" lon="6.66388">
        <ele>239.4</ele>
        <time>2023-03-04T09:38:40.000Z</time>
      </trkpt>
      <trkpt lat="43.5192" lon="6.66388">
        <ele>239.4</ele>
        <time>2023-03-04T09:38:41.000Z</time>
      </trkpt>
      <trkpt lat="43.51916" lon="6.66389">
        <ele>239.4</ele>
        <time>2023-03-04T09:38:42.000Z</time>
      </trkpt>
      <trkpt lat="43.51913" lon="6.66389">
        <ele>239.4</ele>
        <time>2023-03-04T09:38:43.000Z</time>
      </trkpt>
      <trkpt lat="43.51909" lon="6.6639">
        <ele>239.4</ele>
        <time>2023-03-04T09:38:44.000Z</time>
      </trkpt>
      <trkpt lat="43.51906" lon="6.6639">
        <ele>239.4</ele>
        <time>2023-03-04T09:38:45.000Z</time>
      </trkpt>
      <trkpt lat="43.51902" lon="6.66391">
        <ele>239.4</ele>
        <time>2023-03-04T09:38:47.000Z</time>
      </trkpt>
      <trkpt lat="43.51898" lon="6.66392">
        <ele>239.4</ele>
        <time>2023-03-04T09:38:48.000Z</time>
      </trkpt>
      <trkpt lat="43.51894" lon="6.66393">
        <ele>239.4</ele>
        <time>2023-03-04T09:38:49.000Z</time>
      </trkpt>
      <trkpt lat="43.51892" lon="6.66394">
        <ele>239.4</ele>
        <time>2023-03-04T09:38:50.000Z</time>
      </trkpt>
      <trkpt lat="43.51888" lon="6.66395">
        <ele>239.4</ele>
        <time>2023-03-04T09:38:51.000Z</time>
      </trkpt>
      <trkpt lat="43.51885" lon="6.66396">
        <ele>239.4</ele>
        <time>2023-03-04T09:38:52.000Z</time>
      </trkpt>
      <trkpt lat="43.51882" lon="6.66397">
        <ele>239.4</ele>
        <time>2023-03-04T09:38:54.000Z</time>
      </trkpt>
      <trkpt lat="43.51878" lon="6.66398">
        <ele>239.4</ele>
        <time>2023-03-04T09:38:55.000Z</time>
      </trkpt>
      <trkpt lat="43.51874" lon="6.66399">
        <ele>239.4</ele>
        <time>2023-03-04T09:38:56.000Z</time>
      </trkpt>
      <trkpt lat="43.51871" lon="6.66399">
        <ele>239.4</ele>
        <time>2023-03-04T09:38:57.000Z</time>
      </trkpt>
      <trkpt lat="43.51867" lon="6.66399">
        <ele>239.4</ele>
        <time>2023-03-04T09:38:58.000Z</time>
      </trkpt>
      <trkpt lat="43.51863" lon="6.66399">
        <ele>239.4</ele>
        <time>2023-03-04T09:38:59.000Z</time>
      </trkpt>
      <trkpt lat="43.51857" lon="6.66396">
        <ele>239.5</ele>
        <time>2023-03-04T09:39:01.000Z</time>
      </trkpt>
      <trkpt lat="43.51854" lon="6.66395">
        <ele>239.5</ele>
        <time>2023-03-04T09:39:02.000Z</time>
      </trkpt>
      <trkpt lat="43.51849" lon="6.66393">
        <ele>239.5</ele>
        <time>2023-03-04T09:39:04.000Z</time>
      </trkpt>
      <trkpt lat="43.51846" lon="6.66389">
        <ele>239.5</ele>
        <time>2023-03-04T09:39:05.000Z</time>
      </trkpt>
      <trkpt lat="43.51843" lon="6.66387">
        <ele>239.6</ele>
        <time>2023-03-04T09:39:06.000Z</time>
      </trkpt>
      <trkpt lat="43.51841" lon="6.66383">
        <ele>239.6</ele>
        <time>2023-03-04T09:39:08.000Z</time>
      </trkpt>
      <trkpt lat="43.51838" lon="6.66379">
        <ele>239.6</ele>
        <time>2023-03-04T09:39:09.000Z</time>
      </trkpt>
      <trkpt lat="43.51836" lon="6.66374">
        <ele>239.6</ele>
        <time>2023-03-04T09:39:10.000Z</time>
      </trkpt>
      <trkpt lat="43.51834" lon="6.6637">
        <ele>239.7</ele>
        <time>2023-03-04T09:39:11.000Z</time>
      </trkpt>
      <trkpt lat="43.51832" lon="6.66365">
        <ele>239.7</ele>
        <time>2023-03-04T09:39:12.000Z</time>
      </trkpt>
      <trkpt lat="43.5183" lon="6.6636">
        <ele>239.8</ele>
        <time>2023-03-04T09:39:13.000Z</time>
      </trkpt>
      <trkpt lat="43.51827" lon="6.66355">
        <ele>239.8</ele>
        <time>2023-03-04T09:39:14.000Z</time>
      </trkpt>
      <trkpt lat="43.51825" lon="6.6635">
        <ele>239.8</ele>
        <time>2023-03-04T09:39:16.000Z</time>
      </trkpt>
      <trkpt lat="43.51823" lon="6.66345">
        <ele>239.9</ele>
        <time>2023-03-04T09:39:17.000Z</time>
      </trkpt>
      <trkpt lat="43.51822" lon="6.66341">
        <ele>239.9</ele>
        <time>2023-03-04T09:39:18.000Z</time>
      </trkpt>
      <trkpt lat="43.5182" lon="6.66336">
        <ele>240</ele>
        <time>2023-03-04T09:39:19.000Z</time>
      </trkpt>
      <trkpt lat="43.51818" lon="6.6633">
        <ele>240</ele>
        <time>2023-03-04T09:39:20.000Z</time>
      </trkpt>
      <trkpt lat="43.51817" lon="6.66324">
        <ele>240.1</ele>
        <time>2023-03-04T09:39:21.000Z</time>
      </trkpt>
      <trkpt lat="43.51816" lon="6.6632">
        <ele>240.1</ele>
        <time>2023-03-04T09:39:22.000Z</time>
      </trkpt>
      <trkpt lat="43.51815" lon="6.66314">
        <ele>240.1</ele>
        <time>2023-03-04T09:39:23.000Z</time>
      </trkpt>
      <trkpt lat="43.51814" lon="6.66308">
        <ele>240.2</ele>
        <time>2023-03-04T09:39:24.000Z</time>
      </trkpt>
      <trkpt lat="43.51814" lon="6.66303">
        <ele>240.2</ele>
        <time>2023-03-04T09:39:25.000Z</time>
      </trkpt>
      <trkpt lat="43.51813" lon="6.66297">
        <ele>240.3</ele>
        <time>2023-03-04T09:39:27.000Z</time>
      </trkpt>
      <trkpt lat="43.51813" lon="6.66291">
        <ele>240.3</ele>
        <time>2023-03-04T09:39:28.000Z</time>
      </trkpt>
      <trkpt lat="43.51813" lon="6.66286">
        <ele>240.4</ele>
        <time>2023-03-04T09:39:29.000Z</time>
      </trkpt>
      <trkpt lat="43.51812" lon="6.66279">
        <ele>240.5</ele>
        <time>2023-03-04T09:39:30.000Z</time>
      </trkpt>
      <trkpt lat="43.51812" lon="6.66274">
        <ele>240.5</ele>
        <time>2023-03-04T09:39:31.000Z</time>
      </trkpt>
      <trkpt lat="43.51812" lon="6.66267">
        <ele>240.6</ele>
        <time>2023-03-04T09:39:32.000Z</time>
      </trkpt>
      <trkpt lat="43.51812" lon="6.66262">
        <ele>240.7</ele>
        <time>2023-03-04T09:39:33.000Z</time>
      </trkpt>
      <trkpt lat="43.51812" lon="6.66256">
        <ele>240.7</ele>
        <time>2023-03-04T09:39:35.000Z</time>
      </trkpt>
      <trkpt lat="43.51813" lon="6.66249">
        <ele>240.8</ele>
        <time>2023-03-04T09:39:36.000Z</time>
      </trkpt>
      <trkpt lat="43.51813" lon="6.66244">
        <ele>240.9</ele>
        <time>2023-03-04T09:39:37.000Z</time>
      </trkpt>
      <trkpt lat="43.51815" lon="6.66238">
        <ele>241</ele>
        <time>2023-03-04T09:39:38.000Z</time>
      </trkpt>
      <trkpt lat="43.51815" lon="6.66233">
        <ele>241.1</ele>
        <time>2023-03-04T09:39:39.000Z</time>
      </trkpt>
      <trkpt lat="43.51817" lon="6.66228">
        <ele>241.1</ele>
        <time>2023-03-04T09:39:40.000Z</time>
      </trkpt>
      <trkpt lat="43.51818" lon="6.66223">
        <ele>241.2</ele>
        <time>2023-03-04T09:39:41.000Z</time>
      </trkpt>
      <trkpt lat="43.51819" lon="6.66218">
        <ele>241.3</ele>
        <time>2023-03-04T09:39:42.000Z</time>
      </trkpt>
      <trkpt lat="43.51821" lon="6.66212">
        <ele>241.4</ele>
        <time>2023-03-04T09:39:44.000Z</time>
      </trkpt>
      <trkpt lat="43.51823" lon="6.66206">
        <ele>241.5</ele>
        <time>2023-03-04T09:39:45.000Z</time>
      </trkpt>
      <trkpt lat="43.51826" lon="6.66201">
        <ele>241.6</ele>
        <time>2023-03-04T09:39:46.000Z</time>
      </trkpt>
      <trkpt lat="43.51828" lon="6.66197">
        <ele>241.7</ele>
        <time>2023-03-04T09:39:47.000Z</time>
      </trkpt>
      <trkpt lat="43.5183" lon="6.66192">
        <ele>241.8</ele>
        <time>2023-03-04T09:39:48.000Z</time>
      </trkpt>
      <trkpt lat="43.51834" lon="6.66186">
        <ele>242</ele>
        <time>2023-03-04T09:39:49.000Z</time>
      </trkpt>
      <trkpt lat="43.51836" lon="6.66182">
        <ele>242.2</ele>
        <time>2023-03-04T09:39:50.000Z</time>
      </trkpt>
      <trkpt lat="43.51841" lon="6.66175">
        <ele>242.5</ele>
        <time>2023-03-04T09:39:52.000Z</time>
      </trkpt>
      <trkpt lat="43.51845" lon="6.66171">
        <ele>242.6</ele>
        <time>2023-03-04T09:39:53.000Z</time>
      </trkpt>
      <trkpt lat="43.51848" lon="6.66167">
        <ele>242.8</ele>
        <time>2023-03-04T09:39:54.000Z</time>
      </trkpt>
      <trkpt lat="43.51851" lon="6.66163">
        <ele>243</ele>
        <time>2023-03-04T09:39:56.000Z</time>
      </trkpt>
      <trkpt lat="43.51852" lon="6.66158">
        <ele>243.1</ele>
        <time>2023-03-04T09:39:57.000Z</time>
      </trkpt>
      <trkpt lat="43.51851" lon="6.66152">
        <ele>243.3</ele>
        <time>2023-03-04T09:39:58.000Z</time>
      </trkpt>
      <trkpt lat="43.51849" lon="6.66148">
        <ele>243.4</ele>
        <time>2023-03-04T09:39:59.000Z</time>
      </trkpt>
      <trkpt lat="43.51845" lon="6.66144">
        <ele>243.6</ele>
        <time>2023-03-04T09:40:00.000Z</time>
      </trkpt>
      <trkpt lat="43.5184" lon="6.66142">
        <ele>243.8</ele>
        <time>2023-03-04T09:40:02.000Z</time>
      </trkpt>
      <trkpt lat="43.51834" lon="6.66138">
        <ele>244</ele>
        <time>2023-03-04T09:40:03.000Z</time>
      </trkpt>
      <trkpt lat="43.5183" lon="6.66136">
        <ele>244.2</ele>
        <time>2023-03-04T09:40:04.000Z</time>
      </trkpt>
      <trkpt lat="43.51825" lon="6.66134">
        <ele>244.5</ele>
        <time>2023-03-04T09:40:06.000Z</time>
      </trkpt>
      <trkpt lat="43.51821" lon="6.66131">
        <ele>244.7</ele>
        <time>2023-03-04T09:40:07.000Z</time>
      </trkpt>
      <trkpt lat="43.51816" lon="6.66129">
        <ele>244.9</ele>
        <time>2023-03-04T09:40:08.000Z</time>
      </trkpt>
      <trkpt lat="43.51812" lon="6.66126">
        <ele>245.2</ele>
        <time>2023-03-04T09:40:09.000Z</time>
      </trkpt>
      <trkpt lat="43.51808" lon="6.66124">
        <ele>245.4</ele>
        <time>2023-03-04T09:40:10.000Z</time>
      </trkpt>
      <trkpt lat="43.51804" lon="6.66122">
        <ele>245.6</ele>
        <time>2023-03-04T09:40:11.000Z</time>
      </trkpt>
      <trkpt lat="43.51801" lon="6.6612">
        <ele>245.9</ele>
        <time>2023-03-04T09:40:12.000Z</time>
      </trkpt>
      <trkpt lat="43.51795" lon="6.66117">
        <ele>246.3</ele>
        <time>2023-03-04T09:40:14.000Z</time>
      </trkpt>
      <trkpt lat="43.51791" lon="6.66115">
        <ele>246.5</ele>
        <time>2023-03-04T09:40:15.000Z</time>
      </trkpt>
      <trkpt lat="43.51787" lon="6.66113">
        <ele>246.7</ele>
        <time>2023-03-04T09:40:16.000Z</time>
      </trkpt>
      <trkpt lat="43.51783" lon="6.66111">
        <ele>246.9</ele>
        <time>2023-03-04T09:40:18.000Z</time>
      </trkpt>
      <trkpt lat="43.5178" lon="6.66109">
        <ele>247.1</ele>
        <time>2023-03-04T09:40:19.000Z</time>
      </trkpt>
      <trkpt lat="43.51777" lon="6.66106">
        <ele>247.2</ele>
        <time>2023-03-04T09:40:20.000Z</time>
      </trkpt>
      <trkpt lat="43.51774" lon="6.66103">
        <ele>247.3</ele>
        <time>2023-03-04T09:40:21.000Z</time>
      </trkpt>
      <trkpt lat="43.51771" lon="6.66097">
        <ele>247.4</ele>
        <time>2023-03-04T09:40:22.000Z</time>
      </trkpt>
      <trkpt lat="43.51769" lon="6.66092">
        <ele>247.5</ele>
        <time>2023-03-04T09:40:23.000Z</time>
      </trkpt>
      <trkpt lat="43.51768" lon="6.66086">
        <ele>247.5</ele>
        <time>2023-03-04T09:40:24.000Z</time>
      </trkpt>
      <trkpt lat="43.51767" lon="6.6608">
        <ele>247.6</ele>
        <time>2023-03-04T09:40:25.000Z</time>
      </trkpt>
      <trkpt lat="43.51767" lon="6.66073">
        <ele>247.6</ele>
        <time>2023-03-04T09:40:27.000Z</time>
      </trkpt>
      <trkpt lat="43.51767" lon="6.66064">
        <ele>247.6</ele>
        <time>2023-03-04T09:40:28.000Z</time>
      </trkpt>
      <trkpt lat="43.51768" lon="6.66058">
        <ele>247.6</ele>
        <time>2023-03-04T09:40:29.000Z</time>
      </trkpt>
      <trkpt lat="43.5177" lon="6.66051">
        <ele>247.7</ele>
        <time>2023-03-04T09:40:31.000Z</time>
      </trkpt>
      <trkpt lat="43.51772" lon="6.66044">
        <ele>247.7</ele>
        <time>2023-03-04T09:40:32.000Z</time>
      </trkpt>
      <trkpt lat="43.51775" lon="6.66037">
        <ele>247.8</ele>
        <time>2023-03-04T09:40:33.000Z</time>
      </trkpt>
      <trkpt lat="43.51777" lon="6.66031">
        <ele>247.9</ele>
        <time>2023-03-04T09:40:34.000Z</time>
      </trkpt>
      <trkpt lat="43.51782" lon="6.66021">
        <ele>248.1</ele>
        <time>2023-03-04T09:40:35.000Z</time>
      </trkpt>
      <trkpt lat="43.51785" lon="6.66015">
        <ele>248.2</ele>
        <time>2023-03-04T09:40:36.000Z</time>
      </trkpt>
      <trkpt lat="43.51788" lon="6.6601">
        <ele>248.4</ele>
        <time>2023-03-04T09:40:37.000Z</time>
      </trkpt>
      <trkpt lat="43.5179" lon="6.66005">
        <ele>248.5</ele>
        <time>2023-03-04T09:40:38.000Z</time>
      </trkpt>
      <trkpt lat="43.51793" lon="6.66001">
        <ele>248.6</ele>
        <time>2023-03-04T09:40:39.000Z</time>
      </trkpt>
      <trkpt lat="43.51796" lon="6.65995">
        <ele>248.9</ele>
        <time>2023-03-04T09:40:41.000Z</time>
      </trkpt>
      <trkpt lat="43.518" lon="6.6599">
        <ele>249.1</ele>
        <time>2023-03-04T09:40:42.000Z</time>
      </trkpt>
      <trkpt lat="43.51804" lon="6.65984">
        <ele>249.4</ele>
        <time>2023-03-04T09:40:43.000Z</time>
      </trkpt>
      <trkpt lat="43.51809" lon="6.65979">
        <ele>249.7</ele>
        <time>2023-03-04T09:40:44.000Z</time>
      </trkpt>
      <trkpt lat="43.51814" lon="6.65975">
        <ele>249.9</ele>
        <time>2023-03-04T09:40:46.000Z</time>
      </trkpt>
      <trkpt lat="43.51816" lon="6.65972">
        <ele>250.1</ele>
        <time>2023-03-04T09:40:47.000Z</time>
      </trkpt>
      <trkpt lat="43.5182" lon="6.65967">
        <ele>250.4</ele>
        <time>2023-03-04T09:40:48.000Z</time>
      </trkpt>
      <trkpt lat="43.51825" lon="6.65963">
        <ele>250.7</ele>
        <time>2023-03-04T09:40:49.000Z</time>
      </trkpt>
      <trkpt lat="43.51829" lon="6.6596">
        <ele>250.9</ele>
        <time>2023-03-04T09:40:50.000Z</time>
      </trkpt>
      <trkpt lat="43.51833" lon="6.65956">
        <ele>251.2</ele>
        <time>2023-03-04T09:40:51.000Z</time>
      </trkpt>
      <trkpt lat="43.51837" lon="6.65954">
        <ele>251.4</ele>
        <time>2023-03-04T09:40:52.000Z</time>
      </trkpt>
      <trkpt lat="43.51842" lon="6.65952">
        <ele>251.7</ele>
        <time>2023-03-04T09:40:54.000Z</time>
      </trkpt>
      <trkpt lat="43.51847" lon="6.6595">
        <ele>252</ele>
        <time>2023-03-04T09:40:55.000Z</time>
      </trkpt>
      <trkpt lat="43.51852" lon="6.65947">
        <ele>252.2</ele>
        <time>2023-03-04T09:40:56.000Z</time>
      </trkpt>
      <trkpt lat="43.51856" lon="6.65943">
        <ele>252.5</ele>
        <time>2023-03-04T09:40:57.000Z</time>
      </trkpt>
      <trkpt lat="43.51861" lon="6.6594">
        <ele>252.8</ele>
        <time>2023-03-04T09:40:58.000Z</time>
      </trkpt>
      <trkpt lat="43.51865" lon="6.65937">
        <ele>253.1</ele>
        <time>2023-03-04T09:40:59.000Z</time>
      </trkpt>
      <trkpt lat="43.51869" lon="6.65935">
        <ele>253.4</ele>
        <time>2023-03-04T09:41:00.000Z</time>
      </trkpt>
      <trkpt lat="43.51873" lon="6.65931">
        <ele>253.8</ele>
        <time>2023-03-04T09:41:02.000Z</time>
      </trkpt>
      <trkpt lat="43.51877" lon="6.65928">
        <ele>254.2</ele>
        <time>2023-03-04T09:41:03.000Z</time>
      </trkpt>
      <trkpt lat="43.51882" lon="6.65924">
        <ele>254.6</ele>
        <time>2023-03-04T09:41:04.000Z</time>
      </trkpt>
      <trkpt lat="43.51886" lon="6.6592">
        <ele>255</ele>
        <time>2023-03-04T09:41:05.000Z</time>
      </trkpt>
      <trkpt lat="43.5189" lon="6.65917">
        <ele>255.4</ele>
        <time>2023-03-04T09:41:06.000Z</time>
      </trkpt>
      <trkpt lat="43.51893" lon="6.65914">
        <ele>255.7</ele>
        <time>2023-03-04T09:41:07.000Z</time>
      </trkpt>
      <trkpt lat="43.51897" lon="6.65911">
        <ele>256.2</ele>
        <time>2023-03-04T09:41:09.000Z</time>
      </trkpt>
      <trkpt lat="43.51901" lon="6.65908">
        <ele>256.5</ele>
        <time>2023-03-04T09:41:10.000Z</time>
      </trkpt>
      <trkpt lat="43.51905" lon="6.65905">
        <ele>257</ele>
        <time>2023-03-04T09:41:11.000Z</time>
      </trkpt>
      <trkpt lat="43.51909" lon="6.65902">
        <ele>257.5</ele>
        <time>2023-03-04T09:41:12.000Z</time>
      </trkpt>
      <trkpt lat="43.51914" lon="6.65898">
        <ele>258</ele>
        <time>2023-03-04T09:41:13.000Z</time>
      </trkpt>
      <trkpt lat="43.51917" lon="6.65895">
        <ele>258.5</ele>
        <time>2023-03-04T09:41:14.000Z</time>
      </trkpt>
      <trkpt lat="43.51921" lon="6.65892">
        <ele>259</ele>
        <time>2023-03-04T09:41:15.000Z</time>
      </trkpt>
      <trkpt lat="43.51924" lon="6.65889">
        <ele>259.5</ele>
        <time>2023-03-04T09:41:16.000Z</time>
      </trkpt>
      <trkpt lat="43.51927" lon="6.65887">
        <ele>260</ele>
        <time>2023-03-04T09:41:17.000Z</time>
      </trkpt>
      <trkpt lat="43.51931" lon="6.65883">
        <ele>260.6</ele>
        <time>2023-03-04T09:41:19.000Z</time>
      </trkpt>
      <trkpt lat="43.51934" lon="6.6588">
        <ele>261</ele>
        <time>2023-03-04T09:41:20.000Z</time>
      </trkpt>
      <trkpt lat="43.51937" lon="6.65878">
        <ele>261.5</ele>
        <time>2023-03-04T09:41:21.000Z</time>
      </trkpt>
      <trkpt lat="43.5194" lon="6.65875">
        <ele>261.9</ele>
        <time>2023-03-04T09:41:22.000Z</time>
      </trkpt>
      <trkpt lat="43.51943" lon="6.65873">
        <ele>262.2</ele>
        <time>2023-03-04T09:41:23.000Z</time>
      </trkpt>
      <trkpt lat="43.51947" lon="6.65868">
        <ele>262.7</ele>
        <time>2023-03-04T09:41:25.000Z</time>
      </trkpt>
      <trkpt lat="43.5195" lon="6.65865">
        <ele>263</ele>
        <time>2023-03-04T09:41:26.000Z</time>
      </trkpt>
      <trkpt lat="43.51954" lon="6.65863">
        <ele>263.2</ele>
        <time>2023-03-04T09:41:27.000Z</time>
      </trkpt>
      <trkpt lat="43.51957" lon="6.6586">
        <ele>263.4</ele>
        <time>2023-03-04T09:41:29.000Z</time>
      </trkpt>
      <trkpt lat="43.51961" lon="6.65855">
        <ele>263.5</ele>
        <time>2023-03-04T09:41:30.000Z</time>
      </trkpt>
      <trkpt lat="43.51964" lon="6.65851">
        <ele>263.6</ele>
        <time>2023-03-04T09:41:31.000Z</time>
      </trkpt>
      <trkpt lat="43.51967" lon="6.65847">
        <ele>263.7</ele>
        <time>2023-03-04T09:41:32.000Z</time>
      </trkpt>
      <trkpt lat="43.5197" lon="6.65843">
        <ele>263.7</ele>
        <time>2023-03-04T09:41:33.000Z</time>
      </trkpt>
      <trkpt lat="43.51973" lon="6.65839">
        <ele>263.6</ele>
        <time>2023-03-04T09:41:34.000Z</time>
      </trkpt>
      <trkpt lat="43.51979" lon="6.65835">
        <ele>263.3</ele>
        <time>2023-03-04T09:41:36.000Z</time>
      </trkpt>
      <trkpt lat="43.51985" lon="6.65833">
        <ele>263.1</ele>
        <time>2023-03-04T09:41:37.000Z</time>
      </trkpt>
      <trkpt lat="43.5199" lon="6.65831">
        <ele>262.9</ele>
        <time>2023-03-04T09:41:38.000Z</time>
      </trkpt>
      <trkpt lat="43.51995" lon="6.6583">
        <ele>262.8</ele>
        <time>2023-03-04T09:41:39.000Z</time>
      </trkpt>
      <trkpt lat="43.51999" lon="6.65828">
        <ele>262.7</ele>
        <time>2023-03-04T09:41:40.000Z</time>
      </trkpt>
      <trkpt lat="43.52003" lon="6.65828">
        <ele>262.7</ele>
        <time>2023-03-04T09:41:42.000Z</time>
      </trkpt>
      <trkpt lat="43.52009" lon="6.65826">
        <ele>262.7</ele>
        <time>2023-03-04T09:41:43.000Z</time>
      </trkpt>
      <trkpt lat="43.52012" lon="6.65827">
        <ele>262.7</ele>
        <time>2023-03-04T09:41:44.000Z</time>
      </trkpt>
      <trkpt lat="43.52016" lon="6.65828">
        <ele>262.8</ele>
        <time>2023-03-04T09:41:45.000Z</time>
      </trkpt>
      <trkpt lat="43.52016" lon="6.65828">
        <ele>262.8</ele>
        <time>2023-03-04T09:41:46.000Z</time>
      </trkpt>
      <trkpt lat="43.5202" lon="6.6583">
        <ele>262.9</ele>
        <time>2023-03-04T09:41:47.000Z</time>
      </trkpt>
      <trkpt lat="43.52021" lon="6.65831">
        <ele>262.9</ele>
        <time>2023-03-04T09:41:49.000Z</time>
      </trkpt>
      <trkpt lat="43.52022" lon="6.65832">
        <ele>262.9</ele>
        <time>2023-03-04T09:41:50.000Z</time>
      </trkpt>
      <trkpt lat="43.52023" lon="6.65833">
        <ele>263</ele>
        <time>2023-03-04T09:41:51.000Z</time>
      </trkpt>
      <trkpt lat="43.52025" lon="6.65834">
        <ele>263</ele>
        <time>2023-03-04T09:41:52.000Z</time>
      </trkpt>
      <trkpt lat="43.52028" lon="6.65835">
        <ele>263.1</ele>
        <time>2023-03-04T09:41:54.000Z</time>
      </trkpt>
      <trkpt lat="43.52031" lon="6.65836">
        <ele>263.2</ele>
        <time>2023-03-04T09:41:55.000Z</time>
      </trkpt>
      <trkpt lat="43.52034" lon="6.65838">
        <ele>263.2</ele>
        <time>2023-03-04T09:41:56.000Z</time>
      </trkpt>
      <trkpt lat="43.52038" lon="6.65839">
        <ele>263.3</ele>
        <time>2023-03-04T09:41:57.000Z</time>
      </trkpt>
      <trkpt lat="43.52039" lon="6.6584">
        <ele>263.3</ele>
        <time>2023-03-04T09:41:58.000Z</time>
      </trkpt>
      <trkpt lat="43.52041" lon="6.65841">
        <ele>263.3</ele>
        <time>2023-03-04T09:41:59.000Z</time>
      </trkpt>
      <trkpt lat="43.52045" lon="6.65842">
        <ele>263.3</ele>
        <time>2023-03-04T09:42:01.000Z</time>
      </trkpt>
      <trkpt lat="43.52048" lon="6.65844">
        <ele>263.2</ele>
        <time>2023-03-04T09:42:02.000Z</time>
      </trkpt>
      <trkpt lat="43.5205" lon="6.65844">
        <ele>263.2</ele>
        <time>2023-03-04T09:42:03.000Z</time>
      </trkpt>
      <trkpt lat="43.52053" lon="6.65845">
        <ele>263.1</ele>
        <time>2023-03-04T09:42:05.000Z</time>
      </trkpt>
      <trkpt lat="43.52057" lon="6.65846">
        <ele>262.9</ele>
        <time>2023-03-04T09:42:06.000Z</time>
      </trkpt>
      <trkpt lat="43.5206" lon="6.65847">
        <ele>262.6</ele>
        <time>2023-03-04T09:42:07.000Z</time>
      </trkpt>
      <trkpt lat="43.52064" lon="6.65847">
        <ele>262.4</ele>
        <time>2023-03-04T09:42:08.000Z</time>
      </trkpt>
      <trkpt lat="43.52067" lon="6.65849">
        <ele>262.1</ele>
        <time>2023-03-04T09:42:09.000Z</time>
      </trkpt>
      <trkpt lat="43.52072" lon="6.6585">
        <ele>261.6</ele>
        <time>2023-03-04T09:42:10.000Z</time>
      </trkpt>
      <trkpt lat="43.52076" lon="6.6585">
        <ele>261.2</ele>
        <time>2023-03-04T09:42:12.000Z</time>
      </trkpt>
      <trkpt lat="43.52083" lon="6.6585">
        <ele>260.5</ele>
        <time>2023-03-04T09:42:13.000Z</time>
      </trkpt>
      <trkpt lat="43.52092" lon="6.65849">
        <ele>259.4</ele>
        <time>2023-03-04T09:42:14.000Z</time>
      </trkpt>
      <trkpt lat="43.52098" lon="6.65849">
        <ele>258.7</ele>
        <time>2023-03-04T09:42:15.000Z</time>
      </trkpt>
      <trkpt lat="43.52103" lon="6.65848">
        <ele>258</ele>
        <time>2023-03-04T09:42:16.000Z</time>
      </trkpt>
      <trkpt lat="43.52109" lon="6.65846">
        <ele>257.3</ele>
        <time>2023-03-04T09:42:17.000Z</time>
      </trkpt>
      <trkpt lat="43.52116" lon="6.65844">
        <ele>256.6</ele>
        <time>2023-03-04T09:42:18.000Z</time>
      </trkpt>
      <trkpt lat="43.52123" lon="6.65841">
        <ele>256</ele>
        <time>2023-03-04T09:42:19.000Z</time>
      </trkpt>
      <trkpt lat="43.52129" lon="6.65839">
        <ele>255.4</ele>
        <time>2023-03-04T09:42:20.000Z</time>
      </trkpt>
      <trkpt lat="43.52135" lon="6.65835">
        <ele>254.7</ele>
        <time>2023-03-04T09:42:21.000Z</time>
      </trkpt>
      <trkpt lat="43.52142" lon="6.65831">
        <ele>253.7</ele>
        <time>2023-03-04T09:42:22.000Z</time>
      </trkpt>
      <trkpt lat="43.52149" lon="6.65826">
        <ele>252.8</ele>
        <time>2023-03-04T09:42:23.000Z</time>
      </trkpt>
      <trkpt lat="43.52155" lon="6.65819">
        <ele>251.9</ele>
        <time>2023-03-04T09:42:24.000Z</time>
      </trkpt>
      <trkpt lat="43.52161" lon="6.65811">
        <ele>250.9</ele>
        <time>2023-03-04T09:42:25.000Z</time>
      </trkpt>
      <trkpt lat="43.52167" lon="6.65802">
        <ele>249.9</ele>
        <time>2023-03-04T09:42:26.000Z</time>
      </trkpt>
      <trkpt lat="43.52174" lon="6.65794">
        <ele>248.9</ele>
        <time>2023-03-04T09:42:27.000Z</time>
      </trkpt>
      <trkpt lat="43.5218" lon="6.65786">
        <ele>248</ele>
        <time>2023-03-04T09:42:28.000Z</time>
      </trkpt>
      <trkpt lat="43.52186" lon="6.65779">
        <ele>247.2</ele>
        <time>2023-03-04T09:42:29.000Z</time>
      </trkpt>
      <trkpt lat="43.52192" lon="6.65773">
        <ele>246.4</ele>
        <time>2023-03-04T09:42:30.000Z</time>
      </trkpt>
      <trkpt lat="43.52199" lon="6.65767">
        <ele>245.6</ele>
        <time>2023-03-04T09:42:31.000Z</time>
      </trkpt>
      <trkpt lat="43.52207" lon="6.65763">
        <ele>244.7</ele>
        <time>2023-03-04T09:42:32.000Z</time>
      </trkpt>
      <trkpt lat="43.52214" lon="6.65758">
        <ele>243.8</ele>
        <time>2023-03-04T09:42:33.000Z</time>
      </trkpt>
      <trkpt lat="43.52221" lon="6.65752">
        <ele>242.8</ele>
        <time>2023-03-04T09:42:34.000Z</time>
      </trkpt>
      <trkpt lat="43.52228" lon="6.65745">
        <ele>241.9</ele>
        <time>2023-03-04T09:42:35.000Z</time>
      </trkpt>
      <trkpt lat="43.52235" lon="6.65737">
        <ele>241</ele>
        <time>2023-03-04T09:42:36.000Z</time>
      </trkpt>
      <trkpt lat="43.52241" lon="6.65729">
        <ele>240.1</ele>
        <time>2023-03-04T09:42:37.000Z</time>
      </trkpt>
      <trkpt lat="43.52247" lon="6.65721">
        <ele>239.4</ele>
        <time>2023-03-04T09:42:38.000Z</time>
      </trkpt>
      <trkpt lat="43.52254" lon="6.65715">
        <ele>238.6</ele>
        <time>2023-03-04T09:42:39.000Z</time>
      </trkpt>
      <trkpt lat="43.5226" lon="6.65709">
        <ele>237.9</ele>
        <time>2023-03-04T09:42:40.000Z</time>
      </trkpt>
      <trkpt lat="43.52268" lon="6.65701">
        <ele>237.2</ele>
        <time>2023-03-04T09:42:41.000Z</time>
      </trkpt>
      <trkpt lat="43.52275" lon="6.65694">
        <ele>236.6</ele>
        <time>2023-03-04T09:42:42.000Z</time>
      </trkpt>
      <trkpt lat="43.52283" lon="6.65686">
        <ele>235.9</ele>
        <time>2023-03-04T09:42:43.000Z</time>
      </trkpt>
      <trkpt lat="43.52291" lon="6.65678">
        <ele>235.3</ele>
        <time>2023-03-04T09:42:44.000Z</time>
      </trkpt>
      <trkpt lat="43.52297" lon="6.65669">
        <ele>234.6</ele>
        <time>2023-03-04T09:42:45.000Z</time>
      </trkpt>
      <trkpt lat="43.52302" lon="6.65659">
        <ele>233.8</ele>
        <time>2023-03-04T09:42:46.000Z</time>
      </trkpt>
      <trkpt lat="43.52307" lon="6.65649">
        <ele>233.1</ele>
        <time>2023-03-04T09:42:47.000Z</time>
      </trkpt>
      <trkpt lat="43.52311" lon="6.65638">
        <ele>232.3</ele>
        <time>2023-03-04T09:42:48.000Z</time>
      </trkpt>
      <trkpt lat="43.52315" lon="6.65627">
        <ele>231.7</ele>
        <time>2023-03-04T09:42:49.000Z</time>
      </trkpt>
      <trkpt lat="43.52319" lon="6.65616">
        <ele>231.1</ele>
        <time>2023-03-04T09:42:50.000Z</time>
      </trkpt>
      <trkpt lat="43.52323" lon="6.65605">
        <ele>230.7</ele>
        <time>2023-03-04T09:42:51.000Z</time>
      </trkpt>
      <trkpt lat="43.52328" lon="6.65595">
        <ele>230.3</ele>
        <time>2023-03-04T09:42:52.000Z</time>
      </trkpt>
      <trkpt lat="43.52333" lon="6.65585">
        <ele>230</ele>
        <time>2023-03-04T09:42:53.000Z</time>
      </trkpt>
      <trkpt lat="43.52338" lon="6.65577">
        <ele>229.7</ele>
        <time>2023-03-04T09:42:54.000Z</time>
      </trkpt>
      <trkpt lat="43.52343" lon="6.65569">
        <ele>229.4</ele>
        <time>2023-03-04T09:42:55.000Z</time>
      </trkpt>
      <trkpt lat="43.52348" lon="6.65563">
        <ele>229.2</ele>
        <time>2023-03-04T09:42:56.000Z</time>
      </trkpt>
      <trkpt lat="43.52352" lon="6.65557">
        <ele>229.1</ele>
        <time>2023-03-04T09:42:57.000Z</time>
      </trkpt>
      <trkpt lat="43.52357" lon="6.65553">
        <ele>229</ele>
        <time>2023-03-04T09:42:58.000Z</time>
      </trkpt>
      <trkpt lat="43.52362" lon="6.65548">
        <ele>228.8</ele>
        <time>2023-03-04T09:42:59.000Z</time>
      </trkpt>
      <trkpt lat="43.52365" lon="6.65542">
        <ele>228.8</ele>
        <time>2023-03-04T09:43:00.000Z</time>
      </trkpt>
      <trkpt lat="43.52369" lon="6.65536">
        <ele>228.8</ele>
        <time>2023-03-04T09:43:01.000Z</time>
      </trkpt>
      <trkpt lat="43.52372" lon="6.6553">
        <ele>228.8</ele>
        <time>2023-03-04T09:43:02.000Z</time>
      </trkpt>
      <trkpt lat="43.52374" lon="6.65525">
        <ele>228.8</ele>
        <time>2023-03-04T09:43:03.000Z</time>
      </trkpt>
      <trkpt lat="43.52377" lon="6.65519">
        <ele>228.7</ele>
        <time>2023-03-04T09:43:04.000Z</time>
      </trkpt>
      <trkpt lat="43.5238" lon="6.65515">
        <ele>228.7</ele>
        <time>2023-03-04T09:43:05.000Z</time>
      </trkpt>
      <trkpt lat="43.52383" lon="6.65511">
        <ele>228.6</ele>
        <time>2023-03-04T09:43:06.000Z</time>
      </trkpt>
      <trkpt lat="43.52386" lon="6.65509">
        <ele>228.5</ele>
        <time>2023-03-04T09:43:07.000Z</time>
      </trkpt>
      <trkpt lat="43.5239" lon="6.65506">
        <ele>228.3</ele>
        <time>2023-03-04T09:43:08.000Z</time>
      </trkpt>
      <trkpt lat="43.52394" lon="6.65504">
        <ele>228.1</ele>
        <time>2023-03-04T09:43:09.000Z</time>
      </trkpt>
      <trkpt lat="43.52399" lon="6.65502">
        <ele>227.8</ele>
        <time>2023-03-04T09:43:10.000Z</time>
      </trkpt>
      <trkpt lat="43.52405" lon="6.65501">
        <ele>227.4</ele>
        <time>2023-03-04T09:43:11.000Z</time>
      </trkpt>
      <trkpt lat="43.52412" lon="6.655">
        <ele>226.9</ele>
        <time>2023-03-04T09:43:12.000Z</time>
      </trkpt>
      <trkpt lat="43.52419" lon="6.65499">
        <ele>226.5</ele>
        <time>2023-03-04T09:43:13.000Z</time>
      </trkpt>
      <trkpt lat="43.52426" lon="6.65499">
        <ele>226.1</ele>
        <time>2023-03-04T09:43:14.000Z</time>
      </trkpt>
      <trkpt lat="43.52434" lon="6.65498">
        <ele>225.8</ele>
        <time>2023-03-04T09:43:15.000Z</time>
      </trkpt>
      <trkpt lat="43.52441" lon="6.65496">
        <ele>225.6</ele>
        <time>2023-03-04T09:43:16.000Z</time>
      </trkpt>
      <trkpt lat="43.52446" lon="6.65491">
        <ele>225.3</ele>
        <time>2023-03-04T09:43:17.000Z</time>
      </trkpt>
      <trkpt lat="43.52451" lon="6.65483">
        <ele>225</ele>
        <time>2023-03-04T09:43:18.000Z</time>
      </trkpt>
      <trkpt lat="43.52454" lon="6.65473">
        <ele>224.7</ele>
        <time>2023-03-04T09:43:19.000Z</time>
      </trkpt>
      <trkpt lat="43.52457" lon="6.65464">
        <ele>224.4</ele>
        <time>2023-03-04T09:43:20.000Z</time>
      </trkpt>
      <trkpt lat="43.52461" lon="6.65455">
        <ele>224</ele>
        <time>2023-03-04T09:43:21.000Z</time>
      </trkpt>
      <trkpt lat="43.52464" lon="6.65446">
        <ele>223.7</ele>
        <time>2023-03-04T09:43:22.000Z</time>
      </trkpt>
      <trkpt lat="43.52466" lon="6.65437">
        <ele>223.5</ele>
        <time>2023-03-04T09:43:23.000Z</time>
      </trkpt>
      <trkpt lat="43.52468" lon="6.65429">
        <ele>223.2</ele>
        <time>2023-03-04T09:43:24.000Z</time>
      </trkpt>
      <trkpt lat="43.5247" lon="6.65421">
        <ele>222.9</ele>
        <time>2023-03-04T09:43:25.000Z</time>
      </trkpt>
      <trkpt lat="43.52473" lon="6.65413">
        <ele>222.6</ele>
        <time>2023-03-04T09:43:26.000Z</time>
      </trkpt>
      <trkpt lat="43.52475" lon="6.65404">
        <ele>222.4</ele>
        <time>2023-03-04T09:43:27.000Z</time>
      </trkpt>
      <trkpt lat="43.52477" lon="6.65395">
        <ele>222</ele>
        <time>2023-03-04T09:43:28.000Z</time>
      </trkpt>
      <trkpt lat="43.52479" lon="6.65386">
        <ele>221.7</ele>
        <time>2023-03-04T09:43:29.000Z</time>
      </trkpt>
      <trkpt lat="43.52481" lon="6.65377">
        <ele>221.3</ele>
        <time>2023-03-04T09:43:30.000Z</time>
      </trkpt>
      <trkpt lat="43.52483" lon="6.65369">
        <ele>220.9</ele>
        <time>2023-03-04T09:43:31.000Z</time>
      </trkpt>
      <trkpt lat="43.52486" lon="6.65362">
        <ele>220.4</ele>
        <time>2023-03-04T09:43:32.000Z</time>
      </trkpt>
      <trkpt lat="43.5249" lon="6.65357">
        <ele>220</ele>
        <time>2023-03-04T09:43:33.000Z</time>
      </trkpt>
      <trkpt lat="43.52494" lon="6.65353">
        <ele>219.5</ele>
        <time>2023-03-04T09:43:34.000Z</time>
      </trkpt>
      <trkpt lat="43.52499" lon="6.65351">
        <ele>219</ele>
        <time>2023-03-04T09:43:35.000Z</time>
      </trkpt>
      <trkpt lat="43.52505" lon="6.6535">
        <ele>218.5</ele>
        <time>2023-03-04T09:43:36.000Z</time>
      </trkpt>
      <trkpt lat="43.52511" lon="6.65349">
        <ele>217.8</ele>
        <time>2023-03-04T09:43:37.000Z</time>
      </trkpt>
      <trkpt lat="43.52519" lon="6.65348">
        <ele>217.2</ele>
        <time>2023-03-04T09:43:38.000Z</time>
      </trkpt>
      <trkpt lat="43.52526" lon="6.65344">
        <ele>216.7</ele>
        <time>2023-03-04T09:43:39.000Z</time>
      </trkpt>
      <trkpt lat="43.52532" lon="6.65337">
        <ele>216.3</ele>
        <time>2023-03-04T09:43:40.000Z</time>
      </trkpt>
      <trkpt lat="43.52536" lon="6.65329">
        <ele>216</ele>
        <time>2023-03-04T09:43:41.000Z</time>
      </trkpt>
      <trkpt lat="43.5254" lon="6.65319">
        <ele>215.7</ele>
        <time>2023-03-04T09:43:42.000Z</time>
      </trkpt>
      <trkpt lat="43.52544" lon="6.65311">
        <ele>215.4</ele>
        <time>2023-03-04T09:43:43.000Z</time>
      </trkpt>
      <trkpt lat="43.52549" lon="6.65306">
        <ele>215</ele>
        <time>2023-03-04T09:43:44.000Z</time>
      </trkpt>
      <trkpt lat="43.52554" lon="6.65304">
        <ele>214.7</ele>
        <time>2023-03-04T09:43:45.000Z</time>
      </trkpt>
      <trkpt lat="43.5256" lon="6.65304">
        <ele>214.2</ele>
        <time>2023-03-04T09:43:46.000Z</time>
      </trkpt>
      <trkpt lat="43.52567" lon="6.65307">
        <ele>213.5</ele>
        <time>2023-03-04T09:43:47.000Z</time>
      </trkpt>
      <trkpt lat="43.52573" lon="6.65311">
        <ele>212.9</ele>
        <time>2023-03-04T09:43:48.000Z</time>
      </trkpt>
      <trkpt lat="43.5258" lon="6.65316">
        <ele>212.2</ele>
        <time>2023-03-04T09:43:49.000Z</time>
      </trkpt>
      <trkpt lat="43.52586" lon="6.65323">
        <ele>211.6</ele>
        <time>2023-03-04T09:43:50.000Z</time>
      </trkpt>
      <trkpt lat="43.52591" lon="6.6533">
        <ele>211</ele>
        <time>2023-03-04T09:43:51.000Z</time>
      </trkpt>
      <trkpt lat="43.52596" lon="6.65337">
        <ele>210.3</ele>
        <time>2023-03-04T09:43:52.000Z</time>
      </trkpt>
      <trkpt lat="43.52602" lon="6.65345">
        <ele>209.6</ele>
        <time>2023-03-04T09:43:53.000Z</time>
      </trkpt>
      <trkpt lat="43.52608" lon="6.65354">
        <ele>209</ele>
        <time>2023-03-04T09:43:54.000Z</time>
      </trkpt>
      <trkpt lat="43.52614" lon="6.65363">
        <ele>208.5</ele>
        <time>2023-03-04T09:43:55.000Z</time>
      </trkpt>
      <trkpt lat="43.5262" lon="6.65372">
        <ele>208</ele>
        <time>2023-03-04T09:43:56.000Z</time>
      </trkpt>
      <trkpt lat="43.52626" lon="6.65381">
        <ele>207.8</ele>
        <time>2023-03-04T09:43:57.000Z</time>
      </trkpt>
      <trkpt lat="43.52633" lon="6.65388">
        <ele>207.7</ele>
        <time>2023-03-04T09:43:58.000Z</time>
      </trkpt>
      <trkpt lat="43.5264" lon="6.65394">
        <ele>207.6</ele>
        <time>2023-03-04T09:43:59.000Z</time>
      </trkpt>
      <trkpt lat="43.52647" lon="6.65399">
        <ele>207.6</ele>
        <time>2023-03-04T09:44:00.000Z</time>
      </trkpt>
      <trkpt lat="43.52653" lon="6.65405">
        <ele>207.5</ele>
        <time>2023-03-04T09:44:01.000Z</time>
      </trkpt>
      <trkpt lat="43.52659" lon="6.6541">
        <ele>207.5</ele>
        <time>2023-03-04T09:44:02.000Z</time>
      </trkpt>
      <trkpt lat="43.52665" lon="6.65415">
        <ele>207.5</ele>
        <time>2023-03-04T09:44:03.000Z</time>
      </trkpt>
      <trkpt lat="43.52671" lon="6.6542">
        <ele>207.5</ele>
        <time>2023-03-04T09:44:04.000Z</time>
      </trkpt>
      <trkpt lat="43.52677" lon="6.65425">
        <ele>207.6</ele>
        <time>2023-03-04T09:44:05.000Z</time>
      </trkpt>
      <trkpt lat="43.52683" lon="6.6543">
        <ele>207.6</ele>
        <time>2023-03-04T09:44:06.000Z</time>
      </trkpt>
      <trkpt lat="43.52689" lon="6.65434">
        <ele>207.6</ele>
        <time>2023-03-04T09:44:07.000Z</time>
      </trkpt>
      <trkpt lat="43.52694" lon="6.65439">
        <ele>207.7</ele>
        <time>2023-03-04T09:44:08.000Z</time>
      </trkpt>
      <trkpt lat="43.52699" lon="6.65443">
        <ele>207.8</ele>
        <time>2023-03-04T09:44:09.000Z</time>
      </trkpt>
      <trkpt lat="43.52704" lon="6.65448">
        <ele>207.8</ele>
        <time>2023-03-04T09:44:10.000Z</time>
      </trkpt>
      <trkpt lat="43.52708" lon="6.65452">
        <ele>207.9</ele>
        <time>2023-03-04T09:44:11.000Z</time>
      </trkpt>
      <trkpt lat="43.52713" lon="6.65456">
        <ele>208</ele>
        <time>2023-03-04T09:44:12.000Z</time>
      </trkpt>
      <trkpt lat="43.52718" lon="6.6546">
        <ele>208.1</ele>
        <time>2023-03-04T09:44:13.000Z</time>
      </trkpt>
      <trkpt lat="43.52722" lon="6.65465">
        <ele>208.1</ele>
        <time>2023-03-04T09:44:14.000Z</time>
      </trkpt>
      <trkpt lat="43.52727" lon="6.65469">
        <ele>208.2</ele>
        <time>2023-03-04T09:44:15.000Z</time>
      </trkpt>
      <trkpt lat="43.52731" lon="6.65473">
        <ele>208.3</ele>
        <time>2023-03-04T09:44:16.000Z</time>
      </trkpt>
      <trkpt lat="43.52735" lon="6.65477">
        <ele>208.3</ele>
        <time>2023-03-04T09:44:17.000Z</time>
      </trkpt>
      <trkpt lat="43.5274" lon="6.65481">
        <ele>208.4</ele>
        <time>2023-03-04T09:44:18.000Z</time>
      </trkpt>
      <trkpt lat="43.52744" lon="6.65485">
        <ele>208.5</ele>
        <time>2023-03-04T09:44:19.000Z</time>
      </trkpt>
      <trkpt lat="43.52749" lon="6.65488">
        <ele>208.6</ele>
        <time>2023-03-04T09:44:20.000Z</time>
      </trkpt>
      <trkpt lat="43.52754" lon="6.65491">
        <ele>208.7</ele>
        <time>2023-03-04T09:44:21.000Z</time>
      </trkpt>
      <trkpt lat="43.5276" lon="6.65492">
        <ele>208.8</ele>
        <time>2023-03-04T09:44:22.000Z</time>
      </trkpt>
      <trkpt lat="43.52765" lon="6.65493">
        <ele>208.8</ele>
        <time>2023-03-04T09:44:23.000Z</time>
      </trkpt>
      <trkpt lat="43.52771" lon="6.65491">
        <ele>208.9</ele>
        <time>2023-03-04T09:44:24.000Z</time>
      </trkpt>
      <trkpt lat="43.52775" lon="6.65488">
        <ele>208.9</ele>
        <time>2023-03-04T09:44:25.000Z</time>
      </trkpt>
      <trkpt lat="43.5278" lon="6.65484">
        <ele>209</ele>
        <time>2023-03-04T09:44:26.000Z</time>
      </trkpt>
      <trkpt lat="43.52784" lon="6.6548">
        <ele>209</ele>
        <time>2023-03-04T09:44:27.000Z</time>
      </trkpt>
      <trkpt lat="43.52787" lon="6.65477">
        <ele>209</ele>
        <time>2023-03-04T09:44:28.000Z</time>
      </trkpt>
      <trkpt lat="43.5279" lon="6.65475">
        <ele>209.1</ele>
        <time>2023-03-04T09:44:29.000Z</time>
      </trkpt>
      <trkpt lat="43.52792" lon="6.65473">
        <ele>209.1</ele>
        <time>2023-03-04T09:44:30.000Z</time>
      </trkpt>
      <trkpt lat="43.52795" lon="6.65471">
        <ele>209.1</ele>
        <time>2023-03-04T09:44:31.000Z</time>
      </trkpt>
      <trkpt lat="43.52798" lon="6.65468">
        <ele>209.2</ele>
        <time>2023-03-04T09:44:32.000Z</time>
      </trkpt>
      <trkpt lat="43.52801" lon="6.65467">
        <ele>209.3</ele>
        <time>2023-03-04T09:44:33.000Z</time>
      </trkpt>
      <trkpt lat="43.52805" lon="6.65464">
        <ele>209.3</ele>
        <time>2023-03-04T09:44:34.000Z</time>
      </trkpt>
      <trkpt lat="43.52807" lon="6.65463">
        <ele>209.4</ele>
        <time>2023-03-04T09:44:35.000Z</time>
      </trkpt>
      <trkpt lat="43.5281" lon="6.65461">
        <ele>209.5</ele>
        <time>2023-03-04T09:44:37.000Z</time>
      </trkpt>
      <trkpt lat="43.52813" lon="6.65458">
        <ele>209.5</ele>
        <time>2023-03-04T09:44:38.000Z</time>
      </trkpt>
      <trkpt lat="43.52813" lon="6.65456">
        <ele>209.6</ele>
        <time>2023-03-04T09:44:39.000Z</time>
      </trkpt>
      <trkpt lat="43.52814" lon="6.65455">
        <ele>209.6</ele>
        <time>2023-03-04T09:44:40.000Z</time>
      </trkpt>
      <trkpt lat="43.52814" lon="6.65453">
        <ele>209.6</ele>
        <time>2023-03-04T09:44:41.000Z</time>
      </trkpt>
      <trkpt lat="43.52814" lon="6.6545">
        <ele>209.7</ele>
        <time>2023-03-04T09:44:42.000Z</time>
      </trkpt>
      <trkpt lat="43.52813" lon="6.65449">
        <ele>209.8</ele>
        <time>2023-03-04T09:44:44.000Z</time>
      </trkpt>
      <trkpt lat="43.52813" lon="6.65447">
        <ele>209.8</ele>
        <time>2023-03-04T09:44:45.000Z</time>
      </trkpt>
      <trkpt lat="43.52814" lon="6.65447">
        <ele>209.8</ele>
        <time>2023-03-04T09:44:46.000Z</time>
      </trkpt>
      <trkpt lat="43.52814" lon="6.65448">
        <ele>209.8</ele>
        <time>2023-03-04T09:44:48.000Z</time>
      </trkpt>
      <trkpt lat="43.52815" lon="6.65449">
        <ele>209.8</ele>
        <time>2023-03-04T09:44:49.000Z</time>
      </trkpt>
      <trkpt lat="43.52815" lon="6.6545">
        <ele>209.8</ele>
        <time>2023-03-04T09:44:50.000Z</time>
      </trkpt>
      <trkpt lat="43.52816" lon="6.65452">
        <ele>209.8</ele>
        <time>2023-03-04T09:44:51.000Z</time>
      </trkpt>
      <trkpt lat="43.52817" lon="6.65455">
        <ele>209.8</ele>
        <time>2023-03-04T09:44:53.000Z</time>
      </trkpt>
      <trkpt lat="43.52818" lon="6.65457">
        <ele>209.9</ele>
        <time>2023-03-04T09:44:54.000Z</time>
      </trkpt>
      <trkpt lat="43.52817" lon="6.6546">
        <ele>209.9</ele>
        <time>2023-03-04T09:44:55.000Z</time>
      </trkpt>
      <trkpt lat="43.52816" lon="6.65461">
        <ele>209.9</ele>
        <time>2023-03-04T09:44:56.000Z</time>
      </trkpt>
      <trkpt lat="43.52813" lon="6.6546">
        <ele>209.9</ele>
        <time>2023-03-04T09:44:57.000Z</time>
      </trkpt>
      <trkpt lat="43.52812" lon="6.65459">
        <ele>209.9</ele>
        <time>2023-03-04T09:44:58.000Z</time>
      </trkpt>
      <trkpt lat="43.52809" lon="6.65456">
        <ele>210</ele>
        <time>2023-03-04T09:45:00.000Z</time>
      </trkpt>
      <trkpt lat="43.52808" lon="6.65452">
        <ele>210</ele>
        <time>2023-03-04T09:45:01.000Z</time>
      </trkpt>
      <trkpt lat="43.52807" lon="6.65448">
        <ele>210</ele>
        <time>2023-03-04T09:45:02.000Z</time>
      </trkpt>
      <trkpt lat="43.52806" lon="6.65444">
        <ele>210.1</ele>
        <time>2023-03-04T09:45:03.000Z</time>
      </trkpt>
      <trkpt lat="43.52805" lon="6.65438">
        <ele>211</ele>
        <time>2023-03-04T09:45:05.000Z</time>
      </trkpt>
      <trkpt lat="43.52805" lon="6.65436">
        <ele>211.3</ele>
        <time>2023-03-04T09:45:06.000Z</time>
      </trkpt>
      <trkpt lat="43.52805" lon="6.65433">
        <ele>211.6</ele>
        <time>2023-03-04T09:45:07.000Z</time>
      </trkpt>
      <trkpt lat="43.52804" lon="6.65428">
        <ele>212.2</ele>
        <time>2023-03-04T09:45:08.000Z</time>
      </trkpt>
      <trkpt lat="43.52803" lon="6.65427">
        <ele>212.4</ele>
        <time>2023-03-04T09:45:09.000Z</time>
      </trkpt>
      <trkpt lat="43.52803" lon="6.65424">
        <ele>212.8</ele>
        <time>2023-03-04T09:45:10.000Z</time>
      </trkpt>
      <trkpt lat="43.52803" lon="6.6542">
        <ele>213.2</ele>
        <time>2023-03-04T09:45:12.000Z</time>
      </trkpt>
      <trkpt lat="43.52802" lon="6.65416">
        <ele>213.9</ele>
        <time>2023-03-04T09:45:13.000Z</time>
      </trkpt>
      <trkpt lat="43.52802" lon="6.65414">
        <ele>214.2</ele>
        <time>2023-03-04T09:45:14.000Z</time>
      </trkpt>
      <trkpt lat="43.52802" lon="6.6541">
        <ele>214.8</ele>
        <time>2023-03-04T09:45:15.000Z</time>
      </trkpt>
      <trkpt lat="43.52802" lon="6.65409">
        <ele>215</ele>
        <time>2023-03-04T09:45:16.000Z</time>
      </trkpt>
      <trkpt lat="43.52802" lon="6.65405">
        <ele>215.5</ele>
        <time>2023-03-04T09:45:17.000Z</time>
      </trkpt>
      <trkpt lat="43.52801" lon="6.65402">
        <ele>216.1</ele>
        <time>2023-03-04T09:45:19.000Z</time>
      </trkpt>
      <trkpt lat="43.528" lon="6.65397">
        <ele>216.7</ele>
        <time>2023-03-04T09:45:20.000Z</time>
      </trkpt>
      <trkpt lat="43.528" lon="6.65396">
        <ele>216.9</ele>
        <time>2023-03-04T09:45:21.000Z</time>
      </trkpt>
      <trkpt lat="43.52799" lon="6.65392">
        <ele>217.5</ele>
        <time>2023-03-04T09:45:23.000Z</time>
      </trkpt>
      <trkpt lat="43.52798" lon="6.65388">
        <ele>218</ele>
        <time>2023-03-04T09:45:24.000Z</time>
      </trkpt>
      <trkpt lat="43.52797" lon="6.65384">
        <ele>218.5</ele>
        <time>2023-03-04T09:45:25.000Z</time>
      </trkpt>
      <trkpt lat="43.52796" lon="6.65383">
        <ele>218.6</ele>
        <time>2023-03-04T09:45:26.000Z</time>
      </trkpt>
      <trkpt lat="43.52796" lon="6.65378">
        <ele>219.1</ele>
        <time>2023-03-04T09:45:28.000Z</time>
      </trkpt>
      <trkpt lat="43.52795" lon="6.65376">
        <ele>219.2</ele>
        <time>2023-03-04T09:45:29.000Z</time>
      </trkpt>
      <trkpt lat="43.52795" lon="6.65377">
        <ele>219.3</ele>
        <time>2023-03-04T09:45:31.000Z</time>
      </trkpt>
      <trkpt lat="43.52795" lon="6.65376">
        <ele>219.4</ele>
        <time>2023-03-04T09:45:32.000Z</time>
      </trkpt>
      <trkpt lat="43.52794" lon="6.65375">
        <ele>219.5</ele>
        <time>2023-03-04T09:45:33.000Z</time>
      </trkpt>
      <trkpt lat="43.52794" lon="6.65374">
        <ele>219.6</ele>
        <time>2023-03-04T09:45:35.000Z</time>
      </trkpt>
      <trkpt lat="43.52793" lon="6.65372">
        <ele>219.7</ele>
        <time>2023-03-04T09:45:36.000Z</time>
      </trkpt>
      <trkpt lat="43.52793" lon="6.65371">
        <ele>219.7</ele>
        <time>2023-03-04T09:45:38.000Z</time>
      </trkpt>
      <trkpt lat="43.52792" lon="6.6537">
        <ele>219.7</ele>
        <time>2023-03-04T09:45:39.000Z</time>
      </trkpt>
      <trkpt lat="43.52792" lon="6.65369">
        <ele>219.7</ele>
        <time>2023-03-04T09:45:52.000Z</time>
      </trkpt>
      <trkpt lat="43.52791" lon="6.65368">
        <ele>219.7</ele>
        <time>2023-03-04T09:45:53.000Z</time>
      </trkpt>
      <trkpt lat="43.52791" lon="6.65367">
        <ele>219.8</ele>
        <time>2023-03-04T09:45:54.000Z</time>
      </trkpt>
      <trkpt lat="43.52789" lon="6.65363">
        <ele>219.8</ele>
        <time>2023-03-04T09:45:55.000Z</time>
      </trkpt>
      <trkpt lat="43.52788" lon="6.6536">
        <ele>219.8</ele>
        <time>2023-03-04T09:45:56.000Z</time>
      </trkpt>
      <trkpt lat="43.52787" lon="6.65355">
        <ele>219.8</ele>
        <time>2023-03-04T09:45:58.000Z</time>
      </trkpt>
      <trkpt lat="43.52786" lon="6.65352">
        <ele>219.9</ele>
        <time>2023-03-04T09:45:59.000Z</time>
      </trkpt>
      <trkpt lat="43.52784" lon="6.65349">
        <ele>219.9</ele>
        <time>2023-03-04T09:46:01.000Z</time>
      </trkpt>
      <trkpt lat="43.52784" lon="6.65347">
        <ele>219.9</ele>
        <time>2023-03-04T09:46:02.000Z</time>
      </trkpt>
      <trkpt lat="43.52783" lon="6.65345">
        <ele>220.4</ele>
        <time>2023-03-04T09:46:03.000Z</time>
      </trkpt>
      <trkpt lat="43.52785" lon="6.65341">
        <ele>220.8</ele>
        <time>2023-03-04T09:46:05.000Z</time>
      </trkpt>
      <trkpt lat="43.52785" lon="6.6534">
        <ele>220.9</ele>
        <time>2023-03-04T09:46:06.000Z</time>
      </trkpt>
      <trkpt lat="43.52788" lon="6.65335">
        <ele>221.3</ele>
        <time>2023-03-04T09:46:07.000Z</time>
      </trkpt>
      <trkpt lat="43.52788" lon="6.65334">
        <ele>221.5</ele>
        <time>2023-03-04T09:46:08.000Z</time>
      </trkpt>
      <trkpt lat="43.5279" lon="6.65332">
        <ele>221.8</ele>
        <time>2023-03-04T09:46:09.000Z</time>
      </trkpt>
      <trkpt lat="43.52792" lon="6.65327">
        <ele>222.3</ele>
        <time>2023-03-04T09:46:11.000Z</time>
      </trkpt>
      <trkpt lat="43.52795" lon="6.65324">
        <ele>222.7</ele>
        <time>2023-03-04T09:46:12.000Z</time>
      </trkpt>
      <trkpt lat="43.52796" lon="6.65322">
        <ele>222.9</ele>
        <time>2023-03-04T09:46:13.000Z</time>
      </trkpt>
      <trkpt lat="43.52798" lon="6.65319">
        <ele>223.4</ele>
        <time>2023-03-04T09:46:15.000Z</time>
      </trkpt>
      <trkpt lat="43.528" lon="6.65316">
        <ele>223.8</ele>
        <time>2023-03-04T09:46:16.000Z</time>
      </trkpt>
      <trkpt lat="43.52802" lon="6.65313">
        <ele>224.2</ele>
        <time>2023-03-04T09:46:17.000Z</time>
      </trkpt>
      <trkpt lat="43.52803" lon="6.65312">
        <ele>224.3</ele>
        <time>2023-03-04T09:46:18.000Z</time>
      </trkpt>
      <trkpt lat="43.52805" lon="6.65308">
        <ele>224.9</ele>
        <time>2023-03-04T09:46:19.000Z</time>
      </trkpt>
      <trkpt lat="43.52806" lon="6.65307">
        <ele>225</ele>
        <time>2023-03-04T09:46:20.000Z</time>
      </trkpt>
      <trkpt lat="43.52808" lon="6.65304">
        <ele>225.4</ele>
        <time>2023-03-04T09:46:21.000Z</time>
      </trkpt>
      <trkpt lat="43.52809" lon="6.653">
        <ele>225.9</ele>
        <time>2023-03-04T09:46:23.000Z</time>
      </trkpt>
      <trkpt lat="43.52811" lon="6.653">
        <ele>226.1</ele>
        <time>2023-03-04T09:46:24.000Z</time>
      </trkpt>
      <trkpt lat="43.52813" lon="6.65298">
        <ele>226.4</ele>
        <time>2023-03-04T09:46:25.000Z</time>
      </trkpt>
      <trkpt lat="43.52815" lon="6.65296">
        <ele>226.7</ele>
        <time>2023-03-04T09:46:26.000Z</time>
      </trkpt>
      <trkpt lat="43.52817" lon="6.65295">
        <ele>227</ele>
        <time>2023-03-04T09:46:28.000Z</time>
      </trkpt>
      <trkpt lat="43.5282" lon="6.65292">
        <ele>227.5</ele>
        <time>2023-03-04T09:46:29.000Z</time>
      </trkpt>
      <trkpt lat="43.52822" lon="6.65291">
        <ele>227.7</ele>
        <time>2023-03-04T09:46:30.000Z</time>
      </trkpt>
      <trkpt lat="43.52824" lon="6.65289">
        <ele>228.1</ele>
        <time>2023-03-04T09:46:31.000Z</time>
      </trkpt>
      <trkpt lat="43.52825" lon="6.65288">
        <ele>228.3</ele>
        <time>2023-03-04T09:46:32.000Z</time>
      </trkpt>
      <trkpt lat="43.52828" lon="6.65287">
        <ele>228.6</ele>
        <time>2023-03-04T09:46:33.000Z</time>
      </trkpt>
      <trkpt lat="43.5283" lon="6.65285">
        <ele>228.9</ele>
        <time>2023-03-04T09:46:34.000Z</time>
      </trkpt>
      <trkpt lat="43.52832" lon="6.65283">
        <ele>229.2</ele>
        <time>2023-03-04T09:46:36.000Z</time>
      </trkpt>
      <trkpt lat="43.52835" lon="6.65279">
        <ele>229.8</ele>
        <time>2023-03-04T09:46:37.000Z</time>
      </trkpt>
      <trkpt lat="43.52836" lon="6.65277">
        <ele>230</ele>
        <time>2023-03-04T09:46:38.000Z</time>
      </trkpt>
      <trkpt lat="43.52838" lon="6.65272">
        <ele>230.6</ele>
        <time>2023-03-04T09:46:40.000Z</time>
      </trkpt>
      <trkpt lat="43.5284" lon="6.65268">
        <ele>231</ele>
        <time>2023-03-04T09:46:41.000Z</time>
      </trkpt>
      <trkpt lat="43.5284" lon="6.65266">
        <ele>231.2</ele>
        <time>2023-03-04T09:46:42.000Z</time>
      </trkpt>
      <trkpt lat="43.52841" lon="6.65261">
        <ele>231.7</ele>
        <time>2023-03-04T09:46:44.000Z</time>
      </trkpt>
      <trkpt lat="43.52842" lon="6.65259">
        <ele>231.9</ele>
        <time>2023-03-04T09:46:45.000Z</time>
      </trkpt>
      <trkpt lat="43.52843" lon="6.65254">
        <ele>232.4</ele>
        <time>2023-03-04T09:46:46.000Z</time>
      </trkpt>
      <trkpt lat="43.52843" lon="6.65252">
        <ele>232.6</ele>
        <time>2023-03-04T09:46:47.000Z</time>
      </trkpt>
      <trkpt lat="43.52844" lon="6.6525">
        <ele>232.9</ele>
        <time>2023-03-04T09:46:48.000Z</time>
      </trkpt>
      <trkpt lat="43.52845" lon="6.65248">
        <ele>233.2</ele>
        <time>2023-03-04T09:46:50.000Z</time>
      </trkpt>
      <trkpt lat="43.52847" lon="6.65245">
        <ele>233.6</ele>
        <time>2023-03-04T09:46:51.000Z</time>
      </trkpt>
      <trkpt lat="43.52848" lon="6.6524">
        <ele>234.1</ele>
        <time>2023-03-04T09:46:52.000Z</time>
      </trkpt>
      <trkpt lat="43.52849" lon="6.65238">
        <ele>234.3</ele>
        <time>2023-03-04T09:46:53.000Z</time>
      </trkpt>
      <trkpt lat="43.52849" lon="6.65234">
        <ele>234.8</ele>
        <time>2023-03-04T09:46:54.000Z</time>
      </trkpt>
      <trkpt lat="43.5285" lon="6.65232">
        <ele>235</ele>
        <time>2023-03-04T09:46:55.000Z</time>
      </trkpt>
      <trkpt lat="43.52851" lon="6.65228">
        <ele>235.5</ele>
        <time>2023-03-04T09:46:56.000Z</time>
      </trkpt>
      <trkpt lat="43.52852" lon="6.65226">
        <ele>235.7</ele>
        <time>2023-03-04T09:46:57.000Z</time>
      </trkpt>
      <trkpt lat="43.52854" lon="6.65223">
        <ele>236.1</ele>
        <time>2023-03-04T09:46:59.000Z</time>
      </trkpt>
      <trkpt lat="43.52854" lon="6.65222">
        <ele>236.3</ele>
        <time>2023-03-04T09:47:00.000Z</time>
      </trkpt>
      <trkpt lat="43.52856" lon="6.65219">
        <ele>236.8</ele>
        <time>2023-03-04T09:47:01.000Z</time>
      </trkpt>
      <trkpt lat="43.52856" lon="6.65218">
        <ele>236.9</ele>
        <time>2023-03-04T09:47:02.000Z</time>
      </trkpt>
      <trkpt lat="43.52855" lon="6.65215">
        <ele>237</ele>
        <time>2023-03-04T09:47:03.000Z</time>
      </trkpt>
      <trkpt lat="43.52855" lon="6.65215">
        <ele>237</ele>
        <time>2023-03-04T09:47:04.000Z</time>
      </trkpt>
      <trkpt lat="43.52855" lon="6.65214">
        <ele>237</ele>
        <time>2023-03-04T09:47:06.000Z</time>
      </trkpt>
      <trkpt lat="43.52854" lon="6.65214">
        <ele>237</ele>
        <time>2023-03-04T09:47:07.000Z</time>
      </trkpt>
      <trkpt lat="43.52854" lon="6.65213">
        <ele>237.1</ele>
        <time>2023-03-04T09:47:09.000Z</time>
      </trkpt>
      <trkpt lat="43.52854" lon="6.65213">
        <ele>237.1</ele>
        <time>2023-03-04T09:47:10.000Z</time>
      </trkpt>
      <trkpt lat="43.52853" lon="6.65212">
        <ele>237.1</ele>
        <time>2023-03-04T09:47:11.000Z</time>
      </trkpt>
      <trkpt lat="43.52853" lon="6.65212">
        <ele>237.1</ele>
        <time>2023-03-04T09:47:13.000Z</time>
      </trkpt>
      <trkpt lat="43.52853" lon="6.65211">
        <ele>237.2</ele>
        <time>2023-03-04T09:49:17.000Z</time>
      </trkpt>
      <trkpt lat="43.52853" lon="6.65211">
        <ele>237.2</ele>
        <time>2023-03-04T09:49:18.000Z</time>
      </trkpt>
      <trkpt lat="43.52852" lon="6.6521">
        <ele>237.2</ele>
        <time>2023-03-04T09:49:19.000Z</time>
      </trkpt>
      <trkpt lat="43.52852" lon="6.6521">
        <ele>237.2</ele>
        <time>2023-03-04T09:49:20.000Z</time>
      </trkpt>
      <trkpt lat="43.52849" lon="6.65208">
        <ele>237.4</ele>
        <time>2023-03-04T09:49:21.000Z</time>
      </trkpt>
      <trkpt lat="43.52848" lon="6.65207">
        <ele>237.4</ele>
        <time>2023-03-04T09:49:22.000Z</time>
      </trkpt>
      <trkpt lat="43.52846" lon="6.65204">
        <ele>237.6</ele>
        <time>2023-03-04T09:49:24.000Z</time>
      </trkpt>
      <trkpt lat="43.52844" lon="6.65204">
        <ele>237.7</ele>
        <time>2023-03-04T09:49:25.000Z</time>
      </trkpt>
      <trkpt lat="43.52841" lon="6.652">
        <ele>237.8</ele>
        <time>2023-03-04T09:49:26.000Z</time>
      </trkpt>
      <trkpt lat="43.52838" lon="6.65198">
        <ele>237.9</ele>
        <time>2023-03-04T09:49:27.000Z</time>
      </trkpt>
      <trkpt lat="43.52835" lon="6.65195">
        <ele>238</ele>
        <time>2023-03-04T09:49:28.000Z</time>
      </trkpt>
      <trkpt lat="43.52834" lon="6.65193">
        <ele>238</ele>
        <time>2023-03-04T09:49:29.000Z</time>
      </trkpt>
      <trkpt lat="43.52831" lon="6.65191">
        <ele>238.1</ele>
        <time>2023-03-04T09:49:31.000Z</time>
      </trkpt>
      <trkpt lat="43.52829" lon="6.65189">
        <ele>238.1</ele>
        <time>2023-03-04T09:49:32.000Z</time>
      </trkpt>
      <trkpt lat="43.52826" lon="6.65186">
        <ele>238.1</ele>
        <time>2023-03-04T09:49:33.000Z</time>
      </trkpt>
      <trkpt lat="43.52824" lon="6.65184">
        <ele>238.2</ele>
        <time>2023-03-04T09:49:34.000Z</time>
      </trkpt>
      <trkpt lat="43.52821" lon="6.65181">
        <ele>238.2</ele>
        <time>2023-03-04T09:49:35.000Z</time>
      </trkpt>
      <trkpt lat="43.52818" lon="6.65179">
        <ele>238.1</ele>
        <time>2023-03-04T09:49:36.000Z</time>
      </trkpt>
      <trkpt lat="43.52815" lon="6.65175">
        <ele>238</ele>
        <time>2023-03-04T09:49:38.000Z</time>
      </trkpt>
      <trkpt lat="43.52812" lon="6.65172">
        <ele>237.9</ele>
        <time>2023-03-04T09:49:39.000Z</time>
      </trkpt>
      <trkpt lat="43.52809" lon="6.6517">
        <ele>237.7</ele>
        <time>2023-03-04T09:49:40.000Z</time>
      </trkpt>
      <trkpt lat="43.52805" lon="6.65167">
        <ele>237.5</ele>
        <time>2023-03-04T09:49:41.000Z</time>
      </trkpt>
      <trkpt lat="43.52801" lon="6.65166">
        <ele>237.2</ele>
        <time>2023-03-04T09:49:42.000Z</time>
      </trkpt>
      <trkpt lat="43.52796" lon="6.65166">
        <ele>236.8</ele>
        <time>2023-03-04T09:49:43.000Z</time>
      </trkpt>
      <trkpt lat="43.5279" lon="6.65165">
        <ele>236.4</ele>
        <time>2023-03-04T09:49:44.000Z</time>
      </trkpt>
      <trkpt lat="43.52785" lon="6.65165">
        <ele>236.1</ele>
        <time>2023-03-04T09:49:45.000Z</time>
      </trkpt>
      <trkpt lat="43.5278" lon="6.65165">
        <ele>235.7</ele>
        <time>2023-03-04T09:49:46.000Z</time>
      </trkpt>
      <trkpt lat="43.52774" lon="6.65165">
        <ele>235.5</ele>
        <time>2023-03-04T09:49:47.000Z</time>
      </trkpt>
      <trkpt lat="43.52768" lon="6.65164">
        <ele>235.5</ele>
        <time>2023-03-04T09:49:48.000Z</time>
      </trkpt>
      <trkpt lat="43.52763" lon="6.65164">
        <ele>235.4</ele>
        <time>2023-03-04T09:49:49.000Z</time>
      </trkpt>
      <trkpt lat="43.52758" lon="6.65164">
        <ele>235.5</ele>
        <time>2023-03-04T09:49:50.000Z</time>
      </trkpt>
      <trkpt lat="43.52754" lon="6.65164">
        <ele>235.6</ele>
        <time>2023-03-04T09:49:51.000Z</time>
      </trkpt>
      <trkpt lat="43.5275" lon="6.65165">
        <ele>235.7</ele>
        <time>2023-03-04T09:49:52.000Z</time>
      </trkpt>
      <trkpt lat="43.52747" lon="6.65163">
        <ele>235.7</ele>
        <time>2023-03-04T09:49:54.000Z</time>
      </trkpt>
      <trkpt lat="43.52742" lon="6.65163">
        <ele>235.9</ele>
        <time>2023-03-04T09:49:55.000Z</time>
      </trkpt>
      <trkpt lat="43.52737" lon="6.65162">
        <ele>236.2</ele>
        <time>2023-03-04T09:49:56.000Z</time>
      </trkpt>
      <trkpt lat="43.52734" lon="6.65161">
        <ele>236.4</ele>
        <time>2023-03-04T09:49:57.000Z</time>
      </trkpt>
      <trkpt lat="43.52729" lon="6.65162">
        <ele>236.7</ele>
        <time>2023-03-04T09:49:58.000Z</time>
      </trkpt>
      <trkpt lat="43.52725" lon="6.6516">
        <ele>237</ele>
        <time>2023-03-04T09:49:59.000Z</time>
      </trkpt>
      <trkpt lat="43.52722" lon="6.6516">
        <ele>237.3</ele>
        <time>2023-03-04T09:50:01.000Z</time>
      </trkpt>
      <trkpt lat="43.52718" lon="6.6516">
        <ele>237.7</ele>
        <time>2023-03-04T09:50:02.000Z</time>
      </trkpt>
      <trkpt lat="43.52714" lon="6.6516">
        <ele>238</ele>
        <time>2023-03-04T09:50:03.000Z</time>
      </trkpt>
      <trkpt lat="43.5271" lon="6.6516">
        <ele>238.4</ele>
        <time>2023-03-04T09:50:04.000Z</time>
      </trkpt>
      <trkpt lat="43.52706" lon="6.6516">
        <ele>238.7</ele>
        <time>2023-03-04T09:50:05.000Z</time>
      </trkpt>
      <trkpt lat="43.52702" lon="6.6516">
        <ele>239.2</ele>
        <time>2023-03-04T09:50:06.000Z</time>
      </trkpt>
      <trkpt lat="43.52699" lon="6.6516">
        <ele>239.6</ele>
        <time>2023-03-04T09:50:07.000Z</time>
      </trkpt>
      <trkpt lat="43.52696" lon="6.65159">
        <ele>240</ele>
        <time>2023-03-04T09:50:08.000Z</time>
      </trkpt>
      <trkpt lat="43.52692" lon="6.65158">
        <ele>240.4</ele>
        <time>2023-03-04T09:50:10.000Z</time>
      </trkpt>
      <trkpt lat="43.52688" lon="6.65156">
        <ele>240.9</ele>
        <time>2023-03-04T09:50:11.000Z</time>
      </trkpt>
      <trkpt lat="43.52685" lon="6.65155">
        <ele>241.3</ele>
        <time>2023-03-04T09:50:12.000Z</time>
      </trkpt>
      <trkpt lat="43.52681" lon="6.65153">
        <ele>241.8</ele>
        <time>2023-03-04T09:50:13.000Z</time>
      </trkpt>
      <trkpt lat="43.52678" lon="6.65151">
        <ele>242.3</ele>
        <time>2023-03-04T09:50:14.000Z</time>
      </trkpt>
      <trkpt lat="43.52675" lon="6.65149">
        <ele>242.6</ele>
        <time>2023-03-04T09:50:15.000Z</time>
      </trkpt>
      <trkpt lat="43.52672" lon="6.65147">
        <ele>243</ele>
        <time>2023-03-04T09:50:16.000Z</time>
      </trkpt>
      <trkpt lat="43.52669" lon="6.65144">
        <ele>243.5</ele>
        <time>2023-03-04T09:50:18.000Z</time>
      </trkpt>
      <trkpt lat="43.52663" lon="6.65141">
        <ele>244</ele>
        <time>2023-03-04T09:50:19.000Z</time>
      </trkpt>
      <trkpt lat="43.52659" lon="6.65138">
        <ele>244.3</ele>
        <time>2023-03-04T09:50:20.000Z</time>
      </trkpt>
      <trkpt lat="43.52656" lon="6.65137">
        <ele>244.6</ele>
        <time>2023-03-04T09:50:21.000Z</time>
      </trkpt>
      <trkpt lat="43.52651" lon="6.65134">
        <ele>245</ele>
        <time>2023-03-04T09:50:23.000Z</time>
      </trkpt>
      <trkpt lat="43.52648" lon="6.65132">
        <ele>245.2</ele>
        <time>2023-03-04T09:50:24.000Z</time>
      </trkpt>
      <trkpt lat="43.52644" lon="6.65131">
        <ele>245.6</ele>
        <time>2023-03-04T09:50:26.000Z</time>
      </trkpt>
      <trkpt lat="43.52639" lon="6.65128">
        <ele>246.1</ele>
        <time>2023-03-04T09:50:27.000Z</time>
      </trkpt>
      <trkpt lat="43.52635" lon="6.65126">
        <ele>246.6</ele>
        <time>2023-03-04T09:50:29.000Z</time>
      </trkpt>
      <trkpt lat="43.52633" lon="6.65125">
        <ele>246.8</ele>
        <time>2023-03-04T09:50:30.000Z</time>
      </trkpt>
      <trkpt lat="43.52632" lon="6.65124">
        <ele>247.1</ele>
        <time>2023-03-04T09:50:31.000Z</time>
      </trkpt>
      <trkpt lat="43.52629" lon="6.65121">
        <ele>247.6</ele>
        <time>2023-03-04T09:50:32.000Z</time>
      </trkpt>
      <trkpt lat="43.52627" lon="6.6512">
        <ele>247.8</ele>
        <time>2023-03-04T09:50:33.000Z</time>
      </trkpt>
      <trkpt lat="43.52625" lon="6.65118">
        <ele>248.4</ele>
        <time>2023-03-04T09:50:34.000Z</time>
      </trkpt>
      <trkpt lat="43.52623" lon="6.65115">
        <ele>248.8</ele>
        <time>2023-03-04T09:50:35.000Z</time>
      </trkpt>
      <trkpt lat="43.52621" lon="6.65114">
        <ele>249.3</ele>
        <time>2023-03-04T09:50:36.000Z</time>
      </trkpt>
      <trkpt lat="43.52619" lon="6.65112">
        <ele>249.6</ele>
        <time>2023-03-04T09:50:38.000Z</time>
      </trkpt>
      <trkpt lat="43.52617" lon="6.6511">
        <ele>250.1</ele>
        <time>2023-03-04T09:50:39.000Z</time>
      </trkpt>
      <trkpt lat="43.52616" lon="6.65108">
        <ele>250.4</ele>
        <time>2023-03-04T09:50:40.000Z</time>
      </trkpt>
      <trkpt lat="43.52614" lon="6.65106">
        <ele>250.9</ele>
        <time>2023-03-04T09:50:41.000Z</time>
      </trkpt>
      <trkpt lat="43.52613" lon="6.65105">
        <ele>251.1</ele>
        <time>2023-03-04T09:50:42.000Z</time>
      </trkpt>
      <trkpt lat="43.52612" lon="6.65104">
        <ele>251.3</ele>
        <time>2023-03-04T09:50:43.000Z</time>
      </trkpt>
      <trkpt lat="43.52612" lon="6.65102">
        <ele>251.5</ele>
        <time>2023-03-04T09:50:44.000Z</time>
      </trkpt>
      <trkpt lat="43.52611" lon="6.65102">
        <ele>251.6</ele>
        <time>2023-03-04T09:50:45.000Z</time>
      </trkpt>
      <trkpt lat="43.52611" lon="6.65103">
        <ele>251.7</ele>
        <time>2023-03-04T09:50:47.000Z</time>
      </trkpt>
      <trkpt lat="43.52611" lon="6.65103">
        <ele>251.8</ele>
        <time>2023-03-04T09:50:48.000Z</time>
      </trkpt>
      <trkpt lat="43.52611" lon="6.65103">
        <ele>251.8</ele>
        <time>2023-03-04T09:50:50.000Z</time>
      </trkpt>
      <trkpt lat="43.52611" lon="6.65103">
        <ele>251.8</ele>
        <time>2023-03-04T09:50:51.000Z</time>
      </trkpt>
      <trkpt lat="43.52611" lon="6.65103">
        <ele>251.8</ele>
        <time>2023-03-04T09:50:52.000Z</time>
      </trkpt>
      <trkpt lat="43.52611" lon="6.65102">
        <ele>251.9</ele>
        <time>2023-03-04T09:50:54.000Z</time>
      </trkpt>
      <trkpt lat="43.52611" lon="6.65102">
        <ele>251.9</ele>
        <time>2023-03-04T09:50:55.000Z</time>
      </trkpt>
      <trkpt lat="43.52611" lon="6.65102">
        <ele>252</ele>
        <time>2023-03-04T09:50:57.000Z</time>
      </trkpt>
      <trkpt lat="43.52611" lon="6.65102">
        <ele>252</ele>
        <time>2023-03-04T09:50:58.000Z</time>
      </trkpt>
      <trkpt lat="43.52608" lon="6.65101">
        <ele>252.4</ele>
        <time>2023-03-04T09:51:21.000Z</time>
      </trkpt>
      <trkpt lat="43.52608" lon="6.65101">
        <ele>252.6</ele>
        <time>2023-03-04T09:51:22.000Z</time>
      </trkpt>
      <trkpt lat="43.52608" lon="6.651">
        <ele>252.7</ele>
        <time>2023-03-04T09:51:23.000Z</time>
      </trkpt>
      <trkpt lat="43.52607" lon="6.65099">
        <ele>252.8</ele>
        <time>2023-03-04T09:51:24.000Z</time>
      </trkpt>
      <trkpt lat="43.52607" lon="6.65098">
        <ele>253</ele>
        <time>2023-03-04T09:51:25.000Z</time>
      </trkpt>
      <trkpt lat="43.52607" lon="6.65097">
        <ele>253.1</ele>
        <time>2023-03-04T09:51:26.000Z</time>
      </trkpt>
      <trkpt lat="43.52606" lon="6.65097">
        <ele>253.3</ele>
        <time>2023-03-04T09:51:27.000Z</time>
      </trkpt>
      <trkpt lat="43.52606" lon="6.65096">
        <ele>253.4</ele>
        <time>2023-03-04T09:51:29.000Z</time>
      </trkpt>
      <trkpt lat="43.52605" lon="6.65096">
        <ele>253.5</ele>
        <time>2023-03-04T09:51:30.000Z</time>
      </trkpt>
      <trkpt lat="43.52605" lon="6.65096">
        <ele>253.6</ele>
        <time>2023-03-04T09:51:32.000Z</time>
      </trkpt>
      <trkpt lat="43.52604" lon="6.65095">
        <ele>253.8</ele>
        <time>2023-03-04T09:51:33.000Z</time>
      </trkpt>
      <trkpt lat="43.52603" lon="6.65095">
        <ele>253.9</ele>
        <time>2023-03-04T09:51:34.000Z</time>
      </trkpt>
      <trkpt lat="43.52603" lon="6.65094">
        <ele>254.1</ele>
        <time>2023-03-04T09:51:36.000Z</time>
      </trkpt>
      <trkpt lat="43.52602" lon="6.65093">
        <ele>254.2</ele>
        <time>2023-03-04T09:51:37.000Z</time>
      </trkpt>
      <trkpt lat="43.52601" lon="6.65092">
        <ele>254.5</ele>
        <time>2023-03-04T09:51:38.000Z</time>
      </trkpt>
      <trkpt lat="43.526" lon="6.65091">
        <ele>254.8</ele>
        <time>2023-03-04T09:51:40.000Z</time>
      </trkpt>
      <trkpt lat="43.526" lon="6.6509">
        <ele>254.9</ele>
        <time>2023-03-04T09:51:41.000Z</time>
      </trkpt>
      <trkpt lat="43.52599" lon="6.65089">
        <ele>255</ele>
        <time>2023-03-04T09:51:42.000Z</time>
      </trkpt>
      <trkpt lat="43.52599" lon="6.65088">
        <ele>255.1</ele>
        <time>2023-03-04T09:51:43.000Z</time>
      </trkpt>
      <trkpt lat="43.52598" lon="6.65087">
        <ele>255.3</ele>
        <time>2023-03-04T09:51:45.000Z</time>
      </trkpt>
      <trkpt lat="43.52598" lon="6.65086">
        <ele>255.5</ele>
        <time>2023-03-04T09:51:46.000Z</time>
      </trkpt>
      <trkpt lat="43.52597" lon="6.65085">
        <ele>255.8</ele>
        <time>2023-03-04T09:51:48.000Z</time>
      </trkpt>
      <trkpt lat="43.52596" lon="6.65084">
        <ele>256</ele>
        <time>2023-03-04T09:51:49.000Z</time>
      </trkpt>
      <trkpt lat="43.52595" lon="6.65082">
        <ele>256.3</ele>
        <time>2023-03-04T09:51:51.000Z</time>
      </trkpt>
      <trkpt lat="43.52595" lon="6.65081">
        <ele>256.4</ele>
        <time>2023-03-04T09:51:52.000Z</time>
      </trkpt>
      <trkpt lat="43.52594" lon="6.6508">
        <ele>256.6</ele>
        <time>2023-03-04T09:51:53.000Z</time>
      </trkpt>
      <trkpt lat="43.52593" lon="6.65079">
        <ele>256.7</ele>
        <time>2023-03-04T09:51:54.000Z</time>
      </trkpt>
      <trkpt lat="43.52593" lon="6.65078">
        <ele>256.9</ele>
        <time>2023-03-04T09:51:56.000Z</time>
      </trkpt>
      <trkpt lat="43.52592" lon="6.65077">
        <ele>257</ele>
        <time>2023-03-04T09:51:57.000Z</time>
      </trkpt>
      <trkpt lat="43.52591" lon="6.65076">
        <ele>257.2</ele>
        <time>2023-03-04T09:51:58.000Z</time>
      </trkpt>
      <trkpt lat="43.52591" lon="6.65076">
        <ele>257.2</ele>
        <time>2023-03-04T09:51:59.000Z</time>
      </trkpt>
      <trkpt lat="43.5259" lon="6.65075">
        <ele>257.4</ele>
        <time>2023-03-04T09:52:00.000Z</time>
      </trkpt>
      <trkpt lat="43.5259" lon="6.65074">
        <ele>257.5</ele>
        <time>2023-03-04T09:52:01.000Z</time>
      </trkpt>
      <trkpt lat="43.52589" lon="6.65074">
        <ele>257.7</ele>
        <time>2023-03-04T09:52:02.000Z</time>
      </trkpt>
      <trkpt lat="43.52589" lon="6.65073">
        <ele>257.8</ele>
        <time>2023-03-04T09:52:03.000Z</time>
      </trkpt>
      <trkpt lat="43.52587" lon="6.65071">
        <ele>258.1</ele>
        <time>2023-03-04T09:52:05.000Z</time>
      </trkpt>
      <trkpt lat="43.52587" lon="6.65071">
        <ele>258.2</ele>
        <time>2023-03-04T09:52:06.000Z</time>
      </trkpt>
      <trkpt lat="43.52586" lon="6.65071">
        <ele>258.3</ele>
        <time>2023-03-04T09:52:07.000Z</time>
      </trkpt>
      <trkpt lat="43.52586" lon="6.6507">
        <ele>258.4</ele>
        <time>2023-03-04T09:52:09.000Z</time>
      </trkpt>
      <trkpt lat="43.52585" lon="6.65069">
        <ele>258.6</ele>
        <time>2023-03-04T09:52:10.000Z</time>
      </trkpt>
      <trkpt lat="43.52583" lon="6.65068">
        <ele>258.9</ele>
        <time>2023-03-04T09:52:11.000Z</time>
      </trkpt>
      <trkpt lat="43.52582" lon="6.65067">
        <ele>259.1</ele>
        <time>2023-03-04T09:52:12.000Z</time>
      </trkpt>
      <trkpt lat="43.52581" lon="6.65067">
        <ele>259.2</ele>
        <time>2023-03-04T09:52:13.000Z</time>
      </trkpt>
      <trkpt lat="43.5258" lon="6.65066">
        <ele>259.4</ele>
        <time>2023-03-04T09:52:14.000Z</time>
      </trkpt>
      <trkpt lat="43.5258" lon="6.65066">
        <ele>259.4</ele>
        <time>2023-03-04T09:52:15.000Z</time>
      </trkpt>
      <trkpt lat="43.5258" lon="6.65067">
        <ele>259.4</ele>
        <time>2023-03-04T09:52:17.000Z</time>
      </trkpt>
      <trkpt lat="43.5258" lon="6.65067">
        <ele>259.4</ele>
        <time>2023-03-04T09:52:18.000Z</time>
      </trkpt>
      <trkpt lat="43.5258" lon="6.65067">
        <ele>259.4</ele>
        <time>2023-03-04T09:52:19.000Z</time>
      </trkpt>
      <trkpt lat="43.5258" lon="6.65067">
        <ele>259.5</ele>
        <time>2023-03-04T09:52:21.000Z</time>
      </trkpt>
      <trkpt lat="43.5258" lon="6.65067">
        <ele>259.5</ele>
        <time>2023-03-04T09:52:22.000Z</time>
      </trkpt>
      <trkpt lat="43.52579" lon="6.65066">
        <ele>259.6</ele>
        <time>2023-03-04T09:52:23.000Z</time>
      </trkpt>
      <trkpt lat="43.5258" lon="6.65066">
        <ele>259.6</ele>
        <time>2023-03-04T09:52:25.000Z</time>
      </trkpt>
      <trkpt lat="43.52579" lon="6.65066">
        <ele>259.6</ele>
        <time>2023-03-04T09:52:26.000Z</time>
      </trkpt>
      <trkpt lat="43.5258" lon="6.65066">
        <ele>259.6</ele>
        <time>2023-03-04T09:52:28.000Z</time>
      </trkpt>
      <trkpt lat="43.5258" lon="6.65066">
        <ele>259.7</ele>
        <time>2023-03-04T09:52:29.000Z</time>
      </trkpt>
      <trkpt lat="43.5258" lon="6.65066">
        <ele>259.7</ele>
        <time>2023-03-04T09:52:30.000Z</time>
      </trkpt>
      <trkpt lat="43.5258" lon="6.65066">
        <ele>259.7</ele>
        <time>2023-03-04T09:52:32.000Z</time>
      </trkpt>
      <trkpt lat="43.5258" lon="6.65062">
        <ele>260</ele>
        <time>2023-03-04T09:52:53.000Z</time>
      </trkpt>
      <trkpt lat="43.52579" lon="6.65061">
        <ele>260.2</ele>
        <time>2023-03-04T09:52:55.000Z</time>
      </trkpt>
      <trkpt lat="43.52578" lon="6.6506">
        <ele>260.3</ele>
        <time>2023-03-04T09:52:56.000Z</time>
      </trkpt>
      <trkpt lat="43.52577" lon="6.65058">
        <ele>260.5</ele>
        <time>2023-03-04T09:52:58.000Z</time>
      </trkpt>
      <trkpt lat="43.52576" lon="6.65057">
        <ele>260.7</ele>
        <time>2023-03-04T09:52:59.000Z</time>
      </trkpt>
      <trkpt lat="43.52576" lon="6.65057">
        <ele>260.7</ele>
        <time>2023-03-04T09:53:00.000Z</time>
      </trkpt>
      <trkpt lat="43.52576" lon="6.65057">
        <ele>260.7</ele>
        <time>2023-03-04T09:53:02.000Z</time>
      </trkpt>
      <trkpt lat="43.52576" lon="6.65056">
        <ele>260.8</ele>
        <time>2023-03-04T09:53:03.000Z</time>
      </trkpt>
      <trkpt lat="43.52576" lon="6.65056">
        <ele>260.8</ele>
        <time>2023-03-04T09:53:05.000Z</time>
      </trkpt>
      <trkpt lat="43.52576" lon="6.65056">
        <ele>260.8</ele>
        <time>2023-03-04T09:53:06.000Z</time>
      </trkpt>
      <trkpt lat="43.52575" lon="6.65056">
        <ele>260.8</ele>
        <time>2023-03-04T09:53:08.000Z</time>
      </trkpt>
      <trkpt lat="43.52575" lon="6.65055">
        <ele>260.9</ele>
        <time>2023-03-04T09:53:09.000Z</time>
      </trkpt>
      <trkpt lat="43.52575" lon="6.65055">
        <ele>260.9</ele>
        <time>2023-03-04T09:55:50.000Z</time>
      </trkpt>
      <trkpt lat="43.52575" lon="6.65055">
        <ele>260.9</ele>
        <time>2023-03-04T09:55:51.000Z</time>
      </trkpt>
      <trkpt lat="43.52575" lon="6.65054">
        <ele>260.9</ele>
        <time>2023-03-04T09:55:52.000Z</time>
      </trkpt>
      <trkpt lat="43.52575" lon="6.65054">
        <ele>261</ele>
        <time>2023-03-04T09:55:53.000Z</time>
      </trkpt>
      <trkpt lat="43.52575" lon="6.65054">
        <ele>261</ele>
        <time>2023-03-04T09:55:54.000Z</time>
      </trkpt>
      <trkpt lat="43.52575" lon="6.65054">
        <ele>261</ele>
        <time>2023-03-04T09:55:55.000Z</time>
      </trkpt>
      <trkpt lat="43.52575" lon="6.65053">
        <ele>261</ele>
        <time>2023-03-04T09:55:56.000Z</time>
      </trkpt>
      <trkpt lat="43.52575" lon="6.65053">
        <ele>261.1</ele>
        <time>2023-03-04T09:55:57.000Z</time>
      </trkpt>
      <trkpt lat="43.52574" lon="6.65053">
        <ele>261.1</ele>
        <time>2023-03-04T09:55:58.000Z</time>
      </trkpt>
      <trkpt lat="43.52574" lon="6.65052">
        <ele>261.1</ele>
        <time>2023-03-04T09:55:59.000Z</time>
      </trkpt>
      <trkpt lat="43.52574" lon="6.65052">
        <ele>261.1</ele>
        <time>2023-03-04T09:56:00.000Z</time>
      </trkpt>
      <trkpt lat="43.52574" lon="6.65052">
        <ele>261.2</ele>
        <time>2023-03-04T09:56:01.000Z</time>
      </trkpt>
      <trkpt lat="43.52574" lon="6.65052">
        <ele>261.2</ele>
        <time>2023-03-04T09:56:36.000Z</time>
      </trkpt>
      <trkpt lat="43.52574" lon="6.65051">
        <ele>261.2</ele>
        <time>2023-03-04T09:56:37.000Z</time>
      </trkpt>
      <trkpt lat="43.52574" lon="6.65051">
        <ele>261.2</ele>
        <time>2023-03-04T09:56:38.000Z</time>
      </trkpt>
      <trkpt lat="43.52574" lon="6.65051">
        <ele>261.3</ele>
        <time>2023-03-04T09:56:39.000Z</time>
      </trkpt>
      <trkpt lat="43.52574" lon="6.6505">
        <ele>261.3</ele>
        <time>2023-03-04T09:56:40.000Z</time>
      </trkpt>
      <trkpt lat="43.52574" lon="6.6505">
        <ele>261.3</ele>
        <time>2023-03-04T09:56:41.000Z</time>
      </trkpt>
      <trkpt lat="43.52573" lon="6.6505">
        <ele>261.3</ele>
        <time>2023-03-04T09:56:42.000Z</time>
      </trkpt>
      <trkpt lat="43.52573" lon="6.6505">
        <ele>261.4</ele>
        <time>2023-03-04T09:56:43.000Z</time>
      </trkpt>
      <trkpt lat="43.52573" lon="6.65049">
        <ele>261.4</ele>
        <time>2023-03-04T09:56:44.000Z</time>
      </trkpt>
      <trkpt lat="43.52573" lon="6.65049">
        <ele>261.4</ele>
        <time>2023-03-04T09:56:45.000Z</time>
      </trkpt>
      <trkpt lat="43.52573" lon="6.65049">
        <ele>261.4</ele>
        <time>2023-03-04T09:56:46.000Z</time>
      </trkpt>
      <trkpt lat="43.52573" lon="6.65048">
        <ele>261.5</ele>
        <time>2023-03-04T09:56:47.000Z</time>
      </trkpt>
      <trkpt lat="43.52573" lon="6.65048">
        <ele>261.5</ele>
        <time>2023-03-04T09:56:53.000Z</time>
      </trkpt>
      <trkpt lat="43.52573" lon="6.65048">
        <ele>261.5</ele>
        <time>2023-03-04T09:56:54.000Z</time>
      </trkpt>
      <trkpt lat="43.52573" lon="6.65048">
        <ele>261.5</ele>
        <time>2023-03-04T09:56:55.000Z</time>
      </trkpt>
      <trkpt lat="43.52571" lon="6.65046">
        <ele>261.7</ele>
        <time>2023-03-04T09:56:56.000Z</time>
      </trkpt>
      <trkpt lat="43.52569" lon="6.65044">
        <ele>262</ele>
        <time>2023-03-04T09:56:58.000Z</time>
      </trkpt>
      <trkpt lat="43.52567" lon="6.65041">
        <ele>262.2</ele>
        <time>2023-03-04T09:56:59.000Z</time>
      </trkpt>
      <trkpt lat="43.52566" lon="6.6504">
        <ele>262.3</ele>
        <time>2023-03-04T09:57:00.000Z</time>
      </trkpt>
      <trkpt lat="43.52565" lon="6.65039">
        <ele>262.4</ele>
        <time>2023-03-04T09:57:01.000Z</time>
      </trkpt>
      <trkpt lat="43.52564" lon="6.65038">
        <ele>262.5</ele>
        <time>2023-03-04T09:57:02.000Z</time>
      </trkpt>
      <trkpt lat="43.52563" lon="6.65037">
        <ele>262.7</ele>
        <time>2023-03-04T09:57:03.000Z</time>
      </trkpt>
      <trkpt lat="43.52561" lon="6.65035">
        <ele>262.8</ele>
        <time>2023-03-04T09:57:05.000Z</time>
      </trkpt>
      <trkpt lat="43.52559" lon="6.65033">
        <ele>263.1</ele>
        <time>2023-03-04T09:57:06.000Z</time>
      </trkpt>
      <trkpt lat="43.52558" lon="6.65032">
        <ele>263.1</ele>
        <time>2023-03-04T09:57:07.000Z</time>
      </trkpt>
      <trkpt lat="43.52556" lon="6.65029">
        <ele>263.4</ele>
        <time>2023-03-04T09:57:08.000Z</time>
      </trkpt>
      <trkpt lat="43.52555" lon="6.65028">
        <ele>263.5</ele>
        <time>2023-03-04T09:57:09.000Z</time>
      </trkpt>
      <trkpt lat="43.52553" lon="6.65025">
        <ele>263.7</ele>
        <time>2023-03-04T09:57:10.000Z</time>
      </trkpt>
      <trkpt lat="43.52552" lon="6.65023">
        <ele>263.8</ele>
        <time>2023-03-04T09:57:11.000Z</time>
      </trkpt>
      <trkpt lat="43.5255" lon="6.6502">
        <ele>264.1</ele>
        <time>2023-03-04T09:57:13.000Z</time>
      </trkpt>
      <trkpt lat="43.52549" lon="6.65019">
        <ele>264.2</ele>
        <time>2023-03-04T09:57:14.000Z</time>
      </trkpt>
      <trkpt lat="43.52547" lon="6.65016">
        <ele>264.5</ele>
        <time>2023-03-04T09:57:15.000Z</time>
      </trkpt>
      <trkpt lat="43.52546" lon="6.65015">
        <ele>264.6</ele>
        <time>2023-03-04T09:57:16.000Z</time>
      </trkpt>
      <trkpt lat="43.52544" lon="6.65012">
        <ele>264.8</ele>
        <time>2023-03-04T09:57:17.000Z</time>
      </trkpt>
      <trkpt lat="43.52543" lon="6.65011">
        <ele>264.9</ele>
        <time>2023-03-04T09:57:18.000Z</time>
      </trkpt>
      <trkpt lat="43.52539" lon="6.65006">
        <ele>265.3</ele>
        <time>2023-03-04T09:57:20.000Z</time>
      </trkpt>
      <trkpt lat="43.52538" lon="6.65005">
        <ele>265.5</ele>
        <time>2023-03-04T09:57:21.000Z</time>
      </trkpt>
      <trkpt lat="43.52537" lon="6.65003">
        <ele>265.6</ele>
        <time>2023-03-04T09:57:22.000Z</time>
      </trkpt>
      <trkpt lat="43.52535" lon="6.65">
        <ele>265.8</ele>
        <time>2023-03-04T09:57:23.000Z</time>
      </trkpt>
      <trkpt lat="43.52532" lon="6.64997">
        <ele>266</ele>
        <time>2023-03-04T09:57:24.000Z</time>
      </trkpt>
      <trkpt lat="43.5253" lon="6.64993">
        <ele>266.1</ele>
        <time>2023-03-04T09:57:25.000Z</time>
      </trkpt>
      <trkpt lat="43.52528" lon="6.6499">
        <ele>266.3</ele>
        <time>2023-03-04T09:57:26.000Z</time>
      </trkpt>
      <trkpt lat="43.52525" lon="6.64987">
        <ele>266.4</ele>
        <time>2023-03-04T09:57:28.000Z</time>
      </trkpt>
      <trkpt lat="43.52523" lon="6.64984">
        <ele>266.5</ele>
        <time>2023-03-04T09:57:29.000Z</time>
      </trkpt>
      <trkpt lat="43.52519" lon="6.6498">
        <ele>266.7</ele>
        <time>2023-03-04T09:57:30.000Z</time>
      </trkpt>
      <trkpt lat="43.52516" lon="6.64977">
        <ele>266.8</ele>
        <time>2023-03-04T09:57:31.000Z</time>
      </trkpt>
      <trkpt lat="43.52513" lon="6.64974">
        <ele>266.9</ele>
        <time>2023-03-04T09:57:32.000Z</time>
      </trkpt>
      <trkpt lat="43.52511" lon="6.6497">
        <ele>267.1</ele>
        <time>2023-03-04T09:57:33.000Z</time>
      </trkpt>
      <trkpt lat="43.52508" lon="6.64966">
        <ele>267.3</ele>
        <time>2023-03-04T09:57:34.000Z</time>
      </trkpt>
      <trkpt lat="43.52507" lon="6.64965">
        <ele>267.3</ele>
        <time>2023-03-04T09:57:35.000Z</time>
      </trkpt>
      <trkpt lat="43.52505" lon="6.64961">
        <ele>267.5</ele>
        <time>2023-03-04T09:57:37.000Z</time>
      </trkpt>
      <trkpt lat="43.52503" lon="6.64959">
        <ele>267.6</ele>
        <time>2023-03-04T09:57:38.000Z</time>
      </trkpt>
      <trkpt lat="43.52499" lon="6.64955">
        <ele>267.9</ele>
        <time>2023-03-04T09:57:39.000Z</time>
      </trkpt>
      <trkpt lat="43.52497" lon="6.64952">
        <ele>268.2</ele>
        <time>2023-03-04T09:57:41.000Z</time>
      </trkpt>
      <trkpt lat="43.52495" lon="6.64948">
        <ele>268.5</ele>
        <time>2023-03-04T09:57:42.000Z</time>
      </trkpt>
      <trkpt lat="43.52492" lon="6.64945">
        <ele>268.9</ele>
        <time>2023-03-04T09:57:44.000Z</time>
      </trkpt>
      <trkpt lat="43.52489" lon="6.64942">
        <ele>269.2</ele>
        <time>2023-03-04T09:57:45.000Z</time>
      </trkpt>
      <trkpt lat="43.52487" lon="6.6494">
        <ele>269.5</ele>
        <time>2023-03-04T09:57:46.000Z</time>
      </trkpt>
      <trkpt lat="43.52485" lon="6.64937">
        <ele>269.8</ele>
        <time>2023-03-04T09:57:48.000Z</time>
      </trkpt>
      <trkpt lat="43.52482" lon="6.64935">
        <ele>270.1</ele>
        <time>2023-03-04T09:57:49.000Z</time>
      </trkpt>
      <trkpt lat="43.5248" lon="6.64932">
        <ele>270.5</ele>
        <time>2023-03-04T09:57:50.000Z</time>
      </trkpt>
      <trkpt lat="43.52479" lon="6.64931">
        <ele>270.6</ele>
        <time>2023-03-04T09:57:51.000Z</time>
      </trkpt>
      <trkpt lat="43.52477" lon="6.64928">
        <ele>270.9</ele>
        <time>2023-03-04T09:57:52.000Z</time>
      </trkpt>
      <trkpt lat="43.52475" lon="6.64925">
        <ele>271.1</ele>
        <time>2023-03-04T09:57:53.000Z</time>
      </trkpt>
      <trkpt lat="43.52473" lon="6.64923">
        <ele>271.3</ele>
        <time>2023-03-04T09:57:54.000Z</time>
      </trkpt>
      <trkpt lat="43.52471" lon="6.6492">
        <ele>271.4</ele>
        <time>2023-03-04T09:57:56.000Z</time>
      </trkpt>
      <trkpt lat="43.52468" lon="6.64918">
        <ele>271.6</ele>
        <time>2023-03-04T09:57:57.000Z</time>
      </trkpt>
      <trkpt lat="43.52466" lon="6.64915">
        <ele>271.6</ele>
        <time>2023-03-04T09:57:58.000Z</time>
      </trkpt>
      <trkpt lat="43.52462" lon="6.64912">
        <ele>271.6</ele>
        <time>2023-03-04T09:57:59.000Z</time>
      </trkpt>
      <trkpt lat="43.52459" lon="6.64911">
        <ele>271.6</ele>
        <time>2023-03-04T09:58:00.000Z</time>
      </trkpt>
      <trkpt lat="43.52454" lon="6.64909">
        <ele>271.3</ele>
        <time>2023-03-04T09:58:01.000Z</time>
      </trkpt>
      <trkpt lat="43.52448" lon="6.64908">
        <ele>271</ele>
        <time>2023-03-04T09:58:03.000Z</time>
      </trkpt>
      <trkpt lat="43.52443" lon="6.64907">
        <ele>270.5</ele>
        <time>2023-03-04T09:58:04.000Z</time>
      </trkpt>
      <trkpt lat="43.52438" lon="6.64907">
        <ele>270.1</ele>
        <time>2023-03-04T09:58:05.000Z</time>
      </trkpt>
      <trkpt lat="43.52432" lon="6.64906">
        <ele>269.5</ele>
        <time>2023-03-04T09:58:06.000Z</time>
      </trkpt>
      <trkpt lat="43.52425" lon="6.64905">
        <ele>268.7</ele>
        <time>2023-03-04T09:58:07.000Z</time>
      </trkpt>
      <trkpt lat="43.52419" lon="6.64905">
        <ele>268</ele>
        <time>2023-03-04T09:58:08.000Z</time>
      </trkpt>
      <trkpt lat="43.52413" lon="6.64905">
        <ele>267.4</ele>
        <time>2023-03-04T09:58:09.000Z</time>
      </trkpt>
      <trkpt lat="43.52408" lon="6.64906">
        <ele>266.9</ele>
        <time>2023-03-04T09:58:10.000Z</time>
      </trkpt>
      <trkpt lat="43.52403" lon="6.64906">
        <ele>266.3</ele>
        <time>2023-03-04T09:58:11.000Z</time>
      </trkpt>
      <trkpt lat="43.52399" lon="6.64906">
        <ele>265.8</ele>
        <time>2023-03-04T09:58:12.000Z</time>
      </trkpt>
      <trkpt lat="43.52394" lon="6.64906">
        <ele>265.4</ele>
        <time>2023-03-04T09:58:13.000Z</time>
      </trkpt>
      <trkpt lat="43.5239" lon="6.64907">
        <ele>264.9</ele>
        <time>2023-03-04T09:58:14.000Z</time>
      </trkpt>
      <trkpt lat="43.52385" lon="6.64907">
        <ele>264.5</ele>
        <time>2023-03-04T09:58:15.000Z</time>
      </trkpt>
      <trkpt lat="43.52379" lon="6.64907">
        <ele>263.9</ele>
        <time>2023-03-04T09:58:17.000Z</time>
      </trkpt>
      <trkpt lat="43.52376" lon="6.64907">
        <ele>263.6</ele>
        <time>2023-03-04T09:58:18.000Z</time>
      </trkpt>
      <trkpt lat="43.52366" lon="6.64908">
        <ele>262.8</ele>
        <time>2023-03-04T09:58:19.000Z</time>
      </trkpt>
      <trkpt lat="43.52361" lon="6.64908">
        <ele>262.3</ele>
        <time>2023-03-04T09:58:20.000Z</time>
      </trkpt>
      <trkpt lat="43.52356" lon="6.64909">
        <ele>261.9</ele>
        <time>2023-03-04T09:58:21.000Z</time>
      </trkpt>
      <trkpt lat="43.52351" lon="6.64908">
        <ele>261.6</ele>
        <time>2023-03-04T09:58:22.000Z</time>
      </trkpt>
      <trkpt lat="43.52346" lon="6.64907">
        <ele>261.2</ele>
        <time>2023-03-04T09:58:23.000Z</time>
      </trkpt>
      <trkpt lat="43.52342" lon="6.64906">
        <ele>260.9</ele>
        <time>2023-03-04T09:58:24.000Z</time>
      </trkpt>
      <trkpt lat="43.52337" lon="6.64906">
        <ele>260.6</ele>
        <time>2023-03-04T09:58:25.000Z</time>
      </trkpt>
      <trkpt lat="43.52332" lon="6.64905">
        <ele>260.4</ele>
        <time>2023-03-04T09:58:26.000Z</time>
      </trkpt>
      <trkpt lat="43.52328" lon="6.64906">
        <ele>260.1</ele>
        <time>2023-03-04T09:58:27.000Z</time>
      </trkpt>
      <trkpt lat="43.52323" lon="6.64905">
        <ele>260</ele>
        <time>2023-03-04T09:58:28.000Z</time>
      </trkpt>
      <trkpt lat="43.52318" lon="6.64905">
        <ele>259.8</ele>
        <time>2023-03-04T09:58:29.000Z</time>
      </trkpt>
      <trkpt lat="43.52314" lon="6.64906">
        <ele>259.7</ele>
        <time>2023-03-04T09:58:31.000Z</time>
      </trkpt>
      <trkpt lat="43.52304" lon="6.64904">
        <ele>259.3</ele>
        <time>2023-03-04T09:58:32.000Z</time>
      </trkpt>
      <trkpt lat="43.52299" lon="6.64904">
        <ele>259.2</ele>
        <time>2023-03-04T09:58:33.000Z</time>
      </trkpt>
      <trkpt lat="43.52293" lon="6.64903">
        <ele>259</ele>
        <time>2023-03-04T09:58:34.000Z</time>
      </trkpt>
      <trkpt lat="43.52288" lon="6.64903">
        <ele>258.8</ele>
        <time>2023-03-04T09:58:35.000Z</time>
      </trkpt>
      <trkpt lat="43.52282" lon="6.64902">
        <ele>258.7</ele>
        <time>2023-03-04T09:58:36.000Z</time>
      </trkpt>
      <trkpt lat="43.52277" lon="6.64902">
        <ele>258.7</ele>
        <time>2023-03-04T09:58:37.000Z</time>
      </trkpt>
      <trkpt lat="43.52271" lon="6.64902">
        <ele>258.6</ele>
        <time>2023-03-04T09:58:38.000Z</time>
      </trkpt>
      <trkpt lat="43.52266" lon="6.64902">
        <ele>258.6</ele>
        <time>2023-03-04T09:58:39.000Z</time>
      </trkpt>
      <trkpt lat="43.52262" lon="6.64902">
        <ele>258.6</ele>
        <time>2023-03-04T09:58:40.000Z</time>
      </trkpt>
      <trkpt lat="43.52257" lon="6.64902">
        <ele>258.5</ele>
        <time>2023-03-04T09:58:42.000Z</time>
      </trkpt>
      <trkpt lat="43.52255" lon="6.64903">
        <ele>258.5</ele>
        <time>2023-03-04T09:58:43.000Z</time>
      </trkpt>
      <trkpt lat="43.5225" lon="6.64903">
        <ele>258.5</ele>
        <time>2023-03-04T09:58:44.000Z</time>
      </trkpt>
      <trkpt lat="43.52246" lon="6.64903">
        <ele>258.4</ele>
        <time>2023-03-04T09:58:45.000Z</time>
      </trkpt>
      <trkpt lat="43.52243" lon="6.64903">
        <ele>258.4</ele>
        <time>2023-03-04T09:58:46.000Z</time>
      </trkpt>
      <trkpt lat="43.52239" lon="6.64904">
        <ele>258.4</ele>
        <time>2023-03-04T09:58:47.000Z</time>
      </trkpt>
      <trkpt lat="43.52235" lon="6.64905">
        <ele>258.3</ele>
        <time>2023-03-04T09:58:48.000Z</time>
      </trkpt>
      <trkpt lat="43.52229" lon="6.64905">
        <ele>258.2</ele>
        <time>2023-03-04T09:58:50.000Z</time>
      </trkpt>
      <trkpt lat="43.52225" lon="6.64903">
        <ele>258.2</ele>
        <time>2023-03-04T09:58:51.000Z</time>
      </trkpt>
      <trkpt lat="43.5222" lon="6.64903">
        <ele>258.2</ele>
        <time>2023-03-04T09:58:52.000Z</time>
      </trkpt>
      <trkpt lat="43.52212" lon="6.64904">
        <ele>258.2</ele>
        <time>2023-03-04T09:58:53.000Z</time>
      </trkpt>
      <trkpt lat="43.52207" lon="6.64903">
        <ele>258.3</ele>
        <time>2023-03-04T09:58:54.000Z</time>
      </trkpt>
      <trkpt lat="43.52203" lon="6.64902">
        <ele>258.4</ele>
        <time>2023-03-04T09:58:55.000Z</time>
      </trkpt>
      <trkpt lat="43.52199" lon="6.649">
        <ele>258.5</ele>
        <time>2023-03-04T09:58:57.000Z</time>
      </trkpt>
      <trkpt lat="43.52195" lon="6.64899">
        <ele>258.7</ele>
        <time>2023-03-04T09:58:58.000Z</time>
      </trkpt>
      <trkpt lat="43.52191" lon="6.64897">
        <ele>258.8</ele>
        <time>2023-03-04T09:58:59.000Z</time>
      </trkpt>
      <trkpt lat="43.52189" lon="6.64896">
        <ele>258.9</ele>
        <time>2023-03-04T09:59:00.000Z</time>
      </trkpt>
      <trkpt lat="43.52188" lon="6.64895">
        <ele>258.9</ele>
        <time>2023-03-04T09:59:01.000Z</time>
      </trkpt>
      <trkpt lat="43.52187" lon="6.64896">
        <ele>258.9</ele>
        <time>2023-03-04T09:59:02.000Z</time>
      </trkpt>
      <trkpt lat="43.52187" lon="6.64896">
        <ele>258.9</ele>
        <time>2023-03-04T09:59:04.000Z</time>
      </trkpt>
      <trkpt lat="43.52186" lon="6.64897">
        <ele>259</ele>
        <time>2023-03-04T09:59:05.000Z</time>
      </trkpt>
      <trkpt lat="43.52186" lon="6.64897">
        <ele>259</ele>
        <time>2023-03-04T09:59:07.000Z</time>
      </trkpt>
      <trkpt lat="43.52186" lon="6.64898">
        <ele>259</ele>
        <time>2023-03-04T09:59:08.000Z</time>
      </trkpt>
      <trkpt lat="43.52185" lon="6.64898">
        <ele>259</ele>
        <time>2023-03-04T09:59:09.000Z</time>
      </trkpt>
      <trkpt lat="43.52185" lon="6.64899">
        <ele>259</ele>
        <time>2023-03-04T09:59:11.000Z</time>
      </trkpt>
      <trkpt lat="43.52185" lon="6.64899">
        <ele>259</ele>
        <time>2023-03-04T09:59:12.000Z</time>
      </trkpt>
      <trkpt lat="43.52184" lon="6.649">
        <ele>259.1</ele>
        <time>2023-03-04T10:01:03.000Z</time>
      </trkpt>
      <trkpt lat="43.52184" lon="6.649">
        <ele>259.1</ele>
        <time>2023-03-04T10:01:04.000Z</time>
      </trkpt>
      <trkpt lat="43.52183" lon="6.64901">
        <ele>259.1</ele>
        <time>2023-03-04T10:01:05.000Z</time>
      </trkpt>
      <trkpt lat="43.52183" lon="6.64901">
        <ele>259.1</ele>
        <time>2023-03-04T10:01:06.000Z</time>
      </trkpt>
      <trkpt lat="43.52183" lon="6.64902">
        <ele>259.2</ele>
        <time>2023-03-04T10:01:07.000Z</time>
      </trkpt>
      <trkpt lat="43.52182" lon="6.64902">
        <ele>259.2</ele>
        <time>2023-03-04T10:01:08.000Z</time>
      </trkpt>
      <trkpt lat="43.52182" lon="6.64903">
        <ele>259.2</ele>
        <time>2023-03-04T10:01:09.000Z</time>
      </trkpt>
      <trkpt lat="43.52182" lon="6.64904">
        <ele>259.2</ele>
        <time>2023-03-04T10:01:10.000Z</time>
      </trkpt>
      <trkpt lat="43.52181" lon="6.64904">
        <ele>259.2</ele>
        <time>2023-03-04T10:01:11.000Z</time>
      </trkpt>
      <trkpt lat="43.52181" lon="6.64905">
        <ele>259.3</ele>
        <time>2023-03-04T10:01:12.000Z</time>
      </trkpt>
      <trkpt lat="43.5218" lon="6.64905">
        <ele>259.3</ele>
        <time>2023-03-04T10:01:13.000Z</time>
      </trkpt>
      <trkpt lat="43.5218" lon="6.64906">
        <ele>259.3</ele>
        <time>2023-03-04T10:01:14.000Z</time>
      </trkpt>
      <trkpt lat="43.5218" lon="6.64906">
        <ele>259.3</ele>
        <time>2023-03-04T10:01:15.000Z</time>
      </trkpt>
      <trkpt lat="43.52179" lon="6.64907">
        <ele>259.3</ele>
        <time>2023-03-04T10:03:50.000Z</time>
      </trkpt>
      <trkpt lat="43.52179" lon="6.64907">
        <ele>259.4</ele>
        <time>2023-03-04T10:03:51.000Z</time>
      </trkpt>
      <trkpt lat="43.52179" lon="6.64908">
        <ele>259.4</ele>
        <time>2023-03-04T10:03:52.000Z</time>
      </trkpt>
      <trkpt lat="43.52175" lon="6.64909">
        <ele>259.5</ele>
        <time>2023-03-04T10:03:53.000Z</time>
      </trkpt>
      <trkpt lat="43.52174" lon="6.6491">
        <ele>259.6</ele>
        <time>2023-03-04T10:03:54.000Z</time>
      </trkpt>
      <trkpt lat="43.52172" lon="6.64911">
        <ele>259.7</ele>
        <time>2023-03-04T10:03:55.000Z</time>
      </trkpt>
      <trkpt lat="43.5217" lon="6.64911">
        <ele>259.7</ele>
        <time>2023-03-04T10:03:57.000Z</time>
      </trkpt>
      <trkpt lat="43.52169" lon="6.64912">
        <ele>259.8</ele>
        <time>2023-03-04T10:03:58.000Z</time>
      </trkpt>
      <trkpt lat="43.52167" lon="6.64913">
        <ele>259.9</ele>
        <time>2023-03-04T10:03:59.000Z</time>
      </trkpt>
      <trkpt lat="43.52166" lon="6.64913">
        <ele>259.9</ele>
        <time>2023-03-04T10:04:00.000Z</time>
      </trkpt>
      <trkpt lat="43.52164" lon="6.64912">
        <ele>260</ele>
        <time>2023-03-04T10:04:02.000Z</time>
      </trkpt>
      <trkpt lat="43.52163" lon="6.64911">
        <ele>260</ele>
        <time>2023-03-04T10:04:03.000Z</time>
      </trkpt>
      <trkpt lat="43.52161" lon="6.64912">
        <ele>259.8</ele>
        <time>2023-03-04T10:04:05.000Z</time>
      </trkpt>
      <trkpt lat="43.52159" lon="6.64912">
        <ele>259.6</ele>
        <time>2023-03-04T10:04:06.000Z</time>
      </trkpt>
      <trkpt lat="43.52158" lon="6.64913">
        <ele>259.4</ele>
        <time>2023-03-04T10:04:07.000Z</time>
      </trkpt>
      <trkpt lat="43.52157" lon="6.64916">
        <ele>259.2</ele>
        <time>2023-03-04T10:04:09.000Z</time>
      </trkpt>
      <trkpt lat="43.52155" lon="6.6492">
        <ele>258.8</ele>
        <time>2023-03-04T10:04:10.000Z</time>
      </trkpt>
      <trkpt lat="43.52155" lon="6.64921">
        <ele>258.8</ele>
        <time>2023-03-04T10:04:11.000Z</time>
      </trkpt>
      <trkpt lat="43.52153" lon="6.64925">
        <ele>258.3</ele>
        <time>2023-03-04T10:04:13.000Z</time>
      </trkpt>
      <trkpt lat="43.52152" lon="6.64926">
        <ele>258.2</ele>
        <time>2023-03-04T10:04:14.000Z</time>
      </trkpt>
      <trkpt lat="43.5215" lon="6.6493">
        <ele>257.8</ele>
        <time>2023-03-04T10:04:15.000Z</time>
      </trkpt>
      <trkpt lat="43.52149" lon="6.64931">
        <ele>257.7</ele>
        <time>2023-03-04T10:04:16.000Z</time>
      </trkpt>
      <trkpt lat="43.52145" lon="6.64934">
        <ele>257.2</ele>
        <time>2023-03-04T10:04:17.000Z</time>
      </trkpt>
      <trkpt lat="43.52144" lon="6.64936">
        <ele>257</ele>
        <time>2023-03-04T10:04:18.000Z</time>
      </trkpt>
      <trkpt lat="43.52142" lon="6.64938">
        <ele>256.7</ele>
        <time>2023-03-04T10:04:19.000Z</time>
      </trkpt>
      <trkpt lat="43.52139" lon="6.64941">
        <ele>256.3</ele>
        <time>2023-03-04T10:04:20.000Z</time>
      </trkpt>
      <trkpt lat="43.52137" lon="6.64943">
        <ele>256.1</ele>
        <time>2023-03-04T10:04:21.000Z</time>
      </trkpt>
      <trkpt lat="43.52134" lon="6.64946">
        <ele>255.6</ele>
        <time>2023-03-04T10:04:23.000Z</time>
      </trkpt>
      <trkpt lat="43.52131" lon="6.64948">
        <ele>255.3</ele>
        <time>2023-03-04T10:04:24.000Z</time>
      </trkpt>
      <trkpt lat="43.52127" lon="6.64952">
        <ele>254.8</ele>
        <time>2023-03-04T10:04:25.000Z</time>
      </trkpt>
      <trkpt lat="43.52125" lon="6.64955">
        <ele>254.5</ele>
        <time>2023-03-04T10:04:26.000Z</time>
      </trkpt>
      <trkpt lat="43.52122" lon="6.64958">
        <ele>254.1</ele>
        <time>2023-03-04T10:04:27.000Z</time>
      </trkpt>
      <trkpt lat="43.52119" lon="6.64961">
        <ele>253.7</ele>
        <time>2023-03-04T10:04:28.000Z</time>
      </trkpt>
      <trkpt lat="43.52115" lon="6.64964">
        <ele>253.3</ele>
        <time>2023-03-04T10:04:30.000Z</time>
      </trkpt>
      <trkpt lat="43.52111" lon="6.64969">
        <ele>252.8</ele>
        <time>2023-03-04T10:04:31.000Z</time>
      </trkpt>
      <trkpt lat="43.52106" lon="6.64973">
        <ele>252.2</ele>
        <time>2023-03-04T10:04:32.000Z</time>
      </trkpt>
      <trkpt lat="43.52103" lon="6.64975">
        <ele>251.9</ele>
        <time>2023-03-04T10:04:33.000Z</time>
      </trkpt>
      <trkpt lat="43.521" lon="6.64977">
        <ele>251.5</ele>
        <time>2023-03-04T10:04:35.000Z</time>
      </trkpt>
      <trkpt lat="43.52096" lon="6.6498">
        <ele>251.1</ele>
        <time>2023-03-04T10:04:36.000Z</time>
      </trkpt>
      <trkpt lat="43.52093" lon="6.64981">
        <ele>250.8</ele>
        <time>2023-03-04T10:04:37.000Z</time>
      </trkpt>
      <trkpt lat="43.52089" lon="6.64982">
        <ele>250.4</ele>
        <time>2023-03-04T10:04:38.000Z</time>
      </trkpt>
      <trkpt lat="43.52085" lon="6.64983">
        <ele>250</ele>
        <time>2023-03-04T10:04:39.000Z</time>
      </trkpt>
      <trkpt lat="43.52081" lon="6.64984">
        <ele>249.6</ele>
        <time>2023-03-04T10:04:40.000Z</time>
      </trkpt>
      <trkpt lat="43.52074" lon="6.64985">
        <ele>249</ele>
        <time>2023-03-04T10:04:42.000Z</time>
      </trkpt>
      <trkpt lat="43.5207" lon="6.64986">
        <ele>248.5</ele>
        <time>2023-03-04T10:04:43.000Z</time>
      </trkpt>
      <trkpt lat="43.52065" lon="6.64986">
        <ele>248</ele>
        <time>2023-03-04T10:04:44.000Z</time>
      </trkpt>
      <trkpt lat="43.5206" lon="6.64986">
        <ele>247.7</ele>
        <time>2023-03-04T10:04:45.000Z</time>
      </trkpt>
      <trkpt lat="43.52056" lon="6.64984">
        <ele>247.4</ele>
        <time>2023-03-04T10:04:47.000Z</time>
      </trkpt>
      <trkpt lat="43.52054" lon="6.64982">
        <ele>247.2</ele>
        <time>2023-03-04T10:04:48.000Z</time>
      </trkpt>
      <trkpt lat="43.52051" lon="6.6498">
        <ele>247.1</ele>
        <time>2023-03-04T10:04:49.000Z</time>
      </trkpt>
      <trkpt lat="43.52047" lon="6.64978">
        <ele>246.8</ele>
        <time>2023-03-04T10:04:50.000Z</time>
      </trkpt>
      <trkpt lat="43.52044" lon="6.64978">
        <ele>246.7</ele>
        <time>2023-03-04T10:04:51.000Z</time>
      </trkpt>
      <trkpt lat="43.52041" lon="6.6498">
        <ele>246.5</ele>
        <time>2023-03-04T10:04:52.000Z</time>
      </trkpt>
      <trkpt lat="43.52037" lon="6.64982">
        <ele>246.3</ele>
        <time>2023-03-04T10:04:54.000Z</time>
      </trkpt>
      <trkpt lat="43.52034" lon="6.64984">
        <ele>246.1</ele>
        <time>2023-03-04T10:04:55.000Z</time>
      </trkpt>
      <trkpt lat="43.52032" lon="6.64985">
        <ele>246</ele>
        <time>2023-03-04T10:04:56.000Z</time>
      </trkpt>
      <trkpt lat="43.5203" lon="6.64987">
        <ele>245.8</ele>
        <time>2023-03-04T10:04:57.000Z</time>
      </trkpt>
      <trkpt lat="43.52028" lon="6.64991">
        <ele>245.6</ele>
        <time>2023-03-04T10:04:58.000Z</time>
      </trkpt>
      <trkpt lat="43.52026" lon="6.64995">
        <ele>245.4</ele>
        <time>2023-03-04T10:05:00.000Z</time>
      </trkpt>
      <trkpt lat="43.52025" lon="6.64996">
        <ele>245.4</ele>
        <time>2023-03-04T10:05:01.000Z</time>
      </trkpt>
      <trkpt lat="43.52024" lon="6.64997">
        <ele>245.3</ele>
        <time>2023-03-04T10:05:02.000Z</time>
      </trkpt>
      <trkpt lat="43.52023" lon="6.64999">
        <ele>245.2</ele>
        <time>2023-03-04T10:05:04.000Z</time>
      </trkpt>
      <trkpt lat="43.52019" lon="6.65001">
        <ele>244.9</ele>
        <time>2023-03-04T10:05:05.000Z</time>
      </trkpt>
      <trkpt lat="43.52016" lon="6.65004">
        <ele>244.7</ele>
        <time>2023-03-04T10:05:07.000Z</time>
      </trkpt>
      <trkpt lat="43.52015" lon="6.65005">
        <ele>244.7</ele>
        <time>2023-03-04T10:05:08.000Z</time>
      </trkpt>
      <trkpt lat="43.52013" lon="6.65008">
        <ele>244.5</ele>
        <time>2023-03-04T10:05:09.000Z</time>
      </trkpt>
      <trkpt lat="43.5201" lon="6.65011">
        <ele>244.3</ele>
        <time>2023-03-04T10:05:10.000Z</time>
      </trkpt>
      <trkpt lat="43.52008" lon="6.65013">
        <ele>244.1</ele>
        <time>2023-03-04T10:05:11.000Z</time>
      </trkpt>
      <trkpt lat="43.52009" lon="6.65012">
        <ele>244.1</ele>
        <time>2023-03-04T10:05:12.000Z</time>
      </trkpt>
      <trkpt lat="43.52009" lon="6.65012">
        <ele>244</ele>
        <time>2023-03-04T10:05:14.000Z</time>
      </trkpt>
      <trkpt lat="43.52009" lon="6.65012">
        <ele>244</ele>
        <time>2023-03-04T10:05:15.000Z</time>
      </trkpt>
      <trkpt lat="43.52009" lon="6.65012">
        <ele>244</ele>
        <time>2023-03-04T10:05:17.000Z</time>
      </trkpt>
      <trkpt lat="43.5201" lon="6.65012">
        <ele>244</ele>
        <time>2023-03-04T10:05:18.000Z</time>
      </trkpt>
      <trkpt lat="43.52009" lon="6.65012">
        <ele>244</ele>
        <time>2023-03-04T10:05:19.000Z</time>
      </trkpt>
      <trkpt lat="43.52009" lon="6.65012">
        <ele>244</ele>
        <time>2023-03-04T10:05:21.000Z</time>
      </trkpt>
      <trkpt lat="43.52009" lon="6.65013">
        <ele>243.9</ele>
        <time>2023-03-04T10:05:22.000Z</time>
      </trkpt>
      <trkpt lat="43.52008" lon="6.65013">
        <ele>243.9</ele>
        <time>2023-03-04T10:05:23.000Z</time>
      </trkpt>
      <trkpt lat="43.52008" lon="6.65015">
        <ele>243.8</ele>
        <time>2023-03-04T10:05:24.000Z</time>
      </trkpt>
      <trkpt lat="43.52007" lon="6.65015">
        <ele>243.8</ele>
        <time>2023-03-04T10:05:25.000Z</time>
      </trkpt>
      <trkpt lat="43.52006" lon="6.65016">
        <ele>243.7</ele>
        <time>2023-03-04T10:05:26.000Z</time>
      </trkpt>
      <trkpt lat="43.52005" lon="6.65018">
        <ele>243.6</ele>
        <time>2023-03-04T10:05:27.000Z</time>
      </trkpt>
      <trkpt lat="43.52003" lon="6.65019">
        <ele>243.5</ele>
        <time>2023-03-04T10:05:29.000Z</time>
      </trkpt>
      <trkpt lat="43.52002" lon="6.65021">
        <ele>243.4</ele>
        <time>2023-03-04T10:05:30.000Z</time>
      </trkpt>
      <trkpt lat="43.51998" lon="6.65023">
        <ele>243</ele>
        <time>2023-03-04T10:05:32.000Z</time>
      </trkpt>
      <trkpt lat="43.51995" lon="6.65026">
        <ele>242.8</ele>
        <time>2023-03-04T10:05:33.000Z</time>
      </trkpt>
      <trkpt lat="43.51991" lon="6.65029">
        <ele>242.5</ele>
        <time>2023-03-04T10:05:34.000Z</time>
      </trkpt>
      <trkpt lat="43.51987" lon="6.65032">
        <ele>242.2</ele>
        <time>2023-03-04T10:05:35.000Z</time>
      </trkpt>
      <trkpt lat="43.51983" lon="6.65035">
        <ele>241.9</ele>
        <time>2023-03-04T10:05:36.000Z</time>
      </trkpt>
      <trkpt lat="43.5198" lon="6.65036">
        <ele>241.6</ele>
        <time>2023-03-04T10:05:37.000Z</time>
      </trkpt>
      <trkpt lat="43.51976" lon="6.65039">
        <ele>241.3</ele>
        <time>2023-03-04T10:05:39.000Z</time>
      </trkpt>
      <trkpt lat="43.51971" lon="6.65042">
        <ele>240.9</ele>
        <time>2023-03-04T10:05:40.000Z</time>
      </trkpt>
      <trkpt lat="43.51967" lon="6.65045">
        <ele>240.5</ele>
        <time>2023-03-04T10:05:41.000Z</time>
      </trkpt>
      <trkpt lat="43.51962" lon="6.65048">
        <ele>240.2</ele>
        <time>2023-03-04T10:05:42.000Z</time>
      </trkpt>
      <trkpt lat="43.51959" lon="6.65049">
        <ele>239.9</ele>
        <time>2023-03-04T10:05:43.000Z</time>
      </trkpt>
      <trkpt lat="43.51955" lon="6.65049">
        <ele>239.7</ele>
        <time>2023-03-04T10:05:45.000Z</time>
      </trkpt>
      <trkpt lat="43.51949" lon="6.65049">
        <ele>239.2</ele>
        <time>2023-03-04T10:05:46.000Z</time>
      </trkpt>
      <trkpt lat="43.51944" lon="6.65049">
        <ele>238.9</ele>
        <time>2023-03-04T10:05:47.000Z</time>
      </trkpt>
      <trkpt lat="43.5194" lon="6.65048">
        <ele>238.6</ele>
        <time>2023-03-04T10:05:48.000Z</time>
      </trkpt>
      <trkpt lat="43.51936" lon="6.65049">
        <ele>238.3</ele>
        <time>2023-03-04T10:05:50.000Z</time>
      </trkpt>
      <trkpt lat="43.5193" lon="6.65049">
        <ele>237.8</ele>
        <time>2023-03-04T10:05:51.000Z</time>
      </trkpt>
      <trkpt lat="43.51924" lon="6.65049">
        <ele>237.4</ele>
        <time>2023-03-04T10:05:52.000Z</time>
      </trkpt>
      <trkpt lat="43.51918" lon="6.65051">
        <ele>237</ele>
        <time>2023-03-04T10:05:54.000Z</time>
      </trkpt>
      <trkpt lat="43.51915" lon="6.65052">
        <ele>236.8</ele>
        <time>2023-03-04T10:05:55.000Z</time>
      </trkpt>
      <trkpt lat="43.5191" lon="6.65054">
        <ele>236.4</ele>
        <time>2023-03-04T10:05:56.000Z</time>
      </trkpt>
      <trkpt lat="43.51907" lon="6.65056">
        <ele>236.2</ele>
        <time>2023-03-04T10:05:57.000Z</time>
      </trkpt>
      <trkpt lat="43.51903" lon="6.65057">
        <ele>235.9</ele>
        <time>2023-03-04T10:05:58.000Z</time>
      </trkpt>
      <trkpt lat="43.51901" lon="6.65058">
        <ele>235.8</ele>
        <time>2023-03-04T10:05:59.000Z</time>
      </trkpt>
      <trkpt lat="43.51897" lon="6.65058">
        <ele>235.5</ele>
        <time>2023-03-04T10:06:00.000Z</time>
      </trkpt>
      <trkpt lat="43.51894" lon="6.65059">
        <ele>235.3</ele>
        <time>2023-03-04T10:06:01.000Z</time>
      </trkpt>
      <trkpt lat="43.51892" lon="6.65058">
        <ele>235.2</ele>
        <time>2023-03-04T10:06:03.000Z</time>
      </trkpt>
      <trkpt lat="43.51891" lon="6.65057">
        <ele>235.1</ele>
        <time>2023-03-04T10:06:04.000Z</time>
      </trkpt>
      <trkpt lat="43.51888" lon="6.65059">
        <ele>234.9</ele>
        <time>2023-03-04T10:06:05.000Z</time>
      </trkpt>
      <trkpt lat="43.51884" lon="6.6506">
        <ele>234.6</ele>
        <time>2023-03-04T10:06:06.000Z</time>
      </trkpt>
      <trkpt lat="43.5188" lon="6.65061">
        <ele>234.4</ele>
        <time>2023-03-04T10:06:07.000Z</time>
      </trkpt>
      <trkpt lat="43.51877" lon="6.65062">
        <ele>234.2</ele>
        <time>2023-03-04T10:06:08.000Z</time>
      </trkpt>
      <trkpt lat="43.51874" lon="6.65064">
        <ele>234</ele>
        <time>2023-03-04T10:06:09.000Z</time>
      </trkpt>
      <trkpt lat="43.51871" lon="6.65067">
        <ele>233.8</ele>
        <time>2023-03-04T10:06:11.000Z</time>
      </trkpt>
      <trkpt lat="43.51871" lon="6.65068">
        <ele>233.7</ele>
        <time>2023-03-04T10:06:12.000Z</time>
      </trkpt>
      <trkpt lat="43.51867" lon="6.65069">
        <ele>233.5</ele>
        <time>2023-03-04T10:06:13.000Z</time>
      </trkpt>
      <trkpt lat="43.51865" lon="6.65069">
        <ele>233.4</ele>
        <time>2023-03-04T10:06:14.000Z</time>
      </trkpt>
      <trkpt lat="43.51862" lon="6.65069">
        <ele>233.2</ele>
        <time>2023-03-04T10:06:15.000Z</time>
      </trkpt>
      <trkpt lat="43.51858" lon="6.65071">
        <ele>232.9</ele>
        <time>2023-03-04T10:06:16.000Z</time>
      </trkpt>
      <trkpt lat="43.51855" lon="6.65073">
        <ele>232.7</ele>
        <time>2023-03-04T10:06:18.000Z</time>
      </trkpt>
      <trkpt lat="43.51851" lon="6.65074">
        <ele>232.5</ele>
        <time>2023-03-04T10:06:19.000Z</time>
      </trkpt>
      <trkpt lat="43.51847" lon="6.65076">
        <ele>232.2</ele>
        <time>2023-03-04T10:06:20.000Z</time>
      </trkpt>
      <trkpt lat="43.51842" lon="6.65077">
        <ele>231.9</ele>
        <time>2023-03-04T10:06:21.000Z</time>
      </trkpt>
      <trkpt lat="43.51838" lon="6.65077">
        <ele>231.7</ele>
        <time>2023-03-04T10:06:22.000Z</time>
      </trkpt>
      <trkpt lat="43.51835" lon="6.65076">
        <ele>231.5</ele>
        <time>2023-03-04T10:06:23.000Z</time>
      </trkpt>
      <trkpt lat="43.51832" lon="6.65075">
        <ele>231.3</ele>
        <time>2023-03-04T10:06:25.000Z</time>
      </trkpt>
      <trkpt lat="43.51829" lon="6.65074">
        <ele>231.1</ele>
        <time>2023-03-04T10:06:26.000Z</time>
      </trkpt>
      <trkpt lat="43.51825" lon="6.65074">
        <ele>230.9</ele>
        <time>2023-03-04T10:06:27.000Z</time>
      </trkpt>
      <trkpt lat="43.51821" lon="6.65074">
        <ele>230.6</ele>
        <time>2023-03-04T10:06:28.000Z</time>
      </trkpt>
      <trkpt lat="43.51817" lon="6.65075">
        <ele>230.3</ele>
        <time>2023-03-04T10:06:29.000Z</time>
      </trkpt>
      <trkpt lat="43.51814" lon="6.65078">
        <ele>230.1</ele>
        <time>2023-03-04T10:06:30.000Z</time>
      </trkpt>
      <trkpt lat="43.5181" lon="6.6508">
        <ele>229.9</ele>
        <time>2023-03-04T10:06:32.000Z</time>
      </trkpt>
      <trkpt lat="43.51806" lon="6.65083">
        <ele>229.6</ele>
        <time>2023-03-04T10:06:33.000Z</time>
      </trkpt>
      <trkpt lat="43.51804" lon="6.65086">
        <ele>229.4</ele>
        <time>2023-03-04T10:06:35.000Z</time>
      </trkpt>
      <trkpt lat="43.51801" lon="6.6509">
        <ele>229.2</ele>
        <time>2023-03-04T10:06:36.000Z</time>
      </trkpt>
      <trkpt lat="43.51799" lon="6.65093">
        <ele>229</ele>
        <time>2023-03-04T10:06:37.000Z</time>
      </trkpt>
      <trkpt lat="43.51796" lon="6.65097">
        <ele>228.8</ele>
        <time>2023-03-04T10:06:38.000Z</time>
      </trkpt>
      <trkpt lat="43.51793" lon="6.65099">
        <ele>228.6</ele>
        <time>2023-03-04T10:06:39.000Z</time>
      </trkpt>
      <trkpt lat="43.51788" lon="6.65101">
        <ele>228.3</ele>
        <time>2023-03-04T10:06:41.000Z</time>
      </trkpt>
      <trkpt lat="43.51784" lon="6.65101">
        <ele>228.1</ele>
        <time>2023-03-04T10:06:42.000Z</time>
      </trkpt>
      <trkpt lat="43.5178" lon="6.65101">
        <ele>227.9</ele>
        <time>2023-03-04T10:06:43.000Z</time>
      </trkpt>
      <trkpt lat="43.51776" lon="6.651">
        <ele>227.6</ele>
        <time>2023-03-04T10:06:45.000Z</time>
      </trkpt>
      <trkpt lat="43.51773" lon="6.65099">
        <ele>227.5</ele>
        <time>2023-03-04T10:06:46.000Z</time>
      </trkpt>
      <trkpt lat="43.51769" lon="6.651">
        <ele>227.2</ele>
        <time>2023-03-04T10:06:47.000Z</time>
      </trkpt>
      <trkpt lat="43.51766" lon="6.65102">
        <ele>227</ele>
        <time>2023-03-04T10:06:48.000Z</time>
      </trkpt>
      <trkpt lat="43.51764" lon="6.65102">
        <ele>227</ele>
        <time>2023-03-04T10:06:49.000Z</time>
      </trkpt>
      <trkpt lat="43.51762" lon="6.65105">
        <ele>226.8</ele>
        <time>2023-03-04T10:06:50.000Z</time>
      </trkpt>
      <trkpt lat="43.5176" lon="6.65107">
        <ele>226.7</ele>
        <time>2023-03-04T10:06:51.000Z</time>
      </trkpt>
      <trkpt lat="43.51757" lon="6.65109">
        <ele>226.6</ele>
        <time>2023-03-04T10:06:52.000Z</time>
      </trkpt>
      <trkpt lat="43.51753" lon="6.65111">
        <ele>226.4</ele>
        <time>2023-03-04T10:06:54.000Z</time>
      </trkpt>
      <trkpt lat="43.5175" lon="6.65112">
        <ele>226.3</ele>
        <time>2023-03-04T10:06:55.000Z</time>
      </trkpt>
      <trkpt lat="43.51744" lon="6.65112">
        <ele>226</ele>
        <time>2023-03-04T10:06:57.000Z</time>
      </trkpt>
      <trkpt lat="43.51741" lon="6.6511">
        <ele>225.8</ele>
        <time>2023-03-04T10:06:58.000Z</time>
      </trkpt>
      <trkpt lat="43.51739" lon="6.6511">
        <ele>225.7</ele>
        <time>2023-03-04T10:06:59.000Z</time>
      </trkpt>
      <trkpt lat="43.51739" lon="6.65109">
        <ele>225.7</ele>
        <time>2023-03-04T10:07:01.000Z</time>
      </trkpt>
      <trkpt lat="43.51738" lon="6.65108">
        <ele>225.7</ele>
        <time>2023-03-04T10:07:02.000Z</time>
      </trkpt>
      <trkpt lat="43.51736" lon="6.65107">
        <ele>225.6</ele>
        <time>2023-03-04T10:07:03.000Z</time>
      </trkpt>
      <trkpt lat="43.51734" lon="6.65109">
        <ele>225.5</ele>
        <time>2023-03-04T10:07:05.000Z</time>
      </trkpt>
      <trkpt lat="43.51731" lon="6.6511">
        <ele>225.3</ele>
        <time>2023-03-04T10:07:06.000Z</time>
      </trkpt>
      <trkpt lat="43.51728" lon="6.65111">
        <ele>225.2</ele>
        <time>2023-03-04T10:07:07.000Z</time>
      </trkpt>
      <trkpt lat="43.51724" lon="6.65111">
        <ele>225</ele>
        <time>2023-03-04T10:07:08.000Z</time>
      </trkpt>
      <trkpt lat="43.51723" lon="6.6511">
        <ele>225</ele>
        <time>2023-03-04T10:07:09.000Z</time>
      </trkpt>
      <trkpt lat="43.5172" lon="6.6511">
        <ele>224.8</ele>
        <time>2023-03-04T10:07:11.000Z</time>
      </trkpt>
      <trkpt lat="43.51717" lon="6.65112">
        <ele>224.7</ele>
        <time>2023-03-04T10:07:12.000Z</time>
      </trkpt>
      <trkpt lat="43.51715" lon="6.65116">
        <ele>224.5</ele>
        <time>2023-03-04T10:07:13.000Z</time>
      </trkpt>
      <trkpt lat="43.51715" lon="6.65117">
        <ele>224.5</ele>
        <time>2023-03-04T10:07:14.000Z</time>
      </trkpt>
      <trkpt lat="43.51713" lon="6.65122">
        <ele>224.3</ele>
        <time>2023-03-04T10:07:16.000Z</time>
      </trkpt>
      <trkpt lat="43.51713" lon="6.65124">
        <ele>224.2</ele>
        <time>2023-03-04T10:07:17.000Z</time>
      </trkpt>
      <trkpt lat="43.51712" lon="6.6513">
        <ele>224</ele>
        <time>2023-03-04T10:07:18.000Z</time>
      </trkpt>
      <trkpt lat="43.51712" lon="6.65132">
        <ele>224</ele>
        <time>2023-03-04T10:07:19.000Z</time>
      </trkpt>
      <trkpt lat="43.51711" lon="6.65137">
        <ele>223.8</ele>
        <time>2023-03-04T10:07:20.000Z</time>
      </trkpt>
      <trkpt lat="43.5171" lon="6.65143">
        <ele>223.6</ele>
        <time>2023-03-04T10:07:21.000Z</time>
      </trkpt>
      <trkpt lat="43.5171" lon="6.65145">
        <ele>223.5</ele>
        <time>2023-03-04T10:07:22.000Z</time>
      </trkpt>
      <trkpt lat="43.51709" lon="6.65149">
        <ele>223.4</ele>
        <time>2023-03-04T10:07:23.000Z</time>
      </trkpt>
      <trkpt lat="43.51707" lon="6.65154">
        <ele>223.2</ele>
        <time>2023-03-04T10:07:25.000Z</time>
      </trkpt>
      <trkpt lat="43.51706" lon="6.6516">
        <ele>223</ele>
        <time>2023-03-04T10:07:26.000Z</time>
      </trkpt>
      <trkpt lat="43.51704" lon="6.65164">
        <ele>222.8</ele>
        <time>2023-03-04T10:07:27.000Z</time>
      </trkpt>
      <trkpt lat="43.51702" lon="6.65167">
        <ele>222.7</ele>
        <time>2023-03-04T10:07:29.000Z</time>
      </trkpt>
      <trkpt lat="43.51699" lon="6.65168">
        <ele>222.5</ele>
        <time>2023-03-04T10:07:30.000Z</time>
      </trkpt>
      <trkpt lat="43.51695" lon="6.65168">
        <ele>222.3</ele>
        <time>2023-03-04T10:07:31.000Z</time>
      </trkpt>
      <trkpt lat="43.51696" lon="6.65168">
        <ele>222.3</ele>
        <time>2023-03-04T10:07:33.000Z</time>
      </trkpt>
      <trkpt lat="43.51697" lon="6.65167">
        <ele>222.3</ele>
        <time>2023-03-04T10:07:34.000Z</time>
      </trkpt>
      <trkpt lat="43.51697" lon="6.65167">
        <ele>222.2</ele>
        <time>2023-03-04T10:07:35.000Z</time>
      </trkpt>
      <trkpt lat="43.51698" lon="6.65166">
        <ele>222.2</ele>
        <time>2023-03-04T10:07:37.000Z</time>
      </trkpt>
      <trkpt lat="43.51698" lon="6.65166">
        <ele>222.2</ele>
        <time>2023-03-04T10:07:38.000Z</time>
      </trkpt>
      <trkpt lat="43.51698" lon="6.65173">
        <ele>221.9</ele>
        <time>2023-03-04T10:07:39.000Z</time>
      </trkpt>
      <trkpt lat="43.51698" lon="6.65177">
        <ele>221.8</ele>
        <time>2023-03-04T10:07:40.000Z</time>
      </trkpt>
      <trkpt lat="43.51694" lon="6.65182">
        <ele>221.6</ele>
        <time>2023-03-04T10:07:41.000Z</time>
      </trkpt>
      <trkpt lat="43.5169" lon="6.65187">
        <ele>221.3</ele>
        <time>2023-03-04T10:07:42.000Z</time>
      </trkpt>
      <trkpt lat="43.51685" lon="6.65189">
        <ele>221.1</ele>
        <time>2023-03-04T10:07:43.000Z</time>
      </trkpt>
      <trkpt lat="43.51676" lon="6.6519">
        <ele>220.7</ele>
        <time>2023-03-04T10:07:45.000Z</time>
      </trkpt>
      <trkpt lat="43.51674" lon="6.65193">
        <ele>220.5</ele>
        <time>2023-03-04T10:07:46.000Z</time>
      </trkpt>
      <trkpt lat="43.51672" lon="6.65197">
        <ele>220.4</ele>
        <time>2023-03-04T10:07:47.000Z</time>
      </trkpt>
      <trkpt lat="43.51671" lon="6.65198">
        <ele>220.3</ele>
        <time>2023-03-04T10:07:48.000Z</time>
      </trkpt>
      <trkpt lat="43.51669" lon="6.65199">
        <ele>220.2</ele>
        <time>2023-03-04T10:07:49.000Z</time>
      </trkpt>
      <trkpt lat="43.51668" lon="6.652">
        <ele>220.2</ele>
        <time>2023-03-04T10:07:50.000Z</time>
      </trkpt>
      <trkpt lat="43.51669" lon="6.65199">
        <ele>220.1</ele>
        <time>2023-03-04T10:07:52.000Z</time>
      </trkpt>
      <trkpt lat="43.51669" lon="6.65199">
        <ele>220.1</ele>
        <time>2023-03-04T10:07:53.000Z</time>
      </trkpt>
      <trkpt lat="43.51669" lon="6.65199">
        <ele>220.1</ele>
        <time>2023-03-04T10:07:54.000Z</time>
      </trkpt>
      <trkpt lat="43.51669" lon="6.652">
        <ele>220.1</ele>
        <time>2023-03-04T10:07:56.000Z</time>
      </trkpt>
      <trkpt lat="43.51669" lon="6.652">
        <ele>220.1</ele>
        <time>2023-03-04T10:07:58.000Z</time>
      </trkpt>
      <trkpt lat="43.51669" lon="6.652">
        <ele>220.1</ele>
        <time>2023-03-04T10:07:59.000Z</time>
      </trkpt>
      <trkpt lat="43.51669" lon="6.65201">
        <ele>220.1</ele>
        <time>2023-03-04T10:08:00.000Z</time>
      </trkpt>
      <trkpt lat="43.51669" lon="6.65201">
        <ele>220.1</ele>
        <time>2023-03-04T10:08:02.000Z</time>
      </trkpt>
      <trkpt lat="43.51669" lon="6.65201">
        <ele>220</ele>
        <time>2023-03-04T10:08:03.000Z</time>
      </trkpt>
      <trkpt lat="43.51668" lon="6.65201">
        <ele>220</ele>
        <time>2023-03-04T10:08:04.000Z</time>
      </trkpt>
      <trkpt lat="43.51667" lon="6.65201">
        <ele>220</ele>
        <time>2023-03-04T10:08:05.000Z</time>
      </trkpt>
      <trkpt lat="43.51667" lon="6.65201">
        <ele>220</ele>
        <time>2023-03-04T10:08:06.000Z</time>
      </trkpt>
      <trkpt lat="43.51666" lon="6.65201">
        <ele>219.9</ele>
        <time>2023-03-04T10:08:07.000Z</time>
      </trkpt>
      <trkpt lat="43.51665" lon="6.65203">
        <ele>219.8</ele>
        <time>2023-03-04T10:08:09.000Z</time>
      </trkpt>
      <trkpt lat="43.51665" lon="6.65204">
        <ele>219.8</ele>
        <time>2023-03-04T10:08:10.000Z</time>
      </trkpt>
      <trkpt lat="43.51664" lon="6.65205">
        <ele>219.8</ele>
        <time>2023-03-04T10:08:12.000Z</time>
      </trkpt>
      <trkpt lat="43.51664" lon="6.65205">
        <ele>219.8</ele>
        <time>2023-03-04T10:08:13.000Z</time>
      </trkpt>
      <trkpt lat="43.51664" lon="6.65206">
        <ele>219.7</ele>
        <time>2023-03-04T10:08:14.000Z</time>
      </trkpt>
      <trkpt lat="43.51664" lon="6.65207">
        <ele>219.7</ele>
        <time>2023-03-04T10:08:16.000Z</time>
      </trkpt>
      <trkpt lat="43.51664" lon="6.65207">
        <ele>219.7</ele>
        <time>2023-03-04T10:08:17.000Z</time>
      </trkpt>
      <trkpt lat="43.51663" lon="6.65208">
        <ele>219.7</ele>
        <time>2023-03-04T10:08:18.000Z</time>
      </trkpt>
      <trkpt lat="43.51663" lon="6.65209">
        <ele>219.6</ele>
        <time>2023-03-04T10:08:20.000Z</time>
      </trkpt>
      <trkpt lat="43.51663" lon="6.6521">
        <ele>219.6</ele>
        <time>2023-03-04T10:08:21.000Z</time>
      </trkpt>
      <trkpt lat="43.51663" lon="6.6521">
        <ele>219.6</ele>
        <time>2023-03-04T10:08:22.000Z</time>
      </trkpt>
      <trkpt lat="43.51661" lon="6.65215">
        <ele>219.4</ele>
        <time>2023-03-04T10:08:23.000Z</time>
      </trkpt>
      <trkpt lat="43.5166" lon="6.65216">
        <ele>219.4</ele>
        <time>2023-03-04T10:08:24.000Z</time>
      </trkpt>
      <trkpt lat="43.51659" lon="6.65219">
        <ele>219.2</ele>
        <time>2023-03-04T10:08:25.000Z</time>
      </trkpt>
      <trkpt lat="43.51658" lon="6.65223">
        <ele>219.1</ele>
        <time>2023-03-04T10:08:27.000Z</time>
      </trkpt>
      <trkpt lat="43.51656" lon="6.65228">
        <ele>218.9</ele>
        <time>2023-03-04T10:08:28.000Z</time>
      </trkpt>
      <trkpt lat="43.51654" lon="6.65232">
        <ele>218.9</ele>
        <time>2023-03-04T10:08:29.000Z</time>
      </trkpt>
      <trkpt lat="43.51653" lon="6.65235">
        <ele>218.8</ele>
        <time>2023-03-04T10:08:30.000Z</time>
      </trkpt>
      <trkpt lat="43.5165" lon="6.65239">
        <ele>218.8</ele>
        <time>2023-03-04T10:08:32.000Z</time>
      </trkpt>
      <trkpt lat="43.51648" lon="6.65242">
        <ele>218.8</ele>
        <time>2023-03-04T10:08:33.000Z</time>
      </trkpt>
      <trkpt lat="43.51646" lon="6.65245">
        <ele>218.7</ele>
        <time>2023-03-04T10:08:34.000Z</time>
      </trkpt>
      <trkpt lat="43.51644" lon="6.65247">
        <ele>218.7</ele>
        <time>2023-03-04T10:08:35.000Z</time>
      </trkpt>
      <trkpt lat="43.51644" lon="6.65247">
        <ele>218.7</ele>
        <time>2023-03-04T10:08:36.000Z</time>
      </trkpt>
      <trkpt lat="43.51643" lon="6.65247">
        <ele>218.7</ele>
        <time>2023-03-04T10:08:37.000Z</time>
      </trkpt>
      <trkpt lat="43.51644" lon="6.65246">
        <ele>218.7</ele>
        <time>2023-03-04T10:08:39.000Z</time>
      </trkpt>
      <trkpt lat="43.51644" lon="6.65246">
        <ele>218.7</ele>
        <time>2023-03-04T10:08:40.000Z</time>
      </trkpt>
      <trkpt lat="43.51644" lon="6.65246">
        <ele>218.7</ele>
        <time>2023-03-04T10:08:42.000Z</time>
      </trkpt>
      <trkpt lat="43.51644" lon="6.65246">
        <ele>218.7</ele>
        <time>2023-03-04T10:08:43.000Z</time>
      </trkpt>
      <trkpt lat="43.51644" lon="6.65246">
        <ele>218.7</ele>
        <time>2023-03-04T10:08:44.000Z</time>
      </trkpt>
      <trkpt lat="43.51644" lon="6.65246">
        <ele>218.7</ele>
        <time>2023-03-04T10:08:46.000Z</time>
      </trkpt>
      <trkpt lat="43.51644" lon="6.65251">
        <ele>218.7</ele>
        <time>2023-03-04T10:10:57.000Z</time>
      </trkpt>
      <trkpt lat="43.51644" lon="6.65251">
        <ele>218.7</ele>
        <time>2023-03-04T10:10:58.000Z</time>
      </trkpt>
      <trkpt lat="43.51643" lon="6.65251">
        <ele>218.7</ele>
        <time>2023-03-04T10:10:59.000Z</time>
      </trkpt>
      <trkpt lat="43.51643" lon="6.65251">
        <ele>218.6</ele>
        <time>2023-03-04T10:11:00.000Z</time>
      </trkpt>
      <trkpt lat="43.51643" lon="6.65251">
        <ele>218.6</ele>
        <time>2023-03-04T10:11:01.000Z</time>
      </trkpt>
      <trkpt lat="43.51643" lon="6.6525">
        <ele>218.6</ele>
        <time>2023-03-04T10:11:02.000Z</time>
      </trkpt>
      <trkpt lat="43.51643" lon="6.6525">
        <ele>218.6</ele>
        <time>2023-03-04T10:11:03.000Z</time>
      </trkpt>
      <trkpt lat="43.51644" lon="6.65249">
        <ele>218.6</ele>
        <time>2023-03-04T10:11:04.000Z</time>
      </trkpt>
      <trkpt lat="43.51644" lon="6.65249">
        <ele>218.6</ele>
        <time>2023-03-04T10:11:05.000Z</time>
      </trkpt>
      <trkpt lat="43.51644" lon="6.65249">
        <ele>218.6</ele>
        <time>2023-03-04T10:11:06.000Z</time>
      </trkpt>
      <trkpt lat="43.51644" lon="6.65249">
        <ele>218.6</ele>
        <time>2023-03-04T10:11:07.000Z</time>
      </trkpt>
      <trkpt lat="43.51644" lon="6.65249">
        <ele>218.6</ele>
        <time>2023-03-04T10:11:08.000Z</time>
      </trkpt>
      <trkpt lat="43.51644" lon="6.65249">
        <ele>218.6</ele>
        <time>2023-03-04T10:11:09.000Z</time>
      </trkpt>
      <trkpt lat="43.51644" lon="6.65249">
        <ele>218.6</ele>
        <time>2023-03-04T10:11:10.000Z</time>
      </trkpt>
      <trkpt lat="43.51644" lon="6.65249">
        <ele>218.6</ele>
        <time>2023-03-04T10:11:11.000Z</time>
      </trkpt>
      <trkpt lat="43.51644" lon="6.65249">
        <ele>218.6</ele>
        <time>2023-03-04T10:11:12.000Z</time>
      </trkpt>
      <trkpt lat="43.51644" lon="6.65249">
        <ele>218.6</ele>
        <time>2023-03-04T10:11:13.000Z</time>
      </trkpt>
      <trkpt lat="43.51647" lon="6.65253">
        <ele>218.6</ele>
        <time>2023-03-04T10:12:17.000Z</time>
      </trkpt>
      <trkpt lat="43.51647" lon="6.65253">
        <ele>218.6</ele>
        <time>2023-03-04T10:12:18.000Z</time>
      </trkpt>
      <trkpt lat="43.51648" lon="6.65252">
        <ele>218.6</ele>
        <time>2023-03-04T10:12:19.000Z</time>
      </trkpt>
      <trkpt lat="43.51649" lon="6.6525">
        <ele>218.6</ele>
        <time>2023-03-04T10:12:20.000Z</time>
      </trkpt>
      <trkpt lat="43.51652" lon="6.65251">
        <ele>218.5</ele>
        <time>2023-03-04T10:12:22.000Z</time>
      </trkpt>
      <trkpt lat="43.51653" lon="6.65251">
        <ele>218.5</ele>
        <time>2023-03-04T10:12:23.000Z</time>
      </trkpt>
      <trkpt lat="43.51656" lon="6.65255">
        <ele>218.5</ele>
        <time>2023-03-04T10:12:24.000Z</time>
      </trkpt>
      <trkpt lat="43.51658" lon="6.65259">
        <ele>218.5</ele>
        <time>2023-03-04T10:12:25.000Z</time>
      </trkpt>
      <trkpt lat="43.51659" lon="6.65264">
        <ele>218.3</ele>
        <time>2023-03-04T10:12:27.000Z</time>
      </trkpt>
      <trkpt lat="43.5166" lon="6.65269">
        <ele>218.1</ele>
        <time>2023-03-04T10:12:28.000Z</time>
      </trkpt>
      <trkpt lat="43.51661" lon="6.65273">
        <ele>217.9</ele>
        <time>2023-03-04T10:12:29.000Z</time>
      </trkpt>
      <trkpt lat="43.51661" lon="6.65277">
        <ele>217.8</ele>
        <time>2023-03-04T10:12:30.000Z</time>
      </trkpt>
      <trkpt lat="43.51662" lon="6.65281">
        <ele>217.6</ele>
        <time>2023-03-04T10:12:31.000Z</time>
      </trkpt>
      <trkpt lat="43.51662" lon="6.65285">
        <ele>217.4</ele>
        <time>2023-03-04T10:12:32.000Z</time>
      </trkpt>
      <trkpt lat="43.51662" lon="6.65293">
        <ele>217.1</ele>
        <time>2023-03-04T10:12:34.000Z</time>
      </trkpt>
      <trkpt lat="43.51661" lon="6.65299">
        <ele>216.8</ele>
        <time>2023-03-04T10:12:35.000Z</time>
      </trkpt>
      <trkpt lat="43.5166" lon="6.65305">
        <ele>216.5</ele>
        <time>2023-03-04T10:12:36.000Z</time>
      </trkpt>
      <trkpt lat="43.51658" lon="6.65317">
        <ele>216</ele>
        <time>2023-03-04T10:12:38.000Z</time>
      </trkpt>
      <trkpt lat="43.51655" lon="6.65326">
        <ele>215.5</ele>
        <time>2023-03-04T10:12:39.000Z</time>
      </trkpt>
      <trkpt lat="43.51653" lon="6.65334">
        <ele>215.2</ele>
        <time>2023-03-04T10:12:40.000Z</time>
      </trkpt>
      <trkpt lat="43.51651" lon="6.65341">
        <ele>214.8</ele>
        <time>2023-03-04T10:12:41.000Z</time>
      </trkpt>
      <trkpt lat="43.5165" lon="6.65349">
        <ele>214.5</ele>
        <time>2023-03-04T10:12:42.000Z</time>
      </trkpt>
      <trkpt lat="43.51648" lon="6.65356">
        <ele>214.2</ele>
        <time>2023-03-04T10:12:43.000Z</time>
      </trkpt>
      <trkpt lat="43.51646" lon="6.65362">
        <ele>213.8</ele>
        <time>2023-03-04T10:12:44.000Z</time>
      </trkpt>
      <trkpt lat="43.51643" lon="6.65368">
        <ele>213.5</ele>
        <time>2023-03-04T10:12:45.000Z</time>
      </trkpt>
      <trkpt lat="43.51639" lon="6.65372">
        <ele>213.1</ele>
        <time>2023-03-04T10:12:46.000Z</time>
      </trkpt>
      <trkpt lat="43.51633" lon="6.65374">
        <ele>212.7</ele>
        <time>2023-03-04T10:12:47.000Z</time>
      </trkpt>
      <trkpt lat="43.51627" lon="6.65374">
        <ele>212.3</ele>
        <time>2023-03-04T10:12:48.000Z</time>
      </trkpt>
      <trkpt lat="43.51621" lon="6.6537">
        <ele>211.8</ele>
        <time>2023-03-04T10:12:49.000Z</time>
      </trkpt>
      <trkpt lat="43.51618" lon="6.65362">
        <ele>211.3</ele>
        <time>2023-03-04T10:12:50.000Z</time>
      </trkpt>
      <trkpt lat="43.51617" lon="6.65351">
        <ele>210.9</ele>
        <time>2023-03-04T10:12:51.000Z</time>
      </trkpt>
      <trkpt lat="43.51618" lon="6.65341">
        <ele>210.4</ele>
        <time>2023-03-04T10:12:52.000Z</time>
      </trkpt>
      <trkpt lat="43.51621" lon="6.6533">
        <ele>209.9</ele>
        <time>2023-03-04T10:12:53.000Z</time>
      </trkpt>
      <trkpt lat="43.51624" lon="6.65319">
        <ele>209.4</ele>
        <time>2023-03-04T10:12:54.000Z</time>
      </trkpt>
      <trkpt lat="43.51626" lon="6.65309">
        <ele>209</ele>
        <time>2023-03-04T10:12:55.000Z</time>
      </trkpt>
      <trkpt lat="43.51628" lon="6.653">
        <ele>208.6</ele>
        <time>2023-03-04T10:12:56.000Z</time>
      </trkpt>
      <trkpt lat="43.51627" lon="6.65291">
        <ele>208.3</ele>
        <time>2023-03-04T10:12:57.000Z</time>
      </trkpt>
      <trkpt lat="43.51625" lon="6.65283">
        <ele>207.9</ele>
        <time>2023-03-04T10:12:58.000Z</time>
      </trkpt>
      <trkpt lat="43.51623" lon="6.65275">
        <ele>207.6</ele>
        <time>2023-03-04T10:12:59.000Z</time>
      </trkpt>
      <trkpt lat="43.5162" lon="6.65266">
        <ele>207.2</ele>
        <time>2023-03-04T10:13:00.000Z</time>
      </trkpt>
      <trkpt lat="43.51618" lon="6.65257">
        <ele>206.9</ele>
        <time>2023-03-04T10:13:01.000Z</time>
      </trkpt>
      <trkpt lat="43.51616" lon="6.65249">
        <ele>206.5</ele>
        <time>2023-03-04T10:13:02.000Z</time>
      </trkpt>
      <trkpt lat="43.51615" lon="6.6524">
        <ele>206.1</ele>
        <time>2023-03-04T10:13:03.000Z</time>
      </trkpt>
      <trkpt lat="43.51614" lon="6.65231">
        <ele>205.8</ele>
        <time>2023-03-04T10:13:04.000Z</time>
      </trkpt>
      <trkpt lat="43.51615" lon="6.65221">
        <ele>205.4</ele>
        <time>2023-03-04T10:13:05.000Z</time>
      </trkpt>
      <trkpt lat="43.51616" lon="6.65212">
        <ele>205</ele>
        <time>2023-03-04T10:13:06.000Z</time>
      </trkpt>
      <trkpt lat="43.51618" lon="6.65202">
        <ele>204.6</ele>
        <time>2023-03-04T10:13:07.000Z</time>
      </trkpt>
      <trkpt lat="43.51619" lon="6.65192">
        <ele>204.2</ele>
        <time>2023-03-04T10:13:08.000Z</time>
      </trkpt>
      <trkpt lat="43.51619" lon="6.65182">
        <ele>203.8</ele>
        <time>2023-03-04T10:13:09.000Z</time>
      </trkpt>
      <trkpt lat="43.51618" lon="6.65172">
        <ele>203.4</ele>
        <time>2023-03-04T10:13:10.000Z</time>
      </trkpt>
      <trkpt lat="43.51614" lon="6.65163">
        <ele>203</ele>
        <time>2023-03-04T10:13:11.000Z</time>
      </trkpt>
      <trkpt lat="43.5161" lon="6.65155">
        <ele>202.6</ele>
        <time>2023-03-04T10:13:12.000Z</time>
      </trkpt>
      <trkpt lat="43.51606" lon="6.65146">
        <ele>202.2</ele>
        <time>2023-03-04T10:13:13.000Z</time>
      </trkpt>
      <trkpt lat="43.51604" lon="6.65135">
        <ele>201.7</ele>
        <time>2023-03-04T10:13:14.000Z</time>
      </trkpt>
      <trkpt lat="43.51604" lon="6.65124">
        <ele>201.2</ele>
        <time>2023-03-04T10:13:15.000Z</time>
      </trkpt>
      <trkpt lat="43.51606" lon="6.65113">
        <ele>200.7</ele>
        <time>2023-03-04T10:13:16.000Z</time>
      </trkpt>
      <trkpt lat="43.51609" lon="6.65103">
        <ele>200.3</ele>
        <time>2023-03-04T10:13:17.000Z</time>
      </trkpt>
      <trkpt lat="43.51614" lon="6.65093">
        <ele>199.8</ele>
        <time>2023-03-04T10:13:18.000Z</time>
      </trkpt>
      <trkpt lat="43.5162" lon="6.65085">
        <ele>199.3</ele>
        <time>2023-03-04T10:13:19.000Z</time>
      </trkpt>
      <trkpt lat="43.51627" lon="6.6508">
        <ele>198.8</ele>
        <time>2023-03-04T10:13:20.000Z</time>
      </trkpt>
      <trkpt lat="43.51635" lon="6.65077">
        <ele>198.3</ele>
        <time>2023-03-04T10:13:21.000Z</time>
      </trkpt>
      <trkpt lat="43.51643" lon="6.65075">
        <ele>197.7</ele>
        <time>2023-03-04T10:13:22.000Z</time>
      </trkpt>
      <trkpt lat="43.51652" lon="6.65073">
        <ele>197.1</ele>
        <time>2023-03-04T10:13:23.000Z</time>
      </trkpt>
      <trkpt lat="43.51661" lon="6.65071">
        <ele>196.6</ele>
        <time>2023-03-04T10:13:24.000Z</time>
      </trkpt>
      <trkpt lat="43.5167" lon="6.65067">
        <ele>196</ele>
        <time>2023-03-04T10:13:25.000Z</time>
      </trkpt>
      <trkpt lat="43.51677" lon="6.65061">
        <ele>195.5</ele>
        <time>2023-03-04T10:13:26.000Z</time>
      </trkpt>
      <trkpt lat="43.51682" lon="6.65054">
        <ele>195.1</ele>
        <time>2023-03-04T10:13:27.000Z</time>
      </trkpt>
      <trkpt lat="43.51687" lon="6.65047">
        <ele>194.6</ele>
        <time>2023-03-04T10:13:28.000Z</time>
      </trkpt>
      <trkpt lat="43.51691" lon="6.65039">
        <ele>194.2</ele>
        <time>2023-03-04T10:13:29.000Z</time>
      </trkpt>
      <trkpt lat="43.51697" lon="6.65031">
        <ele>193.8</ele>
        <time>2023-03-04T10:13:30.000Z</time>
      </trkpt>
      <trkpt lat="43.51704" lon="6.65025">
        <ele>193.3</ele>
        <time>2023-03-04T10:13:31.000Z</time>
      </trkpt>
      <trkpt lat="43.5171" lon="6.65019">
        <ele>192.9</ele>
        <time>2023-03-04T10:13:32.000Z</time>
      </trkpt>
      <trkpt lat="43.51717" lon="6.65013">
        <ele>192.5</ele>
        <time>2023-03-04T10:13:33.000Z</time>
      </trkpt>
      <trkpt lat="43.51724" lon="6.65007">
        <ele>192</ele>
        <time>2023-03-04T10:13:34.000Z</time>
      </trkpt>
      <trkpt lat="43.51731" lon="6.65">
        <ele>191.6</ele>
        <time>2023-03-04T10:13:35.000Z</time>
      </trkpt>
      <trkpt lat="43.51737" lon="6.64993">
        <ele>191.1</ele>
        <time>2023-03-04T10:13:36.000Z</time>
      </trkpt>
      <trkpt lat="43.51744" lon="6.64987">
        <ele>190.7</ele>
        <time>2023-03-04T10:13:37.000Z</time>
      </trkpt>
      <trkpt lat="43.51752" lon="6.6498">
        <ele>190.2</ele>
        <time>2023-03-04T10:13:38.000Z</time>
      </trkpt>
      <trkpt lat="43.51759" lon="6.64973">
        <ele>189.8</ele>
        <time>2023-03-04T10:13:39.000Z</time>
      </trkpt>
      <trkpt lat="43.51767" lon="6.64967">
        <ele>189.3</ele>
        <time>2023-03-04T10:13:40.000Z</time>
      </trkpt>
      <trkpt lat="43.51775" lon="6.6496">
        <ele>188.8</ele>
        <time>2023-03-04T10:13:41.000Z</time>
      </trkpt>
      <trkpt lat="43.51782" lon="6.64953">
        <ele>188.4</ele>
        <time>2023-03-04T10:13:42.000Z</time>
      </trkpt>
      <trkpt lat="43.51789" lon="6.64946">
        <ele>188</ele>
        <time>2023-03-04T10:13:43.000Z</time>
      </trkpt>
      <trkpt lat="43.51796" lon="6.6494">
        <ele>187.6</ele>
        <time>2023-03-04T10:13:44.000Z</time>
      </trkpt>
      <trkpt lat="43.51802" lon="6.64935">
        <ele>187.2</ele>
        <time>2023-03-04T10:13:45.000Z</time>
      </trkpt>
      <trkpt lat="43.51808" lon="6.64929">
        <ele>186.9</ele>
        <time>2023-03-04T10:13:46.000Z</time>
      </trkpt>
      <trkpt lat="43.51811" lon="6.64921">
        <ele>186.5</ele>
        <time>2023-03-04T10:13:47.000Z</time>
      </trkpt>
      <trkpt lat="43.51813" lon="6.64912">
        <ele>186.1</ele>
        <time>2023-03-04T10:13:48.000Z</time>
      </trkpt>
      <trkpt lat="43.51811" lon="6.64902">
        <ele>185.7</ele>
        <time>2023-03-04T10:13:49.000Z</time>
      </trkpt>
      <trkpt lat="43.51806" lon="6.64895">
        <ele>185.2</ele>
        <time>2023-03-04T10:13:50.000Z</time>
      </trkpt>
      <trkpt lat="43.51799" lon="6.6489">
        <ele>184.7</ele>
        <time>2023-03-04T10:13:51.000Z</time>
      </trkpt>
      <trkpt lat="43.51792" lon="6.64887">
        <ele>184.2</ele>
        <time>2023-03-04T10:13:52.000Z</time>
      </trkpt>
      <trkpt lat="43.51785" lon="6.64882">
        <ele>183.7</ele>
        <time>2023-03-04T10:13:53.000Z</time>
      </trkpt>
      <trkpt lat="43.51778" lon="6.64877">
        <ele>183.3</ele>
        <time>2023-03-04T10:13:54.000Z</time>
      </trkpt>
      <trkpt lat="43.51771" lon="6.64872">
        <ele>182.8</ele>
        <time>2023-03-04T10:13:55.000Z</time>
      </trkpt>
      <trkpt lat="43.51764" lon="6.64866">
        <ele>182.3</ele>
        <time>2023-03-04T10:13:56.000Z</time>
      </trkpt>
      <trkpt lat="43.51758" lon="6.64861">
        <ele>181.9</ele>
        <time>2023-03-04T10:13:57.000Z</time>
      </trkpt>
      <trkpt lat="43.51753" lon="6.64856">
        <ele>181.5</ele>
        <time>2023-03-04T10:13:58.000Z</time>
      </trkpt>
      <trkpt lat="43.51748" lon="6.64851">
        <ele>181.1</ele>
        <time>2023-03-04T10:13:59.000Z</time>
      </trkpt>
      <trkpt lat="43.51744" lon="6.64847">
        <ele>180.9</ele>
        <time>2023-03-04T10:14:00.000Z</time>
      </trkpt>
      <trkpt lat="43.51741" lon="6.64844">
        <ele>180.6</ele>
        <time>2023-03-04T10:14:01.000Z</time>
      </trkpt>
      <trkpt lat="43.51739" lon="6.6484">
        <ele>180.4</ele>
        <time>2023-03-04T10:14:02.000Z</time>
      </trkpt>
      <trkpt lat="43.51737" lon="6.64835">
        <ele>180.1</ele>
        <time>2023-03-04T10:14:03.000Z</time>
      </trkpt>
      <trkpt lat="43.51737" lon="6.64834">
        <ele>180</ele>
        <time>2023-03-04T10:14:04.000Z</time>
      </trkpt>
      <trkpt lat="43.51736" lon="6.64832">
        <ele>179.9</ele>
        <time>2023-03-04T10:14:05.000Z</time>
      </trkpt>
      <trkpt lat="43.51736" lon="6.64832">
        <ele>179.9</ele>
        <time>2023-03-04T10:14:06.000Z</time>
      </trkpt>
      <trkpt lat="43.51736" lon="6.64832">
        <ele>179.9</ele>
        <time>2023-03-04T10:14:07.000Z</time>
      </trkpt>
      <trkpt lat="43.51736" lon="6.64831">
        <ele>179.9</ele>
        <time>2023-03-04T10:14:08.000Z</time>
      </trkpt>
      <trkpt lat="43.51736" lon="6.64831">
        <ele>179.9</ele>
        <time>2023-03-04T10:14:09.000Z</time>
      </trkpt>
      <trkpt lat="43.51736" lon="6.64831">
        <ele>179.8</ele>
        <time>2023-03-04T10:14:10.000Z</time>
      </trkpt>
      <trkpt lat="43.51736" lon="6.64831">
        <ele>179.8</ele>
        <time>2023-03-04T10:14:11.000Z</time>
      </trkpt>
      <trkpt lat="43.51736" lon="6.6483">
        <ele>179.8</ele>
        <time>2023-03-04T10:14:12.000Z</time>
      </trkpt>
      <trkpt lat="43.51736" lon="6.6483">
        <ele>179.8</ele>
        <time>2023-03-04T10:14:13.000Z</time>
      </trkpt>
      <trkpt lat="43.51735" lon="6.6483">
        <ele>179.8</ele>
        <time>2023-03-04T10:14:14.000Z</time>
      </trkpt>
      <trkpt lat="43.51735" lon="6.6483">
        <ele>179.8</ele>
        <time>2023-03-04T10:14:15.000Z</time>
      </trkpt>
      <trkpt lat="43.51735" lon="6.64829">
        <ele>179.8</ele>
        <time>2023-03-04T10:14:16.000Z</time>
      </trkpt>
      <trkpt lat="43.51735" lon="6.64829">
        <ele>179.8</ele>
        <time>2023-03-04T10:14:17.000Z</time>
      </trkpt>
      <trkpt lat="43.51735" lon="6.64829">
        <ele>179.7</ele>
        <time>2023-03-04T10:14:26.000Z</time>
      </trkpt>
      <trkpt lat="43.51735" lon="6.64829">
        <ele>179.7</ele>
        <time>2023-03-04T10:14:27.000Z</time>
      </trkpt>
      <trkpt lat="43.51735" lon="6.64828">
        <ele>179.7</ele>
        <time>2023-03-04T10:14:28.000Z</time>
      </trkpt>
      <trkpt lat="43.51735" lon="6.64828">
        <ele>179.7</ele>
        <time>2023-03-04T10:14:29.000Z</time>
      </trkpt>
      <trkpt lat="43.51735" lon="6.64828">
        <ele>179.7</ele>
        <time>2023-03-04T10:14:30.000Z</time>
      </trkpt>
      <trkpt lat="43.51735" lon="6.64828">
        <ele>179.7</ele>
        <time>2023-03-04T10:14:31.000Z</time>
      </trkpt>
      <trkpt lat="43.51735" lon="6.64827">
        <ele>179.7</ele>
        <time>2023-03-04T10:14:32.000Z</time>
      </trkpt>
      <trkpt lat="43.51735" lon="6.64827">
        <ele>179.7</ele>
        <time>2023-03-04T10:14:33.000Z</time>
      </trkpt>
      <trkpt lat="43.51735" lon="6.64827">
        <ele>179.7</ele>
        <time>2023-03-04T10:14:34.000Z</time>
      </trkpt>
      <trkpt lat="43.51735" lon="6.64827">
        <ele>179.6</ele>
        <time>2023-03-04T10:14:35.000Z</time>
      </trkpt>
      <trkpt lat="43.51735" lon="6.64826">
        <ele>179.6</ele>
        <time>2023-03-04T10:14:36.000Z</time>
      </trkpt>
      <trkpt lat="43.51735" lon="6.64826">
        <ele>179.6</ele>
        <time>2023-03-04T10:14:37.000Z</time>
      </trkpt>
      <trkpt lat="43.51735" lon="6.64826">
        <ele>179.6</ele>
        <time>2023-03-04T10:14:38.000Z</time>
      </trkpt>
      <trkpt lat="43.51735" lon="6.64826">
        <ele>179.6</ele>
        <time>2023-03-04T10:14:39.000Z</time>
      </trkpt>
      <trkpt lat="43.51735" lon="6.64825">
        <ele>179.6</ele>
        <time>2023-03-04T10:14:40.000Z</time>
      </trkpt>
      <trkpt lat="43.51735" lon="6.64825">
        <ele>179.6</ele>
        <time>2023-03-04T10:14:41.000Z</time>
      </trkpt>
      <trkpt lat="43.51735" lon="6.64825">
        <ele>179.6</ele>
        <time>2023-03-04T10:14:42.000Z</time>
      </trkpt>
      <trkpt lat="43.51735" lon="6.64825">
        <ele>179.5</ele>
        <time>2023-03-04T10:14:43.000Z</time>
      </trkpt>
      <trkpt lat="43.51735" lon="6.64824">
        <ele>179.5</ele>
        <time>2023-03-04T10:14:45.000Z</time>
      </trkpt>
      <trkpt lat="43.51735" lon="6.64824">
        <ele>179.5</ele>
        <time>2023-03-04T10:14:46.000Z</time>
      </trkpt>
      <trkpt lat="43.51733" lon="6.6482">
        <ele>179.3</ele>
        <time>2023-03-04T10:14:47.000Z</time>
      </trkpt>
      <trkpt lat="43.51731" lon="6.64814">
        <ele>179</ele>
        <time>2023-03-04T10:14:48.000Z</time>
      </trkpt>
      <trkpt lat="43.51729" lon="6.64807">
        <ele>178.7</ele>
        <time>2023-03-04T10:14:49.000Z</time>
      </trkpt>
      <trkpt lat="43.51727" lon="6.648">
        <ele>178.3</ele>
        <time>2023-03-04T10:14:50.000Z</time>
      </trkpt>
      <trkpt lat="43.51726" lon="6.64793">
        <ele>178</ele>
        <time>2023-03-04T10:14:51.000Z</time>
      </trkpt>
      <trkpt lat="43.51724" lon="6.64787">
        <ele>177.7</ele>
        <time>2023-03-04T10:14:52.000Z</time>
      </trkpt>
      <trkpt lat="43.51722" lon="6.64782">
        <ele>177.4</ele>
        <time>2023-03-04T10:14:53.000Z</time>
      </trkpt>
      <trkpt lat="43.51719" lon="6.64776">
        <ele>177</ele>
        <time>2023-03-04T10:14:54.000Z</time>
      </trkpt>
      <trkpt lat="43.51715" lon="6.64771">
        <ele>176.7</ele>
        <time>2023-03-04T10:14:55.000Z</time>
      </trkpt>
      <trkpt lat="43.51711" lon="6.64766">
        <ele>176.4</ele>
        <time>2023-03-04T10:14:56.000Z</time>
      </trkpt>
      <trkpt lat="43.51707" lon="6.64761">
        <ele>176</ele>
        <time>2023-03-04T10:14:57.000Z</time>
      </trkpt>
      <trkpt lat="43.51701" lon="6.64756">
        <ele>175.6</ele>
        <time>2023-03-04T10:14:58.000Z</time>
      </trkpt>
      <trkpt lat="43.51697" lon="6.64751">
        <ele>175.3</ele>
        <time>2023-03-04T10:14:59.000Z</time>
      </trkpt>
      <trkpt lat="43.51692" lon="6.64747">
        <ele>175</ele>
        <time>2023-03-04T10:15:00.000Z</time>
      </trkpt>
      <trkpt lat="43.51687" lon="6.64743">
        <ele>174.6</ele>
        <time>2023-03-04T10:15:01.000Z</time>
      </trkpt>
      <trkpt lat="43.51681" lon="6.64739">
        <ele>174.3</ele>
        <time>2023-03-04T10:15:02.000Z</time>
      </trkpt>
      <trkpt lat="43.51675" lon="6.64736">
        <ele>173.9</ele>
        <time>2023-03-04T10:15:03.000Z</time>
      </trkpt>
      <trkpt lat="43.51669" lon="6.64732">
        <ele>173.5</ele>
        <time>2023-03-04T10:15:04.000Z</time>
      </trkpt>
      <trkpt lat="43.51661" lon="6.64729">
        <ele>173.1</ele>
        <time>2023-03-04T10:15:05.000Z</time>
      </trkpt>
      <trkpt lat="43.51654" lon="6.64727">
        <ele>172.7</ele>
        <time>2023-03-04T10:15:06.000Z</time>
      </trkpt>
      <trkpt lat="43.51646" lon="6.64726">
        <ele>172.3</ele>
        <time>2023-03-04T10:15:07.000Z</time>
      </trkpt>
      <trkpt lat="43.51638" lon="6.64726">
        <ele>171.8</ele>
        <time>2023-03-04T10:15:08.000Z</time>
      </trkpt>
      <trkpt lat="43.5163" lon="6.64726">
        <ele>171.4</ele>
        <time>2023-03-04T10:15:09.000Z</time>
      </trkpt>
      <trkpt lat="43.51621" lon="6.64726">
        <ele>171</ele>
        <time>2023-03-04T10:15:10.000Z</time>
      </trkpt>
      <trkpt lat="43.51612" lon="6.64726">
        <ele>170.6</ele>
        <time>2023-03-04T10:15:11.000Z</time>
      </trkpt>
      <trkpt lat="43.51605" lon="6.64724">
        <ele>170.3</ele>
        <time>2023-03-04T10:15:12.000Z</time>
      </trkpt>
      <trkpt lat="43.51598" lon="6.64719">
        <ele>169.9</ele>
        <time>2023-03-04T10:15:13.000Z</time>
      </trkpt>
      <trkpt lat="43.51591" lon="6.64715">
        <ele>169.6</ele>
        <time>2023-03-04T10:15:14.000Z</time>
      </trkpt>
      <trkpt lat="43.51583" lon="6.64712">
        <ele>169.3</ele>
        <time>2023-03-04T10:15:15.000Z</time>
      </trkpt>
      <trkpt lat="43.51576" lon="6.64709">
        <ele>169</ele>
        <time>2023-03-04T10:15:16.000Z</time>
      </trkpt>
      <trkpt lat="43.51568" lon="6.64707">
        <ele>168.7</ele>
        <time>2023-03-04T10:15:17.000Z</time>
      </trkpt>
      <trkpt lat="43.51561" lon="6.64705">
        <ele>168.4</ele>
        <time>2023-03-04T10:15:18.000Z</time>
      </trkpt>
      <trkpt lat="43.51554" lon="6.64701">
        <ele>168.1</ele>
        <time>2023-03-04T10:15:19.000Z</time>
      </trkpt>
      <trkpt lat="43.51547" lon="6.64694">
        <ele>167.7</ele>
        <time>2023-03-04T10:15:20.000Z</time>
      </trkpt>
      <trkpt lat="43.51542" lon="6.64687">
        <ele>167.4</ele>
        <time>2023-03-04T10:15:21.000Z</time>
      </trkpt>
      <trkpt lat="43.51537" lon="6.64678">
        <ele>167.1</ele>
        <time>2023-03-04T10:15:22.000Z</time>
      </trkpt>
      <trkpt lat="43.51534" lon="6.64668">
        <ele>166.7</ele>
        <time>2023-03-04T10:15:23.000Z</time>
      </trkpt>
      <trkpt lat="43.51533" lon="6.64658">
        <ele>166.3</ele>
        <time>2023-03-04T10:15:24.000Z</time>
      </trkpt>
      <trkpt lat="43.51533" lon="6.64647">
        <ele>165.9</ele>
        <time>2023-03-04T10:15:25.000Z</time>
      </trkpt>
      <trkpt lat="43.51534" lon="6.64637">
        <ele>165.6</ele>
        <time>2023-03-04T10:15:26.000Z</time>
      </trkpt>
      <trkpt lat="43.51535" lon="6.64627">
        <ele>165.2</ele>
        <time>2023-03-04T10:15:27.000Z</time>
      </trkpt>
      <trkpt lat="43.51537" lon="6.64616">
        <ele>164.8</ele>
        <time>2023-03-04T10:15:28.000Z</time>
      </trkpt>
      <trkpt lat="43.51539" lon="6.64606">
        <ele>164.4</ele>
        <time>2023-03-04T10:15:29.000Z</time>
      </trkpt>
      <trkpt lat="43.51541" lon="6.64596">
        <ele>164.1</ele>
        <time>2023-03-04T10:15:30.000Z</time>
      </trkpt>
      <trkpt lat="43.51541" lon="6.64585">
        <ele>163.7</ele>
        <time>2023-03-04T10:15:31.000Z</time>
      </trkpt>
      <trkpt lat="43.51541" lon="6.64575">
        <ele>163.4</ele>
        <time>2023-03-04T10:15:32.000Z</time>
      </trkpt>
      <trkpt lat="43.51539" lon="6.64564">
        <ele>163</ele>
        <time>2023-03-04T10:15:33.000Z</time>
      </trkpt>
      <trkpt lat="43.51538" lon="6.64553">
        <ele>162.6</ele>
        <time>2023-03-04T10:15:34.000Z</time>
      </trkpt>
      <trkpt lat="43.51538" lon="6.64542">
        <ele>162.2</ele>
        <time>2023-03-04T10:15:35.000Z</time>
      </trkpt>
      <trkpt lat="43.51539" lon="6.64531">
        <ele>161.9</ele>
        <time>2023-03-04T10:15:36.000Z</time>
      </trkpt>
      <trkpt lat="43.51541" lon="6.6452">
        <ele>161.5</ele>
        <time>2023-03-04T10:15:37.000Z</time>
      </trkpt>
      <trkpt lat="43.51544" lon="6.6451">
        <ele>161.1</ele>
        <time>2023-03-04T10:15:38.000Z</time>
      </trkpt>
      <trkpt lat="43.51548" lon="6.645">
        <ele>160.7</ele>
        <time>2023-03-04T10:15:39.000Z</time>
      </trkpt>
      <trkpt lat="43.51551" lon="6.6449">
        <ele>160.3</ele>
        <time>2023-03-04T10:15:40.000Z</time>
      </trkpt>
      <trkpt lat="43.51554" lon="6.6448">
        <ele>159.9</ele>
        <time>2023-03-04T10:15:41.000Z</time>
      </trkpt>
      <trkpt lat="43.51558" lon="6.6447">
        <ele>159.5</ele>
        <time>2023-03-04T10:15:42.000Z</time>
      </trkpt>
      <trkpt lat="43.51562" lon="6.6446">
        <ele>159.1</ele>
        <time>2023-03-04T10:15:43.000Z</time>
      </trkpt>
      <trkpt lat="43.51567" lon="6.64451">
        <ele>158.8</ele>
        <time>2023-03-04T10:15:44.000Z</time>
      </trkpt>
      <trkpt lat="43.51572" lon="6.64442">
        <ele>158.3</ele>
        <time>2023-03-04T10:15:45.000Z</time>
      </trkpt>
      <trkpt lat="43.51578" lon="6.64433">
        <ele>158</ele>
        <time>2023-03-04T10:15:46.000Z</time>
      </trkpt>
      <trkpt lat="43.51583" lon="6.64424">
        <ele>157.6</ele>
        <time>2023-03-04T10:15:47.000Z</time>
      </trkpt>
      <trkpt lat="43.51586" lon="6.64415">
        <ele>157.3</ele>
        <time>2023-03-04T10:15:48.000Z</time>
      </trkpt>
      <trkpt lat="43.51589" lon="6.64404">
        <ele>156.9</ele>
        <time>2023-03-04T10:15:49.000Z</time>
      </trkpt>
      <trkpt lat="43.51592" lon="6.64394">
        <ele>156.6</ele>
        <time>2023-03-04T10:15:50.000Z</time>
      </trkpt>
      <trkpt lat="43.51595" lon="6.64383">
        <ele>156.2</ele>
        <time>2023-03-04T10:15:51.000Z</time>
      </trkpt>
      <trkpt lat="43.51598" lon="6.64372">
        <ele>155.8</ele>
        <time>2023-03-04T10:15:52.000Z</time>
      </trkpt>
      <trkpt lat="43.51603" lon="6.64362">
        <ele>155.4</ele>
        <time>2023-03-04T10:15:53.000Z</time>
      </trkpt>
      <trkpt lat="43.51609" lon="6.64353">
        <ele>155</ele>
        <time>2023-03-04T10:15:54.000Z</time>
      </trkpt>
      <trkpt lat="43.51616" lon="6.64345">
        <ele>154.5</ele>
        <time>2023-03-04T10:15:55.000Z</time>
      </trkpt>
      <trkpt lat="43.51623" lon="6.64339">
        <ele>154</ele>
        <time>2023-03-04T10:15:56.000Z</time>
      </trkpt>
      <trkpt lat="43.51631" lon="6.64333">
        <ele>153.5</ele>
        <time>2023-03-04T10:15:57.000Z</time>
      </trkpt>
      <trkpt lat="43.51638" lon="6.64327">
        <ele>153</ele>
        <time>2023-03-04T10:15:58.000Z</time>
      </trkpt>
      <trkpt lat="43.51644" lon="6.64319">
        <ele>152.5</ele>
        <time>2023-03-04T10:15:59.000Z</time>
      </trkpt>
      <trkpt lat="43.51648" lon="6.64308">
        <ele>152</ele>
        <time>2023-03-04T10:16:00.000Z</time>
      </trkpt>
      <trkpt lat="43.51648" lon="6.64296">
        <ele>151.5</ele>
        <time>2023-03-04T10:16:01.000Z</time>
      </trkpt>
      <trkpt lat="43.51646" lon="6.64283">
        <ele>151</ele>
        <time>2023-03-04T10:16:02.000Z</time>
      </trkpt>
      <trkpt lat="43.51642" lon="6.64271">
        <ele>150.5</ele>
        <time>2023-03-04T10:16:03.000Z</time>
      </trkpt>
      <trkpt lat="43.51639" lon="6.64258">
        <ele>149.9</ele>
        <time>2023-03-04T10:16:04.000Z</time>
      </trkpt>
      <trkpt lat="43.51637" lon="6.64245">
        <ele>149.4</ele>
        <time>2023-03-04T10:16:05.000Z</time>
      </trkpt>
      <trkpt lat="43.51636" lon="6.64232">
        <ele>148.9</ele>
        <time>2023-03-04T10:16:06.000Z</time>
      </trkpt>
      <trkpt lat="43.51637" lon="6.64219">
        <ele>148.5</ele>
        <time>2023-03-04T10:16:07.000Z</time>
      </trkpt>
      <trkpt lat="43.51637" lon="6.64206">
        <ele>148</ele>
        <time>2023-03-04T10:16:08.000Z</time>
      </trkpt>
      <trkpt lat="43.51638" lon="6.64192">
        <ele>147.5</ele>
        <time>2023-03-04T10:16:09.000Z</time>
      </trkpt>
      <trkpt lat="43.51639" lon="6.64179">
        <ele>147.1</ele>
        <time>2023-03-04T10:16:10.000Z</time>
      </trkpt>
      <trkpt lat="43.5164" lon="6.64166">
        <ele>146.6</ele>
        <time>2023-03-04T10:16:11.000Z</time>
      </trkpt>
      <trkpt lat="43.51641" lon="6.64153">
        <ele>146.2</ele>
        <time>2023-03-04T10:16:12.000Z</time>
      </trkpt>
      <trkpt lat="43.51642" lon="6.6414">
        <ele>145.8</ele>
        <time>2023-03-04T10:16:13.000Z</time>
      </trkpt>
      <trkpt lat="43.51643" lon="6.64128">
        <ele>145.4</ele>
        <time>2023-03-04T10:16:14.000Z</time>
      </trkpt>
      <trkpt lat="43.51645" lon="6.64115">
        <ele>145</ele>
        <time>2023-03-04T10:16:15.000Z</time>
      </trkpt>
      <trkpt lat="43.51647" lon="6.64102">
        <ele>144.5</ele>
        <time>2023-03-04T10:16:16.000Z</time>
      </trkpt>
      <trkpt lat="43.5165" lon="6.6409">
        <ele>144.1</ele>
        <time>2023-03-04T10:16:17.000Z</time>
      </trkpt>
      <trkpt lat="43.51653" lon="6.64078">
        <ele>143.6</ele>
        <time>2023-03-04T10:16:18.000Z</time>
      </trkpt>
      <trkpt lat="43.51657" lon="6.64066">
        <ele>143.1</ele>
        <time>2023-03-04T10:16:19.000Z</time>
      </trkpt>
      <trkpt lat="43.51661" lon="6.64055">
        <ele>142.6</ele>
        <time>2023-03-04T10:16:20.000Z</time>
      </trkpt>
      <trkpt lat="43.51665" lon="6.64044">
        <ele>142.1</ele>
        <time>2023-03-04T10:16:21.000Z</time>
      </trkpt>
      <trkpt lat="43.51669" lon="6.64033">
        <ele>141.6</ele>
        <time>2023-03-04T10:16:22.000Z</time>
      </trkpt>
      <trkpt lat="43.51675" lon="6.64023">
        <ele>141.2</ele>
        <time>2023-03-04T10:16:23.000Z</time>
      </trkpt>
      <trkpt lat="43.51681" lon="6.64014">
        <ele>140.7</ele>
        <time>2023-03-04T10:16:24.000Z</time>
      </trkpt>
      <trkpt lat="43.51686" lon="6.64005">
        <ele>140.3</ele>
        <time>2023-03-04T10:16:25.000Z</time>
      </trkpt>
      <trkpt lat="43.5169" lon="6.63996">
        <ele>140.1</ele>
        <time>2023-03-04T10:16:26.000Z</time>
      </trkpt>
      <trkpt lat="43.51693" lon="6.63985">
        <ele>139.7</ele>
        <time>2023-03-04T10:16:27.000Z</time>
      </trkpt>
      <trkpt lat="43.51695" lon="6.63974">
        <ele>139.4</ele>
        <time>2023-03-04T10:16:28.000Z</time>
      </trkpt>
      <trkpt lat="43.51697" lon="6.63962">
        <ele>139</ele>
        <time>2023-03-04T10:16:29.000Z</time>
      </trkpt>
      <trkpt lat="43.517" lon="6.63951">
        <ele>138.6</ele>
        <time>2023-03-04T10:16:30.000Z</time>
      </trkpt>
      <trkpt lat="43.51703" lon="6.6394">
        <ele>138.3</ele>
        <time>2023-03-04T10:16:31.000Z</time>
      </trkpt>
      <trkpt lat="43.51706" lon="6.63929">
        <ele>137.9</ele>
        <time>2023-03-04T10:16:32.000Z</time>
      </trkpt>
      <trkpt lat="43.5171" lon="6.63918">
        <ele>137.5</ele>
        <time>2023-03-04T10:16:33.000Z</time>
      </trkpt>
      <trkpt lat="43.51713" lon="6.63907">
        <ele>137.1</ele>
        <time>2023-03-04T10:16:34.000Z</time>
      </trkpt>
      <trkpt lat="43.51717" lon="6.63897">
        <ele>136.8</ele>
        <time>2023-03-04T10:16:35.000Z</time>
      </trkpt>
      <trkpt lat="43.51721" lon="6.63887">
        <ele>136.4</ele>
        <time>2023-03-04T10:16:36.000Z</time>
      </trkpt>
      <trkpt lat="43.51724" lon="6.63876">
        <ele>136</ele>
        <time>2023-03-04T10:16:37.000Z</time>
      </trkpt>
      <trkpt lat="43.51725" lon="6.63864">
        <ele>135.6</ele>
        <time>2023-03-04T10:16:38.000Z</time>
      </trkpt>
      <trkpt lat="43.51724" lon="6.63853">
        <ele>135.2</ele>
        <time>2023-03-04T10:16:39.000Z</time>
      </trkpt>
      <trkpt lat="43.51721" lon="6.63842">
        <ele>134.8</ele>
        <time>2023-03-04T10:16:40.000Z</time>
      </trkpt>
      <trkpt lat="43.51716" lon="6.63832">
        <ele>134.5</ele>
        <time>2023-03-04T10:16:41.000Z</time>
      </trkpt>
      <trkpt lat="43.51711" lon="6.63822">
        <ele>134.1</ele>
        <time>2023-03-04T10:16:42.000Z</time>
      </trkpt>
      <trkpt lat="43.51706" lon="6.63813">
        <ele>133.7</ele>
        <time>2023-03-04T10:16:43.000Z</time>
      </trkpt>
      <trkpt lat="43.51702" lon="6.63802">
        <ele>133.3</ele>
        <time>2023-03-04T10:16:44.000Z</time>
      </trkpt>
      <trkpt lat="43.517" lon="6.63792">
        <ele>132.9</ele>
        <time>2023-03-04T10:16:45.000Z</time>
      </trkpt>
      <trkpt lat="43.51698" lon="6.63781">
        <ele>132.5</ele>
        <time>2023-03-04T10:16:46.000Z</time>
      </trkpt>
      <trkpt lat="43.51697" lon="6.63769">
        <ele>132.1</ele>
        <time>2023-03-04T10:16:47.000Z</time>
      </trkpt>
      <trkpt lat="43.51696" lon="6.63758">
        <ele>131.7</ele>
        <time>2023-03-04T10:16:48.000Z</time>
      </trkpt>
      <trkpt lat="43.51696" lon="6.63746">
        <ele>131.3</ele>
        <time>2023-03-04T10:16:49.000Z</time>
      </trkpt>
      <trkpt lat="43.51696" lon="6.63735">
        <ele>131</ele>
        <time>2023-03-04T10:16:50.000Z</time>
      </trkpt>
      <trkpt lat="43.51695" lon="6.63723">
        <ele>130.6</ele>
        <time>2023-03-04T10:16:51.000Z</time>
      </trkpt>
      <trkpt lat="43.51695" lon="6.63712">
        <ele>130.3</ele>
        <time>2023-03-04T10:16:52.000Z</time>
      </trkpt>
      <trkpt lat="43.51694" lon="6.63701">
        <ele>129.9</ele>
        <time>2023-03-04T10:16:53.000Z</time>
      </trkpt>
      <trkpt lat="43.51693" lon="6.63691">
        <ele>129.6</ele>
        <time>2023-03-04T10:16:54.000Z</time>
      </trkpt>
      <trkpt lat="43.51691" lon="6.63682">
        <ele>129.3</ele>
        <time>2023-03-04T10:16:55.000Z</time>
      </trkpt>
      <trkpt lat="43.51688" lon="6.63674">
        <ele>129</ele>
        <time>2023-03-04T10:16:56.000Z</time>
      </trkpt>
      <trkpt lat="43.51683" lon="6.63671">
        <ele>128.7</ele>
        <time>2023-03-04T10:16:57.000Z</time>
      </trkpt>
      <trkpt lat="43.51677" lon="6.63672">
        <ele>128.3</ele>
        <time>2023-03-04T10:16:58.000Z</time>
      </trkpt>
      <trkpt lat="43.51672" lon="6.63677">
        <ele>127.6</ele>
        <time>2023-03-04T10:16:59.000Z</time>
      </trkpt>
      <trkpt lat="43.51666" lon="6.63682">
        <ele>126.8</ele>
        <time>2023-03-04T10:17:00.000Z</time>
      </trkpt>
      <trkpt lat="43.51659" lon="6.63688">
        <ele>126</ele>
        <time>2023-03-04T10:17:01.000Z</time>
      </trkpt>
      <trkpt lat="43.51652" lon="6.63694">
        <ele>125.1</ele>
        <time>2023-03-04T10:17:02.000Z</time>
      </trkpt>
      <trkpt lat="43.51645" lon="6.637">
        <ele>124</ele>
        <time>2023-03-04T10:17:03.000Z</time>
      </trkpt>
      <trkpt lat="43.51637" lon="6.63706">
        <ele>122.8</ele>
        <time>2023-03-04T10:17:04.000Z</time>
      </trkpt>
      <trkpt lat="43.51628" lon="6.63713">
        <ele>121.6</ele>
        <time>2023-03-04T10:17:05.000Z</time>
      </trkpt>
      <trkpt lat="43.5162" lon="6.6372">
        <ele>120.4</ele>
        <time>2023-03-04T10:17:06.000Z</time>
      </trkpt>
      <trkpt lat="43.51611" lon="6.63727">
        <ele>119.1</ele>
        <time>2023-03-04T10:17:07.000Z</time>
      </trkpt>
      <trkpt lat="43.51601" lon="6.63735">
        <ele>117.8</ele>
        <time>2023-03-04T10:17:08.000Z</time>
      </trkpt>
      <trkpt lat="43.51591" lon="6.63743">
        <ele>116.6</ele>
        <time>2023-03-04T10:17:09.000Z</time>
      </trkpt>
      <trkpt lat="43.51582" lon="6.63751">
        <ele>115.3</ele>
        <time>2023-03-04T10:17:10.000Z</time>
      </trkpt>
      <trkpt lat="43.51571" lon="6.6376">
        <ele>114</ele>
        <time>2023-03-04T10:17:11.000Z</time>
      </trkpt>
      <trkpt lat="43.51561" lon="6.63767">
        <ele>112.8</ele>
        <time>2023-03-04T10:17:12.000Z</time>
      </trkpt>
      <trkpt lat="43.51551" lon="6.63775">
        <ele>111.6</ele>
        <time>2023-03-04T10:17:13.000Z</time>
      </trkpt>
      <trkpt lat="43.5154" lon="6.63783">
        <ele>110.5</ele>
        <time>2023-03-04T10:17:14.000Z</time>
      </trkpt>
      <trkpt lat="43.51529" lon="6.63792">
        <ele>109.4</ele>
        <time>2023-03-04T10:17:15.000Z</time>
      </trkpt>
      <trkpt lat="43.51518" lon="6.638">
        <ele>108.4</ele>
        <time>2023-03-04T10:17:16.000Z</time>
      </trkpt>
      <trkpt lat="43.51508" lon="6.63809">
        <ele>107.3</ele>
        <time>2023-03-04T10:17:17.000Z</time>
      </trkpt>
      <trkpt lat="43.51497" lon="6.63817">
        <ele>106.3</ele>
        <time>2023-03-04T10:17:18.000Z</time>
      </trkpt>
      <trkpt lat="43.51487" lon="6.63826">
        <ele>105.2</ele>
        <time>2023-03-04T10:17:19.000Z</time>
      </trkpt>
      <trkpt lat="43.51476" lon="6.63835">
        <ele>104.3</ele>
        <time>2023-03-04T10:17:20.000Z</time>
      </trkpt>
      <trkpt lat="43.51466" lon="6.63843">
        <ele>103.3</ele>
        <time>2023-03-04T10:17:21.000Z</time>
      </trkpt>
      <trkpt lat="43.51455" lon="6.63851">
        <ele>102.4</ele>
        <time>2023-03-04T10:17:22.000Z</time>
      </trkpt>
      <trkpt lat="43.51444" lon="6.6386">
        <ele>101.6</ele>
        <time>2023-03-04T10:17:23.000Z</time>
      </trkpt>
      <trkpt lat="43.51434" lon="6.63868">
        <ele>100.9</ele>
        <time>2023-03-04T10:17:24.000Z</time>
      </trkpt>
      <trkpt lat="43.51423" lon="6.63874">
        <ele>100.3</ele>
        <time>2023-03-04T10:17:25.000Z</time>
      </trkpt>
      <trkpt lat="43.51413" lon="6.63875">
        <ele>99.7</ele>
        <time>2023-03-04T10:17:26.000Z</time>
      </trkpt>
      <trkpt lat="43.51404" lon="6.63871">
        <ele>99.3</ele>
        <time>2023-03-04T10:17:27.000Z</time>
      </trkpt>
      <trkpt lat="43.51395" lon="6.63864">
        <ele>98.8</ele>
        <time>2023-03-04T10:17:28.000Z</time>
      </trkpt>
      <trkpt lat="43.51388" lon="6.63856">
        <ele>98.3</ele>
        <time>2023-03-04T10:17:29.000Z</time>
      </trkpt>
      <trkpt lat="43.51381" lon="6.63848">
        <ele>97.8</ele>
        <time>2023-03-04T10:17:30.000Z</time>
      </trkpt>
      <trkpt lat="43.51374" lon="6.6384">
        <ele>97.4</ele>
        <time>2023-03-04T10:17:31.000Z</time>
      </trkpt>
      <trkpt lat="43.51366" lon="6.63834">
        <ele>96.9</ele>
        <time>2023-03-04T10:17:32.000Z</time>
      </trkpt>
      <trkpt lat="43.51359" lon="6.63828">
        <ele>96.5</ele>
        <time>2023-03-04T10:17:33.000Z</time>
      </trkpt>
      <trkpt lat="43.51351" lon="6.63824">
        <ele>96.1</ele>
        <time>2023-03-04T10:17:34.000Z</time>
      </trkpt>
      <trkpt lat="43.51342" lon="6.6382">
        <ele>95.7</ele>
        <time>2023-03-04T10:17:35.000Z</time>
      </trkpt>
      <trkpt lat="43.51334" lon="6.63816">
        <ele>95.3</ele>
        <time>2023-03-04T10:17:36.000Z</time>
      </trkpt>
      <trkpt lat="43.51325" lon="6.63814">
        <ele>94.9</ele>
        <time>2023-03-04T10:17:37.000Z</time>
      </trkpt>
      <trkpt lat="43.51317" lon="6.63813">
        <ele>94.5</ele>
        <time>2023-03-04T10:17:38.000Z</time>
      </trkpt>
      <trkpt lat="43.51308" lon="6.63813">
        <ele>94.2</ele>
        <time>2023-03-04T10:17:39.000Z</time>
      </trkpt>
      <trkpt lat="43.51299" lon="6.63813">
        <ele>93.8</ele>
        <time>2023-03-04T10:17:40.000Z</time>
      </trkpt>
      <trkpt lat="43.51291" lon="6.63814">
        <ele>93.5</ele>
        <time>2023-03-04T10:17:41.000Z</time>
      </trkpt>
      <trkpt lat="43.51283" lon="6.63816">
        <ele>93.2</ele>
        <time>2023-03-04T10:17:42.000Z</time>
      </trkpt>
      <trkpt lat="43.51275" lon="6.63818">
        <ele>92.9</ele>
        <time>2023-03-04T10:17:43.000Z</time>
      </trkpt>
      <trkpt lat="43.51267" lon="6.6382">
        <ele>92.5</ele>
        <time>2023-03-04T10:17:44.000Z</time>
      </trkpt>
      <trkpt lat="43.51258" lon="6.63822">
        <ele>92.2</ele>
        <time>2023-03-04T10:17:45.000Z</time>
      </trkpt>
      <trkpt lat="43.5125" lon="6.63824">
        <ele>91.9</ele>
        <time>2023-03-04T10:17:46.000Z</time>
      </trkpt>
      <trkpt lat="43.51242" lon="6.63826">
        <ele>91.6</ele>
        <time>2023-03-04T10:17:47.000Z</time>
      </trkpt>
      <trkpt lat="43.51233" lon="6.63829">
        <ele>91.3</ele>
        <time>2023-03-04T10:17:48.000Z</time>
      </trkpt>
      <trkpt lat="43.51225" lon="6.63831">
        <ele>91.1</ele>
        <time>2023-03-04T10:17:49.000Z</time>
      </trkpt>
      <trkpt lat="43.51216" lon="6.63833">
        <ele>90.9</ele>
        <time>2023-03-04T10:17:50.000Z</time>
      </trkpt>
      <trkpt lat="43.51208" lon="6.63835">
        <ele>90.8</ele>
        <time>2023-03-04T10:17:51.000Z</time>
      </trkpt>
      <trkpt lat="43.512" lon="6.63837">
        <ele>90.7</ele>
        <time>2023-03-04T10:17:52.000Z</time>
      </trkpt>
      <trkpt lat="43.51192" lon="6.63839">
        <ele>90.7</ele>
        <time>2023-03-04T10:17:53.000Z</time>
      </trkpt>
      <trkpt lat="43.51183" lon="6.63842">
        <ele>90.8</ele>
        <time>2023-03-04T10:17:54.000Z</time>
      </trkpt>
      <trkpt lat="43.51175" lon="6.63844">
        <ele>91</ele>
        <time>2023-03-04T10:17:55.000Z</time>
      </trkpt>
      <trkpt lat="43.51168" lon="6.63846">
        <ele>91.1</ele>
        <time>2023-03-04T10:17:56.000Z</time>
      </trkpt>
      <trkpt lat="43.51161" lon="6.63847">
        <ele>91.3</ele>
        <time>2023-03-04T10:17:57.000Z</time>
      </trkpt>
      <trkpt lat="43.51154" lon="6.63849">
        <ele>91.4</ele>
        <time>2023-03-04T10:17:58.000Z</time>
      </trkpt>
      <trkpt lat="43.51148" lon="6.63851">
        <ele>91.4</ele>
        <time>2023-03-04T10:17:59.000Z</time>
      </trkpt>
      <trkpt lat="43.51142" lon="6.63853">
        <ele>91.5</ele>
        <time>2023-03-04T10:18:00.000Z</time>
      </trkpt>
      <trkpt lat="43.51137" lon="6.63854">
        <ele>91.6</ele>
        <time>2023-03-04T10:18:01.000Z</time>
      </trkpt>
      <trkpt lat="43.51133" lon="6.63856">
        <ele>91.6</ele>
        <time>2023-03-04T10:18:02.000Z</time>
      </trkpt>
      <trkpt lat="43.51128" lon="6.63858">
        <ele>91.8</ele>
        <time>2023-03-04T10:18:03.000Z</time>
      </trkpt>
      <trkpt lat="43.51124" lon="6.6386">
        <ele>91.9</ele>
        <time>2023-03-04T10:18:04.000Z</time>
      </trkpt>
      <trkpt lat="43.51121" lon="6.63862">
        <ele>92</ele>
        <time>2023-03-04T10:18:05.000Z</time>
      </trkpt>
      <trkpt lat="43.51118" lon="6.63865">
        <ele>92.1</ele>
        <time>2023-03-04T10:18:06.000Z</time>
      </trkpt>
      <trkpt lat="43.51115" lon="6.63867">
        <ele>92.2</ele>
        <time>2023-03-04T10:18:07.000Z</time>
      </trkpt>
      <trkpt lat="43.51112" lon="6.63869">
        <ele>92.3</ele>
        <time>2023-03-04T10:18:08.000Z</time>
      </trkpt>
      <trkpt lat="43.51109" lon="6.63871">
        <ele>92.4</ele>
        <time>2023-03-04T10:18:09.000Z</time>
      </trkpt>
      <trkpt lat="43.51107" lon="6.63873">
        <ele>92.5</ele>
        <time>2023-03-04T10:18:10.000Z</time>
      </trkpt>
      <trkpt lat="43.51103" lon="6.63876">
        <ele>92.7</ele>
        <time>2023-03-04T10:18:11.000Z</time>
      </trkpt>
      <trkpt lat="43.511" lon="6.63878">
        <ele>92.8</ele>
        <time>2023-03-04T10:18:12.000Z</time>
      </trkpt>
      <trkpt lat="43.51098" lon="6.6388">
        <ele>92.9</ele>
        <time>2023-03-04T10:18:13.000Z</time>
      </trkpt>
      <trkpt lat="43.51095" lon="6.63883">
        <ele>93</ele>
        <time>2023-03-04T10:18:14.000Z</time>
      </trkpt>
      <trkpt lat="43.51092" lon="6.63885">
        <ele>93.1</ele>
        <time>2023-03-04T10:18:15.000Z</time>
      </trkpt>
      <trkpt lat="43.51089" lon="6.63888">
        <ele>93.2</ele>
        <time>2023-03-04T10:18:16.000Z</time>
      </trkpt>
      <trkpt lat="43.51086" lon="6.6389">
        <ele>93.3</ele>
        <time>2023-03-04T10:18:17.000Z</time>
      </trkpt>
      <trkpt lat="43.51082" lon="6.63893">
        <ele>93.4</ele>
        <time>2023-03-04T10:18:18.000Z</time>
      </trkpt>
      <trkpt lat="43.5108" lon="6.63895">
        <ele>93.5</ele>
        <time>2023-03-04T10:18:19.000Z</time>
      </trkpt>
      <trkpt lat="43.51077" lon="6.63897">
        <ele>93.6</ele>
        <time>2023-03-04T10:18:20.000Z</time>
      </trkpt>
      <trkpt lat="43.51074" lon="6.63899">
        <ele>93.7</ele>
        <time>2023-03-04T10:18:21.000Z</time>
      </trkpt>
      <trkpt lat="43.51072" lon="6.63902">
        <ele>93.8</ele>
        <time>2023-03-04T10:18:22.000Z</time>
      </trkpt>
      <trkpt lat="43.51069" lon="6.63904">
        <ele>93.9</ele>
        <time>2023-03-04T10:18:23.000Z</time>
      </trkpt>
      <trkpt lat="43.51066" lon="6.63907">
        <ele>94</ele>
        <time>2023-03-04T10:18:24.000Z</time>
      </trkpt>
      <trkpt lat="43.51063" lon="6.63909">
        <ele>94.1</ele>
        <time>2023-03-04T10:18:25.000Z</time>
      </trkpt>
      <trkpt lat="43.51059" lon="6.63912">
        <ele>94.2</ele>
        <time>2023-03-04T10:18:26.000Z</time>
      </trkpt>
      <trkpt lat="43.51055" lon="6.63915">
        <ele>94.3</ele>
        <time>2023-03-04T10:18:27.000Z</time>
      </trkpt>
      <trkpt lat="43.51053" lon="6.63916">
        <ele>94.3</ele>
        <time>2023-03-04T10:18:28.000Z</time>
      </trkpt>
      <trkpt lat="43.5105" lon="6.63919">
        <ele>94.4</ele>
        <time>2023-03-04T10:18:29.000Z</time>
      </trkpt>
      <trkpt lat="43.51047" lon="6.63921">
        <ele>94.5</ele>
        <time>2023-03-04T10:18:30.000Z</time>
      </trkpt>
      <trkpt lat="43.51044" lon="6.63924">
        <ele>94.5</ele>
        <time>2023-03-04T10:18:31.000Z</time>
      </trkpt>
      <trkpt lat="43.5104" lon="6.63927">
        <ele>94.6</ele>
        <time>2023-03-04T10:18:32.000Z</time>
      </trkpt>
      <trkpt lat="43.51038" lon="6.63929">
        <ele>94.6</ele>
        <time>2023-03-04T10:18:33.000Z</time>
      </trkpt>
      <trkpt lat="43.51035" lon="6.63931">
        <ele>94.7</ele>
        <time>2023-03-04T10:18:34.000Z</time>
      </trkpt>
      <trkpt lat="43.51031" lon="6.63934">
        <ele>94.8</ele>
        <time>2023-03-04T10:18:35.000Z</time>
      </trkpt>
      <trkpt lat="43.51028" lon="6.63936">
        <ele>94.8</ele>
        <time>2023-03-04T10:18:36.000Z</time>
      </trkpt>
      <trkpt lat="43.51025" lon="6.63939">
        <ele>94.9</ele>
        <time>2023-03-04T10:18:37.000Z</time>
      </trkpt>
      <trkpt lat="43.51022" lon="6.63941">
        <ele>94.9</ele>
        <time>2023-03-04T10:18:38.000Z</time>
      </trkpt>
      <trkpt lat="43.51018" lon="6.63945">
        <ele>95</ele>
        <time>2023-03-04T10:18:39.000Z</time>
      </trkpt>
      <trkpt lat="43.51015" lon="6.63947">
        <ele>95</ele>
        <time>2023-03-04T10:18:40.000Z</time>
      </trkpt>
      <trkpt lat="43.51011" lon="6.63949">
        <ele>95.1</ele>
        <time>2023-03-04T10:18:41.000Z</time>
      </trkpt>
      <trkpt lat="43.51008" lon="6.63951">
        <ele>95.1</ele>
        <time>2023-03-04T10:18:42.000Z</time>
      </trkpt>
      <trkpt lat="43.51004" lon="6.63954">
        <ele>95.1</ele>
        <time>2023-03-04T10:18:43.000Z</time>
      </trkpt>
      <trkpt lat="43.51001" lon="6.63956">
        <ele>95.2</ele>
        <time>2023-03-04T10:18:44.000Z</time>
      </trkpt>
      <trkpt lat="43.50997" lon="6.63959">
        <ele>95.2</ele>
        <time>2023-03-04T10:18:45.000Z</time>
      </trkpt>
      <trkpt lat="43.50993" lon="6.6396">
        <ele>95.2</ele>
        <time>2023-03-04T10:18:46.000Z</time>
      </trkpt>
      <trkpt lat="43.5099" lon="6.63962">
        <ele>95.3</ele>
        <time>2023-03-04T10:18:47.000Z</time>
      </trkpt>
      <trkpt lat="43.50987" lon="6.63964">
        <ele>95.3</ele>
        <time>2023-03-04T10:18:48.000Z</time>
      </trkpt>
      <trkpt lat="43.50984" lon="6.63966">
        <ele>95.4</ele>
        <time>2023-03-04T10:18:49.000Z</time>
      </trkpt>
      <trkpt lat="43.5098" lon="6.63967">
        <ele>95.4</ele>
        <time>2023-03-04T10:18:50.000Z</time>
      </trkpt>
      <trkpt lat="43.50977" lon="6.63969">
        <ele>95.4</ele>
        <time>2023-03-04T10:18:52.000Z</time>
      </trkpt>
      <trkpt lat="43.5097" lon="6.63972">
        <ele>95.5</ele>
        <time>2023-03-04T10:18:53.000Z</time>
      </trkpt>
      <trkpt lat="43.50964" lon="6.63974">
        <ele>95.6</ele>
        <time>2023-03-04T10:18:55.000Z</time>
      </trkpt>
      <trkpt lat="43.5096" lon="6.63976">
        <ele>95.6</ele>
        <time>2023-03-04T10:18:56.000Z</time>
      </trkpt>
      <trkpt lat="43.50957" lon="6.63977">
        <ele>95.7</ele>
        <time>2023-03-04T10:18:57.000Z</time>
      </trkpt>
      <trkpt lat="43.50951" lon="6.6398">
        <ele>95.8</ele>
        <time>2023-03-04T10:18:59.000Z</time>
      </trkpt>
      <trkpt lat="43.50947" lon="6.63982">
        <ele>95.8</ele>
        <time>2023-03-04T10:19:00.000Z</time>
      </trkpt>
      <trkpt lat="43.50942" lon="6.63983">
        <ele>95.9</ele>
        <time>2023-03-04T10:19:01.000Z</time>
      </trkpt>
      <trkpt lat="43.50939" lon="6.63984">
        <ele>95.9</ele>
        <time>2023-03-04T10:19:02.000Z</time>
      </trkpt>
      <trkpt lat="43.50934" lon="6.63987">
        <ele>96</ele>
        <time>2023-03-04T10:19:04.000Z</time>
      </trkpt>
      <trkpt lat="43.5093" lon="6.63989">
        <ele>96.1</ele>
        <time>2023-03-04T10:19:05.000Z</time>
      </trkpt>
      <trkpt lat="43.50926" lon="6.63991">
        <ele>96.1</ele>
        <time>2023-03-04T10:19:06.000Z</time>
      </trkpt>
      <trkpt lat="43.50921" lon="6.63993">
        <ele>96.2</ele>
        <time>2023-03-04T10:19:08.000Z</time>
      </trkpt>
      <trkpt lat="43.50918" lon="6.63995">
        <ele>96.2</ele>
        <time>2023-03-04T10:19:09.000Z</time>
      </trkpt>
      <trkpt lat="43.50913" lon="6.63996">
        <ele>96.3</ele>
        <time>2023-03-04T10:19:10.000Z</time>
      </trkpt>
      <trkpt lat="43.5091" lon="6.63998">
        <ele>96.3</ele>
        <time>2023-03-04T10:19:11.000Z</time>
      </trkpt>
      <trkpt lat="43.50907" lon="6.64">
        <ele>96.3</ele>
        <time>2023-03-04T10:19:12.000Z</time>
      </trkpt>
      <trkpt lat="43.50903" lon="6.64002">
        <ele>96.3</ele>
        <time>2023-03-04T10:19:13.000Z</time>
      </trkpt>
      <trkpt lat="43.509" lon="6.64003">
        <ele>96.4</ele>
        <time>2023-03-04T10:19:14.000Z</time>
      </trkpt>
      <trkpt lat="43.50896" lon="6.64004">
        <ele>96.4</ele>
        <time>2023-03-04T10:19:16.000Z</time>
      </trkpt>
      <trkpt lat="43.50892" lon="6.64007">
        <ele>96.4</ele>
        <time>2023-03-04T10:19:17.000Z</time>
      </trkpt>
      <trkpt lat="43.50888" lon="6.64009">
        <ele>96.4</ele>
        <time>2023-03-04T10:19:18.000Z</time>
      </trkpt>
      <trkpt lat="43.50881" lon="6.64013">
        <ele>96.4</ele>
        <time>2023-03-04T10:19:20.000Z</time>
      </trkpt>
      <trkpt lat="43.50876" lon="6.64015">
        <ele>96.4</ele>
        <time>2023-03-04T10:19:21.000Z</time>
      </trkpt>
      <trkpt lat="43.50871" lon="6.64017">
        <ele>96.4</ele>
        <time>2023-03-04T10:19:22.000Z</time>
      </trkpt>
      <trkpt lat="43.50862" lon="6.64021">
        <ele>96.4</ele>
        <time>2023-03-04T10:19:24.000Z</time>
      </trkpt>
      <trkpt lat="43.50857" lon="6.64024">
        <ele>96.3</ele>
        <time>2023-03-04T10:19:26.000Z</time>
      </trkpt>
      <trkpt lat="43.5085" lon="6.64027">
        <ele>96.2</ele>
        <time>2023-03-04T10:19:27.000Z</time>
      </trkpt>
      <trkpt lat="43.50845" lon="6.64029">
        <ele>96.1</ele>
        <time>2023-03-04T10:19:28.000Z</time>
      </trkpt>
      <trkpt lat="43.5084" lon="6.64032">
        <ele>96</ele>
        <time>2023-03-04T10:19:29.000Z</time>
      </trkpt>
      <trkpt lat="43.50835" lon="6.64034">
        <ele>95.8</ele>
        <time>2023-03-04T10:19:30.000Z</time>
      </trkpt>
      <trkpt lat="43.5083" lon="6.64036">
        <ele>95.7</ele>
        <time>2023-03-04T10:19:31.000Z</time>
      </trkpt>
      <trkpt lat="43.50825" lon="6.64039">
        <ele>95.6</ele>
        <time>2023-03-04T10:19:32.000Z</time>
      </trkpt>
      <trkpt lat="43.5082" lon="6.64041">
        <ele>95.4</ele>
        <time>2023-03-04T10:19:33.000Z</time>
      </trkpt>
      <trkpt lat="43.50815" lon="6.64044">
        <ele>95.2</ele>
        <time>2023-03-04T10:19:34.000Z</time>
      </trkpt>
      <trkpt lat="43.5081" lon="6.64046">
        <ele>94.9</ele>
        <time>2023-03-04T10:19:35.000Z</time>
      </trkpt>
      <trkpt lat="43.50804" lon="6.64049">
        <ele>94.6</ele>
        <time>2023-03-04T10:19:36.000Z</time>
      </trkpt>
      <trkpt lat="43.50798" lon="6.64052">
        <ele>94.3</ele>
        <time>2023-03-04T10:19:37.000Z</time>
      </trkpt>
      <trkpt lat="43.50793" lon="6.64054">
        <ele>93.9</ele>
        <time>2023-03-04T10:19:38.000Z</time>
      </trkpt>
      <trkpt lat="43.50787" lon="6.64058">
        <ele>93.5</ele>
        <time>2023-03-04T10:19:39.000Z</time>
      </trkpt>
      <trkpt lat="43.5078" lon="6.64061">
        <ele>93</ele>
        <time>2023-03-04T10:19:40.000Z</time>
      </trkpt>
      <trkpt lat="43.50773" lon="6.64064">
        <ele>92.3</ele>
        <time>2023-03-04T10:19:41.000Z</time>
      </trkpt>
      <trkpt lat="43.50766" lon="6.64067">
        <ele>91.6</ele>
        <time>2023-03-04T10:19:42.000Z</time>
      </trkpt>
      <trkpt lat="43.50759" lon="6.6407">
        <ele>90.9</ele>
        <time>2023-03-04T10:19:43.000Z</time>
      </trkpt>
      <trkpt lat="43.50752" lon="6.64073">
        <ele>90.1</ele>
        <time>2023-03-04T10:19:44.000Z</time>
      </trkpt>
      <trkpt lat="43.50744" lon="6.64077">
        <ele>89.2</ele>
        <time>2023-03-04T10:19:45.000Z</time>
      </trkpt>
      <trkpt lat="43.50736" lon="6.64081">
        <ele>88.4</ele>
        <time>2023-03-04T10:19:46.000Z</time>
      </trkpt>
      <trkpt lat="43.50727" lon="6.64085">
        <ele>87.4</ele>
        <time>2023-03-04T10:19:47.000Z</time>
      </trkpt>
      <trkpt lat="43.50718" lon="6.6409">
        <ele>86.5</ele>
        <time>2023-03-04T10:19:48.000Z</time>
      </trkpt>
      <trkpt lat="43.50709" lon="6.64095">
        <ele>85.5</ele>
        <time>2023-03-04T10:19:49.000Z</time>
      </trkpt>
      <trkpt lat="43.507" lon="6.64101">
        <ele>84.6</ele>
        <time>2023-03-04T10:19:50.000Z</time>
      </trkpt>
      <trkpt lat="43.50692" lon="6.64109">
        <ele>83.7</ele>
        <time>2023-03-04T10:19:51.000Z</time>
      </trkpt>
      <trkpt lat="43.50684" lon="6.64118">
        <ele>82.9</ele>
        <time>2023-03-04T10:19:52.000Z</time>
      </trkpt>
      <trkpt lat="43.50676" lon="6.64127">
        <ele>82.2</ele>
        <time>2023-03-04T10:19:53.000Z</time>
      </trkpt>
      <trkpt lat="43.50668" lon="6.64137">
        <ele>81.5</ele>
        <time>2023-03-04T10:19:54.000Z</time>
      </trkpt>
      <trkpt lat="43.50659" lon="6.64146">
        <ele>80.8</ele>
        <time>2023-03-04T10:19:55.000Z</time>
      </trkpt>
      <trkpt lat="43.50651" lon="6.64156">
        <ele>80.3</ele>
        <time>2023-03-04T10:19:56.000Z</time>
      </trkpt>
      <trkpt lat="43.50642" lon="6.64166">
        <ele>79.9</ele>
        <time>2023-03-04T10:19:57.000Z</time>
      </trkpt>
      <trkpt lat="43.50633" lon="6.64175">
        <ele>79.6</ele>
        <time>2023-03-04T10:19:58.000Z</time>
      </trkpt>
      <trkpt lat="43.50625" lon="6.64184">
        <ele>79.3</ele>
        <time>2023-03-04T10:19:59.000Z</time>
      </trkpt>
      <trkpt lat="43.50617" lon="6.64193">
        <ele>79.2</ele>
        <time>2023-03-04T10:20:00.000Z</time>
      </trkpt>
      <trkpt lat="43.50608" lon="6.64201">
        <ele>79.1</ele>
        <time>2023-03-04T10:20:01.000Z</time>
      </trkpt>
      <trkpt lat="43.506" lon="6.64209">
        <ele>79.1</ele>
        <time>2023-03-04T10:20:02.000Z</time>
      </trkpt>
      <trkpt lat="43.50593" lon="6.64217">
        <ele>79</ele>
        <time>2023-03-04T10:20:03.000Z</time>
      </trkpt>
      <trkpt lat="43.50586" lon="6.64224">
        <ele>79</ele>
        <time>2023-03-04T10:20:04.000Z</time>
      </trkpt>
      <trkpt lat="43.5058" lon="6.64229">
        <ele>78.9</ele>
        <time>2023-03-04T10:20:05.000Z</time>
      </trkpt>
      <trkpt lat="43.50573" lon="6.64234">
        <ele>78.9</ele>
        <time>2023-03-04T10:20:06.000Z</time>
      </trkpt>
      <trkpt lat="43.50567" lon="6.64238">
        <ele>78.8</ele>
        <time>2023-03-04T10:20:07.000Z</time>
      </trkpt>
      <trkpt lat="43.50561" lon="6.64241">
        <ele>78.8</ele>
        <time>2023-03-04T10:20:08.000Z</time>
      </trkpt>
      <trkpt lat="43.50555" lon="6.64244">
        <ele>78.8</ele>
        <time>2023-03-04T10:20:09.000Z</time>
      </trkpt>
      <trkpt lat="43.50549" lon="6.64246">
        <ele>78.8</ele>
        <time>2023-03-04T10:20:10.000Z</time>
      </trkpt>
      <trkpt lat="43.50542" lon="6.64247">
        <ele>78.6</ele>
        <time>2023-03-04T10:20:11.000Z</time>
      </trkpt>
      <trkpt lat="43.50535" lon="6.64248">
        <ele>78.4</ele>
        <time>2023-03-04T10:20:12.000Z</time>
      </trkpt>
      <trkpt lat="43.50528" lon="6.64249">
        <ele>78.1</ele>
        <time>2023-03-04T10:20:13.000Z</time>
      </trkpt>
      <trkpt lat="43.5052" lon="6.64248">
        <ele>77.8</ele>
        <time>2023-03-04T10:20:14.000Z</time>
      </trkpt>
      <trkpt lat="43.50512" lon="6.64247">
        <ele>77.5</ele>
        <time>2023-03-04T10:20:15.000Z</time>
      </trkpt>
      <trkpt lat="43.50505" lon="6.64245">
        <ele>77.2</ele>
        <time>2023-03-04T10:20:16.000Z</time>
      </trkpt>
      <trkpt lat="43.50498" lon="6.64242">
        <ele>76.9</ele>
        <time>2023-03-04T10:20:17.000Z</time>
      </trkpt>
      <trkpt lat="43.5049" lon="6.64239">
        <ele>76.6</ele>
        <time>2023-03-04T10:20:18.000Z</time>
      </trkpt>
      <trkpt lat="43.50483" lon="6.64236">
        <ele>76.3</ele>
        <time>2023-03-04T10:20:19.000Z</time>
      </trkpt>
      <trkpt lat="43.50476" lon="6.64232">
        <ele>76</ele>
        <time>2023-03-04T10:20:20.000Z</time>
      </trkpt>
      <trkpt lat="43.50468" lon="6.64228">
        <ele>75.7</ele>
        <time>2023-03-04T10:20:21.000Z</time>
      </trkpt>
      <trkpt lat="43.50461" lon="6.64225">
        <ele>75.4</ele>
        <time>2023-03-04T10:20:22.000Z</time>
      </trkpt>
      <trkpt lat="43.50453" lon="6.64221">
        <ele>75.3</ele>
        <time>2023-03-04T10:20:23.000Z</time>
      </trkpt>
      <trkpt lat="43.50446" lon="6.64218">
        <ele>75.1</ele>
        <time>2023-03-04T10:20:24.000Z</time>
      </trkpt>
      <trkpt lat="43.50438" lon="6.64214">
        <ele>74.6</ele>
        <time>2023-03-04T10:20:25.000Z</time>
      </trkpt>
      <trkpt lat="43.5043" lon="6.6421">
        <ele>74.2</ele>
        <time>2023-03-04T10:20:26.000Z</time>
      </trkpt>
      <trkpt lat="43.50422" lon="6.64207">
        <ele>73.8</ele>
        <time>2023-03-04T10:20:27.000Z</time>
      </trkpt>
      <trkpt lat="43.50414" lon="6.64203">
        <ele>73.3</ele>
        <time>2023-03-04T10:20:28.000Z</time>
      </trkpt>
      <trkpt lat="43.50406" lon="6.642">
        <ele>72.9</ele>
        <time>2023-03-04T10:20:29.000Z</time>
      </trkpt>
      <trkpt lat="43.50398" lon="6.64195">
        <ele>72.4</ele>
        <time>2023-03-04T10:20:30.000Z</time>
      </trkpt>
      <trkpt lat="43.5039" lon="6.64191">
        <ele>71.9</ele>
        <time>2023-03-04T10:20:31.000Z</time>
      </trkpt>
      <trkpt lat="43.50382" lon="6.64188">
        <ele>71.4</ele>
        <time>2023-03-04T10:20:32.000Z</time>
      </trkpt>
      <trkpt lat="43.50374" lon="6.64184">
        <ele>70.9</ele>
        <time>2023-03-04T10:20:33.000Z</time>
      </trkpt>
      <trkpt lat="43.50366" lon="6.64182">
        <ele>70.4</ele>
        <time>2023-03-04T10:20:34.000Z</time>
      </trkpt>
      <trkpt lat="43.50358" lon="6.6418">
        <ele>70</ele>
        <time>2023-03-04T10:20:35.000Z</time>
      </trkpt>
      <trkpt lat="43.5035" lon="6.64178">
        <ele>69.5</ele>
        <time>2023-03-04T10:20:36.000Z</time>
      </trkpt>
      <trkpt lat="43.50342" lon="6.64176">
        <ele>69</ele>
        <time>2023-03-04T10:20:37.000Z</time>
      </trkpt>
      <trkpt lat="43.50334" lon="6.64176">
        <ele>68.4</ele>
        <time>2023-03-04T10:20:38.000Z</time>
      </trkpt>
      <trkpt lat="43.50325" lon="6.64176">
        <ele>67.8</ele>
        <time>2023-03-04T10:20:39.000Z</time>
      </trkpt>
      <trkpt lat="43.50316" lon="6.64177">
        <ele>67.1</ele>
        <time>2023-03-04T10:20:40.000Z</time>
      </trkpt>
      <trkpt lat="43.50307" lon="6.64178">
        <ele>66.4</ele>
        <time>2023-03-04T10:20:41.000Z</time>
      </trkpt>
      <trkpt lat="43.50298" lon="6.64179">
        <ele>65.8</ele>
        <time>2023-03-04T10:20:42.000Z</time>
      </trkpt>
      <trkpt lat="43.50289" lon="6.6418">
        <ele>65.2</ele>
        <time>2023-03-04T10:20:43.000Z</time>
      </trkpt>
      <trkpt lat="43.50279" lon="6.64181">
        <ele>64.7</ele>
        <time>2023-03-04T10:20:44.000Z</time>
      </trkpt>
      <trkpt lat="43.50269" lon="6.64184">
        <ele>64</ele>
        <time>2023-03-04T10:20:45.000Z</time>
      </trkpt>
      <trkpt lat="43.50259" lon="6.64187">
        <ele>63.4</ele>
        <time>2023-03-04T10:20:46.000Z</time>
      </trkpt>
      <trkpt lat="43.50249" lon="6.6419">
        <ele>62.9</ele>
        <time>2023-03-04T10:20:47.000Z</time>
      </trkpt>
      <trkpt lat="43.5024" lon="6.64194">
        <ele>62.4</ele>
        <time>2023-03-04T10:20:48.000Z</time>
      </trkpt>
      <trkpt lat="43.5023" lon="6.64199">
        <ele>62.1</ele>
        <time>2023-03-04T10:20:49.000Z</time>
      </trkpt>
      <trkpt lat="43.50221" lon="6.64204">
        <ele>62</ele>
        <time>2023-03-04T10:20:50.000Z</time>
      </trkpt>
      <trkpt lat="43.50212" lon="6.6421">
        <ele>62</ele>
        <time>2023-03-04T10:20:51.000Z</time>
      </trkpt>
      <trkpt lat="43.50204" lon="6.64216">
        <ele>62</ele>
        <time>2023-03-04T10:20:52.000Z</time>
      </trkpt>
      <trkpt lat="43.50197" lon="6.64222">
        <ele>62.1</ele>
        <time>2023-03-04T10:20:53.000Z</time>
      </trkpt>
      <trkpt lat="43.50189" lon="6.64228">
        <ele>62.3</ele>
        <time>2023-03-04T10:20:54.000Z</time>
      </trkpt>
      <trkpt lat="43.50183" lon="6.64233">
        <ele>62.6</ele>
        <time>2023-03-04T10:20:55.000Z</time>
      </trkpt>
      <trkpt lat="43.50177" lon="6.64239">
        <ele>62.9</ele>
        <time>2023-03-04T10:20:56.000Z</time>
      </trkpt>
      <trkpt lat="43.50172" lon="6.64245">
        <ele>63.3</ele>
        <time>2023-03-04T10:20:57.000Z</time>
      </trkpt>
      <trkpt lat="43.50167" lon="6.64251">
        <ele>63.6</ele>
        <time>2023-03-04T10:20:58.000Z</time>
      </trkpt>
      <trkpt lat="43.50163" lon="6.64256">
        <ele>63.9</ele>
        <time>2023-03-04T10:20:59.000Z</time>
      </trkpt>
      <trkpt lat="43.50159" lon="6.64261">
        <ele>64.2</ele>
        <time>2023-03-04T10:21:00.000Z</time>
      </trkpt>
      <trkpt lat="43.50155" lon="6.64266">
        <ele>64.5</ele>
        <time>2023-03-04T10:21:01.000Z</time>
      </trkpt>
      <trkpt lat="43.50152" lon="6.6427">
        <ele>64.7</ele>
        <time>2023-03-04T10:21:02.000Z</time>
      </trkpt>
      <trkpt lat="43.50149" lon="6.64275">
        <ele>65</ele>
        <time>2023-03-04T10:21:03.000Z</time>
      </trkpt>
      <trkpt lat="43.50146" lon="6.64279">
        <ele>65.3</ele>
        <time>2023-03-04T10:21:04.000Z</time>
      </trkpt>
      <trkpt lat="43.50143" lon="6.64283">
        <ele>65.6</ele>
        <time>2023-03-04T10:21:05.000Z</time>
      </trkpt>
      <trkpt lat="43.5014" lon="6.64287">
        <ele>65.9</ele>
        <time>2023-03-04T10:21:06.000Z</time>
      </trkpt>
      <trkpt lat="43.50138" lon="6.64291">
        <ele>66.2</ele>
        <time>2023-03-04T10:21:07.000Z</time>
      </trkpt>
      <trkpt lat="43.50136" lon="6.64293">
        <ele>66.4</ele>
        <time>2023-03-04T10:21:08.000Z</time>
      </trkpt>
      <trkpt lat="43.50133" lon="6.64298">
        <ele>66.8</ele>
        <time>2023-03-04T10:21:09.000Z</time>
      </trkpt>
      <trkpt lat="43.50131" lon="6.64302">
        <ele>67</ele>
        <time>2023-03-04T10:21:10.000Z</time>
      </trkpt>
      <trkpt lat="43.50128" lon="6.64306">
        <ele>67.3</ele>
        <time>2023-03-04T10:21:11.000Z</time>
      </trkpt>
      <trkpt lat="43.50127" lon="6.64309">
        <ele>67.5</ele>
        <time>2023-03-04T10:21:12.000Z</time>
      </trkpt>
      <trkpt lat="43.50125" lon="6.64313">
        <ele>67.8</ele>
        <time>2023-03-04T10:21:14.000Z</time>
      </trkpt>
      <trkpt lat="43.50122" lon="6.64319">
        <ele>68.2</ele>
        <time>2023-03-04T10:21:15.000Z</time>
      </trkpt>
      <trkpt lat="43.50118" lon="6.64326">
        <ele>68.7</ele>
        <time>2023-03-04T10:21:16.000Z</time>
      </trkpt>
      <trkpt lat="43.50116" lon="6.6433">
        <ele>68.9</ele>
        <time>2023-03-04T10:21:17.000Z</time>
      </trkpt>
      <trkpt lat="43.50114" lon="6.64335">
        <ele>69.2</ele>
        <time>2023-03-04T10:21:19.000Z</time>
      </trkpt>
      <trkpt lat="43.50112" lon="6.6434">
        <ele>69.5</ele>
        <time>2023-03-04T10:21:20.000Z</time>
      </trkpt>
      <trkpt lat="43.5011" lon="6.64345">
        <ele>69.8</ele>
        <time>2023-03-04T10:21:21.000Z</time>
      </trkpt>
      <trkpt lat="43.50108" lon="6.6435">
        <ele>70.1</ele>
        <time>2023-03-04T10:21:22.000Z</time>
      </trkpt>
      <trkpt lat="43.50106" lon="6.64354">
        <ele>70.3</ele>
        <time>2023-03-04T10:21:23.000Z</time>
      </trkpt>
      <trkpt lat="43.50105" lon="6.64358">
        <ele>70.5</ele>
        <time>2023-03-04T10:21:24.000Z</time>
      </trkpt>
      <trkpt lat="43.50104" lon="6.64362">
        <ele>70.7</ele>
        <time>2023-03-04T10:21:25.000Z</time>
      </trkpt>
      <trkpt lat="43.50103" lon="6.64366">
        <ele>70.9</ele>
        <time>2023-03-04T10:21:26.000Z</time>
      </trkpt>
      <trkpt lat="43.50102" lon="6.6437">
        <ele>71.1</ele>
        <time>2023-03-04T10:21:27.000Z</time>
      </trkpt>
      <trkpt lat="43.50101" lon="6.64374">
        <ele>71.3</ele>
        <time>2023-03-04T10:21:28.000Z</time>
      </trkpt>
      <trkpt lat="43.50101" lon="6.64378">
        <ele>71.4</ele>
        <time>2023-03-04T10:21:29.000Z</time>
      </trkpt>
      <trkpt lat="43.50101" lon="6.64382">
        <ele>71.6</ele>
        <time>2023-03-04T10:21:30.000Z</time>
      </trkpt>
      <trkpt lat="43.50102" lon="6.64387">
        <ele>71.8</ele>
        <time>2023-03-04T10:21:31.000Z</time>
      </trkpt>
      <trkpt lat="43.50102" lon="6.64392">
        <ele>72</ele>
        <time>2023-03-04T10:21:32.000Z</time>
      </trkpt>
      <trkpt lat="43.50102" lon="6.64396">
        <ele>72</ele>
        <time>2023-03-04T10:21:33.000Z</time>
      </trkpt>
      <trkpt lat="43.50101" lon="6.64401">
        <ele>72.1</ele>
        <time>2023-03-04T10:21:34.000Z</time>
      </trkpt>
      <trkpt lat="43.501" lon="6.64404">
        <ele>72.2</ele>
        <time>2023-03-04T10:21:35.000Z</time>
      </trkpt>
      <trkpt lat="43.50097" lon="6.64408">
        <ele>72.3</ele>
        <time>2023-03-04T10:21:36.000Z</time>
      </trkpt>
      <trkpt lat="43.50094" lon="6.6441">
        <ele>72.4</ele>
        <time>2023-03-04T10:21:37.000Z</time>
      </trkpt>
      <trkpt lat="43.5009" lon="6.64411">
        <ele>72.5</ele>
        <time>2023-03-04T10:21:38.000Z</time>
      </trkpt>
      <trkpt lat="43.50086" lon="6.6441">
        <ele>72.6</ele>
        <time>2023-03-04T10:21:39.000Z</time>
      </trkpt>
      <trkpt lat="43.50084" lon="6.6441">
        <ele>72.6</ele>
        <time>2023-03-04T10:21:40.000Z</time>
      </trkpt>
      <trkpt lat="43.50081" lon="6.64408">
        <ele>72.7</ele>
        <time>2023-03-04T10:21:41.000Z</time>
      </trkpt>
      <trkpt lat="43.50078" lon="6.64405">
        <ele>72.8</ele>
        <time>2023-03-04T10:21:42.000Z</time>
      </trkpt>
      <trkpt lat="43.50075" lon="6.64401">
        <ele>72.8</ele>
        <time>2023-03-04T10:21:43.000Z</time>
      </trkpt>
      <trkpt lat="43.50072" lon="6.64397">
        <ele>72.8</ele>
        <time>2023-03-04T10:21:44.000Z</time>
      </trkpt>
      <trkpt lat="43.50068" lon="6.64394">
        <ele>72.8</ele>
        <time>2023-03-04T10:21:45.000Z</time>
      </trkpt>
      <trkpt lat="43.50065" lon="6.64391">
        <ele>72.8</ele>
        <time>2023-03-04T10:21:46.000Z</time>
      </trkpt>
      <trkpt lat="43.50059" lon="6.64384">
        <ele>72.8</ele>
        <time>2023-03-04T10:21:48.000Z</time>
      </trkpt>
      <trkpt lat="43.50056" lon="6.64382">
        <ele>72.8</ele>
        <time>2023-03-04T10:21:49.000Z</time>
      </trkpt>
      <trkpt lat="43.50052" lon="6.64379">
        <ele>72.7</ele>
        <time>2023-03-04T10:21:50.000Z</time>
      </trkpt>
      <trkpt lat="43.50049" lon="6.64378">
        <ele>72.7</ele>
        <time>2023-03-04T10:21:51.000Z</time>
      </trkpt>
    </trkseg>
  </trk>
</gpx>